<?xml version="1.0" encoding="UTF-8" standalone="no" ?>
<gpx xmlns="http://www.topografix.com/GPX/1/1" xmlns:xsi="http://www.w3.org/2001/XMLSchema-instance" xsi:schemaLocation="http://www.topografix.com/GPX/1/1 http://www.topografix.com/GPX/1/1/gpx.xsd" version="1.1" creator="VisuGPX - https://www.visugpx.com">
  <metadata>
    <name>Course à pied le midi</name>
  </metadata>
  <trk>
    <name><![CDATA[Course à pied le midi_1]]></name>
    <trkseg>
      <trkpt lat="43.64759" lon="1.3762">
        <ele>157</ele>
        <time>2025-02-02T11:11:56Z</time>
      </trkpt>
      <trkpt lat="43.64761" lon="1.37615">
        <ele>157</ele>
        <time>2025-02-02T11:11:57Z</time>
      </trkpt>
      <trkpt lat="43.64762" lon="1.37614">
        <ele>157</ele>
        <time>2025-02-02T11:11:59Z</time>
      </trkpt>
      <trkpt lat="43.64763" lon="1.37612">
        <ele>158</ele>
        <time>2025-02-02T11:12:00Z</time>
      </trkpt>
      <trkpt lat="43.64765" lon="1.37611">
        <ele>158</ele>
        <time>2025-02-02T11:12:01Z</time>
      </trkpt>
      <trkpt lat="43.64767" lon="1.37609">
        <ele>157</ele>
        <time>2025-02-02T11:12:02Z</time>
      </trkpt>
      <trkpt lat="43.6477" lon="1.37608">
        <ele>157</ele>
        <time>2025-02-02T11:12:03Z</time>
      </trkpt>
      <trkpt lat="43.64772" lon="1.37606">
        <ele>157</ele>
        <time>2025-02-02T11:12:04Z</time>
      </trkpt>
      <trkpt lat="43.64774" lon="1.37605">
        <ele>157</ele>
        <time>2025-02-02T11:12:05Z</time>
      </trkpt>
      <trkpt lat="43.64776" lon="1.37603">
        <ele>157</ele>
        <time>2025-02-02T11:12:06Z</time>
      </trkpt>
      <trkpt lat="43.64778" lon="1.37602">
        <ele>157</ele>
        <time>2025-02-02T11:12:07Z</time>
      </trkpt>
      <trkpt lat="43.64781" lon="1.37601">
        <ele>157</ele>
        <time>2025-02-02T11:12:08Z</time>
      </trkpt>
      <trkpt lat="43.64783" lon="1.37599">
        <ele>157</ele>
        <time>2025-02-02T11:12:09Z</time>
      </trkpt>
      <trkpt lat="43.64785" lon="1.37599">
        <ele>157</ele>
        <time>2025-02-02T11:12:10Z</time>
      </trkpt>
      <trkpt lat="43.64788" lon="1.37598">
        <ele>157</ele>
        <time>2025-02-02T11:12:11Z</time>
      </trkpt>
      <trkpt lat="43.6479" lon="1.37598">
        <ele>157</ele>
        <time>2025-02-02T11:12:12Z</time>
      </trkpt>
      <trkpt lat="43.64792" lon="1.37597">
        <ele>157</ele>
        <time>2025-02-02T11:12:13Z</time>
      </trkpt>
      <trkpt lat="43.64794" lon="1.37596">
        <ele>157</ele>
        <time>2025-02-02T11:12:14Z</time>
      </trkpt>
      <trkpt lat="43.64797" lon="1.37596">
        <ele>157</ele>
        <time>2025-02-02T11:12:15Z</time>
      </trkpt>
      <trkpt lat="43.64798" lon="1.37596">
        <ele>157</ele>
        <time>2025-02-02T11:12:16Z</time>
      </trkpt>
      <trkpt lat="43.64798" lon="1.37596">
        <ele>157</ele>
        <time>2025-02-02T11:12:17Z</time>
      </trkpt>
      <trkpt lat="43.64802" lon="1.37595">
        <ele>157</ele>
        <time>2025-02-02T11:12:18Z</time>
      </trkpt>
      <trkpt lat="43.64806" lon="1.37595">
        <ele>157</ele>
        <time>2025-02-02T11:12:19Z</time>
      </trkpt>
      <trkpt lat="43.64807" lon="1.37595">
        <ele>157</ele>
        <time>2025-02-02T11:12:20Z</time>
      </trkpt>
      <trkpt lat="43.64809" lon="1.37596">
        <ele>157</ele>
        <time>2025-02-02T11:12:21Z</time>
      </trkpt>
      <trkpt lat="43.64811" lon="1.37597">
        <ele>157</ele>
        <time>2025-02-02T11:12:22Z</time>
      </trkpt>
      <trkpt lat="43.64811" lon="1.37597">
        <ele>157</ele>
        <time>2025-02-02T11:12:23Z</time>
      </trkpt>
      <trkpt lat="43.64814" lon="1.37598">
        <ele>157</ele>
        <time>2025-02-02T11:12:24Z</time>
      </trkpt>
      <trkpt lat="43.64816" lon="1.37599">
        <ele>157</ele>
        <time>2025-02-02T11:12:25Z</time>
      </trkpt>
      <trkpt lat="43.64818" lon="1.376">
        <ele>157</ele>
        <time>2025-02-02T11:12:26Z</time>
      </trkpt>
      <trkpt lat="43.64821" lon="1.37601">
        <ele>157</ele>
        <time>2025-02-02T11:12:27Z</time>
      </trkpt>
      <trkpt lat="43.64822" lon="1.37602">
        <ele>157</ele>
        <time>2025-02-02T11:12:28Z</time>
      </trkpt>
      <trkpt lat="43.64825" lon="1.37604">
        <ele>157</ele>
        <time>2025-02-02T11:12:29Z</time>
      </trkpt>
      <trkpt lat="43.64827" lon="1.37605">
        <ele>157</ele>
        <time>2025-02-02T11:12:30Z</time>
      </trkpt>
      <trkpt lat="43.64829" lon="1.37607">
        <ele>157</ele>
        <time>2025-02-02T11:12:31Z</time>
      </trkpt>
      <trkpt lat="43.64831" lon="1.3761">
        <ele>157</ele>
        <time>2025-02-02T11:12:32Z</time>
      </trkpt>
      <trkpt lat="43.64834" lon="1.37612">
        <ele>157</ele>
        <time>2025-02-02T11:12:33Z</time>
      </trkpt>
      <trkpt lat="43.64837" lon="1.37615">
        <ele>157</ele>
        <time>2025-02-02T11:12:34Z</time>
      </trkpt>
      <trkpt lat="43.64838" lon="1.37616">
        <ele>157</ele>
        <time>2025-02-02T11:12:35Z</time>
      </trkpt>
      <trkpt lat="43.64841" lon="1.37618">
        <ele>157</ele>
        <time>2025-02-02T11:12:36Z</time>
      </trkpt>
      <trkpt lat="43.64844" lon="1.3762">
        <ele>157</ele>
        <time>2025-02-02T11:12:37Z</time>
      </trkpt>
      <trkpt lat="43.64847" lon="1.37623">
        <ele>157</ele>
        <time>2025-02-02T11:12:38Z</time>
      </trkpt>
      <trkpt lat="43.64851" lon="1.37628">
        <ele>157</ele>
        <time>2025-02-02T11:12:39Z</time>
      </trkpt>
      <trkpt lat="43.64853" lon="1.3763">
        <ele>157</ele>
        <time>2025-02-02T11:12:40Z</time>
      </trkpt>
      <trkpt lat="43.64855" lon="1.37632">
        <ele>157</ele>
        <time>2025-02-02T11:12:41Z</time>
      </trkpt>
      <trkpt lat="43.64858" lon="1.37635">
        <ele>157</ele>
        <time>2025-02-02T11:12:42Z</time>
      </trkpt>
      <trkpt lat="43.64861" lon="1.37638">
        <ele>157</ele>
        <time>2025-02-02T11:12:43Z</time>
      </trkpt>
      <trkpt lat="43.64863" lon="1.37641">
        <ele>157</ele>
        <time>2025-02-02T11:12:44Z</time>
      </trkpt>
      <trkpt lat="43.64866" lon="1.37643">
        <ele>157</ele>
        <time>2025-02-02T11:12:45Z</time>
      </trkpt>
      <trkpt lat="43.64868" lon="1.37646">
        <ele>157</ele>
        <time>2025-02-02T11:12:46Z</time>
      </trkpt>
      <trkpt lat="43.64871" lon="1.37648">
        <ele>157</ele>
        <time>2025-02-02T11:12:47Z</time>
      </trkpt>
      <trkpt lat="43.64873" lon="1.3765">
        <ele>157</ele>
        <time>2025-02-02T11:12:48Z</time>
      </trkpt>
      <trkpt lat="43.64874" lon="1.37653">
        <ele>157</ele>
        <time>2025-02-02T11:12:49Z</time>
      </trkpt>
      <trkpt lat="43.64876" lon="1.37657">
        <ele>157</ele>
        <time>2025-02-02T11:12:50Z</time>
      </trkpt>
      <trkpt lat="43.64877" lon="1.3766">
        <ele>157</ele>
        <time>2025-02-02T11:12:51Z</time>
      </trkpt>
      <trkpt lat="43.64878" lon="1.37664">
        <ele>157</ele>
        <time>2025-02-02T11:12:52Z</time>
      </trkpt>
      <trkpt lat="43.64879" lon="1.37669">
        <ele>157</ele>
        <time>2025-02-02T11:12:53Z</time>
      </trkpt>
      <trkpt lat="43.64879" lon="1.37671">
        <ele>156</ele>
        <time>2025-02-02T11:12:54Z</time>
      </trkpt>
      <trkpt lat="43.6488" lon="1.37676">
        <ele>156</ele>
        <time>2025-02-02T11:12:55Z</time>
      </trkpt>
      <trkpt lat="43.6488" lon="1.37678">
        <ele>156</ele>
        <time>2025-02-02T11:12:56Z</time>
      </trkpt>
      <trkpt lat="43.64881" lon="1.37681">
        <ele>156</ele>
        <time>2025-02-02T11:12:57Z</time>
      </trkpt>
      <trkpt lat="43.64881" lon="1.37684">
        <ele>156</ele>
        <time>2025-02-02T11:12:58Z</time>
      </trkpt>
      <trkpt lat="43.64882" lon="1.37688">
        <ele>156</ele>
        <time>2025-02-02T11:12:59Z</time>
      </trkpt>
      <trkpt lat="43.64883" lon="1.37691">
        <ele>156</ele>
        <time>2025-02-02T11:13:00Z</time>
      </trkpt>
      <trkpt lat="43.64885" lon="1.37695">
        <ele>156</ele>
        <time>2025-02-02T11:13:01Z</time>
      </trkpt>
      <trkpt lat="43.64885" lon="1.37699">
        <ele>155</ele>
        <time>2025-02-02T11:13:02Z</time>
      </trkpt>
      <trkpt lat="43.64886" lon="1.37703">
        <ele>155</ele>
        <time>2025-02-02T11:13:03Z</time>
      </trkpt>
      <trkpt lat="43.64886" lon="1.37706">
        <ele>155</ele>
        <time>2025-02-02T11:13:04Z</time>
      </trkpt>
      <trkpt lat="43.64887" lon="1.37709">
        <ele>155</ele>
        <time>2025-02-02T11:13:05Z</time>
      </trkpt>
      <trkpt lat="43.64888" lon="1.37712">
        <ele>155</ele>
        <time>2025-02-02T11:13:06Z</time>
      </trkpt>
      <trkpt lat="43.64889" lon="1.37715">
        <ele>155</ele>
        <time>2025-02-02T11:13:07Z</time>
      </trkpt>
      <trkpt lat="43.6489" lon="1.37718">
        <ele>155</ele>
        <time>2025-02-02T11:13:08Z</time>
      </trkpt>
      <trkpt lat="43.64891" lon="1.37724">
        <ele>155</ele>
        <time>2025-02-02T11:13:09Z</time>
      </trkpt>
      <trkpt lat="43.64891" lon="1.37724">
        <ele>155</ele>
        <time>2025-02-02T11:13:10Z</time>
      </trkpt>
      <trkpt lat="43.64892" lon="1.37728">
        <ele>155</ele>
        <time>2025-02-02T11:13:11Z</time>
      </trkpt>
      <trkpt lat="43.64893" lon="1.37733">
        <ele>155</ele>
        <time>2025-02-02T11:13:12Z</time>
      </trkpt>
      <trkpt lat="43.64893" lon="1.37734">
        <ele>155</ele>
        <time>2025-02-02T11:13:13Z</time>
      </trkpt>
      <trkpt lat="43.64894" lon="1.37737">
        <ele>155</ele>
        <time>2025-02-02T11:13:14Z</time>
      </trkpt>
      <trkpt lat="43.64895" lon="1.37742">
        <ele>155</ele>
        <time>2025-02-02T11:13:15Z</time>
      </trkpt>
      <trkpt lat="43.64895" lon="1.37744">
        <ele>155</ele>
        <time>2025-02-02T11:13:16Z</time>
      </trkpt>
      <trkpt lat="43.64896" lon="1.37746">
        <ele>155</ele>
        <time>2025-02-02T11:13:17Z</time>
      </trkpt>
      <trkpt lat="43.64896" lon="1.37749">
        <ele>155</ele>
        <time>2025-02-02T11:13:18Z</time>
      </trkpt>
      <trkpt lat="43.64897" lon="1.37753">
        <ele>155</ele>
        <time>2025-02-02T11:13:19Z</time>
      </trkpt>
      <trkpt lat="43.64898" lon="1.37756">
        <ele>155</ele>
        <time>2025-02-02T11:13:20Z</time>
      </trkpt>
      <trkpt lat="43.64898" lon="1.37759">
        <ele>154</ele>
        <time>2025-02-02T11:13:21Z</time>
      </trkpt>
      <trkpt lat="43.649" lon="1.37762">
        <ele>154</ele>
        <time>2025-02-02T11:13:22Z</time>
      </trkpt>
      <trkpt lat="43.649" lon="1.37765">
        <ele>154</ele>
        <time>2025-02-02T11:13:23Z</time>
      </trkpt>
      <trkpt lat="43.649" lon="1.37768">
        <ele>154</ele>
        <time>2025-02-02T11:13:24Z</time>
      </trkpt>
      <trkpt lat="43.64901" lon="1.37772">
        <ele>154</ele>
        <time>2025-02-02T11:13:25Z</time>
      </trkpt>
      <trkpt lat="43.64902" lon="1.37775">
        <ele>154</ele>
        <time>2025-02-02T11:13:26Z</time>
      </trkpt>
      <trkpt lat="43.64902" lon="1.37778">
        <ele>154</ele>
        <time>2025-02-02T11:13:27Z</time>
      </trkpt>
      <trkpt lat="43.64903" lon="1.37781">
        <ele>153</ele>
        <time>2025-02-02T11:13:28Z</time>
      </trkpt>
      <trkpt lat="43.64904" lon="1.37784">
        <ele>154</ele>
        <time>2025-02-02T11:13:29Z</time>
      </trkpt>
      <trkpt lat="43.64905" lon="1.37787">
        <ele>154</ele>
        <time>2025-02-02T11:13:30Z</time>
      </trkpt>
      <trkpt lat="43.64906" lon="1.37791">
        <ele>154</ele>
        <time>2025-02-02T11:13:31Z</time>
      </trkpt>
      <trkpt lat="43.64906" lon="1.37793">
        <ele>154</ele>
        <time>2025-02-02T11:13:32Z</time>
      </trkpt>
      <trkpt lat="43.64907" lon="1.37796">
        <ele>154</ele>
        <time>2025-02-02T11:13:33Z</time>
      </trkpt>
      <trkpt lat="43.64908" lon="1.37799">
        <ele>154</ele>
        <time>2025-02-02T11:13:34Z</time>
      </trkpt>
      <trkpt lat="43.64909" lon="1.37803">
        <ele>154</ele>
        <time>2025-02-02T11:13:35Z</time>
      </trkpt>
      <trkpt lat="43.64911" lon="1.37808">
        <ele>154</ele>
        <time>2025-02-02T11:13:36Z</time>
      </trkpt>
      <trkpt lat="43.64911" lon="1.37809">
        <ele>154</ele>
        <time>2025-02-02T11:13:37Z</time>
      </trkpt>
      <trkpt lat="43.64912" lon="1.37813">
        <ele>153</ele>
        <time>2025-02-02T11:13:38Z</time>
      </trkpt>
      <trkpt lat="43.64913" lon="1.37816">
        <ele>153</ele>
        <time>2025-02-02T11:13:39Z</time>
      </trkpt>
      <trkpt lat="43.64914" lon="1.37819">
        <ele>154</ele>
        <time>2025-02-02T11:13:40Z</time>
      </trkpt>
      <trkpt lat="43.64914" lon="1.37822">
        <ele>154</ele>
        <time>2025-02-02T11:13:41Z</time>
      </trkpt>
      <trkpt lat="43.64915" lon="1.37825">
        <ele>153</ele>
        <time>2025-02-02T11:13:42Z</time>
      </trkpt>
      <trkpt lat="43.64915" lon="1.37828">
        <ele>153</ele>
        <time>2025-02-02T11:13:43Z</time>
      </trkpt>
      <trkpt lat="43.64916" lon="1.37831">
        <ele>153</ele>
        <time>2025-02-02T11:13:44Z</time>
      </trkpt>
      <trkpt lat="43.64917" lon="1.37834">
        <ele>153</ele>
        <time>2025-02-02T11:13:45Z</time>
      </trkpt>
      <trkpt lat="43.64918" lon="1.37837">
        <ele>153</ele>
        <time>2025-02-02T11:13:46Z</time>
      </trkpt>
      <trkpt lat="43.64919" lon="1.37841">
        <ele>153</ele>
        <time>2025-02-02T11:13:47Z</time>
      </trkpt>
      <trkpt lat="43.6492" lon="1.37844">
        <ele>153</ele>
        <time>2025-02-02T11:13:48Z</time>
      </trkpt>
      <trkpt lat="43.6492" lon="1.37847">
        <ele>153</ele>
        <time>2025-02-02T11:13:49Z</time>
      </trkpt>
      <trkpt lat="43.64922" lon="1.37852">
        <ele>153</ele>
        <time>2025-02-02T11:13:50Z</time>
      </trkpt>
      <trkpt lat="43.64922" lon="1.37854">
        <ele>153</ele>
        <time>2025-02-02T11:13:51Z</time>
      </trkpt>
      <trkpt lat="43.64923" lon="1.37857">
        <ele>153</ele>
        <time>2025-02-02T11:13:52Z</time>
      </trkpt>
      <trkpt lat="43.64924" lon="1.3786">
        <ele>153</ele>
        <time>2025-02-02T11:13:53Z</time>
      </trkpt>
      <trkpt lat="43.64925" lon="1.37863">
        <ele>153</ele>
        <time>2025-02-02T11:13:54Z</time>
      </trkpt>
      <trkpt lat="43.64926" lon="1.37867">
        <ele>153</ele>
        <time>2025-02-02T11:13:55Z</time>
      </trkpt>
      <trkpt lat="43.64928" lon="1.37872">
        <ele>153</ele>
        <time>2025-02-02T11:13:56Z</time>
      </trkpt>
      <trkpt lat="43.64928" lon="1.37874">
        <ele>153</ele>
        <time>2025-02-02T11:13:57Z</time>
      </trkpt>
      <trkpt lat="43.64929" lon="1.37877">
        <ele>153</ele>
        <time>2025-02-02T11:13:58Z</time>
      </trkpt>
      <trkpt lat="43.6493" lon="1.3788">
        <ele>153</ele>
        <time>2025-02-02T11:13:59Z</time>
      </trkpt>
      <trkpt lat="43.6493" lon="1.37884">
        <ele>153</ele>
        <time>2025-02-02T11:14:00Z</time>
      </trkpt>
      <trkpt lat="43.64931" lon="1.37887">
        <ele>153</ele>
        <time>2025-02-02T11:14:01Z</time>
      </trkpt>
      <trkpt lat="43.64932" lon="1.3789">
        <ele>153</ele>
        <time>2025-02-02T11:14:02Z</time>
      </trkpt>
      <trkpt lat="43.64933" lon="1.37893">
        <ele>153</ele>
        <time>2025-02-02T11:14:03Z</time>
      </trkpt>
      <trkpt lat="43.64934" lon="1.37896">
        <ele>153</ele>
        <time>2025-02-02T11:14:04Z</time>
      </trkpt>
      <trkpt lat="43.64935" lon="1.379">
        <ele>153</ele>
        <time>2025-02-02T11:14:05Z</time>
      </trkpt>
      <trkpt lat="43.64936" lon="1.37903">
        <ele>153</ele>
        <time>2025-02-02T11:14:06Z</time>
      </trkpt>
      <trkpt lat="43.64938" lon="1.37906">
        <ele>153</ele>
        <time>2025-02-02T11:14:07Z</time>
      </trkpt>
      <trkpt lat="43.64938" lon="1.37909">
        <ele>153</ele>
        <time>2025-02-02T11:14:08Z</time>
      </trkpt>
      <trkpt lat="43.64938" lon="1.37913">
        <ele>153</ele>
        <time>2025-02-02T11:14:09Z</time>
      </trkpt>
      <trkpt lat="43.64939" lon="1.37915">
        <ele>153</ele>
        <time>2025-02-02T11:14:10Z</time>
      </trkpt>
      <trkpt lat="43.64939" lon="1.37918">
        <ele>153</ele>
        <time>2025-02-02T11:14:11Z</time>
      </trkpt>
      <trkpt lat="43.6494" lon="1.37921">
        <ele>153</ele>
        <time>2025-02-02T11:14:12Z</time>
      </trkpt>
      <trkpt lat="43.64941" lon="1.37925">
        <ele>153</ele>
        <time>2025-02-02T11:14:13Z</time>
      </trkpt>
      <trkpt lat="43.64942" lon="1.37928">
        <ele>153</ele>
        <time>2025-02-02T11:14:14Z</time>
      </trkpt>
      <trkpt lat="43.64942" lon="1.37931">
        <ele>152</ele>
        <time>2025-02-02T11:14:15Z</time>
      </trkpt>
      <trkpt lat="43.64943" lon="1.37936">
        <ele>152</ele>
        <time>2025-02-02T11:14:16Z</time>
      </trkpt>
      <trkpt lat="43.64944" lon="1.37938">
        <ele>152</ele>
        <time>2025-02-02T11:14:17Z</time>
      </trkpt>
      <trkpt lat="43.64944" lon="1.37941">
        <ele>152</ele>
        <time>2025-02-02T11:14:18Z</time>
      </trkpt>
      <trkpt lat="43.64945" lon="1.37944">
        <ele>152</ele>
        <time>2025-02-02T11:14:19Z</time>
      </trkpt>
      <trkpt lat="43.64946" lon="1.37947">
        <ele>152</ele>
        <time>2025-02-02T11:14:20Z</time>
      </trkpt>
      <trkpt lat="43.64946" lon="1.3795">
        <ele>152</ele>
        <time>2025-02-02T11:14:21Z</time>
      </trkpt>
      <trkpt lat="43.64947" lon="1.37953">
        <ele>152</ele>
        <time>2025-02-02T11:14:22Z</time>
      </trkpt>
      <trkpt lat="43.64948" lon="1.37957">
        <ele>152</ele>
        <time>2025-02-02T11:14:23Z</time>
      </trkpt>
      <trkpt lat="43.64949" lon="1.3796">
        <ele>152</ele>
        <time>2025-02-02T11:14:24Z</time>
      </trkpt>
      <trkpt lat="43.64949" lon="1.37964">
        <ele>152</ele>
        <time>2025-02-02T11:14:25Z</time>
      </trkpt>
      <trkpt lat="43.64949" lon="1.37967">
        <ele>152</ele>
        <time>2025-02-02T11:14:26Z</time>
      </trkpt>
      <trkpt lat="43.64949" lon="1.37971">
        <ele>152</ele>
        <time>2025-02-02T11:14:27Z</time>
      </trkpt>
      <trkpt lat="43.64949" lon="1.37976">
        <ele>152</ele>
        <time>2025-02-02T11:14:28Z</time>
      </trkpt>
      <trkpt lat="43.64949" lon="1.37978">
        <ele>151</ele>
        <time>2025-02-02T11:14:29Z</time>
      </trkpt>
      <trkpt lat="43.64949" lon="1.37981">
        <ele>152</ele>
        <time>2025-02-02T11:14:30Z</time>
      </trkpt>
      <trkpt lat="43.6495" lon="1.37984">
        <ele>152</ele>
        <time>2025-02-02T11:14:31Z</time>
      </trkpt>
      <trkpt lat="43.64951" lon="1.37988">
        <ele>152</ele>
        <time>2025-02-02T11:14:32Z</time>
      </trkpt>
      <trkpt lat="43.64952" lon="1.3799">
        <ele>152</ele>
        <time>2025-02-02T11:14:33Z</time>
      </trkpt>
      <trkpt lat="43.64954" lon="1.37993">
        <ele>151</ele>
        <time>2025-02-02T11:14:34Z</time>
      </trkpt>
      <trkpt lat="43.64956" lon="1.37995">
        <ele>151</ele>
        <time>2025-02-02T11:14:35Z</time>
      </trkpt>
      <trkpt lat="43.64957" lon="1.37997">
        <ele>151</ele>
        <time>2025-02-02T11:14:36Z</time>
      </trkpt>
      <trkpt lat="43.6496" lon="1.38001">
        <ele>151</ele>
        <time>2025-02-02T11:14:37Z</time>
      </trkpt>
      <trkpt lat="43.6496" lon="1.38002">
        <ele>151</ele>
        <time>2025-02-02T11:14:38Z</time>
      </trkpt>
      <trkpt lat="43.64962" lon="1.38005">
        <ele>151</ele>
        <time>2025-02-02T11:14:39Z</time>
      </trkpt>
      <trkpt lat="43.64962" lon="1.38009">
        <ele>151</ele>
        <time>2025-02-02T11:14:40Z</time>
      </trkpt>
      <trkpt lat="43.64963" lon="1.38012">
        <ele>151</ele>
        <time>2025-02-02T11:14:41Z</time>
      </trkpt>
      <trkpt lat="43.64964" lon="1.38015">
        <ele>151</ele>
        <time>2025-02-02T11:14:42Z</time>
      </trkpt>
      <trkpt lat="43.64965" lon="1.38018">
        <ele>151</ele>
        <time>2025-02-02T11:14:43Z</time>
      </trkpt>
      <trkpt lat="43.64966" lon="1.38021">
        <ele>151</ele>
        <time>2025-02-02T11:14:44Z</time>
      </trkpt>
      <trkpt lat="43.64967" lon="1.38024">
        <ele>151</ele>
        <time>2025-02-02T11:14:45Z</time>
      </trkpt>
      <trkpt lat="43.64968" lon="1.38026">
        <ele>151</ele>
        <time>2025-02-02T11:14:46Z</time>
      </trkpt>
      <trkpt lat="43.64968" lon="1.38029">
        <ele>151</ele>
        <time>2025-02-02T11:14:47Z</time>
      </trkpt>
      <trkpt lat="43.64969" lon="1.38032">
        <ele>151</ele>
        <time>2025-02-02T11:14:48Z</time>
      </trkpt>
      <trkpt lat="43.6497" lon="1.38035">
        <ele>150</ele>
        <time>2025-02-02T11:14:49Z</time>
      </trkpt>
      <trkpt lat="43.64972" lon="1.38038">
        <ele>149</ele>
        <time>2025-02-02T11:14:50Z</time>
      </trkpt>
      <trkpt lat="43.64973" lon="1.38041">
        <ele>150</ele>
        <time>2025-02-02T11:14:51Z</time>
      </trkpt>
      <trkpt lat="43.64974" lon="1.38045">
        <ele>150</ele>
        <time>2025-02-02T11:14:52Z</time>
      </trkpt>
      <trkpt lat="43.64976" lon="1.38047">
        <ele>150</ele>
        <time>2025-02-02T11:14:53Z</time>
      </trkpt>
      <trkpt lat="43.64977" lon="1.38051">
        <ele>150</ele>
        <time>2025-02-02T11:14:54Z</time>
      </trkpt>
      <trkpt lat="43.64978" lon="1.38054">
        <ele>150</ele>
        <time>2025-02-02T11:14:55Z</time>
      </trkpt>
      <trkpt lat="43.64979" lon="1.38057">
        <ele>150</ele>
        <time>2025-02-02T11:14:56Z</time>
      </trkpt>
      <trkpt lat="43.64981" lon="1.38061">
        <ele>150</ele>
        <time>2025-02-02T11:14:57Z</time>
      </trkpt>
      <trkpt lat="43.64982" lon="1.38062">
        <ele>150</ele>
        <time>2025-02-02T11:14:58Z</time>
      </trkpt>
      <trkpt lat="43.64983" lon="1.38065">
        <ele>150</ele>
        <time>2025-02-02T11:14:59Z</time>
      </trkpt>
      <trkpt lat="43.64984" lon="1.38068">
        <ele>150</ele>
        <time>2025-02-02T11:15:00Z</time>
      </trkpt>
      <trkpt lat="43.64985" lon="1.38071">
        <ele>151</ele>
        <time>2025-02-02T11:15:01Z</time>
      </trkpt>
      <trkpt lat="43.64986" lon="1.38074">
        <ele>151</ele>
        <time>2025-02-02T11:15:02Z</time>
      </trkpt>
      <trkpt lat="43.64987" lon="1.38077">
        <ele>151</ele>
        <time>2025-02-02T11:15:03Z</time>
      </trkpt>
      <trkpt lat="43.64988" lon="1.3808">
        <ele>151</ele>
        <time>2025-02-02T11:15:04Z</time>
      </trkpt>
      <trkpt lat="43.64989" lon="1.38083">
        <ele>151</ele>
        <time>2025-02-02T11:15:05Z</time>
      </trkpt>
      <trkpt lat="43.64991" lon="1.38088">
        <ele>151</ele>
        <time>2025-02-02T11:15:06Z</time>
      </trkpt>
      <trkpt lat="43.64992" lon="1.3809">
        <ele>151</ele>
        <time>2025-02-02T11:15:07Z</time>
      </trkpt>
      <trkpt lat="43.64993" lon="1.38093">
        <ele>151</ele>
        <time>2025-02-02T11:15:08Z</time>
      </trkpt>
      <trkpt lat="43.64994" lon="1.38096">
        <ele>151</ele>
        <time>2025-02-02T11:15:09Z</time>
      </trkpt>
      <trkpt lat="43.64996" lon="1.381">
        <ele>150</ele>
        <time>2025-02-02T11:15:10Z</time>
      </trkpt>
      <trkpt lat="43.64997" lon="1.38103">
        <ele>150</ele>
        <time>2025-02-02T11:15:11Z</time>
      </trkpt>
      <trkpt lat="43.64998" lon="1.38107">
        <ele>151</ele>
        <time>2025-02-02T11:15:12Z</time>
      </trkpt>
      <trkpt lat="43.64998" lon="1.3811">
        <ele>151</ele>
        <time>2025-02-02T11:15:13Z</time>
      </trkpt>
      <trkpt lat="43.64999" lon="1.38114">
        <ele>151</ele>
        <time>2025-02-02T11:15:14Z</time>
      </trkpt>
      <trkpt lat="43.65" lon="1.38118">
        <ele>151</ele>
        <time>2025-02-02T11:15:15Z</time>
      </trkpt>
      <trkpt lat="43.65" lon="1.38121">
        <ele>151</ele>
        <time>2025-02-02T11:15:16Z</time>
      </trkpt>
      <trkpt lat="43.65001" lon="1.38125">
        <ele>150</ele>
        <time>2025-02-02T11:15:17Z</time>
      </trkpt>
      <trkpt lat="43.65001" lon="1.38128">
        <ele>150</ele>
        <time>2025-02-02T11:15:18Z</time>
      </trkpt>
      <trkpt lat="43.65002" lon="1.38132">
        <ele>150</ele>
        <time>2025-02-02T11:15:19Z</time>
      </trkpt>
      <trkpt lat="43.65002" lon="1.38135">
        <ele>150</ele>
        <time>2025-02-02T11:15:20Z</time>
      </trkpt>
      <trkpt lat="43.65002" lon="1.38139">
        <ele>150</ele>
        <time>2025-02-02T11:15:21Z</time>
      </trkpt>
      <trkpt lat="43.65002" lon="1.38143">
        <ele>150</ele>
        <time>2025-02-02T11:15:22Z</time>
      </trkpt>
      <trkpt lat="43.65003" lon="1.38147">
        <ele>150</ele>
        <time>2025-02-02T11:15:23Z</time>
      </trkpt>
      <trkpt lat="43.65002" lon="1.3815">
        <ele>150</ele>
        <time>2025-02-02T11:15:24Z</time>
      </trkpt>
      <trkpt lat="43.65001" lon="1.38156">
        <ele>150</ele>
        <time>2025-02-02T11:15:25Z</time>
      </trkpt>
      <trkpt lat="43.65" lon="1.38157">
        <ele>151</ele>
        <time>2025-02-02T11:15:26Z</time>
      </trkpt>
      <trkpt lat="43.64999" lon="1.38161">
        <ele>151</ele>
        <time>2025-02-02T11:15:27Z</time>
      </trkpt>
      <trkpt lat="43.64998" lon="1.38164">
        <ele>150</ele>
        <time>2025-02-02T11:15:28Z</time>
      </trkpt>
      <trkpt lat="43.64997" lon="1.38167">
        <ele>150</ele>
        <time>2025-02-02T11:15:29Z</time>
      </trkpt>
      <trkpt lat="43.64996" lon="1.38171">
        <ele>150</ele>
        <time>2025-02-02T11:15:30Z</time>
      </trkpt>
      <trkpt lat="43.64995" lon="1.38174">
        <ele>150</ele>
        <time>2025-02-02T11:15:31Z</time>
      </trkpt>
      <trkpt lat="43.64996" lon="1.38178">
        <ele>151</ele>
        <time>2025-02-02T11:15:32Z</time>
      </trkpt>
      <trkpt lat="43.64997" lon="1.38181">
        <ele>151</ele>
        <time>2025-02-02T11:15:33Z</time>
      </trkpt>
      <trkpt lat="43.64999" lon="1.38183">
        <ele>150</ele>
        <time>2025-02-02T11:15:34Z</time>
      </trkpt>
      <trkpt lat="43.65" lon="1.38185">
        <ele>150</ele>
        <time>2025-02-02T11:15:35Z</time>
      </trkpt>
      <trkpt lat="43.65003" lon="1.38188">
        <ele>150</ele>
        <time>2025-02-02T11:15:36Z</time>
      </trkpt>
      <trkpt lat="43.65004" lon="1.38189">
        <ele>150</ele>
        <time>2025-02-02T11:15:37Z</time>
      </trkpt>
      <trkpt lat="43.65006" lon="1.38192">
        <ele>150</ele>
        <time>2025-02-02T11:15:38Z</time>
      </trkpt>
      <trkpt lat="43.65007" lon="1.38195">
        <ele>150</ele>
        <time>2025-02-02T11:15:39Z</time>
      </trkpt>
      <trkpt lat="43.65009" lon="1.38198">
        <ele>150</ele>
        <time>2025-02-02T11:15:40Z</time>
      </trkpt>
      <trkpt lat="43.6501" lon="1.38202">
        <ele>150</ele>
        <time>2025-02-02T11:15:41Z</time>
      </trkpt>
      <trkpt lat="43.65012" lon="1.38205">
        <ele>150</ele>
        <time>2025-02-02T11:15:42Z</time>
      </trkpt>
      <trkpt lat="43.65013" lon="1.38208">
        <ele>149</ele>
        <time>2025-02-02T11:15:43Z</time>
      </trkpt>
      <trkpt lat="43.65014" lon="1.38213">
        <ele>149</ele>
        <time>2025-02-02T11:15:45Z</time>
      </trkpt>
      <trkpt lat="43.65016" lon="1.38217">
        <ele>149</ele>
        <time>2025-02-02T11:15:46Z</time>
      </trkpt>
      <trkpt lat="43.65017" lon="1.38221">
        <ele>149</ele>
        <time>2025-02-02T11:15:47Z</time>
      </trkpt>
      <trkpt lat="43.65018" lon="1.38224">
        <ele>149</ele>
        <time>2025-02-02T11:15:48Z</time>
      </trkpt>
      <trkpt lat="43.65019" lon="1.38227">
        <ele>149</ele>
        <time>2025-02-02T11:15:49Z</time>
      </trkpt>
      <trkpt lat="43.6502" lon="1.3823">
        <ele>149</ele>
        <time>2025-02-02T11:15:50Z</time>
      </trkpt>
      <trkpt lat="43.65021" lon="1.38233">
        <ele>149</ele>
        <time>2025-02-02T11:15:51Z</time>
      </trkpt>
      <trkpt lat="43.65022" lon="1.38236">
        <ele>149</ele>
        <time>2025-02-02T11:15:52Z</time>
      </trkpt>
      <trkpt lat="43.65022" lon="1.38239">
        <ele>149</ele>
        <time>2025-02-02T11:15:53Z</time>
      </trkpt>
      <trkpt lat="43.65022" lon="1.38241">
        <ele>149</ele>
        <time>2025-02-02T11:15:54Z</time>
      </trkpt>
      <trkpt lat="43.65022" lon="1.38244">
        <ele>149</ele>
        <time>2025-02-02T11:15:55Z</time>
      </trkpt>
      <trkpt lat="43.65023" lon="1.38247">
        <ele>149</ele>
        <time>2025-02-02T11:15:56Z</time>
      </trkpt>
      <trkpt lat="43.65023" lon="1.3825">
        <ele>149</ele>
        <time>2025-02-02T11:15:57Z</time>
      </trkpt>
      <trkpt lat="43.65025" lon="1.38256">
        <ele>149</ele>
        <time>2025-02-02T11:15:58Z</time>
      </trkpt>
      <trkpt lat="43.65025" lon="1.3826">
        <ele>149</ele>
        <time>2025-02-02T11:15:59Z</time>
      </trkpt>
      <trkpt lat="43.65026" lon="1.38263">
        <ele>149</ele>
        <time>2025-02-02T11:16:00Z</time>
      </trkpt>
      <trkpt lat="43.65027" lon="1.38266">
        <ele>149</ele>
        <time>2025-02-02T11:16:01Z</time>
      </trkpt>
      <trkpt lat="43.65028" lon="1.38269">
        <ele>149</ele>
        <time>2025-02-02T11:16:02Z</time>
      </trkpt>
      <trkpt lat="43.65029" lon="1.38274">
        <ele>149</ele>
        <time>2025-02-02T11:16:03Z</time>
      </trkpt>
      <trkpt lat="43.6503" lon="1.38276">
        <ele>149</ele>
        <time>2025-02-02T11:16:04Z</time>
      </trkpt>
      <trkpt lat="43.65031" lon="1.38278">
        <ele>149</ele>
        <time>2025-02-02T11:16:05Z</time>
      </trkpt>
      <trkpt lat="43.65032" lon="1.38282">
        <ele>149</ele>
        <time>2025-02-02T11:16:06Z</time>
      </trkpt>
      <trkpt lat="43.65033" lon="1.38285">
        <ele>149</ele>
        <time>2025-02-02T11:16:07Z</time>
      </trkpt>
      <trkpt lat="43.65034" lon="1.38288">
        <ele>149</ele>
        <time>2025-02-02T11:16:08Z</time>
      </trkpt>
      <trkpt lat="43.65035" lon="1.38291">
        <ele>149</ele>
        <time>2025-02-02T11:16:09Z</time>
      </trkpt>
      <trkpt lat="43.65036" lon="1.38294">
        <ele>149</ele>
        <time>2025-02-02T11:16:10Z</time>
      </trkpt>
      <trkpt lat="43.65038" lon="1.38297">
        <ele>148</ele>
        <time>2025-02-02T11:16:11Z</time>
      </trkpt>
      <trkpt lat="43.65039" lon="1.383">
        <ele>148</ele>
        <time>2025-02-02T11:16:12Z</time>
      </trkpt>
      <trkpt lat="43.6504" lon="1.38303">
        <ele>148</ele>
        <time>2025-02-02T11:16:13Z</time>
      </trkpt>
      <trkpt lat="43.6504" lon="1.38306">
        <ele>148</ele>
        <time>2025-02-02T11:16:14Z</time>
      </trkpt>
      <trkpt lat="43.65042" lon="1.38311">
        <ele>148</ele>
        <time>2025-02-02T11:16:15Z</time>
      </trkpt>
      <trkpt lat="43.65042" lon="1.38313">
        <ele>148</ele>
        <time>2025-02-02T11:16:16Z</time>
      </trkpt>
      <trkpt lat="43.65043" lon="1.38316">
        <ele>148</ele>
        <time>2025-02-02T11:16:17Z</time>
      </trkpt>
      <trkpt lat="43.65044" lon="1.38319">
        <ele>148</ele>
        <time>2025-02-02T11:16:18Z</time>
      </trkpt>
      <trkpt lat="43.65045" lon="1.38322">
        <ele>148</ele>
        <time>2025-02-02T11:16:19Z</time>
      </trkpt>
      <trkpt lat="43.65046" lon="1.38325">
        <ele>148</ele>
        <time>2025-02-02T11:16:20Z</time>
      </trkpt>
      <trkpt lat="43.65047" lon="1.38329">
        <ele>148</ele>
        <time>2025-02-02T11:16:21Z</time>
      </trkpt>
      <trkpt lat="43.65049" lon="1.38333">
        <ele>148</ele>
        <time>2025-02-02T11:16:22Z</time>
      </trkpt>
      <trkpt lat="43.65049" lon="1.38335">
        <ele>148</ele>
        <time>2025-02-02T11:16:23Z</time>
      </trkpt>
      <trkpt lat="43.6505" lon="1.38338">
        <ele>148</ele>
        <time>2025-02-02T11:16:24Z</time>
      </trkpt>
      <trkpt lat="43.65051" lon="1.38341">
        <ele>148</ele>
        <time>2025-02-02T11:16:25Z</time>
      </trkpt>
      <trkpt lat="43.65052" lon="1.38344">
        <ele>148</ele>
        <time>2025-02-02T11:16:26Z</time>
      </trkpt>
      <trkpt lat="43.65053" lon="1.38347">
        <ele>148</ele>
        <time>2025-02-02T11:16:27Z</time>
      </trkpt>
      <trkpt lat="43.65054" lon="1.3835">
        <ele>147</ele>
        <time>2025-02-02T11:16:28Z</time>
      </trkpt>
      <trkpt lat="43.65056" lon="1.38357">
        <ele>147</ele>
        <time>2025-02-02T11:16:29Z</time>
      </trkpt>
      <trkpt lat="43.65056" lon="1.38357">
        <ele>147</ele>
        <time>2025-02-02T11:16:30Z</time>
      </trkpt>
      <trkpt lat="43.65057" lon="1.3836">
        <ele>147</ele>
        <time>2025-02-02T11:16:31Z</time>
      </trkpt>
      <trkpt lat="43.65058" lon="1.38363">
        <ele>147</ele>
        <time>2025-02-02T11:16:32Z</time>
      </trkpt>
      <trkpt lat="43.65059" lon="1.38366">
        <ele>147</ele>
        <time>2025-02-02T11:16:33Z</time>
      </trkpt>
      <trkpt lat="43.6506" lon="1.38369">
        <ele>147</ele>
        <time>2025-02-02T11:16:34Z</time>
      </trkpt>
      <trkpt lat="43.65061" lon="1.38374">
        <ele>147</ele>
        <time>2025-02-02T11:16:35Z</time>
      </trkpt>
      <trkpt lat="43.65062" lon="1.38376">
        <ele>147</ele>
        <time>2025-02-02T11:16:36Z</time>
      </trkpt>
      <trkpt lat="43.65063" lon="1.38379">
        <ele>147</ele>
        <time>2025-02-02T11:16:37Z</time>
      </trkpt>
      <trkpt lat="43.65064" lon="1.38382">
        <ele>147</ele>
        <time>2025-02-02T11:16:38Z</time>
      </trkpt>
      <trkpt lat="43.65065" lon="1.38385">
        <ele>147</ele>
        <time>2025-02-02T11:16:39Z</time>
      </trkpt>
      <trkpt lat="43.65066" lon="1.38389">
        <ele>147</ele>
        <time>2025-02-02T11:16:40Z</time>
      </trkpt>
      <trkpt lat="43.65068" lon="1.38393">
        <ele>147</ele>
        <time>2025-02-02T11:16:41Z</time>
      </trkpt>
      <trkpt lat="43.65068" lon="1.38395">
        <ele>147</ele>
        <time>2025-02-02T11:16:42Z</time>
      </trkpt>
      <trkpt lat="43.65069" lon="1.38398">
        <ele>148</ele>
        <time>2025-02-02T11:16:43Z</time>
      </trkpt>
      <trkpt lat="43.6507" lon="1.38401">
        <ele>148</ele>
        <time>2025-02-02T11:16:44Z</time>
      </trkpt>
      <trkpt lat="43.65072" lon="1.38406">
        <ele>148</ele>
        <time>2025-02-02T11:16:45Z</time>
      </trkpt>
      <trkpt lat="43.65072" lon="1.38408">
        <ele>147</ele>
        <time>2025-02-02T11:16:46Z</time>
      </trkpt>
      <trkpt lat="43.65073" lon="1.38411">
        <ele>147</ele>
        <time>2025-02-02T11:16:47Z</time>
      </trkpt>
      <trkpt lat="43.65074" lon="1.38414">
        <ele>147</ele>
        <time>2025-02-02T11:16:48Z</time>
      </trkpt>
      <trkpt lat="43.65075" lon="1.38417">
        <ele>147</ele>
        <time>2025-02-02T11:16:49Z</time>
      </trkpt>
      <trkpt lat="43.65075" lon="1.3842">
        <ele>147</ele>
        <time>2025-02-02T11:16:50Z</time>
      </trkpt>
      <trkpt lat="43.65076" lon="1.38423">
        <ele>147</ele>
        <time>2025-02-02T11:16:51Z</time>
      </trkpt>
      <trkpt lat="43.65077" lon="1.38426">
        <ele>147</ele>
        <time>2025-02-02T11:16:52Z</time>
      </trkpt>
      <trkpt lat="43.65078" lon="1.38429">
        <ele>147</ele>
        <time>2025-02-02T11:16:53Z</time>
      </trkpt>
      <trkpt lat="43.65078" lon="1.38432">
        <ele>147</ele>
        <time>2025-02-02T11:16:54Z</time>
      </trkpt>
      <trkpt lat="43.65079" lon="1.38434">
        <ele>146</ele>
        <time>2025-02-02T11:16:55Z</time>
      </trkpt>
      <trkpt lat="43.6508" lon="1.38437">
        <ele>146</ele>
        <time>2025-02-02T11:16:56Z</time>
      </trkpt>
      <trkpt lat="43.65081" lon="1.3844">
        <ele>146</ele>
        <time>2025-02-02T11:16:57Z</time>
      </trkpt>
      <trkpt lat="43.65082" lon="1.38443">
        <ele>146</ele>
        <time>2025-02-02T11:16:58Z</time>
      </trkpt>
      <trkpt lat="43.65083" lon="1.38446">
        <ele>146</ele>
        <time>2025-02-02T11:16:59Z</time>
      </trkpt>
      <trkpt lat="43.65085" lon="1.3845">
        <ele>146</ele>
        <time>2025-02-02T11:17:00Z</time>
      </trkpt>
      <trkpt lat="43.65085" lon="1.38451">
        <ele>147</ele>
        <time>2025-02-02T11:17:01Z</time>
      </trkpt>
      <trkpt lat="43.65086" lon="1.38454">
        <ele>147</ele>
        <time>2025-02-02T11:17:02Z</time>
      </trkpt>
      <trkpt lat="43.65087" lon="1.38457">
        <ele>147</ele>
        <time>2025-02-02T11:17:03Z</time>
      </trkpt>
      <trkpt lat="43.65089" lon="1.3846">
        <ele>146</ele>
        <time>2025-02-02T11:17:04Z</time>
      </trkpt>
      <trkpt lat="43.6509" lon="1.38463">
        <ele>147</ele>
        <time>2025-02-02T11:17:05Z</time>
      </trkpt>
      <trkpt lat="43.65091" lon="1.38466">
        <ele>147</ele>
        <time>2025-02-02T11:17:06Z</time>
      </trkpt>
      <trkpt lat="43.65092" lon="1.38469">
        <ele>147</ele>
        <time>2025-02-02T11:17:07Z</time>
      </trkpt>
      <trkpt lat="43.65092" lon="1.38473">
        <ele>147</ele>
        <time>2025-02-02T11:17:08Z</time>
      </trkpt>
      <trkpt lat="43.65094" lon="1.38475">
        <ele>146</ele>
        <time>2025-02-02T11:17:09Z</time>
      </trkpt>
      <trkpt lat="43.65095" lon="1.38478">
        <ele>146</ele>
        <time>2025-02-02T11:17:10Z</time>
      </trkpt>
      <trkpt lat="43.65096" lon="1.38481">
        <ele>146</ele>
        <time>2025-02-02T11:17:11Z</time>
      </trkpt>
      <trkpt lat="43.65097" lon="1.38484">
        <ele>146</ele>
        <time>2025-02-02T11:17:12Z</time>
      </trkpt>
      <trkpt lat="43.65098" lon="1.38488">
        <ele>146</ele>
        <time>2025-02-02T11:17:13Z</time>
      </trkpt>
      <trkpt lat="43.65099" lon="1.38491">
        <ele>146</ele>
        <time>2025-02-02T11:17:14Z</time>
      </trkpt>
      <trkpt lat="43.65099" lon="1.38494">
        <ele>146</ele>
        <time>2025-02-02T11:17:15Z</time>
      </trkpt>
      <trkpt lat="43.65101" lon="1.38497">
        <ele>146</ele>
        <time>2025-02-02T11:17:16Z</time>
      </trkpt>
      <trkpt lat="43.65101" lon="1.38503">
        <ele>146</ele>
        <time>2025-02-02T11:17:17Z</time>
      </trkpt>
      <trkpt lat="43.65101" lon="1.38504">
        <ele>145</ele>
        <time>2025-02-02T11:17:18Z</time>
      </trkpt>
      <trkpt lat="43.651" lon="1.3851">
        <ele>145</ele>
        <time>2025-02-02T11:17:19Z</time>
      </trkpt>
      <trkpt lat="43.651" lon="1.38512">
        <ele>145</ele>
        <time>2025-02-02T11:17:20Z</time>
      </trkpt>
      <trkpt lat="43.651" lon="1.38515">
        <ele>145</ele>
        <time>2025-02-02T11:17:21Z</time>
      </trkpt>
      <trkpt lat="43.65099" lon="1.38519">
        <ele>145</ele>
        <time>2025-02-02T11:17:22Z</time>
      </trkpt>
      <trkpt lat="43.65099" lon="1.38522">
        <ele>144</ele>
        <time>2025-02-02T11:17:23Z</time>
      </trkpt>
      <trkpt lat="43.65098" lon="1.38526">
        <ele>144</ele>
        <time>2025-02-02T11:17:24Z</time>
      </trkpt>
      <trkpt lat="43.65098" lon="1.3853">
        <ele>144</ele>
        <time>2025-02-02T11:17:25Z</time>
      </trkpt>
      <trkpt lat="43.65099" lon="1.38533">
        <ele>144</ele>
        <time>2025-02-02T11:17:26Z</time>
      </trkpt>
      <trkpt lat="43.65101" lon="1.38536">
        <ele>144</ele>
        <time>2025-02-02T11:17:27Z</time>
      </trkpt>
      <trkpt lat="43.65102" lon="1.38539">
        <ele>144</ele>
        <time>2025-02-02T11:17:28Z</time>
      </trkpt>
      <trkpt lat="43.65104" lon="1.38541">
        <ele>144</ele>
        <time>2025-02-02T11:17:29Z</time>
      </trkpt>
      <trkpt lat="43.65106" lon="1.38542">
        <ele>144</ele>
        <time>2025-02-02T11:17:30Z</time>
      </trkpt>
      <trkpt lat="43.65109" lon="1.38542">
        <ele>144</ele>
        <time>2025-02-02T11:17:31Z</time>
      </trkpt>
      <trkpt lat="43.65112" lon="1.38543">
        <ele>144</ele>
        <time>2025-02-02T11:17:32Z</time>
      </trkpt>
      <trkpt lat="43.65114" lon="1.38543">
        <ele>144</ele>
        <time>2025-02-02T11:17:33Z</time>
      </trkpt>
      <trkpt lat="43.65117" lon="1.38545">
        <ele>144</ele>
        <time>2025-02-02T11:17:34Z</time>
      </trkpt>
      <trkpt lat="43.65119" lon="1.38548">
        <ele>144</ele>
        <time>2025-02-02T11:17:35Z</time>
      </trkpt>
      <trkpt lat="43.65121" lon="1.38554">
        <ele>144</ele>
        <time>2025-02-02T11:17:36Z</time>
      </trkpt>
      <trkpt lat="43.65121" lon="1.38555">
        <ele>144</ele>
        <time>2025-02-02T11:17:37Z</time>
      </trkpt>
      <trkpt lat="43.65123" lon="1.38561">
        <ele>144</ele>
        <time>2025-02-02T11:17:38Z</time>
      </trkpt>
      <trkpt lat="43.65124" lon="1.38563">
        <ele>144</ele>
        <time>2025-02-02T11:17:39Z</time>
      </trkpt>
      <trkpt lat="43.65124" lon="1.38566">
        <ele>144</ele>
        <time>2025-02-02T11:17:40Z</time>
      </trkpt>
      <trkpt lat="43.65125" lon="1.38569">
        <ele>144</ele>
        <time>2025-02-02T11:17:41Z</time>
      </trkpt>
      <trkpt lat="43.65126" lon="1.38573">
        <ele>144</ele>
        <time>2025-02-02T11:17:42Z</time>
      </trkpt>
      <trkpt lat="43.65127" lon="1.38576">
        <ele>144</ele>
        <time>2025-02-02T11:17:43Z</time>
      </trkpt>
      <trkpt lat="43.65128" lon="1.38579">
        <ele>144</ele>
        <time>2025-02-02T11:17:44Z</time>
      </trkpt>
      <trkpt lat="43.65128" lon="1.38582">
        <ele>144</ele>
        <time>2025-02-02T11:17:45Z</time>
      </trkpt>
      <trkpt lat="43.65129" lon="1.38585">
        <ele>144</ele>
        <time>2025-02-02T11:17:46Z</time>
      </trkpt>
      <trkpt lat="43.6513" lon="1.38588">
        <ele>144</ele>
        <time>2025-02-02T11:17:47Z</time>
      </trkpt>
      <trkpt lat="43.65131" lon="1.38592">
        <ele>144</ele>
        <time>2025-02-02T11:17:48Z</time>
      </trkpt>
      <trkpt lat="43.65131" lon="1.38595">
        <ele>144</ele>
        <time>2025-02-02T11:17:49Z</time>
      </trkpt>
      <trkpt lat="43.65132" lon="1.38598">
        <ele>144</ele>
        <time>2025-02-02T11:17:50Z</time>
      </trkpt>
      <trkpt lat="43.65133" lon="1.38601">
        <ele>144</ele>
        <time>2025-02-02T11:17:51Z</time>
      </trkpt>
      <trkpt lat="43.65134" lon="1.38605">
        <ele>144</ele>
        <time>2025-02-02T11:17:52Z</time>
      </trkpt>
      <trkpt lat="43.65135" lon="1.38608">
        <ele>144</ele>
        <time>2025-02-02T11:17:53Z</time>
      </trkpt>
      <trkpt lat="43.65136" lon="1.38611">
        <ele>143</ele>
        <time>2025-02-02T11:17:54Z</time>
      </trkpt>
      <trkpt lat="43.65137" lon="1.38616">
        <ele>143</ele>
        <time>2025-02-02T11:17:55Z</time>
      </trkpt>
      <trkpt lat="43.65137" lon="1.38618">
        <ele>143</ele>
        <time>2025-02-02T11:17:56Z</time>
      </trkpt>
      <trkpt lat="43.65137" lon="1.38623">
        <ele>143</ele>
        <time>2025-02-02T11:17:57Z</time>
      </trkpt>
      <trkpt lat="43.65137" lon="1.38624">
        <ele>143</ele>
        <time>2025-02-02T11:17:58Z</time>
      </trkpt>
      <trkpt lat="43.65137" lon="1.38627">
        <ele>143</ele>
        <time>2025-02-02T11:17:59Z</time>
      </trkpt>
      <trkpt lat="43.65138" lon="1.3863">
        <ele>143</ele>
        <time>2025-02-02T11:18:00Z</time>
      </trkpt>
      <trkpt lat="43.65139" lon="1.38633">
        <ele>143</ele>
        <time>2025-02-02T11:18:01Z</time>
      </trkpt>
      <trkpt lat="43.6514" lon="1.38636">
        <ele>143</ele>
        <time>2025-02-02T11:18:02Z</time>
      </trkpt>
      <trkpt lat="43.65141" lon="1.38639">
        <ele>143</ele>
        <time>2025-02-02T11:18:03Z</time>
      </trkpt>
      <trkpt lat="43.65143" lon="1.38644">
        <ele>143</ele>
        <time>2025-02-02T11:18:04Z</time>
      </trkpt>
      <trkpt lat="43.65143" lon="1.38644">
        <ele>143</ele>
        <time>2025-02-02T11:18:05Z</time>
      </trkpt>
      <trkpt lat="43.65144" lon="1.38647">
        <ele>143</ele>
        <time>2025-02-02T11:18:06Z</time>
      </trkpt>
      <trkpt lat="43.65145" lon="1.3865">
        <ele>143</ele>
        <time>2025-02-02T11:18:07Z</time>
      </trkpt>
      <trkpt lat="43.65146" lon="1.38653">
        <ele>143</ele>
        <time>2025-02-02T11:18:08Z</time>
      </trkpt>
      <trkpt lat="43.65148" lon="1.38656">
        <ele>143</ele>
        <time>2025-02-02T11:18:09Z</time>
      </trkpt>
      <trkpt lat="43.65149" lon="1.38659">
        <ele>143</ele>
        <time>2025-02-02T11:18:10Z</time>
      </trkpt>
      <trkpt lat="43.6515" lon="1.38662">
        <ele>143</ele>
        <time>2025-02-02T11:18:11Z</time>
      </trkpt>
      <trkpt lat="43.65151" lon="1.38665">
        <ele>143</ele>
        <time>2025-02-02T11:18:12Z</time>
      </trkpt>
      <trkpt lat="43.65152" lon="1.38668">
        <ele>143</ele>
        <time>2025-02-02T11:18:13Z</time>
      </trkpt>
      <trkpt lat="43.65153" lon="1.38671">
        <ele>143</ele>
        <time>2025-02-02T11:18:14Z</time>
      </trkpt>
      <trkpt lat="43.65153" lon="1.38674">
        <ele>143</ele>
        <time>2025-02-02T11:18:15Z</time>
      </trkpt>
      <trkpt lat="43.65154" lon="1.38677">
        <ele>143</ele>
        <time>2025-02-02T11:18:16Z</time>
      </trkpt>
      <trkpt lat="43.65155" lon="1.3868">
        <ele>143</ele>
        <time>2025-02-02T11:18:17Z</time>
      </trkpt>
      <trkpt lat="43.65156" lon="1.38683">
        <ele>143</ele>
        <time>2025-02-02T11:18:18Z</time>
      </trkpt>
      <trkpt lat="43.65157" lon="1.38686">
        <ele>143</ele>
        <time>2025-02-02T11:18:19Z</time>
      </trkpt>
      <trkpt lat="43.65158" lon="1.38688">
        <ele>143</ele>
        <time>2025-02-02T11:18:20Z</time>
      </trkpt>
      <trkpt lat="43.65158" lon="1.38691">
        <ele>143</ele>
        <time>2025-02-02T11:18:21Z</time>
      </trkpt>
      <trkpt lat="43.65159" lon="1.38694">
        <ele>143</ele>
        <time>2025-02-02T11:18:22Z</time>
      </trkpt>
      <trkpt lat="43.65159" lon="1.38694">
        <ele>143</ele>
        <time>2025-02-02T11:18:23Z</time>
      </trkpt>
      <trkpt lat="43.6516" lon="1.38699">
        <ele>143</ele>
        <time>2025-02-02T11:18:24Z</time>
      </trkpt>
      <trkpt lat="43.6516" lon="1.38702">
        <ele>143</ele>
        <time>2025-02-02T11:18:25Z</time>
      </trkpt>
      <trkpt lat="43.65161" lon="1.38705">
        <ele>143</ele>
        <time>2025-02-02T11:18:26Z</time>
      </trkpt>
      <trkpt lat="43.65162" lon="1.38707">
        <ele>143</ele>
        <time>2025-02-02T11:18:27Z</time>
      </trkpt>
      <trkpt lat="43.65163" lon="1.3871">
        <ele>143</ele>
        <time>2025-02-02T11:18:28Z</time>
      </trkpt>
      <trkpt lat="43.65164" lon="1.38713">
        <ele>143</ele>
        <time>2025-02-02T11:18:29Z</time>
      </trkpt>
      <trkpt lat="43.65165" lon="1.38716">
        <ele>143</ele>
        <time>2025-02-02T11:18:30Z</time>
      </trkpt>
      <trkpt lat="43.65166" lon="1.38719">
        <ele>143</ele>
        <time>2025-02-02T11:18:31Z</time>
      </trkpt>
      <trkpt lat="43.65167" lon="1.38722">
        <ele>143</ele>
        <time>2025-02-02T11:18:32Z</time>
      </trkpt>
      <trkpt lat="43.65168" lon="1.38725">
        <ele>143</ele>
        <time>2025-02-02T11:18:33Z</time>
      </trkpt>
      <trkpt lat="43.65169" lon="1.38729">
        <ele>143</ele>
        <time>2025-02-02T11:18:34Z</time>
      </trkpt>
      <trkpt lat="43.65171" lon="1.38734">
        <ele>143</ele>
        <time>2025-02-02T11:18:35Z</time>
      </trkpt>
      <trkpt lat="43.65171" lon="1.38735">
        <ele>143</ele>
        <time>2025-02-02T11:18:36Z</time>
      </trkpt>
      <trkpt lat="43.65172" lon="1.38738">
        <ele>143</ele>
        <time>2025-02-02T11:18:37Z</time>
      </trkpt>
      <trkpt lat="43.65174" lon="1.38741">
        <ele>143</ele>
        <time>2025-02-02T11:18:38Z</time>
      </trkpt>
      <trkpt lat="43.65175" lon="1.38746">
        <ele>143</ele>
        <time>2025-02-02T11:18:39Z</time>
      </trkpt>
      <trkpt lat="43.65176" lon="1.38748">
        <ele>143</ele>
        <time>2025-02-02T11:18:40Z</time>
      </trkpt>
      <trkpt lat="43.65178" lon="1.38751">
        <ele>143</ele>
        <time>2025-02-02T11:18:41Z</time>
      </trkpt>
      <trkpt lat="43.65179" lon="1.38755">
        <ele>143</ele>
        <time>2025-02-02T11:18:42Z</time>
      </trkpt>
      <trkpt lat="43.65181" lon="1.38758">
        <ele>143</ele>
        <time>2025-02-02T11:18:43Z</time>
      </trkpt>
      <trkpt lat="43.65183" lon="1.38762">
        <ele>142</ele>
        <time>2025-02-02T11:18:44Z</time>
      </trkpt>
      <trkpt lat="43.65184" lon="1.38766">
        <ele>142</ele>
        <time>2025-02-02T11:18:45Z</time>
      </trkpt>
      <trkpt lat="43.65186" lon="1.38769">
        <ele>142</ele>
        <time>2025-02-02T11:18:46Z</time>
      </trkpt>
      <trkpt lat="43.65188" lon="1.38772">
        <ele>142</ele>
        <time>2025-02-02T11:18:47Z</time>
      </trkpt>
      <trkpt lat="43.6519" lon="1.38774">
        <ele>142</ele>
        <time>2025-02-02T11:18:48Z</time>
      </trkpt>
      <trkpt lat="43.65192" lon="1.38776">
        <ele>141</ele>
        <time>2025-02-02T11:18:49Z</time>
      </trkpt>
      <trkpt lat="43.65194" lon="1.38778">
        <ele>142</ele>
        <time>2025-02-02T11:18:50Z</time>
      </trkpt>
      <trkpt lat="43.65195" lon="1.38781">
        <ele>142</ele>
        <time>2025-02-02T11:18:51Z</time>
      </trkpt>
      <trkpt lat="43.65197" lon="1.38784">
        <ele>142</ele>
        <time>2025-02-02T11:18:52Z</time>
      </trkpt>
      <trkpt lat="43.65199" lon="1.38786">
        <ele>142</ele>
        <time>2025-02-02T11:18:53Z</time>
      </trkpt>
      <trkpt lat="43.65202" lon="1.3879">
        <ele>142</ele>
        <time>2025-02-02T11:18:54Z</time>
      </trkpt>
      <trkpt lat="43.65203" lon="1.38792">
        <ele>142</ele>
        <time>2025-02-02T11:18:55Z</time>
      </trkpt>
      <trkpt lat="43.65205" lon="1.38796">
        <ele>142</ele>
        <time>2025-02-02T11:18:56Z</time>
      </trkpt>
      <trkpt lat="43.65206" lon="1.38797">
        <ele>142</ele>
        <time>2025-02-02T11:18:57Z</time>
      </trkpt>
      <trkpt lat="43.65208" lon="1.388">
        <ele>142</ele>
        <time>2025-02-02T11:18:58Z</time>
      </trkpt>
      <trkpt lat="43.65209" lon="1.38803">
        <ele>141</ele>
        <time>2025-02-02T11:18:59Z</time>
      </trkpt>
      <trkpt lat="43.65211" lon="1.38805">
        <ele>141</ele>
        <time>2025-02-02T11:19:00Z</time>
      </trkpt>
      <trkpt lat="43.65213" lon="1.38807">
        <ele>141</ele>
        <time>2025-02-02T11:19:01Z</time>
      </trkpt>
      <trkpt lat="43.65215" lon="1.3881">
        <ele>141</ele>
        <time>2025-02-02T11:19:02Z</time>
      </trkpt>
      <trkpt lat="43.65217" lon="1.38812">
        <ele>141</ele>
        <time>2025-02-02T11:19:03Z</time>
      </trkpt>
      <trkpt lat="43.65219" lon="1.38815">
        <ele>141</ele>
        <time>2025-02-02T11:19:04Z</time>
      </trkpt>
      <trkpt lat="43.6522" lon="1.38818">
        <ele>141</ele>
        <time>2025-02-02T11:19:05Z</time>
      </trkpt>
      <trkpt lat="43.65222" lon="1.3882">
        <ele>141</ele>
        <time>2025-02-02T11:19:06Z</time>
      </trkpt>
      <trkpt lat="43.65223" lon="1.38823">
        <ele>141</ele>
        <time>2025-02-02T11:19:07Z</time>
      </trkpt>
      <trkpt lat="43.65225" lon="1.38826">
        <ele>141</ele>
        <time>2025-02-02T11:19:08Z</time>
      </trkpt>
      <trkpt lat="43.65227" lon="1.38828">
        <ele>141</ele>
        <time>2025-02-02T11:19:09Z</time>
      </trkpt>
      <trkpt lat="43.65229" lon="1.38831">
        <ele>141</ele>
        <time>2025-02-02T11:19:10Z</time>
      </trkpt>
      <trkpt lat="43.6523" lon="1.38833">
        <ele>141</ele>
        <time>2025-02-02T11:19:11Z</time>
      </trkpt>
      <trkpt lat="43.65232" lon="1.38835">
        <ele>141</ele>
        <time>2025-02-02T11:19:12Z</time>
      </trkpt>
      <trkpt lat="43.65235" lon="1.38839">
        <ele>141</ele>
        <time>2025-02-02T11:19:13Z</time>
      </trkpt>
      <trkpt lat="43.65236" lon="1.3884">
        <ele>140</ele>
        <time>2025-02-02T11:19:14Z</time>
      </trkpt>
      <trkpt lat="43.65238" lon="1.38843">
        <ele>140</ele>
        <time>2025-02-02T11:19:15Z</time>
      </trkpt>
      <trkpt lat="43.65241" lon="1.38846">
        <ele>140</ele>
        <time>2025-02-02T11:19:16Z</time>
      </trkpt>
      <trkpt lat="43.65242" lon="1.38847">
        <ele>139</ele>
        <time>2025-02-02T11:19:17Z</time>
      </trkpt>
      <trkpt lat="43.65243" lon="1.3885">
        <ele>139</ele>
        <time>2025-02-02T11:19:18Z</time>
      </trkpt>
      <trkpt lat="43.65245" lon="1.38852">
        <ele>138</ele>
        <time>2025-02-02T11:19:19Z</time>
      </trkpt>
      <trkpt lat="43.65246" lon="1.38854">
        <ele>138</ele>
        <time>2025-02-02T11:19:20Z</time>
      </trkpt>
      <trkpt lat="43.65248" lon="1.38856">
        <ele>138</ele>
        <time>2025-02-02T11:19:21Z</time>
      </trkpt>
      <trkpt lat="43.65249" lon="1.38858">
        <ele>138</ele>
        <time>2025-02-02T11:19:22Z</time>
      </trkpt>
      <trkpt lat="43.6525" lon="1.38861">
        <ele>138</ele>
        <time>2025-02-02T11:19:23Z</time>
      </trkpt>
      <trkpt lat="43.65252" lon="1.38863">
        <ele>138</ele>
        <time>2025-02-02T11:19:24Z</time>
      </trkpt>
      <trkpt lat="43.65253" lon="1.38865">
        <ele>138</ele>
        <time>2025-02-02T11:19:25Z</time>
      </trkpt>
      <trkpt lat="43.65253" lon="1.38865">
        <ele>137</ele>
        <time>2025-02-02T11:19:26Z</time>
      </trkpt>
      <trkpt lat="43.65255" lon="1.3887">
        <ele>137</ele>
        <time>2025-02-02T11:19:27Z</time>
      </trkpt>
      <trkpt lat="43.65255" lon="1.3887">
        <ele>137</ele>
        <time>2025-02-02T11:19:28Z</time>
      </trkpt>
      <trkpt lat="43.65257" lon="1.38873">
        <ele>136</ele>
        <time>2025-02-02T11:19:29Z</time>
      </trkpt>
      <trkpt lat="43.65259" lon="1.38876">
        <ele>136</ele>
        <time>2025-02-02T11:19:30Z</time>
      </trkpt>
      <trkpt lat="43.6526" lon="1.38878">
        <ele>136</ele>
        <time>2025-02-02T11:19:31Z</time>
      </trkpt>
      <trkpt lat="43.65264" lon="1.38882">
        <ele>136</ele>
        <time>2025-02-02T11:19:32Z</time>
      </trkpt>
      <trkpt lat="43.65265" lon="1.38883">
        <ele>136</ele>
        <time>2025-02-02T11:19:33Z</time>
      </trkpt>
      <trkpt lat="43.65267" lon="1.38886">
        <ele>136</ele>
        <time>2025-02-02T11:19:34Z</time>
      </trkpt>
      <trkpt lat="43.65269" lon="1.38889">
        <ele>135</ele>
        <time>2025-02-02T11:19:35Z</time>
      </trkpt>
      <trkpt lat="43.65271" lon="1.38892">
        <ele>135</ele>
        <time>2025-02-02T11:19:36Z</time>
      </trkpt>
      <trkpt lat="43.65275" lon="1.38897">
        <ele>135</ele>
        <time>2025-02-02T11:19:37Z</time>
      </trkpt>
      <trkpt lat="43.65276" lon="1.38898">
        <ele>135</ele>
        <time>2025-02-02T11:19:38Z</time>
      </trkpt>
      <trkpt lat="43.65278" lon="1.38901">
        <ele>135</ele>
        <time>2025-02-02T11:19:39Z</time>
      </trkpt>
      <trkpt lat="43.6528" lon="1.38904">
        <ele>135</ele>
        <time>2025-02-02T11:19:40Z</time>
      </trkpt>
      <trkpt lat="43.65282" lon="1.38907">
        <ele>134</ele>
        <time>2025-02-02T11:19:41Z</time>
      </trkpt>
      <trkpt lat="43.65284" lon="1.3891">
        <ele>134</ele>
        <time>2025-02-02T11:19:42Z</time>
      </trkpt>
      <trkpt lat="43.65286" lon="1.38912">
        <ele>134</ele>
        <time>2025-02-02T11:19:43Z</time>
      </trkpt>
      <trkpt lat="43.65288" lon="1.38913">
        <ele>134</ele>
        <time>2025-02-02T11:19:44Z</time>
      </trkpt>
      <trkpt lat="43.6529" lon="1.38915">
        <ele>134</ele>
        <time>2025-02-02T11:19:45Z</time>
      </trkpt>
      <trkpt lat="43.65293" lon="1.38916">
        <ele>133</ele>
        <time>2025-02-02T11:19:46Z</time>
      </trkpt>
      <trkpt lat="43.65295" lon="1.38917">
        <ele>133</ele>
        <time>2025-02-02T11:19:47Z</time>
      </trkpt>
      <trkpt lat="43.65298" lon="1.38918">
        <ele>133</ele>
        <time>2025-02-02T11:19:48Z</time>
      </trkpt>
      <trkpt lat="43.653" lon="1.38919">
        <ele>132</ele>
        <time>2025-02-02T11:19:49Z</time>
      </trkpt>
      <trkpt lat="43.65303" lon="1.3892">
        <ele>132</ele>
        <time>2025-02-02T11:19:50Z</time>
      </trkpt>
      <trkpt lat="43.65308" lon="1.38925">
        <ele>132</ele>
        <time>2025-02-02T11:19:51Z</time>
      </trkpt>
      <trkpt lat="43.65309" lon="1.38926">
        <ele>132</ele>
        <time>2025-02-02T11:19:52Z</time>
      </trkpt>
      <trkpt lat="43.65311" lon="1.3893">
        <ele>132</ele>
        <time>2025-02-02T11:19:53Z</time>
      </trkpt>
      <trkpt lat="43.65314" lon="1.38936">
        <ele>132</ele>
        <time>2025-02-02T11:19:54Z</time>
      </trkpt>
      <trkpt lat="43.65314" lon="1.38938">
        <ele>131</ele>
        <time>2025-02-02T11:19:55Z</time>
      </trkpt>
      <trkpt lat="43.65315" lon="1.38942">
        <ele>130</ele>
        <time>2025-02-02T11:19:56Z</time>
      </trkpt>
      <trkpt lat="43.65315" lon="1.38947">
        <ele>129</ele>
        <time>2025-02-02T11:19:57Z</time>
      </trkpt>
      <trkpt lat="43.65316" lon="1.38951">
        <ele>129</ele>
        <time>2025-02-02T11:19:58Z</time>
      </trkpt>
      <trkpt lat="43.65316" lon="1.38955">
        <ele>129</ele>
        <time>2025-02-02T11:19:59Z</time>
      </trkpt>
      <trkpt lat="43.65317" lon="1.38959">
        <ele>129</ele>
        <time>2025-02-02T11:20:00Z</time>
      </trkpt>
      <trkpt lat="43.65318" lon="1.38964">
        <ele>127</ele>
        <time>2025-02-02T11:20:01Z</time>
      </trkpt>
      <trkpt lat="43.65318" lon="1.38967">
        <ele>126</ele>
        <time>2025-02-02T11:20:02Z</time>
      </trkpt>
      <trkpt lat="43.65319" lon="1.38971">
        <ele>126</ele>
        <time>2025-02-02T11:20:03Z</time>
      </trkpt>
      <trkpt lat="43.6532" lon="1.38975">
        <ele>126</ele>
        <time>2025-02-02T11:20:04Z</time>
      </trkpt>
      <trkpt lat="43.65321" lon="1.38979">
        <ele>126</ele>
        <time>2025-02-02T11:20:05Z</time>
      </trkpt>
      <trkpt lat="43.65322" lon="1.38982">
        <ele>126</ele>
        <time>2025-02-02T11:20:06Z</time>
      </trkpt>
      <trkpt lat="43.65324" lon="1.38985">
        <ele>125</ele>
        <time>2025-02-02T11:20:07Z</time>
      </trkpt>
      <trkpt lat="43.65325" lon="1.38988">
        <ele>125</ele>
        <time>2025-02-02T11:20:08Z</time>
      </trkpt>
      <trkpt lat="43.65327" lon="1.38992">
        <ele>121</ele>
        <time>2025-02-02T11:20:09Z</time>
      </trkpt>
      <trkpt lat="43.65327" lon="1.38995">
        <ele>121</ele>
        <time>2025-02-02T11:20:10Z</time>
      </trkpt>
      <trkpt lat="43.65327" lon="1.39">
        <ele>121</ele>
        <time>2025-02-02T11:20:11Z</time>
      </trkpt>
      <trkpt lat="43.65325" lon="1.39004">
        <ele>121</ele>
        <time>2025-02-02T11:20:12Z</time>
      </trkpt>
      <trkpt lat="43.65324" lon="1.39008">
        <ele>121</ele>
        <time>2025-02-02T11:20:13Z</time>
      </trkpt>
      <trkpt lat="43.65323" lon="1.39012">
        <ele>120</ele>
        <time>2025-02-02T11:20:14Z</time>
      </trkpt>
      <trkpt lat="43.65321" lon="1.39016">
        <ele>120</ele>
        <time>2025-02-02T11:20:15Z</time>
      </trkpt>
      <trkpt lat="43.65319" lon="1.3902">
        <ele>120</ele>
        <time>2025-02-02T11:20:16Z</time>
      </trkpt>
      <trkpt lat="43.65318" lon="1.39023">
        <ele>120</ele>
        <time>2025-02-02T11:20:17Z</time>
      </trkpt>
      <trkpt lat="43.65317" lon="1.39027">
        <ele>120</ele>
        <time>2025-02-02T11:20:18Z</time>
      </trkpt>
      <trkpt lat="43.65315" lon="1.3903">
        <ele>120</ele>
        <time>2025-02-02T11:20:19Z</time>
      </trkpt>
      <trkpt lat="43.65314" lon="1.39034">
        <ele>120</ele>
        <time>2025-02-02T11:20:20Z</time>
      </trkpt>
      <trkpt lat="43.65312" lon="1.39037">
        <ele>119</ele>
        <time>2025-02-02T11:20:21Z</time>
      </trkpt>
      <trkpt lat="43.6531" lon="1.39039">
        <ele>119</ele>
        <time>2025-02-02T11:20:22Z</time>
      </trkpt>
      <trkpt lat="43.65307" lon="1.39042">
        <ele>119</ele>
        <time>2025-02-02T11:20:23Z</time>
      </trkpt>
      <trkpt lat="43.65305" lon="1.39044">
        <ele>119</ele>
        <time>2025-02-02T11:20:24Z</time>
      </trkpt>
      <trkpt lat="43.65302" lon="1.39045">
        <ele>119</ele>
        <time>2025-02-02T11:20:25Z</time>
      </trkpt>
      <trkpt lat="43.653" lon="1.39046">
        <ele>119</ele>
        <time>2025-02-02T11:20:26Z</time>
      </trkpt>
      <trkpt lat="43.65297" lon="1.39046">
        <ele>119</ele>
        <time>2025-02-02T11:20:27Z</time>
      </trkpt>
      <trkpt lat="43.65295" lon="1.39046">
        <ele>119</ele>
        <time>2025-02-02T11:20:28Z</time>
      </trkpt>
      <trkpt lat="43.65292" lon="1.39044">
        <ele>119</ele>
        <time>2025-02-02T11:20:29Z</time>
      </trkpt>
      <trkpt lat="43.65289" lon="1.39043">
        <ele>119</ele>
        <time>2025-02-02T11:20:30Z</time>
      </trkpt>
      <trkpt lat="43.65287" lon="1.39043">
        <ele>119</ele>
        <time>2025-02-02T11:20:31Z</time>
      </trkpt>
      <trkpt lat="43.65284" lon="1.39042">
        <ele>119</ele>
        <time>2025-02-02T11:20:32Z</time>
      </trkpt>
      <trkpt lat="43.65282" lon="1.39041">
        <ele>119</ele>
        <time>2025-02-02T11:20:33Z</time>
      </trkpt>
      <trkpt lat="43.65279" lon="1.3904">
        <ele>120</ele>
        <time>2025-02-02T11:20:34Z</time>
      </trkpt>
      <trkpt lat="43.65276" lon="1.39039">
        <ele>120</ele>
        <time>2025-02-02T11:20:35Z</time>
      </trkpt>
      <trkpt lat="43.65274" lon="1.39039">
        <ele>120</ele>
        <time>2025-02-02T11:20:36Z</time>
      </trkpt>
      <trkpt lat="43.65271" lon="1.39038">
        <ele>120</ele>
        <time>2025-02-02T11:20:37Z</time>
      </trkpt>
      <trkpt lat="43.65268" lon="1.39038">
        <ele>120</ele>
        <time>2025-02-02T11:20:38Z</time>
      </trkpt>
      <trkpt lat="43.65266" lon="1.39038">
        <ele>119</ele>
        <time>2025-02-02T11:20:39Z</time>
      </trkpt>
      <trkpt lat="43.65263" lon="1.39038">
        <ele>119</ele>
        <time>2025-02-02T11:20:40Z</time>
      </trkpt>
      <trkpt lat="43.65261" lon="1.39038">
        <ele>120</ele>
        <time>2025-02-02T11:20:41Z</time>
      </trkpt>
      <trkpt lat="43.65258" lon="1.39038">
        <ele>120</ele>
        <time>2025-02-02T11:20:42Z</time>
      </trkpt>
      <trkpt lat="43.65255" lon="1.39038">
        <ele>120</ele>
        <time>2025-02-02T11:20:43Z</time>
      </trkpt>
      <trkpt lat="43.65253" lon="1.39038">
        <ele>120</ele>
        <time>2025-02-02T11:20:44Z</time>
      </trkpt>
      <trkpt lat="43.6525" lon="1.39038">
        <ele>119</ele>
        <time>2025-02-02T11:20:45Z</time>
      </trkpt>
      <trkpt lat="43.65248" lon="1.39037">
        <ele>119</ele>
        <time>2025-02-02T11:20:46Z</time>
      </trkpt>
      <trkpt lat="43.65245" lon="1.39036">
        <ele>119</ele>
        <time>2025-02-02T11:20:47Z</time>
      </trkpt>
      <trkpt lat="43.65243" lon="1.39034">
        <ele>119</ele>
        <time>2025-02-02T11:20:48Z</time>
      </trkpt>
      <trkpt lat="43.6524" lon="1.39032">
        <ele>119</ele>
        <time>2025-02-02T11:20:49Z</time>
      </trkpt>
      <trkpt lat="43.65238" lon="1.39031">
        <ele>120</ele>
        <time>2025-02-02T11:20:50Z</time>
      </trkpt>
      <trkpt lat="43.65235" lon="1.39029">
        <ele>120</ele>
        <time>2025-02-02T11:20:51Z</time>
      </trkpt>
      <trkpt lat="43.65233" lon="1.39028">
        <ele>119</ele>
        <time>2025-02-02T11:20:52Z</time>
      </trkpt>
      <trkpt lat="43.65231" lon="1.39026">
        <ele>119</ele>
        <time>2025-02-02T11:20:53Z</time>
      </trkpt>
      <trkpt lat="43.65229" lon="1.39024">
        <ele>119</ele>
        <time>2025-02-02T11:20:54Z</time>
      </trkpt>
      <trkpt lat="43.65226" lon="1.39023">
        <ele>120</ele>
        <time>2025-02-02T11:20:55Z</time>
      </trkpt>
      <trkpt lat="43.65224" lon="1.39021">
        <ele>120</ele>
        <time>2025-02-02T11:20:56Z</time>
      </trkpt>
      <trkpt lat="43.65221" lon="1.39019">
        <ele>120</ele>
        <time>2025-02-02T11:20:57Z</time>
      </trkpt>
      <trkpt lat="43.65218" lon="1.39019">
        <ele>120</ele>
        <time>2025-02-02T11:20:58Z</time>
      </trkpt>
      <trkpt lat="43.65216" lon="1.39019">
        <ele>120</ele>
        <time>2025-02-02T11:20:59Z</time>
      </trkpt>
      <trkpt lat="43.65213" lon="1.39018">
        <ele>119</ele>
        <time>2025-02-02T11:21:00Z</time>
      </trkpt>
      <trkpt lat="43.65211" lon="1.39017">
        <ele>119</ele>
        <time>2025-02-02T11:21:01Z</time>
      </trkpt>
      <trkpt lat="43.65209" lon="1.39016">
        <ele>119</ele>
        <time>2025-02-02T11:21:02Z</time>
      </trkpt>
      <trkpt lat="43.65206" lon="1.39015">
        <ele>119</ele>
        <time>2025-02-02T11:21:03Z</time>
      </trkpt>
      <trkpt lat="43.65204" lon="1.39015">
        <ele>120</ele>
        <time>2025-02-02T11:21:04Z</time>
      </trkpt>
      <trkpt lat="43.65201" lon="1.39015">
        <ele>120</ele>
        <time>2025-02-02T11:21:05Z</time>
      </trkpt>
      <trkpt lat="43.65199" lon="1.39015">
        <ele>120</ele>
        <time>2025-02-02T11:21:06Z</time>
      </trkpt>
      <trkpt lat="43.65196" lon="1.39016">
        <ele>120</ele>
        <time>2025-02-02T11:21:07Z</time>
      </trkpt>
      <trkpt lat="43.65194" lon="1.39016">
        <ele>120</ele>
        <time>2025-02-02T11:21:08Z</time>
      </trkpt>
      <trkpt lat="43.65191" lon="1.39016">
        <ele>120</ele>
        <time>2025-02-02T11:21:09Z</time>
      </trkpt>
      <trkpt lat="43.65189" lon="1.39015">
        <ele>120</ele>
        <time>2025-02-02T11:21:10Z</time>
      </trkpt>
      <trkpt lat="43.65186" lon="1.39015">
        <ele>119</ele>
        <time>2025-02-02T11:21:11Z</time>
      </trkpt>
      <trkpt lat="43.65183" lon="1.39015">
        <ele>119</ele>
        <time>2025-02-02T11:21:12Z</time>
      </trkpt>
      <trkpt lat="43.65181" lon="1.39015">
        <ele>119</ele>
        <time>2025-02-02T11:21:13Z</time>
      </trkpt>
      <trkpt lat="43.65178" lon="1.39015">
        <ele>119</ele>
        <time>2025-02-02T11:21:14Z</time>
      </trkpt>
      <trkpt lat="43.65176" lon="1.39015">
        <ele>119</ele>
        <time>2025-02-02T11:21:15Z</time>
      </trkpt>
      <trkpt lat="43.65174" lon="1.39015">
        <ele>120</ele>
        <time>2025-02-02T11:21:16Z</time>
      </trkpt>
      <trkpt lat="43.65172" lon="1.39015">
        <ele>120</ele>
        <time>2025-02-02T11:21:17Z</time>
      </trkpt>
      <trkpt lat="43.65169" lon="1.39016">
        <ele>120</ele>
        <time>2025-02-02T11:21:18Z</time>
      </trkpt>
      <trkpt lat="43.65166" lon="1.39016">
        <ele>120</ele>
        <time>2025-02-02T11:21:19Z</time>
      </trkpt>
      <trkpt lat="43.65163" lon="1.39017">
        <ele>120</ele>
        <time>2025-02-02T11:21:20Z</time>
      </trkpt>
      <trkpt lat="43.6516" lon="1.39017">
        <ele>120</ele>
        <time>2025-02-02T11:21:21Z</time>
      </trkpt>
      <trkpt lat="43.65157" lon="1.39017">
        <ele>120</ele>
        <time>2025-02-02T11:21:22Z</time>
      </trkpt>
      <trkpt lat="43.65154" lon="1.39018">
        <ele>120</ele>
        <time>2025-02-02T11:21:23Z</time>
      </trkpt>
      <trkpt lat="43.65151" lon="1.39018">
        <ele>120</ele>
        <time>2025-02-02T11:21:24Z</time>
      </trkpt>
      <trkpt lat="43.65148" lon="1.39019">
        <ele>120</ele>
        <time>2025-02-02T11:21:25Z</time>
      </trkpt>
      <trkpt lat="43.65145" lon="1.39019">
        <ele>119</ele>
        <time>2025-02-02T11:21:26Z</time>
      </trkpt>
      <trkpt lat="43.65142" lon="1.39019">
        <ele>119</ele>
        <time>2025-02-02T11:21:27Z</time>
      </trkpt>
      <trkpt lat="43.6514" lon="1.39019">
        <ele>119</ele>
        <time>2025-02-02T11:21:28Z</time>
      </trkpt>
      <trkpt lat="43.65138" lon="1.39019">
        <ele>119</ele>
        <time>2025-02-02T11:21:29Z</time>
      </trkpt>
      <trkpt lat="43.65135" lon="1.3902">
        <ele>119</ele>
        <time>2025-02-02T11:21:30Z</time>
      </trkpt>
      <trkpt lat="43.65133" lon="1.3902">
        <ele>119</ele>
        <time>2025-02-02T11:21:31Z</time>
      </trkpt>
      <trkpt lat="43.6513" lon="1.3902">
        <ele>119</ele>
        <time>2025-02-02T11:21:32Z</time>
      </trkpt>
      <trkpt lat="43.65128" lon="1.3902">
        <ele>119</ele>
        <time>2025-02-02T11:21:33Z</time>
      </trkpt>
      <trkpt lat="43.65125" lon="1.39019">
        <ele>119</ele>
        <time>2025-02-02T11:21:34Z</time>
      </trkpt>
      <trkpt lat="43.65122" lon="1.39019">
        <ele>119</ele>
        <time>2025-02-02T11:21:35Z</time>
      </trkpt>
      <trkpt lat="43.65119" lon="1.39019">
        <ele>119</ele>
        <time>2025-02-02T11:21:36Z</time>
      </trkpt>
      <trkpt lat="43.65117" lon="1.39019">
        <ele>120</ele>
        <time>2025-02-02T11:21:37Z</time>
      </trkpt>
      <trkpt lat="43.65115" lon="1.39019">
        <ele>120</ele>
        <time>2025-02-02T11:21:38Z</time>
      </trkpt>
      <trkpt lat="43.65113" lon="1.39019">
        <ele>120</ele>
        <time>2025-02-02T11:21:39Z</time>
      </trkpt>
      <trkpt lat="43.65111" lon="1.39019">
        <ele>119</ele>
        <time>2025-02-02T11:21:40Z</time>
      </trkpt>
      <trkpt lat="43.65108" lon="1.39019">
        <ele>119</ele>
        <time>2025-02-02T11:21:41Z</time>
      </trkpt>
      <trkpt lat="43.65105" lon="1.39019">
        <ele>119</ele>
        <time>2025-02-02T11:21:42Z</time>
      </trkpt>
      <trkpt lat="43.65103" lon="1.39019">
        <ele>119</ele>
        <time>2025-02-02T11:21:43Z</time>
      </trkpt>
      <trkpt lat="43.651" lon="1.39019">
        <ele>119</ele>
        <time>2025-02-02T11:21:44Z</time>
      </trkpt>
      <trkpt lat="43.65097" lon="1.3902">
        <ele>119</ele>
        <time>2025-02-02T11:21:45Z</time>
      </trkpt>
      <trkpt lat="43.65094" lon="1.3902">
        <ele>119</ele>
        <time>2025-02-02T11:21:46Z</time>
      </trkpt>
      <trkpt lat="43.65094" lon="1.3902">
        <ele>119</ele>
        <time>2025-02-02T11:21:47Z</time>
      </trkpt>
      <trkpt lat="43.65091" lon="1.39022">
        <ele>119</ele>
        <time>2025-02-02T11:21:48Z</time>
      </trkpt>
      <trkpt lat="43.65088" lon="1.39022">
        <ele>119</ele>
        <time>2025-02-02T11:21:49Z</time>
      </trkpt>
      <trkpt lat="43.65086" lon="1.39024">
        <ele>120</ele>
        <time>2025-02-02T11:21:50Z</time>
      </trkpt>
      <trkpt lat="43.65084" lon="1.39025">
        <ele>120</ele>
        <time>2025-02-02T11:21:51Z</time>
      </trkpt>
      <trkpt lat="43.65082" lon="1.39026">
        <ele>119</ele>
        <time>2025-02-02T11:21:52Z</time>
      </trkpt>
      <trkpt lat="43.6508" lon="1.39028">
        <ele>119</ele>
        <time>2025-02-02T11:21:53Z</time>
      </trkpt>
      <trkpt lat="43.65078" lon="1.39029">
        <ele>119</ele>
        <time>2025-02-02T11:21:54Z</time>
      </trkpt>
      <trkpt lat="43.65076" lon="1.39031">
        <ele>119</ele>
        <time>2025-02-02T11:21:55Z</time>
      </trkpt>
      <trkpt lat="43.65074" lon="1.39033">
        <ele>119</ele>
        <time>2025-02-02T11:21:56Z</time>
      </trkpt>
      <trkpt lat="43.65072" lon="1.39036">
        <ele>120</ele>
        <time>2025-02-02T11:21:57Z</time>
      </trkpt>
      <trkpt lat="43.65071" lon="1.39039">
        <ele>120</ele>
        <time>2025-02-02T11:21:58Z</time>
      </trkpt>
      <trkpt lat="43.6507" lon="1.39043">
        <ele>120</ele>
        <time>2025-02-02T11:21:59Z</time>
      </trkpt>
      <trkpt lat="43.65069" lon="1.39046">
        <ele>119</ele>
        <time>2025-02-02T11:22:00Z</time>
      </trkpt>
      <trkpt lat="43.65069" lon="1.39049">
        <ele>119</ele>
        <time>2025-02-02T11:22:01Z</time>
      </trkpt>
      <trkpt lat="43.6507" lon="1.39053">
        <ele>120</ele>
        <time>2025-02-02T11:22:02Z</time>
      </trkpt>
      <trkpt lat="43.6507" lon="1.39057">
        <ele>120</ele>
        <time>2025-02-02T11:22:03Z</time>
      </trkpt>
      <trkpt lat="43.65071" lon="1.3906">
        <ele>120</ele>
        <time>2025-02-02T11:22:04Z</time>
      </trkpt>
      <trkpt lat="43.65071" lon="1.39064">
        <ele>120</ele>
        <time>2025-02-02T11:22:05Z</time>
      </trkpt>
      <trkpt lat="43.65071" lon="1.39068">
        <ele>120</ele>
        <time>2025-02-02T11:22:06Z</time>
      </trkpt>
      <trkpt lat="43.65071" lon="1.39071">
        <ele>119</ele>
        <time>2025-02-02T11:22:07Z</time>
      </trkpt>
      <trkpt lat="43.65071" lon="1.39074">
        <ele>119</ele>
        <time>2025-02-02T11:22:08Z</time>
      </trkpt>
      <trkpt lat="43.65071" lon="1.39078">
        <ele>119</ele>
        <time>2025-02-02T11:22:09Z</time>
      </trkpt>
      <trkpt lat="43.65071" lon="1.39081">
        <ele>119</ele>
        <time>2025-02-02T11:22:10Z</time>
      </trkpt>
      <trkpt lat="43.65071" lon="1.39085">
        <ele>120</ele>
        <time>2025-02-02T11:22:11Z</time>
      </trkpt>
      <trkpt lat="43.65071" lon="1.39089">
        <ele>120</ele>
        <time>2025-02-02T11:22:12Z</time>
      </trkpt>
      <trkpt lat="43.65071" lon="1.39092">
        <ele>120</ele>
        <time>2025-02-02T11:22:13Z</time>
      </trkpt>
      <trkpt lat="43.65071" lon="1.39096">
        <ele>120</ele>
        <time>2025-02-02T11:22:14Z</time>
      </trkpt>
      <trkpt lat="43.65072" lon="1.391">
        <ele>119</ele>
        <time>2025-02-02T11:22:15Z</time>
      </trkpt>
      <trkpt lat="43.65073" lon="1.39103">
        <ele>119</ele>
        <time>2025-02-02T11:22:16Z</time>
      </trkpt>
      <trkpt lat="43.65073" lon="1.39107">
        <ele>119</ele>
        <time>2025-02-02T11:22:17Z</time>
      </trkpt>
      <trkpt lat="43.65073" lon="1.39111">
        <ele>119</ele>
        <time>2025-02-02T11:22:18Z</time>
      </trkpt>
      <trkpt lat="43.65073" lon="1.39112">
        <ele>119</ele>
        <time>2025-02-02T11:22:19Z</time>
      </trkpt>
      <trkpt lat="43.65073" lon="1.39113">
        <ele>119</ele>
        <time>2025-02-02T11:22:20Z</time>
      </trkpt>
      <trkpt lat="43.65073" lon="1.39115">
        <ele>119</ele>
        <time>2025-02-02T11:22:21Z</time>
      </trkpt>
      <trkpt lat="43.65073" lon="1.39116">
        <ele>119</ele>
        <time>2025-02-02T11:22:22Z</time>
      </trkpt>
      <trkpt lat="43.6507" lon="1.39129">
        <ele>120</ele>
        <time>2025-02-02T11:22:24Z</time>
      </trkpt>
      <trkpt lat="43.65068" lon="1.39132">
        <ele>120</ele>
        <time>2025-02-02T11:22:25Z</time>
      </trkpt>
      <trkpt lat="43.65066" lon="1.39136">
        <ele>120</ele>
        <time>2025-02-02T11:22:26Z</time>
      </trkpt>
      <trkpt lat="43.65064" lon="1.39139">
        <ele>120</ele>
        <time>2025-02-02T11:22:27Z</time>
      </trkpt>
      <trkpt lat="43.65062" lon="1.39142">
        <ele>120</ele>
        <time>2025-02-02T11:22:28Z</time>
      </trkpt>
      <trkpt lat="43.65059" lon="1.39143">
        <ele>120</ele>
        <time>2025-02-02T11:22:29Z</time>
      </trkpt>
      <trkpt lat="43.65057" lon="1.39145">
        <ele>120</ele>
        <time>2025-02-02T11:22:30Z</time>
      </trkpt>
      <trkpt lat="43.65054" lon="1.39146">
        <ele>120</ele>
        <time>2025-02-02T11:22:31Z</time>
      </trkpt>
      <trkpt lat="43.65051" lon="1.39146">
        <ele>120</ele>
        <time>2025-02-02T11:22:32Z</time>
      </trkpt>
      <trkpt lat="43.65049" lon="1.39147">
        <ele>120</ele>
        <time>2025-02-02T11:22:33Z</time>
      </trkpt>
      <trkpt lat="43.65046" lon="1.39148">
        <ele>120</ele>
        <time>2025-02-02T11:22:34Z</time>
      </trkpt>
      <trkpt lat="43.65044" lon="1.39148">
        <ele>120</ele>
        <time>2025-02-02T11:22:35Z</time>
      </trkpt>
      <trkpt lat="43.65042" lon="1.39148">
        <ele>120</ele>
        <time>2025-02-02T11:22:36Z</time>
      </trkpt>
      <trkpt lat="43.65039" lon="1.39148">
        <ele>120</ele>
        <time>2025-02-02T11:22:37Z</time>
      </trkpt>
      <trkpt lat="43.65037" lon="1.39149">
        <ele>120</ele>
        <time>2025-02-02T11:22:38Z</time>
      </trkpt>
      <trkpt lat="43.65034" lon="1.39149">
        <ele>120</ele>
        <time>2025-02-02T11:22:39Z</time>
      </trkpt>
      <trkpt lat="43.65032" lon="1.39149">
        <ele>120</ele>
        <time>2025-02-02T11:22:40Z</time>
      </trkpt>
      <trkpt lat="43.6503" lon="1.3915">
        <ele>120</ele>
        <time>2025-02-02T11:22:41Z</time>
      </trkpt>
      <trkpt lat="43.65027" lon="1.3915">
        <ele>120</ele>
        <time>2025-02-02T11:22:42Z</time>
      </trkpt>
      <trkpt lat="43.65025" lon="1.39151">
        <ele>120</ele>
        <time>2025-02-02T11:22:43Z</time>
      </trkpt>
      <trkpt lat="43.65022" lon="1.39151">
        <ele>120</ele>
        <time>2025-02-02T11:22:44Z</time>
      </trkpt>
      <trkpt lat="43.65019" lon="1.39152">
        <ele>120</ele>
        <time>2025-02-02T11:22:45Z</time>
      </trkpt>
      <trkpt lat="43.65017" lon="1.39153">
        <ele>120</ele>
        <time>2025-02-02T11:22:46Z</time>
      </trkpt>
      <trkpt lat="43.65014" lon="1.39153">
        <ele>120</ele>
        <time>2025-02-02T11:22:47Z</time>
      </trkpt>
      <trkpt lat="43.65011" lon="1.39154">
        <ele>120</ele>
        <time>2025-02-02T11:22:48Z</time>
      </trkpt>
      <trkpt lat="43.65008" lon="1.39154">
        <ele>120</ele>
        <time>2025-02-02T11:22:49Z</time>
      </trkpt>
      <trkpt lat="43.65006" lon="1.39155">
        <ele>120</ele>
        <time>2025-02-02T11:22:50Z</time>
      </trkpt>
      <trkpt lat="43.65004" lon="1.39155">
        <ele>120</ele>
        <time>2025-02-02T11:22:51Z</time>
      </trkpt>
      <trkpt lat="43.65001" lon="1.39156">
        <ele>120</ele>
        <time>2025-02-02T11:22:52Z</time>
      </trkpt>
      <trkpt lat="43.64998" lon="1.39156">
        <ele>120</ele>
        <time>2025-02-02T11:22:53Z</time>
      </trkpt>
      <trkpt lat="43.64996" lon="1.39157">
        <ele>120</ele>
        <time>2025-02-02T11:22:54Z</time>
      </trkpt>
      <trkpt lat="43.64993" lon="1.39158">
        <ele>120</ele>
        <time>2025-02-02T11:22:55Z</time>
      </trkpt>
      <trkpt lat="43.64991" lon="1.39158">
        <ele>120</ele>
        <time>2025-02-02T11:22:56Z</time>
      </trkpt>
      <trkpt lat="43.64988" lon="1.39159">
        <ele>120</ele>
        <time>2025-02-02T11:22:57Z</time>
      </trkpt>
      <trkpt lat="43.64986" lon="1.39159">
        <ele>120</ele>
        <time>2025-02-02T11:22:58Z</time>
      </trkpt>
      <trkpt lat="43.64983" lon="1.3916">
        <ele>120</ele>
        <time>2025-02-02T11:22:59Z</time>
      </trkpt>
      <trkpt lat="43.64981" lon="1.3916">
        <ele>120</ele>
        <time>2025-02-02T11:23:00Z</time>
      </trkpt>
      <trkpt lat="43.64978" lon="1.39161">
        <ele>120</ele>
        <time>2025-02-02T11:23:01Z</time>
      </trkpt>
      <trkpt lat="43.64976" lon="1.39162">
        <ele>120</ele>
        <time>2025-02-02T11:23:02Z</time>
      </trkpt>
      <trkpt lat="43.64972" lon="1.39163">
        <ele>120</ele>
        <time>2025-02-02T11:23:03Z</time>
      </trkpt>
      <trkpt lat="43.6497" lon="1.39163">
        <ele>120</ele>
        <time>2025-02-02T11:23:04Z</time>
      </trkpt>
      <trkpt lat="43.64968" lon="1.39163">
        <ele>120</ele>
        <time>2025-02-02T11:23:05Z</time>
      </trkpt>
      <trkpt lat="43.64965" lon="1.39163">
        <ele>120</ele>
        <time>2025-02-02T11:23:06Z</time>
      </trkpt>
      <trkpt lat="43.64962" lon="1.39163">
        <ele>120</ele>
        <time>2025-02-02T11:23:07Z</time>
      </trkpt>
      <trkpt lat="43.6496" lon="1.39161">
        <ele>120</ele>
        <time>2025-02-02T11:23:08Z</time>
      </trkpt>
      <trkpt lat="43.64958" lon="1.39159">
        <ele>120</ele>
        <time>2025-02-02T11:23:09Z</time>
      </trkpt>
      <trkpt lat="43.64955" lon="1.39156">
        <ele>120</ele>
        <time>2025-02-02T11:23:10Z</time>
      </trkpt>
      <trkpt lat="43.64954" lon="1.39153">
        <ele>120</ele>
        <time>2025-02-02T11:23:11Z</time>
      </trkpt>
      <trkpt lat="43.64953" lon="1.3915">
        <ele>120</ele>
        <time>2025-02-02T11:23:12Z</time>
      </trkpt>
      <trkpt lat="43.64951" lon="1.39146">
        <ele>120</ele>
        <time>2025-02-02T11:23:13Z</time>
      </trkpt>
      <trkpt lat="43.6495" lon="1.39142">
        <ele>120</ele>
        <time>2025-02-02T11:23:14Z</time>
      </trkpt>
      <trkpt lat="43.6495" lon="1.39138">
        <ele>120</ele>
        <time>2025-02-02T11:23:15Z</time>
      </trkpt>
      <trkpt lat="43.64949" lon="1.39134">
        <ele>120</ele>
        <time>2025-02-02T11:23:16Z</time>
      </trkpt>
      <trkpt lat="43.64948" lon="1.3913">
        <ele>120</ele>
        <time>2025-02-02T11:23:17Z</time>
      </trkpt>
      <trkpt lat="43.64947" lon="1.39127">
        <ele>120</ele>
        <time>2025-02-02T11:23:18Z</time>
      </trkpt>
      <trkpt lat="43.64946" lon="1.39123">
        <ele>120</ele>
        <time>2025-02-02T11:23:19Z</time>
      </trkpt>
      <trkpt lat="43.64943" lon="1.3912">
        <ele>120</ele>
        <time>2025-02-02T11:23:20Z</time>
      </trkpt>
      <trkpt lat="43.64942" lon="1.39119">
        <ele>120</ele>
        <time>2025-02-02T11:23:21Z</time>
      </trkpt>
      <trkpt lat="43.6494" lon="1.39118">
        <ele>120</ele>
        <time>2025-02-02T11:23:22Z</time>
      </trkpt>
      <trkpt lat="43.64937" lon="1.39117">
        <ele>120</ele>
        <time>2025-02-02T11:23:23Z</time>
      </trkpt>
      <trkpt lat="43.64935" lon="1.39117">
        <ele>120</ele>
        <time>2025-02-02T11:23:24Z</time>
      </trkpt>
      <trkpt lat="43.64932" lon="1.39117">
        <ele>120</ele>
        <time>2025-02-02T11:23:25Z</time>
      </trkpt>
      <trkpt lat="43.6493" lon="1.39117">
        <ele>120</ele>
        <time>2025-02-02T11:23:26Z</time>
      </trkpt>
      <trkpt lat="43.64928" lon="1.39117">
        <ele>120</ele>
        <time>2025-02-02T11:23:27Z</time>
      </trkpt>
      <trkpt lat="43.64925" lon="1.39117">
        <ele>120</ele>
        <time>2025-02-02T11:23:28Z</time>
      </trkpt>
      <trkpt lat="43.64923" lon="1.39117">
        <ele>120</ele>
        <time>2025-02-02T11:23:29Z</time>
      </trkpt>
      <trkpt lat="43.6492" lon="1.39117">
        <ele>120</ele>
        <time>2025-02-02T11:23:30Z</time>
      </trkpt>
      <trkpt lat="43.64917" lon="1.39117">
        <ele>120</ele>
        <time>2025-02-02T11:23:31Z</time>
      </trkpt>
      <trkpt lat="43.64915" lon="1.39118">
        <ele>120</ele>
        <time>2025-02-02T11:23:32Z</time>
      </trkpt>
      <trkpt lat="43.64912" lon="1.39118">
        <ele>120</ele>
        <time>2025-02-02T11:23:33Z</time>
      </trkpt>
      <trkpt lat="43.64909" lon="1.39118">
        <ele>120</ele>
        <time>2025-02-02T11:23:34Z</time>
      </trkpt>
      <trkpt lat="43.64906" lon="1.39118">
        <ele>120</ele>
        <time>2025-02-02T11:23:35Z</time>
      </trkpt>
      <trkpt lat="43.64904" lon="1.39118">
        <ele>120</ele>
        <time>2025-02-02T11:23:36Z</time>
      </trkpt>
      <trkpt lat="43.64901" lon="1.39119">
        <ele>120</ele>
        <time>2025-02-02T11:23:37Z</time>
      </trkpt>
      <trkpt lat="43.64899" lon="1.39119">
        <ele>120</ele>
        <time>2025-02-02T11:23:38Z</time>
      </trkpt>
      <trkpt lat="43.64895" lon="1.3912">
        <ele>120</ele>
        <time>2025-02-02T11:23:39Z</time>
      </trkpt>
      <trkpt lat="43.64893" lon="1.39121">
        <ele>120</ele>
        <time>2025-02-02T11:23:40Z</time>
      </trkpt>
      <trkpt lat="43.64891" lon="1.39121">
        <ele>120</ele>
        <time>2025-02-02T11:23:41Z</time>
      </trkpt>
      <trkpt lat="43.64888" lon="1.39122">
        <ele>120</ele>
        <time>2025-02-02T11:23:42Z</time>
      </trkpt>
      <trkpt lat="43.64886" lon="1.39122">
        <ele>120</ele>
        <time>2025-02-02T11:23:43Z</time>
      </trkpt>
      <trkpt lat="43.64883" lon="1.39123">
        <ele>120</ele>
        <time>2025-02-02T11:23:44Z</time>
      </trkpt>
      <trkpt lat="43.64881" lon="1.39123">
        <ele>120</ele>
        <time>2025-02-02T11:23:45Z</time>
      </trkpt>
      <trkpt lat="43.64879" lon="1.39124">
        <ele>120</ele>
        <time>2025-02-02T11:23:46Z</time>
      </trkpt>
      <trkpt lat="43.64876" lon="1.39125">
        <ele>120</ele>
        <time>2025-02-02T11:23:47Z</time>
      </trkpt>
      <trkpt lat="43.64874" lon="1.39125">
        <ele>120</ele>
        <time>2025-02-02T11:23:48Z</time>
      </trkpt>
      <trkpt lat="43.64871" lon="1.39126">
        <ele>120</ele>
        <time>2025-02-02T11:23:49Z</time>
      </trkpt>
      <trkpt lat="43.64869" lon="1.39127">
        <ele>120</ele>
        <time>2025-02-02T11:23:50Z</time>
      </trkpt>
      <trkpt lat="43.64867" lon="1.39128">
        <ele>120</ele>
        <time>2025-02-02T11:23:51Z</time>
      </trkpt>
      <trkpt lat="43.64865" lon="1.39129">
        <ele>120</ele>
        <time>2025-02-02T11:23:52Z</time>
      </trkpt>
      <trkpt lat="43.64862" lon="1.39129">
        <ele>120</ele>
        <time>2025-02-02T11:23:53Z</time>
      </trkpt>
      <trkpt lat="43.64859" lon="1.3913">
        <ele>120</ele>
        <time>2025-02-02T11:23:54Z</time>
      </trkpt>
      <trkpt lat="43.64856" lon="1.39131">
        <ele>120</ele>
        <time>2025-02-02T11:23:55Z</time>
      </trkpt>
      <trkpt lat="43.64853" lon="1.39132">
        <ele>120</ele>
        <time>2025-02-02T11:23:56Z</time>
      </trkpt>
      <trkpt lat="43.64851" lon="1.39133">
        <ele>120</ele>
        <time>2025-02-02T11:23:57Z</time>
      </trkpt>
      <trkpt lat="43.64848" lon="1.39133">
        <ele>120</ele>
        <time>2025-02-02T11:23:58Z</time>
      </trkpt>
      <trkpt lat="43.64845" lon="1.39135">
        <ele>120</ele>
        <time>2025-02-02T11:23:59Z</time>
      </trkpt>
      <trkpt lat="43.64843" lon="1.39135">
        <ele>120</ele>
        <time>2025-02-02T11:24:00Z</time>
      </trkpt>
      <trkpt lat="43.6484" lon="1.39136">
        <ele>120</ele>
        <time>2025-02-02T11:24:01Z</time>
      </trkpt>
      <trkpt lat="43.64837" lon="1.39138">
        <ele>120</ele>
        <time>2025-02-02T11:24:02Z</time>
      </trkpt>
      <trkpt lat="43.64835" lon="1.3914">
        <ele>120</ele>
        <time>2025-02-02T11:24:03Z</time>
      </trkpt>
      <trkpt lat="43.64833" lon="1.39142">
        <ele>120</ele>
        <time>2025-02-02T11:24:04Z</time>
      </trkpt>
      <trkpt lat="43.64831" lon="1.39144">
        <ele>120</ele>
        <time>2025-02-02T11:24:05Z</time>
      </trkpt>
      <trkpt lat="43.64828" lon="1.39145">
        <ele>120</ele>
        <time>2025-02-02T11:24:06Z</time>
      </trkpt>
      <trkpt lat="43.64826" lon="1.39146">
        <ele>120</ele>
        <time>2025-02-02T11:24:07Z</time>
      </trkpt>
      <trkpt lat="43.64824" lon="1.39148">
        <ele>120</ele>
        <time>2025-02-02T11:24:08Z</time>
      </trkpt>
      <trkpt lat="43.64821" lon="1.39149">
        <ele>120</ele>
        <time>2025-02-02T11:24:09Z</time>
      </trkpt>
      <trkpt lat="43.64819" lon="1.3915">
        <ele>120</ele>
        <time>2025-02-02T11:24:10Z</time>
      </trkpt>
      <trkpt lat="43.64816" lon="1.39152">
        <ele>120</ele>
        <time>2025-02-02T11:24:11Z</time>
      </trkpt>
      <trkpt lat="43.64814" lon="1.39154">
        <ele>120</ele>
        <time>2025-02-02T11:24:12Z</time>
      </trkpt>
      <trkpt lat="43.64812" lon="1.39155">
        <ele>120</ele>
        <time>2025-02-02T11:24:13Z</time>
      </trkpt>
      <trkpt lat="43.6481" lon="1.39157">
        <ele>120</ele>
        <time>2025-02-02T11:24:14Z</time>
      </trkpt>
      <trkpt lat="43.64806" lon="1.3916">
        <ele>120</ele>
        <time>2025-02-02T11:24:15Z</time>
      </trkpt>
      <trkpt lat="43.64805" lon="1.39161">
        <ele>121</ele>
        <time>2025-02-02T11:24:16Z</time>
      </trkpt>
      <trkpt lat="43.64803" lon="1.39163">
        <ele>121</ele>
        <time>2025-02-02T11:24:17Z</time>
      </trkpt>
      <trkpt lat="43.648" lon="1.39164">
        <ele>121</ele>
        <time>2025-02-02T11:24:18Z</time>
      </trkpt>
      <trkpt lat="43.64797" lon="1.39166">
        <ele>121</ele>
        <time>2025-02-02T11:24:19Z</time>
      </trkpt>
      <trkpt lat="43.64795" lon="1.39168">
        <ele>120</ele>
        <time>2025-02-02T11:24:20Z</time>
      </trkpt>
      <trkpt lat="43.64792" lon="1.39169">
        <ele>120</ele>
        <time>2025-02-02T11:24:21Z</time>
      </trkpt>
      <trkpt lat="43.6479" lon="1.39171">
        <ele>120</ele>
        <time>2025-02-02T11:24:22Z</time>
      </trkpt>
      <trkpt lat="43.64788" lon="1.39172">
        <ele>120</ele>
        <time>2025-02-02T11:24:23Z</time>
      </trkpt>
      <trkpt lat="43.64785" lon="1.39174">
        <ele>120</ele>
        <time>2025-02-02T11:24:24Z</time>
      </trkpt>
      <trkpt lat="43.64783" lon="1.39175">
        <ele>120</ele>
        <time>2025-02-02T11:24:25Z</time>
      </trkpt>
      <trkpt lat="43.64781" lon="1.39176">
        <ele>120</ele>
        <time>2025-02-02T11:24:26Z</time>
      </trkpt>
      <trkpt lat="43.64778" lon="1.39178">
        <ele>120</ele>
        <time>2025-02-02T11:24:27Z</time>
      </trkpt>
      <trkpt lat="43.64776" lon="1.39179">
        <ele>120</ele>
        <time>2025-02-02T11:24:28Z</time>
      </trkpt>
      <trkpt lat="43.64773" lon="1.3918">
        <ele>120</ele>
        <time>2025-02-02T11:24:29Z</time>
      </trkpt>
      <trkpt lat="43.64771" lon="1.39181">
        <ele>120</ele>
        <time>2025-02-02T11:24:30Z</time>
      </trkpt>
      <trkpt lat="43.64769" lon="1.39183">
        <ele>120</ele>
        <time>2025-02-02T11:24:31Z</time>
      </trkpt>
      <trkpt lat="43.64766" lon="1.39184">
        <ele>120</ele>
        <time>2025-02-02T11:24:32Z</time>
      </trkpt>
      <trkpt lat="43.64764" lon="1.39185">
        <ele>120</ele>
        <time>2025-02-02T11:24:33Z</time>
      </trkpt>
      <trkpt lat="43.64762" lon="1.39187">
        <ele>120</ele>
        <time>2025-02-02T11:24:34Z</time>
      </trkpt>
      <trkpt lat="43.64757" lon="1.3919">
        <ele>120</ele>
        <time>2025-02-02T11:24:35Z</time>
      </trkpt>
      <trkpt lat="43.64753" lon="1.39192">
        <ele>120</ele>
        <time>2025-02-02T11:24:37Z</time>
      </trkpt>
      <trkpt lat="43.64752" lon="1.39193">
        <ele>120</ele>
        <time>2025-02-02T11:24:38Z</time>
      </trkpt>
      <trkpt lat="43.6475" lon="1.39194">
        <ele>120</ele>
        <time>2025-02-02T11:24:39Z</time>
      </trkpt>
      <trkpt lat="43.64748" lon="1.39195">
        <ele>120</ele>
        <time>2025-02-02T11:24:40Z</time>
      </trkpt>
      <trkpt lat="43.64745" lon="1.39197">
        <ele>120</ele>
        <time>2025-02-02T11:24:41Z</time>
      </trkpt>
      <trkpt lat="43.64743" lon="1.39198">
        <ele>120</ele>
        <time>2025-02-02T11:24:42Z</time>
      </trkpt>
      <trkpt lat="43.64741" lon="1.392">
        <ele>120</ele>
        <time>2025-02-02T11:24:43Z</time>
      </trkpt>
      <trkpt lat="43.64739" lon="1.39201">
        <ele>120</ele>
        <time>2025-02-02T11:24:44Z</time>
      </trkpt>
      <trkpt lat="43.64737" lon="1.39202">
        <ele>120</ele>
        <time>2025-02-02T11:24:45Z</time>
      </trkpt>
      <trkpt lat="43.64734" lon="1.39203">
        <ele>120</ele>
        <time>2025-02-02T11:24:46Z</time>
      </trkpt>
      <trkpt lat="43.64732" lon="1.39205">
        <ele>120</ele>
        <time>2025-02-02T11:24:47Z</time>
      </trkpt>
      <trkpt lat="43.6473" lon="1.39206">
        <ele>120</ele>
        <time>2025-02-02T11:24:48Z</time>
      </trkpt>
      <trkpt lat="43.64728" lon="1.39208">
        <ele>120</ele>
        <time>2025-02-02T11:24:49Z</time>
      </trkpt>
      <trkpt lat="43.64725" lon="1.3921">
        <ele>120</ele>
        <time>2025-02-02T11:24:50Z</time>
      </trkpt>
      <trkpt lat="43.64723" lon="1.39212">
        <ele>120</ele>
        <time>2025-02-02T11:24:51Z</time>
      </trkpt>
      <trkpt lat="43.64721" lon="1.39214">
        <ele>120</ele>
        <time>2025-02-02T11:24:52Z</time>
      </trkpt>
      <trkpt lat="43.64718" lon="1.39216">
        <ele>120</ele>
        <time>2025-02-02T11:24:53Z</time>
      </trkpt>
      <trkpt lat="43.64716" lon="1.39217">
        <ele>120</ele>
        <time>2025-02-02T11:24:54Z</time>
      </trkpt>
      <trkpt lat="43.64713" lon="1.39219">
        <ele>120</ele>
        <time>2025-02-02T11:24:55Z</time>
      </trkpt>
      <trkpt lat="43.64711" lon="1.39221">
        <ele>120</ele>
        <time>2025-02-02T11:24:56Z</time>
      </trkpt>
      <trkpt lat="43.64709" lon="1.39222">
        <ele>120</ele>
        <time>2025-02-02T11:24:57Z</time>
      </trkpt>
      <trkpt lat="43.64706" lon="1.39224">
        <ele>120</ele>
        <time>2025-02-02T11:24:58Z</time>
      </trkpt>
      <trkpt lat="43.64704" lon="1.39225">
        <ele>120</ele>
        <time>2025-02-02T11:24:59Z</time>
      </trkpt>
      <trkpt lat="43.64702" lon="1.39227">
        <ele>120</ele>
        <time>2025-02-02T11:25:00Z</time>
      </trkpt>
      <trkpt lat="43.64699" lon="1.39228">
        <ele>120</ele>
        <time>2025-02-02T11:25:01Z</time>
      </trkpt>
      <trkpt lat="43.64697" lon="1.3923">
        <ele>120</ele>
        <time>2025-02-02T11:25:02Z</time>
      </trkpt>
      <trkpt lat="43.64695" lon="1.39231">
        <ele>120</ele>
        <time>2025-02-02T11:25:03Z</time>
      </trkpt>
      <trkpt lat="43.64692" lon="1.39233">
        <ele>120</ele>
        <time>2025-02-02T11:25:04Z</time>
      </trkpt>
      <trkpt lat="43.6469" lon="1.39234">
        <ele>120</ele>
        <time>2025-02-02T11:25:05Z</time>
      </trkpt>
      <trkpt lat="43.64688" lon="1.39236">
        <ele>120</ele>
        <time>2025-02-02T11:25:06Z</time>
      </trkpt>
      <trkpt lat="43.64685" lon="1.39237">
        <ele>120</ele>
        <time>2025-02-02T11:25:07Z</time>
      </trkpt>
      <trkpt lat="43.64683" lon="1.39239">
        <ele>120</ele>
        <time>2025-02-02T11:25:08Z</time>
      </trkpt>
      <trkpt lat="43.6468" lon="1.3924">
        <ele>120</ele>
        <time>2025-02-02T11:25:09Z</time>
      </trkpt>
      <trkpt lat="43.64678" lon="1.39242">
        <ele>120</ele>
        <time>2025-02-02T11:25:10Z</time>
      </trkpt>
      <trkpt lat="43.64675" lon="1.39243">
        <ele>120</ele>
        <time>2025-02-02T11:25:11Z</time>
      </trkpt>
      <trkpt lat="43.64673" lon="1.39245">
        <ele>120</ele>
        <time>2025-02-02T11:25:12Z</time>
      </trkpt>
      <trkpt lat="43.6467" lon="1.39246">
        <ele>120</ele>
        <time>2025-02-02T11:25:13Z</time>
      </trkpt>
      <trkpt lat="43.64668" lon="1.39248">
        <ele>120</ele>
        <time>2025-02-02T11:25:14Z</time>
      </trkpt>
      <trkpt lat="43.64665" lon="1.39249">
        <ele>120</ele>
        <time>2025-02-02T11:25:15Z</time>
      </trkpt>
      <trkpt lat="43.64663" lon="1.3925">
        <ele>120</ele>
        <time>2025-02-02T11:25:16Z</time>
      </trkpt>
      <trkpt lat="43.6466" lon="1.39252">
        <ele>120</ele>
        <time>2025-02-02T11:25:17Z</time>
      </trkpt>
      <trkpt lat="43.64658" lon="1.39253">
        <ele>120</ele>
        <time>2025-02-02T11:25:18Z</time>
      </trkpt>
      <trkpt lat="43.64656" lon="1.39254">
        <ele>120</ele>
        <time>2025-02-02T11:25:19Z</time>
      </trkpt>
      <trkpt lat="43.64653" lon="1.39255">
        <ele>120</ele>
        <time>2025-02-02T11:25:20Z</time>
      </trkpt>
      <trkpt lat="43.64651" lon="1.39257">
        <ele>120</ele>
        <time>2025-02-02T11:25:21Z</time>
      </trkpt>
      <trkpt lat="43.64648" lon="1.39258">
        <ele>120</ele>
        <time>2025-02-02T11:25:22Z</time>
      </trkpt>
      <trkpt lat="43.64646" lon="1.39259">
        <ele>121</ele>
        <time>2025-02-02T11:25:23Z</time>
      </trkpt>
      <trkpt lat="43.64643" lon="1.39261">
        <ele>121</ele>
        <time>2025-02-02T11:25:24Z</time>
      </trkpt>
      <trkpt lat="43.64641" lon="1.39262">
        <ele>121</ele>
        <time>2025-02-02T11:25:25Z</time>
      </trkpt>
      <trkpt lat="43.64638" lon="1.39263">
        <ele>121</ele>
        <time>2025-02-02T11:25:26Z</time>
      </trkpt>
      <trkpt lat="43.64636" lon="1.39264">
        <ele>121</ele>
        <time>2025-02-02T11:25:27Z</time>
      </trkpt>
      <trkpt lat="43.64634" lon="1.39265">
        <ele>121</ele>
        <time>2025-02-02T11:25:28Z</time>
      </trkpt>
      <trkpt lat="43.64631" lon="1.39267">
        <ele>121</ele>
        <time>2025-02-02T11:25:29Z</time>
      </trkpt>
      <trkpt lat="43.64629" lon="1.39268">
        <ele>121</ele>
        <time>2025-02-02T11:25:30Z</time>
      </trkpt>
      <trkpt lat="43.64626" lon="1.39269">
        <ele>121</ele>
        <time>2025-02-02T11:25:31Z</time>
      </trkpt>
      <trkpt lat="43.64624" lon="1.3927">
        <ele>121</ele>
        <time>2025-02-02T11:25:32Z</time>
      </trkpt>
      <trkpt lat="43.6462" lon="1.39272">
        <ele>121</ele>
        <time>2025-02-02T11:25:33Z</time>
      </trkpt>
      <trkpt lat="43.64619" lon="1.39272">
        <ele>121</ele>
        <time>2025-02-02T11:25:34Z</time>
      </trkpt>
      <trkpt lat="43.64616" lon="1.39273">
        <ele>121</ele>
        <time>2025-02-02T11:25:35Z</time>
      </trkpt>
      <trkpt lat="43.64615" lon="1.39273">
        <ele>121</ele>
        <time>2025-02-02T11:25:36Z</time>
      </trkpt>
      <trkpt lat="43.64612" lon="1.39274">
        <ele>121</ele>
        <time>2025-02-02T11:25:37Z</time>
      </trkpt>
      <trkpt lat="43.6461" lon="1.39275">
        <ele>121</ele>
        <time>2025-02-02T11:25:38Z</time>
      </trkpt>
      <trkpt lat="43.64607" lon="1.39277">
        <ele>121</ele>
        <time>2025-02-02T11:25:39Z</time>
      </trkpt>
      <trkpt lat="43.64605" lon="1.39278">
        <ele>121</ele>
        <time>2025-02-02T11:25:40Z</time>
      </trkpt>
      <trkpt lat="43.64602" lon="1.3928">
        <ele>121</ele>
        <time>2025-02-02T11:25:41Z</time>
      </trkpt>
      <trkpt lat="43.646" lon="1.39281">
        <ele>121</ele>
        <time>2025-02-02T11:25:42Z</time>
      </trkpt>
      <trkpt lat="43.64598" lon="1.39282">
        <ele>121</ele>
        <time>2025-02-02T11:25:43Z</time>
      </trkpt>
      <trkpt lat="43.64595" lon="1.39283">
        <ele>121</ele>
        <time>2025-02-02T11:25:44Z</time>
      </trkpt>
      <trkpt lat="43.64593" lon="1.39284">
        <ele>121</ele>
        <time>2025-02-02T11:25:45Z</time>
      </trkpt>
      <trkpt lat="43.6459" lon="1.39285">
        <ele>121</ele>
        <time>2025-02-02T11:25:46Z</time>
      </trkpt>
      <trkpt lat="43.64588" lon="1.39286">
        <ele>121</ele>
        <time>2025-02-02T11:25:47Z</time>
      </trkpt>
      <trkpt lat="43.64585" lon="1.39287">
        <ele>121</ele>
        <time>2025-02-02T11:25:48Z</time>
      </trkpt>
      <trkpt lat="43.64582" lon="1.39288">
        <ele>121</ele>
        <time>2025-02-02T11:25:49Z</time>
      </trkpt>
      <trkpt lat="43.6458" lon="1.39289">
        <ele>121</ele>
        <time>2025-02-02T11:25:50Z</time>
      </trkpt>
      <trkpt lat="43.64577" lon="1.39289">
        <ele>121</ele>
        <time>2025-02-02T11:25:51Z</time>
      </trkpt>
      <trkpt lat="43.64574" lon="1.3929">
        <ele>121</ele>
        <time>2025-02-02T11:25:52Z</time>
      </trkpt>
      <trkpt lat="43.64573" lon="1.39291">
        <ele>121</ele>
        <time>2025-02-02T11:25:53Z</time>
      </trkpt>
      <trkpt lat="43.64569" lon="1.39292">
        <ele>121</ele>
        <time>2025-02-02T11:25:54Z</time>
      </trkpt>
      <trkpt lat="43.64567" lon="1.39292">
        <ele>121</ele>
        <time>2025-02-02T11:25:55Z</time>
      </trkpt>
      <trkpt lat="43.64565" lon="1.39293">
        <ele>121</ele>
        <time>2025-02-02T11:25:56Z</time>
      </trkpt>
      <trkpt lat="43.64562" lon="1.39294">
        <ele>121</ele>
        <time>2025-02-02T11:25:57Z</time>
      </trkpt>
      <trkpt lat="43.64559" lon="1.39294">
        <ele>121</ele>
        <time>2025-02-02T11:25:58Z</time>
      </trkpt>
      <trkpt lat="43.64557" lon="1.39295">
        <ele>121</ele>
        <time>2025-02-02T11:25:59Z</time>
      </trkpt>
      <trkpt lat="43.64554" lon="1.39296">
        <ele>121</ele>
        <time>2025-02-02T11:26:00Z</time>
      </trkpt>
      <trkpt lat="43.64551" lon="1.39297">
        <ele>121</ele>
        <time>2025-02-02T11:26:01Z</time>
      </trkpt>
      <trkpt lat="43.64549" lon="1.39298">
        <ele>121</ele>
        <time>2025-02-02T11:26:02Z</time>
      </trkpt>
      <trkpt lat="43.64546" lon="1.39298">
        <ele>121</ele>
        <time>2025-02-02T11:26:03Z</time>
      </trkpt>
      <trkpt lat="43.64544" lon="1.39299">
        <ele>121</ele>
        <time>2025-02-02T11:26:04Z</time>
      </trkpt>
      <trkpt lat="43.64541" lon="1.393">
        <ele>121</ele>
        <time>2025-02-02T11:26:05Z</time>
      </trkpt>
      <trkpt lat="43.64538" lon="1.39301">
        <ele>121</ele>
        <time>2025-02-02T11:26:06Z</time>
      </trkpt>
      <trkpt lat="43.64536" lon="1.39302">
        <ele>121</ele>
        <time>2025-02-02T11:26:07Z</time>
      </trkpt>
      <trkpt lat="43.64533" lon="1.39303">
        <ele>121</ele>
        <time>2025-02-02T11:26:08Z</time>
      </trkpt>
      <trkpt lat="43.6453" lon="1.39304">
        <ele>121</ele>
        <time>2025-02-02T11:26:09Z</time>
      </trkpt>
      <trkpt lat="43.64528" lon="1.39306">
        <ele>121</ele>
        <time>2025-02-02T11:26:10Z</time>
      </trkpt>
      <trkpt lat="43.64525" lon="1.39308">
        <ele>121</ele>
        <time>2025-02-02T11:26:11Z</time>
      </trkpt>
      <trkpt lat="43.64523" lon="1.39308">
        <ele>121</ele>
        <time>2025-02-02T11:26:12Z</time>
      </trkpt>
      <trkpt lat="43.64519" lon="1.3931">
        <ele>121</ele>
        <time>2025-02-02T11:26:13Z</time>
      </trkpt>
      <trkpt lat="43.64518" lon="1.3931">
        <ele>121</ele>
        <time>2025-02-02T11:26:14Z</time>
      </trkpt>
      <trkpt lat="43.64515" lon="1.39311">
        <ele>121</ele>
        <time>2025-02-02T11:26:15Z</time>
      </trkpt>
      <trkpt lat="43.64513" lon="1.39311">
        <ele>121</ele>
        <time>2025-02-02T11:26:16Z</time>
      </trkpt>
      <trkpt lat="43.6451" lon="1.39312">
        <ele>125</ele>
        <time>2025-02-02T11:26:17Z</time>
      </trkpt>
      <trkpt lat="43.64507" lon="1.39313">
        <ele>125</ele>
        <time>2025-02-02T11:26:18Z</time>
      </trkpt>
      <trkpt lat="43.64504" lon="1.39313">
        <ele>121</ele>
        <time>2025-02-02T11:26:19Z</time>
      </trkpt>
      <trkpt lat="43.64501" lon="1.39313">
        <ele>121</ele>
        <time>2025-02-02T11:26:20Z</time>
      </trkpt>
      <trkpt lat="43.64498" lon="1.39313">
        <ele>125</ele>
        <time>2025-02-02T11:26:21Z</time>
      </trkpt>
      <trkpt lat="43.64496" lon="1.39313">
        <ele>125</ele>
        <time>2025-02-02T11:26:22Z</time>
      </trkpt>
      <trkpt lat="43.64493" lon="1.39313">
        <ele>121</ele>
        <time>2025-02-02T11:26:23Z</time>
      </trkpt>
      <trkpt lat="43.64491" lon="1.39313">
        <ele>125</ele>
        <time>2025-02-02T11:26:24Z</time>
      </trkpt>
      <trkpt lat="43.64488" lon="1.39312">
        <ele>125</ele>
        <time>2025-02-02T11:26:25Z</time>
      </trkpt>
      <trkpt lat="43.64486" lon="1.39313">
        <ele>125</ele>
        <time>2025-02-02T11:26:26Z</time>
      </trkpt>
      <trkpt lat="43.64483" lon="1.39313">
        <ele>125</ele>
        <time>2025-02-02T11:26:27Z</time>
      </trkpt>
      <trkpt lat="43.64481" lon="1.39313">
        <ele>125</ele>
        <time>2025-02-02T11:26:28Z</time>
      </trkpt>
      <trkpt lat="43.64478" lon="1.39313">
        <ele>125</ele>
        <time>2025-02-02T11:26:29Z</time>
      </trkpt>
      <trkpt lat="43.64475" lon="1.39313">
        <ele>125</ele>
        <time>2025-02-02T11:26:30Z</time>
      </trkpt>
      <trkpt lat="43.64473" lon="1.39313">
        <ele>125</ele>
        <time>2025-02-02T11:26:31Z</time>
      </trkpt>
      <trkpt lat="43.64471" lon="1.39313">
        <ele>125</ele>
        <time>2025-02-02T11:26:32Z</time>
      </trkpt>
      <trkpt lat="43.64468" lon="1.39313">
        <ele>125</ele>
        <time>2025-02-02T11:26:33Z</time>
      </trkpt>
      <trkpt lat="43.64466" lon="1.39313">
        <ele>126</ele>
        <time>2025-02-02T11:26:34Z</time>
      </trkpt>
      <trkpt lat="43.64463" lon="1.39314">
        <ele>127</ele>
        <time>2025-02-02T11:26:35Z</time>
      </trkpt>
      <trkpt lat="43.64462" lon="1.39317">
        <ele>127</ele>
        <time>2025-02-02T11:26:36Z</time>
      </trkpt>
      <trkpt lat="43.64462" lon="1.3932">
        <ele>127</ele>
        <time>2025-02-02T11:26:37Z</time>
      </trkpt>
      <trkpt lat="43.64462" lon="1.39324">
        <ele>127</ele>
        <time>2025-02-02T11:26:38Z</time>
      </trkpt>
      <trkpt lat="43.64463" lon="1.39328">
        <ele>127</ele>
        <time>2025-02-02T11:26:39Z</time>
      </trkpt>
      <trkpt lat="43.64464" lon="1.39331">
        <ele>127</ele>
        <time>2025-02-02T11:26:40Z</time>
      </trkpt>
      <trkpt lat="43.64464" lon="1.39335">
        <ele>127</ele>
        <time>2025-02-02T11:26:41Z</time>
      </trkpt>
      <trkpt lat="43.64465" lon="1.39338">
        <ele>127</ele>
        <time>2025-02-02T11:26:42Z</time>
      </trkpt>
      <trkpt lat="43.64466" lon="1.39342">
        <ele>127</ele>
        <time>2025-02-02T11:26:43Z</time>
      </trkpt>
      <trkpt lat="43.64467" lon="1.39345">
        <ele>127</ele>
        <time>2025-02-02T11:26:44Z</time>
      </trkpt>
      <trkpt lat="43.64468" lon="1.39349">
        <ele>127</ele>
        <time>2025-02-02T11:26:45Z</time>
      </trkpt>
      <trkpt lat="43.64469" lon="1.39352">
        <ele>127</ele>
        <time>2025-02-02T11:26:46Z</time>
      </trkpt>
      <trkpt lat="43.64469" lon="1.39355">
        <ele>127</ele>
        <time>2025-02-02T11:26:47Z</time>
      </trkpt>
      <trkpt lat="43.6447" lon="1.39359">
        <ele>127</ele>
        <time>2025-02-02T11:26:48Z</time>
      </trkpt>
      <trkpt lat="43.64471" lon="1.39364">
        <ele>127</ele>
        <time>2025-02-02T11:26:49Z</time>
      </trkpt>
      <trkpt lat="43.64471" lon="1.39366">
        <ele>127</ele>
        <time>2025-02-02T11:26:50Z</time>
      </trkpt>
      <trkpt lat="43.64472" lon="1.39371">
        <ele>127</ele>
        <time>2025-02-02T11:26:51Z</time>
      </trkpt>
      <trkpt lat="43.64473" lon="1.39372">
        <ele>127</ele>
        <time>2025-02-02T11:26:52Z</time>
      </trkpt>
      <trkpt lat="43.64473" lon="1.39376">
        <ele>127</ele>
        <time>2025-02-02T11:26:53Z</time>
      </trkpt>
      <trkpt lat="43.64473" lon="1.39379">
        <ele>127</ele>
        <time>2025-02-02T11:26:54Z</time>
      </trkpt>
      <trkpt lat="43.64474" lon="1.39383">
        <ele>127</ele>
        <time>2025-02-02T11:26:55Z</time>
      </trkpt>
      <trkpt lat="43.64475" lon="1.39386">
        <ele>127</ele>
        <time>2025-02-02T11:26:56Z</time>
      </trkpt>
      <trkpt lat="43.64476" lon="1.39389">
        <ele>127</ele>
        <time>2025-02-02T11:26:57Z</time>
      </trkpt>
      <trkpt lat="43.64476" lon="1.39393">
        <ele>127</ele>
        <time>2025-02-02T11:26:58Z</time>
      </trkpt>
      <trkpt lat="43.64476" lon="1.39396">
        <ele>127</ele>
        <time>2025-02-02T11:26:59Z</time>
      </trkpt>
      <trkpt lat="43.64477" lon="1.394">
        <ele>127</ele>
        <time>2025-02-02T11:27:00Z</time>
      </trkpt>
      <trkpt lat="43.64477" lon="1.39403">
        <ele>127</ele>
        <time>2025-02-02T11:27:01Z</time>
      </trkpt>
      <trkpt lat="43.64477" lon="1.39407">
        <ele>127</ele>
        <time>2025-02-02T11:27:02Z</time>
      </trkpt>
      <trkpt lat="43.64478" lon="1.3941">
        <ele>127</ele>
        <time>2025-02-02T11:27:03Z</time>
      </trkpt>
      <trkpt lat="43.64479" lon="1.39414">
        <ele>127</ele>
        <time>2025-02-02T11:27:04Z</time>
      </trkpt>
      <trkpt lat="43.64479" lon="1.39417">
        <ele>127</ele>
        <time>2025-02-02T11:27:05Z</time>
      </trkpt>
      <trkpt lat="43.6448" lon="1.39421">
        <ele>127</ele>
        <time>2025-02-02T11:27:06Z</time>
      </trkpt>
      <trkpt lat="43.6448" lon="1.39424">
        <ele>127</ele>
        <time>2025-02-02T11:27:07Z</time>
      </trkpt>
      <trkpt lat="43.64481" lon="1.39429">
        <ele>127</ele>
        <time>2025-02-02T11:27:08Z</time>
      </trkpt>
      <trkpt lat="43.64481" lon="1.3943">
        <ele>127</ele>
        <time>2025-02-02T11:27:09Z</time>
      </trkpt>
      <trkpt lat="43.64482" lon="1.39434">
        <ele>127</ele>
        <time>2025-02-02T11:27:10Z</time>
      </trkpt>
      <trkpt lat="43.64483" lon="1.39438">
        <ele>127</ele>
        <time>2025-02-02T11:27:11Z</time>
      </trkpt>
      <trkpt lat="43.64483" lon="1.3944">
        <ele>127</ele>
        <time>2025-02-02T11:27:12Z</time>
      </trkpt>
      <trkpt lat="43.64484" lon="1.39443">
        <ele>127</ele>
        <time>2025-02-02T11:27:13Z</time>
      </trkpt>
      <trkpt lat="43.64485" lon="1.39447">
        <ele>127</ele>
        <time>2025-02-02T11:27:14Z</time>
      </trkpt>
      <trkpt lat="43.64486" lon="1.3945">
        <ele>128</ele>
        <time>2025-02-02T11:27:15Z</time>
      </trkpt>
      <trkpt lat="43.64487" lon="1.39454">
        <ele>128</ele>
        <time>2025-02-02T11:27:16Z</time>
      </trkpt>
      <trkpt lat="43.64487" lon="1.39457">
        <ele>128</ele>
        <time>2025-02-02T11:27:17Z</time>
      </trkpt>
      <trkpt lat="43.64488" lon="1.3946">
        <ele>128</ele>
        <time>2025-02-02T11:27:18Z</time>
      </trkpt>
      <trkpt lat="43.64488" lon="1.39464">
        <ele>128</ele>
        <time>2025-02-02T11:27:19Z</time>
      </trkpt>
      <trkpt lat="43.64488" lon="1.39467">
        <ele>127</ele>
        <time>2025-02-02T11:27:20Z</time>
      </trkpt>
      <trkpt lat="43.64489" lon="1.3947">
        <ele>127</ele>
        <time>2025-02-02T11:27:21Z</time>
      </trkpt>
      <trkpt lat="43.64489" lon="1.39474">
        <ele>127</ele>
        <time>2025-02-02T11:27:22Z</time>
      </trkpt>
      <trkpt lat="43.6449" lon="1.39477">
        <ele>127</ele>
        <time>2025-02-02T11:27:23Z</time>
      </trkpt>
      <trkpt lat="43.6449" lon="1.3948">
        <ele>127</ele>
        <time>2025-02-02T11:27:24Z</time>
      </trkpt>
      <trkpt lat="43.64491" lon="1.39484">
        <ele>127</ele>
        <time>2025-02-02T11:27:25Z</time>
      </trkpt>
      <trkpt lat="43.64491" lon="1.39487">
        <ele>127</ele>
        <time>2025-02-02T11:27:26Z</time>
      </trkpt>
      <trkpt lat="43.64492" lon="1.39492">
        <ele>127</ele>
        <time>2025-02-02T11:27:27Z</time>
      </trkpt>
      <trkpt lat="43.64492" lon="1.39494">
        <ele>127</ele>
        <time>2025-02-02T11:27:28Z</time>
      </trkpt>
      <trkpt lat="43.64493" lon="1.39497">
        <ele>127</ele>
        <time>2025-02-02T11:27:29Z</time>
      </trkpt>
      <trkpt lat="43.64493" lon="1.39501">
        <ele>128</ele>
        <time>2025-02-02T11:27:30Z</time>
      </trkpt>
      <trkpt lat="43.64494" lon="1.39506">
        <ele>128</ele>
        <time>2025-02-02T11:27:31Z</time>
      </trkpt>
      <trkpt lat="43.64494" lon="1.39508">
        <ele>128</ele>
        <time>2025-02-02T11:27:32Z</time>
      </trkpt>
      <trkpt lat="43.64495" lon="1.39512">
        <ele>128</ele>
        <time>2025-02-02T11:27:33Z</time>
      </trkpt>
      <trkpt lat="43.64495" lon="1.39515">
        <ele>128</ele>
        <time>2025-02-02T11:27:34Z</time>
      </trkpt>
      <trkpt lat="43.64496" lon="1.39519">
        <ele>128</ele>
        <time>2025-02-02T11:27:35Z</time>
      </trkpt>
      <trkpt lat="43.64496" lon="1.39522">
        <ele>128</ele>
        <time>2025-02-02T11:27:36Z</time>
      </trkpt>
      <trkpt lat="43.64496" lon="1.39526">
        <ele>128</ele>
        <time>2025-02-02T11:27:37Z</time>
      </trkpt>
      <trkpt lat="43.64497" lon="1.39529">
        <ele>128</ele>
        <time>2025-02-02T11:27:38Z</time>
      </trkpt>
      <trkpt lat="43.64497" lon="1.39533">
        <ele>128</ele>
        <time>2025-02-02T11:27:39Z</time>
      </trkpt>
      <trkpt lat="43.64498" lon="1.39536">
        <ele>128</ele>
        <time>2025-02-02T11:27:40Z</time>
      </trkpt>
      <trkpt lat="43.64498" lon="1.3954">
        <ele>127</ele>
        <time>2025-02-02T11:27:41Z</time>
      </trkpt>
      <trkpt lat="43.64499" lon="1.39543">
        <ele>127</ele>
        <time>2025-02-02T11:27:42Z</time>
      </trkpt>
      <trkpt lat="43.645" lon="1.39546">
        <ele>127</ele>
        <time>2025-02-02T11:27:43Z</time>
      </trkpt>
      <trkpt lat="43.645" lon="1.3955">
        <ele>127</ele>
        <time>2025-02-02T11:27:44Z</time>
      </trkpt>
      <trkpt lat="43.64501" lon="1.39553">
        <ele>127</ele>
        <time>2025-02-02T11:27:45Z</time>
      </trkpt>
      <trkpt lat="43.64501" lon="1.39558">
        <ele>127</ele>
        <time>2025-02-02T11:27:46Z</time>
      </trkpt>
      <trkpt lat="43.64501" lon="1.3956">
        <ele>127</ele>
        <time>2025-02-02T11:27:47Z</time>
      </trkpt>
      <trkpt lat="43.64502" lon="1.39563">
        <ele>127</ele>
        <time>2025-02-02T11:27:48Z</time>
      </trkpt>
      <trkpt lat="43.64502" lon="1.39567">
        <ele>127</ele>
        <time>2025-02-02T11:27:49Z</time>
      </trkpt>
      <trkpt lat="43.64503" lon="1.39572">
        <ele>127</ele>
        <time>2025-02-02T11:27:50Z</time>
      </trkpt>
      <trkpt lat="43.64503" lon="1.39574">
        <ele>127</ele>
        <time>2025-02-02T11:27:51Z</time>
      </trkpt>
      <trkpt lat="43.64503" lon="1.39577">
        <ele>127</ele>
        <time>2025-02-02T11:27:52Z</time>
      </trkpt>
      <trkpt lat="43.64503" lon="1.39581">
        <ele>127</ele>
        <time>2025-02-02T11:27:53Z</time>
      </trkpt>
      <trkpt lat="43.64504" lon="1.39585">
        <ele>127</ele>
        <time>2025-02-02T11:27:54Z</time>
      </trkpt>
      <trkpt lat="43.64504" lon="1.39588">
        <ele>127</ele>
        <time>2025-02-02T11:27:55Z</time>
      </trkpt>
      <trkpt lat="43.64505" lon="1.39591">
        <ele>127</ele>
        <time>2025-02-02T11:27:56Z</time>
      </trkpt>
      <trkpt lat="43.64506" lon="1.39595">
        <ele>127</ele>
        <time>2025-02-02T11:27:57Z</time>
      </trkpt>
      <trkpt lat="43.64506" lon="1.39598">
        <ele>128</ele>
        <time>2025-02-02T11:27:58Z</time>
      </trkpt>
      <trkpt lat="43.64506" lon="1.39602">
        <ele>128</ele>
        <time>2025-02-02T11:27:59Z</time>
      </trkpt>
      <trkpt lat="43.64506" lon="1.39605">
        <ele>127</ele>
        <time>2025-02-02T11:28:00Z</time>
      </trkpt>
      <trkpt lat="43.64506" lon="1.39609">
        <ele>127</ele>
        <time>2025-02-02T11:28:01Z</time>
      </trkpt>
      <trkpt lat="43.64506" lon="1.39613">
        <ele>128</ele>
        <time>2025-02-02T11:28:02Z</time>
      </trkpt>
      <trkpt lat="43.64506" lon="1.39616">
        <ele>128</ele>
        <time>2025-02-02T11:28:03Z</time>
      </trkpt>
      <trkpt lat="43.64506" lon="1.3962">
        <ele>128</ele>
        <time>2025-02-02T11:28:04Z</time>
      </trkpt>
      <trkpt lat="43.64505" lon="1.39625">
        <ele>128</ele>
        <time>2025-02-02T11:28:05Z</time>
      </trkpt>
      <trkpt lat="43.64505" lon="1.39627">
        <ele>127</ele>
        <time>2025-02-02T11:28:06Z</time>
      </trkpt>
      <trkpt lat="43.64505" lon="1.3963">
        <ele>127</ele>
        <time>2025-02-02T11:28:07Z</time>
      </trkpt>
      <trkpt lat="43.64506" lon="1.39634">
        <ele>128</ele>
        <time>2025-02-02T11:28:08Z</time>
      </trkpt>
      <trkpt lat="43.64506" lon="1.39639">
        <ele>128</ele>
        <time>2025-02-02T11:28:09Z</time>
      </trkpt>
      <trkpt lat="43.64506" lon="1.39641">
        <ele>128</ele>
        <time>2025-02-02T11:28:10Z</time>
      </trkpt>
      <trkpt lat="43.64506" lon="1.39645">
        <ele>128</ele>
        <time>2025-02-02T11:28:11Z</time>
      </trkpt>
      <trkpt lat="43.64506" lon="1.39649">
        <ele>127</ele>
        <time>2025-02-02T11:28:12Z</time>
      </trkpt>
      <trkpt lat="43.64506" lon="1.39652">
        <ele>127</ele>
        <time>2025-02-02T11:28:13Z</time>
      </trkpt>
      <trkpt lat="43.64506" lon="1.39655">
        <ele>127</ele>
        <time>2025-02-02T11:28:14Z</time>
      </trkpt>
      <trkpt lat="43.64505" lon="1.39659">
        <ele>127</ele>
        <time>2025-02-02T11:28:15Z</time>
      </trkpt>
      <trkpt lat="43.64505" lon="1.39662">
        <ele>127</ele>
        <time>2025-02-02T11:28:16Z</time>
      </trkpt>
      <trkpt lat="43.64506" lon="1.39665">
        <ele>127</ele>
        <time>2025-02-02T11:28:17Z</time>
      </trkpt>
      <trkpt lat="43.64506" lon="1.39669">
        <ele>127</ele>
        <time>2025-02-02T11:28:18Z</time>
      </trkpt>
      <trkpt lat="43.64506" lon="1.39672">
        <ele>127</ele>
        <time>2025-02-02T11:28:19Z</time>
      </trkpt>
      <trkpt lat="43.64506" lon="1.39676">
        <ele>127</ele>
        <time>2025-02-02T11:28:20Z</time>
      </trkpt>
      <trkpt lat="43.64506" lon="1.3968">
        <ele>127</ele>
        <time>2025-02-02T11:28:21Z</time>
      </trkpt>
      <trkpt lat="43.64506" lon="1.39683">
        <ele>127</ele>
        <time>2025-02-02T11:28:22Z</time>
      </trkpt>
      <trkpt lat="43.64506" lon="1.39687">
        <ele>127</ele>
        <time>2025-02-02T11:28:23Z</time>
      </trkpt>
      <trkpt lat="43.64506" lon="1.39692">
        <ele>127</ele>
        <time>2025-02-02T11:28:24Z</time>
      </trkpt>
      <trkpt lat="43.64506" lon="1.39694">
        <ele>127</ele>
        <time>2025-02-02T11:28:25Z</time>
      </trkpt>
      <trkpt lat="43.64506" lon="1.39697">
        <ele>127</ele>
        <time>2025-02-02T11:28:26Z</time>
      </trkpt>
      <trkpt lat="43.64506" lon="1.39701">
        <ele>127</ele>
        <time>2025-02-02T11:28:27Z</time>
      </trkpt>
      <trkpt lat="43.64506" lon="1.39704">
        <ele>127</ele>
        <time>2025-02-02T11:28:28Z</time>
      </trkpt>
      <trkpt lat="43.64506" lon="1.3971">
        <ele>127</ele>
        <time>2025-02-02T11:28:29Z</time>
      </trkpt>
      <trkpt lat="43.64506" lon="1.39711">
        <ele>128</ele>
        <time>2025-02-02T11:28:30Z</time>
      </trkpt>
      <trkpt lat="43.64505" lon="1.39715">
        <ele>128</ele>
        <time>2025-02-02T11:28:31Z</time>
      </trkpt>
      <trkpt lat="43.64505" lon="1.39719">
        <ele>128</ele>
        <time>2025-02-02T11:28:32Z</time>
      </trkpt>
      <trkpt lat="43.64505" lon="1.39722">
        <ele>128</ele>
        <time>2025-02-02T11:28:33Z</time>
      </trkpt>
      <trkpt lat="43.64505" lon="1.39726">
        <ele>128</ele>
        <time>2025-02-02T11:28:34Z</time>
      </trkpt>
      <trkpt lat="43.64505" lon="1.39729">
        <ele>128</ele>
        <time>2025-02-02T11:28:35Z</time>
      </trkpt>
      <trkpt lat="43.64505" lon="1.39733">
        <ele>128</ele>
        <time>2025-02-02T11:28:36Z</time>
      </trkpt>
      <trkpt lat="43.64505" lon="1.39736">
        <ele>128</ele>
        <time>2025-02-02T11:28:37Z</time>
      </trkpt>
      <trkpt lat="43.64505" lon="1.3974">
        <ele>128</ele>
        <time>2025-02-02T11:28:38Z</time>
      </trkpt>
      <trkpt lat="43.64504" lon="1.39743">
        <ele>128</ele>
        <time>2025-02-02T11:28:39Z</time>
      </trkpt>
      <trkpt lat="43.64504" lon="1.39747">
        <ele>128</ele>
        <time>2025-02-02T11:28:40Z</time>
      </trkpt>
      <trkpt lat="43.64505" lon="1.39751">
        <ele>128</ele>
        <time>2025-02-02T11:28:41Z</time>
      </trkpt>
      <trkpt lat="43.64505" lon="1.39754">
        <ele>128</ele>
        <time>2025-02-02T11:28:42Z</time>
      </trkpt>
      <trkpt lat="43.64505" lon="1.3976">
        <ele>128</ele>
        <time>2025-02-02T11:28:43Z</time>
      </trkpt>
      <trkpt lat="43.64505" lon="1.39762">
        <ele>128</ele>
        <time>2025-02-02T11:28:44Z</time>
      </trkpt>
      <trkpt lat="43.64505" lon="1.39765">
        <ele>128</ele>
        <time>2025-02-02T11:28:45Z</time>
      </trkpt>
      <trkpt lat="43.64505" lon="1.39769">
        <ele>128</ele>
        <time>2025-02-02T11:28:46Z</time>
      </trkpt>
      <trkpt lat="43.64505" lon="1.39773">
        <ele>128</ele>
        <time>2025-02-02T11:28:47Z</time>
      </trkpt>
      <trkpt lat="43.64505" lon="1.39778">
        <ele>128</ele>
        <time>2025-02-02T11:28:48Z</time>
      </trkpt>
      <trkpt lat="43.64505" lon="1.3978">
        <ele>128</ele>
        <time>2025-02-02T11:28:49Z</time>
      </trkpt>
      <trkpt lat="43.64505" lon="1.39784">
        <ele>128</ele>
        <time>2025-02-02T11:28:50Z</time>
      </trkpt>
      <trkpt lat="43.64505" lon="1.39787">
        <ele>129</ele>
        <time>2025-02-02T11:28:51Z</time>
      </trkpt>
      <trkpt lat="43.64505" lon="1.39791">
        <ele>128</ele>
        <time>2025-02-02T11:28:52Z</time>
      </trkpt>
      <trkpt lat="43.64505" lon="1.39794">
        <ele>128</ele>
        <time>2025-02-02T11:28:53Z</time>
      </trkpt>
      <trkpt lat="43.64505" lon="1.39798">
        <ele>128</ele>
        <time>2025-02-02T11:28:54Z</time>
      </trkpt>
      <trkpt lat="43.64504" lon="1.39801">
        <ele>128</ele>
        <time>2025-02-02T11:28:55Z</time>
      </trkpt>
      <trkpt lat="43.64504" lon="1.39805">
        <ele>128</ele>
        <time>2025-02-02T11:28:56Z</time>
      </trkpt>
      <trkpt lat="43.64504" lon="1.39809">
        <ele>128</ele>
        <time>2025-02-02T11:28:57Z</time>
      </trkpt>
      <trkpt lat="43.64504" lon="1.39812">
        <ele>128</ele>
        <time>2025-02-02T11:28:58Z</time>
      </trkpt>
      <trkpt lat="43.64504" lon="1.39816">
        <ele>128</ele>
        <time>2025-02-02T11:28:59Z</time>
      </trkpt>
      <trkpt lat="43.64504" lon="1.39819">
        <ele>128</ele>
        <time>2025-02-02T11:29:00Z</time>
      </trkpt>
      <trkpt lat="43.64504" lon="1.39823">
        <ele>128</ele>
        <time>2025-02-02T11:29:01Z</time>
      </trkpt>
      <trkpt lat="43.64504" lon="1.39828">
        <ele>128</ele>
        <time>2025-02-02T11:29:02Z</time>
      </trkpt>
      <trkpt lat="43.64504" lon="1.3983">
        <ele>128</ele>
        <time>2025-02-02T11:29:03Z</time>
      </trkpt>
      <trkpt lat="43.64504" lon="1.39834">
        <ele>128</ele>
        <time>2025-02-02T11:29:04Z</time>
      </trkpt>
      <trkpt lat="43.64504" lon="1.39837">
        <ele>129</ele>
        <time>2025-02-02T11:29:05Z</time>
      </trkpt>
      <trkpt lat="43.64504" lon="1.39841">
        <ele>129</ele>
        <time>2025-02-02T11:29:06Z</time>
      </trkpt>
      <trkpt lat="43.64504" lon="1.39844">
        <ele>129</ele>
        <time>2025-02-02T11:29:07Z</time>
      </trkpt>
      <trkpt lat="43.64504" lon="1.3985">
        <ele>129</ele>
        <time>2025-02-02T11:29:08Z</time>
      </trkpt>
      <trkpt lat="43.64504" lon="1.39851">
        <ele>129</ele>
        <time>2025-02-02T11:29:09Z</time>
      </trkpt>
      <trkpt lat="43.64504" lon="1.39855">
        <ele>129</ele>
        <time>2025-02-02T11:29:10Z</time>
      </trkpt>
      <trkpt lat="43.64503" lon="1.39859">
        <ele>129</ele>
        <time>2025-02-02T11:29:11Z</time>
      </trkpt>
      <trkpt lat="43.64503" lon="1.39862">
        <ele>129</ele>
        <time>2025-02-02T11:29:12Z</time>
      </trkpt>
      <trkpt lat="43.64503" lon="1.39866">
        <ele>129</ele>
        <time>2025-02-02T11:29:13Z</time>
      </trkpt>
      <trkpt lat="43.64503" lon="1.39869">
        <ele>129</ele>
        <time>2025-02-02T11:29:14Z</time>
      </trkpt>
      <trkpt lat="43.64503" lon="1.39873">
        <ele>129</ele>
        <time>2025-02-02T11:29:15Z</time>
      </trkpt>
      <trkpt lat="43.64503" lon="1.39876">
        <ele>128</ele>
        <time>2025-02-02T11:29:16Z</time>
      </trkpt>
      <trkpt lat="43.64503" lon="1.3988">
        <ele>129</ele>
        <time>2025-02-02T11:29:17Z</time>
      </trkpt>
      <trkpt lat="43.64503" lon="1.39883">
        <ele>129</ele>
        <time>2025-02-02T11:29:18Z</time>
      </trkpt>
      <trkpt lat="43.64502" lon="1.39887">
        <ele>129</ele>
        <time>2025-02-02T11:29:19Z</time>
      </trkpt>
      <trkpt lat="43.64502" lon="1.39891">
        <ele>129</ele>
        <time>2025-02-02T11:29:20Z</time>
      </trkpt>
      <trkpt lat="43.64502" lon="1.39896">
        <ele>129</ele>
        <time>2025-02-02T11:29:21Z</time>
      </trkpt>
      <trkpt lat="43.64502" lon="1.39898">
        <ele>129</ele>
        <time>2025-02-02T11:29:22Z</time>
      </trkpt>
      <trkpt lat="43.64502" lon="1.39901">
        <ele>129</ele>
        <time>2025-02-02T11:29:23Z</time>
      </trkpt>
      <trkpt lat="43.64502" lon="1.39905">
        <ele>129</ele>
        <time>2025-02-02T11:29:24Z</time>
      </trkpt>
      <trkpt lat="43.64501" lon="1.39909">
        <ele>129</ele>
        <time>2025-02-02T11:29:25Z</time>
      </trkpt>
      <trkpt lat="43.64502" lon="1.39912">
        <ele>128</ele>
        <time>2025-02-02T11:29:26Z</time>
      </trkpt>
      <trkpt lat="43.64502" lon="1.39918">
        <ele>128</ele>
        <time>2025-02-02T11:29:27Z</time>
      </trkpt>
      <trkpt lat="43.64503" lon="1.39919">
        <ele>128</ele>
        <time>2025-02-02T11:29:28Z</time>
      </trkpt>
      <trkpt lat="43.64504" lon="1.39923">
        <ele>128</ele>
        <time>2025-02-02T11:29:29Z</time>
      </trkpt>
      <trkpt lat="43.64506" lon="1.39925">
        <ele>129</ele>
        <time>2025-02-02T11:29:30Z</time>
      </trkpt>
      <trkpt lat="43.64507" lon="1.39928">
        <ele>129</ele>
        <time>2025-02-02T11:29:31Z</time>
      </trkpt>
      <trkpt lat="43.64509" lon="1.3993">
        <ele>129</ele>
        <time>2025-02-02T11:29:32Z</time>
      </trkpt>
      <trkpt lat="43.6451" lon="1.39934">
        <ele>129</ele>
        <time>2025-02-02T11:29:33Z</time>
      </trkpt>
      <trkpt lat="43.64511" lon="1.39938">
        <ele>129</ele>
        <time>2025-02-02T11:29:34Z</time>
      </trkpt>
      <trkpt lat="43.64511" lon="1.39942">
        <ele>129</ele>
        <time>2025-02-02T11:29:35Z</time>
      </trkpt>
      <trkpt lat="43.64511" lon="1.39945">
        <ele>129</ele>
        <time>2025-02-02T11:29:36Z</time>
      </trkpt>
      <trkpt lat="43.6451" lon="1.39949">
        <ele>128</ele>
        <time>2025-02-02T11:29:37Z</time>
      </trkpt>
      <trkpt lat="43.64508" lon="1.39952">
        <ele>128</ele>
        <time>2025-02-02T11:29:38Z</time>
      </trkpt>
      <trkpt lat="43.64505" lon="1.39954">
        <ele>128</ele>
        <time>2025-02-02T11:29:39Z</time>
      </trkpt>
      <trkpt lat="43.64501" lon="1.39955">
        <ele>128</ele>
        <time>2025-02-02T11:29:40Z</time>
      </trkpt>
      <trkpt lat="43.645" lon="1.39955">
        <ele>128</ele>
        <time>2025-02-02T11:29:41Z</time>
      </trkpt>
      <trkpt lat="43.64497" lon="1.39956">
        <ele>128</ele>
        <time>2025-02-02T11:29:42Z</time>
      </trkpt>
      <trkpt lat="43.64495" lon="1.39957">
        <ele>128</ele>
        <time>2025-02-02T11:29:43Z</time>
      </trkpt>
      <trkpt lat="43.64492" lon="1.39957">
        <ele>128</ele>
        <time>2025-02-02T11:29:44Z</time>
      </trkpt>
      <trkpt lat="43.64489" lon="1.39958">
        <ele>128</ele>
        <time>2025-02-02T11:29:45Z</time>
      </trkpt>
      <trkpt lat="43.64487" lon="1.39958">
        <ele>128</ele>
        <time>2025-02-02T11:29:46Z</time>
      </trkpt>
      <trkpt lat="43.64485" lon="1.39958">
        <ele>128</ele>
        <time>2025-02-02T11:29:47Z</time>
      </trkpt>
      <trkpt lat="43.64482" lon="1.39959">
        <ele>128</ele>
        <time>2025-02-02T11:29:48Z</time>
      </trkpt>
      <trkpt lat="43.64479" lon="1.39959">
        <ele>128</ele>
        <time>2025-02-02T11:29:49Z</time>
      </trkpt>
      <trkpt lat="43.64476" lon="1.3996">
        <ele>128</ele>
        <time>2025-02-02T11:29:50Z</time>
      </trkpt>
      <trkpt lat="43.64473" lon="1.39962">
        <ele>127</ele>
        <time>2025-02-02T11:29:51Z</time>
      </trkpt>
      <trkpt lat="43.6447" lon="1.39963">
        <ele>127</ele>
        <time>2025-02-02T11:29:52Z</time>
      </trkpt>
      <trkpt lat="43.64467" lon="1.39964">
        <ele>127</ele>
        <time>2025-02-02T11:29:53Z</time>
      </trkpt>
      <trkpt lat="43.64465" lon="1.39964">
        <ele>127</ele>
        <time>2025-02-02T11:29:54Z</time>
      </trkpt>
      <trkpt lat="43.64462" lon="1.39964">
        <ele>127</ele>
        <time>2025-02-02T11:29:55Z</time>
      </trkpt>
      <trkpt lat="43.64459" lon="1.39964">
        <ele>127</ele>
        <time>2025-02-02T11:29:56Z</time>
      </trkpt>
      <trkpt lat="43.64456" lon="1.39965">
        <ele>127</ele>
        <time>2025-02-02T11:29:57Z</time>
      </trkpt>
      <trkpt lat="43.64453" lon="1.39965">
        <ele>127</ele>
        <time>2025-02-02T11:29:58Z</time>
      </trkpt>
      <trkpt lat="43.64449" lon="1.39965">
        <ele>127</ele>
        <time>2025-02-02T11:29:59Z</time>
      </trkpt>
      <trkpt lat="43.64447" lon="1.39966">
        <ele>126</ele>
        <time>2025-02-02T11:30:00Z</time>
      </trkpt>
      <trkpt lat="43.64445" lon="1.39966">
        <ele>126</ele>
        <time>2025-02-02T11:30:01Z</time>
      </trkpt>
      <trkpt lat="43.64442" lon="1.39966">
        <ele>126</ele>
        <time>2025-02-02T11:30:02Z</time>
      </trkpt>
      <trkpt lat="43.64438" lon="1.39965">
        <ele>126</ele>
        <time>2025-02-02T11:30:03Z</time>
      </trkpt>
      <trkpt lat="43.64437" lon="1.39965">
        <ele>123</ele>
        <time>2025-02-02T11:30:04Z</time>
      </trkpt>
      <trkpt lat="43.64434" lon="1.39965">
        <ele>126</ele>
        <time>2025-02-02T11:30:05Z</time>
      </trkpt>
      <trkpt lat="43.64432" lon="1.39965">
        <ele>126</ele>
        <time>2025-02-02T11:30:06Z</time>
      </trkpt>
      <trkpt lat="43.6443" lon="1.39964">
        <ele>126</ele>
        <time>2025-02-02T11:30:07Z</time>
      </trkpt>
      <trkpt lat="43.64427" lon="1.39964">
        <ele>126</ele>
        <time>2025-02-02T11:30:08Z</time>
      </trkpt>
      <trkpt lat="43.64424" lon="1.39964">
        <ele>126</ele>
        <time>2025-02-02T11:30:09Z</time>
      </trkpt>
      <trkpt lat="43.64421" lon="1.39965">
        <ele>126</ele>
        <time>2025-02-02T11:30:10Z</time>
      </trkpt>
      <trkpt lat="43.64419" lon="1.39965">
        <ele>126</ele>
        <time>2025-02-02T11:30:11Z</time>
      </trkpt>
      <trkpt lat="43.64416" lon="1.39965">
        <ele>126</ele>
        <time>2025-02-02T11:30:12Z</time>
      </trkpt>
      <trkpt lat="43.64413" lon="1.39965">
        <ele>126</ele>
        <time>2025-02-02T11:30:13Z</time>
      </trkpt>
      <trkpt lat="43.6441" lon="1.39965">
        <ele>126</ele>
        <time>2025-02-02T11:30:14Z</time>
      </trkpt>
      <trkpt lat="43.64408" lon="1.39965">
        <ele>126</ele>
        <time>2025-02-02T11:30:15Z</time>
      </trkpt>
      <trkpt lat="43.64405" lon="1.39965">
        <ele>127</ele>
        <time>2025-02-02T11:30:16Z</time>
      </trkpt>
      <trkpt lat="43.64403" lon="1.39965">
        <ele>127</ele>
        <time>2025-02-02T11:30:17Z</time>
      </trkpt>
      <trkpt lat="43.64398" lon="1.39964">
        <ele>127</ele>
        <time>2025-02-02T11:30:18Z</time>
      </trkpt>
      <trkpt lat="43.64397" lon="1.39964">
        <ele>127</ele>
        <time>2025-02-02T11:30:19Z</time>
      </trkpt>
      <trkpt lat="43.64394" lon="1.39964">
        <ele>127</ele>
        <time>2025-02-02T11:30:20Z</time>
      </trkpt>
      <trkpt lat="43.64391" lon="1.39963">
        <ele>127</ele>
        <time>2025-02-02T11:30:21Z</time>
      </trkpt>
      <trkpt lat="43.64387" lon="1.39963">
        <ele>127</ele>
        <time>2025-02-02T11:30:22Z</time>
      </trkpt>
      <trkpt lat="43.64386" lon="1.39963">
        <ele>127</ele>
        <time>2025-02-02T11:30:23Z</time>
      </trkpt>
      <trkpt lat="43.64383" lon="1.39962">
        <ele>127</ele>
        <time>2025-02-02T11:30:24Z</time>
      </trkpt>
      <trkpt lat="43.64381" lon="1.39962">
        <ele>127</ele>
        <time>2025-02-02T11:30:25Z</time>
      </trkpt>
      <trkpt lat="43.64378" lon="1.39961">
        <ele>127</ele>
        <time>2025-02-02T11:30:26Z</time>
      </trkpt>
      <trkpt lat="43.64376" lon="1.39961">
        <ele>127</ele>
        <time>2025-02-02T11:30:27Z</time>
      </trkpt>
      <trkpt lat="43.64374" lon="1.3996">
        <ele>127</ele>
        <time>2025-02-02T11:30:28Z</time>
      </trkpt>
      <trkpt lat="43.64372" lon="1.3996">
        <ele>127</ele>
        <time>2025-02-02T11:30:29Z</time>
      </trkpt>
      <trkpt lat="43.64369" lon="1.3996">
        <ele>127</ele>
        <time>2025-02-02T11:30:30Z</time>
      </trkpt>
      <trkpt lat="43.64367" lon="1.3996">
        <ele>127</ele>
        <time>2025-02-02T11:30:31Z</time>
      </trkpt>
      <trkpt lat="43.64364" lon="1.3996">
        <ele>127</ele>
        <time>2025-02-02T11:30:32Z</time>
      </trkpt>
      <trkpt lat="43.64361" lon="1.3996">
        <ele>127</ele>
        <time>2025-02-02T11:30:33Z</time>
      </trkpt>
      <trkpt lat="43.64358" lon="1.39959">
        <ele>127</ele>
        <time>2025-02-02T11:30:34Z</time>
      </trkpt>
      <trkpt lat="43.64355" lon="1.39958">
        <ele>127</ele>
        <time>2025-02-02T11:30:35Z</time>
      </trkpt>
      <trkpt lat="43.64352" lon="1.39958">
        <ele>127</ele>
        <time>2025-02-02T11:30:36Z</time>
      </trkpt>
      <trkpt lat="43.64348" lon="1.39956">
        <ele>127</ele>
        <time>2025-02-02T11:30:37Z</time>
      </trkpt>
      <trkpt lat="43.64347" lon="1.39956">
        <ele>127</ele>
        <time>2025-02-02T11:30:38Z</time>
      </trkpt>
      <trkpt lat="43.64345" lon="1.39955">
        <ele>127</ele>
        <time>2025-02-02T11:30:39Z</time>
      </trkpt>
      <trkpt lat="43.64342" lon="1.39955">
        <ele>127</ele>
        <time>2025-02-02T11:30:40Z</time>
      </trkpt>
      <trkpt lat="43.64338" lon="1.39954">
        <ele>127</ele>
        <time>2025-02-02T11:30:41Z</time>
      </trkpt>
      <trkpt lat="43.64336" lon="1.39953">
        <ele>127</ele>
        <time>2025-02-02T11:30:42Z</time>
      </trkpt>
      <trkpt lat="43.64333" lon="1.39952">
        <ele>127</ele>
        <time>2025-02-02T11:30:43Z</time>
      </trkpt>
      <trkpt lat="43.6433" lon="1.39952">
        <ele>127</ele>
        <time>2025-02-02T11:30:44Z</time>
      </trkpt>
      <trkpt lat="43.64327" lon="1.39951">
        <ele>127</ele>
        <time>2025-02-02T11:30:45Z</time>
      </trkpt>
      <trkpt lat="43.64325" lon="1.3995">
        <ele>127</ele>
        <time>2025-02-02T11:30:46Z</time>
      </trkpt>
      <trkpt lat="43.64322" lon="1.3995">
        <ele>127</ele>
        <time>2025-02-02T11:30:47Z</time>
      </trkpt>
      <trkpt lat="43.64319" lon="1.39949">
        <ele>127</ele>
        <time>2025-02-02T11:30:48Z</time>
      </trkpt>
      <trkpt lat="43.64317" lon="1.39947">
        <ele>127</ele>
        <time>2025-02-02T11:30:49Z</time>
      </trkpt>
      <trkpt lat="43.64314" lon="1.39946">
        <ele>128</ele>
        <time>2025-02-02T11:30:50Z</time>
      </trkpt>
      <trkpt lat="43.64312" lon="1.39945">
        <ele>128</ele>
        <time>2025-02-02T11:30:51Z</time>
      </trkpt>
      <trkpt lat="43.64309" lon="1.39945">
        <ele>128</ele>
        <time>2025-02-02T11:30:52Z</time>
      </trkpt>
      <trkpt lat="43.64306" lon="1.39944">
        <ele>128</ele>
        <time>2025-02-02T11:30:53Z</time>
      </trkpt>
      <trkpt lat="43.64303" lon="1.39943">
        <ele>128</ele>
        <time>2025-02-02T11:30:54Z</time>
      </trkpt>
      <trkpt lat="43.643" lon="1.39942">
        <ele>128</ele>
        <time>2025-02-02T11:30:55Z</time>
      </trkpt>
      <trkpt lat="43.64297" lon="1.3994">
        <ele>128</ele>
        <time>2025-02-02T11:30:56Z</time>
      </trkpt>
      <trkpt lat="43.64296" lon="1.3994">
        <ele>128</ele>
        <time>2025-02-02T11:30:57Z</time>
      </trkpt>
      <trkpt lat="43.64293" lon="1.39938">
        <ele>128</ele>
        <time>2025-02-02T11:30:58Z</time>
      </trkpt>
      <trkpt lat="43.6429" lon="1.39935">
        <ele>128</ele>
        <time>2025-02-02T11:30:59Z</time>
      </trkpt>
      <trkpt lat="43.64289" lon="1.39935">
        <ele>128</ele>
        <time>2025-02-02T11:31:00Z</time>
      </trkpt>
      <trkpt lat="43.64287" lon="1.39934">
        <ele>128</ele>
        <time>2025-02-02T11:31:01Z</time>
      </trkpt>
      <trkpt lat="43.64285" lon="1.39933">
        <ele>128</ele>
        <time>2025-02-02T11:31:02Z</time>
      </trkpt>
      <trkpt lat="43.64282" lon="1.39933">
        <ele>128</ele>
        <time>2025-02-02T11:31:03Z</time>
      </trkpt>
      <trkpt lat="43.6428" lon="1.39932">
        <ele>128</ele>
        <time>2025-02-02T11:31:04Z</time>
      </trkpt>
      <trkpt lat="43.64277" lon="1.39931">
        <ele>128</ele>
        <time>2025-02-02T11:31:05Z</time>
      </trkpt>
      <trkpt lat="43.64275" lon="1.3993">
        <ele>128</ele>
        <time>2025-02-02T11:31:06Z</time>
      </trkpt>
      <trkpt lat="43.64272" lon="1.3993">
        <ele>128</ele>
        <time>2025-02-02T11:31:07Z</time>
      </trkpt>
      <trkpt lat="43.6427" lon="1.3993">
        <ele>128</ele>
        <time>2025-02-02T11:31:08Z</time>
      </trkpt>
      <trkpt lat="43.64267" lon="1.3993">
        <ele>128</ele>
        <time>2025-02-02T11:31:09Z</time>
      </trkpt>
      <trkpt lat="43.64264" lon="1.39929">
        <ele>128</ele>
        <time>2025-02-02T11:31:10Z</time>
      </trkpt>
      <trkpt lat="43.64261" lon="1.39929">
        <ele>128</ele>
        <time>2025-02-02T11:31:11Z</time>
      </trkpt>
      <trkpt lat="43.64258" lon="1.39929">
        <ele>128</ele>
        <time>2025-02-02T11:31:12Z</time>
      </trkpt>
      <trkpt lat="43.64255" lon="1.39929">
        <ele>128</ele>
        <time>2025-02-02T11:31:13Z</time>
      </trkpt>
      <trkpt lat="43.64253" lon="1.39929">
        <ele>128</ele>
        <time>2025-02-02T11:31:14Z</time>
      </trkpt>
      <trkpt lat="43.64249" lon="1.39929">
        <ele>128</ele>
        <time>2025-02-02T11:31:15Z</time>
      </trkpt>
      <trkpt lat="43.64247" lon="1.39929">
        <ele>128</ele>
        <time>2025-02-02T11:31:16Z</time>
      </trkpt>
      <trkpt lat="43.64245" lon="1.39929">
        <ele>128</ele>
        <time>2025-02-02T11:31:17Z</time>
      </trkpt>
      <trkpt lat="43.64242" lon="1.3993">
        <ele>128</ele>
        <time>2025-02-02T11:31:18Z</time>
      </trkpt>
      <trkpt lat="43.6424" lon="1.39931">
        <ele>128</ele>
        <time>2025-02-02T11:31:19Z</time>
      </trkpt>
      <trkpt lat="43.64238" lon="1.39932">
        <ele>128</ele>
        <time>2025-02-02T11:31:20Z</time>
      </trkpt>
      <trkpt lat="43.64236" lon="1.39933">
        <ele>128</ele>
        <time>2025-02-02T11:31:21Z</time>
      </trkpt>
      <trkpt lat="43.64234" lon="1.39934">
        <ele>128</ele>
        <time>2025-02-02T11:31:22Z</time>
      </trkpt>
      <trkpt lat="43.64232" lon="1.39935">
        <ele>128</ele>
        <time>2025-02-02T11:31:23Z</time>
      </trkpt>
      <trkpt lat="43.6423" lon="1.39937">
        <ele>128</ele>
        <time>2025-02-02T11:31:24Z</time>
      </trkpt>
      <trkpt lat="43.64227" lon="1.39939">
        <ele>128</ele>
        <time>2025-02-02T11:31:25Z</time>
      </trkpt>
      <trkpt lat="43.64225" lon="1.39941">
        <ele>128</ele>
        <time>2025-02-02T11:31:26Z</time>
      </trkpt>
      <trkpt lat="43.64223" lon="1.39943">
        <ele>128</ele>
        <time>2025-02-02T11:31:27Z</time>
      </trkpt>
      <trkpt lat="43.64221" lon="1.39945">
        <ele>128</ele>
        <time>2025-02-02T11:31:28Z</time>
      </trkpt>
      <trkpt lat="43.64218" lon="1.39947">
        <ele>128</ele>
        <time>2025-02-02T11:31:29Z</time>
      </trkpt>
      <trkpt lat="43.64216" lon="1.3995">
        <ele>128</ele>
        <time>2025-02-02T11:31:30Z</time>
      </trkpt>
      <trkpt lat="43.64214" lon="1.39952">
        <ele>128</ele>
        <time>2025-02-02T11:31:31Z</time>
      </trkpt>
      <trkpt lat="43.64212" lon="1.39954">
        <ele>128</ele>
        <time>2025-02-02T11:31:32Z</time>
      </trkpt>
      <trkpt lat="43.6421" lon="1.39956">
        <ele>129</ele>
        <time>2025-02-02T11:31:33Z</time>
      </trkpt>
      <trkpt lat="43.64207" lon="1.3996">
        <ele>129</ele>
        <time>2025-02-02T11:31:34Z</time>
      </trkpt>
      <trkpt lat="43.64206" lon="1.39961">
        <ele>129</ele>
        <time>2025-02-02T11:31:35Z</time>
      </trkpt>
      <trkpt lat="43.64203" lon="1.39963">
        <ele>129</ele>
        <time>2025-02-02T11:31:36Z</time>
      </trkpt>
      <trkpt lat="43.642" lon="1.39966">
        <ele>129</ele>
        <time>2025-02-02T11:31:37Z</time>
      </trkpt>
      <trkpt lat="43.64199" lon="1.39967">
        <ele>128</ele>
        <time>2025-02-02T11:31:38Z</time>
      </trkpt>
      <trkpt lat="43.64197" lon="1.39968">
        <ele>128</ele>
        <time>2025-02-02T11:31:39Z</time>
      </trkpt>
      <trkpt lat="43.64195" lon="1.39969">
        <ele>128</ele>
        <time>2025-02-02T11:31:40Z</time>
      </trkpt>
      <trkpt lat="43.64192" lon="1.39971">
        <ele>128</ele>
        <time>2025-02-02T11:31:41Z</time>
      </trkpt>
      <trkpt lat="43.6419" lon="1.39972">
        <ele>128</ele>
        <time>2025-02-02T11:31:42Z</time>
      </trkpt>
      <trkpt lat="43.64187" lon="1.39973">
        <ele>128</ele>
        <time>2025-02-02T11:31:43Z</time>
      </trkpt>
      <trkpt lat="43.64185" lon="1.39974">
        <ele>128</ele>
        <time>2025-02-02T11:31:44Z</time>
      </trkpt>
      <trkpt lat="43.64181" lon="1.39974">
        <ele>128</ele>
        <time>2025-02-02T11:31:45Z</time>
      </trkpt>
      <trkpt lat="43.64179" lon="1.39974">
        <ele>128</ele>
        <time>2025-02-02T11:31:46Z</time>
      </trkpt>
      <trkpt lat="43.64177" lon="1.39975">
        <ele>128</ele>
        <time>2025-02-02T11:31:47Z</time>
      </trkpt>
      <trkpt lat="43.64174" lon="1.39976">
        <ele>128</ele>
        <time>2025-02-02T11:31:48Z</time>
      </trkpt>
      <trkpt lat="43.64172" lon="1.39976">
        <ele>128</ele>
        <time>2025-02-02T11:31:49Z</time>
      </trkpt>
      <trkpt lat="43.64169" lon="1.39978">
        <ele>128</ele>
        <time>2025-02-02T11:31:50Z</time>
      </trkpt>
      <trkpt lat="43.64167" lon="1.39979">
        <ele>128</ele>
        <time>2025-02-02T11:31:51Z</time>
      </trkpt>
      <trkpt lat="43.64164" lon="1.3998">
        <ele>128</ele>
        <time>2025-02-02T11:31:52Z</time>
      </trkpt>
      <trkpt lat="43.6416" lon="1.39983">
        <ele>128</ele>
        <time>2025-02-02T11:31:53Z</time>
      </trkpt>
      <trkpt lat="43.64159" lon="1.39984">
        <ele>128</ele>
        <time>2025-02-02T11:31:54Z</time>
      </trkpt>
      <trkpt lat="43.64157" lon="1.39987">
        <ele>128</ele>
        <time>2025-02-02T11:31:55Z</time>
      </trkpt>
      <trkpt lat="43.64155" lon="1.39991">
        <ele>128</ele>
        <time>2025-02-02T11:31:56Z</time>
      </trkpt>
      <trkpt lat="43.64155" lon="1.39993">
        <ele>128</ele>
        <time>2025-02-02T11:31:57Z</time>
      </trkpt>
      <trkpt lat="43.64154" lon="1.39996">
        <ele>128</ele>
        <time>2025-02-02T11:31:58Z</time>
      </trkpt>
      <trkpt lat="43.64154" lon="1.4">
        <ele>128</ele>
        <time>2025-02-02T11:31:59Z</time>
      </trkpt>
      <trkpt lat="43.64154" lon="1.40004">
        <ele>128</ele>
        <time>2025-02-02T11:32:00Z</time>
      </trkpt>
      <trkpt lat="43.64154" lon="1.40008">
        <ele>128</ele>
        <time>2025-02-02T11:32:01Z</time>
      </trkpt>
      <trkpt lat="43.64154" lon="1.40012">
        <ele>128</ele>
        <time>2025-02-02T11:32:02Z</time>
      </trkpt>
      <trkpt lat="43.64154" lon="1.40016">
        <ele>128</ele>
        <time>2025-02-02T11:32:03Z</time>
      </trkpt>
      <trkpt lat="43.64153" lon="1.4002">
        <ele>128</ele>
        <time>2025-02-02T11:32:04Z</time>
      </trkpt>
      <trkpt lat="43.64153" lon="1.40024">
        <ele>128</ele>
        <time>2025-02-02T11:32:05Z</time>
      </trkpt>
      <trkpt lat="43.64153" lon="1.40028">
        <ele>128</ele>
        <time>2025-02-02T11:32:06Z</time>
      </trkpt>
      <trkpt lat="43.64152" lon="1.40032">
        <ele>128</ele>
        <time>2025-02-02T11:32:07Z</time>
      </trkpt>
      <trkpt lat="43.64152" lon="1.40036">
        <ele>128</ele>
        <time>2025-02-02T11:32:08Z</time>
      </trkpt>
      <trkpt lat="43.64152" lon="1.40039">
        <ele>128</ele>
        <time>2025-02-02T11:32:09Z</time>
      </trkpt>
      <trkpt lat="43.64152" lon="1.40043">
        <ele>128</ele>
        <time>2025-02-02T11:32:10Z</time>
      </trkpt>
      <trkpt lat="43.64151" lon="1.40046">
        <ele>128</ele>
        <time>2025-02-02T11:32:11Z</time>
      </trkpt>
      <trkpt lat="43.6415" lon="1.40052">
        <ele>128</ele>
        <time>2025-02-02T11:32:12Z</time>
      </trkpt>
      <trkpt lat="43.6415" lon="1.40054">
        <ele>128</ele>
        <time>2025-02-02T11:32:13Z</time>
      </trkpt>
      <trkpt lat="43.64149" lon="1.4006">
        <ele>128</ele>
        <time>2025-02-02T11:32:14Z</time>
      </trkpt>
      <trkpt lat="43.64149" lon="1.40061">
        <ele>128</ele>
        <time>2025-02-02T11:32:15Z</time>
      </trkpt>
      <trkpt lat="43.64149" lon="1.40065">
        <ele>128</ele>
        <time>2025-02-02T11:32:16Z</time>
      </trkpt>
      <trkpt lat="43.64149" lon="1.40068">
        <ele>128</ele>
        <time>2025-02-02T11:32:17Z</time>
      </trkpt>
      <trkpt lat="43.64148" lon="1.40072">
        <ele>128</ele>
        <time>2025-02-02T11:32:18Z</time>
      </trkpt>
      <trkpt lat="43.64148" lon="1.40076">
        <ele>128</ele>
        <time>2025-02-02T11:32:19Z</time>
      </trkpt>
      <trkpt lat="43.64148" lon="1.40079">
        <ele>127</ele>
        <time>2025-02-02T11:32:20Z</time>
      </trkpt>
      <trkpt lat="43.64148" lon="1.40083">
        <ele>127</ele>
        <time>2025-02-02T11:32:21Z</time>
      </trkpt>
      <trkpt lat="43.64149" lon="1.40086">
        <ele>127</ele>
        <time>2025-02-02T11:32:22Z</time>
      </trkpt>
      <trkpt lat="43.64149" lon="1.4009">
        <ele>127</ele>
        <time>2025-02-02T11:32:23Z</time>
      </trkpt>
      <trkpt lat="43.6415" lon="1.40093">
        <ele>127</ele>
        <time>2025-02-02T11:32:24Z</time>
      </trkpt>
      <trkpt lat="43.6415" lon="1.40097">
        <ele>127</ele>
        <time>2025-02-02T11:32:25Z</time>
      </trkpt>
      <trkpt lat="43.6415" lon="1.401">
        <ele>127</ele>
        <time>2025-02-02T11:32:26Z</time>
      </trkpt>
      <trkpt lat="43.6415" lon="1.40104">
        <ele>128</ele>
        <time>2025-02-02T11:32:27Z</time>
      </trkpt>
      <trkpt lat="43.64151" lon="1.40107">
        <ele>128</ele>
        <time>2025-02-02T11:32:28Z</time>
      </trkpt>
      <trkpt lat="43.64151" lon="1.40111">
        <ele>128</ele>
        <time>2025-02-02T11:32:29Z</time>
      </trkpt>
      <trkpt lat="43.64151" lon="1.40115">
        <ele>128</ele>
        <time>2025-02-02T11:32:30Z</time>
      </trkpt>
      <trkpt lat="43.64151" lon="1.40121">
        <ele>128</ele>
        <time>2025-02-02T11:32:31Z</time>
      </trkpt>
      <trkpt lat="43.64151" lon="1.40123">
        <ele>128</ele>
        <time>2025-02-02T11:32:32Z</time>
      </trkpt>
      <trkpt lat="43.64149" lon="1.40128">
        <ele>128</ele>
        <time>2025-02-02T11:32:33Z</time>
      </trkpt>
      <trkpt lat="43.64149" lon="1.4013">
        <ele>128</ele>
        <time>2025-02-02T11:32:34Z</time>
      </trkpt>
      <trkpt lat="43.64147" lon="1.40134">
        <ele>128</ele>
        <time>2025-02-02T11:32:35Z</time>
      </trkpt>
      <trkpt lat="43.64145" lon="1.40136">
        <ele>127</ele>
        <time>2025-02-02T11:32:36Z</time>
      </trkpt>
      <trkpt lat="43.64143" lon="1.40139">
        <ele>127</ele>
        <time>2025-02-02T11:32:37Z</time>
      </trkpt>
      <trkpt lat="43.64141" lon="1.40141">
        <ele>123</ele>
        <time>2025-02-02T11:32:38Z</time>
      </trkpt>
      <trkpt lat="43.64139" lon="1.40143">
        <ele>123</ele>
        <time>2025-02-02T11:32:39Z</time>
      </trkpt>
      <trkpt lat="43.64137" lon="1.40144">
        <ele>123</ele>
        <time>2025-02-02T11:32:40Z</time>
      </trkpt>
      <trkpt lat="43.64135" lon="1.40146">
        <ele>123</ele>
        <time>2025-02-02T11:32:41Z</time>
      </trkpt>
      <trkpt lat="43.64133" lon="1.40147">
        <ele>123</ele>
        <time>2025-02-02T11:32:42Z</time>
      </trkpt>
      <trkpt lat="43.64131" lon="1.40149">
        <ele>123</ele>
        <time>2025-02-02T11:32:43Z</time>
      </trkpt>
      <trkpt lat="43.64128" lon="1.40151">
        <ele>123</ele>
        <time>2025-02-02T11:32:44Z</time>
      </trkpt>
      <trkpt lat="43.64125" lon="1.40153">
        <ele>123</ele>
        <time>2025-02-02T11:32:45Z</time>
      </trkpt>
      <trkpt lat="43.64123" lon="1.40154">
        <ele>123</ele>
        <time>2025-02-02T11:32:46Z</time>
      </trkpt>
      <trkpt lat="43.6412" lon="1.40157">
        <ele>123</ele>
        <time>2025-02-02T11:32:47Z</time>
      </trkpt>
      <trkpt lat="43.64117" lon="1.40159">
        <ele>123</ele>
        <time>2025-02-02T11:32:48Z</time>
      </trkpt>
      <trkpt lat="43.64115" lon="1.40161">
        <ele>123</ele>
        <time>2025-02-02T11:32:49Z</time>
      </trkpt>
      <trkpt lat="43.64112" lon="1.40161">
        <ele>123</ele>
        <time>2025-02-02T11:32:50Z</time>
      </trkpt>
      <trkpt lat="43.64109" lon="1.40163">
        <ele>123</ele>
        <time>2025-02-02T11:32:51Z</time>
      </trkpt>
      <trkpt lat="43.64107" lon="1.40164">
        <ele>124</ele>
        <time>2025-02-02T11:32:52Z</time>
      </trkpt>
      <trkpt lat="43.64105" lon="1.40166">
        <ele>124</ele>
        <time>2025-02-02T11:32:53Z</time>
      </trkpt>
      <trkpt lat="43.64102" lon="1.40168">
        <ele>124</ele>
        <time>2025-02-02T11:32:54Z</time>
      </trkpt>
      <trkpt lat="43.641" lon="1.40171">
        <ele>124</ele>
        <time>2025-02-02T11:32:55Z</time>
      </trkpt>
      <trkpt lat="43.64097" lon="1.40173">
        <ele>124</ele>
        <time>2025-02-02T11:32:56Z</time>
      </trkpt>
      <trkpt lat="43.64095" lon="1.40174">
        <ele>124</ele>
        <time>2025-02-02T11:32:57Z</time>
      </trkpt>
      <trkpt lat="43.64093" lon="1.40176">
        <ele>124</ele>
        <time>2025-02-02T11:32:58Z</time>
      </trkpt>
      <trkpt lat="43.6409" lon="1.40178">
        <ele>124</ele>
        <time>2025-02-02T11:32:59Z</time>
      </trkpt>
      <trkpt lat="43.64088" lon="1.40181">
        <ele>124</ele>
        <time>2025-02-02T11:33:00Z</time>
      </trkpt>
      <trkpt lat="43.64086" lon="1.40183">
        <ele>124</ele>
        <time>2025-02-02T11:33:01Z</time>
      </trkpt>
      <trkpt lat="43.64084" lon="1.40185">
        <ele>124</ele>
        <time>2025-02-02T11:33:02Z</time>
      </trkpt>
      <trkpt lat="43.64082" lon="1.40186">
        <ele>124</ele>
        <time>2025-02-02T11:33:03Z</time>
      </trkpt>
      <trkpt lat="43.64079" lon="1.40187">
        <ele>124</ele>
        <time>2025-02-02T11:33:04Z</time>
      </trkpt>
      <trkpt lat="43.64077" lon="1.40188">
        <ele>124</ele>
        <time>2025-02-02T11:33:05Z</time>
      </trkpt>
      <trkpt lat="43.64075" lon="1.40188">
        <ele>124</ele>
        <time>2025-02-02T11:33:06Z</time>
      </trkpt>
      <trkpt lat="43.64073" lon="1.40189">
        <ele>124</ele>
        <time>2025-02-02T11:33:07Z</time>
      </trkpt>
      <trkpt lat="43.6407" lon="1.4019">
        <ele>124</ele>
        <time>2025-02-02T11:33:08Z</time>
      </trkpt>
      <trkpt lat="43.64066" lon="1.4019">
        <ele>124</ele>
        <time>2025-02-02T11:33:10Z</time>
      </trkpt>
      <trkpt lat="43.64063" lon="1.40191">
        <ele>124</ele>
        <time>2025-02-02T11:33:11Z</time>
      </trkpt>
      <trkpt lat="43.64059" lon="1.40191">
        <ele>124</ele>
        <time>2025-02-02T11:33:12Z</time>
      </trkpt>
      <trkpt lat="43.64056" lon="1.40192">
        <ele>124</ele>
        <time>2025-02-02T11:33:13Z</time>
      </trkpt>
      <trkpt lat="43.64053" lon="1.40192">
        <ele>124</ele>
        <time>2025-02-02T11:33:14Z</time>
      </trkpt>
      <trkpt lat="43.64046" lon="1.40192">
        <ele>124</ele>
        <time>2025-02-02T11:33:15Z</time>
      </trkpt>
      <trkpt lat="43.64044" lon="1.40191">
        <ele>124</ele>
        <time>2025-02-02T11:33:16Z</time>
      </trkpt>
      <trkpt lat="43.64041" lon="1.4019">
        <ele>124</ele>
        <time>2025-02-02T11:33:17Z</time>
      </trkpt>
      <trkpt lat="43.64038" lon="1.40189">
        <ele>124</ele>
        <time>2025-02-02T11:33:18Z</time>
      </trkpt>
      <trkpt lat="43.64034" lon="1.40188">
        <ele>128</ele>
        <time>2025-02-02T11:33:19Z</time>
      </trkpt>
      <trkpt lat="43.64031" lon="1.40187">
        <ele>128</ele>
        <time>2025-02-02T11:33:20Z</time>
      </trkpt>
      <trkpt lat="43.64028" lon="1.40186">
        <ele>128</ele>
        <time>2025-02-02T11:33:21Z</time>
      </trkpt>
      <trkpt lat="43.64026" lon="1.40186">
        <ele>128</ele>
        <time>2025-02-02T11:33:22Z</time>
      </trkpt>
      <trkpt lat="43.64024" lon="1.40185">
        <ele>128</ele>
        <time>2025-02-02T11:33:23Z</time>
      </trkpt>
      <trkpt lat="43.64022" lon="1.40186">
        <ele>128</ele>
        <time>2025-02-02T11:33:24Z</time>
      </trkpt>
      <trkpt lat="43.6402" lon="1.40187">
        <ele>128</ele>
        <time>2025-02-02T11:33:25Z</time>
      </trkpt>
      <trkpt lat="43.64019" lon="1.40189">
        <ele>128</ele>
        <time>2025-02-02T11:33:26Z</time>
      </trkpt>
      <trkpt lat="43.64017" lon="1.40191">
        <ele>128</ele>
        <time>2025-02-02T11:33:27Z</time>
      </trkpt>
      <trkpt lat="43.64016" lon="1.40193">
        <ele>128</ele>
        <time>2025-02-02T11:33:28Z</time>
      </trkpt>
      <trkpt lat="43.64015" lon="1.40195">
        <ele>128</ele>
        <time>2025-02-02T11:33:29Z</time>
      </trkpt>
      <trkpt lat="43.64013" lon="1.40197">
        <ele>128</ele>
        <time>2025-02-02T11:33:30Z</time>
      </trkpt>
      <trkpt lat="43.64012" lon="1.402">
        <ele>128</ele>
        <time>2025-02-02T11:33:31Z</time>
      </trkpt>
      <trkpt lat="43.6401" lon="1.40202">
        <ele>128</ele>
        <time>2025-02-02T11:33:32Z</time>
      </trkpt>
      <trkpt lat="43.64008" lon="1.40203">
        <ele>124</ele>
        <time>2025-02-02T11:33:33Z</time>
      </trkpt>
      <trkpt lat="43.64006" lon="1.40204">
        <ele>124</ele>
        <time>2025-02-02T11:33:34Z</time>
      </trkpt>
      <trkpt lat="43.64003" lon="1.40206">
        <ele>128</ele>
        <time>2025-02-02T11:33:35Z</time>
      </trkpt>
      <trkpt lat="43.64001" lon="1.40207">
        <ele>128</ele>
        <time>2025-02-02T11:33:36Z</time>
      </trkpt>
      <trkpt lat="43.63999" lon="1.40209">
        <ele>124</ele>
        <time>2025-02-02T11:33:37Z</time>
      </trkpt>
      <trkpt lat="43.63997" lon="1.40211">
        <ele>128</ele>
        <time>2025-02-02T11:33:38Z</time>
      </trkpt>
      <trkpt lat="43.63995" lon="1.40213">
        <ele>128</ele>
        <time>2025-02-02T11:33:39Z</time>
      </trkpt>
      <trkpt lat="43.63993" lon="1.40215">
        <ele>128</ele>
        <time>2025-02-02T11:33:40Z</time>
      </trkpt>
      <trkpt lat="43.63991" lon="1.40217">
        <ele>128</ele>
        <time>2025-02-02T11:33:41Z</time>
      </trkpt>
      <trkpt lat="43.63989" lon="1.40218">
        <ele>124</ele>
        <time>2025-02-02T11:33:42Z</time>
      </trkpt>
      <trkpt lat="43.63987" lon="1.4022">
        <ele>128</ele>
        <time>2025-02-02T11:33:43Z</time>
      </trkpt>
      <trkpt lat="43.63984" lon="1.40222">
        <ele>128</ele>
        <time>2025-02-02T11:33:44Z</time>
      </trkpt>
      <trkpt lat="43.63982" lon="1.40223">
        <ele>124</ele>
        <time>2025-02-02T11:33:45Z</time>
      </trkpt>
      <trkpt lat="43.63979" lon="1.40225">
        <ele>124</ele>
        <time>2025-02-02T11:33:46Z</time>
      </trkpt>
      <trkpt lat="43.63977" lon="1.40227">
        <ele>124</ele>
        <time>2025-02-02T11:33:47Z</time>
      </trkpt>
      <trkpt lat="43.63974" lon="1.40228">
        <ele>124</ele>
        <time>2025-02-02T11:33:48Z</time>
      </trkpt>
      <trkpt lat="43.63972" lon="1.4023">
        <ele>124</ele>
        <time>2025-02-02T11:33:49Z</time>
      </trkpt>
      <trkpt lat="43.63969" lon="1.40231">
        <ele>124</ele>
        <time>2025-02-02T11:33:50Z</time>
      </trkpt>
      <trkpt lat="43.63967" lon="1.40233">
        <ele>123</ele>
        <time>2025-02-02T11:33:51Z</time>
      </trkpt>
      <trkpt lat="43.63965" lon="1.40234">
        <ele>124</ele>
        <time>2025-02-02T11:33:52Z</time>
      </trkpt>
      <trkpt lat="43.63963" lon="1.40235">
        <ele>124</ele>
        <time>2025-02-02T11:33:53Z</time>
      </trkpt>
      <trkpt lat="43.6396" lon="1.40237">
        <ele>124</ele>
        <time>2025-02-02T11:33:54Z</time>
      </trkpt>
      <trkpt lat="43.63958" lon="1.40237">
        <ele>124</ele>
        <time>2025-02-02T11:33:55Z</time>
      </trkpt>
      <trkpt lat="43.63955" lon="1.40237">
        <ele>124</ele>
        <time>2025-02-02T11:33:56Z</time>
      </trkpt>
      <trkpt lat="43.63953" lon="1.40238">
        <ele>124</ele>
        <time>2025-02-02T11:33:57Z</time>
      </trkpt>
      <trkpt lat="43.6395" lon="1.40238">
        <ele>124</ele>
        <time>2025-02-02T11:33:58Z</time>
      </trkpt>
      <trkpt lat="43.63948" lon="1.40239">
        <ele>124</ele>
        <time>2025-02-02T11:33:59Z</time>
      </trkpt>
      <trkpt lat="43.63945" lon="1.4024">
        <ele>124</ele>
        <time>2025-02-02T11:34:00Z</time>
      </trkpt>
      <trkpt lat="43.63943" lon="1.40241">
        <ele>124</ele>
        <time>2025-02-02T11:34:01Z</time>
      </trkpt>
      <trkpt lat="43.6394" lon="1.40242">
        <ele>124</ele>
        <time>2025-02-02T11:34:02Z</time>
      </trkpt>
      <trkpt lat="43.63937" lon="1.40243">
        <ele>124</ele>
        <time>2025-02-02T11:34:03Z</time>
      </trkpt>
      <trkpt lat="43.63935" lon="1.40243">
        <ele>124</ele>
        <time>2025-02-02T11:34:04Z</time>
      </trkpt>
      <trkpt lat="43.63932" lon="1.40243">
        <ele>124</ele>
        <time>2025-02-02T11:34:05Z</time>
      </trkpt>
      <trkpt lat="43.6393" lon="1.40243">
        <ele>124</ele>
        <time>2025-02-02T11:34:06Z</time>
      </trkpt>
      <trkpt lat="43.6393" lon="1.40243">
        <ele>124</ele>
        <time>2025-02-02T11:34:07Z</time>
      </trkpt>
      <trkpt lat="43.63925" lon="1.40245">
        <ele>124</ele>
        <time>2025-02-02T11:34:08Z</time>
      </trkpt>
      <trkpt lat="43.63924" lon="1.40245">
        <ele>124</ele>
        <time>2025-02-02T11:34:09Z</time>
      </trkpt>
      <trkpt lat="43.63922" lon="1.40247">
        <ele>124</ele>
        <time>2025-02-02T11:34:10Z</time>
      </trkpt>
      <trkpt lat="43.6392" lon="1.40249">
        <ele>124</ele>
        <time>2025-02-02T11:34:11Z</time>
      </trkpt>
      <trkpt lat="43.63917" lon="1.40251">
        <ele>124</ele>
        <time>2025-02-02T11:34:12Z</time>
      </trkpt>
      <trkpt lat="43.63915" lon="1.40252">
        <ele>124</ele>
        <time>2025-02-02T11:34:13Z</time>
      </trkpt>
      <trkpt lat="43.63912" lon="1.40254">
        <ele>124</ele>
        <time>2025-02-02T11:34:14Z</time>
      </trkpt>
      <trkpt lat="43.63907" lon="1.40257">
        <ele>124</ele>
        <time>2025-02-02T11:34:15Z</time>
      </trkpt>
      <trkpt lat="43.63907" lon="1.40257">
        <ele>124</ele>
        <time>2025-02-02T11:34:16Z</time>
      </trkpt>
      <trkpt lat="43.63904" lon="1.40258">
        <ele>124</ele>
        <time>2025-02-02T11:34:17Z</time>
      </trkpt>
      <trkpt lat="43.63902" lon="1.40259">
        <ele>124</ele>
        <time>2025-02-02T11:34:18Z</time>
      </trkpt>
      <trkpt lat="43.63899" lon="1.40259">
        <ele>124</ele>
        <time>2025-02-02T11:34:19Z</time>
      </trkpt>
      <trkpt lat="43.63896" lon="1.40259">
        <ele>124</ele>
        <time>2025-02-02T11:34:20Z</time>
      </trkpt>
      <trkpt lat="43.63894" lon="1.40259">
        <ele>124</ele>
        <time>2025-02-02T11:34:21Z</time>
      </trkpt>
      <trkpt lat="43.63891" lon="1.4026">
        <ele>124</ele>
        <time>2025-02-02T11:34:22Z</time>
      </trkpt>
      <trkpt lat="43.63889" lon="1.4026">
        <ele>124</ele>
        <time>2025-02-02T11:34:23Z</time>
      </trkpt>
      <trkpt lat="43.63887" lon="1.4026">
        <ele>124</ele>
        <time>2025-02-02T11:34:24Z</time>
      </trkpt>
      <trkpt lat="43.63884" lon="1.40261">
        <ele>124</ele>
        <time>2025-02-02T11:34:25Z</time>
      </trkpt>
      <trkpt lat="43.63882" lon="1.40261">
        <ele>124</ele>
        <time>2025-02-02T11:34:26Z</time>
      </trkpt>
      <trkpt lat="43.63879" lon="1.40262">
        <ele>124</ele>
        <time>2025-02-02T11:34:27Z</time>
      </trkpt>
      <trkpt lat="43.63878" lon="1.40262">
        <ele>124</ele>
        <time>2025-02-02T11:34:28Z</time>
      </trkpt>
      <trkpt lat="43.63875" lon="1.40263">
        <ele>124</ele>
        <time>2025-02-02T11:34:29Z</time>
      </trkpt>
      <trkpt lat="43.63872" lon="1.40263">
        <ele>124</ele>
        <time>2025-02-02T11:34:30Z</time>
      </trkpt>
      <trkpt lat="43.63869" lon="1.40265">
        <ele>124</ele>
        <time>2025-02-02T11:34:31Z</time>
      </trkpt>
      <trkpt lat="43.63865" lon="1.40266">
        <ele>124</ele>
        <time>2025-02-02T11:34:32Z</time>
      </trkpt>
      <trkpt lat="43.63862" lon="1.40268">
        <ele>124</ele>
        <time>2025-02-02T11:34:33Z</time>
      </trkpt>
      <trkpt lat="43.63859" lon="1.40269">
        <ele>124</ele>
        <time>2025-02-02T11:34:34Z</time>
      </trkpt>
      <trkpt lat="43.63856" lon="1.40271">
        <ele>124</ele>
        <time>2025-02-02T11:34:35Z</time>
      </trkpt>
      <trkpt lat="43.63853" lon="1.40273">
        <ele>124</ele>
        <time>2025-02-02T11:34:36Z</time>
      </trkpt>
      <trkpt lat="43.63851" lon="1.40274">
        <ele>124</ele>
        <time>2025-02-02T11:34:37Z</time>
      </trkpt>
      <trkpt lat="43.63848" lon="1.40275">
        <ele>124</ele>
        <time>2025-02-02T11:34:38Z</time>
      </trkpt>
      <trkpt lat="43.63845" lon="1.40276">
        <ele>124</ele>
        <time>2025-02-02T11:34:39Z</time>
      </trkpt>
      <trkpt lat="43.63842" lon="1.40277">
        <ele>124</ele>
        <time>2025-02-02T11:34:40Z</time>
      </trkpt>
      <trkpt lat="43.6384" lon="1.40278">
        <ele>124</ele>
        <time>2025-02-02T11:34:41Z</time>
      </trkpt>
      <trkpt lat="43.63837" lon="1.40278">
        <ele>124</ele>
        <time>2025-02-02T11:34:42Z</time>
      </trkpt>
      <trkpt lat="43.63835" lon="1.40279">
        <ele>124</ele>
        <time>2025-02-02T11:34:43Z</time>
      </trkpt>
      <trkpt lat="43.63832" lon="1.40279">
        <ele>124</ele>
        <time>2025-02-02T11:34:44Z</time>
      </trkpt>
      <trkpt lat="43.6383" lon="1.4028">
        <ele>124</ele>
        <time>2025-02-02T11:34:45Z</time>
      </trkpt>
      <trkpt lat="43.63828" lon="1.40281">
        <ele>124</ele>
        <time>2025-02-02T11:34:46Z</time>
      </trkpt>
      <trkpt lat="43.63825" lon="1.40281">
        <ele>128</ele>
        <time>2025-02-02T11:34:47Z</time>
      </trkpt>
      <trkpt lat="43.63822" lon="1.40282">
        <ele>128</ele>
        <time>2025-02-02T11:34:48Z</time>
      </trkpt>
      <trkpt lat="43.63819" lon="1.40282">
        <ele>128</ele>
        <time>2025-02-02T11:34:49Z</time>
      </trkpt>
      <trkpt lat="43.63817" lon="1.40281">
        <ele>128</ele>
        <time>2025-02-02T11:34:50Z</time>
      </trkpt>
      <trkpt lat="43.63814" lon="1.40281">
        <ele>128</ele>
        <time>2025-02-02T11:34:51Z</time>
      </trkpt>
      <trkpt lat="43.63811" lon="1.40281">
        <ele>128</ele>
        <time>2025-02-02T11:34:52Z</time>
      </trkpt>
      <trkpt lat="43.63808" lon="1.40281">
        <ele>128</ele>
        <time>2025-02-02T11:34:53Z</time>
      </trkpt>
      <trkpt lat="43.63805" lon="1.40281">
        <ele>128</ele>
        <time>2025-02-02T11:34:54Z</time>
      </trkpt>
      <trkpt lat="43.63802" lon="1.40281">
        <ele>128</ele>
        <time>2025-02-02T11:34:55Z</time>
      </trkpt>
      <trkpt lat="43.638" lon="1.40281">
        <ele>128</ele>
        <time>2025-02-02T11:34:56Z</time>
      </trkpt>
      <trkpt lat="43.63797" lon="1.40282">
        <ele>128</ele>
        <time>2025-02-02T11:34:57Z</time>
      </trkpt>
      <trkpt lat="43.63794" lon="1.40282">
        <ele>128</ele>
        <time>2025-02-02T11:34:58Z</time>
      </trkpt>
      <trkpt lat="43.63792" lon="1.40282">
        <ele>128</ele>
        <time>2025-02-02T11:34:59Z</time>
      </trkpt>
      <trkpt lat="43.6379" lon="1.40283">
        <ele>128</ele>
        <time>2025-02-02T11:35:00Z</time>
      </trkpt>
      <trkpt lat="43.63787" lon="1.40283">
        <ele>128</ele>
        <time>2025-02-02T11:35:01Z</time>
      </trkpt>
      <trkpt lat="43.63784" lon="1.40283">
        <ele>128</ele>
        <time>2025-02-02T11:35:02Z</time>
      </trkpt>
      <trkpt lat="43.6378" lon="1.40283">
        <ele>128</ele>
        <time>2025-02-02T11:35:03Z</time>
      </trkpt>
      <trkpt lat="43.63779" lon="1.40282">
        <ele>128</ele>
        <time>2025-02-02T11:35:04Z</time>
      </trkpt>
      <trkpt lat="43.63776" lon="1.40282">
        <ele>128</ele>
        <time>2025-02-02T11:35:05Z</time>
      </trkpt>
      <trkpt lat="43.63774" lon="1.40282">
        <ele>128</ele>
        <time>2025-02-02T11:35:06Z</time>
      </trkpt>
      <trkpt lat="43.63772" lon="1.40282">
        <ele>128</ele>
        <time>2025-02-02T11:35:07Z</time>
      </trkpt>
      <trkpt lat="43.63769" lon="1.40282">
        <ele>128</ele>
        <time>2025-02-02T11:35:08Z</time>
      </trkpt>
      <trkpt lat="43.63767" lon="1.40283">
        <ele>129</ele>
        <time>2025-02-02T11:35:09Z</time>
      </trkpt>
      <trkpt lat="43.63764" lon="1.40285">
        <ele>129</ele>
        <time>2025-02-02T11:35:10Z</time>
      </trkpt>
      <trkpt lat="43.63761" lon="1.40285">
        <ele>129</ele>
        <time>2025-02-02T11:35:11Z</time>
      </trkpt>
      <trkpt lat="43.63759" lon="1.40285">
        <ele>129</ele>
        <time>2025-02-02T11:35:12Z</time>
      </trkpt>
      <trkpt lat="43.63756" lon="1.40284">
        <ele>129</ele>
        <time>2025-02-02T11:35:13Z</time>
      </trkpt>
      <trkpt lat="43.63754" lon="1.40285">
        <ele>129</ele>
        <time>2025-02-02T11:35:14Z</time>
      </trkpt>
      <trkpt lat="43.63752" lon="1.40286">
        <ele>129</ele>
        <time>2025-02-02T11:35:15Z</time>
      </trkpt>
      <trkpt lat="43.6375" lon="1.40286">
        <ele>129</ele>
        <time>2025-02-02T11:35:16Z</time>
      </trkpt>
      <trkpt lat="43.63748" lon="1.40287">
        <ele>129</ele>
        <time>2025-02-02T11:35:17Z</time>
      </trkpt>
      <trkpt lat="43.63745" lon="1.40287">
        <ele>129</ele>
        <time>2025-02-02T11:35:18Z</time>
      </trkpt>
      <trkpt lat="43.63743" lon="1.40288">
        <ele>129</ele>
        <time>2025-02-02T11:35:19Z</time>
      </trkpt>
      <trkpt lat="43.63741" lon="1.40289">
        <ele>129</ele>
        <time>2025-02-02T11:35:20Z</time>
      </trkpt>
      <trkpt lat="43.63738" lon="1.40289">
        <ele>129</ele>
        <time>2025-02-02T11:35:21Z</time>
      </trkpt>
      <trkpt lat="43.63735" lon="1.4029">
        <ele>129</ele>
        <time>2025-02-02T11:35:22Z</time>
      </trkpt>
      <trkpt lat="43.63732" lon="1.40289">
        <ele>129</ele>
        <time>2025-02-02T11:35:23Z</time>
      </trkpt>
      <trkpt lat="43.63729" lon="1.40288">
        <ele>128</ele>
        <time>2025-02-02T11:35:24Z</time>
      </trkpt>
      <trkpt lat="43.63726" lon="1.40289">
        <ele>128</ele>
        <time>2025-02-02T11:35:25Z</time>
      </trkpt>
      <trkpt lat="43.63724" lon="1.40288">
        <ele>128</ele>
        <time>2025-02-02T11:35:26Z</time>
      </trkpt>
      <trkpt lat="43.63721" lon="1.40288">
        <ele>128</ele>
        <time>2025-02-02T11:35:27Z</time>
      </trkpt>
      <trkpt lat="43.63719" lon="1.40289">
        <ele>128</ele>
        <time>2025-02-02T11:35:28Z</time>
      </trkpt>
      <trkpt lat="43.63717" lon="1.40289">
        <ele>128</ele>
        <time>2025-02-02T11:35:29Z</time>
      </trkpt>
      <trkpt lat="43.63714" lon="1.4029">
        <ele>128</ele>
        <time>2025-02-02T11:35:30Z</time>
      </trkpt>
      <trkpt lat="43.63712" lon="1.40291">
        <ele>128</ele>
        <time>2025-02-02T11:35:31Z</time>
      </trkpt>
      <trkpt lat="43.63709" lon="1.40292">
        <ele>128</ele>
        <time>2025-02-02T11:35:32Z</time>
      </trkpt>
      <trkpt lat="43.63707" lon="1.40293">
        <ele>128</ele>
        <time>2025-02-02T11:35:33Z</time>
      </trkpt>
      <trkpt lat="43.63704" lon="1.40294">
        <ele>128</ele>
        <time>2025-02-02T11:35:34Z</time>
      </trkpt>
      <trkpt lat="43.63702" lon="1.40295">
        <ele>124</ele>
        <time>2025-02-02T11:35:35Z</time>
      </trkpt>
      <trkpt lat="43.63699" lon="1.40296">
        <ele>124</ele>
        <time>2025-02-02T11:35:36Z</time>
      </trkpt>
      <trkpt lat="43.63696" lon="1.40297">
        <ele>124</ele>
        <time>2025-02-02T11:35:37Z</time>
      </trkpt>
      <trkpt lat="43.63692" lon="1.40296">
        <ele>124</ele>
        <time>2025-02-02T11:35:38Z</time>
      </trkpt>
      <trkpt lat="43.63689" lon="1.40296">
        <ele>124</ele>
        <time>2025-02-02T11:35:39Z</time>
      </trkpt>
      <trkpt lat="43.63686" lon="1.40295">
        <ele>124</ele>
        <time>2025-02-02T11:35:40Z</time>
      </trkpt>
      <trkpt lat="43.63682" lon="1.40293">
        <ele>124</ele>
        <time>2025-02-02T11:35:41Z</time>
      </trkpt>
      <trkpt lat="43.63681" lon="1.40292">
        <ele>128</ele>
        <time>2025-02-02T11:35:42Z</time>
      </trkpt>
      <trkpt lat="43.63679" lon="1.40291">
        <ele>128</ele>
        <time>2025-02-02T11:35:43Z</time>
      </trkpt>
      <trkpt lat="43.63677" lon="1.4029">
        <ele>129</ele>
        <time>2025-02-02T11:35:44Z</time>
      </trkpt>
      <trkpt lat="43.63674" lon="1.40289">
        <ele>130</ele>
        <time>2025-02-02T11:35:45Z</time>
      </trkpt>
      <trkpt lat="43.63672" lon="1.40289">
        <ele>130</ele>
        <time>2025-02-02T11:35:46Z</time>
      </trkpt>
      <trkpt lat="43.6367" lon="1.40288">
        <ele>131</ele>
        <time>2025-02-02T11:35:47Z</time>
      </trkpt>
      <trkpt lat="43.63667" lon="1.40288">
        <ele>131</ele>
        <time>2025-02-02T11:35:48Z</time>
      </trkpt>
      <trkpt lat="43.63664" lon="1.40288">
        <ele>132</ele>
        <time>2025-02-02T11:35:49Z</time>
      </trkpt>
      <trkpt lat="43.63661" lon="1.40288">
        <ele>132</ele>
        <time>2025-02-02T11:35:50Z</time>
      </trkpt>
      <trkpt lat="43.63659" lon="1.40287">
        <ele>132</ele>
        <time>2025-02-02T11:35:51Z</time>
      </trkpt>
      <trkpt lat="43.63656" lon="1.40287">
        <ele>133</ele>
        <time>2025-02-02T11:35:52Z</time>
      </trkpt>
      <trkpt lat="43.63653" lon="1.40287">
        <ele>133</ele>
        <time>2025-02-02T11:35:53Z</time>
      </trkpt>
      <trkpt lat="43.63651" lon="1.40286">
        <ele>133</ele>
        <time>2025-02-02T11:35:54Z</time>
      </trkpt>
      <trkpt lat="43.63648" lon="1.40286">
        <ele>133</ele>
        <time>2025-02-02T11:35:55Z</time>
      </trkpt>
      <trkpt lat="43.63645" lon="1.40286">
        <ele>133</ele>
        <time>2025-02-02T11:35:56Z</time>
      </trkpt>
      <trkpt lat="43.63643" lon="1.40286">
        <ele>133</ele>
        <time>2025-02-02T11:35:57Z</time>
      </trkpt>
      <trkpt lat="43.6364" lon="1.40286">
        <ele>133</ele>
        <time>2025-02-02T11:35:58Z</time>
      </trkpt>
      <trkpt lat="43.63637" lon="1.40286">
        <ele>133</ele>
        <time>2025-02-02T11:35:59Z</time>
      </trkpt>
      <trkpt lat="43.63633" lon="1.40286">
        <ele>133</ele>
        <time>2025-02-02T11:36:00Z</time>
      </trkpt>
      <trkpt lat="43.63631" lon="1.40286">
        <ele>133</ele>
        <time>2025-02-02T11:36:01Z</time>
      </trkpt>
      <trkpt lat="43.63629" lon="1.40285">
        <ele>133</ele>
        <time>2025-02-02T11:36:02Z</time>
      </trkpt>
      <trkpt lat="43.63626" lon="1.40285">
        <ele>133</ele>
        <time>2025-02-02T11:36:03Z</time>
      </trkpt>
      <trkpt lat="43.63624" lon="1.40285">
        <ele>133</ele>
        <time>2025-02-02T11:36:04Z</time>
      </trkpt>
      <trkpt lat="43.63621" lon="1.40285">
        <ele>133</ele>
        <time>2025-02-02T11:36:05Z</time>
      </trkpt>
      <trkpt lat="43.63619" lon="1.40284">
        <ele>133</ele>
        <time>2025-02-02T11:36:06Z</time>
      </trkpt>
      <trkpt lat="43.63617" lon="1.40284">
        <ele>133</ele>
        <time>2025-02-02T11:36:07Z</time>
      </trkpt>
      <trkpt lat="43.63614" lon="1.40285">
        <ele>133</ele>
        <time>2025-02-02T11:36:08Z</time>
      </trkpt>
      <trkpt lat="43.63611" lon="1.40284">
        <ele>133</ele>
        <time>2025-02-02T11:36:09Z</time>
      </trkpt>
      <trkpt lat="43.63609" lon="1.40284">
        <ele>133</ele>
        <time>2025-02-02T11:36:10Z</time>
      </trkpt>
      <trkpt lat="43.63607" lon="1.40283">
        <ele>133</ele>
        <time>2025-02-02T11:36:11Z</time>
      </trkpt>
      <trkpt lat="43.63604" lon="1.40283">
        <ele>133</ele>
        <time>2025-02-02T11:36:12Z</time>
      </trkpt>
      <trkpt lat="43.63602" lon="1.40283">
        <ele>133</ele>
        <time>2025-02-02T11:36:13Z</time>
      </trkpt>
      <trkpt lat="43.63599" lon="1.40284">
        <ele>133</ele>
        <time>2025-02-02T11:36:14Z</time>
      </trkpt>
      <trkpt lat="43.63597" lon="1.40284">
        <ele>133</ele>
        <time>2025-02-02T11:36:15Z</time>
      </trkpt>
      <trkpt lat="43.63594" lon="1.40284">
        <ele>133</ele>
        <time>2025-02-02T11:36:16Z</time>
      </trkpt>
      <trkpt lat="43.63592" lon="1.40284">
        <ele>133</ele>
        <time>2025-02-02T11:36:17Z</time>
      </trkpt>
      <trkpt lat="43.6359" lon="1.40283">
        <ele>133</ele>
        <time>2025-02-02T11:36:18Z</time>
      </trkpt>
      <trkpt lat="43.63587" lon="1.40283">
        <ele>133</ele>
        <time>2025-02-02T11:36:19Z</time>
      </trkpt>
      <trkpt lat="43.63584" lon="1.40283">
        <ele>133</ele>
        <time>2025-02-02T11:36:20Z</time>
      </trkpt>
      <trkpt lat="43.63581" lon="1.40282">
        <ele>133</ele>
        <time>2025-02-02T11:36:21Z</time>
      </trkpt>
      <trkpt lat="43.63579" lon="1.40282">
        <ele>133</ele>
        <time>2025-02-02T11:36:22Z</time>
      </trkpt>
      <trkpt lat="43.63576" lon="1.40281">
        <ele>132</ele>
        <time>2025-02-02T11:36:23Z</time>
      </trkpt>
      <trkpt lat="43.63573" lon="1.40281">
        <ele>132</ele>
        <time>2025-02-02T11:36:24Z</time>
      </trkpt>
      <trkpt lat="43.63571" lon="1.40281">
        <ele>132</ele>
        <time>2025-02-02T11:36:25Z</time>
      </trkpt>
      <trkpt lat="43.63568" lon="1.40281">
        <ele>132</ele>
        <time>2025-02-02T11:36:26Z</time>
      </trkpt>
      <trkpt lat="43.63565" lon="1.40281">
        <ele>132</ele>
        <time>2025-02-02T11:36:27Z</time>
      </trkpt>
      <trkpt lat="43.63563" lon="1.40281">
        <ele>132</ele>
        <time>2025-02-02T11:36:28Z</time>
      </trkpt>
      <trkpt lat="43.6356" lon="1.40281">
        <ele>132</ele>
        <time>2025-02-02T11:36:29Z</time>
      </trkpt>
      <trkpt lat="43.63557" lon="1.4028">
        <ele>132</ele>
        <time>2025-02-02T11:36:30Z</time>
      </trkpt>
      <trkpt lat="43.63554" lon="1.4028">
        <ele>132</ele>
        <time>2025-02-02T11:36:31Z</time>
      </trkpt>
      <trkpt lat="43.63552" lon="1.40279">
        <ele>132</ele>
        <time>2025-02-02T11:36:32Z</time>
      </trkpt>
      <trkpt lat="43.63549" lon="1.40279">
        <ele>132</ele>
        <time>2025-02-02T11:36:33Z</time>
      </trkpt>
      <trkpt lat="43.63546" lon="1.40278">
        <ele>132</ele>
        <time>2025-02-02T11:36:34Z</time>
      </trkpt>
      <trkpt lat="43.63542" lon="1.40278">
        <ele>132</ele>
        <time>2025-02-02T11:36:35Z</time>
      </trkpt>
      <trkpt lat="43.63539" lon="1.40278">
        <ele>132</ele>
        <time>2025-02-02T11:36:36Z</time>
      </trkpt>
      <trkpt lat="43.63537" lon="1.40277">
        <ele>132</ele>
        <time>2025-02-02T11:36:37Z</time>
      </trkpt>
      <trkpt lat="43.63533" lon="1.40276">
        <ele>132</ele>
        <time>2025-02-02T11:36:38Z</time>
      </trkpt>
      <trkpt lat="43.63531" lon="1.40276">
        <ele>132</ele>
        <time>2025-02-02T11:36:39Z</time>
      </trkpt>
      <trkpt lat="43.63529" lon="1.40275">
        <ele>132</ele>
        <time>2025-02-02T11:36:40Z</time>
      </trkpt>
      <trkpt lat="43.63527" lon="1.40275">
        <ele>132</ele>
        <time>2025-02-02T11:36:41Z</time>
      </trkpt>
      <trkpt lat="43.63524" lon="1.40274">
        <ele>133</ele>
        <time>2025-02-02T11:36:42Z</time>
      </trkpt>
      <trkpt lat="43.63522" lon="1.40273">
        <ele>133</ele>
        <time>2025-02-02T11:36:43Z</time>
      </trkpt>
      <trkpt lat="43.63519" lon="1.40273">
        <ele>133</ele>
        <time>2025-02-02T11:36:44Z</time>
      </trkpt>
      <trkpt lat="43.63516" lon="1.40272">
        <ele>133</ele>
        <time>2025-02-02T11:36:45Z</time>
      </trkpt>
      <trkpt lat="43.63514" lon="1.4027">
        <ele>133</ele>
        <time>2025-02-02T11:36:46Z</time>
      </trkpt>
      <trkpt lat="43.63511" lon="1.4027">
        <ele>133</ele>
        <time>2025-02-02T11:36:47Z</time>
      </trkpt>
      <trkpt lat="43.63509" lon="1.4027">
        <ele>133</ele>
        <time>2025-02-02T11:36:48Z</time>
      </trkpt>
      <trkpt lat="43.63506" lon="1.40269">
        <ele>133</ele>
        <time>2025-02-02T11:36:49Z</time>
      </trkpt>
      <trkpt lat="43.63503" lon="1.40269">
        <ele>133</ele>
        <time>2025-02-02T11:36:50Z</time>
      </trkpt>
      <trkpt lat="43.635" lon="1.40268">
        <ele>133</ele>
        <time>2025-02-02T11:36:51Z</time>
      </trkpt>
      <trkpt lat="43.63498" lon="1.40267">
        <ele>133</ele>
        <time>2025-02-02T11:36:52Z</time>
      </trkpt>
      <trkpt lat="43.63495" lon="1.40267">
        <ele>133</ele>
        <time>2025-02-02T11:36:53Z</time>
      </trkpt>
      <trkpt lat="43.63493" lon="1.40266">
        <ele>133</ele>
        <time>2025-02-02T11:36:54Z</time>
      </trkpt>
      <trkpt lat="43.63491" lon="1.40266">
        <ele>133</ele>
        <time>2025-02-02T11:36:55Z</time>
      </trkpt>
      <trkpt lat="43.63488" lon="1.40265">
        <ele>133</ele>
        <time>2025-02-02T11:36:56Z</time>
      </trkpt>
      <trkpt lat="43.63484" lon="1.40264">
        <ele>133</ele>
        <time>2025-02-02T11:36:57Z</time>
      </trkpt>
      <trkpt lat="43.63483" lon="1.40263">
        <ele>133</ele>
        <time>2025-02-02T11:36:58Z</time>
      </trkpt>
      <trkpt lat="43.6348" lon="1.40263">
        <ele>133</ele>
        <time>2025-02-02T11:36:59Z</time>
      </trkpt>
      <trkpt lat="43.63477" lon="1.40262">
        <ele>133</ele>
        <time>2025-02-02T11:37:00Z</time>
      </trkpt>
      <trkpt lat="43.63474" lon="1.40261">
        <ele>133</ele>
        <time>2025-02-02T11:37:01Z</time>
      </trkpt>
      <trkpt lat="43.63472" lon="1.40259">
        <ele>133</ele>
        <time>2025-02-02T11:37:02Z</time>
      </trkpt>
      <trkpt lat="43.6347" lon="1.40258">
        <ele>133</ele>
        <time>2025-02-02T11:37:03Z</time>
      </trkpt>
      <trkpt lat="43.63467" lon="1.40257">
        <ele>133</ele>
        <time>2025-02-02T11:37:04Z</time>
      </trkpt>
      <trkpt lat="43.63464" lon="1.40257">
        <ele>133</ele>
        <time>2025-02-02T11:37:05Z</time>
      </trkpt>
      <trkpt lat="43.63461" lon="1.40257">
        <ele>133</ele>
        <time>2025-02-02T11:37:06Z</time>
      </trkpt>
      <trkpt lat="43.63459" lon="1.40256">
        <ele>133</ele>
        <time>2025-02-02T11:37:07Z</time>
      </trkpt>
      <trkpt lat="43.63456" lon="1.40255">
        <ele>133</ele>
        <time>2025-02-02T11:37:08Z</time>
      </trkpt>
      <trkpt lat="43.63453" lon="1.40255">
        <ele>133</ele>
        <time>2025-02-02T11:37:09Z</time>
      </trkpt>
      <trkpt lat="43.6345" lon="1.40254">
        <ele>133</ele>
        <time>2025-02-02T11:37:10Z</time>
      </trkpt>
      <trkpt lat="43.63447" lon="1.40254">
        <ele>133</ele>
        <time>2025-02-02T11:37:11Z</time>
      </trkpt>
      <trkpt lat="43.63444" lon="1.40253">
        <ele>133</ele>
        <time>2025-02-02T11:37:12Z</time>
      </trkpt>
      <trkpt lat="43.63442" lon="1.40253">
        <ele>133</ele>
        <time>2025-02-02T11:37:13Z</time>
      </trkpt>
      <trkpt lat="43.63439" lon="1.40252">
        <ele>133</ele>
        <time>2025-02-02T11:37:14Z</time>
      </trkpt>
      <trkpt lat="43.63436" lon="1.40252">
        <ele>133</ele>
        <time>2025-02-02T11:37:15Z</time>
      </trkpt>
      <trkpt lat="43.63433" lon="1.40251">
        <ele>133</ele>
        <time>2025-02-02T11:37:16Z</time>
      </trkpt>
      <trkpt lat="43.6343" lon="1.4025">
        <ele>133</ele>
        <time>2025-02-02T11:37:17Z</time>
      </trkpt>
      <trkpt lat="43.63428" lon="1.4025">
        <ele>133</ele>
        <time>2025-02-02T11:37:18Z</time>
      </trkpt>
      <trkpt lat="43.63425" lon="1.40249">
        <ele>133</ele>
        <time>2025-02-02T11:37:19Z</time>
      </trkpt>
      <trkpt lat="43.63423" lon="1.40248">
        <ele>133</ele>
        <time>2025-02-02T11:37:20Z</time>
      </trkpt>
      <trkpt lat="43.63421" lon="1.40248">
        <ele>133</ele>
        <time>2025-02-02T11:37:21Z</time>
      </trkpt>
      <trkpt lat="43.63418" lon="1.40247">
        <ele>133</ele>
        <time>2025-02-02T11:37:22Z</time>
      </trkpt>
      <trkpt lat="43.63416" lon="1.40245">
        <ele>133</ele>
        <time>2025-02-02T11:37:23Z</time>
      </trkpt>
      <trkpt lat="43.63413" lon="1.40244">
        <ele>133</ele>
        <time>2025-02-02T11:37:24Z</time>
      </trkpt>
      <trkpt lat="43.6341" lon="1.40243">
        <ele>133</ele>
        <time>2025-02-02T11:37:25Z</time>
      </trkpt>
      <trkpt lat="43.63407" lon="1.40242">
        <ele>133</ele>
        <time>2025-02-02T11:37:26Z</time>
      </trkpt>
      <trkpt lat="43.63404" lon="1.40242">
        <ele>133</ele>
        <time>2025-02-02T11:37:27Z</time>
      </trkpt>
      <trkpt lat="43.63402" lon="1.40241">
        <ele>133</ele>
        <time>2025-02-02T11:37:28Z</time>
      </trkpt>
      <trkpt lat="43.63399" lon="1.40241">
        <ele>133</ele>
        <time>2025-02-02T11:37:29Z</time>
      </trkpt>
      <trkpt lat="43.63397" lon="1.4024">
        <ele>132</ele>
        <time>2025-02-02T11:37:30Z</time>
      </trkpt>
      <trkpt lat="43.63395" lon="1.40238">
        <ele>133</ele>
        <time>2025-02-02T11:37:31Z</time>
      </trkpt>
      <trkpt lat="43.63392" lon="1.40236">
        <ele>133</ele>
        <time>2025-02-02T11:37:32Z</time>
      </trkpt>
      <trkpt lat="43.6339" lon="1.40235">
        <ele>133</ele>
        <time>2025-02-02T11:37:33Z</time>
      </trkpt>
      <trkpt lat="43.63387" lon="1.40235">
        <ele>133</ele>
        <time>2025-02-02T11:37:34Z</time>
      </trkpt>
      <trkpt lat="43.63385" lon="1.40235">
        <ele>133</ele>
        <time>2025-02-02T11:37:35Z</time>
      </trkpt>
      <trkpt lat="43.63382" lon="1.40234">
        <ele>132</ele>
        <time>2025-02-02T11:37:36Z</time>
      </trkpt>
      <trkpt lat="43.6338" lon="1.40233">
        <ele>132</ele>
        <time>2025-02-02T11:37:37Z</time>
      </trkpt>
      <trkpt lat="43.63378" lon="1.40232">
        <ele>132</ele>
        <time>2025-02-02T11:37:38Z</time>
      </trkpt>
      <trkpt lat="43.63376" lon="1.4023">
        <ele>132</ele>
        <time>2025-02-02T11:37:39Z</time>
      </trkpt>
      <trkpt lat="43.63374" lon="1.40228">
        <ele>132</ele>
        <time>2025-02-02T11:37:40Z</time>
      </trkpt>
      <trkpt lat="43.63371" lon="1.40226">
        <ele>132</ele>
        <time>2025-02-02T11:37:41Z</time>
      </trkpt>
      <trkpt lat="43.63369" lon="1.40225">
        <ele>133</ele>
        <time>2025-02-02T11:37:42Z</time>
      </trkpt>
      <trkpt lat="43.63367" lon="1.40224">
        <ele>133</ele>
        <time>2025-02-02T11:37:43Z</time>
      </trkpt>
      <trkpt lat="43.63365" lon="1.40224">
        <ele>133</ele>
        <time>2025-02-02T11:37:44Z</time>
      </trkpt>
      <trkpt lat="43.63363" lon="1.40222">
        <ele>133</ele>
        <time>2025-02-02T11:37:45Z</time>
      </trkpt>
      <trkpt lat="43.63361" lon="1.40221">
        <ele>133</ele>
        <time>2025-02-02T11:37:46Z</time>
      </trkpt>
      <trkpt lat="43.63358" lon="1.40219">
        <ele>133</ele>
        <time>2025-02-02T11:37:47Z</time>
      </trkpt>
      <trkpt lat="43.63356" lon="1.40218">
        <ele>133</ele>
        <time>2025-02-02T11:37:48Z</time>
      </trkpt>
      <trkpt lat="43.63354" lon="1.40217">
        <ele>133</ele>
        <time>2025-02-02T11:37:49Z</time>
      </trkpt>
      <trkpt lat="43.63352" lon="1.40215">
        <ele>133</ele>
        <time>2025-02-02T11:37:50Z</time>
      </trkpt>
      <trkpt lat="43.6335" lon="1.40215">
        <ele>133</ele>
        <time>2025-02-02T11:37:51Z</time>
      </trkpt>
      <trkpt lat="43.63348" lon="1.40215">
        <ele>133</ele>
        <time>2025-02-02T11:37:52Z</time>
      </trkpt>
      <trkpt lat="43.63345" lon="1.40215">
        <ele>132</ele>
        <time>2025-02-02T11:37:53Z</time>
      </trkpt>
      <trkpt lat="43.63341" lon="1.40214">
        <ele>132</ele>
        <time>2025-02-02T11:37:54Z</time>
      </trkpt>
      <trkpt lat="43.63339" lon="1.40214">
        <ele>132</ele>
        <time>2025-02-02T11:37:55Z</time>
      </trkpt>
      <trkpt lat="43.63337" lon="1.40212">
        <ele>132</ele>
        <time>2025-02-02T11:37:56Z</time>
      </trkpt>
      <trkpt lat="43.63335" lon="1.40211">
        <ele>132</ele>
        <time>2025-02-02T11:37:57Z</time>
      </trkpt>
      <trkpt lat="43.63332" lon="1.40211">
        <ele>132</ele>
        <time>2025-02-02T11:37:58Z</time>
      </trkpt>
      <trkpt lat="43.63329" lon="1.4021">
        <ele>132</ele>
        <time>2025-02-02T11:37:59Z</time>
      </trkpt>
      <trkpt lat="43.63326" lon="1.40209">
        <ele>132</ele>
        <time>2025-02-02T11:38:00Z</time>
      </trkpt>
      <trkpt lat="43.63323" lon="1.40208">
        <ele>132</ele>
        <time>2025-02-02T11:38:01Z</time>
      </trkpt>
      <trkpt lat="43.6332" lon="1.40206">
        <ele>132</ele>
        <time>2025-02-02T11:38:02Z</time>
      </trkpt>
      <trkpt lat="43.63318" lon="1.40204">
        <ele>132</ele>
        <time>2025-02-02T11:38:03Z</time>
      </trkpt>
      <trkpt lat="43.63315" lon="1.40202">
        <ele>132</ele>
        <time>2025-02-02T11:38:04Z</time>
      </trkpt>
      <trkpt lat="43.63313" lon="1.40201">
        <ele>132</ele>
        <time>2025-02-02T11:38:05Z</time>
      </trkpt>
      <trkpt lat="43.6331" lon="1.402">
        <ele>132</ele>
        <time>2025-02-02T11:38:06Z</time>
      </trkpt>
      <trkpt lat="43.63307" lon="1.40199">
        <ele>132</ele>
        <time>2025-02-02T11:38:07Z</time>
      </trkpt>
      <trkpt lat="43.63304" lon="1.40199">
        <ele>132</ele>
        <time>2025-02-02T11:38:08Z</time>
      </trkpt>
      <trkpt lat="43.63301" lon="1.402">
        <ele>132</ele>
        <time>2025-02-02T11:38:09Z</time>
      </trkpt>
      <trkpt lat="43.63298" lon="1.40201">
        <ele>132</ele>
        <time>2025-02-02T11:38:10Z</time>
      </trkpt>
      <trkpt lat="43.63295" lon="1.40201">
        <ele>131</ele>
        <time>2025-02-02T11:38:11Z</time>
      </trkpt>
      <trkpt lat="43.63292" lon="1.402">
        <ele>131</ele>
        <time>2025-02-02T11:38:12Z</time>
      </trkpt>
      <trkpt lat="43.6329" lon="1.40198">
        <ele>131</ele>
        <time>2025-02-02T11:38:13Z</time>
      </trkpt>
      <trkpt lat="43.63288" lon="1.40198">
        <ele>131</ele>
        <time>2025-02-02T11:38:14Z</time>
      </trkpt>
      <trkpt lat="43.63285" lon="1.40197">
        <ele>130</ele>
        <time>2025-02-02T11:38:15Z</time>
      </trkpt>
      <trkpt lat="43.63283" lon="1.40196">
        <ele>131</ele>
        <time>2025-02-02T11:38:16Z</time>
      </trkpt>
      <trkpt lat="43.63281" lon="1.40195">
        <ele>131</ele>
        <time>2025-02-02T11:38:17Z</time>
      </trkpt>
      <trkpt lat="43.63279" lon="1.40195">
        <ele>131</ele>
        <time>2025-02-02T11:38:18Z</time>
      </trkpt>
      <trkpt lat="43.63276" lon="1.40195">
        <ele>131</ele>
        <time>2025-02-02T11:38:19Z</time>
      </trkpt>
      <trkpt lat="43.63273" lon="1.40194">
        <ele>131</ele>
        <time>2025-02-02T11:38:20Z</time>
      </trkpt>
      <trkpt lat="43.6327" lon="1.40194">
        <ele>131</ele>
        <time>2025-02-02T11:38:21Z</time>
      </trkpt>
      <trkpt lat="43.63267" lon="1.40193">
        <ele>131</ele>
        <time>2025-02-02T11:38:22Z</time>
      </trkpt>
      <trkpt lat="43.63264" lon="1.40191">
        <ele>131</ele>
        <time>2025-02-02T11:38:23Z</time>
      </trkpt>
      <trkpt lat="43.63262" lon="1.40191">
        <ele>131</ele>
        <time>2025-02-02T11:38:24Z</time>
      </trkpt>
      <trkpt lat="43.63259" lon="1.4019">
        <ele>131</ele>
        <time>2025-02-02T11:38:25Z</time>
      </trkpt>
      <trkpt lat="43.63257" lon="1.40189">
        <ele>131</ele>
        <time>2025-02-02T11:38:26Z</time>
      </trkpt>
      <trkpt lat="43.63254" lon="1.40188">
        <ele>131</ele>
        <time>2025-02-02T11:38:27Z</time>
      </trkpt>
      <trkpt lat="43.63252" lon="1.40187">
        <ele>130</ele>
        <time>2025-02-02T11:38:28Z</time>
      </trkpt>
      <trkpt lat="43.63249" lon="1.40186">
        <ele>130</ele>
        <time>2025-02-02T11:38:29Z</time>
      </trkpt>
      <trkpt lat="43.63247" lon="1.40186">
        <ele>130</ele>
        <time>2025-02-02T11:38:30Z</time>
      </trkpt>
      <trkpt lat="43.63244" lon="1.40185">
        <ele>130</ele>
        <time>2025-02-02T11:38:31Z</time>
      </trkpt>
      <trkpt lat="43.63241" lon="1.40184">
        <ele>130</ele>
        <time>2025-02-02T11:38:32Z</time>
      </trkpt>
      <trkpt lat="43.63239" lon="1.40183">
        <ele>130</ele>
        <time>2025-02-02T11:38:33Z</time>
      </trkpt>
      <trkpt lat="43.63236" lon="1.40182">
        <ele>130</ele>
        <time>2025-02-02T11:38:34Z</time>
      </trkpt>
      <trkpt lat="43.63234" lon="1.40181">
        <ele>130</ele>
        <time>2025-02-02T11:38:35Z</time>
      </trkpt>
      <trkpt lat="43.63231" lon="1.4018">
        <ele>131</ele>
        <time>2025-02-02T11:38:36Z</time>
      </trkpt>
      <trkpt lat="43.63229" lon="1.40179">
        <ele>131</ele>
        <time>2025-02-02T11:38:37Z</time>
      </trkpt>
      <trkpt lat="43.63226" lon="1.40178">
        <ele>131</ele>
        <time>2025-02-02T11:38:38Z</time>
      </trkpt>
      <trkpt lat="43.63224" lon="1.40178">
        <ele>131</ele>
        <time>2025-02-02T11:38:39Z</time>
      </trkpt>
      <trkpt lat="43.63221" lon="1.40177">
        <ele>131</ele>
        <time>2025-02-02T11:38:40Z</time>
      </trkpt>
      <trkpt lat="43.63219" lon="1.40177">
        <ele>131</ele>
        <time>2025-02-02T11:38:41Z</time>
      </trkpt>
      <trkpt lat="43.63216" lon="1.40177">
        <ele>131</ele>
        <time>2025-02-02T11:38:42Z</time>
      </trkpt>
      <trkpt lat="43.63214" lon="1.40177">
        <ele>131</ele>
        <time>2025-02-02T11:38:43Z</time>
      </trkpt>
      <trkpt lat="43.63212" lon="1.40176">
        <ele>131</ele>
        <time>2025-02-02T11:38:44Z</time>
      </trkpt>
      <trkpt lat="43.6321" lon="1.40175">
        <ele>131</ele>
        <time>2025-02-02T11:38:45Z</time>
      </trkpt>
      <trkpt lat="43.63207" lon="1.40172">
        <ele>131</ele>
        <time>2025-02-02T11:38:46Z</time>
      </trkpt>
      <trkpt lat="43.63205" lon="1.4017">
        <ele>132</ele>
        <time>2025-02-02T11:38:47Z</time>
      </trkpt>
      <trkpt lat="43.63203" lon="1.40168">
        <ele>132</ele>
        <time>2025-02-02T11:38:48Z</time>
      </trkpt>
      <trkpt lat="43.632" lon="1.40168">
        <ele>132</ele>
        <time>2025-02-02T11:38:49Z</time>
      </trkpt>
      <trkpt lat="43.63198" lon="1.40169">
        <ele>132</ele>
        <time>2025-02-02T11:38:50Z</time>
      </trkpt>
      <trkpt lat="43.63195" lon="1.4017">
        <ele>132</ele>
        <time>2025-02-02T11:38:51Z</time>
      </trkpt>
      <trkpt lat="43.63192" lon="1.4017">
        <ele>132</ele>
        <time>2025-02-02T11:38:52Z</time>
      </trkpt>
      <trkpt lat="43.63189" lon="1.40169">
        <ele>132</ele>
        <time>2025-02-02T11:38:53Z</time>
      </trkpt>
      <trkpt lat="43.63186" lon="1.40167">
        <ele>131</ele>
        <time>2025-02-02T11:38:54Z</time>
      </trkpt>
      <trkpt lat="43.63183" lon="1.40166">
        <ele>131</ele>
        <time>2025-02-02T11:38:55Z</time>
      </trkpt>
      <trkpt lat="43.63181" lon="1.40164">
        <ele>131</ele>
        <time>2025-02-02T11:38:56Z</time>
      </trkpt>
      <trkpt lat="43.63179" lon="1.40163">
        <ele>131</ele>
        <time>2025-02-02T11:38:57Z</time>
      </trkpt>
      <trkpt lat="43.63176" lon="1.40161">
        <ele>131</ele>
        <time>2025-02-02T11:38:58Z</time>
      </trkpt>
      <trkpt lat="43.63174" lon="1.40159">
        <ele>131</ele>
        <time>2025-02-02T11:38:59Z</time>
      </trkpt>
      <trkpt lat="43.63171" lon="1.40157">
        <ele>132</ele>
        <time>2025-02-02T11:39:00Z</time>
      </trkpt>
      <trkpt lat="43.63169" lon="1.40155">
        <ele>132</ele>
        <time>2025-02-02T11:39:01Z</time>
      </trkpt>
      <trkpt lat="43.63167" lon="1.40153">
        <ele>132</ele>
        <time>2025-02-02T11:39:02Z</time>
      </trkpt>
      <trkpt lat="43.63164" lon="1.40151">
        <ele>132</ele>
        <time>2025-02-02T11:39:03Z</time>
      </trkpt>
      <trkpt lat="43.63162" lon="1.4015">
        <ele>132</ele>
        <time>2025-02-02T11:39:04Z</time>
      </trkpt>
      <trkpt lat="43.63159" lon="1.40149">
        <ele>132</ele>
        <time>2025-02-02T11:39:05Z</time>
      </trkpt>
      <trkpt lat="43.63157" lon="1.40148">
        <ele>132</ele>
        <time>2025-02-02T11:39:06Z</time>
      </trkpt>
      <trkpt lat="43.63154" lon="1.40147">
        <ele>131</ele>
        <time>2025-02-02T11:39:07Z</time>
      </trkpt>
      <trkpt lat="43.63151" lon="1.40145">
        <ele>131</ele>
        <time>2025-02-02T11:39:08Z</time>
      </trkpt>
      <trkpt lat="43.6315" lon="1.40144">
        <ele>132</ele>
        <time>2025-02-02T11:39:09Z</time>
      </trkpt>
      <trkpt lat="43.63147" lon="1.40144">
        <ele>132</ele>
        <time>2025-02-02T11:39:10Z</time>
      </trkpt>
      <trkpt lat="43.63146" lon="1.40143">
        <ele>132</ele>
        <time>2025-02-02T11:39:11Z</time>
      </trkpt>
      <trkpt lat="43.63143" lon="1.40142">
        <ele>132</ele>
        <time>2025-02-02T11:39:12Z</time>
      </trkpt>
      <trkpt lat="43.63141" lon="1.40141">
        <ele>132</ele>
        <time>2025-02-02T11:39:13Z</time>
      </trkpt>
      <trkpt lat="43.63139" lon="1.4014">
        <ele>132</ele>
        <time>2025-02-02T11:39:14Z</time>
      </trkpt>
      <trkpt lat="43.63135" lon="1.40139">
        <ele>132</ele>
        <time>2025-02-02T11:39:15Z</time>
      </trkpt>
      <trkpt lat="43.63134" lon="1.40139">
        <ele>132</ele>
        <time>2025-02-02T11:39:16Z</time>
      </trkpt>
      <trkpt lat="43.63132" lon="1.40138">
        <ele>132</ele>
        <time>2025-02-02T11:39:17Z</time>
      </trkpt>
      <trkpt lat="43.6313" lon="1.40137">
        <ele>132</ele>
        <time>2025-02-02T11:39:18Z</time>
      </trkpt>
      <trkpt lat="43.63127" lon="1.40136">
        <ele>132</ele>
        <time>2025-02-02T11:39:19Z</time>
      </trkpt>
      <trkpt lat="43.63125" lon="1.40134">
        <ele>132</ele>
        <time>2025-02-02T11:39:20Z</time>
      </trkpt>
      <trkpt lat="43.63123" lon="1.40133">
        <ele>132</ele>
        <time>2025-02-02T11:39:21Z</time>
      </trkpt>
      <trkpt lat="43.6312" lon="1.40132">
        <ele>132</ele>
        <time>2025-02-02T11:39:22Z</time>
      </trkpt>
      <trkpt lat="43.63118" lon="1.40132">
        <ele>132</ele>
        <time>2025-02-02T11:39:23Z</time>
      </trkpt>
      <trkpt lat="43.63115" lon="1.40131">
        <ele>132</ele>
        <time>2025-02-02T11:39:24Z</time>
      </trkpt>
      <trkpt lat="43.63112" lon="1.4013">
        <ele>132</ele>
        <time>2025-02-02T11:39:25Z</time>
      </trkpt>
      <trkpt lat="43.6311" lon="1.40129">
        <ele>132</ele>
        <time>2025-02-02T11:39:26Z</time>
      </trkpt>
      <trkpt lat="43.63107" lon="1.40128">
        <ele>132</ele>
        <time>2025-02-02T11:39:27Z</time>
      </trkpt>
      <trkpt lat="43.63105" lon="1.40128">
        <ele>132</ele>
        <time>2025-02-02T11:39:28Z</time>
      </trkpt>
      <trkpt lat="43.63102" lon="1.40128">
        <ele>133</ele>
        <time>2025-02-02T11:39:29Z</time>
      </trkpt>
      <trkpt lat="43.63099" lon="1.40127">
        <ele>133</ele>
        <time>2025-02-02T11:39:30Z</time>
      </trkpt>
      <trkpt lat="43.63096" lon="1.40127">
        <ele>132</ele>
        <time>2025-02-02T11:39:31Z</time>
      </trkpt>
      <trkpt lat="43.63094" lon="1.40126">
        <ele>133</ele>
        <time>2025-02-02T11:39:32Z</time>
      </trkpt>
      <trkpt lat="43.63092" lon="1.40125">
        <ele>133</ele>
        <time>2025-02-02T11:39:33Z</time>
      </trkpt>
      <trkpt lat="43.63089" lon="1.40123">
        <ele>133</ele>
        <time>2025-02-02T11:39:34Z</time>
      </trkpt>
      <trkpt lat="43.63087" lon="1.40122">
        <ele>133</ele>
        <time>2025-02-02T11:39:35Z</time>
      </trkpt>
      <trkpt lat="43.63084" lon="1.4012">
        <ele>133</ele>
        <time>2025-02-02T11:39:36Z</time>
      </trkpt>
      <trkpt lat="43.63082" lon="1.40119">
        <ele>133</ele>
        <time>2025-02-02T11:39:37Z</time>
      </trkpt>
      <trkpt lat="43.63079" lon="1.40117">
        <ele>133</ele>
        <time>2025-02-02T11:39:38Z</time>
      </trkpt>
      <trkpt lat="43.63076" lon="1.40116">
        <ele>133</ele>
        <time>2025-02-02T11:39:39Z</time>
      </trkpt>
      <trkpt lat="43.63074" lon="1.40114">
        <ele>133</ele>
        <time>2025-02-02T11:39:40Z</time>
      </trkpt>
      <trkpt lat="43.63072" lon="1.40114">
        <ele>133</ele>
        <time>2025-02-02T11:39:41Z</time>
      </trkpt>
      <trkpt lat="43.63069" lon="1.40113">
        <ele>133</ele>
        <time>2025-02-02T11:39:42Z</time>
      </trkpt>
      <trkpt lat="43.63067" lon="1.40113">
        <ele>133</ele>
        <time>2025-02-02T11:39:43Z</time>
      </trkpt>
      <trkpt lat="43.63064" lon="1.40112">
        <ele>133</ele>
        <time>2025-02-02T11:39:44Z</time>
      </trkpt>
      <trkpt lat="43.63061" lon="1.40111">
        <ele>133</ele>
        <time>2025-02-02T11:39:45Z</time>
      </trkpt>
      <trkpt lat="43.63058" lon="1.40111">
        <ele>133</ele>
        <time>2025-02-02T11:39:46Z</time>
      </trkpt>
      <trkpt lat="43.63056" lon="1.4011">
        <ele>133</ele>
        <time>2025-02-02T11:39:47Z</time>
      </trkpt>
      <trkpt lat="43.63053" lon="1.40109">
        <ele>133</ele>
        <time>2025-02-02T11:39:48Z</time>
      </trkpt>
      <trkpt lat="43.63051" lon="1.40108">
        <ele>133</ele>
        <time>2025-02-02T11:39:49Z</time>
      </trkpt>
      <trkpt lat="43.63048" lon="1.40107">
        <ele>133</ele>
        <time>2025-02-02T11:39:50Z</time>
      </trkpt>
      <trkpt lat="43.63046" lon="1.40106">
        <ele>133</ele>
        <time>2025-02-02T11:39:51Z</time>
      </trkpt>
      <trkpt lat="43.63043" lon="1.40106">
        <ele>133</ele>
        <time>2025-02-02T11:39:52Z</time>
      </trkpt>
      <trkpt lat="43.63041" lon="1.40105">
        <ele>133</ele>
        <time>2025-02-02T11:39:53Z</time>
      </trkpt>
      <trkpt lat="43.63038" lon="1.40105">
        <ele>133</ele>
        <time>2025-02-02T11:39:54Z</time>
      </trkpt>
      <trkpt lat="43.63035" lon="1.40104">
        <ele>133</ele>
        <time>2025-02-02T11:39:55Z</time>
      </trkpt>
      <trkpt lat="43.63033" lon="1.40103">
        <ele>133</ele>
        <time>2025-02-02T11:39:56Z</time>
      </trkpt>
      <trkpt lat="43.6303" lon="1.40102">
        <ele>133</ele>
        <time>2025-02-02T11:39:57Z</time>
      </trkpt>
      <trkpt lat="43.63028" lon="1.40101">
        <ele>133</ele>
        <time>2025-02-02T11:39:58Z</time>
      </trkpt>
      <trkpt lat="43.63025" lon="1.40101">
        <ele>133</ele>
        <time>2025-02-02T11:39:59Z</time>
      </trkpt>
      <trkpt lat="43.63022" lon="1.40101">
        <ele>133</ele>
        <time>2025-02-02T11:40:00Z</time>
      </trkpt>
      <trkpt lat="43.63018" lon="1.40101">
        <ele>134</ele>
        <time>2025-02-02T11:40:01Z</time>
      </trkpt>
      <trkpt lat="43.63015" lon="1.401">
        <ele>134</ele>
        <time>2025-02-02T11:40:02Z</time>
      </trkpt>
      <trkpt lat="43.63013" lon="1.401">
        <ele>134</ele>
        <time>2025-02-02T11:40:03Z</time>
      </trkpt>
      <trkpt lat="43.63013" lon="1.401">
        <ele>133</ele>
        <time>2025-02-02T11:40:04Z</time>
      </trkpt>
      <trkpt lat="43.63009" lon="1.401">
        <ele>133</ele>
        <time>2025-02-02T11:40:05Z</time>
      </trkpt>
      <trkpt lat="43.63007" lon="1.401">
        <ele>133</ele>
        <time>2025-02-02T11:40:06Z</time>
      </trkpt>
      <trkpt lat="43.63005" lon="1.401">
        <ele>133</ele>
        <time>2025-02-02T11:40:07Z</time>
      </trkpt>
      <trkpt lat="43.63002" lon="1.40099">
        <ele>133</ele>
        <time>2025-02-02T11:40:08Z</time>
      </trkpt>
      <trkpt lat="43.63" lon="1.40099">
        <ele>133</ele>
        <time>2025-02-02T11:40:09Z</time>
      </trkpt>
      <trkpt lat="43.62997" lon="1.40098">
        <ele>133</ele>
        <time>2025-02-02T11:40:10Z</time>
      </trkpt>
      <trkpt lat="43.62994" lon="1.40097">
        <ele>133</ele>
        <time>2025-02-02T11:40:11Z</time>
      </trkpt>
      <trkpt lat="43.62991" lon="1.40096">
        <ele>132</ele>
        <time>2025-02-02T11:40:12Z</time>
      </trkpt>
      <trkpt lat="43.62988" lon="1.40095">
        <ele>132</ele>
        <time>2025-02-02T11:40:13Z</time>
      </trkpt>
      <trkpt lat="43.62985" lon="1.40094">
        <ele>132</ele>
        <time>2025-02-02T11:40:14Z</time>
      </trkpt>
      <trkpt lat="43.62981" lon="1.40093">
        <ele>132</ele>
        <time>2025-02-02T11:40:15Z</time>
      </trkpt>
      <trkpt lat="43.62978" lon="1.40092">
        <ele>132</ele>
        <time>2025-02-02T11:40:16Z</time>
      </trkpt>
      <trkpt lat="43.62975" lon="1.40092">
        <ele>132</ele>
        <time>2025-02-02T11:40:17Z</time>
      </trkpt>
      <trkpt lat="43.62973" lon="1.40092">
        <ele>132</ele>
        <time>2025-02-02T11:40:18Z</time>
      </trkpt>
      <trkpt lat="43.6297" lon="1.40092">
        <ele>132</ele>
        <time>2025-02-02T11:40:19Z</time>
      </trkpt>
      <trkpt lat="43.62967" lon="1.40091">
        <ele>132</ele>
        <time>2025-02-02T11:40:20Z</time>
      </trkpt>
      <trkpt lat="43.62964" lon="1.40091">
        <ele>132</ele>
        <time>2025-02-02T11:40:21Z</time>
      </trkpt>
      <trkpt lat="43.62962" lon="1.4009">
        <ele>132</ele>
        <time>2025-02-02T11:40:22Z</time>
      </trkpt>
      <trkpt lat="43.6296" lon="1.40089">
        <ele>132</ele>
        <time>2025-02-02T11:40:23Z</time>
      </trkpt>
      <trkpt lat="43.62957" lon="1.40088">
        <ele>132</ele>
        <time>2025-02-02T11:40:24Z</time>
      </trkpt>
      <trkpt lat="43.62955" lon="1.40088">
        <ele>132</ele>
        <time>2025-02-02T11:40:25Z</time>
      </trkpt>
      <trkpt lat="43.62951" lon="1.40086">
        <ele>132</ele>
        <time>2025-02-02T11:40:26Z</time>
      </trkpt>
      <trkpt lat="43.6295" lon="1.40086">
        <ele>132</ele>
        <time>2025-02-02T11:40:27Z</time>
      </trkpt>
      <trkpt lat="43.62948" lon="1.40084">
        <ele>132</ele>
        <time>2025-02-02T11:40:28Z</time>
      </trkpt>
      <trkpt lat="43.62946" lon="1.40083">
        <ele>133</ele>
        <time>2025-02-02T11:40:29Z</time>
      </trkpt>
      <trkpt lat="43.62944" lon="1.40082">
        <ele>133</ele>
        <time>2025-02-02T11:40:30Z</time>
      </trkpt>
      <trkpt lat="43.62941" lon="1.40082">
        <ele>133</ele>
        <time>2025-02-02T11:40:31Z</time>
      </trkpt>
      <trkpt lat="43.62938" lon="1.40081">
        <ele>133</ele>
        <time>2025-02-02T11:40:32Z</time>
      </trkpt>
      <trkpt lat="43.62936" lon="1.40079">
        <ele>133</ele>
        <time>2025-02-02T11:40:33Z</time>
      </trkpt>
      <trkpt lat="43.62933" lon="1.40078">
        <ele>133</ele>
        <time>2025-02-02T11:40:34Z</time>
      </trkpt>
      <trkpt lat="43.62931" lon="1.40077">
        <ele>133</ele>
        <time>2025-02-02T11:40:35Z</time>
      </trkpt>
      <trkpt lat="43.62928" lon="1.40075">
        <ele>133</ele>
        <time>2025-02-02T11:40:36Z</time>
      </trkpt>
      <trkpt lat="43.62926" lon="1.40074">
        <ele>133</ele>
        <time>2025-02-02T11:40:37Z</time>
      </trkpt>
      <trkpt lat="43.62923" lon="1.40073">
        <ele>133</ele>
        <time>2025-02-02T11:40:38Z</time>
      </trkpt>
      <trkpt lat="43.62921" lon="1.40072">
        <ele>133</ele>
        <time>2025-02-02T11:40:39Z</time>
      </trkpt>
      <trkpt lat="43.62918" lon="1.40071">
        <ele>133</ele>
        <time>2025-02-02T11:40:40Z</time>
      </trkpt>
      <trkpt lat="43.62915" lon="1.40071">
        <ele>133</ele>
        <time>2025-02-02T11:40:41Z</time>
      </trkpt>
      <trkpt lat="43.62913" lon="1.40071">
        <ele>133</ele>
        <time>2025-02-02T11:40:42Z</time>
      </trkpt>
      <trkpt lat="43.62908" lon="1.40069">
        <ele>133</ele>
        <time>2025-02-02T11:40:43Z</time>
      </trkpt>
      <trkpt lat="43.62907" lon="1.40069">
        <ele>133</ele>
        <time>2025-02-02T11:40:44Z</time>
      </trkpt>
      <trkpt lat="43.62903" lon="1.40067">
        <ele>133</ele>
        <time>2025-02-02T11:40:45Z</time>
      </trkpt>
      <trkpt lat="43.62901" lon="1.40067">
        <ele>133</ele>
        <time>2025-02-02T11:40:46Z</time>
      </trkpt>
      <trkpt lat="43.62898" lon="1.40066">
        <ele>133</ele>
        <time>2025-02-02T11:40:47Z</time>
      </trkpt>
      <trkpt lat="43.62895" lon="1.40065">
        <ele>133</ele>
        <time>2025-02-02T11:40:48Z</time>
      </trkpt>
      <trkpt lat="43.62892" lon="1.40063">
        <ele>133</ele>
        <time>2025-02-02T11:40:49Z</time>
      </trkpt>
      <trkpt lat="43.6289" lon="1.40062">
        <ele>133</ele>
        <time>2025-02-02T11:40:50Z</time>
      </trkpt>
      <trkpt lat="43.62887" lon="1.40062">
        <ele>133</ele>
        <time>2025-02-02T11:40:51Z</time>
      </trkpt>
      <trkpt lat="43.62884" lon="1.40061">
        <ele>133</ele>
        <time>2025-02-02T11:40:52Z</time>
      </trkpt>
      <trkpt lat="43.62881" lon="1.4006">
        <ele>134</ele>
        <time>2025-02-02T11:40:53Z</time>
      </trkpt>
      <trkpt lat="43.62878" lon="1.4006">
        <ele>134</ele>
        <time>2025-02-02T11:40:54Z</time>
      </trkpt>
      <trkpt lat="43.62875" lon="1.40059">
        <ele>133</ele>
        <time>2025-02-02T11:40:55Z</time>
      </trkpt>
      <trkpt lat="43.62872" lon="1.40059">
        <ele>133</ele>
        <time>2025-02-02T11:40:56Z</time>
      </trkpt>
      <trkpt lat="43.6287" lon="1.40059">
        <ele>133</ele>
        <time>2025-02-02T11:40:57Z</time>
      </trkpt>
      <trkpt lat="43.62868" lon="1.40058">
        <ele>133</ele>
        <time>2025-02-02T11:40:58Z</time>
      </trkpt>
      <trkpt lat="43.62866" lon="1.40058">
        <ele>133</ele>
        <time>2025-02-02T11:40:59Z</time>
      </trkpt>
      <trkpt lat="43.62864" lon="1.40057">
        <ele>133</ele>
        <time>2025-02-02T11:41:00Z</time>
      </trkpt>
      <trkpt lat="43.62861" lon="1.40057">
        <ele>133</ele>
        <time>2025-02-02T11:41:01Z</time>
      </trkpt>
      <trkpt lat="43.62859" lon="1.40056">
        <ele>133</ele>
        <time>2025-02-02T11:41:02Z</time>
      </trkpt>
      <trkpt lat="43.62857" lon="1.40056">
        <ele>133</ele>
        <time>2025-02-02T11:41:03Z</time>
      </trkpt>
      <trkpt lat="43.62854" lon="1.40055">
        <ele>133</ele>
        <time>2025-02-02T11:41:04Z</time>
      </trkpt>
      <trkpt lat="43.62853" lon="1.40055">
        <ele>133</ele>
        <time>2025-02-02T11:41:05Z</time>
      </trkpt>
      <trkpt lat="43.6285" lon="1.40055">
        <ele>133</ele>
        <time>2025-02-02T11:41:06Z</time>
      </trkpt>
      <trkpt lat="43.62848" lon="1.40054">
        <ele>133</ele>
        <time>2025-02-02T11:41:07Z</time>
      </trkpt>
      <trkpt lat="43.62845" lon="1.40054">
        <ele>133</ele>
        <time>2025-02-02T11:41:08Z</time>
      </trkpt>
      <trkpt lat="43.62843" lon="1.40053">
        <ele>133</ele>
        <time>2025-02-02T11:41:09Z</time>
      </trkpt>
      <trkpt lat="43.6284" lon="1.40053">
        <ele>133</ele>
        <time>2025-02-02T11:41:10Z</time>
      </trkpt>
      <trkpt lat="43.62837" lon="1.40053">
        <ele>133</ele>
        <time>2025-02-02T11:41:11Z</time>
      </trkpt>
      <trkpt lat="43.62835" lon="1.40053">
        <ele>133</ele>
        <time>2025-02-02T11:41:12Z</time>
      </trkpt>
      <trkpt lat="43.62833" lon="1.40053">
        <ele>133</ele>
        <time>2025-02-02T11:41:13Z</time>
      </trkpt>
      <trkpt lat="43.6283" lon="1.40052">
        <ele>133</ele>
        <time>2025-02-02T11:41:14Z</time>
      </trkpt>
      <trkpt lat="43.62828" lon="1.40052">
        <ele>133</ele>
        <time>2025-02-02T11:41:15Z</time>
      </trkpt>
      <trkpt lat="43.62825" lon="1.40051">
        <ele>133</ele>
        <time>2025-02-02T11:41:16Z</time>
      </trkpt>
      <trkpt lat="43.62822" lon="1.40051">
        <ele>133</ele>
        <time>2025-02-02T11:41:17Z</time>
      </trkpt>
      <trkpt lat="43.6282" lon="1.4005">
        <ele>133</ele>
        <time>2025-02-02T11:41:18Z</time>
      </trkpt>
      <trkpt lat="43.62818" lon="1.4005">
        <ele>133</ele>
        <time>2025-02-02T11:41:19Z</time>
      </trkpt>
      <trkpt lat="43.62815" lon="1.4005">
        <ele>133</ele>
        <time>2025-02-02T11:41:20Z</time>
      </trkpt>
      <trkpt lat="43.6281" lon="1.4005">
        <ele>133</ele>
        <time>2025-02-02T11:41:21Z</time>
      </trkpt>
      <trkpt lat="43.62809" lon="1.4005">
        <ele>133</ele>
        <time>2025-02-02T11:41:22Z</time>
      </trkpt>
      <trkpt lat="43.62804" lon="1.4005">
        <ele>133</ele>
        <time>2025-02-02T11:41:23Z</time>
      </trkpt>
      <trkpt lat="43.62803" lon="1.4005">
        <ele>133</ele>
        <time>2025-02-02T11:41:24Z</time>
      </trkpt>
      <trkpt lat="43.628" lon="1.40049">
        <ele>133</ele>
        <time>2025-02-02T11:41:25Z</time>
      </trkpt>
      <trkpt lat="43.62797" lon="1.40049">
        <ele>133</ele>
        <time>2025-02-02T11:41:26Z</time>
      </trkpt>
      <trkpt lat="43.62794" lon="1.40049">
        <ele>133</ele>
        <time>2025-02-02T11:41:27Z</time>
      </trkpt>
      <trkpt lat="43.62792" lon="1.40049">
        <ele>133</ele>
        <time>2025-02-02T11:41:28Z</time>
      </trkpt>
      <trkpt lat="43.62789" lon="1.40048">
        <ele>133</ele>
        <time>2025-02-02T11:41:29Z</time>
      </trkpt>
      <trkpt lat="43.62786" lon="1.40048">
        <ele>133</ele>
        <time>2025-02-02T11:41:30Z</time>
      </trkpt>
      <trkpt lat="43.62784" lon="1.40047">
        <ele>133</ele>
        <time>2025-02-02T11:41:31Z</time>
      </trkpt>
      <trkpt lat="43.62781" lon="1.40047">
        <ele>133</ele>
        <time>2025-02-02T11:41:32Z</time>
      </trkpt>
      <trkpt lat="43.62778" lon="1.40047">
        <ele>133</ele>
        <time>2025-02-02T11:41:33Z</time>
      </trkpt>
      <trkpt lat="43.62775" lon="1.40046">
        <ele>133</ele>
        <time>2025-02-02T11:41:34Z</time>
      </trkpt>
      <trkpt lat="43.62773" lon="1.40046">
        <ele>133</ele>
        <time>2025-02-02T11:41:35Z</time>
      </trkpt>
      <trkpt lat="43.62771" lon="1.40045">
        <ele>133</ele>
        <time>2025-02-02T11:41:36Z</time>
      </trkpt>
      <trkpt lat="43.62768" lon="1.40044">
        <ele>133</ele>
        <time>2025-02-02T11:41:37Z</time>
      </trkpt>
      <trkpt lat="43.62766" lon="1.40044">
        <ele>133</ele>
        <time>2025-02-02T11:41:38Z</time>
      </trkpt>
      <trkpt lat="43.62761" lon="1.40044">
        <ele>133</ele>
        <time>2025-02-02T11:41:39Z</time>
      </trkpt>
      <trkpt lat="43.6276" lon="1.40044">
        <ele>133</ele>
        <time>2025-02-02T11:41:40Z</time>
      </trkpt>
      <trkpt lat="43.62757" lon="1.40043">
        <ele>133</ele>
        <time>2025-02-02T11:41:41Z</time>
      </trkpt>
      <trkpt lat="43.62753" lon="1.40044">
        <ele>133</ele>
        <time>2025-02-02T11:41:42Z</time>
      </trkpt>
      <trkpt lat="43.62752" lon="1.40044">
        <ele>133</ele>
        <time>2025-02-02T11:41:43Z</time>
      </trkpt>
      <trkpt lat="43.62749" lon="1.40044">
        <ele>133</ele>
        <time>2025-02-02T11:41:44Z</time>
      </trkpt>
      <trkpt lat="43.62746" lon="1.40044">
        <ele>133</ele>
        <time>2025-02-02T11:41:45Z</time>
      </trkpt>
      <trkpt lat="43.62743" lon="1.40043">
        <ele>133</ele>
        <time>2025-02-02T11:41:46Z</time>
      </trkpt>
      <trkpt lat="43.62741" lon="1.40042">
        <ele>133</ele>
        <time>2025-02-02T11:41:47Z</time>
      </trkpt>
      <trkpt lat="43.62738" lon="1.40042">
        <ele>133</ele>
        <time>2025-02-02T11:41:48Z</time>
      </trkpt>
      <trkpt lat="43.62735" lon="1.40041">
        <ele>133</ele>
        <time>2025-02-02T11:41:49Z</time>
      </trkpt>
      <trkpt lat="43.62731" lon="1.40041">
        <ele>133</ele>
        <time>2025-02-02T11:41:50Z</time>
      </trkpt>
      <trkpt lat="43.62728" lon="1.40041">
        <ele>133</ele>
        <time>2025-02-02T11:41:51Z</time>
      </trkpt>
      <trkpt lat="43.62725" lon="1.40041">
        <ele>133</ele>
        <time>2025-02-02T11:41:52Z</time>
      </trkpt>
      <trkpt lat="43.62722" lon="1.4004">
        <ele>133</ele>
        <time>2025-02-02T11:41:53Z</time>
      </trkpt>
      <trkpt lat="43.6272" lon="1.4004">
        <ele>133</ele>
        <time>2025-02-02T11:41:54Z</time>
      </trkpt>
      <trkpt lat="43.62718" lon="1.4004">
        <ele>133</ele>
        <time>2025-02-02T11:41:55Z</time>
      </trkpt>
      <trkpt lat="43.62715" lon="1.40039">
        <ele>133</ele>
        <time>2025-02-02T11:41:56Z</time>
      </trkpt>
      <trkpt lat="43.62712" lon="1.40039">
        <ele>133</ele>
        <time>2025-02-02T11:41:57Z</time>
      </trkpt>
      <trkpt lat="43.6271" lon="1.40039">
        <ele>133</ele>
        <time>2025-02-02T11:41:58Z</time>
      </trkpt>
      <trkpt lat="43.62708" lon="1.40039">
        <ele>133</ele>
        <time>2025-02-02T11:41:59Z</time>
      </trkpt>
      <trkpt lat="43.62705" lon="1.40039">
        <ele>133</ele>
        <time>2025-02-02T11:42:00Z</time>
      </trkpt>
      <trkpt lat="43.62702" lon="1.40038">
        <ele>133</ele>
        <time>2025-02-02T11:42:01Z</time>
      </trkpt>
      <trkpt lat="43.62701" lon="1.40038">
        <ele>134</ele>
        <time>2025-02-02T11:42:02Z</time>
      </trkpt>
      <trkpt lat="43.62699" lon="1.40038">
        <ele>134</ele>
        <time>2025-02-02T11:42:03Z</time>
      </trkpt>
      <trkpt lat="43.62696" lon="1.40038">
        <ele>134</ele>
        <time>2025-02-02T11:42:04Z</time>
      </trkpt>
      <trkpt lat="43.62694" lon="1.40038">
        <ele>134</ele>
        <time>2025-02-02T11:42:05Z</time>
      </trkpt>
      <trkpt lat="43.62692" lon="1.40038">
        <ele>134</ele>
        <time>2025-02-02T11:42:06Z</time>
      </trkpt>
      <trkpt lat="43.62689" lon="1.40037">
        <ele>133</ele>
        <time>2025-02-02T11:42:07Z</time>
      </trkpt>
      <trkpt lat="43.62686" lon="1.40037">
        <ele>133</ele>
        <time>2025-02-02T11:42:08Z</time>
      </trkpt>
      <trkpt lat="43.62683" lon="1.40036">
        <ele>133</ele>
        <time>2025-02-02T11:42:09Z</time>
      </trkpt>
      <trkpt lat="43.62681" lon="1.40036">
        <ele>134</ele>
        <time>2025-02-02T11:42:10Z</time>
      </trkpt>
      <trkpt lat="43.62678" lon="1.40036">
        <ele>134</ele>
        <time>2025-02-02T11:42:11Z</time>
      </trkpt>
      <trkpt lat="43.62675" lon="1.40036">
        <ele>134</ele>
        <time>2025-02-02T11:42:12Z</time>
      </trkpt>
      <trkpt lat="43.62672" lon="1.40036">
        <ele>134</ele>
        <time>2025-02-02T11:42:13Z</time>
      </trkpt>
      <trkpt lat="43.6267" lon="1.40036">
        <ele>134</ele>
        <time>2025-02-02T11:42:14Z</time>
      </trkpt>
      <trkpt lat="43.62668" lon="1.40035">
        <ele>134</ele>
        <time>2025-02-02T11:42:15Z</time>
      </trkpt>
      <trkpt lat="43.62666" lon="1.40035">
        <ele>134</ele>
        <time>2025-02-02T11:42:16Z</time>
      </trkpt>
      <trkpt lat="43.62662" lon="1.40035">
        <ele>134</ele>
        <time>2025-02-02T11:42:17Z</time>
      </trkpt>
      <trkpt lat="43.62661" lon="1.40035">
        <ele>134</ele>
        <time>2025-02-02T11:42:18Z</time>
      </trkpt>
      <trkpt lat="43.62658" lon="1.40035">
        <ele>134</ele>
        <time>2025-02-02T11:42:19Z</time>
      </trkpt>
      <trkpt lat="43.62655" lon="1.40034">
        <ele>134</ele>
        <time>2025-02-02T11:42:20Z</time>
      </trkpt>
      <trkpt lat="43.62653" lon="1.40034">
        <ele>134</ele>
        <time>2025-02-02T11:42:21Z</time>
      </trkpt>
      <trkpt lat="43.6265" lon="1.40034">
        <ele>134</ele>
        <time>2025-02-02T11:42:22Z</time>
      </trkpt>
      <trkpt lat="43.62647" lon="1.40035">
        <ele>134</ele>
        <time>2025-02-02T11:42:23Z</time>
      </trkpt>
      <trkpt lat="43.62645" lon="1.40035">
        <ele>134</ele>
        <time>2025-02-02T11:42:24Z</time>
      </trkpt>
      <trkpt lat="43.62642" lon="1.40035">
        <ele>134</ele>
        <time>2025-02-02T11:42:25Z</time>
      </trkpt>
      <trkpt lat="43.6264" lon="1.40034">
        <ele>134</ele>
        <time>2025-02-02T11:42:26Z</time>
      </trkpt>
      <trkpt lat="43.62637" lon="1.40033">
        <ele>134</ele>
        <time>2025-02-02T11:42:27Z</time>
      </trkpt>
      <trkpt lat="43.62634" lon="1.40033">
        <ele>134</ele>
        <time>2025-02-02T11:42:28Z</time>
      </trkpt>
      <trkpt lat="43.6263" lon="1.40032">
        <ele>134</ele>
        <time>2025-02-02T11:42:29Z</time>
      </trkpt>
      <trkpt lat="43.62628" lon="1.40032">
        <ele>134</ele>
        <time>2025-02-02T11:42:30Z</time>
      </trkpt>
      <trkpt lat="43.62625" lon="1.40032">
        <ele>134</ele>
        <time>2025-02-02T11:42:31Z</time>
      </trkpt>
      <trkpt lat="43.62622" lon="1.40031">
        <ele>134</ele>
        <time>2025-02-02T11:42:32Z</time>
      </trkpt>
      <trkpt lat="43.6262" lon="1.40031">
        <ele>134</ele>
        <time>2025-02-02T11:42:33Z</time>
      </trkpt>
      <trkpt lat="43.62617" lon="1.40031">
        <ele>134</ele>
        <time>2025-02-02T11:42:34Z</time>
      </trkpt>
      <trkpt lat="43.62615" lon="1.40031">
        <ele>134</ele>
        <time>2025-02-02T11:42:35Z</time>
      </trkpt>
      <trkpt lat="43.62611" lon="1.40032">
        <ele>134</ele>
        <time>2025-02-02T11:42:36Z</time>
      </trkpt>
      <trkpt lat="43.6261" lon="1.40032">
        <ele>134</ele>
        <time>2025-02-02T11:42:37Z</time>
      </trkpt>
      <trkpt lat="43.62607" lon="1.40032">
        <ele>134</ele>
        <time>2025-02-02T11:42:38Z</time>
      </trkpt>
      <trkpt lat="43.62604" lon="1.40031">
        <ele>134</ele>
        <time>2025-02-02T11:42:39Z</time>
      </trkpt>
      <trkpt lat="43.62602" lon="1.40031">
        <ele>135</ele>
        <time>2025-02-02T11:42:40Z</time>
      </trkpt>
      <trkpt lat="43.62599" lon="1.40031">
        <ele>135</ele>
        <time>2025-02-02T11:42:41Z</time>
      </trkpt>
      <trkpt lat="43.62596" lon="1.4003">
        <ele>135</ele>
        <time>2025-02-02T11:42:42Z</time>
      </trkpt>
      <trkpt lat="43.62593" lon="1.4003">
        <ele>135</ele>
        <time>2025-02-02T11:42:43Z</time>
      </trkpt>
      <trkpt lat="43.62591" lon="1.40029">
        <ele>135</ele>
        <time>2025-02-02T11:42:44Z</time>
      </trkpt>
      <trkpt lat="43.62588" lon="1.40029">
        <ele>134</ele>
        <time>2025-02-02T11:42:45Z</time>
      </trkpt>
      <trkpt lat="43.62585" lon="1.40029">
        <ele>134</ele>
        <time>2025-02-02T11:42:46Z</time>
      </trkpt>
      <trkpt lat="43.62583" lon="1.40028">
        <ele>134</ele>
        <time>2025-02-02T11:42:47Z</time>
      </trkpt>
      <trkpt lat="43.6258" lon="1.40028">
        <ele>134</ele>
        <time>2025-02-02T11:42:48Z</time>
      </trkpt>
      <trkpt lat="43.62578" lon="1.40028">
        <ele>134</ele>
        <time>2025-02-02T11:42:49Z</time>
      </trkpt>
      <trkpt lat="43.62575" lon="1.40028">
        <ele>135</ele>
        <time>2025-02-02T11:42:50Z</time>
      </trkpt>
      <trkpt lat="43.62573" lon="1.40027">
        <ele>135</ele>
        <time>2025-02-02T11:42:51Z</time>
      </trkpt>
      <trkpt lat="43.6257" lon="1.40027">
        <ele>135</ele>
        <time>2025-02-02T11:42:52Z</time>
      </trkpt>
      <trkpt lat="43.62567" lon="1.40027">
        <ele>135</ele>
        <time>2025-02-02T11:42:53Z</time>
      </trkpt>
      <trkpt lat="43.62565" lon="1.40026">
        <ele>135</ele>
        <time>2025-02-02T11:42:54Z</time>
      </trkpt>
      <trkpt lat="43.62561" lon="1.40026">
        <ele>135</ele>
        <time>2025-02-02T11:42:55Z</time>
      </trkpt>
      <trkpt lat="43.62559" lon="1.40026">
        <ele>135</ele>
        <time>2025-02-02T11:42:56Z</time>
      </trkpt>
      <trkpt lat="43.62556" lon="1.40026">
        <ele>135</ele>
        <time>2025-02-02T11:42:57Z</time>
      </trkpt>
      <trkpt lat="43.62552" lon="1.40026">
        <ele>135</ele>
        <time>2025-02-02T11:42:58Z</time>
      </trkpt>
      <trkpt lat="43.62551" lon="1.40026">
        <ele>135</ele>
        <time>2025-02-02T11:42:59Z</time>
      </trkpt>
      <trkpt lat="43.62548" lon="1.40025">
        <ele>135</ele>
        <time>2025-02-02T11:43:00Z</time>
      </trkpt>
      <trkpt lat="43.62546" lon="1.40025">
        <ele>135</ele>
        <time>2025-02-02T11:43:01Z</time>
      </trkpt>
      <trkpt lat="43.62543" lon="1.40025">
        <ele>136</ele>
        <time>2025-02-02T11:43:02Z</time>
      </trkpt>
      <trkpt lat="43.6254" lon="1.40025">
        <ele>136</ele>
        <time>2025-02-02T11:43:03Z</time>
      </trkpt>
      <trkpt lat="43.62538" lon="1.40025">
        <ele>135</ele>
        <time>2025-02-02T11:43:04Z</time>
      </trkpt>
      <trkpt lat="43.62535" lon="1.40024">
        <ele>135</ele>
        <time>2025-02-02T11:43:05Z</time>
      </trkpt>
      <trkpt lat="43.62533" lon="1.40023">
        <ele>136</ele>
        <time>2025-02-02T11:43:06Z</time>
      </trkpt>
      <trkpt lat="43.6253" lon="1.40022">
        <ele>136</ele>
        <time>2025-02-02T11:43:07Z</time>
      </trkpt>
      <trkpt lat="43.62528" lon="1.40022">
        <ele>135</ele>
        <time>2025-02-02T11:43:08Z</time>
      </trkpt>
      <trkpt lat="43.62525" lon="1.40021">
        <ele>135</ele>
        <time>2025-02-02T11:43:09Z</time>
      </trkpt>
      <trkpt lat="43.62523" lon="1.40021">
        <ele>135</ele>
        <time>2025-02-02T11:43:10Z</time>
      </trkpt>
      <trkpt lat="43.6252" lon="1.40021">
        <ele>135</ele>
        <time>2025-02-02T11:43:11Z</time>
      </trkpt>
      <trkpt lat="43.62518" lon="1.4002">
        <ele>135</ele>
        <time>2025-02-02T11:43:12Z</time>
      </trkpt>
      <trkpt lat="43.62515" lon="1.4002">
        <ele>135</ele>
        <time>2025-02-02T11:43:13Z</time>
      </trkpt>
      <trkpt lat="43.62512" lon="1.40019">
        <ele>135</ele>
        <time>2025-02-02T11:43:14Z</time>
      </trkpt>
      <trkpt lat="43.62511" lon="1.40019">
        <ele>136</ele>
        <time>2025-02-02T11:43:15Z</time>
      </trkpt>
      <trkpt lat="43.62509" lon="1.40018">
        <ele>136</ele>
        <time>2025-02-02T11:43:16Z</time>
      </trkpt>
      <trkpt lat="43.62506" lon="1.40018">
        <ele>136</ele>
        <time>2025-02-02T11:43:17Z</time>
      </trkpt>
      <trkpt lat="43.62504" lon="1.40018">
        <ele>136</ele>
        <time>2025-02-02T11:43:18Z</time>
      </trkpt>
      <trkpt lat="43.62502" lon="1.40017">
        <ele>136</ele>
        <time>2025-02-02T11:43:19Z</time>
      </trkpt>
      <trkpt lat="43.62499" lon="1.40017">
        <ele>136</ele>
        <time>2025-02-02T11:43:20Z</time>
      </trkpt>
      <trkpt lat="43.62497" lon="1.40016">
        <ele>136</ele>
        <time>2025-02-02T11:43:21Z</time>
      </trkpt>
      <trkpt lat="43.62494" lon="1.40015">
        <ele>135</ele>
        <time>2025-02-02T11:43:22Z</time>
      </trkpt>
      <trkpt lat="43.62492" lon="1.40012">
        <ele>135</ele>
        <time>2025-02-02T11:43:23Z</time>
      </trkpt>
      <trkpt lat="43.62491" lon="1.40009">
        <ele>135</ele>
        <time>2025-02-02T11:43:24Z</time>
      </trkpt>
      <trkpt lat="43.6249" lon="1.40005">
        <ele>135</ele>
        <time>2025-02-02T11:43:25Z</time>
      </trkpt>
      <trkpt lat="43.62489" lon="1.40002">
        <ele>136</ele>
        <time>2025-02-02T11:43:26Z</time>
      </trkpt>
      <trkpt lat="43.62489" lon="1.39999">
        <ele>137</ele>
        <time>2025-02-02T11:43:27Z</time>
      </trkpt>
      <trkpt lat="43.62489" lon="1.39995">
        <ele>138</ele>
        <time>2025-02-02T11:43:28Z</time>
      </trkpt>
      <trkpt lat="43.62489" lon="1.39991">
        <ele>138</ele>
        <time>2025-02-02T11:43:29Z</time>
      </trkpt>
      <trkpt lat="43.62488" lon="1.39988">
        <ele>138</ele>
        <time>2025-02-02T11:43:30Z</time>
      </trkpt>
      <trkpt lat="43.62488" lon="1.39984">
        <ele>139</ele>
        <time>2025-02-02T11:43:31Z</time>
      </trkpt>
      <trkpt lat="43.62486" lon="1.3998">
        <ele>139</ele>
        <time>2025-02-02T11:43:32Z</time>
      </trkpt>
      <trkpt lat="43.62486" lon="1.39975">
        <ele>139</ele>
        <time>2025-02-02T11:43:33Z</time>
      </trkpt>
      <trkpt lat="43.62486" lon="1.39973">
        <ele>139</ele>
        <time>2025-02-02T11:43:34Z</time>
      </trkpt>
      <trkpt lat="43.62486" lon="1.39969">
        <ele>139</ele>
        <time>2025-02-02T11:43:35Z</time>
      </trkpt>
      <trkpt lat="43.62487" lon="1.39964">
        <ele>139</ele>
        <time>2025-02-02T11:43:36Z</time>
      </trkpt>
      <trkpt lat="43.62487" lon="1.39963">
        <ele>139</ele>
        <time>2025-02-02T11:43:37Z</time>
      </trkpt>
      <trkpt lat="43.62487" lon="1.39963">
        <ele>139</ele>
        <time>2025-02-02T11:43:38Z</time>
      </trkpt>
      <trkpt lat="43.62487" lon="1.39963">
        <ele>139</ele>
        <time>2025-02-02T11:43:39Z</time>
      </trkpt>
      <trkpt lat="43.62486" lon="1.39967">
        <ele>139</ele>
        <time>2025-02-02T11:43:40Z</time>
      </trkpt>
      <trkpt lat="43.62485" lon="1.39971">
        <ele>139</ele>
        <time>2025-02-02T11:43:41Z</time>
      </trkpt>
      <trkpt lat="43.62485" lon="1.39974">
        <ele>139</ele>
        <time>2025-02-02T11:43:42Z</time>
      </trkpt>
      <trkpt lat="43.62484" lon="1.39978">
        <ele>139</ele>
        <time>2025-02-02T11:43:43Z</time>
      </trkpt>
      <trkpt lat="43.62484" lon="1.39981">
        <ele>139</ele>
        <time>2025-02-02T11:43:44Z</time>
      </trkpt>
      <trkpt lat="43.62484" lon="1.39984">
        <ele>140</ele>
        <time>2025-02-02T11:43:45Z</time>
      </trkpt>
      <trkpt lat="43.62483" lon="1.39988">
        <ele>140</ele>
        <time>2025-02-02T11:43:46Z</time>
      </trkpt>
      <trkpt lat="43.62483" lon="1.39991">
        <ele>140</ele>
        <time>2025-02-02T11:43:47Z</time>
      </trkpt>
      <trkpt lat="43.62483" lon="1.39994">
        <ele>141</ele>
        <time>2025-02-02T11:43:48Z</time>
      </trkpt>
      <trkpt lat="43.62483" lon="1.39998">
        <ele>141</ele>
        <time>2025-02-02T11:43:49Z</time>
      </trkpt>
      <trkpt lat="43.62483" lon="1.40001">
        <ele>141</ele>
        <time>2025-02-02T11:43:50Z</time>
      </trkpt>
      <trkpt lat="43.62483" lon="1.40005">
        <ele>141</ele>
        <time>2025-02-02T11:43:51Z</time>
      </trkpt>
      <trkpt lat="43.62482" lon="1.40008">
        <ele>142</ele>
        <time>2025-02-02T11:43:52Z</time>
      </trkpt>
      <trkpt lat="43.62482" lon="1.40012">
        <ele>142</ele>
        <time>2025-02-02T11:43:53Z</time>
      </trkpt>
      <trkpt lat="43.62482" lon="1.40015">
        <ele>142</ele>
        <time>2025-02-02T11:43:54Z</time>
      </trkpt>
      <trkpt lat="43.62482" lon="1.40019">
        <ele>142</ele>
        <time>2025-02-02T11:43:55Z</time>
      </trkpt>
      <trkpt lat="43.62482" lon="1.40021">
        <ele>142</ele>
        <time>2025-02-02T11:43:56Z</time>
      </trkpt>
      <trkpt lat="43.62482" lon="1.40024">
        <ele>142</ele>
        <time>2025-02-02T11:43:57Z</time>
      </trkpt>
      <trkpt lat="43.62482" lon="1.40027">
        <ele>143</ele>
        <time>2025-02-02T11:43:58Z</time>
      </trkpt>
      <trkpt lat="43.62482" lon="1.4003">
        <ele>143</ele>
        <time>2025-02-02T11:43:59Z</time>
      </trkpt>
      <trkpt lat="43.62482" lon="1.40033">
        <ele>142</ele>
        <time>2025-02-02T11:44:00Z</time>
      </trkpt>
      <trkpt lat="43.62482" lon="1.40037">
        <ele>142</ele>
        <time>2025-02-02T11:44:01Z</time>
      </trkpt>
      <trkpt lat="43.62481" lon="1.4004">
        <ele>142</ele>
        <time>2025-02-02T11:44:02Z</time>
      </trkpt>
      <trkpt lat="43.62481" lon="1.40044">
        <ele>142</ele>
        <time>2025-02-02T11:44:03Z</time>
      </trkpt>
      <trkpt lat="43.62481" lon="1.40047">
        <ele>142</ele>
        <time>2025-02-02T11:44:04Z</time>
      </trkpt>
      <trkpt lat="43.62481" lon="1.40051">
        <ele>142</ele>
        <time>2025-02-02T11:44:05Z</time>
      </trkpt>
      <trkpt lat="43.6248" lon="1.40054">
        <ele>142</ele>
        <time>2025-02-02T11:44:06Z</time>
      </trkpt>
      <trkpt lat="43.6248" lon="1.40057">
        <ele>142</ele>
        <time>2025-02-02T11:44:07Z</time>
      </trkpt>
      <trkpt lat="43.6248" lon="1.40061">
        <ele>143</ele>
        <time>2025-02-02T11:44:08Z</time>
      </trkpt>
      <trkpt lat="43.62479" lon="1.40064">
        <ele>143</ele>
        <time>2025-02-02T11:44:09Z</time>
      </trkpt>
      <trkpt lat="43.62479" lon="1.40067">
        <ele>143</ele>
        <time>2025-02-02T11:44:10Z</time>
      </trkpt>
      <trkpt lat="43.62479" lon="1.40071">
        <ele>143</ele>
        <time>2025-02-02T11:44:11Z</time>
      </trkpt>
      <trkpt lat="43.62479" lon="1.40074">
        <ele>143</ele>
        <time>2025-02-02T11:44:12Z</time>
      </trkpt>
      <trkpt lat="43.62479" lon="1.40078">
        <ele>143</ele>
        <time>2025-02-02T11:44:13Z</time>
      </trkpt>
      <trkpt lat="43.62478" lon="1.40083">
        <ele>143</ele>
        <time>2025-02-02T11:44:14Z</time>
      </trkpt>
      <trkpt lat="43.62478" lon="1.40085">
        <ele>143</ele>
        <time>2025-02-02T11:44:15Z</time>
      </trkpt>
      <trkpt lat="43.62478" lon="1.4009">
        <ele>143</ele>
        <time>2025-02-02T11:44:16Z</time>
      </trkpt>
      <trkpt lat="43.62477" lon="1.40092">
        <ele>143</ele>
        <time>2025-02-02T11:44:17Z</time>
      </trkpt>
      <trkpt lat="43.62477" lon="1.40095">
        <ele>143</ele>
        <time>2025-02-02T11:44:18Z</time>
      </trkpt>
      <trkpt lat="43.62477" lon="1.40099">
        <ele>143</ele>
        <time>2025-02-02T11:44:19Z</time>
      </trkpt>
      <trkpt lat="43.62477" lon="1.40102">
        <ele>143</ele>
        <time>2025-02-02T11:44:20Z</time>
      </trkpt>
      <trkpt lat="43.62477" lon="1.40106">
        <ele>143</ele>
        <time>2025-02-02T11:44:21Z</time>
      </trkpt>
      <trkpt lat="43.62477" lon="1.40109">
        <ele>143</ele>
        <time>2025-02-02T11:44:22Z</time>
      </trkpt>
      <trkpt lat="43.62476" lon="1.40113">
        <ele>143</ele>
        <time>2025-02-02T11:44:23Z</time>
      </trkpt>
      <trkpt lat="43.62476" lon="1.40117">
        <ele>143</ele>
        <time>2025-02-02T11:44:24Z</time>
      </trkpt>
      <trkpt lat="43.62475" lon="1.40121">
        <ele>143</ele>
        <time>2025-02-02T11:44:25Z</time>
      </trkpt>
      <trkpt lat="43.62475" lon="1.40124">
        <ele>143</ele>
        <time>2025-02-02T11:44:26Z</time>
      </trkpt>
      <trkpt lat="43.62475" lon="1.40128">
        <ele>143</ele>
        <time>2025-02-02T11:44:27Z</time>
      </trkpt>
      <trkpt lat="43.62475" lon="1.40132">
        <ele>143</ele>
        <time>2025-02-02T11:44:28Z</time>
      </trkpt>
      <trkpt lat="43.62474" lon="1.40136">
        <ele>143</ele>
        <time>2025-02-02T11:44:29Z</time>
      </trkpt>
      <trkpt lat="43.62475" lon="1.4014">
        <ele>143</ele>
        <time>2025-02-02T11:44:30Z</time>
      </trkpt>
      <trkpt lat="43.62475" lon="1.40144">
        <ele>143</ele>
        <time>2025-02-02T11:44:31Z</time>
      </trkpt>
      <trkpt lat="43.62475" lon="1.40147">
        <ele>143</ele>
        <time>2025-02-02T11:44:32Z</time>
      </trkpt>
      <trkpt lat="43.62475" lon="1.40151">
        <ele>143</ele>
        <time>2025-02-02T11:44:33Z</time>
      </trkpt>
      <trkpt lat="43.62475" lon="1.40155">
        <ele>143</ele>
        <time>2025-02-02T11:44:34Z</time>
      </trkpt>
      <trkpt lat="43.62475" lon="1.40158">
        <ele>143</ele>
        <time>2025-02-02T11:44:35Z</time>
      </trkpt>
      <trkpt lat="43.62475" lon="1.40161">
        <ele>143</ele>
        <time>2025-02-02T11:44:36Z</time>
      </trkpt>
      <trkpt lat="43.62474" lon="1.40165">
        <ele>143</ele>
        <time>2025-02-02T11:44:37Z</time>
      </trkpt>
      <trkpt lat="43.62474" lon="1.40168">
        <ele>143</ele>
        <time>2025-02-02T11:44:38Z</time>
      </trkpt>
      <trkpt lat="43.62474" lon="1.40172">
        <ele>143</ele>
        <time>2025-02-02T11:44:39Z</time>
      </trkpt>
      <trkpt lat="43.62473" lon="1.40175">
        <ele>143</ele>
        <time>2025-02-02T11:44:40Z</time>
      </trkpt>
      <trkpt lat="43.62474" lon="1.40179">
        <ele>143</ele>
        <time>2025-02-02T11:44:41Z</time>
      </trkpt>
      <trkpt lat="43.62474" lon="1.40182">
        <ele>143</ele>
        <time>2025-02-02T11:44:42Z</time>
      </trkpt>
      <trkpt lat="43.62473" lon="1.40186">
        <ele>143</ele>
        <time>2025-02-02T11:44:43Z</time>
      </trkpt>
      <trkpt lat="43.62473" lon="1.40189">
        <ele>143</ele>
        <time>2025-02-02T11:44:44Z</time>
      </trkpt>
      <trkpt lat="43.62473" lon="1.40192">
        <ele>143</ele>
        <time>2025-02-02T11:44:45Z</time>
      </trkpt>
      <trkpt lat="43.62473" lon="1.40196">
        <ele>142</ele>
        <time>2025-02-02T11:44:46Z</time>
      </trkpt>
      <trkpt lat="43.62473" lon="1.40199">
        <ele>142</ele>
        <time>2025-02-02T11:44:47Z</time>
      </trkpt>
      <trkpt lat="43.62473" lon="1.40203">
        <ele>142</ele>
        <time>2025-02-02T11:44:48Z</time>
      </trkpt>
      <trkpt lat="43.62473" lon="1.40206">
        <ele>142</ele>
        <time>2025-02-02T11:44:49Z</time>
      </trkpt>
      <trkpt lat="43.62473" lon="1.4021">
        <ele>142</ele>
        <time>2025-02-02T11:44:50Z</time>
      </trkpt>
      <trkpt lat="43.62473" lon="1.40214">
        <ele>142</ele>
        <time>2025-02-02T11:44:51Z</time>
      </trkpt>
      <trkpt lat="43.62473" lon="1.4022">
        <ele>142</ele>
        <time>2025-02-02T11:44:52Z</time>
      </trkpt>
      <trkpt lat="43.62473" lon="1.40222">
        <ele>142</ele>
        <time>2025-02-02T11:44:53Z</time>
      </trkpt>
      <trkpt lat="43.62473" lon="1.40228">
        <ele>142</ele>
        <time>2025-02-02T11:44:54Z</time>
      </trkpt>
      <trkpt lat="43.62473" lon="1.40229">
        <ele>141</ele>
        <time>2025-02-02T11:44:55Z</time>
      </trkpt>
      <trkpt lat="43.62473" lon="1.40233">
        <ele>141</ele>
        <time>2025-02-02T11:44:56Z</time>
      </trkpt>
      <trkpt lat="43.62473" lon="1.40237">
        <ele>140</ele>
        <time>2025-02-02T11:44:57Z</time>
      </trkpt>
      <trkpt lat="43.62473" lon="1.40241">
        <ele>140</ele>
        <time>2025-02-02T11:44:58Z</time>
      </trkpt>
      <trkpt lat="43.62472" lon="1.40245">
        <ele>140</ele>
        <time>2025-02-02T11:44:59Z</time>
      </trkpt>
      <trkpt lat="43.62472" lon="1.40249">
        <ele>140</ele>
        <time>2025-02-02T11:45:00Z</time>
      </trkpt>
      <trkpt lat="43.62471" lon="1.40252">
        <ele>140</ele>
        <time>2025-02-02T11:45:01Z</time>
      </trkpt>
      <trkpt lat="43.62471" lon="1.40252">
        <ele>139</ele>
        <time>2025-02-02T11:45:02Z</time>
      </trkpt>
      <trkpt lat="43.62471" lon="1.40252">
        <ele>139</ele>
        <time>2025-02-02T11:45:03Z</time>
      </trkpt>
      <trkpt lat="43.62474" lon="1.4025">
        <ele>139</ele>
        <time>2025-02-02T11:45:04Z</time>
      </trkpt>
      <trkpt lat="43.62475" lon="1.40247">
        <ele>139</ele>
        <time>2025-02-02T11:45:05Z</time>
      </trkpt>
      <trkpt lat="43.62477" lon="1.40244">
        <ele>139</ele>
        <time>2025-02-02T11:45:06Z</time>
      </trkpt>
      <trkpt lat="43.6248" lon="1.40242">
        <ele>139</ele>
        <time>2025-02-02T11:45:07Z</time>
      </trkpt>
      <trkpt lat="43.62484" lon="1.40242">
        <ele>139</ele>
        <time>2025-02-02T11:45:08Z</time>
      </trkpt>
      <trkpt lat="43.62488" lon="1.40243">
        <ele>139</ele>
        <time>2025-02-02T11:45:09Z</time>
      </trkpt>
      <trkpt lat="43.62491" lon="1.40244">
        <ele>139</ele>
        <time>2025-02-02T11:45:10Z</time>
      </trkpt>
      <trkpt lat="43.62493" lon="1.40243">
        <ele>139</ele>
        <time>2025-02-02T11:45:11Z</time>
      </trkpt>
      <trkpt lat="43.62495" lon="1.40242">
        <ele>138</ele>
        <time>2025-02-02T11:45:12Z</time>
      </trkpt>
      <trkpt lat="43.62498" lon="1.40239">
        <ele>138</ele>
        <time>2025-02-02T11:45:13Z</time>
      </trkpt>
      <trkpt lat="43.62499" lon="1.40238">
        <ele>138</ele>
        <time>2025-02-02T11:45:14Z</time>
      </trkpt>
      <trkpt lat="43.625" lon="1.40237">
        <ele>138</ele>
        <time>2025-02-02T11:45:15Z</time>
      </trkpt>
      <trkpt lat="43.62502" lon="1.40236">
        <ele>137</ele>
        <time>2025-02-02T11:45:16Z</time>
      </trkpt>
      <trkpt lat="43.62504" lon="1.40235">
        <ele>137</ele>
        <time>2025-02-02T11:45:17Z</time>
      </trkpt>
      <trkpt lat="43.62507" lon="1.40234">
        <ele>137</ele>
        <time>2025-02-02T11:45:18Z</time>
      </trkpt>
      <trkpt lat="43.6251" lon="1.40233">
        <ele>136</ele>
        <time>2025-02-02T11:45:19Z</time>
      </trkpt>
      <trkpt lat="43.62512" lon="1.40232">
        <ele>136</ele>
        <time>2025-02-02T11:45:20Z</time>
      </trkpt>
      <trkpt lat="43.62514" lon="1.40229">
        <ele>136</ele>
        <time>2025-02-02T11:45:21Z</time>
      </trkpt>
      <trkpt lat="43.62518" lon="1.40227">
        <ele>136</ele>
        <time>2025-02-02T11:45:22Z</time>
      </trkpt>
      <trkpt lat="43.6252" lon="1.40225">
        <ele>135</ele>
        <time>2025-02-02T11:45:23Z</time>
      </trkpt>
      <trkpt lat="43.62523" lon="1.40223">
        <ele>135</ele>
        <time>2025-02-02T11:45:24Z</time>
      </trkpt>
      <trkpt lat="43.62525" lon="1.40222">
        <ele>135</ele>
        <time>2025-02-02T11:45:25Z</time>
      </trkpt>
      <trkpt lat="43.62527" lon="1.4022">
        <ele>135</ele>
        <time>2025-02-02T11:45:26Z</time>
      </trkpt>
      <trkpt lat="43.62529" lon="1.40218">
        <ele>135</ele>
        <time>2025-02-02T11:45:27Z</time>
      </trkpt>
      <trkpt lat="43.62531" lon="1.40216">
        <ele>135</ele>
        <time>2025-02-02T11:45:28Z</time>
      </trkpt>
      <trkpt lat="43.62534" lon="1.40216">
        <ele>135</ele>
        <time>2025-02-02T11:45:29Z</time>
      </trkpt>
      <trkpt lat="43.62538" lon="1.40213">
        <ele>135</ele>
        <time>2025-02-02T11:45:30Z</time>
      </trkpt>
      <trkpt lat="43.62539" lon="1.40212">
        <ele>135</ele>
        <time>2025-02-02T11:45:31Z</time>
      </trkpt>
      <trkpt lat="43.62541" lon="1.4021">
        <ele>135</ele>
        <time>2025-02-02T11:45:32Z</time>
      </trkpt>
      <trkpt lat="43.62545" lon="1.40209">
        <ele>135</ele>
        <time>2025-02-02T11:45:33Z</time>
      </trkpt>
      <trkpt lat="43.62547" lon="1.40209">
        <ele>135</ele>
        <time>2025-02-02T11:45:34Z</time>
      </trkpt>
      <trkpt lat="43.6255" lon="1.40209">
        <ele>134</ele>
        <time>2025-02-02T11:45:35Z</time>
      </trkpt>
      <trkpt lat="43.62552" lon="1.40208">
        <ele>134</ele>
        <time>2025-02-02T11:45:36Z</time>
      </trkpt>
      <trkpt lat="43.62555" lon="1.40207">
        <ele>134</ele>
        <time>2025-02-02T11:45:37Z</time>
      </trkpt>
      <trkpt lat="43.62558" lon="1.40207">
        <ele>134</ele>
        <time>2025-02-02T11:45:38Z</time>
      </trkpt>
      <trkpt lat="43.6256" lon="1.40208">
        <ele>133</ele>
        <time>2025-02-02T11:45:39Z</time>
      </trkpt>
      <trkpt lat="43.62563" lon="1.40209">
        <ele>134</ele>
        <time>2025-02-02T11:45:40Z</time>
      </trkpt>
      <trkpt lat="43.62565" lon="1.4021">
        <ele>134</ele>
        <time>2025-02-02T11:45:41Z</time>
      </trkpt>
      <trkpt lat="43.62568" lon="1.4021">
        <ele>133</ele>
        <time>2025-02-02T11:45:42Z</time>
      </trkpt>
      <trkpt lat="43.6257" lon="1.4021">
        <ele>133</ele>
        <time>2025-02-02T11:45:43Z</time>
      </trkpt>
      <trkpt lat="43.62573" lon="1.40212">
        <ele>133</ele>
        <time>2025-02-02T11:45:44Z</time>
      </trkpt>
      <trkpt lat="43.62575" lon="1.40212">
        <ele>133</ele>
        <time>2025-02-02T11:45:45Z</time>
      </trkpt>
      <trkpt lat="43.62577" lon="1.40213">
        <ele>134</ele>
        <time>2025-02-02T11:45:46Z</time>
      </trkpt>
      <trkpt lat="43.6258" lon="1.40214">
        <ele>134</ele>
        <time>2025-02-02T11:45:47Z</time>
      </trkpt>
      <trkpt lat="43.62586" lon="1.40216">
        <ele>134</ele>
        <time>2025-02-02T11:45:48Z</time>
      </trkpt>
      <trkpt lat="43.62589" lon="1.40216">
        <ele>134</ele>
        <time>2025-02-02T11:45:49Z</time>
      </trkpt>
      <trkpt lat="43.62593" lon="1.40217">
        <ele>134</ele>
        <time>2025-02-02T11:45:50Z</time>
      </trkpt>
      <trkpt lat="43.62596" lon="1.40217">
        <ele>134</ele>
        <time>2025-02-02T11:45:51Z</time>
      </trkpt>
      <trkpt lat="43.62598" lon="1.40217">
        <ele>134</ele>
        <time>2025-02-02T11:45:52Z</time>
      </trkpt>
      <trkpt lat="43.62601" lon="1.40218">
        <ele>133</ele>
        <time>2025-02-02T11:45:53Z</time>
      </trkpt>
      <trkpt lat="43.62603" lon="1.40218">
        <ele>133</ele>
        <time>2025-02-02T11:45:54Z</time>
      </trkpt>
      <trkpt lat="43.62605" lon="1.40218">
        <ele>133</ele>
        <time>2025-02-02T11:45:55Z</time>
      </trkpt>
      <trkpt lat="43.62608" lon="1.40219">
        <ele>133</ele>
        <time>2025-02-02T11:45:56Z</time>
      </trkpt>
      <trkpt lat="43.6261" lon="1.40219">
        <ele>133</ele>
        <time>2025-02-02T11:45:57Z</time>
      </trkpt>
      <trkpt lat="43.62612" lon="1.40219">
        <ele>133</ele>
        <time>2025-02-02T11:45:58Z</time>
      </trkpt>
      <trkpt lat="43.62615" lon="1.4022">
        <ele>133</ele>
        <time>2025-02-02T11:45:59Z</time>
      </trkpt>
      <trkpt lat="43.62618" lon="1.40221">
        <ele>133</ele>
        <time>2025-02-02T11:46:00Z</time>
      </trkpt>
      <trkpt lat="43.62621" lon="1.40222">
        <ele>133</ele>
        <time>2025-02-02T11:46:01Z</time>
      </trkpt>
      <trkpt lat="43.62623" lon="1.40223">
        <ele>133</ele>
        <time>2025-02-02T11:46:02Z</time>
      </trkpt>
      <trkpt lat="43.62626" lon="1.40223">
        <ele>133</ele>
        <time>2025-02-02T11:46:03Z</time>
      </trkpt>
      <trkpt lat="43.62628" lon="1.40224">
        <ele>133</ele>
        <time>2025-02-02T11:46:04Z</time>
      </trkpt>
      <trkpt lat="43.62631" lon="1.40224">
        <ele>133</ele>
        <time>2025-02-02T11:46:05Z</time>
      </trkpt>
      <trkpt lat="43.62635" lon="1.40225">
        <ele>133</ele>
        <time>2025-02-02T11:46:06Z</time>
      </trkpt>
      <trkpt lat="43.62638" lon="1.40226">
        <ele>133</ele>
        <time>2025-02-02T11:46:07Z</time>
      </trkpt>
      <trkpt lat="43.62642" lon="1.40226">
        <ele>133</ele>
        <time>2025-02-02T11:46:08Z</time>
      </trkpt>
      <trkpt lat="43.62643" lon="1.40226">
        <ele>133</ele>
        <time>2025-02-02T11:46:09Z</time>
      </trkpt>
      <trkpt lat="43.62646" lon="1.40226">
        <ele>133</ele>
        <time>2025-02-02T11:46:10Z</time>
      </trkpt>
      <trkpt lat="43.62648" lon="1.40227">
        <ele>133</ele>
        <time>2025-02-02T11:46:11Z</time>
      </trkpt>
      <trkpt lat="43.62651" lon="1.40227">
        <ele>133</ele>
        <time>2025-02-02T11:46:12Z</time>
      </trkpt>
      <trkpt lat="43.62654" lon="1.40228">
        <ele>133</ele>
        <time>2025-02-02T11:46:13Z</time>
      </trkpt>
      <trkpt lat="43.62656" lon="1.40229">
        <ele>133</ele>
        <time>2025-02-02T11:46:14Z</time>
      </trkpt>
      <trkpt lat="43.62658" lon="1.4023">
        <ele>134</ele>
        <time>2025-02-02T11:46:15Z</time>
      </trkpt>
      <trkpt lat="43.6266" lon="1.4023">
        <ele>134</ele>
        <time>2025-02-02T11:46:16Z</time>
      </trkpt>
      <trkpt lat="43.62663" lon="1.4023">
        <ele>134</ele>
        <time>2025-02-02T11:46:17Z</time>
      </trkpt>
      <trkpt lat="43.62666" lon="1.40231">
        <ele>134</ele>
        <time>2025-02-02T11:46:18Z</time>
      </trkpt>
      <trkpt lat="43.62669" lon="1.40232">
        <ele>134</ele>
        <time>2025-02-02T11:46:19Z</time>
      </trkpt>
      <trkpt lat="43.62671" lon="1.40232">
        <ele>134</ele>
        <time>2025-02-02T11:46:20Z</time>
      </trkpt>
      <trkpt lat="43.62674" lon="1.40233">
        <ele>134</ele>
        <time>2025-02-02T11:46:21Z</time>
      </trkpt>
      <trkpt lat="43.62677" lon="1.40233">
        <ele>134</ele>
        <time>2025-02-02T11:46:22Z</time>
      </trkpt>
      <trkpt lat="43.6268" lon="1.40234">
        <ele>134</ele>
        <time>2025-02-02T11:46:23Z</time>
      </trkpt>
      <trkpt lat="43.62683" lon="1.40234">
        <ele>134</ele>
        <time>2025-02-02T11:46:24Z</time>
      </trkpt>
      <trkpt lat="43.62686" lon="1.40235">
        <ele>134</ele>
        <time>2025-02-02T11:46:25Z</time>
      </trkpt>
      <trkpt lat="43.62689" lon="1.40236">
        <ele>134</ele>
        <time>2025-02-02T11:46:26Z</time>
      </trkpt>
      <trkpt lat="43.62691" lon="1.40236">
        <ele>134</ele>
        <time>2025-02-02T11:46:27Z</time>
      </trkpt>
      <trkpt lat="43.62694" lon="1.40237">
        <ele>134</ele>
        <time>2025-02-02T11:46:28Z</time>
      </trkpt>
      <trkpt lat="43.62697" lon="1.40238">
        <ele>134</ele>
        <time>2025-02-02T11:46:29Z</time>
      </trkpt>
      <trkpt lat="43.62699" lon="1.40238">
        <ele>134</ele>
        <time>2025-02-02T11:46:30Z</time>
      </trkpt>
      <trkpt lat="43.62702" lon="1.40239">
        <ele>134</ele>
        <time>2025-02-02T11:46:31Z</time>
      </trkpt>
      <trkpt lat="43.62705" lon="1.40239">
        <ele>134</ele>
        <time>2025-02-02T11:46:32Z</time>
      </trkpt>
      <trkpt lat="43.62708" lon="1.40239">
        <ele>134</ele>
        <time>2025-02-02T11:46:33Z</time>
      </trkpt>
      <trkpt lat="43.6271" lon="1.4024">
        <ele>134</ele>
        <time>2025-02-02T11:46:34Z</time>
      </trkpt>
      <trkpt lat="43.62713" lon="1.4024">
        <ele>134</ele>
        <time>2025-02-02T11:46:35Z</time>
      </trkpt>
      <trkpt lat="43.62716" lon="1.4024">
        <ele>134</ele>
        <time>2025-02-02T11:46:36Z</time>
      </trkpt>
      <trkpt lat="43.62717" lon="1.40241">
        <ele>134</ele>
        <time>2025-02-02T11:46:37Z</time>
      </trkpt>
      <trkpt lat="43.62718" lon="1.40241">
        <ele>134</ele>
        <time>2025-02-02T11:46:38Z</time>
      </trkpt>
      <trkpt lat="43.6272" lon="1.40241">
        <ele>134</ele>
        <time>2025-02-02T11:46:39Z</time>
      </trkpt>
      <trkpt lat="43.62721" lon="1.40241">
        <ele>134</ele>
        <time>2025-02-02T11:46:40Z</time>
      </trkpt>
      <trkpt lat="43.62729" lon="1.40243">
        <ele>134</ele>
        <time>2025-02-02T11:46:41Z</time>
      </trkpt>
      <trkpt lat="43.62731" lon="1.40244">
        <ele>134</ele>
        <time>2025-02-02T11:46:42Z</time>
      </trkpt>
      <trkpt lat="43.62734" lon="1.40244">
        <ele>134</ele>
        <time>2025-02-02T11:46:43Z</time>
      </trkpt>
      <trkpt lat="43.62736" lon="1.40245">
        <ele>134</ele>
        <time>2025-02-02T11:46:44Z</time>
      </trkpt>
      <trkpt lat="43.6274" lon="1.40245">
        <ele>134</ele>
        <time>2025-02-02T11:46:46Z</time>
      </trkpt>
      <trkpt lat="43.62743" lon="1.40246">
        <ele>134</ele>
        <time>2025-02-02T11:46:47Z</time>
      </trkpt>
      <trkpt lat="43.62747" lon="1.40247">
        <ele>134</ele>
        <time>2025-02-02T11:46:48Z</time>
      </trkpt>
      <trkpt lat="43.6275" lon="1.40247">
        <ele>134</ele>
        <time>2025-02-02T11:46:49Z</time>
      </trkpt>
      <trkpt lat="43.62752" lon="1.40248">
        <ele>133</ele>
        <time>2025-02-02T11:46:50Z</time>
      </trkpt>
      <trkpt lat="43.62754" lon="1.40248">
        <ele>134</ele>
        <time>2025-02-02T11:46:51Z</time>
      </trkpt>
      <trkpt lat="43.62757" lon="1.40249">
        <ele>134</ele>
        <time>2025-02-02T11:46:52Z</time>
      </trkpt>
      <trkpt lat="43.62759" lon="1.4025">
        <ele>134</ele>
        <time>2025-02-02T11:46:53Z</time>
      </trkpt>
      <trkpt lat="43.62762" lon="1.40251">
        <ele>134</ele>
        <time>2025-02-02T11:46:54Z</time>
      </trkpt>
      <trkpt lat="43.62764" lon="1.40253">
        <ele>134</ele>
        <time>2025-02-02T11:46:55Z</time>
      </trkpt>
      <trkpt lat="43.62767" lon="1.40254">
        <ele>134</ele>
        <time>2025-02-02T11:46:56Z</time>
      </trkpt>
      <trkpt lat="43.62769" lon="1.40255">
        <ele>134</ele>
        <time>2025-02-02T11:46:57Z</time>
      </trkpt>
      <trkpt lat="43.62772" lon="1.40257">
        <ele>134</ele>
        <time>2025-02-02T11:46:58Z</time>
      </trkpt>
      <trkpt lat="43.62775" lon="1.40258">
        <ele>134</ele>
        <time>2025-02-02T11:46:59Z</time>
      </trkpt>
      <trkpt lat="43.62777" lon="1.40258">
        <ele>134</ele>
        <time>2025-02-02T11:47:00Z</time>
      </trkpt>
      <trkpt lat="43.62779" lon="1.40258">
        <ele>134</ele>
        <time>2025-02-02T11:47:01Z</time>
      </trkpt>
      <trkpt lat="43.62781" lon="1.40258">
        <ele>134</ele>
        <time>2025-02-02T11:47:02Z</time>
      </trkpt>
      <trkpt lat="43.62783" lon="1.40258">
        <ele>134</ele>
        <time>2025-02-02T11:47:03Z</time>
      </trkpt>
      <trkpt lat="43.62786" lon="1.40259">
        <ele>134</ele>
        <time>2025-02-02T11:47:04Z</time>
      </trkpt>
      <trkpt lat="43.62788" lon="1.40259">
        <ele>134</ele>
        <time>2025-02-02T11:47:06Z</time>
      </trkpt>
      <trkpt lat="43.62791" lon="1.4026">
        <ele>134</ele>
        <time>2025-02-02T11:47:07Z</time>
      </trkpt>
      <trkpt lat="43.62793" lon="1.4026">
        <ele>134</ele>
        <time>2025-02-02T11:47:08Z</time>
      </trkpt>
      <trkpt lat="43.62798" lon="1.40261">
        <ele>134</ele>
        <time>2025-02-02T11:47:09Z</time>
      </trkpt>
      <trkpt lat="43.62802" lon="1.40262">
        <ele>134</ele>
        <time>2025-02-02T11:47:10Z</time>
      </trkpt>
      <trkpt lat="43.62805" lon="1.40263">
        <ele>134</ele>
        <time>2025-02-02T11:47:11Z</time>
      </trkpt>
      <trkpt lat="43.62808" lon="1.40264">
        <ele>134</ele>
        <time>2025-02-02T11:47:12Z</time>
      </trkpt>
      <trkpt lat="43.6281" lon="1.40265">
        <ele>134</ele>
        <time>2025-02-02T11:47:13Z</time>
      </trkpt>
      <trkpt lat="43.62813" lon="1.40266">
        <ele>134</ele>
        <time>2025-02-02T11:47:14Z</time>
      </trkpt>
      <trkpt lat="43.62816" lon="1.40267">
        <ele>134</ele>
        <time>2025-02-02T11:47:15Z</time>
      </trkpt>
      <trkpt lat="43.62818" lon="1.40268">
        <ele>134</ele>
        <time>2025-02-02T11:47:16Z</time>
      </trkpt>
      <trkpt lat="43.62821" lon="1.40269">
        <ele>134</ele>
        <time>2025-02-02T11:47:17Z</time>
      </trkpt>
      <trkpt lat="43.62824" lon="1.40269">
        <ele>134</ele>
        <time>2025-02-02T11:47:18Z</time>
      </trkpt>
      <trkpt lat="43.62827" lon="1.4027">
        <ele>135</ele>
        <time>2025-02-02T11:47:19Z</time>
      </trkpt>
      <trkpt lat="43.6283" lon="1.4027">
        <ele>135</ele>
        <time>2025-02-02T11:47:20Z</time>
      </trkpt>
      <trkpt lat="43.62832" lon="1.40271">
        <ele>135</ele>
        <time>2025-02-02T11:47:21Z</time>
      </trkpt>
      <trkpt lat="43.62835" lon="1.40271">
        <ele>135</ele>
        <time>2025-02-02T11:47:22Z</time>
      </trkpt>
      <trkpt lat="43.62838" lon="1.40271">
        <ele>135</ele>
        <time>2025-02-02T11:47:23Z</time>
      </trkpt>
      <trkpt lat="43.6284" lon="1.40272">
        <ele>135</ele>
        <time>2025-02-02T11:47:24Z</time>
      </trkpt>
      <trkpt lat="43.62843" lon="1.40273">
        <ele>135</ele>
        <time>2025-02-02T11:47:25Z</time>
      </trkpt>
      <trkpt lat="43.62846" lon="1.40274">
        <ele>135</ele>
        <time>2025-02-02T11:47:26Z</time>
      </trkpt>
      <trkpt lat="43.62848" lon="1.40275">
        <ele>135</ele>
        <time>2025-02-02T11:47:27Z</time>
      </trkpt>
      <trkpt lat="43.6285" lon="1.40275">
        <ele>135</ele>
        <time>2025-02-02T11:47:28Z</time>
      </trkpt>
      <trkpt lat="43.62852" lon="1.40276">
        <ele>135</ele>
        <time>2025-02-02T11:47:29Z</time>
      </trkpt>
      <trkpt lat="43.62855" lon="1.40276">
        <ele>135</ele>
        <time>2025-02-02T11:47:30Z</time>
      </trkpt>
      <trkpt lat="43.62857" lon="1.40277">
        <ele>135</ele>
        <time>2025-02-02T11:47:31Z</time>
      </trkpt>
      <trkpt lat="43.6286" lon="1.40279">
        <ele>135</ele>
        <time>2025-02-02T11:47:32Z</time>
      </trkpt>
      <trkpt lat="43.62862" lon="1.4028">
        <ele>135</ele>
        <time>2025-02-02T11:47:33Z</time>
      </trkpt>
      <trkpt lat="43.62865" lon="1.40282">
        <ele>135</ele>
        <time>2025-02-02T11:47:34Z</time>
      </trkpt>
      <trkpt lat="43.62868" lon="1.40283">
        <ele>135</ele>
        <time>2025-02-02T11:47:35Z</time>
      </trkpt>
      <trkpt lat="43.6287" lon="1.40284">
        <ele>135</ele>
        <time>2025-02-02T11:47:36Z</time>
      </trkpt>
      <trkpt lat="43.62873" lon="1.40285">
        <ele>135</ele>
        <time>2025-02-02T11:47:37Z</time>
      </trkpt>
      <trkpt lat="43.62875" lon="1.40285">
        <ele>135</ele>
        <time>2025-02-02T11:47:38Z</time>
      </trkpt>
      <trkpt lat="43.62877" lon="1.40286">
        <ele>134</ele>
        <time>2025-02-02T11:47:39Z</time>
      </trkpt>
      <trkpt lat="43.6288" lon="1.40287">
        <ele>134</ele>
        <time>2025-02-02T11:47:40Z</time>
      </trkpt>
      <trkpt lat="43.62882" lon="1.40288">
        <ele>134</ele>
        <time>2025-02-02T11:47:41Z</time>
      </trkpt>
      <trkpt lat="43.62885" lon="1.40288">
        <ele>134</ele>
        <time>2025-02-02T11:47:42Z</time>
      </trkpt>
      <trkpt lat="43.62887" lon="1.40289">
        <ele>134</ele>
        <time>2025-02-02T11:47:43Z</time>
      </trkpt>
      <trkpt lat="43.6289" lon="1.4029">
        <ele>134</ele>
        <time>2025-02-02T11:47:44Z</time>
      </trkpt>
      <trkpt lat="43.62892" lon="1.40291">
        <ele>134</ele>
        <time>2025-02-02T11:47:45Z</time>
      </trkpt>
      <trkpt lat="43.62895" lon="1.40293">
        <ele>134</ele>
        <time>2025-02-02T11:47:46Z</time>
      </trkpt>
      <trkpt lat="43.62897" lon="1.40293">
        <ele>134</ele>
        <time>2025-02-02T11:47:47Z</time>
      </trkpt>
      <trkpt lat="43.62899" lon="1.40294">
        <ele>134</ele>
        <time>2025-02-02T11:47:48Z</time>
      </trkpt>
      <trkpt lat="43.62902" lon="1.40295">
        <ele>134</ele>
        <time>2025-02-02T11:47:49Z</time>
      </trkpt>
      <trkpt lat="43.62905" lon="1.40295">
        <ele>134</ele>
        <time>2025-02-02T11:47:50Z</time>
      </trkpt>
      <trkpt lat="43.62908" lon="1.40295">
        <ele>134</ele>
        <time>2025-02-02T11:47:51Z</time>
      </trkpt>
      <trkpt lat="43.6291" lon="1.40296">
        <ele>134</ele>
        <time>2025-02-02T11:47:52Z</time>
      </trkpt>
      <trkpt lat="43.62913" lon="1.40297">
        <ele>134</ele>
        <time>2025-02-02T11:47:53Z</time>
      </trkpt>
      <trkpt lat="43.62915" lon="1.40297">
        <ele>134</ele>
        <time>2025-02-02T11:47:54Z</time>
      </trkpt>
      <trkpt lat="43.62918" lon="1.40297">
        <ele>134</ele>
        <time>2025-02-02T11:47:55Z</time>
      </trkpt>
      <trkpt lat="43.62921" lon="1.40298">
        <ele>134</ele>
        <time>2025-02-02T11:47:56Z</time>
      </trkpt>
      <trkpt lat="43.62923" lon="1.40299">
        <ele>134</ele>
        <time>2025-02-02T11:47:57Z</time>
      </trkpt>
      <trkpt lat="43.62926" lon="1.40299">
        <ele>134</ele>
        <time>2025-02-02T11:47:58Z</time>
      </trkpt>
      <trkpt lat="43.62928" lon="1.403">
        <ele>134</ele>
        <time>2025-02-02T11:47:59Z</time>
      </trkpt>
      <trkpt lat="43.62931" lon="1.403">
        <ele>134</ele>
        <time>2025-02-02T11:48:00Z</time>
      </trkpt>
      <trkpt lat="43.62934" lon="1.40301">
        <ele>134</ele>
        <time>2025-02-02T11:48:01Z</time>
      </trkpt>
      <trkpt lat="43.62936" lon="1.40301">
        <ele>134</ele>
        <time>2025-02-02T11:48:02Z</time>
      </trkpt>
      <trkpt lat="43.62939" lon="1.40302">
        <ele>134</ele>
        <time>2025-02-02T11:48:03Z</time>
      </trkpt>
      <trkpt lat="43.62941" lon="1.40303">
        <ele>134</ele>
        <time>2025-02-02T11:48:04Z</time>
      </trkpt>
      <trkpt lat="43.62943" lon="1.40303">
        <ele>134</ele>
        <time>2025-02-02T11:48:05Z</time>
      </trkpt>
      <trkpt lat="43.62946" lon="1.40304">
        <ele>134</ele>
        <time>2025-02-02T11:48:06Z</time>
      </trkpt>
      <trkpt lat="43.62948" lon="1.40305">
        <ele>134</ele>
        <time>2025-02-02T11:48:07Z</time>
      </trkpt>
      <trkpt lat="43.62949" lon="1.40306">
        <ele>134</ele>
        <time>2025-02-02T11:48:08Z</time>
      </trkpt>
      <trkpt lat="43.62952" lon="1.40306">
        <ele>133</ele>
        <time>2025-02-02T11:48:09Z</time>
      </trkpt>
      <trkpt lat="43.62954" lon="1.40307">
        <ele>133</ele>
        <time>2025-02-02T11:48:10Z</time>
      </trkpt>
      <trkpt lat="43.62957" lon="1.40308">
        <ele>133</ele>
        <time>2025-02-02T11:48:11Z</time>
      </trkpt>
      <trkpt lat="43.62959" lon="1.40309">
        <ele>134</ele>
        <time>2025-02-02T11:48:12Z</time>
      </trkpt>
      <trkpt lat="43.62961" lon="1.4031">
        <ele>134</ele>
        <time>2025-02-02T11:48:13Z</time>
      </trkpt>
      <trkpt lat="43.62964" lon="1.40312">
        <ele>133</ele>
        <time>2025-02-02T11:48:14Z</time>
      </trkpt>
      <trkpt lat="43.62966" lon="1.40313">
        <ele>133</ele>
        <time>2025-02-02T11:48:15Z</time>
      </trkpt>
      <trkpt lat="43.62968" lon="1.40314">
        <ele>133</ele>
        <time>2025-02-02T11:48:16Z</time>
      </trkpt>
      <trkpt lat="43.6297" lon="1.40316">
        <ele>133</ele>
        <time>2025-02-02T11:48:17Z</time>
      </trkpt>
      <trkpt lat="43.62972" lon="1.40317">
        <ele>133</ele>
        <time>2025-02-02T11:48:18Z</time>
      </trkpt>
      <trkpt lat="43.62974" lon="1.40318">
        <ele>133</ele>
        <time>2025-02-02T11:48:19Z</time>
      </trkpt>
      <trkpt lat="43.62976" lon="1.40319">
        <ele>133</ele>
        <time>2025-02-02T11:48:20Z</time>
      </trkpt>
      <trkpt lat="43.6298" lon="1.40321">
        <ele>133</ele>
        <time>2025-02-02T11:48:22Z</time>
      </trkpt>
      <trkpt lat="43.62984" lon="1.40323">
        <ele>133</ele>
        <time>2025-02-02T11:48:23Z</time>
      </trkpt>
      <trkpt lat="43.62985" lon="1.40324">
        <ele>133</ele>
        <time>2025-02-02T11:48:24Z</time>
      </trkpt>
      <trkpt lat="43.62987" lon="1.40326">
        <ele>133</ele>
        <time>2025-02-02T11:48:25Z</time>
      </trkpt>
      <trkpt lat="43.62989" lon="1.40327">
        <ele>133</ele>
        <time>2025-02-02T11:48:26Z</time>
      </trkpt>
      <trkpt lat="43.62991" lon="1.40328">
        <ele>133</ele>
        <time>2025-02-02T11:48:27Z</time>
      </trkpt>
      <trkpt lat="43.62993" lon="1.40329">
        <ele>133</ele>
        <time>2025-02-02T11:48:28Z</time>
      </trkpt>
      <trkpt lat="43.62996" lon="1.4033">
        <ele>133</ele>
        <time>2025-02-02T11:48:29Z</time>
      </trkpt>
      <trkpt lat="43.62998" lon="1.40331">
        <ele>133</ele>
        <time>2025-02-02T11:48:30Z</time>
      </trkpt>
      <trkpt lat="43.63" lon="1.40332">
        <ele>133</ele>
        <time>2025-02-02T11:48:31Z</time>
      </trkpt>
      <trkpt lat="43.63004" lon="1.40333">
        <ele>133</ele>
        <time>2025-02-02T11:48:32Z</time>
      </trkpt>
      <trkpt lat="43.63007" lon="1.40333">
        <ele>133</ele>
        <time>2025-02-02T11:48:33Z</time>
      </trkpt>
      <trkpt lat="43.63009" lon="1.40334">
        <ele>133</ele>
        <time>2025-02-02T11:48:34Z</time>
      </trkpt>
      <trkpt lat="43.63012" lon="1.40336">
        <ele>133</ele>
        <time>2025-02-02T11:48:35Z</time>
      </trkpt>
      <trkpt lat="43.63015" lon="1.40338">
        <ele>133</ele>
        <time>2025-02-02T11:48:36Z</time>
      </trkpt>
      <trkpt lat="43.63018" lon="1.40339">
        <ele>133</ele>
        <time>2025-02-02T11:48:37Z</time>
      </trkpt>
      <trkpt lat="43.63021" lon="1.40341">
        <ele>133</ele>
        <time>2025-02-02T11:48:38Z</time>
      </trkpt>
      <trkpt lat="43.63023" lon="1.40343">
        <ele>133</ele>
        <time>2025-02-02T11:48:39Z</time>
      </trkpt>
      <trkpt lat="43.63027" lon="1.40344">
        <ele>133</ele>
        <time>2025-02-02T11:48:40Z</time>
      </trkpt>
      <trkpt lat="43.63029" lon="1.40346">
        <ele>133</ele>
        <time>2025-02-02T11:48:41Z</time>
      </trkpt>
      <trkpt lat="43.63031" lon="1.40347">
        <ele>133</ele>
        <time>2025-02-02T11:48:42Z</time>
      </trkpt>
      <trkpt lat="43.63034" lon="1.40349">
        <ele>133</ele>
        <time>2025-02-02T11:48:43Z</time>
      </trkpt>
      <trkpt lat="43.63036" lon="1.4035">
        <ele>133</ele>
        <time>2025-02-02T11:48:44Z</time>
      </trkpt>
      <trkpt lat="43.63038" lon="1.40351">
        <ele>133</ele>
        <time>2025-02-02T11:48:45Z</time>
      </trkpt>
      <trkpt lat="43.63041" lon="1.40352">
        <ele>133</ele>
        <time>2025-02-02T11:48:46Z</time>
      </trkpt>
      <trkpt lat="43.63043" lon="1.40353">
        <ele>133</ele>
        <time>2025-02-02T11:48:47Z</time>
      </trkpt>
      <trkpt lat="43.63046" lon="1.40354">
        <ele>133</ele>
        <time>2025-02-02T11:48:48Z</time>
      </trkpt>
      <trkpt lat="43.63048" lon="1.40356">
        <ele>133</ele>
        <time>2025-02-02T11:48:49Z</time>
      </trkpt>
      <trkpt lat="43.6305" lon="1.40357">
        <ele>133</ele>
        <time>2025-02-02T11:48:50Z</time>
      </trkpt>
      <trkpt lat="43.63053" lon="1.40358">
        <ele>133</ele>
        <time>2025-02-02T11:48:51Z</time>
      </trkpt>
      <trkpt lat="43.63055" lon="1.4036">
        <ele>133</ele>
        <time>2025-02-02T11:48:52Z</time>
      </trkpt>
      <trkpt lat="43.63058" lon="1.40361">
        <ele>133</ele>
        <time>2025-02-02T11:48:53Z</time>
      </trkpt>
      <trkpt lat="43.6306" lon="1.40362">
        <ele>133</ele>
        <time>2025-02-02T11:48:54Z</time>
      </trkpt>
      <trkpt lat="43.63063" lon="1.40363">
        <ele>133</ele>
        <time>2025-02-02T11:48:55Z</time>
      </trkpt>
      <trkpt lat="43.63065" lon="1.40365">
        <ele>133</ele>
        <time>2025-02-02T11:48:56Z</time>
      </trkpt>
      <trkpt lat="43.63068" lon="1.40366">
        <ele>133</ele>
        <time>2025-02-02T11:48:57Z</time>
      </trkpt>
      <trkpt lat="43.6307" lon="1.40367">
        <ele>133</ele>
        <time>2025-02-02T11:48:58Z</time>
      </trkpt>
      <trkpt lat="43.63073" lon="1.40368">
        <ele>133</ele>
        <time>2025-02-02T11:48:59Z</time>
      </trkpt>
      <trkpt lat="43.63076" lon="1.40368">
        <ele>133</ele>
        <time>2025-02-02T11:49:00Z</time>
      </trkpt>
      <trkpt lat="43.63078" lon="1.40369">
        <ele>133</ele>
        <time>2025-02-02T11:49:01Z</time>
      </trkpt>
      <trkpt lat="43.63081" lon="1.40369">
        <ele>133</ele>
        <time>2025-02-02T11:49:02Z</time>
      </trkpt>
      <trkpt lat="43.63084" lon="1.4037">
        <ele>133</ele>
        <time>2025-02-02T11:49:03Z</time>
      </trkpt>
      <trkpt lat="43.63086" lon="1.40371">
        <ele>133</ele>
        <time>2025-02-02T11:49:04Z</time>
      </trkpt>
      <trkpt lat="43.63089" lon="1.40372">
        <ele>133</ele>
        <time>2025-02-02T11:49:05Z</time>
      </trkpt>
      <trkpt lat="43.63092" lon="1.40374">
        <ele>133</ele>
        <time>2025-02-02T11:49:06Z</time>
      </trkpt>
      <trkpt lat="43.63094" lon="1.40374">
        <ele>133</ele>
        <time>2025-02-02T11:49:07Z</time>
      </trkpt>
      <trkpt lat="43.63097" lon="1.40375">
        <ele>133</ele>
        <time>2025-02-02T11:49:08Z</time>
      </trkpt>
      <trkpt lat="43.63099" lon="1.40377">
        <ele>133</ele>
        <time>2025-02-02T11:49:09Z</time>
      </trkpt>
      <trkpt lat="43.63102" lon="1.40379">
        <ele>133</ele>
        <time>2025-02-02T11:49:10Z</time>
      </trkpt>
      <trkpt lat="43.63105" lon="1.4038">
        <ele>133</ele>
        <time>2025-02-02T11:49:11Z</time>
      </trkpt>
      <trkpt lat="43.63108" lon="1.40382">
        <ele>134</ele>
        <time>2025-02-02T11:49:12Z</time>
      </trkpt>
      <trkpt lat="43.6311" lon="1.40383">
        <ele>134</ele>
        <time>2025-02-02T11:49:13Z</time>
      </trkpt>
      <trkpt lat="43.63113" lon="1.40384">
        <ele>134</ele>
        <time>2025-02-02T11:49:14Z</time>
      </trkpt>
      <trkpt lat="43.63115" lon="1.40386">
        <ele>133</ele>
        <time>2025-02-02T11:49:15Z</time>
      </trkpt>
      <trkpt lat="43.63117" lon="1.40387">
        <ele>133</ele>
        <time>2025-02-02T11:49:16Z</time>
      </trkpt>
      <trkpt lat="43.63119" lon="1.40389">
        <ele>133</ele>
        <time>2025-02-02T11:49:17Z</time>
      </trkpt>
      <trkpt lat="43.63123" lon="1.40391">
        <ele>133</ele>
        <time>2025-02-02T11:49:18Z</time>
      </trkpt>
      <trkpt lat="43.63124" lon="1.40391">
        <ele>133</ele>
        <time>2025-02-02T11:49:19Z</time>
      </trkpt>
      <trkpt lat="43.63127" lon="1.40393">
        <ele>133</ele>
        <time>2025-02-02T11:49:20Z</time>
      </trkpt>
      <trkpt lat="43.6313" lon="1.40394">
        <ele>133</ele>
        <time>2025-02-02T11:49:21Z</time>
      </trkpt>
      <trkpt lat="43.63132" lon="1.40395">
        <ele>133</ele>
        <time>2025-02-02T11:49:22Z</time>
      </trkpt>
      <trkpt lat="43.63134" lon="1.40396">
        <ele>134</ele>
        <time>2025-02-02T11:49:23Z</time>
      </trkpt>
      <trkpt lat="43.63137" lon="1.40397">
        <ele>134</ele>
        <time>2025-02-02T11:49:24Z</time>
      </trkpt>
      <trkpt lat="43.63139" lon="1.40398">
        <ele>134</ele>
        <time>2025-02-02T11:49:25Z</time>
      </trkpt>
      <trkpt lat="43.63141" lon="1.40399">
        <ele>134</ele>
        <time>2025-02-02T11:49:26Z</time>
      </trkpt>
      <trkpt lat="43.63144" lon="1.40399">
        <ele>134</ele>
        <time>2025-02-02T11:49:27Z</time>
      </trkpt>
      <trkpt lat="43.63146" lon="1.40401">
        <ele>134</ele>
        <time>2025-02-02T11:49:28Z</time>
      </trkpt>
      <trkpt lat="43.63149" lon="1.40402">
        <ele>134</ele>
        <time>2025-02-02T11:49:29Z</time>
      </trkpt>
      <trkpt lat="43.63151" lon="1.40403">
        <ele>134</ele>
        <time>2025-02-02T11:49:30Z</time>
      </trkpt>
      <trkpt lat="43.63154" lon="1.40404">
        <ele>134</ele>
        <time>2025-02-02T11:49:31Z</time>
      </trkpt>
      <trkpt lat="43.63156" lon="1.40405">
        <ele>134</ele>
        <time>2025-02-02T11:49:32Z</time>
      </trkpt>
      <trkpt lat="43.63159" lon="1.40406">
        <ele>134</ele>
        <time>2025-02-02T11:49:33Z</time>
      </trkpt>
      <trkpt lat="43.63161" lon="1.40406">
        <ele>134</ele>
        <time>2025-02-02T11:49:34Z</time>
      </trkpt>
      <trkpt lat="43.63163" lon="1.40407">
        <ele>134</ele>
        <time>2025-02-02T11:49:35Z</time>
      </trkpt>
      <trkpt lat="43.63166" lon="1.40408">
        <ele>134</ele>
        <time>2025-02-02T11:49:36Z</time>
      </trkpt>
      <trkpt lat="43.63169" lon="1.40409">
        <ele>134</ele>
        <time>2025-02-02T11:49:37Z</time>
      </trkpt>
      <trkpt lat="43.63172" lon="1.4041">
        <ele>134</ele>
        <time>2025-02-02T11:49:38Z</time>
      </trkpt>
      <trkpt lat="43.63174" lon="1.40411">
        <ele>134</ele>
        <time>2025-02-02T11:49:39Z</time>
      </trkpt>
      <trkpt lat="43.63177" lon="1.40412">
        <ele>135</ele>
        <time>2025-02-02T11:49:40Z</time>
      </trkpt>
      <trkpt lat="43.63179" lon="1.40412">
        <ele>135</ele>
        <time>2025-02-02T11:49:41Z</time>
      </trkpt>
      <trkpt lat="43.63182" lon="1.40413">
        <ele>135</ele>
        <time>2025-02-02T11:49:42Z</time>
      </trkpt>
      <trkpt lat="43.63184" lon="1.40413">
        <ele>134</ele>
        <time>2025-02-02T11:49:43Z</time>
      </trkpt>
      <trkpt lat="43.63187" lon="1.40414">
        <ele>134</ele>
        <time>2025-02-02T11:49:44Z</time>
      </trkpt>
      <trkpt lat="43.63189" lon="1.40415">
        <ele>134</ele>
        <time>2025-02-02T11:49:45Z</time>
      </trkpt>
      <trkpt lat="43.63192" lon="1.40417">
        <ele>134</ele>
        <time>2025-02-02T11:49:46Z</time>
      </trkpt>
      <trkpt lat="43.63194" lon="1.40418">
        <ele>134</ele>
        <time>2025-02-02T11:49:47Z</time>
      </trkpt>
      <trkpt lat="43.63196" lon="1.40418">
        <ele>134</ele>
        <time>2025-02-02T11:49:48Z</time>
      </trkpt>
      <trkpt lat="43.63198" lon="1.4042">
        <ele>134</ele>
        <time>2025-02-02T11:49:49Z</time>
      </trkpt>
      <trkpt lat="43.63201" lon="1.4042">
        <ele>134</ele>
        <time>2025-02-02T11:49:50Z</time>
      </trkpt>
      <trkpt lat="43.63203" lon="1.40421">
        <ele>134</ele>
        <time>2025-02-02T11:49:51Z</time>
      </trkpt>
      <trkpt lat="43.63206" lon="1.40422">
        <ele>134</ele>
        <time>2025-02-02T11:49:52Z</time>
      </trkpt>
      <trkpt lat="43.63209" lon="1.40424">
        <ele>134</ele>
        <time>2025-02-02T11:49:53Z</time>
      </trkpt>
      <trkpt lat="43.63212" lon="1.40426">
        <ele>134</ele>
        <time>2025-02-02T11:49:54Z</time>
      </trkpt>
      <trkpt lat="43.63214" lon="1.40427">
        <ele>134</ele>
        <time>2025-02-02T11:49:55Z</time>
      </trkpt>
      <trkpt lat="43.63217" lon="1.40428">
        <ele>134</ele>
        <time>2025-02-02T11:49:56Z</time>
      </trkpt>
      <trkpt lat="43.6322" lon="1.40428">
        <ele>134</ele>
        <time>2025-02-02T11:49:57Z</time>
      </trkpt>
      <trkpt lat="43.63223" lon="1.40429">
        <ele>134</ele>
        <time>2025-02-02T11:49:58Z</time>
      </trkpt>
      <trkpt lat="43.63225" lon="1.4043">
        <ele>134</ele>
        <time>2025-02-02T11:49:59Z</time>
      </trkpt>
      <trkpt lat="43.63228" lon="1.40432">
        <ele>134</ele>
        <time>2025-02-02T11:50:00Z</time>
      </trkpt>
      <trkpt lat="43.6323" lon="1.40433">
        <ele>134</ele>
        <time>2025-02-02T11:50:01Z</time>
      </trkpt>
      <trkpt lat="43.63233" lon="1.40435">
        <ele>134</ele>
        <time>2025-02-02T11:50:02Z</time>
      </trkpt>
      <trkpt lat="43.63236" lon="1.40437">
        <ele>134</ele>
        <time>2025-02-02T11:50:03Z</time>
      </trkpt>
      <trkpt lat="43.63238" lon="1.40438">
        <ele>134</ele>
        <time>2025-02-02T11:50:04Z</time>
      </trkpt>
      <trkpt lat="43.6324" lon="1.40439">
        <ele>134</ele>
        <time>2025-02-02T11:50:05Z</time>
      </trkpt>
      <trkpt lat="43.63242" lon="1.4044">
        <ele>134</ele>
        <time>2025-02-02T11:50:06Z</time>
      </trkpt>
      <trkpt lat="43.63245" lon="1.4044">
        <ele>134</ele>
        <time>2025-02-02T11:50:07Z</time>
      </trkpt>
      <trkpt lat="43.63247" lon="1.40441">
        <ele>134</ele>
        <time>2025-02-02T11:50:08Z</time>
      </trkpt>
      <trkpt lat="43.6325" lon="1.40441">
        <ele>134</ele>
        <time>2025-02-02T11:50:09Z</time>
      </trkpt>
      <trkpt lat="43.63253" lon="1.40441">
        <ele>134</ele>
        <time>2025-02-02T11:50:10Z</time>
      </trkpt>
      <trkpt lat="43.63255" lon="1.40441">
        <ele>134</ele>
        <time>2025-02-02T11:50:11Z</time>
      </trkpt>
      <trkpt lat="43.63258" lon="1.40442">
        <ele>134</ele>
        <time>2025-02-02T11:50:12Z</time>
      </trkpt>
      <trkpt lat="43.63259" lon="1.40442">
        <ele>134</ele>
        <time>2025-02-02T11:50:13Z</time>
      </trkpt>
      <trkpt lat="43.63262" lon="1.40442">
        <ele>134</ele>
        <time>2025-02-02T11:50:14Z</time>
      </trkpt>
      <trkpt lat="43.63264" lon="1.40442">
        <ele>134</ele>
        <time>2025-02-02T11:50:15Z</time>
      </trkpt>
      <trkpt lat="43.63267" lon="1.40442">
        <ele>134</ele>
        <time>2025-02-02T11:50:16Z</time>
      </trkpt>
      <trkpt lat="43.6327" lon="1.40443">
        <ele>134</ele>
        <time>2025-02-02T11:50:17Z</time>
      </trkpt>
      <trkpt lat="43.63273" lon="1.40444">
        <ele>134</ele>
        <time>2025-02-02T11:50:18Z</time>
      </trkpt>
      <trkpt lat="43.63276" lon="1.40445">
        <ele>134</ele>
        <time>2025-02-02T11:50:19Z</time>
      </trkpt>
      <trkpt lat="43.63278" lon="1.40446">
        <ele>134</ele>
        <time>2025-02-02T11:50:20Z</time>
      </trkpt>
      <trkpt lat="43.63281" lon="1.40448">
        <ele>134</ele>
        <time>2025-02-02T11:50:21Z</time>
      </trkpt>
      <trkpt lat="43.63284" lon="1.40449">
        <ele>135</ele>
        <time>2025-02-02T11:50:22Z</time>
      </trkpt>
      <trkpt lat="43.63286" lon="1.40451">
        <ele>135</ele>
        <time>2025-02-02T11:50:23Z</time>
      </trkpt>
      <trkpt lat="43.63288" lon="1.40452">
        <ele>135</ele>
        <time>2025-02-02T11:50:24Z</time>
      </trkpt>
      <trkpt lat="43.63291" lon="1.40454">
        <ele>135</ele>
        <time>2025-02-02T11:50:25Z</time>
      </trkpt>
      <trkpt lat="43.63293" lon="1.40455">
        <ele>135</ele>
        <time>2025-02-02T11:50:26Z</time>
      </trkpt>
      <trkpt lat="43.63296" lon="1.40457">
        <ele>135</ele>
        <time>2025-02-02T11:50:27Z</time>
      </trkpt>
      <trkpt lat="43.63298" lon="1.40458">
        <ele>135</ele>
        <time>2025-02-02T11:50:28Z</time>
      </trkpt>
      <trkpt lat="43.63301" lon="1.4046">
        <ele>135</ele>
        <time>2025-02-02T11:50:29Z</time>
      </trkpt>
      <trkpt lat="43.63304" lon="1.40461">
        <ele>135</ele>
        <time>2025-02-02T11:50:30Z</time>
      </trkpt>
      <trkpt lat="43.63306" lon="1.40463">
        <ele>135</ele>
        <time>2025-02-02T11:50:31Z</time>
      </trkpt>
      <trkpt lat="43.63309" lon="1.40464">
        <ele>135</ele>
        <time>2025-02-02T11:50:32Z</time>
      </trkpt>
      <trkpt lat="43.63312" lon="1.40466">
        <ele>135</ele>
        <time>2025-02-02T11:50:33Z</time>
      </trkpt>
      <trkpt lat="43.63316" lon="1.40468">
        <ele>135</ele>
        <time>2025-02-02T11:50:34Z</time>
      </trkpt>
      <trkpt lat="43.63317" lon="1.40468">
        <ele>134</ele>
        <time>2025-02-02T11:50:35Z</time>
      </trkpt>
      <trkpt lat="43.63319" lon="1.40469">
        <ele>134</ele>
        <time>2025-02-02T11:50:36Z</time>
      </trkpt>
      <trkpt lat="43.63321" lon="1.40469">
        <ele>134</ele>
        <time>2025-02-02T11:50:37Z</time>
      </trkpt>
      <trkpt lat="43.63324" lon="1.4047">
        <ele>134</ele>
        <time>2025-02-02T11:50:38Z</time>
      </trkpt>
      <trkpt lat="43.63326" lon="1.4047">
        <ele>134</ele>
        <time>2025-02-02T11:50:39Z</time>
      </trkpt>
      <trkpt lat="43.63329" lon="1.40471">
        <ele>134</ele>
        <time>2025-02-02T11:50:40Z</time>
      </trkpt>
      <trkpt lat="43.63332" lon="1.40471">
        <ele>134</ele>
        <time>2025-02-02T11:50:41Z</time>
      </trkpt>
      <trkpt lat="43.63335" lon="1.40472">
        <ele>134</ele>
        <time>2025-02-02T11:50:42Z</time>
      </trkpt>
      <trkpt lat="43.63337" lon="1.40472">
        <ele>134</ele>
        <time>2025-02-02T11:50:43Z</time>
      </trkpt>
      <trkpt lat="43.6334" lon="1.40472">
        <ele>134</ele>
        <time>2025-02-02T11:50:44Z</time>
      </trkpt>
      <trkpt lat="43.63343" lon="1.40473">
        <ele>133</ele>
        <time>2025-02-02T11:50:45Z</time>
      </trkpt>
      <trkpt lat="43.63345" lon="1.40474">
        <ele>133</ele>
        <time>2025-02-02T11:50:46Z</time>
      </trkpt>
      <trkpt lat="43.63347" lon="1.40474">
        <ele>133</ele>
        <time>2025-02-02T11:50:47Z</time>
      </trkpt>
      <trkpt lat="43.6335" lon="1.40475">
        <ele>133</ele>
        <time>2025-02-02T11:50:48Z</time>
      </trkpt>
      <trkpt lat="43.63352" lon="1.40475">
        <ele>133</ele>
        <time>2025-02-02T11:50:49Z</time>
      </trkpt>
      <trkpt lat="43.63355" lon="1.40476">
        <ele>133</ele>
        <time>2025-02-02T11:50:50Z</time>
      </trkpt>
      <trkpt lat="43.63357" lon="1.40477">
        <ele>133</ele>
        <time>2025-02-02T11:50:51Z</time>
      </trkpt>
      <trkpt lat="43.6336" lon="1.40478">
        <ele>133</ele>
        <time>2025-02-02T11:50:52Z</time>
      </trkpt>
      <trkpt lat="43.63364" lon="1.40479">
        <ele>133</ele>
        <time>2025-02-02T11:50:53Z</time>
      </trkpt>
      <trkpt lat="43.63365" lon="1.4048">
        <ele>134</ele>
        <time>2025-02-02T11:50:54Z</time>
      </trkpt>
      <trkpt lat="43.63368" lon="1.40481">
        <ele>134</ele>
        <time>2025-02-02T11:50:55Z</time>
      </trkpt>
      <trkpt lat="43.63371" lon="1.40483">
        <ele>134</ele>
        <time>2025-02-02T11:50:56Z</time>
      </trkpt>
      <trkpt lat="43.63373" lon="1.40484">
        <ele>134</ele>
        <time>2025-02-02T11:50:57Z</time>
      </trkpt>
      <trkpt lat="43.63376" lon="1.40486">
        <ele>134</ele>
        <time>2025-02-02T11:50:58Z</time>
      </trkpt>
      <trkpt lat="43.63378" lon="1.40487">
        <ele>134</ele>
        <time>2025-02-02T11:50:59Z</time>
      </trkpt>
      <trkpt lat="43.63381" lon="1.40489">
        <ele>134</ele>
        <time>2025-02-02T11:51:00Z</time>
      </trkpt>
      <trkpt lat="43.63384" lon="1.4049">
        <ele>134</ele>
        <time>2025-02-02T11:51:01Z</time>
      </trkpt>
      <trkpt lat="43.63386" lon="1.40491">
        <ele>134</ele>
        <time>2025-02-02T11:51:02Z</time>
      </trkpt>
      <trkpt lat="43.63389" lon="1.40491">
        <ele>134</ele>
        <time>2025-02-02T11:51:03Z</time>
      </trkpt>
      <trkpt lat="43.63391" lon="1.40492">
        <ele>134</ele>
        <time>2025-02-02T11:51:04Z</time>
      </trkpt>
      <trkpt lat="43.63394" lon="1.40491">
        <ele>134</ele>
        <time>2025-02-02T11:51:05Z</time>
      </trkpt>
      <trkpt lat="43.63396" lon="1.40492">
        <ele>135</ele>
        <time>2025-02-02T11:51:06Z</time>
      </trkpt>
      <trkpt lat="43.63399" lon="1.40492">
        <ele>135</ele>
        <time>2025-02-02T11:51:07Z</time>
      </trkpt>
      <trkpt lat="43.63401" lon="1.40492">
        <ele>134</ele>
        <time>2025-02-02T11:51:08Z</time>
      </trkpt>
      <trkpt lat="43.63403" lon="1.40492">
        <ele>134</ele>
        <time>2025-02-02T11:51:09Z</time>
      </trkpt>
      <trkpt lat="43.63406" lon="1.40492">
        <ele>135</ele>
        <time>2025-02-02T11:51:10Z</time>
      </trkpt>
      <trkpt lat="43.63409" lon="1.40491">
        <ele>135</ele>
        <time>2025-02-02T11:51:11Z</time>
      </trkpt>
      <trkpt lat="43.63413" lon="1.4049">
        <ele>135</ele>
        <time>2025-02-02T11:51:12Z</time>
      </trkpt>
      <trkpt lat="43.63414" lon="1.4049">
        <ele>135</ele>
        <time>2025-02-02T11:51:13Z</time>
      </trkpt>
      <trkpt lat="43.63417" lon="1.4049">
        <ele>135</ele>
        <time>2025-02-02T11:51:14Z</time>
      </trkpt>
      <trkpt lat="43.63419" lon="1.40489">
        <ele>135</ele>
        <time>2025-02-02T11:51:15Z</time>
      </trkpt>
      <trkpt lat="43.63421" lon="1.40488">
        <ele>135</ele>
        <time>2025-02-02T11:51:16Z</time>
      </trkpt>
      <trkpt lat="43.63424" lon="1.40487">
        <ele>135</ele>
        <time>2025-02-02T11:51:17Z</time>
      </trkpt>
      <trkpt lat="43.63426" lon="1.40487">
        <ele>135</ele>
        <time>2025-02-02T11:51:18Z</time>
      </trkpt>
      <trkpt lat="43.63428" lon="1.40486">
        <ele>135</ele>
        <time>2025-02-02T11:51:19Z</time>
      </trkpt>
      <trkpt lat="43.6343" lon="1.40485">
        <ele>135</ele>
        <time>2025-02-02T11:51:20Z</time>
      </trkpt>
      <trkpt lat="43.63432" lon="1.40485">
        <ele>134</ele>
        <time>2025-02-02T11:51:21Z</time>
      </trkpt>
      <trkpt lat="43.63435" lon="1.40484">
        <ele>134</ele>
        <time>2025-02-02T11:51:22Z</time>
      </trkpt>
      <trkpt lat="43.63438" lon="1.40484">
        <ele>134</ele>
        <time>2025-02-02T11:51:23Z</time>
      </trkpt>
      <trkpt lat="43.63441" lon="1.40484">
        <ele>134</ele>
        <time>2025-02-02T11:51:24Z</time>
      </trkpt>
      <trkpt lat="43.63444" lon="1.40484">
        <ele>134</ele>
        <time>2025-02-02T11:51:25Z</time>
      </trkpt>
      <trkpt lat="43.63447" lon="1.40483">
        <ele>134</ele>
        <time>2025-02-02T11:51:26Z</time>
      </trkpt>
      <trkpt lat="43.63449" lon="1.40483">
        <ele>134</ele>
        <time>2025-02-02T11:51:27Z</time>
      </trkpt>
      <trkpt lat="43.63452" lon="1.40482">
        <ele>134</ele>
        <time>2025-02-02T11:51:28Z</time>
      </trkpt>
      <trkpt lat="43.63455" lon="1.40482">
        <ele>134</ele>
        <time>2025-02-02T11:51:29Z</time>
      </trkpt>
      <trkpt lat="43.63458" lon="1.40481">
        <ele>134</ele>
        <time>2025-02-02T11:51:30Z</time>
      </trkpt>
      <trkpt lat="43.63462" lon="1.4048">
        <ele>134</ele>
        <time>2025-02-02T11:51:31Z</time>
      </trkpt>
      <trkpt lat="43.63463" lon="1.4048">
        <ele>134</ele>
        <time>2025-02-02T11:51:32Z</time>
      </trkpt>
      <trkpt lat="43.63466" lon="1.40479">
        <ele>134</ele>
        <time>2025-02-02T11:51:33Z</time>
      </trkpt>
      <trkpt lat="43.63469" lon="1.40479">
        <ele>134</ele>
        <time>2025-02-02T11:51:34Z</time>
      </trkpt>
      <trkpt lat="43.63472" lon="1.40479">
        <ele>135</ele>
        <time>2025-02-02T11:51:35Z</time>
      </trkpt>
      <trkpt lat="43.63474" lon="1.40479">
        <ele>135</ele>
        <time>2025-02-02T11:51:36Z</time>
      </trkpt>
      <trkpt lat="43.63477" lon="1.40479">
        <ele>134</ele>
        <time>2025-02-02T11:51:37Z</time>
      </trkpt>
      <trkpt lat="43.6348" lon="1.40479">
        <ele>134</ele>
        <time>2025-02-02T11:51:38Z</time>
      </trkpt>
      <trkpt lat="43.63483" lon="1.40479">
        <ele>134</ele>
        <time>2025-02-02T11:51:39Z</time>
      </trkpt>
      <trkpt lat="43.63485" lon="1.40479">
        <ele>134</ele>
        <time>2025-02-02T11:51:40Z</time>
      </trkpt>
      <trkpt lat="43.63488" lon="1.40479">
        <ele>134</ele>
        <time>2025-02-02T11:51:41Z</time>
      </trkpt>
      <trkpt lat="43.63491" lon="1.40478">
        <ele>134</ele>
        <time>2025-02-02T11:51:42Z</time>
      </trkpt>
      <trkpt lat="43.63493" lon="1.40478">
        <ele>134</ele>
        <time>2025-02-02T11:51:43Z</time>
      </trkpt>
      <trkpt lat="43.63496" lon="1.40478">
        <ele>134</ele>
        <time>2025-02-02T11:51:44Z</time>
      </trkpt>
      <trkpt lat="43.63499" lon="1.40478">
        <ele>134</ele>
        <time>2025-02-02T11:51:45Z</time>
      </trkpt>
      <trkpt lat="43.63502" lon="1.40478">
        <ele>134</ele>
        <time>2025-02-02T11:51:46Z</time>
      </trkpt>
      <trkpt lat="43.63504" lon="1.40478">
        <ele>134</ele>
        <time>2025-02-02T11:51:47Z</time>
      </trkpt>
      <trkpt lat="43.63507" lon="1.40478">
        <ele>135</ele>
        <time>2025-02-02T11:51:48Z</time>
      </trkpt>
      <trkpt lat="43.6351" lon="1.40478">
        <ele>135</ele>
        <time>2025-02-02T11:51:49Z</time>
      </trkpt>
      <trkpt lat="43.63512" lon="1.40478">
        <ele>135</ele>
        <time>2025-02-02T11:51:50Z</time>
      </trkpt>
      <trkpt lat="43.63515" lon="1.40478">
        <ele>134</ele>
        <time>2025-02-02T11:51:51Z</time>
      </trkpt>
      <trkpt lat="43.63518" lon="1.40478">
        <ele>134</ele>
        <time>2025-02-02T11:51:52Z</time>
      </trkpt>
      <trkpt lat="43.6352" lon="1.40478">
        <ele>134</ele>
        <time>2025-02-02T11:51:53Z</time>
      </trkpt>
      <trkpt lat="43.63523" lon="1.40478">
        <ele>134</ele>
        <time>2025-02-02T11:51:54Z</time>
      </trkpt>
      <trkpt lat="43.63526" lon="1.40476">
        <ele>134</ele>
        <time>2025-02-02T11:51:55Z</time>
      </trkpt>
      <trkpt lat="43.63529" lon="1.40476">
        <ele>134</ele>
        <time>2025-02-02T11:51:56Z</time>
      </trkpt>
      <trkpt lat="43.63531" lon="1.40475">
        <ele>134</ele>
        <time>2025-02-02T11:51:57Z</time>
      </trkpt>
      <trkpt lat="43.63534" lon="1.40476">
        <ele>134</ele>
        <time>2025-02-02T11:51:58Z</time>
      </trkpt>
      <trkpt lat="43.63537" lon="1.40476">
        <ele>133</ele>
        <time>2025-02-02T11:51:59Z</time>
      </trkpt>
      <trkpt lat="43.6354" lon="1.40476">
        <ele>133</ele>
        <time>2025-02-02T11:52:00Z</time>
      </trkpt>
      <trkpt lat="43.63542" lon="1.40476">
        <ele>133</ele>
        <time>2025-02-02T11:52:01Z</time>
      </trkpt>
      <trkpt lat="43.63545" lon="1.40476">
        <ele>133</ele>
        <time>2025-02-02T11:52:02Z</time>
      </trkpt>
      <trkpt lat="43.63548" lon="1.40475">
        <ele>133</ele>
        <time>2025-02-02T11:52:03Z</time>
      </trkpt>
      <trkpt lat="43.6355" lon="1.40475">
        <ele>133</ele>
        <time>2025-02-02T11:52:04Z</time>
      </trkpt>
      <trkpt lat="43.63552" lon="1.40475">
        <ele>133</ele>
        <time>2025-02-02T11:52:05Z</time>
      </trkpt>
      <trkpt lat="43.63555" lon="1.40474">
        <ele>133</ele>
        <time>2025-02-02T11:52:06Z</time>
      </trkpt>
      <trkpt lat="43.63557" lon="1.40474">
        <ele>133</ele>
        <time>2025-02-02T11:52:07Z</time>
      </trkpt>
      <trkpt lat="43.63559" lon="1.40474">
        <ele>133</ele>
        <time>2025-02-02T11:52:08Z</time>
      </trkpt>
      <trkpt lat="43.63562" lon="1.40474">
        <ele>133</ele>
        <time>2025-02-02T11:52:09Z</time>
      </trkpt>
      <trkpt lat="43.63562" lon="1.40474">
        <ele>133</ele>
        <time>2025-02-02T11:52:10Z</time>
      </trkpt>
      <trkpt lat="43.63567" lon="1.40475">
        <ele>133</ele>
        <time>2025-02-02T11:52:11Z</time>
      </trkpt>
      <trkpt lat="43.6357" lon="1.40475">
        <ele>133</ele>
        <time>2025-02-02T11:52:12Z</time>
      </trkpt>
      <trkpt lat="43.63573" lon="1.40475">
        <ele>133</ele>
        <time>2025-02-02T11:52:13Z</time>
      </trkpt>
      <trkpt lat="43.63576" lon="1.40476">
        <ele>133</ele>
        <time>2025-02-02T11:52:14Z</time>
      </trkpt>
      <trkpt lat="43.63578" lon="1.40477">
        <ele>133</ele>
        <time>2025-02-02T11:52:15Z</time>
      </trkpt>
      <trkpt lat="43.63581" lon="1.40478">
        <ele>133</ele>
        <time>2025-02-02T11:52:16Z</time>
      </trkpt>
      <trkpt lat="43.63584" lon="1.40478">
        <ele>133</ele>
        <time>2025-02-02T11:52:17Z</time>
      </trkpt>
      <trkpt lat="43.63586" lon="1.40478">
        <ele>133</ele>
        <time>2025-02-02T11:52:18Z</time>
      </trkpt>
      <trkpt lat="43.63589" lon="1.40478">
        <ele>133</ele>
        <time>2025-02-02T11:52:19Z</time>
      </trkpt>
      <trkpt lat="43.63591" lon="1.40477">
        <ele>133</ele>
        <time>2025-02-02T11:52:20Z</time>
      </trkpt>
      <trkpt lat="43.63594" lon="1.40477">
        <ele>133</ele>
        <time>2025-02-02T11:52:21Z</time>
      </trkpt>
      <trkpt lat="43.63596" lon="1.40477">
        <ele>133</ele>
        <time>2025-02-02T11:52:22Z</time>
      </trkpt>
      <trkpt lat="43.63599" lon="1.40477">
        <ele>134</ele>
        <time>2025-02-02T11:52:23Z</time>
      </trkpt>
      <trkpt lat="43.63601" lon="1.40477">
        <ele>134</ele>
        <time>2025-02-02T11:52:24Z</time>
      </trkpt>
      <trkpt lat="43.63604" lon="1.40479">
        <ele>134</ele>
        <time>2025-02-02T11:52:25Z</time>
      </trkpt>
      <trkpt lat="43.63607" lon="1.4048">
        <ele>134</ele>
        <time>2025-02-02T11:52:26Z</time>
      </trkpt>
      <trkpt lat="43.6361" lon="1.4048">
        <ele>134</ele>
        <time>2025-02-02T11:52:27Z</time>
      </trkpt>
      <trkpt lat="43.63613" lon="1.40481">
        <ele>134</ele>
        <time>2025-02-02T11:52:28Z</time>
      </trkpt>
      <trkpt lat="43.63615" lon="1.40481">
        <ele>134</ele>
        <time>2025-02-02T11:52:29Z</time>
      </trkpt>
      <trkpt lat="43.63618" lon="1.40481">
        <ele>134</ele>
        <time>2025-02-02T11:52:30Z</time>
      </trkpt>
      <trkpt lat="43.6362" lon="1.40481">
        <ele>134</ele>
        <time>2025-02-02T11:52:31Z</time>
      </trkpt>
      <trkpt lat="43.63623" lon="1.40481">
        <ele>133</ele>
        <time>2025-02-02T11:52:32Z</time>
      </trkpt>
      <trkpt lat="43.63626" lon="1.4048">
        <ele>133</ele>
        <time>2025-02-02T11:52:33Z</time>
      </trkpt>
      <trkpt lat="43.63628" lon="1.4048">
        <ele>133</ele>
        <time>2025-02-02T11:52:34Z</time>
      </trkpt>
      <trkpt lat="43.63631" lon="1.40479">
        <ele>133</ele>
        <time>2025-02-02T11:52:35Z</time>
      </trkpt>
      <trkpt lat="43.63634" lon="1.40479">
        <ele>133</ele>
        <time>2025-02-02T11:52:36Z</time>
      </trkpt>
      <trkpt lat="43.63636" lon="1.40479">
        <ele>133</ele>
        <time>2025-02-02T11:52:37Z</time>
      </trkpt>
      <trkpt lat="43.63639" lon="1.40479">
        <ele>133</ele>
        <time>2025-02-02T11:52:38Z</time>
      </trkpt>
      <trkpt lat="43.63641" lon="1.40478">
        <ele>133</ele>
        <time>2025-02-02T11:52:39Z</time>
      </trkpt>
      <trkpt lat="43.63643" lon="1.40478">
        <ele>133</ele>
        <time>2025-02-02T11:52:40Z</time>
      </trkpt>
      <trkpt lat="43.63646" lon="1.40478">
        <ele>133</ele>
        <time>2025-02-02T11:52:41Z</time>
      </trkpt>
      <trkpt lat="43.63649" lon="1.40478">
        <ele>133</ele>
        <time>2025-02-02T11:52:42Z</time>
      </trkpt>
      <trkpt lat="43.63651" lon="1.40478">
        <ele>134</ele>
        <time>2025-02-02T11:52:43Z</time>
      </trkpt>
      <trkpt lat="43.63654" lon="1.40477">
        <ele>134</ele>
        <time>2025-02-02T11:52:44Z</time>
      </trkpt>
      <trkpt lat="43.63656" lon="1.40477">
        <ele>134</ele>
        <time>2025-02-02T11:52:45Z</time>
      </trkpt>
      <trkpt lat="43.63659" lon="1.40477">
        <ele>134</ele>
        <time>2025-02-02T11:52:46Z</time>
      </trkpt>
      <trkpt lat="43.63662" lon="1.40477">
        <ele>134</ele>
        <time>2025-02-02T11:52:47Z</time>
      </trkpt>
      <trkpt lat="43.63665" lon="1.40477">
        <ele>133</ele>
        <time>2025-02-02T11:52:48Z</time>
      </trkpt>
      <trkpt lat="43.63667" lon="1.40477">
        <ele>133</ele>
        <time>2025-02-02T11:52:49Z</time>
      </trkpt>
      <trkpt lat="43.6367" lon="1.40477">
        <ele>133</ele>
        <time>2025-02-02T11:52:50Z</time>
      </trkpt>
      <trkpt lat="43.63672" lon="1.40477">
        <ele>133</ele>
        <time>2025-02-02T11:52:51Z</time>
      </trkpt>
      <trkpt lat="43.63675" lon="1.40477">
        <ele>133</ele>
        <time>2025-02-02T11:52:52Z</time>
      </trkpt>
      <trkpt lat="43.63677" lon="1.40477">
        <ele>133</ele>
        <time>2025-02-02T11:52:53Z</time>
      </trkpt>
      <trkpt lat="43.63679" lon="1.40477">
        <ele>133</ele>
        <time>2025-02-02T11:52:54Z</time>
      </trkpt>
      <trkpt lat="43.63681" lon="1.40477">
        <ele>133</ele>
        <time>2025-02-02T11:52:55Z</time>
      </trkpt>
      <trkpt lat="43.63684" lon="1.40477">
        <ele>133</ele>
        <time>2025-02-02T11:52:56Z</time>
      </trkpt>
      <trkpt lat="43.63687" lon="1.40477">
        <ele>133</ele>
        <time>2025-02-02T11:52:57Z</time>
      </trkpt>
      <trkpt lat="43.63689" lon="1.40477">
        <ele>133</ele>
        <time>2025-02-02T11:52:58Z</time>
      </trkpt>
      <trkpt lat="43.63692" lon="1.40476">
        <ele>133</ele>
        <time>2025-02-02T11:52:59Z</time>
      </trkpt>
      <trkpt lat="43.63695" lon="1.40476">
        <ele>133</ele>
        <time>2025-02-02T11:53:00Z</time>
      </trkpt>
      <trkpt lat="43.63697" lon="1.40476">
        <ele>133</ele>
        <time>2025-02-02T11:53:01Z</time>
      </trkpt>
      <trkpt lat="43.637" lon="1.40477">
        <ele>133</ele>
        <time>2025-02-02T11:53:02Z</time>
      </trkpt>
      <trkpt lat="43.63703" lon="1.40477">
        <ele>133</ele>
        <time>2025-02-02T11:53:03Z</time>
      </trkpt>
      <trkpt lat="43.63706" lon="1.40478">
        <ele>133</ele>
        <time>2025-02-02T11:53:04Z</time>
      </trkpt>
      <trkpt lat="43.63709" lon="1.40478">
        <ele>133</ele>
        <time>2025-02-02T11:53:05Z</time>
      </trkpt>
      <trkpt lat="43.63712" lon="1.40478">
        <ele>133</ele>
        <time>2025-02-02T11:53:06Z</time>
      </trkpt>
      <trkpt lat="43.63715" lon="1.40477">
        <ele>133</ele>
        <time>2025-02-02T11:53:07Z</time>
      </trkpt>
      <trkpt lat="43.63718" lon="1.40477">
        <ele>133</ele>
        <time>2025-02-02T11:53:08Z</time>
      </trkpt>
      <trkpt lat="43.6372" lon="1.40477">
        <ele>134</ele>
        <time>2025-02-02T11:53:09Z</time>
      </trkpt>
      <trkpt lat="43.63723" lon="1.40477">
        <ele>134</ele>
        <time>2025-02-02T11:53:10Z</time>
      </trkpt>
      <trkpt lat="43.63726" lon="1.40476">
        <ele>134</ele>
        <time>2025-02-02T11:53:11Z</time>
      </trkpt>
      <trkpt lat="43.63729" lon="1.40476">
        <ele>134</ele>
        <time>2025-02-02T11:53:12Z</time>
      </trkpt>
      <trkpt lat="43.63731" lon="1.40476">
        <ele>134</ele>
        <time>2025-02-02T11:53:13Z</time>
      </trkpt>
      <trkpt lat="43.63734" lon="1.40475">
        <ele>134</ele>
        <time>2025-02-02T11:53:14Z</time>
      </trkpt>
      <trkpt lat="43.63737" lon="1.40475">
        <ele>134</ele>
        <time>2025-02-02T11:53:15Z</time>
      </trkpt>
      <trkpt lat="43.63739" lon="1.40475">
        <ele>134</ele>
        <time>2025-02-02T11:53:16Z</time>
      </trkpt>
      <trkpt lat="43.63741" lon="1.40474">
        <ele>134</ele>
        <time>2025-02-02T11:53:17Z</time>
      </trkpt>
      <trkpt lat="43.63744" lon="1.40474">
        <ele>134</ele>
        <time>2025-02-02T11:53:18Z</time>
      </trkpt>
      <trkpt lat="43.63746" lon="1.40473">
        <ele>134</ele>
        <time>2025-02-02T11:53:19Z</time>
      </trkpt>
      <trkpt lat="43.63749" lon="1.40472">
        <ele>134</ele>
        <time>2025-02-02T11:53:20Z</time>
      </trkpt>
      <trkpt lat="43.63752" lon="1.40471">
        <ele>134</ele>
        <time>2025-02-02T11:53:21Z</time>
      </trkpt>
      <trkpt lat="43.63755" lon="1.40469">
        <ele>134</ele>
        <time>2025-02-02T11:53:22Z</time>
      </trkpt>
      <trkpt lat="43.63759" lon="1.40468">
        <ele>134</ele>
        <time>2025-02-02T11:53:23Z</time>
      </trkpt>
      <trkpt lat="43.6376" lon="1.40468">
        <ele>134</ele>
        <time>2025-02-02T11:53:24Z</time>
      </trkpt>
      <trkpt lat="43.63764" lon="1.40467">
        <ele>134</ele>
        <time>2025-02-02T11:53:25Z</time>
      </trkpt>
      <trkpt lat="43.63765" lon="1.40466">
        <ele>134</ele>
        <time>2025-02-02T11:53:26Z</time>
      </trkpt>
      <trkpt lat="43.63768" lon="1.40466">
        <ele>134</ele>
        <time>2025-02-02T11:53:27Z</time>
      </trkpt>
      <trkpt lat="43.63771" lon="1.40466">
        <ele>133</ele>
        <time>2025-02-02T11:53:28Z</time>
      </trkpt>
      <trkpt lat="43.63773" lon="1.40465">
        <ele>133</ele>
        <time>2025-02-02T11:53:29Z</time>
      </trkpt>
      <trkpt lat="43.63776" lon="1.40465">
        <ele>133</ele>
        <time>2025-02-02T11:53:30Z</time>
      </trkpt>
      <trkpt lat="43.63779" lon="1.40466">
        <ele>133</ele>
        <time>2025-02-02T11:53:31Z</time>
      </trkpt>
      <trkpt lat="43.63781" lon="1.40465">
        <ele>133</ele>
        <time>2025-02-02T11:53:32Z</time>
      </trkpt>
      <trkpt lat="43.63783" lon="1.40464">
        <ele>133</ele>
        <time>2025-02-02T11:53:33Z</time>
      </trkpt>
      <trkpt lat="43.63786" lon="1.40464">
        <ele>133</ele>
        <time>2025-02-02T11:53:34Z</time>
      </trkpt>
      <trkpt lat="43.63788" lon="1.40464">
        <ele>133</ele>
        <time>2025-02-02T11:53:35Z</time>
      </trkpt>
      <trkpt lat="43.6379" lon="1.40464">
        <ele>133</ele>
        <time>2025-02-02T11:53:36Z</time>
      </trkpt>
      <trkpt lat="43.63793" lon="1.40463">
        <ele>133</ele>
        <time>2025-02-02T11:53:37Z</time>
      </trkpt>
      <trkpt lat="43.63795" lon="1.40463">
        <ele>133</ele>
        <time>2025-02-02T11:53:38Z</time>
      </trkpt>
      <trkpt lat="43.63798" lon="1.40462">
        <ele>133</ele>
        <time>2025-02-02T11:53:39Z</time>
      </trkpt>
      <trkpt lat="43.63801" lon="1.40462">
        <ele>133</ele>
        <time>2025-02-02T11:53:40Z</time>
      </trkpt>
      <trkpt lat="43.63803" lon="1.40462">
        <ele>133</ele>
        <time>2025-02-02T11:53:41Z</time>
      </trkpt>
      <trkpt lat="43.63808" lon="1.40463">
        <ele>133</ele>
        <time>2025-02-02T11:53:42Z</time>
      </trkpt>
      <trkpt lat="43.63809" lon="1.40463">
        <ele>134</ele>
        <time>2025-02-02T11:53:43Z</time>
      </trkpt>
      <trkpt lat="43.63814" lon="1.40464">
        <ele>134</ele>
        <time>2025-02-02T11:53:44Z</time>
      </trkpt>
      <trkpt lat="43.63815" lon="1.40464">
        <ele>135</ele>
        <time>2025-02-02T11:53:45Z</time>
      </trkpt>
      <trkpt lat="43.63818" lon="1.40464">
        <ele>135</ele>
        <time>2025-02-02T11:53:46Z</time>
      </trkpt>
      <trkpt lat="43.6382" lon="1.40464">
        <ele>135</ele>
        <time>2025-02-02T11:53:47Z</time>
      </trkpt>
      <trkpt lat="43.63823" lon="1.40464">
        <ele>135</ele>
        <time>2025-02-02T11:53:48Z</time>
      </trkpt>
      <trkpt lat="43.63825" lon="1.40464">
        <ele>135</ele>
        <time>2025-02-02T11:53:49Z</time>
      </trkpt>
      <trkpt lat="43.63828" lon="1.40464">
        <ele>135</ele>
        <time>2025-02-02T11:53:50Z</time>
      </trkpt>
      <trkpt lat="43.63831" lon="1.40463">
        <ele>135</ele>
        <time>2025-02-02T11:53:51Z</time>
      </trkpt>
      <trkpt lat="43.63834" lon="1.40462">
        <ele>135</ele>
        <time>2025-02-02T11:53:52Z</time>
      </trkpt>
      <trkpt lat="43.63837" lon="1.40461">
        <ele>135</ele>
        <time>2025-02-02T11:53:53Z</time>
      </trkpt>
      <trkpt lat="43.6384" lon="1.4046">
        <ele>135</ele>
        <time>2025-02-02T11:53:54Z</time>
      </trkpt>
      <trkpt lat="43.63843" lon="1.40459">
        <ele>135</ele>
        <time>2025-02-02T11:53:55Z</time>
      </trkpt>
      <trkpt lat="43.63845" lon="1.40458">
        <ele>135</ele>
        <time>2025-02-02T11:53:56Z</time>
      </trkpt>
      <trkpt lat="43.63848" lon="1.40458">
        <ele>135</ele>
        <time>2025-02-02T11:53:57Z</time>
      </trkpt>
      <trkpt lat="43.63851" lon="1.40458">
        <ele>135</ele>
        <time>2025-02-02T11:53:58Z</time>
      </trkpt>
      <trkpt lat="43.63854" lon="1.40457">
        <ele>135</ele>
        <time>2025-02-02T11:53:59Z</time>
      </trkpt>
      <trkpt lat="43.63858" lon="1.40456">
        <ele>135</ele>
        <time>2025-02-02T11:54:00Z</time>
      </trkpt>
      <trkpt lat="43.63859" lon="1.40456">
        <ele>135</ele>
        <time>2025-02-02T11:54:01Z</time>
      </trkpt>
      <trkpt lat="43.63862" lon="1.40455">
        <ele>135</ele>
        <time>2025-02-02T11:54:02Z</time>
      </trkpt>
      <trkpt lat="43.63866" lon="1.40454">
        <ele>135</ele>
        <time>2025-02-02T11:54:03Z</time>
      </trkpt>
      <trkpt lat="43.63867" lon="1.40453">
        <ele>135</ele>
        <time>2025-02-02T11:54:04Z</time>
      </trkpt>
      <trkpt lat="43.63869" lon="1.40453">
        <ele>135</ele>
        <time>2025-02-02T11:54:05Z</time>
      </trkpt>
      <trkpt lat="43.63872" lon="1.40452">
        <ele>135</ele>
        <time>2025-02-02T11:54:06Z</time>
      </trkpt>
      <trkpt lat="43.63874" lon="1.40451">
        <ele>135</ele>
        <time>2025-02-02T11:54:07Z</time>
      </trkpt>
      <trkpt lat="43.63876" lon="1.4045">
        <ele>135</ele>
        <time>2025-02-02T11:54:08Z</time>
      </trkpt>
      <trkpt lat="43.63878" lon="1.4045">
        <ele>135</ele>
        <time>2025-02-02T11:54:09Z</time>
      </trkpt>
      <trkpt lat="43.63881" lon="1.40449">
        <ele>135</ele>
        <time>2025-02-02T11:54:10Z</time>
      </trkpt>
      <trkpt lat="43.63883" lon="1.40449">
        <ele>135</ele>
        <time>2025-02-02T11:54:11Z</time>
      </trkpt>
      <trkpt lat="43.63886" lon="1.40448">
        <ele>135</ele>
        <time>2025-02-02T11:54:12Z</time>
      </trkpt>
      <trkpt lat="43.63888" lon="1.40448">
        <ele>135</ele>
        <time>2025-02-02T11:54:13Z</time>
      </trkpt>
      <trkpt lat="43.63891" lon="1.40447">
        <ele>135</ele>
        <time>2025-02-02T11:54:14Z</time>
      </trkpt>
      <trkpt lat="43.63895" lon="1.40447">
        <ele>135</ele>
        <time>2025-02-02T11:54:15Z</time>
      </trkpt>
      <trkpt lat="43.63896" lon="1.40446">
        <ele>134</ele>
        <time>2025-02-02T11:54:16Z</time>
      </trkpt>
      <trkpt lat="43.63899" lon="1.40446">
        <ele>134</ele>
        <time>2025-02-02T11:54:17Z</time>
      </trkpt>
      <trkpt lat="43.63901" lon="1.40445">
        <ele>135</ele>
        <time>2025-02-02T11:54:18Z</time>
      </trkpt>
      <trkpt lat="43.63905" lon="1.40445">
        <ele>135</ele>
        <time>2025-02-02T11:54:19Z</time>
      </trkpt>
      <trkpt lat="43.63907" lon="1.40445">
        <ele>134</ele>
        <time>2025-02-02T11:54:20Z</time>
      </trkpt>
      <trkpt lat="43.63909" lon="1.40444">
        <ele>134</ele>
        <time>2025-02-02T11:54:21Z</time>
      </trkpt>
      <trkpt lat="43.63913" lon="1.40444">
        <ele>134</ele>
        <time>2025-02-02T11:54:22Z</time>
      </trkpt>
      <trkpt lat="43.63914" lon="1.40444">
        <ele>134</ele>
        <time>2025-02-02T11:54:23Z</time>
      </trkpt>
      <trkpt lat="43.63917" lon="1.40444">
        <ele>134</ele>
        <time>2025-02-02T11:54:24Z</time>
      </trkpt>
      <trkpt lat="43.63919" lon="1.40444">
        <ele>135</ele>
        <time>2025-02-02T11:54:25Z</time>
      </trkpt>
      <trkpt lat="43.63921" lon="1.40444">
        <ele>135</ele>
        <time>2025-02-02T11:54:26Z</time>
      </trkpt>
      <trkpt lat="43.63923" lon="1.40444">
        <ele>135</ele>
        <time>2025-02-02T11:54:27Z</time>
      </trkpt>
      <trkpt lat="43.63926" lon="1.40443">
        <ele>135</ele>
        <time>2025-02-02T11:54:28Z</time>
      </trkpt>
      <trkpt lat="43.63928" lon="1.40443">
        <ele>135</ele>
        <time>2025-02-02T11:54:29Z</time>
      </trkpt>
      <trkpt lat="43.6393" lon="1.40443">
        <ele>135</ele>
        <time>2025-02-02T11:54:30Z</time>
      </trkpt>
      <trkpt lat="43.63932" lon="1.40443">
        <ele>135</ele>
        <time>2025-02-02T11:54:31Z</time>
      </trkpt>
      <trkpt lat="43.63935" lon="1.40443">
        <ele>135</ele>
        <time>2025-02-02T11:54:32Z</time>
      </trkpt>
      <trkpt lat="43.63937" lon="1.40442">
        <ele>135</ele>
        <time>2025-02-02T11:54:33Z</time>
      </trkpt>
      <trkpt lat="43.63939" lon="1.40441">
        <ele>135</ele>
        <time>2025-02-02T11:54:34Z</time>
      </trkpt>
      <trkpt lat="43.63941" lon="1.4044">
        <ele>135</ele>
        <time>2025-02-02T11:54:35Z</time>
      </trkpt>
      <trkpt lat="43.63944" lon="1.40439">
        <ele>135</ele>
        <time>2025-02-02T11:54:36Z</time>
      </trkpt>
      <trkpt lat="43.63947" lon="1.40438">
        <ele>135</ele>
        <time>2025-02-02T11:54:37Z</time>
      </trkpt>
      <trkpt lat="43.6395" lon="1.40438">
        <ele>135</ele>
        <time>2025-02-02T11:54:38Z</time>
      </trkpt>
      <trkpt lat="43.63953" lon="1.40437">
        <ele>135</ele>
        <time>2025-02-02T11:54:39Z</time>
      </trkpt>
      <trkpt lat="43.63956" lon="1.40437">
        <ele>135</ele>
        <time>2025-02-02T11:54:40Z</time>
      </trkpt>
      <trkpt lat="43.63959" lon="1.40436">
        <ele>135</ele>
        <time>2025-02-02T11:54:41Z</time>
      </trkpt>
      <trkpt lat="43.63962" lon="1.40435">
        <ele>135</ele>
        <time>2025-02-02T11:54:42Z</time>
      </trkpt>
      <trkpt lat="43.63964" lon="1.40435">
        <ele>135</ele>
        <time>2025-02-02T11:54:43Z</time>
      </trkpt>
      <trkpt lat="43.63966" lon="1.40434">
        <ele>135</ele>
        <time>2025-02-02T11:54:44Z</time>
      </trkpt>
      <trkpt lat="43.63969" lon="1.40434">
        <ele>135</ele>
        <time>2025-02-02T11:54:45Z</time>
      </trkpt>
      <trkpt lat="43.63971" lon="1.40433">
        <ele>135</ele>
        <time>2025-02-02T11:54:46Z</time>
      </trkpt>
      <trkpt lat="43.63974" lon="1.40433">
        <ele>135</ele>
        <time>2025-02-02T11:54:47Z</time>
      </trkpt>
      <trkpt lat="43.63976" lon="1.40432">
        <ele>135</ele>
        <time>2025-02-02T11:54:48Z</time>
      </trkpt>
      <trkpt lat="43.63979" lon="1.40431">
        <ele>135</ele>
        <time>2025-02-02T11:54:49Z</time>
      </trkpt>
      <trkpt lat="43.63981" lon="1.40431">
        <ele>135</ele>
        <time>2025-02-02T11:54:50Z</time>
      </trkpt>
      <trkpt lat="43.63984" lon="1.4043">
        <ele>135</ele>
        <time>2025-02-02T11:54:51Z</time>
      </trkpt>
      <trkpt lat="43.63987" lon="1.40429">
        <ele>135</ele>
        <time>2025-02-02T11:54:52Z</time>
      </trkpt>
      <trkpt lat="43.6399" lon="1.40429">
        <ele>135</ele>
        <time>2025-02-02T11:54:53Z</time>
      </trkpt>
      <trkpt lat="43.63992" lon="1.40429">
        <ele>135</ele>
        <time>2025-02-02T11:54:54Z</time>
      </trkpt>
      <trkpt lat="43.63995" lon="1.40428">
        <ele>135</ele>
        <time>2025-02-02T11:54:55Z</time>
      </trkpt>
      <trkpt lat="43.63998" lon="1.40427">
        <ele>135</ele>
        <time>2025-02-02T11:54:56Z</time>
      </trkpt>
      <trkpt lat="43.64" lon="1.40426">
        <ele>135</ele>
        <time>2025-02-02T11:54:57Z</time>
      </trkpt>
      <trkpt lat="43.64004" lon="1.40425">
        <ele>135</ele>
        <time>2025-02-02T11:54:58Z</time>
      </trkpt>
      <trkpt lat="43.64005" lon="1.40425">
        <ele>135</ele>
        <time>2025-02-02T11:54:59Z</time>
      </trkpt>
      <trkpt lat="43.64009" lon="1.40424">
        <ele>135</ele>
        <time>2025-02-02T11:55:00Z</time>
      </trkpt>
      <trkpt lat="43.64011" lon="1.40424">
        <ele>135</ele>
        <time>2025-02-02T11:55:01Z</time>
      </trkpt>
      <trkpt lat="43.64013" lon="1.40424">
        <ele>135</ele>
        <time>2025-02-02T11:55:02Z</time>
      </trkpt>
      <trkpt lat="43.64016" lon="1.40424">
        <ele>135</ele>
        <time>2025-02-02T11:55:03Z</time>
      </trkpt>
      <trkpt lat="43.64019" lon="1.40424">
        <ele>135</ele>
        <time>2025-02-02T11:55:04Z</time>
      </trkpt>
      <trkpt lat="43.64022" lon="1.40424">
        <ele>135</ele>
        <time>2025-02-02T11:55:05Z</time>
      </trkpt>
      <trkpt lat="43.64025" lon="1.40424">
        <ele>136</ele>
        <time>2025-02-02T11:55:06Z</time>
      </trkpt>
      <trkpt lat="43.64027" lon="1.40424">
        <ele>136</ele>
        <time>2025-02-02T11:55:07Z</time>
      </trkpt>
      <trkpt lat="43.6403" lon="1.40423">
        <ele>136</ele>
        <time>2025-02-02T11:55:08Z</time>
      </trkpt>
      <trkpt lat="43.64032" lon="1.40422">
        <ele>136</ele>
        <time>2025-02-02T11:55:09Z</time>
      </trkpt>
      <trkpt lat="43.64035" lon="1.40421">
        <ele>136</ele>
        <time>2025-02-02T11:55:10Z</time>
      </trkpt>
      <trkpt lat="43.64037" lon="1.4042">
        <ele>136</ele>
        <time>2025-02-02T11:55:11Z</time>
      </trkpt>
      <trkpt lat="43.64039" lon="1.4042">
        <ele>136</ele>
        <time>2025-02-02T11:55:12Z</time>
      </trkpt>
      <trkpt lat="43.64042" lon="1.40419">
        <ele>135</ele>
        <time>2025-02-02T11:55:13Z</time>
      </trkpt>
      <trkpt lat="43.64045" lon="1.40419">
        <ele>135</ele>
        <time>2025-02-02T11:55:14Z</time>
      </trkpt>
      <trkpt lat="43.64047" lon="1.40418">
        <ele>135</ele>
        <time>2025-02-02T11:55:15Z</time>
      </trkpt>
      <trkpt lat="43.6405" lon="1.40418">
        <ele>135</ele>
        <time>2025-02-02T11:55:16Z</time>
      </trkpt>
      <trkpt lat="43.64054" lon="1.40417">
        <ele>135</ele>
        <time>2025-02-02T11:55:17Z</time>
      </trkpt>
      <trkpt lat="43.64055" lon="1.40417">
        <ele>135</ele>
        <time>2025-02-02T11:55:18Z</time>
      </trkpt>
      <trkpt lat="43.64059" lon="1.40416">
        <ele>135</ele>
        <time>2025-02-02T11:55:19Z</time>
      </trkpt>
      <trkpt lat="43.64061" lon="1.40416">
        <ele>135</ele>
        <time>2025-02-02T11:55:20Z</time>
      </trkpt>
      <trkpt lat="43.64063" lon="1.40415">
        <ele>135</ele>
        <time>2025-02-02T11:55:21Z</time>
      </trkpt>
      <trkpt lat="43.64066" lon="1.40414">
        <ele>135</ele>
        <time>2025-02-02T11:55:22Z</time>
      </trkpt>
      <trkpt lat="43.64069" lon="1.40413">
        <ele>135</ele>
        <time>2025-02-02T11:55:23Z</time>
      </trkpt>
      <trkpt lat="43.64071" lon="1.40412">
        <ele>135</ele>
        <time>2025-02-02T11:55:24Z</time>
      </trkpt>
      <trkpt lat="43.64074" lon="1.40412">
        <ele>135</ele>
        <time>2025-02-02T11:55:25Z</time>
      </trkpt>
      <trkpt lat="43.64077" lon="1.40412">
        <ele>135</ele>
        <time>2025-02-02T11:55:26Z</time>
      </trkpt>
      <trkpt lat="43.64079" lon="1.40412">
        <ele>135</ele>
        <time>2025-02-02T11:55:27Z</time>
      </trkpt>
      <trkpt lat="43.64081" lon="1.40411">
        <ele>135</ele>
        <time>2025-02-02T11:55:28Z</time>
      </trkpt>
      <trkpt lat="43.64084" lon="1.40411">
        <ele>136</ele>
        <time>2025-02-02T11:55:29Z</time>
      </trkpt>
      <trkpt lat="43.64086" lon="1.40411">
        <ele>136</ele>
        <time>2025-02-02T11:55:30Z</time>
      </trkpt>
      <trkpt lat="43.64089" lon="1.4041">
        <ele>136</ele>
        <time>2025-02-02T11:55:31Z</time>
      </trkpt>
      <trkpt lat="43.64091" lon="1.4041">
        <ele>136</ele>
        <time>2025-02-02T11:55:32Z</time>
      </trkpt>
      <trkpt lat="43.64094" lon="1.40409">
        <ele>136</ele>
        <time>2025-02-02T11:55:33Z</time>
      </trkpt>
      <trkpt lat="43.64096" lon="1.40408">
        <ele>136</ele>
        <time>2025-02-02T11:55:34Z</time>
      </trkpt>
      <trkpt lat="43.64099" lon="1.40407">
        <ele>136</ele>
        <time>2025-02-02T11:55:35Z</time>
      </trkpt>
      <trkpt lat="43.64101" lon="1.40407">
        <ele>136</ele>
        <time>2025-02-02T11:55:36Z</time>
      </trkpt>
      <trkpt lat="43.64104" lon="1.40406">
        <ele>136</ele>
        <time>2025-02-02T11:55:37Z</time>
      </trkpt>
      <trkpt lat="43.64107" lon="1.40405">
        <ele>136</ele>
        <time>2025-02-02T11:55:38Z</time>
      </trkpt>
      <trkpt lat="43.6411" lon="1.40404">
        <ele>136</ele>
        <time>2025-02-02T11:55:39Z</time>
      </trkpt>
      <trkpt lat="43.64112" lon="1.40403">
        <ele>136</ele>
        <time>2025-02-02T11:55:40Z</time>
      </trkpt>
      <trkpt lat="43.64115" lon="1.40403">
        <ele>136</ele>
        <time>2025-02-02T11:55:41Z</time>
      </trkpt>
      <trkpt lat="43.64118" lon="1.40403">
        <ele>136</ele>
        <time>2025-02-02T11:55:42Z</time>
      </trkpt>
      <trkpt lat="43.6412" lon="1.40402">
        <ele>136</ele>
        <time>2025-02-02T11:55:43Z</time>
      </trkpt>
      <trkpt lat="43.64122" lon="1.40402">
        <ele>136</ele>
        <time>2025-02-02T11:55:44Z</time>
      </trkpt>
      <trkpt lat="43.64125" lon="1.40401">
        <ele>136</ele>
        <time>2025-02-02T11:55:45Z</time>
      </trkpt>
      <trkpt lat="43.64127" lon="1.40401">
        <ele>136</ele>
        <time>2025-02-02T11:55:46Z</time>
      </trkpt>
      <trkpt lat="43.6413" lon="1.404">
        <ele>136</ele>
        <time>2025-02-02T11:55:47Z</time>
      </trkpt>
      <trkpt lat="43.64132" lon="1.404">
        <ele>136</ele>
        <time>2025-02-02T11:55:48Z</time>
      </trkpt>
      <trkpt lat="43.64135" lon="1.404">
        <ele>136</ele>
        <time>2025-02-02T11:55:49Z</time>
      </trkpt>
      <trkpt lat="43.64138" lon="1.404">
        <ele>136</ele>
        <time>2025-02-02T11:55:50Z</time>
      </trkpt>
      <trkpt lat="43.6414" lon="1.40399">
        <ele>136</ele>
        <time>2025-02-02T11:55:51Z</time>
      </trkpt>
      <trkpt lat="43.64142" lon="1.40399">
        <ele>136</ele>
        <time>2025-02-02T11:55:52Z</time>
      </trkpt>
      <trkpt lat="43.64145" lon="1.40399">
        <ele>136</ele>
        <time>2025-02-02T11:55:53Z</time>
      </trkpt>
      <trkpt lat="43.64148" lon="1.40398">
        <ele>136</ele>
        <time>2025-02-02T11:55:54Z</time>
      </trkpt>
      <trkpt lat="43.64151" lon="1.40397">
        <ele>136</ele>
        <time>2025-02-02T11:55:55Z</time>
      </trkpt>
      <trkpt lat="43.64153" lon="1.40396">
        <ele>136</ele>
        <time>2025-02-02T11:55:56Z</time>
      </trkpt>
      <trkpt lat="43.64156" lon="1.40396">
        <ele>136</ele>
        <time>2025-02-02T11:55:57Z</time>
      </trkpt>
      <trkpt lat="43.64158" lon="1.40395">
        <ele>136</ele>
        <time>2025-02-02T11:55:58Z</time>
      </trkpt>
      <trkpt lat="43.6416" lon="1.40395">
        <ele>136</ele>
        <time>2025-02-02T11:55:59Z</time>
      </trkpt>
      <trkpt lat="43.64163" lon="1.40394">
        <ele>136</ele>
        <time>2025-02-02T11:56:00Z</time>
      </trkpt>
      <trkpt lat="43.64166" lon="1.40394">
        <ele>136</ele>
        <time>2025-02-02T11:56:01Z</time>
      </trkpt>
      <trkpt lat="43.64168" lon="1.40393">
        <ele>136</ele>
        <time>2025-02-02T11:56:02Z</time>
      </trkpt>
      <trkpt lat="43.6417" lon="1.40393">
        <ele>137</ele>
        <time>2025-02-02T11:56:03Z</time>
      </trkpt>
      <trkpt lat="43.64172" lon="1.40392">
        <ele>137</ele>
        <time>2025-02-02T11:56:04Z</time>
      </trkpt>
      <trkpt lat="43.64175" lon="1.40391">
        <ele>137</ele>
        <time>2025-02-02T11:56:05Z</time>
      </trkpt>
      <trkpt lat="43.64178" lon="1.40391">
        <ele>137</ele>
        <time>2025-02-02T11:56:06Z</time>
      </trkpt>
      <trkpt lat="43.6418" lon="1.4039">
        <ele>137</ele>
        <time>2025-02-02T11:56:07Z</time>
      </trkpt>
      <trkpt lat="43.64183" lon="1.40389">
        <ele>137</ele>
        <time>2025-02-02T11:56:08Z</time>
      </trkpt>
      <trkpt lat="43.64185" lon="1.40388">
        <ele>137</ele>
        <time>2025-02-02T11:56:09Z</time>
      </trkpt>
      <trkpt lat="43.64188" lon="1.40387">
        <ele>137</ele>
        <time>2025-02-02T11:56:10Z</time>
      </trkpt>
      <trkpt lat="43.6419" lon="1.40387">
        <ele>137</ele>
        <time>2025-02-02T11:56:11Z</time>
      </trkpt>
      <trkpt lat="43.64192" lon="1.40386">
        <ele>137</ele>
        <time>2025-02-02T11:56:12Z</time>
      </trkpt>
      <trkpt lat="43.64195" lon="1.40385">
        <ele>137</ele>
        <time>2025-02-02T11:56:13Z</time>
      </trkpt>
      <trkpt lat="43.64198" lon="1.40384">
        <ele>137</ele>
        <time>2025-02-02T11:56:14Z</time>
      </trkpt>
      <trkpt lat="43.642" lon="1.40383">
        <ele>137</ele>
        <time>2025-02-02T11:56:15Z</time>
      </trkpt>
      <trkpt lat="43.64203" lon="1.40382">
        <ele>137</ele>
        <time>2025-02-02T11:56:16Z</time>
      </trkpt>
      <trkpt lat="43.64204" lon="1.40382">
        <ele>137</ele>
        <time>2025-02-02T11:56:17Z</time>
      </trkpt>
      <trkpt lat="43.64207" lon="1.40381">
        <ele>137</ele>
        <time>2025-02-02T11:56:18Z</time>
      </trkpt>
      <trkpt lat="43.64209" lon="1.40381">
        <ele>137</ele>
        <time>2025-02-02T11:56:19Z</time>
      </trkpt>
      <trkpt lat="43.64212" lon="1.4038">
        <ele>137</ele>
        <time>2025-02-02T11:56:20Z</time>
      </trkpt>
      <trkpt lat="43.64214" lon="1.40379">
        <ele>137</ele>
        <time>2025-02-02T11:56:21Z</time>
      </trkpt>
      <trkpt lat="43.64217" lon="1.40378">
        <ele>137</ele>
        <time>2025-02-02T11:56:22Z</time>
      </trkpt>
      <trkpt lat="43.64219" lon="1.40377">
        <ele>137</ele>
        <time>2025-02-02T11:56:23Z</time>
      </trkpt>
      <trkpt lat="43.64221" lon="1.40377">
        <ele>137</ele>
        <time>2025-02-02T11:56:24Z</time>
      </trkpt>
      <trkpt lat="43.64224" lon="1.40376">
        <ele>137</ele>
        <time>2025-02-02T11:56:25Z</time>
      </trkpt>
      <trkpt lat="43.64226" lon="1.40375">
        <ele>137</ele>
        <time>2025-02-02T11:56:26Z</time>
      </trkpt>
      <trkpt lat="43.64229" lon="1.40373">
        <ele>137</ele>
        <time>2025-02-02T11:56:27Z</time>
      </trkpt>
      <trkpt lat="43.64231" lon="1.40372">
        <ele>137</ele>
        <time>2025-02-02T11:56:28Z</time>
      </trkpt>
      <trkpt lat="43.64234" lon="1.40372">
        <ele>137</ele>
        <time>2025-02-02T11:56:29Z</time>
      </trkpt>
      <trkpt lat="43.64236" lon="1.40371">
        <ele>137</ele>
        <time>2025-02-02T11:56:30Z</time>
      </trkpt>
      <trkpt lat="43.64239" lon="1.4037">
        <ele>137</ele>
        <time>2025-02-02T11:56:31Z</time>
      </trkpt>
      <trkpt lat="43.64241" lon="1.4037">
        <ele>137</ele>
        <time>2025-02-02T11:56:32Z</time>
      </trkpt>
      <trkpt lat="43.64244" lon="1.40369">
        <ele>137</ele>
        <time>2025-02-02T11:56:33Z</time>
      </trkpt>
      <trkpt lat="43.64247" lon="1.40368">
        <ele>137</ele>
        <time>2025-02-02T11:56:34Z</time>
      </trkpt>
      <trkpt lat="43.64251" lon="1.40366">
        <ele>137</ele>
        <time>2025-02-02T11:56:35Z</time>
      </trkpt>
      <trkpt lat="43.64252" lon="1.40366">
        <ele>137</ele>
        <time>2025-02-02T11:56:36Z</time>
      </trkpt>
      <trkpt lat="43.64254" lon="1.40365">
        <ele>137</ele>
        <time>2025-02-02T11:56:37Z</time>
      </trkpt>
      <trkpt lat="43.64257" lon="1.40364">
        <ele>137</ele>
        <time>2025-02-02T11:56:38Z</time>
      </trkpt>
      <trkpt lat="43.64259" lon="1.40364">
        <ele>137</ele>
        <time>2025-02-02T11:56:39Z</time>
      </trkpt>
      <trkpt lat="43.64262" lon="1.40363">
        <ele>137</ele>
        <time>2025-02-02T11:56:40Z</time>
      </trkpt>
      <trkpt lat="43.64265" lon="1.40363">
        <ele>137</ele>
        <time>2025-02-02T11:56:41Z</time>
      </trkpt>
      <trkpt lat="43.64267" lon="1.40362">
        <ele>137</ele>
        <time>2025-02-02T11:56:42Z</time>
      </trkpt>
      <trkpt lat="43.64269" lon="1.40361">
        <ele>137</ele>
        <time>2025-02-02T11:56:43Z</time>
      </trkpt>
      <trkpt lat="43.64272" lon="1.40361">
        <ele>137</ele>
        <time>2025-02-02T11:56:44Z</time>
      </trkpt>
      <trkpt lat="43.64274" lon="1.4036">
        <ele>137</ele>
        <time>2025-02-02T11:56:45Z</time>
      </trkpt>
      <trkpt lat="43.64277" lon="1.40359">
        <ele>137</ele>
        <time>2025-02-02T11:56:46Z</time>
      </trkpt>
      <trkpt lat="43.64279" lon="1.40359">
        <ele>137</ele>
        <time>2025-02-02T11:56:47Z</time>
      </trkpt>
      <trkpt lat="43.64282" lon="1.40358">
        <ele>137</ele>
        <time>2025-02-02T11:56:48Z</time>
      </trkpt>
      <trkpt lat="43.64284" lon="1.40357">
        <ele>137</ele>
        <time>2025-02-02T11:56:49Z</time>
      </trkpt>
      <trkpt lat="43.64287" lon="1.40356">
        <ele>137</ele>
        <time>2025-02-02T11:56:50Z</time>
      </trkpt>
      <trkpt lat="43.64289" lon="1.40355">
        <ele>137</ele>
        <time>2025-02-02T11:56:51Z</time>
      </trkpt>
      <trkpt lat="43.64292" lon="1.40354">
        <ele>137</ele>
        <time>2025-02-02T11:56:52Z</time>
      </trkpt>
      <trkpt lat="43.64295" lon="1.40352">
        <ele>137</ele>
        <time>2025-02-02T11:56:53Z</time>
      </trkpt>
      <trkpt lat="43.64299" lon="1.40351">
        <ele>137</ele>
        <time>2025-02-02T11:56:54Z</time>
      </trkpt>
      <trkpt lat="43.643" lon="1.40351">
        <ele>137</ele>
        <time>2025-02-02T11:56:55Z</time>
      </trkpt>
      <trkpt lat="43.64302" lon="1.4035">
        <ele>137</ele>
        <time>2025-02-02T11:56:56Z</time>
      </trkpt>
      <trkpt lat="43.64305" lon="1.4035">
        <ele>137</ele>
        <time>2025-02-02T11:56:57Z</time>
      </trkpt>
      <trkpt lat="43.64307" lon="1.40349">
        <ele>137</ele>
        <time>2025-02-02T11:56:58Z</time>
      </trkpt>
      <trkpt lat="43.6431" lon="1.40348">
        <ele>137</ele>
        <time>2025-02-02T11:56:59Z</time>
      </trkpt>
      <trkpt lat="43.64312" lon="1.40347">
        <ele>137</ele>
        <time>2025-02-02T11:57:00Z</time>
      </trkpt>
      <trkpt lat="43.64314" lon="1.40346">
        <ele>137</ele>
        <time>2025-02-02T11:57:01Z</time>
      </trkpt>
      <trkpt lat="43.64317" lon="1.40345">
        <ele>137</ele>
        <time>2025-02-02T11:57:02Z</time>
      </trkpt>
      <trkpt lat="43.64319" lon="1.40344">
        <ele>137</ele>
        <time>2025-02-02T11:57:03Z</time>
      </trkpt>
      <trkpt lat="43.64322" lon="1.40344">
        <ele>136</ele>
        <time>2025-02-02T11:57:04Z</time>
      </trkpt>
      <trkpt lat="43.64325" lon="1.40343">
        <ele>136</ele>
        <time>2025-02-02T11:57:05Z</time>
      </trkpt>
      <trkpt lat="43.64328" lon="1.40341">
        <ele>136</ele>
        <time>2025-02-02T11:57:06Z</time>
      </trkpt>
      <trkpt lat="43.64331" lon="1.4034">
        <ele>136</ele>
        <time>2025-02-02T11:57:07Z</time>
      </trkpt>
      <trkpt lat="43.64334" lon="1.40339">
        <ele>136</ele>
        <time>2025-02-02T11:57:08Z</time>
      </trkpt>
      <trkpt lat="43.64336" lon="1.40338">
        <ele>136</ele>
        <time>2025-02-02T11:57:09Z</time>
      </trkpt>
      <trkpt lat="43.64339" lon="1.40337">
        <ele>136</ele>
        <time>2025-02-02T11:57:10Z</time>
      </trkpt>
      <trkpt lat="43.64341" lon="1.40336">
        <ele>136</ele>
        <time>2025-02-02T11:57:11Z</time>
      </trkpt>
      <trkpt lat="43.64344" lon="1.40335">
        <ele>136</ele>
        <time>2025-02-02T11:57:12Z</time>
      </trkpt>
      <trkpt lat="43.64347" lon="1.40334">
        <ele>136</ele>
        <time>2025-02-02T11:57:13Z</time>
      </trkpt>
      <trkpt lat="43.64349" lon="1.40333">
        <ele>136</ele>
        <time>2025-02-02T11:57:14Z</time>
      </trkpt>
      <trkpt lat="43.64351" lon="1.40332">
        <ele>136</ele>
        <time>2025-02-02T11:57:15Z</time>
      </trkpt>
      <trkpt lat="43.64353" lon="1.40331">
        <ele>137</ele>
        <time>2025-02-02T11:57:16Z</time>
      </trkpt>
      <trkpt lat="43.64356" lon="1.40331">
        <ele>137</ele>
        <time>2025-02-02T11:57:17Z</time>
      </trkpt>
      <trkpt lat="43.64358" lon="1.4033">
        <ele>136</ele>
        <time>2025-02-02T11:57:18Z</time>
      </trkpt>
      <trkpt lat="43.64361" lon="1.40329">
        <ele>136</ele>
        <time>2025-02-02T11:57:19Z</time>
      </trkpt>
      <trkpt lat="43.64364" lon="1.40328">
        <ele>137</ele>
        <time>2025-02-02T11:57:20Z</time>
      </trkpt>
      <trkpt lat="43.64366" lon="1.40327">
        <ele>137</ele>
        <time>2025-02-02T11:57:21Z</time>
      </trkpt>
      <trkpt lat="43.64369" lon="1.40327">
        <ele>137</ele>
        <time>2025-02-02T11:57:22Z</time>
      </trkpt>
      <trkpt lat="43.64371" lon="1.40326">
        <ele>137</ele>
        <time>2025-02-02T11:57:23Z</time>
      </trkpt>
      <trkpt lat="43.64374" lon="1.40326">
        <ele>137</ele>
        <time>2025-02-02T11:57:24Z</time>
      </trkpt>
      <trkpt lat="43.64376" lon="1.40327">
        <ele>137</ele>
        <time>2025-02-02T11:57:25Z</time>
      </trkpt>
      <trkpt lat="43.64379" lon="1.40328">
        <ele>137</ele>
        <time>2025-02-02T11:57:26Z</time>
      </trkpt>
      <trkpt lat="43.64382" lon="1.40328">
        <ele>138</ele>
        <time>2025-02-02T11:57:27Z</time>
      </trkpt>
      <trkpt lat="43.64385" lon="1.40328">
        <ele>138</ele>
        <time>2025-02-02T11:57:28Z</time>
      </trkpt>
      <trkpt lat="43.64388" lon="1.40327">
        <ele>138</ele>
        <time>2025-02-02T11:57:29Z</time>
      </trkpt>
      <trkpt lat="43.6439" lon="1.40326">
        <ele>138</ele>
        <time>2025-02-02T11:57:30Z</time>
      </trkpt>
      <trkpt lat="43.64392" lon="1.40325">
        <ele>138</ele>
        <time>2025-02-02T11:57:31Z</time>
      </trkpt>
      <trkpt lat="43.64396" lon="1.40324">
        <ele>138</ele>
        <time>2025-02-02T11:57:32Z</time>
      </trkpt>
      <trkpt lat="43.64398" lon="1.40324">
        <ele>138</ele>
        <time>2025-02-02T11:57:33Z</time>
      </trkpt>
      <trkpt lat="43.644" lon="1.40323">
        <ele>138</ele>
        <time>2025-02-02T11:57:34Z</time>
      </trkpt>
      <trkpt lat="43.64402" lon="1.40323">
        <ele>138</ele>
        <time>2025-02-02T11:57:35Z</time>
      </trkpt>
      <trkpt lat="43.64404" lon="1.40322">
        <ele>138</ele>
        <time>2025-02-02T11:57:36Z</time>
      </trkpt>
      <trkpt lat="43.64406" lon="1.40322">
        <ele>138</ele>
        <time>2025-02-02T11:57:37Z</time>
      </trkpt>
      <trkpt lat="43.64408" lon="1.40322">
        <ele>138</ele>
        <time>2025-02-02T11:57:38Z</time>
      </trkpt>
      <trkpt lat="43.6441" lon="1.40322">
        <ele>137</ele>
        <time>2025-02-02T11:57:39Z</time>
      </trkpt>
      <trkpt lat="43.64413" lon="1.40321">
        <ele>137</ele>
        <time>2025-02-02T11:57:40Z</time>
      </trkpt>
      <trkpt lat="43.64415" lon="1.40321">
        <ele>137</ele>
        <time>2025-02-02T11:57:41Z</time>
      </trkpt>
      <trkpt lat="43.64418" lon="1.4032">
        <ele>137</ele>
        <time>2025-02-02T11:57:42Z</time>
      </trkpt>
      <trkpt lat="43.6442" lon="1.4032">
        <ele>137</ele>
        <time>2025-02-02T11:57:43Z</time>
      </trkpt>
      <trkpt lat="43.64422" lon="1.40319">
        <ele>138</ele>
        <time>2025-02-02T11:57:44Z</time>
      </trkpt>
      <trkpt lat="43.64425" lon="1.40319">
        <ele>138</ele>
        <time>2025-02-02T11:57:45Z</time>
      </trkpt>
      <trkpt lat="43.64428" lon="1.40318">
        <ele>138</ele>
        <time>2025-02-02T11:57:46Z</time>
      </trkpt>
      <trkpt lat="43.6443" lon="1.40318">
        <ele>138</ele>
        <time>2025-02-02T11:57:47Z</time>
      </trkpt>
      <trkpt lat="43.64433" lon="1.40318">
        <ele>138</ele>
        <time>2025-02-02T11:57:48Z</time>
      </trkpt>
      <trkpt lat="43.64435" lon="1.40317">
        <ele>138</ele>
        <time>2025-02-02T11:57:49Z</time>
      </trkpt>
      <trkpt lat="43.64438" lon="1.40317">
        <ele>138</ele>
        <time>2025-02-02T11:57:50Z</time>
      </trkpt>
      <trkpt lat="43.64441" lon="1.40316">
        <ele>138</ele>
        <time>2025-02-02T11:57:51Z</time>
      </trkpt>
      <trkpt lat="43.64444" lon="1.40316">
        <ele>138</ele>
        <time>2025-02-02T11:57:52Z</time>
      </trkpt>
      <trkpt lat="43.64447" lon="1.40315">
        <ele>138</ele>
        <time>2025-02-02T11:57:53Z</time>
      </trkpt>
      <trkpt lat="43.64449" lon="1.40315">
        <ele>138</ele>
        <time>2025-02-02T11:57:54Z</time>
      </trkpt>
      <trkpt lat="43.64452" lon="1.40314">
        <ele>138</ele>
        <time>2025-02-02T11:57:55Z</time>
      </trkpt>
      <trkpt lat="43.64454" lon="1.40313">
        <ele>138</ele>
        <time>2025-02-02T11:57:56Z</time>
      </trkpt>
      <trkpt lat="43.64457" lon="1.40313">
        <ele>138</ele>
        <time>2025-02-02T11:57:57Z</time>
      </trkpt>
      <trkpt lat="43.64459" lon="1.40312">
        <ele>138</ele>
        <time>2025-02-02T11:57:58Z</time>
      </trkpt>
      <trkpt lat="43.64461" lon="1.40311">
        <ele>138</ele>
        <time>2025-02-02T11:57:59Z</time>
      </trkpt>
      <trkpt lat="43.64463" lon="1.4031">
        <ele>138</ele>
        <time>2025-02-02T11:58:00Z</time>
      </trkpt>
      <trkpt lat="43.64466" lon="1.4031">
        <ele>138</ele>
        <time>2025-02-02T11:58:01Z</time>
      </trkpt>
      <trkpt lat="43.64468" lon="1.40309">
        <ele>138</ele>
        <time>2025-02-02T11:58:02Z</time>
      </trkpt>
      <trkpt lat="43.64471" lon="1.40308">
        <ele>138</ele>
        <time>2025-02-02T11:58:03Z</time>
      </trkpt>
      <trkpt lat="43.64473" lon="1.40307">
        <ele>138</ele>
        <time>2025-02-02T11:58:04Z</time>
      </trkpt>
      <trkpt lat="43.64476" lon="1.40306">
        <ele>138</ele>
        <time>2025-02-02T11:58:05Z</time>
      </trkpt>
      <trkpt lat="43.64479" lon="1.40305">
        <ele>138</ele>
        <time>2025-02-02T11:58:06Z</time>
      </trkpt>
      <trkpt lat="43.64481" lon="1.40304">
        <ele>138</ele>
        <time>2025-02-02T11:58:07Z</time>
      </trkpt>
      <trkpt lat="43.64484" lon="1.40304">
        <ele>138</ele>
        <time>2025-02-02T11:58:08Z</time>
      </trkpt>
      <trkpt lat="43.64486" lon="1.40303">
        <ele>138</ele>
        <time>2025-02-02T11:58:09Z</time>
      </trkpt>
      <trkpt lat="43.6449" lon="1.40302">
        <ele>138</ele>
        <time>2025-02-02T11:58:10Z</time>
      </trkpt>
      <trkpt lat="43.64492" lon="1.40302">
        <ele>138</ele>
        <time>2025-02-02T11:58:11Z</time>
      </trkpt>
      <trkpt lat="43.64495" lon="1.40301">
        <ele>138</ele>
        <time>2025-02-02T11:58:12Z</time>
      </trkpt>
      <trkpt lat="43.64496" lon="1.403">
        <ele>138</ele>
        <time>2025-02-02T11:58:13Z</time>
      </trkpt>
      <trkpt lat="43.64498" lon="1.403">
        <ele>138</ele>
        <time>2025-02-02T11:58:14Z</time>
      </trkpt>
      <trkpt lat="43.64501" lon="1.40299">
        <ele>138</ele>
        <time>2025-02-02T11:58:15Z</time>
      </trkpt>
      <trkpt lat="43.64503" lon="1.40299">
        <ele>138</ele>
        <time>2025-02-02T11:58:16Z</time>
      </trkpt>
      <trkpt lat="43.64505" lon="1.40298">
        <ele>138</ele>
        <time>2025-02-02T11:58:17Z</time>
      </trkpt>
      <trkpt lat="43.64505" lon="1.40298">
        <ele>138</ele>
        <time>2025-02-02T11:58:18Z</time>
      </trkpt>
      <trkpt lat="43.64509" lon="1.40297">
        <ele>138</ele>
        <time>2025-02-02T11:58:19Z</time>
      </trkpt>
      <trkpt lat="43.64512" lon="1.40297">
        <ele>138</ele>
        <time>2025-02-02T11:58:20Z</time>
      </trkpt>
      <trkpt lat="43.64514" lon="1.40296">
        <ele>138</ele>
        <time>2025-02-02T11:58:21Z</time>
      </trkpt>
      <trkpt lat="43.64516" lon="1.40295">
        <ele>138</ele>
        <time>2025-02-02T11:58:22Z</time>
      </trkpt>
      <trkpt lat="43.64519" lon="1.40294">
        <ele>138</ele>
        <time>2025-02-02T11:58:23Z</time>
      </trkpt>
      <trkpt lat="43.64521" lon="1.40293">
        <ele>138</ele>
        <time>2025-02-02T11:58:24Z</time>
      </trkpt>
      <trkpt lat="43.64524" lon="1.40293">
        <ele>138</ele>
        <time>2025-02-02T11:58:25Z</time>
      </trkpt>
      <trkpt lat="43.64526" lon="1.40292">
        <ele>138</ele>
        <time>2025-02-02T11:58:26Z</time>
      </trkpt>
      <trkpt lat="43.64529" lon="1.40291">
        <ele>138</ele>
        <time>2025-02-02T11:58:27Z</time>
      </trkpt>
      <trkpt lat="43.64531" lon="1.4029">
        <ele>138</ele>
        <time>2025-02-02T11:58:28Z</time>
      </trkpt>
      <trkpt lat="43.64535" lon="1.40288">
        <ele>138</ele>
        <time>2025-02-02T11:58:29Z</time>
      </trkpt>
      <trkpt lat="43.64537" lon="1.40288">
        <ele>138</ele>
        <time>2025-02-02T11:58:30Z</time>
      </trkpt>
      <trkpt lat="43.64539" lon="1.40287">
        <ele>138</ele>
        <time>2025-02-02T11:58:31Z</time>
      </trkpt>
      <trkpt lat="43.64542" lon="1.40286">
        <ele>138</ele>
        <time>2025-02-02T11:58:32Z</time>
      </trkpt>
      <trkpt lat="43.64545" lon="1.40285">
        <ele>138</ele>
        <time>2025-02-02T11:58:33Z</time>
      </trkpt>
      <trkpt lat="43.64546" lon="1.40285">
        <ele>138</ele>
        <time>2025-02-02T11:58:34Z</time>
      </trkpt>
      <trkpt lat="43.64549" lon="1.40284">
        <ele>138</ele>
        <time>2025-02-02T11:58:35Z</time>
      </trkpt>
      <trkpt lat="43.64552" lon="1.40283">
        <ele>138</ele>
        <time>2025-02-02T11:58:36Z</time>
      </trkpt>
      <trkpt lat="43.64554" lon="1.40282">
        <ele>138</ele>
        <time>2025-02-02T11:58:37Z</time>
      </trkpt>
      <trkpt lat="43.64557" lon="1.40281">
        <ele>138</ele>
        <time>2025-02-02T11:58:38Z</time>
      </trkpt>
      <trkpt lat="43.6456" lon="1.4028">
        <ele>138</ele>
        <time>2025-02-02T11:58:39Z</time>
      </trkpt>
      <trkpt lat="43.64562" lon="1.40279">
        <ele>138</ele>
        <time>2025-02-02T11:58:40Z</time>
      </trkpt>
      <trkpt lat="43.64565" lon="1.40278">
        <ele>138</ele>
        <time>2025-02-02T11:58:41Z</time>
      </trkpt>
      <trkpt lat="43.64567" lon="1.40278">
        <ele>138</ele>
        <time>2025-02-02T11:58:42Z</time>
      </trkpt>
      <trkpt lat="43.64569" lon="1.40277">
        <ele>138</ele>
        <time>2025-02-02T11:58:43Z</time>
      </trkpt>
      <trkpt lat="43.64571" lon="1.40276">
        <ele>138</ele>
        <time>2025-02-02T11:58:44Z</time>
      </trkpt>
      <trkpt lat="43.64573" lon="1.40276">
        <ele>138</ele>
        <time>2025-02-02T11:58:45Z</time>
      </trkpt>
      <trkpt lat="43.64575" lon="1.40275">
        <ele>138</ele>
        <time>2025-02-02T11:58:46Z</time>
      </trkpt>
      <trkpt lat="43.64577" lon="1.40274">
        <ele>138</ele>
        <time>2025-02-02T11:58:47Z</time>
      </trkpt>
      <trkpt lat="43.6458" lon="1.40273">
        <ele>138</ele>
        <time>2025-02-02T11:58:48Z</time>
      </trkpt>
      <trkpt lat="43.64581" lon="1.40273">
        <ele>138</ele>
        <time>2025-02-02T11:58:49Z</time>
      </trkpt>
      <trkpt lat="43.64583" lon="1.40272">
        <ele>138</ele>
        <time>2025-02-02T11:58:50Z</time>
      </trkpt>
      <trkpt lat="43.64586" lon="1.4027">
        <ele>138</ele>
        <time>2025-02-02T11:58:51Z</time>
      </trkpt>
      <trkpt lat="43.64588" lon="1.40269">
        <ele>138</ele>
        <time>2025-02-02T11:58:52Z</time>
      </trkpt>
      <trkpt lat="43.64593" lon="1.40268">
        <ele>138</ele>
        <time>2025-02-02T11:58:53Z</time>
      </trkpt>
      <trkpt lat="43.64594" lon="1.40267">
        <ele>138</ele>
        <time>2025-02-02T11:58:54Z</time>
      </trkpt>
      <trkpt lat="43.64597" lon="1.40266">
        <ele>138</ele>
        <time>2025-02-02T11:58:55Z</time>
      </trkpt>
      <trkpt lat="43.646" lon="1.40265">
        <ele>138</ele>
        <time>2025-02-02T11:58:56Z</time>
      </trkpt>
      <trkpt lat="43.64603" lon="1.40263">
        <ele>138</ele>
        <time>2025-02-02T11:58:57Z</time>
      </trkpt>
      <trkpt lat="43.64606" lon="1.40262">
        <ele>138</ele>
        <time>2025-02-02T11:58:58Z</time>
      </trkpt>
      <trkpt lat="43.64609" lon="1.4026">
        <ele>138</ele>
        <time>2025-02-02T11:58:59Z</time>
      </trkpt>
      <trkpt lat="43.64611" lon="1.40259">
        <ele>138</ele>
        <time>2025-02-02T11:59:00Z</time>
      </trkpt>
      <trkpt lat="43.64614" lon="1.40258">
        <ele>138</ele>
        <time>2025-02-02T11:59:01Z</time>
      </trkpt>
      <trkpt lat="43.64617" lon="1.40257">
        <ele>138</ele>
        <time>2025-02-02T11:59:02Z</time>
      </trkpt>
      <trkpt lat="43.64619" lon="1.40256">
        <ele>138</ele>
        <time>2025-02-02T11:59:03Z</time>
      </trkpt>
      <trkpt lat="43.64622" lon="1.40255">
        <ele>138</ele>
        <time>2025-02-02T11:59:04Z</time>
      </trkpt>
      <trkpt lat="43.64625" lon="1.40254">
        <ele>138</ele>
        <time>2025-02-02T11:59:05Z</time>
      </trkpt>
      <trkpt lat="43.64627" lon="1.40253">
        <ele>138</ele>
        <time>2025-02-02T11:59:06Z</time>
      </trkpt>
      <trkpt lat="43.6463" lon="1.40252">
        <ele>138</ele>
        <time>2025-02-02T11:59:07Z</time>
      </trkpt>
      <trkpt lat="43.64631" lon="1.40251">
        <ele>138</ele>
        <time>2025-02-02T11:59:08Z</time>
      </trkpt>
      <trkpt lat="43.64634" lon="1.40251">
        <ele>138</ele>
        <time>2025-02-02T11:59:09Z</time>
      </trkpt>
      <trkpt lat="43.64637" lon="1.40251">
        <ele>138</ele>
        <time>2025-02-02T11:59:10Z</time>
      </trkpt>
      <trkpt lat="43.6464" lon="1.4025">
        <ele>138</ele>
        <time>2025-02-02T11:59:11Z</time>
      </trkpt>
      <trkpt lat="43.64642" lon="1.4025">
        <ele>138</ele>
        <time>2025-02-02T11:59:12Z</time>
      </trkpt>
      <trkpt lat="43.64645" lon="1.4025">
        <ele>138</ele>
        <time>2025-02-02T11:59:13Z</time>
      </trkpt>
      <trkpt lat="43.64647" lon="1.4025">
        <ele>138</ele>
        <time>2025-02-02T11:59:14Z</time>
      </trkpt>
      <trkpt lat="43.64649" lon="1.4025">
        <ele>138</ele>
        <time>2025-02-02T11:59:15Z</time>
      </trkpt>
      <trkpt lat="43.64652" lon="1.40249">
        <ele>138</ele>
        <time>2025-02-02T11:59:16Z</time>
      </trkpt>
      <trkpt lat="43.64654" lon="1.40249">
        <ele>138</ele>
        <time>2025-02-02T11:59:17Z</time>
      </trkpt>
      <trkpt lat="43.64656" lon="1.40249">
        <ele>138</ele>
        <time>2025-02-02T11:59:18Z</time>
      </trkpt>
      <trkpt lat="43.64659" lon="1.40248">
        <ele>138</ele>
        <time>2025-02-02T11:59:19Z</time>
      </trkpt>
      <trkpt lat="43.64661" lon="1.40247">
        <ele>138</ele>
        <time>2025-02-02T11:59:20Z</time>
      </trkpt>
      <trkpt lat="43.64664" lon="1.40245">
        <ele>138</ele>
        <time>2025-02-02T11:59:21Z</time>
      </trkpt>
      <trkpt lat="43.64666" lon="1.40244">
        <ele>138</ele>
        <time>2025-02-02T11:59:22Z</time>
      </trkpt>
      <trkpt lat="43.64669" lon="1.40243">
        <ele>138</ele>
        <time>2025-02-02T11:59:23Z</time>
      </trkpt>
      <trkpt lat="43.64671" lon="1.40242">
        <ele>138</ele>
        <time>2025-02-02T11:59:24Z</time>
      </trkpt>
      <trkpt lat="43.64674" lon="1.4024">
        <ele>138</ele>
        <time>2025-02-02T11:59:25Z</time>
      </trkpt>
      <trkpt lat="43.64678" lon="1.40239">
        <ele>138</ele>
        <time>2025-02-02T11:59:26Z</time>
      </trkpt>
      <trkpt lat="43.64679" lon="1.40238">
        <ele>138</ele>
        <time>2025-02-02T11:59:27Z</time>
      </trkpt>
      <trkpt lat="43.64681" lon="1.40237">
        <ele>138</ele>
        <time>2025-02-02T11:59:28Z</time>
      </trkpt>
      <trkpt lat="43.64684" lon="1.40237">
        <ele>138</ele>
        <time>2025-02-02T11:59:29Z</time>
      </trkpt>
      <trkpt lat="43.64687" lon="1.40235">
        <ele>138</ele>
        <time>2025-02-02T11:59:30Z</time>
      </trkpt>
      <trkpt lat="43.64689" lon="1.40234">
        <ele>138</ele>
        <time>2025-02-02T11:59:31Z</time>
      </trkpt>
      <trkpt lat="43.64691" lon="1.40233">
        <ele>138</ele>
        <time>2025-02-02T11:59:32Z</time>
      </trkpt>
      <trkpt lat="43.64694" lon="1.40231">
        <ele>138</ele>
        <time>2025-02-02T11:59:33Z</time>
      </trkpt>
      <trkpt lat="43.64697" lon="1.4023">
        <ele>138</ele>
        <time>2025-02-02T11:59:34Z</time>
      </trkpt>
      <trkpt lat="43.647" lon="1.40229">
        <ele>138</ele>
        <time>2025-02-02T11:59:35Z</time>
      </trkpt>
      <trkpt lat="43.64703" lon="1.40227">
        <ele>138</ele>
        <time>2025-02-02T11:59:36Z</time>
      </trkpt>
      <trkpt lat="43.64706" lon="1.40226">
        <ele>138</ele>
        <time>2025-02-02T11:59:37Z</time>
      </trkpt>
      <trkpt lat="43.64709" lon="1.40226">
        <ele>138</ele>
        <time>2025-02-02T11:59:38Z</time>
      </trkpt>
      <trkpt lat="43.64712" lon="1.40226">
        <ele>138</ele>
        <time>2025-02-02T11:59:39Z</time>
      </trkpt>
      <trkpt lat="43.64715" lon="1.40226">
        <ele>138</ele>
        <time>2025-02-02T11:59:40Z</time>
      </trkpt>
      <trkpt lat="43.64718" lon="1.40226">
        <ele>138</ele>
        <time>2025-02-02T11:59:41Z</time>
      </trkpt>
      <trkpt lat="43.64721" lon="1.40226">
        <ele>138</ele>
        <time>2025-02-02T11:59:42Z</time>
      </trkpt>
      <trkpt lat="43.64723" lon="1.40226">
        <ele>138</ele>
        <time>2025-02-02T11:59:43Z</time>
      </trkpt>
      <trkpt lat="43.64726" lon="1.40226">
        <ele>138</ele>
        <time>2025-02-02T11:59:44Z</time>
      </trkpt>
      <trkpt lat="43.6473" lon="1.40226">
        <ele>138</ele>
        <time>2025-02-02T11:59:45Z</time>
      </trkpt>
      <trkpt lat="43.64731" lon="1.40226">
        <ele>138</ele>
        <time>2025-02-02T11:59:46Z</time>
      </trkpt>
      <trkpt lat="43.64734" lon="1.40226">
        <ele>138</ele>
        <time>2025-02-02T11:59:47Z</time>
      </trkpt>
      <trkpt lat="43.64738" lon="1.40226">
        <ele>138</ele>
        <time>2025-02-02T11:59:48Z</time>
      </trkpt>
      <trkpt lat="43.64739" lon="1.40226">
        <ele>138</ele>
        <time>2025-02-02T11:59:49Z</time>
      </trkpt>
      <trkpt lat="43.64741" lon="1.40227">
        <ele>138</ele>
        <time>2025-02-02T11:59:50Z</time>
      </trkpt>
      <trkpt lat="43.64744" lon="1.40227">
        <ele>138</ele>
        <time>2025-02-02T11:59:51Z</time>
      </trkpt>
      <trkpt lat="43.64747" lon="1.40227">
        <ele>138</ele>
        <time>2025-02-02T11:59:52Z</time>
      </trkpt>
      <trkpt lat="43.64749" lon="1.40228">
        <ele>138</ele>
        <time>2025-02-02T11:59:53Z</time>
      </trkpt>
      <trkpt lat="43.64752" lon="1.40228">
        <ele>138</ele>
        <time>2025-02-02T11:59:54Z</time>
      </trkpt>
      <trkpt lat="43.64754" lon="1.40228">
        <ele>138</ele>
        <time>2025-02-02T11:59:55Z</time>
      </trkpt>
      <trkpt lat="43.64757" lon="1.40227">
        <ele>138</ele>
        <time>2025-02-02T11:59:56Z</time>
      </trkpt>
      <trkpt lat="43.64759" lon="1.40227">
        <ele>138</ele>
        <time>2025-02-02T11:59:57Z</time>
      </trkpt>
      <trkpt lat="43.64762" lon="1.40227">
        <ele>138</ele>
        <time>2025-02-02T11:59:58Z</time>
      </trkpt>
      <trkpt lat="43.64765" lon="1.40227">
        <ele>138</ele>
        <time>2025-02-02T11:59:59Z</time>
      </trkpt>
      <trkpt lat="43.64768" lon="1.40227">
        <ele>138</ele>
        <time>2025-02-02T12:00:00Z</time>
      </trkpt>
      <trkpt lat="43.6477" lon="1.40227">
        <ele>138</ele>
        <time>2025-02-02T12:00:01Z</time>
      </trkpt>
      <trkpt lat="43.64772" lon="1.40227">
        <ele>138</ele>
        <time>2025-02-02T12:00:02Z</time>
      </trkpt>
      <trkpt lat="43.64775" lon="1.40227">
        <ele>137</ele>
        <time>2025-02-02T12:00:03Z</time>
      </trkpt>
      <trkpt lat="43.64779" lon="1.40227">
        <ele>137</ele>
        <time>2025-02-02T12:00:04Z</time>
      </trkpt>
      <trkpt lat="43.6478" lon="1.40227">
        <ele>138</ele>
        <time>2025-02-02T12:00:05Z</time>
      </trkpt>
      <trkpt lat="43.64783" lon="1.40226">
        <ele>138</ele>
        <time>2025-02-02T12:00:06Z</time>
      </trkpt>
      <trkpt lat="43.64787" lon="1.40227">
        <ele>138</ele>
        <time>2025-02-02T12:00:07Z</time>
      </trkpt>
      <trkpt lat="43.64788" lon="1.40227">
        <ele>138</ele>
        <time>2025-02-02T12:00:08Z</time>
      </trkpt>
      <trkpt lat="43.64791" lon="1.40227">
        <ele>138</ele>
        <time>2025-02-02T12:00:09Z</time>
      </trkpt>
      <trkpt lat="43.64793" lon="1.40227">
        <ele>138</ele>
        <time>2025-02-02T12:00:10Z</time>
      </trkpt>
      <trkpt lat="43.64795" lon="1.40227">
        <ele>138</ele>
        <time>2025-02-02T12:00:11Z</time>
      </trkpt>
      <trkpt lat="43.64797" lon="1.40227">
        <ele>138</ele>
        <time>2025-02-02T12:00:12Z</time>
      </trkpt>
      <trkpt lat="43.64799" lon="1.40227">
        <ele>138</ele>
        <time>2025-02-02T12:00:13Z</time>
      </trkpt>
      <trkpt lat="43.64802" lon="1.40228">
        <ele>138</ele>
        <time>2025-02-02T12:00:14Z</time>
      </trkpt>
      <trkpt lat="43.64804" lon="1.40228">
        <ele>138</ele>
        <time>2025-02-02T12:00:15Z</time>
      </trkpt>
      <trkpt lat="43.64806" lon="1.40228">
        <ele>138</ele>
        <time>2025-02-02T12:00:16Z</time>
      </trkpt>
      <trkpt lat="43.64809" lon="1.40227">
        <ele>138</ele>
        <time>2025-02-02T12:00:17Z</time>
      </trkpt>
      <trkpt lat="43.64811" lon="1.40226">
        <ele>138</ele>
        <time>2025-02-02T12:00:18Z</time>
      </trkpt>
      <trkpt lat="43.64814" lon="1.40225">
        <ele>138</ele>
        <time>2025-02-02T12:00:19Z</time>
      </trkpt>
      <trkpt lat="43.64816" lon="1.40225">
        <ele>138</ele>
        <time>2025-02-02T12:00:20Z</time>
      </trkpt>
      <trkpt lat="43.64819" lon="1.40225">
        <ele>138</ele>
        <time>2025-02-02T12:00:21Z</time>
      </trkpt>
      <trkpt lat="43.64821" lon="1.40225">
        <ele>138</ele>
        <time>2025-02-02T12:00:22Z</time>
      </trkpt>
      <trkpt lat="43.64825" lon="1.40225">
        <ele>138</ele>
        <time>2025-02-02T12:00:23Z</time>
      </trkpt>
      <trkpt lat="43.64826" lon="1.40225">
        <ele>138</ele>
        <time>2025-02-02T12:00:24Z</time>
      </trkpt>
      <trkpt lat="43.64828" lon="1.40225">
        <ele>138</ele>
        <time>2025-02-02T12:00:25Z</time>
      </trkpt>
      <trkpt lat="43.64831" lon="1.40224">
        <ele>138</ele>
        <time>2025-02-02T12:00:26Z</time>
      </trkpt>
      <trkpt lat="43.64834" lon="1.40224">
        <ele>138</ele>
        <time>2025-02-02T12:00:27Z</time>
      </trkpt>
      <trkpt lat="43.64838" lon="1.40223">
        <ele>138</ele>
        <time>2025-02-02T12:00:28Z</time>
      </trkpt>
      <trkpt lat="43.64839" lon="1.40223">
        <ele>138</ele>
        <time>2025-02-02T12:00:29Z</time>
      </trkpt>
      <trkpt lat="43.64842" lon="1.40223">
        <ele>138</ele>
        <time>2025-02-02T12:00:30Z</time>
      </trkpt>
      <trkpt lat="43.64845" lon="1.40223">
        <ele>138</ele>
        <time>2025-02-02T12:00:31Z</time>
      </trkpt>
      <trkpt lat="43.64847" lon="1.40223">
        <ele>138</ele>
        <time>2025-02-02T12:00:32Z</time>
      </trkpt>
      <trkpt lat="43.6485" lon="1.40223">
        <ele>138</ele>
        <time>2025-02-02T12:00:33Z</time>
      </trkpt>
      <trkpt lat="43.64852" lon="1.40224">
        <ele>138</ele>
        <time>2025-02-02T12:00:34Z</time>
      </trkpt>
      <trkpt lat="43.64855" lon="1.40224">
        <ele>138</ele>
        <time>2025-02-02T12:00:35Z</time>
      </trkpt>
      <trkpt lat="43.64857" lon="1.40224">
        <ele>138</ele>
        <time>2025-02-02T12:00:36Z</time>
      </trkpt>
      <trkpt lat="43.6486" lon="1.40224">
        <ele>138</ele>
        <time>2025-02-02T12:00:37Z</time>
      </trkpt>
      <trkpt lat="43.64863" lon="1.40225">
        <ele>138</ele>
        <time>2025-02-02T12:00:38Z</time>
      </trkpt>
      <trkpt lat="43.64865" lon="1.40226">
        <ele>138</ele>
        <time>2025-02-02T12:00:39Z</time>
      </trkpt>
      <trkpt lat="43.64868" lon="1.40226">
        <ele>138</ele>
        <time>2025-02-02T12:00:40Z</time>
      </trkpt>
      <trkpt lat="43.64871" lon="1.40227">
        <ele>138</ele>
        <time>2025-02-02T12:00:41Z</time>
      </trkpt>
      <trkpt lat="43.64875" lon="1.40229">
        <ele>138</ele>
        <time>2025-02-02T12:00:42Z</time>
      </trkpt>
      <trkpt lat="43.64876" lon="1.4023">
        <ele>138</ele>
        <time>2025-02-02T12:00:43Z</time>
      </trkpt>
      <trkpt lat="43.64879" lon="1.40231">
        <ele>138</ele>
        <time>2025-02-02T12:00:44Z</time>
      </trkpt>
      <trkpt lat="43.64882" lon="1.40233">
        <ele>138</ele>
        <time>2025-02-02T12:00:45Z</time>
      </trkpt>
      <trkpt lat="43.64885" lon="1.40236">
        <ele>138</ele>
        <time>2025-02-02T12:00:46Z</time>
      </trkpt>
      <trkpt lat="43.64887" lon="1.40237">
        <ele>138</ele>
        <time>2025-02-02T12:00:47Z</time>
      </trkpt>
      <trkpt lat="43.64889" lon="1.40239">
        <ele>138</ele>
        <time>2025-02-02T12:00:48Z</time>
      </trkpt>
      <trkpt lat="43.64892" lon="1.40241">
        <ele>138</ele>
        <time>2025-02-02T12:00:49Z</time>
      </trkpt>
      <trkpt lat="43.64895" lon="1.40243">
        <ele>138</ele>
        <time>2025-02-02T12:00:50Z</time>
      </trkpt>
      <trkpt lat="43.64897" lon="1.40244">
        <ele>138</ele>
        <time>2025-02-02T12:00:51Z</time>
      </trkpt>
      <trkpt lat="43.649" lon="1.40246">
        <ele>138</ele>
        <time>2025-02-02T12:00:52Z</time>
      </trkpt>
      <trkpt lat="43.64902" lon="1.40247">
        <ele>138</ele>
        <time>2025-02-02T12:00:53Z</time>
      </trkpt>
      <trkpt lat="43.64904" lon="1.40249">
        <ele>138</ele>
        <time>2025-02-02T12:00:54Z</time>
      </trkpt>
      <trkpt lat="43.64906" lon="1.40251">
        <ele>138</ele>
        <time>2025-02-02T12:00:55Z</time>
      </trkpt>
      <trkpt lat="43.64908" lon="1.40253">
        <ele>138</ele>
        <time>2025-02-02T12:00:56Z</time>
      </trkpt>
      <trkpt lat="43.6491" lon="1.40255">
        <ele>138</ele>
        <time>2025-02-02T12:00:57Z</time>
      </trkpt>
      <trkpt lat="43.64912" lon="1.40257">
        <ele>138</ele>
        <time>2025-02-02T12:00:58Z</time>
      </trkpt>
      <trkpt lat="43.64914" lon="1.40259">
        <ele>138</ele>
        <time>2025-02-02T12:00:59Z</time>
      </trkpt>
      <trkpt lat="43.64916" lon="1.40261">
        <ele>138</ele>
        <time>2025-02-02T12:01:00Z</time>
      </trkpt>
      <trkpt lat="43.64919" lon="1.40264">
        <ele>138</ele>
        <time>2025-02-02T12:01:01Z</time>
      </trkpt>
      <trkpt lat="43.64921" lon="1.40265">
        <ele>138</ele>
        <time>2025-02-02T12:01:02Z</time>
      </trkpt>
      <trkpt lat="43.64923" lon="1.40266">
        <ele>138</ele>
        <time>2025-02-02T12:01:03Z</time>
      </trkpt>
      <trkpt lat="43.64924" lon="1.40268">
        <ele>138</ele>
        <time>2025-02-02T12:01:04Z</time>
      </trkpt>
      <trkpt lat="43.64927" lon="1.40271">
        <ele>138</ele>
        <time>2025-02-02T12:01:05Z</time>
      </trkpt>
      <trkpt lat="43.64928" lon="1.40271">
        <ele>138</ele>
        <time>2025-02-02T12:01:06Z</time>
      </trkpt>
      <trkpt lat="43.6493" lon="1.40273">
        <ele>138</ele>
        <time>2025-02-02T12:01:07Z</time>
      </trkpt>
      <trkpt lat="43.64932" lon="1.40275">
        <ele>138</ele>
        <time>2025-02-02T12:01:08Z</time>
      </trkpt>
      <trkpt lat="43.64935" lon="1.40276">
        <ele>138</ele>
        <time>2025-02-02T12:01:09Z</time>
      </trkpt>
      <trkpt lat="43.64937" lon="1.40277">
        <ele>138</ele>
        <time>2025-02-02T12:01:10Z</time>
      </trkpt>
      <trkpt lat="43.6494" lon="1.40278">
        <ele>138</ele>
        <time>2025-02-02T12:01:11Z</time>
      </trkpt>
      <trkpt lat="43.64942" lon="1.4028">
        <ele>138</ele>
        <time>2025-02-02T12:01:12Z</time>
      </trkpt>
      <trkpt lat="43.64945" lon="1.40281">
        <ele>138</ele>
        <time>2025-02-02T12:01:13Z</time>
      </trkpt>
      <trkpt lat="43.64948" lon="1.40284">
        <ele>138</ele>
        <time>2025-02-02T12:01:14Z</time>
      </trkpt>
      <trkpt lat="43.6495" lon="1.40285">
        <ele>138</ele>
        <time>2025-02-02T12:01:15Z</time>
      </trkpt>
      <trkpt lat="43.64952" lon="1.40286">
        <ele>138</ele>
        <time>2025-02-02T12:01:16Z</time>
      </trkpt>
      <trkpt lat="43.64955" lon="1.40288">
        <ele>138</ele>
        <time>2025-02-02T12:01:17Z</time>
      </trkpt>
      <trkpt lat="43.64957" lon="1.40289">
        <ele>138</ele>
        <time>2025-02-02T12:01:18Z</time>
      </trkpt>
      <trkpt lat="43.64959" lon="1.40291">
        <ele>138</ele>
        <time>2025-02-02T12:01:19Z</time>
      </trkpt>
      <trkpt lat="43.64963" lon="1.40295">
        <ele>138</ele>
        <time>2025-02-02T12:01:20Z</time>
      </trkpt>
      <trkpt lat="43.64964" lon="1.40296">
        <ele>138</ele>
        <time>2025-02-02T12:01:21Z</time>
      </trkpt>
      <trkpt lat="43.64966" lon="1.40299">
        <ele>138</ele>
        <time>2025-02-02T12:01:22Z</time>
      </trkpt>
      <trkpt lat="43.64969" lon="1.40301">
        <ele>138</ele>
        <time>2025-02-02T12:01:23Z</time>
      </trkpt>
      <trkpt lat="43.64973" lon="1.40306">
        <ele>138</ele>
        <time>2025-02-02T12:01:24Z</time>
      </trkpt>
      <trkpt lat="43.64975" lon="1.40307">
        <ele>138</ele>
        <time>2025-02-02T12:01:25Z</time>
      </trkpt>
      <trkpt lat="43.64977" lon="1.40309">
        <ele>138</ele>
        <time>2025-02-02T12:01:26Z</time>
      </trkpt>
      <trkpt lat="43.64979" lon="1.40311">
        <ele>138</ele>
        <time>2025-02-02T12:01:27Z</time>
      </trkpt>
      <trkpt lat="43.64981" lon="1.40313">
        <ele>138</ele>
        <time>2025-02-02T12:01:28Z</time>
      </trkpt>
      <trkpt lat="43.64983" lon="1.40315">
        <ele>138</ele>
        <time>2025-02-02T12:01:29Z</time>
      </trkpt>
      <trkpt lat="43.64985" lon="1.40317">
        <ele>138</ele>
        <time>2025-02-02T12:01:30Z</time>
      </trkpt>
      <trkpt lat="43.64987" lon="1.40319">
        <ele>138</ele>
        <time>2025-02-02T12:01:31Z</time>
      </trkpt>
      <trkpt lat="43.64989" lon="1.40322">
        <ele>138</ele>
        <time>2025-02-02T12:01:32Z</time>
      </trkpt>
      <trkpt lat="43.64991" lon="1.40324">
        <ele>138</ele>
        <time>2025-02-02T12:01:33Z</time>
      </trkpt>
      <trkpt lat="43.64993" lon="1.40327">
        <ele>138</ele>
        <time>2025-02-02T12:01:34Z</time>
      </trkpt>
      <trkpt lat="43.64995" lon="1.40329">
        <ele>138</ele>
        <time>2025-02-02T12:01:35Z</time>
      </trkpt>
      <trkpt lat="43.64997" lon="1.40331">
        <ele>138</ele>
        <time>2025-02-02T12:01:36Z</time>
      </trkpt>
      <trkpt lat="43.64999" lon="1.40333">
        <ele>138</ele>
        <time>2025-02-02T12:01:37Z</time>
      </trkpt>
      <trkpt lat="43.65001" lon="1.40336">
        <ele>138</ele>
        <time>2025-02-02T12:01:38Z</time>
      </trkpt>
      <trkpt lat="43.65004" lon="1.40339">
        <ele>138</ele>
        <time>2025-02-02T12:01:39Z</time>
      </trkpt>
      <trkpt lat="43.65005" lon="1.40341">
        <ele>138</ele>
        <time>2025-02-02T12:01:40Z</time>
      </trkpt>
      <trkpt lat="43.65008" lon="1.40343">
        <ele>138</ele>
        <time>2025-02-02T12:01:41Z</time>
      </trkpt>
      <trkpt lat="43.65011" lon="1.40346">
        <ele>138</ele>
        <time>2025-02-02T12:01:42Z</time>
      </trkpt>
      <trkpt lat="43.65011" lon="1.40347">
        <ele>138</ele>
        <time>2025-02-02T12:01:43Z</time>
      </trkpt>
      <trkpt lat="43.65013" lon="1.40349">
        <ele>138</ele>
        <time>2025-02-02T12:01:44Z</time>
      </trkpt>
      <trkpt lat="43.65016" lon="1.40352">
        <ele>138</ele>
        <time>2025-02-02T12:01:45Z</time>
      </trkpt>
      <trkpt lat="43.65017" lon="1.40354">
        <ele>138</ele>
        <time>2025-02-02T12:01:46Z</time>
      </trkpt>
      <trkpt lat="43.65019" lon="1.40356">
        <ele>138</ele>
        <time>2025-02-02T12:01:47Z</time>
      </trkpt>
      <trkpt lat="43.65022" lon="1.40358">
        <ele>138</ele>
        <time>2025-02-02T12:01:48Z</time>
      </trkpt>
      <trkpt lat="43.65024" lon="1.4036">
        <ele>138</ele>
        <time>2025-02-02T12:01:49Z</time>
      </trkpt>
      <trkpt lat="43.65026" lon="1.40362">
        <ele>137</ele>
        <time>2025-02-02T12:01:50Z</time>
      </trkpt>
      <trkpt lat="43.65028" lon="1.40365">
        <ele>137</ele>
        <time>2025-02-02T12:01:51Z</time>
      </trkpt>
      <trkpt lat="43.65029" lon="1.40367">
        <ele>137</ele>
        <time>2025-02-02T12:01:52Z</time>
      </trkpt>
      <trkpt lat="43.65031" lon="1.4037">
        <ele>137</ele>
        <time>2025-02-02T12:01:53Z</time>
      </trkpt>
      <trkpt lat="43.65033" lon="1.40372">
        <ele>137</ele>
        <time>2025-02-02T12:01:54Z</time>
      </trkpt>
      <trkpt lat="43.65035" lon="1.40373">
        <ele>137</ele>
        <time>2025-02-02T12:01:55Z</time>
      </trkpt>
      <trkpt lat="43.65037" lon="1.40375">
        <ele>137</ele>
        <time>2025-02-02T12:01:56Z</time>
      </trkpt>
      <trkpt lat="43.65039" lon="1.40378">
        <ele>137</ele>
        <time>2025-02-02T12:01:57Z</time>
      </trkpt>
      <trkpt lat="43.65042" lon="1.40382">
        <ele>137</ele>
        <time>2025-02-02T12:01:58Z</time>
      </trkpt>
      <trkpt lat="43.65043" lon="1.40384">
        <ele>137</ele>
        <time>2025-02-02T12:01:59Z</time>
      </trkpt>
      <trkpt lat="43.65045" lon="1.40386">
        <ele>137</ele>
        <time>2025-02-02T12:02:00Z</time>
      </trkpt>
      <trkpt lat="43.65048" lon="1.4039">
        <ele>137</ele>
        <time>2025-02-02T12:02:01Z</time>
      </trkpt>
      <trkpt lat="43.65049" lon="1.40391">
        <ele>137</ele>
        <time>2025-02-02T12:02:02Z</time>
      </trkpt>
      <trkpt lat="43.65051" lon="1.40394">
        <ele>137</ele>
        <time>2025-02-02T12:02:03Z</time>
      </trkpt>
      <trkpt lat="43.65054" lon="1.40396">
        <ele>137</ele>
        <time>2025-02-02T12:02:04Z</time>
      </trkpt>
      <trkpt lat="43.65056" lon="1.40399">
        <ele>138</ele>
        <time>2025-02-02T12:02:05Z</time>
      </trkpt>
      <trkpt lat="43.65058" lon="1.40402">
        <ele>138</ele>
        <time>2025-02-02T12:02:06Z</time>
      </trkpt>
      <trkpt lat="43.65061" lon="1.40404">
        <ele>138</ele>
        <time>2025-02-02T12:02:07Z</time>
      </trkpt>
      <trkpt lat="43.65063" lon="1.40406">
        <ele>138</ele>
        <time>2025-02-02T12:02:08Z</time>
      </trkpt>
      <trkpt lat="43.65065" lon="1.40408">
        <ele>137</ele>
        <time>2025-02-02T12:02:09Z</time>
      </trkpt>
      <trkpt lat="43.65067" lon="1.4041">
        <ele>137</ele>
        <time>2025-02-02T12:02:10Z</time>
      </trkpt>
      <trkpt lat="43.65069" lon="1.40412">
        <ele>137</ele>
        <time>2025-02-02T12:02:11Z</time>
      </trkpt>
      <trkpt lat="43.65072" lon="1.40414">
        <ele>137</ele>
        <time>2025-02-02T12:02:12Z</time>
      </trkpt>
      <trkpt lat="43.65074" lon="1.40416">
        <ele>137</ele>
        <time>2025-02-02T12:02:13Z</time>
      </trkpt>
      <trkpt lat="43.65076" lon="1.40418">
        <ele>137</ele>
        <time>2025-02-02T12:02:14Z</time>
      </trkpt>
      <trkpt lat="43.65079" lon="1.4042">
        <ele>137</ele>
        <time>2025-02-02T12:02:15Z</time>
      </trkpt>
      <trkpt lat="43.65081" lon="1.40422">
        <ele>137</ele>
        <time>2025-02-02T12:02:16Z</time>
      </trkpt>
      <trkpt lat="43.65085" lon="1.40425">
        <ele>137</ele>
        <time>2025-02-02T12:02:17Z</time>
      </trkpt>
      <trkpt lat="43.65086" lon="1.40426">
        <ele>137</ele>
        <time>2025-02-02T12:02:18Z</time>
      </trkpt>
      <trkpt lat="43.65089" lon="1.40429">
        <ele>137</ele>
        <time>2025-02-02T12:02:19Z</time>
      </trkpt>
      <trkpt lat="43.6509" lon="1.4043">
        <ele>136</ele>
        <time>2025-02-02T12:02:20Z</time>
      </trkpt>
      <trkpt lat="43.65092" lon="1.40432">
        <ele>136</ele>
        <time>2025-02-02T12:02:21Z</time>
      </trkpt>
      <trkpt lat="43.65094" lon="1.40435">
        <ele>136</ele>
        <time>2025-02-02T12:02:22Z</time>
      </trkpt>
      <trkpt lat="43.65096" lon="1.40437">
        <ele>136</ele>
        <time>2025-02-02T12:02:23Z</time>
      </trkpt>
      <trkpt lat="43.65098" lon="1.40439">
        <ele>136</ele>
        <time>2025-02-02T12:02:24Z</time>
      </trkpt>
      <trkpt lat="43.651" lon="1.40441">
        <ele>136</ele>
        <time>2025-02-02T12:02:25Z</time>
      </trkpt>
      <trkpt lat="43.65102" lon="1.40443">
        <ele>136</ele>
        <time>2025-02-02T12:02:26Z</time>
      </trkpt>
      <trkpt lat="43.65105" lon="1.40446">
        <ele>136</ele>
        <time>2025-02-02T12:02:27Z</time>
      </trkpt>
      <trkpt lat="43.65107" lon="1.40448">
        <ele>136</ele>
        <time>2025-02-02T12:02:28Z</time>
      </trkpt>
      <trkpt lat="43.65109" lon="1.4045">
        <ele>136</ele>
        <time>2025-02-02T12:02:29Z</time>
      </trkpt>
      <trkpt lat="43.65111" lon="1.40452">
        <ele>136</ele>
        <time>2025-02-02T12:02:30Z</time>
      </trkpt>
      <trkpt lat="43.65113" lon="1.40455">
        <ele>136</ele>
        <time>2025-02-02T12:02:31Z</time>
      </trkpt>
      <trkpt lat="43.65115" lon="1.40457">
        <ele>136</ele>
        <time>2025-02-02T12:02:32Z</time>
      </trkpt>
      <trkpt lat="43.65118" lon="1.40459">
        <ele>136</ele>
        <time>2025-02-02T12:02:33Z</time>
      </trkpt>
      <trkpt lat="43.6512" lon="1.40461">
        <ele>136</ele>
        <time>2025-02-02T12:02:34Z</time>
      </trkpt>
      <trkpt lat="43.65122" lon="1.40463">
        <ele>135</ele>
        <time>2025-02-02T12:02:35Z</time>
      </trkpt>
      <trkpt lat="43.65125" lon="1.40466">
        <ele>135</ele>
        <time>2025-02-02T12:02:36Z</time>
      </trkpt>
      <trkpt lat="43.65126" lon="1.40468">
        <ele>135</ele>
        <time>2025-02-02T12:02:37Z</time>
      </trkpt>
      <trkpt lat="43.65128" lon="1.4047">
        <ele>135</ele>
        <time>2025-02-02T12:02:38Z</time>
      </trkpt>
      <trkpt lat="43.65131" lon="1.40473">
        <ele>135</ele>
        <time>2025-02-02T12:02:39Z</time>
      </trkpt>
      <trkpt lat="43.65132" lon="1.40474">
        <ele>135</ele>
        <time>2025-02-02T12:02:40Z</time>
      </trkpt>
      <trkpt lat="43.65134" lon="1.40476">
        <ele>135</ele>
        <time>2025-02-02T12:02:41Z</time>
      </trkpt>
      <trkpt lat="43.65136" lon="1.40478">
        <ele>135</ele>
        <time>2025-02-02T12:02:42Z</time>
      </trkpt>
      <trkpt lat="43.65138" lon="1.4048">
        <ele>135</ele>
        <time>2025-02-02T12:02:43Z</time>
      </trkpt>
      <trkpt lat="43.6514" lon="1.40482">
        <ele>135</ele>
        <time>2025-02-02T12:02:44Z</time>
      </trkpt>
      <trkpt lat="43.65142" lon="1.40485">
        <ele>135</ele>
        <time>2025-02-02T12:02:45Z</time>
      </trkpt>
      <trkpt lat="43.65144" lon="1.40487">
        <ele>135</ele>
        <time>2025-02-02T12:02:46Z</time>
      </trkpt>
      <trkpt lat="43.65146" lon="1.4049">
        <ele>135</ele>
        <time>2025-02-02T12:02:47Z</time>
      </trkpt>
      <trkpt lat="43.65148" lon="1.40492">
        <ele>135</ele>
        <time>2025-02-02T12:02:48Z</time>
      </trkpt>
      <trkpt lat="43.6515" lon="1.40495">
        <ele>135</ele>
        <time>2025-02-02T12:02:49Z</time>
      </trkpt>
      <trkpt lat="43.65152" lon="1.40497">
        <ele>135</ele>
        <time>2025-02-02T12:02:50Z</time>
      </trkpt>
      <trkpt lat="43.65154" lon="1.405">
        <ele>135</ele>
        <time>2025-02-02T12:02:51Z</time>
      </trkpt>
      <trkpt lat="43.65156" lon="1.40502">
        <ele>135</ele>
        <time>2025-02-02T12:02:52Z</time>
      </trkpt>
      <trkpt lat="43.65158" lon="1.40505">
        <ele>135</ele>
        <time>2025-02-02T12:02:53Z</time>
      </trkpt>
      <trkpt lat="43.65161" lon="1.40507">
        <ele>135</ele>
        <time>2025-02-02T12:02:54Z</time>
      </trkpt>
      <trkpt lat="43.65164" lon="1.4051">
        <ele>135</ele>
        <time>2025-02-02T12:02:55Z</time>
      </trkpt>
      <trkpt lat="43.65165" lon="1.40511">
        <ele>135</ele>
        <time>2025-02-02T12:02:56Z</time>
      </trkpt>
      <trkpt lat="43.65169" lon="1.40513">
        <ele>135</ele>
        <time>2025-02-02T12:02:57Z</time>
      </trkpt>
      <trkpt lat="43.6517" lon="1.40514">
        <ele>135</ele>
        <time>2025-02-02T12:02:58Z</time>
      </trkpt>
      <trkpt lat="43.65172" lon="1.40515">
        <ele>136</ele>
        <time>2025-02-02T12:02:59Z</time>
      </trkpt>
      <trkpt lat="43.65174" lon="1.40516">
        <ele>136</ele>
        <time>2025-02-02T12:03:00Z</time>
      </trkpt>
      <trkpt lat="43.65176" lon="1.40518">
        <ele>136</ele>
        <time>2025-02-02T12:03:01Z</time>
      </trkpt>
      <trkpt lat="43.65179" lon="1.40519">
        <ele>136</ele>
        <time>2025-02-02T12:03:02Z</time>
      </trkpt>
      <trkpt lat="43.65181" lon="1.40521">
        <ele>136</ele>
        <time>2025-02-02T12:03:03Z</time>
      </trkpt>
      <trkpt lat="43.65183" lon="1.40523">
        <ele>136</ele>
        <time>2025-02-02T12:03:04Z</time>
      </trkpt>
      <trkpt lat="43.65185" lon="1.40525">
        <ele>136</ele>
        <time>2025-02-02T12:03:05Z</time>
      </trkpt>
      <trkpt lat="43.65187" lon="1.40527">
        <ele>136</ele>
        <time>2025-02-02T12:03:06Z</time>
      </trkpt>
      <trkpt lat="43.65189" lon="1.40529">
        <ele>136</ele>
        <time>2025-02-02T12:03:07Z</time>
      </trkpt>
      <trkpt lat="43.65191" lon="1.40531">
        <ele>136</ele>
        <time>2025-02-02T12:03:08Z</time>
      </trkpt>
      <trkpt lat="43.65193" lon="1.40534">
        <ele>136</ele>
        <time>2025-02-02T12:03:09Z</time>
      </trkpt>
      <trkpt lat="43.65196" lon="1.40536">
        <ele>136</ele>
        <time>2025-02-02T12:03:10Z</time>
      </trkpt>
      <trkpt lat="43.65198" lon="1.40538">
        <ele>136</ele>
        <time>2025-02-02T12:03:11Z</time>
      </trkpt>
      <trkpt lat="43.652" lon="1.4054">
        <ele>136</ele>
        <time>2025-02-02T12:03:12Z</time>
      </trkpt>
      <trkpt lat="43.65202" lon="1.40542">
        <ele>136</ele>
        <time>2025-02-02T12:03:13Z</time>
      </trkpt>
      <trkpt lat="43.65205" lon="1.40545">
        <ele>136</ele>
        <time>2025-02-02T12:03:14Z</time>
      </trkpt>
      <trkpt lat="43.65206" lon="1.40546">
        <ele>136</ele>
        <time>2025-02-02T12:03:15Z</time>
      </trkpt>
      <trkpt lat="43.65208" lon="1.40548">
        <ele>136</ele>
        <time>2025-02-02T12:03:16Z</time>
      </trkpt>
      <trkpt lat="43.65211" lon="1.40551">
        <ele>136</ele>
        <time>2025-02-02T12:03:17Z</time>
      </trkpt>
      <trkpt lat="43.65212" lon="1.40552">
        <ele>136</ele>
        <time>2025-02-02T12:03:18Z</time>
      </trkpt>
      <trkpt lat="43.65214" lon="1.40554">
        <ele>136</ele>
        <time>2025-02-02T12:03:19Z</time>
      </trkpt>
      <trkpt lat="43.65216" lon="1.40556">
        <ele>136</ele>
        <time>2025-02-02T12:03:20Z</time>
      </trkpt>
      <trkpt lat="43.65218" lon="1.40558">
        <ele>136</ele>
        <time>2025-02-02T12:03:21Z</time>
      </trkpt>
      <trkpt lat="43.6522" lon="1.4056">
        <ele>136</ele>
        <time>2025-02-02T12:03:22Z</time>
      </trkpt>
      <trkpt lat="43.65222" lon="1.40562">
        <ele>136</ele>
        <time>2025-02-02T12:03:23Z</time>
      </trkpt>
      <trkpt lat="43.65226" lon="1.40566">
        <ele>136</ele>
        <time>2025-02-02T12:03:24Z</time>
      </trkpt>
      <trkpt lat="43.65226" lon="1.40566">
        <ele>136</ele>
        <time>2025-02-02T12:03:25Z</time>
      </trkpt>
      <trkpt lat="43.65228" lon="1.40568">
        <ele>136</ele>
        <time>2025-02-02T12:03:26Z</time>
      </trkpt>
      <trkpt lat="43.6523" lon="1.40569">
        <ele>136</ele>
        <time>2025-02-02T12:03:27Z</time>
      </trkpt>
      <trkpt lat="43.65233" lon="1.40571">
        <ele>136</ele>
        <time>2025-02-02T12:03:28Z</time>
      </trkpt>
      <trkpt lat="43.65235" lon="1.40573">
        <ele>136</ele>
        <time>2025-02-02T12:03:29Z</time>
      </trkpt>
      <trkpt lat="43.65237" lon="1.40575">
        <ele>136</ele>
        <time>2025-02-02T12:03:30Z</time>
      </trkpt>
      <trkpt lat="43.6524" lon="1.40576">
        <ele>136</ele>
        <time>2025-02-02T12:03:31Z</time>
      </trkpt>
      <trkpt lat="43.65242" lon="1.40578">
        <ele>136</ele>
        <time>2025-02-02T12:03:32Z</time>
      </trkpt>
      <trkpt lat="43.65245" lon="1.40581">
        <ele>136</ele>
        <time>2025-02-02T12:03:33Z</time>
      </trkpt>
      <trkpt lat="43.65246" lon="1.40582">
        <ele>136</ele>
        <time>2025-02-02T12:03:34Z</time>
      </trkpt>
      <trkpt lat="43.65249" lon="1.40584">
        <ele>136</ele>
        <time>2025-02-02T12:03:35Z</time>
      </trkpt>
      <trkpt lat="43.65252" lon="1.40587">
        <ele>136</ele>
        <time>2025-02-02T12:03:36Z</time>
      </trkpt>
      <trkpt lat="43.65253" lon="1.40588">
        <ele>136</ele>
        <time>2025-02-02T12:03:37Z</time>
      </trkpt>
      <trkpt lat="43.65255" lon="1.4059">
        <ele>136</ele>
        <time>2025-02-02T12:03:38Z</time>
      </trkpt>
      <trkpt lat="43.65257" lon="1.40592">
        <ele>135</ele>
        <time>2025-02-02T12:03:39Z</time>
      </trkpt>
      <trkpt lat="43.65259" lon="1.40594">
        <ele>135</ele>
        <time>2025-02-02T12:03:40Z</time>
      </trkpt>
      <trkpt lat="43.65262" lon="1.40597">
        <ele>135</ele>
        <time>2025-02-02T12:03:41Z</time>
      </trkpt>
      <trkpt lat="43.65263" lon="1.40598">
        <ele>135</ele>
        <time>2025-02-02T12:03:42Z</time>
      </trkpt>
      <trkpt lat="43.65265" lon="1.406">
        <ele>135</ele>
        <time>2025-02-02T12:03:43Z</time>
      </trkpt>
      <trkpt lat="43.65268" lon="1.40602">
        <ele>135</ele>
        <time>2025-02-02T12:03:44Z</time>
      </trkpt>
      <trkpt lat="43.6527" lon="1.40604">
        <ele>135</ele>
        <time>2025-02-02T12:03:45Z</time>
      </trkpt>
      <trkpt lat="43.65272" lon="1.40605">
        <ele>135</ele>
        <time>2025-02-02T12:03:46Z</time>
      </trkpt>
      <trkpt lat="43.65274" lon="1.40607">
        <ele>135</ele>
        <time>2025-02-02T12:03:47Z</time>
      </trkpt>
      <trkpt lat="43.65276" lon="1.40609">
        <ele>135</ele>
        <time>2025-02-02T12:03:48Z</time>
      </trkpt>
      <trkpt lat="43.65279" lon="1.4061">
        <ele>135</ele>
        <time>2025-02-02T12:03:49Z</time>
      </trkpt>
      <trkpt lat="43.65281" lon="1.40612">
        <ele>135</ele>
        <time>2025-02-02T12:03:50Z</time>
      </trkpt>
      <trkpt lat="43.65283" lon="1.40614">
        <ele>135</ele>
        <time>2025-02-02T12:03:51Z</time>
      </trkpt>
      <trkpt lat="43.65287" lon="1.40617">
        <ele>135</ele>
        <time>2025-02-02T12:03:52Z</time>
      </trkpt>
      <trkpt lat="43.65288" lon="1.40617">
        <ele>135</ele>
        <time>2025-02-02T12:03:53Z</time>
      </trkpt>
      <trkpt lat="43.6529" lon="1.4062">
        <ele>135</ele>
        <time>2025-02-02T12:03:54Z</time>
      </trkpt>
      <trkpt lat="43.65293" lon="1.40622">
        <ele>135</ele>
        <time>2025-02-02T12:03:55Z</time>
      </trkpt>
      <trkpt lat="43.65296" lon="1.40625">
        <ele>135</ele>
        <time>2025-02-02T12:03:56Z</time>
      </trkpt>
      <trkpt lat="43.65297" lon="1.40626">
        <ele>135</ele>
        <time>2025-02-02T12:03:57Z</time>
      </trkpt>
      <trkpt lat="43.65299" lon="1.40627">
        <ele>135</ele>
        <time>2025-02-02T12:03:58Z</time>
      </trkpt>
      <trkpt lat="43.65301" lon="1.40629">
        <ele>135</ele>
        <time>2025-02-02T12:03:59Z</time>
      </trkpt>
      <trkpt lat="43.65303" lon="1.40631">
        <ele>135</ele>
        <time>2025-02-02T12:04:00Z</time>
      </trkpt>
      <trkpt lat="43.65305" lon="1.40632">
        <ele>135</ele>
        <time>2025-02-02T12:04:01Z</time>
      </trkpt>
      <trkpt lat="43.65307" lon="1.40634">
        <ele>135</ele>
        <time>2025-02-02T12:04:02Z</time>
      </trkpt>
      <trkpt lat="43.6531" lon="1.40635">
        <ele>135</ele>
        <time>2025-02-02T12:04:03Z</time>
      </trkpt>
      <trkpt lat="43.65312" lon="1.40637">
        <ele>135</ele>
        <time>2025-02-02T12:04:04Z</time>
      </trkpt>
      <trkpt lat="43.65314" lon="1.40638">
        <ele>135</ele>
        <time>2025-02-02T12:04:05Z</time>
      </trkpt>
      <trkpt lat="43.65316" lon="1.4064">
        <ele>135</ele>
        <time>2025-02-02T12:04:06Z</time>
      </trkpt>
      <trkpt lat="43.65319" lon="1.40641">
        <ele>135</ele>
        <time>2025-02-02T12:04:07Z</time>
      </trkpt>
      <trkpt lat="43.65321" lon="1.40643">
        <ele>135</ele>
        <time>2025-02-02T12:04:08Z</time>
      </trkpt>
      <trkpt lat="43.65323" lon="1.40644">
        <ele>135</ele>
        <time>2025-02-02T12:04:09Z</time>
      </trkpt>
      <trkpt lat="43.65326" lon="1.40646">
        <ele>135</ele>
        <time>2025-02-02T12:04:10Z</time>
      </trkpt>
      <trkpt lat="43.6533" lon="1.40648">
        <ele>135</ele>
        <time>2025-02-02T12:04:11Z</time>
      </trkpt>
      <trkpt lat="43.65331" lon="1.40649">
        <ele>135</ele>
        <time>2025-02-02T12:04:12Z</time>
      </trkpt>
      <trkpt lat="43.65333" lon="1.40651">
        <ele>135</ele>
        <time>2025-02-02T12:04:13Z</time>
      </trkpt>
      <trkpt lat="43.65335" lon="1.40652">
        <ele>135</ele>
        <time>2025-02-02T12:04:14Z</time>
      </trkpt>
      <trkpt lat="43.65338" lon="1.40654">
        <ele>135</ele>
        <time>2025-02-02T12:04:15Z</time>
      </trkpt>
      <trkpt lat="43.65341" lon="1.40656">
        <ele>135</ele>
        <time>2025-02-02T12:04:16Z</time>
      </trkpt>
      <trkpt lat="43.65342" lon="1.40657">
        <ele>135</ele>
        <time>2025-02-02T12:04:17Z</time>
      </trkpt>
      <trkpt lat="43.65344" lon="1.40659">
        <ele>135</ele>
        <time>2025-02-02T12:04:18Z</time>
      </trkpt>
      <trkpt lat="43.65347" lon="1.40661">
        <ele>135</ele>
        <time>2025-02-02T12:04:19Z</time>
      </trkpt>
      <trkpt lat="43.65349" lon="1.40663">
        <ele>135</ele>
        <time>2025-02-02T12:04:20Z</time>
      </trkpt>
      <trkpt lat="43.65351" lon="1.40664">
        <ele>135</ele>
        <time>2025-02-02T12:04:21Z</time>
      </trkpt>
      <trkpt lat="43.65354" lon="1.40666">
        <ele>135</ele>
        <time>2025-02-02T12:04:22Z</time>
      </trkpt>
      <trkpt lat="43.65356" lon="1.40667">
        <ele>135</ele>
        <time>2025-02-02T12:04:23Z</time>
      </trkpt>
      <trkpt lat="43.65359" lon="1.40669">
        <ele>135</ele>
        <time>2025-02-02T12:04:24Z</time>
      </trkpt>
      <trkpt lat="43.65361" lon="1.4067">
        <ele>135</ele>
        <time>2025-02-02T12:04:25Z</time>
      </trkpt>
      <trkpt lat="43.65364" lon="1.40671">
        <ele>135</ele>
        <time>2025-02-02T12:04:26Z</time>
      </trkpt>
      <trkpt lat="43.65366" lon="1.40673">
        <ele>135</ele>
        <time>2025-02-02T12:04:27Z</time>
      </trkpt>
      <trkpt lat="43.65368" lon="1.40674">
        <ele>135</ele>
        <time>2025-02-02T12:04:28Z</time>
      </trkpt>
      <trkpt lat="43.6537" lon="1.40675">
        <ele>135</ele>
        <time>2025-02-02T12:04:29Z</time>
      </trkpt>
      <trkpt lat="43.65374" lon="1.40677">
        <ele>135</ele>
        <time>2025-02-02T12:04:30Z</time>
      </trkpt>
      <trkpt lat="43.65375" lon="1.40678">
        <ele>135</ele>
        <time>2025-02-02T12:04:31Z</time>
      </trkpt>
      <trkpt lat="43.65377" lon="1.40679">
        <ele>135</ele>
        <time>2025-02-02T12:04:32Z</time>
      </trkpt>
      <trkpt lat="43.65379" lon="1.40681">
        <ele>135</ele>
        <time>2025-02-02T12:04:33Z</time>
      </trkpt>
      <trkpt lat="43.65381" lon="1.40683">
        <ele>135</ele>
        <time>2025-02-02T12:04:34Z</time>
      </trkpt>
      <trkpt lat="43.65385" lon="1.40685">
        <ele>135</ele>
        <time>2025-02-02T12:04:35Z</time>
      </trkpt>
      <trkpt lat="43.65386" lon="1.40687">
        <ele>135</ele>
        <time>2025-02-02T12:04:36Z</time>
      </trkpt>
      <trkpt lat="43.65388" lon="1.40688">
        <ele>135</ele>
        <time>2025-02-02T12:04:37Z</time>
      </trkpt>
      <trkpt lat="43.6539" lon="1.4069">
        <ele>135</ele>
        <time>2025-02-02T12:04:38Z</time>
      </trkpt>
      <trkpt lat="43.65392" lon="1.40691">
        <ele>135</ele>
        <time>2025-02-02T12:04:39Z</time>
      </trkpt>
      <trkpt lat="43.65395" lon="1.40692">
        <ele>135</ele>
        <time>2025-02-02T12:04:40Z</time>
      </trkpt>
      <trkpt lat="43.65397" lon="1.40693">
        <ele>135</ele>
        <time>2025-02-02T12:04:41Z</time>
      </trkpt>
      <trkpt lat="43.654" lon="1.40695">
        <ele>135</ele>
        <time>2025-02-02T12:04:42Z</time>
      </trkpt>
      <trkpt lat="43.65402" lon="1.40696">
        <ele>135</ele>
        <time>2025-02-02T12:04:43Z</time>
      </trkpt>
      <trkpt lat="43.65404" lon="1.40697">
        <ele>135</ele>
        <time>2025-02-02T12:04:44Z</time>
      </trkpt>
      <trkpt lat="43.65406" lon="1.40699">
        <ele>135</ele>
        <time>2025-02-02T12:04:45Z</time>
      </trkpt>
      <trkpt lat="43.65408" lon="1.407">
        <ele>136</ele>
        <time>2025-02-02T12:04:46Z</time>
      </trkpt>
      <trkpt lat="43.65411" lon="1.40701">
        <ele>136</ele>
        <time>2025-02-02T12:04:47Z</time>
      </trkpt>
      <trkpt lat="43.65413" lon="1.40703">
        <ele>136</ele>
        <time>2025-02-02T12:04:48Z</time>
      </trkpt>
      <trkpt lat="43.65417" lon="1.40706">
        <ele>136</ele>
        <time>2025-02-02T12:04:49Z</time>
      </trkpt>
      <trkpt lat="43.65418" lon="1.40707">
        <ele>136</ele>
        <time>2025-02-02T12:04:50Z</time>
      </trkpt>
      <trkpt lat="43.65421" lon="1.40708">
        <ele>136</ele>
        <time>2025-02-02T12:04:51Z</time>
      </trkpt>
      <trkpt lat="43.65423" lon="1.4071">
        <ele>136</ele>
        <time>2025-02-02T12:04:52Z</time>
      </trkpt>
      <trkpt lat="43.65425" lon="1.40712">
        <ele>137</ele>
        <time>2025-02-02T12:04:53Z</time>
      </trkpt>
      <trkpt lat="43.65429" lon="1.40715">
        <ele>137</ele>
        <time>2025-02-02T12:04:54Z</time>
      </trkpt>
      <trkpt lat="43.6543" lon="1.40715">
        <ele>137</ele>
        <time>2025-02-02T12:04:55Z</time>
      </trkpt>
      <trkpt lat="43.65433" lon="1.40717">
        <ele>137</ele>
        <time>2025-02-02T12:04:56Z</time>
      </trkpt>
      <trkpt lat="43.65435" lon="1.40719">
        <ele>137</ele>
        <time>2025-02-02T12:04:57Z</time>
      </trkpt>
      <trkpt lat="43.65437" lon="1.4072">
        <ele>136</ele>
        <time>2025-02-02T12:04:58Z</time>
      </trkpt>
      <trkpt lat="43.6544" lon="1.40722">
        <ele>136</ele>
        <time>2025-02-02T12:04:59Z</time>
      </trkpt>
      <trkpt lat="43.65442" lon="1.40723">
        <ele>136</ele>
        <time>2025-02-02T12:05:00Z</time>
      </trkpt>
      <trkpt lat="43.65444" lon="1.40724">
        <ele>136</ele>
        <time>2025-02-02T12:05:01Z</time>
      </trkpt>
      <trkpt lat="43.65446" lon="1.40726">
        <ele>136</ele>
        <time>2025-02-02T12:05:02Z</time>
      </trkpt>
      <trkpt lat="43.65449" lon="1.40727">
        <ele>136</ele>
        <time>2025-02-02T12:05:03Z</time>
      </trkpt>
      <trkpt lat="43.65451" lon="1.40728">
        <ele>136</ele>
        <time>2025-02-02T12:05:04Z</time>
      </trkpt>
      <trkpt lat="43.65453" lon="1.40729">
        <ele>136</ele>
        <time>2025-02-02T12:05:05Z</time>
      </trkpt>
      <trkpt lat="43.65455" lon="1.4073">
        <ele>136</ele>
        <time>2025-02-02T12:05:06Z</time>
      </trkpt>
      <trkpt lat="43.65457" lon="1.40732">
        <ele>136</ele>
        <time>2025-02-02T12:05:07Z</time>
      </trkpt>
      <trkpt lat="43.65461" lon="1.40734">
        <ele>136</ele>
        <time>2025-02-02T12:05:08Z</time>
      </trkpt>
      <trkpt lat="43.65462" lon="1.40735">
        <ele>136</ele>
        <time>2025-02-02T12:05:09Z</time>
      </trkpt>
      <trkpt lat="43.65465" lon="1.40737">
        <ele>136</ele>
        <time>2025-02-02T12:05:10Z</time>
      </trkpt>
      <trkpt lat="43.65467" lon="1.40738">
        <ele>136</ele>
        <time>2025-02-02T12:05:11Z</time>
      </trkpt>
      <trkpt lat="43.6547" lon="1.4074">
        <ele>136</ele>
        <time>2025-02-02T12:05:12Z</time>
      </trkpt>
      <trkpt lat="43.65472" lon="1.40741">
        <ele>136</ele>
        <time>2025-02-02T12:05:13Z</time>
      </trkpt>
      <trkpt lat="43.65475" lon="1.40743">
        <ele>136</ele>
        <time>2025-02-02T12:05:14Z</time>
      </trkpt>
      <trkpt lat="43.65477" lon="1.40744">
        <ele>136</ele>
        <time>2025-02-02T12:05:15Z</time>
      </trkpt>
      <trkpt lat="43.65479" lon="1.40746">
        <ele>136</ele>
        <time>2025-02-02T12:05:16Z</time>
      </trkpt>
      <trkpt lat="43.65481" lon="1.40747">
        <ele>136</ele>
        <time>2025-02-02T12:05:17Z</time>
      </trkpt>
      <trkpt lat="43.65483" lon="1.40749">
        <ele>136</ele>
        <time>2025-02-02T12:05:18Z</time>
      </trkpt>
      <trkpt lat="43.65486" lon="1.4075">
        <ele>136</ele>
        <time>2025-02-02T12:05:19Z</time>
      </trkpt>
      <trkpt lat="43.65488" lon="1.40752">
        <ele>136</ele>
        <time>2025-02-02T12:05:20Z</time>
      </trkpt>
      <trkpt lat="43.6549" lon="1.40753">
        <ele>136</ele>
        <time>2025-02-02T12:05:21Z</time>
      </trkpt>
      <trkpt lat="43.65492" lon="1.40754">
        <ele>136</ele>
        <time>2025-02-02T12:05:22Z</time>
      </trkpt>
      <trkpt lat="43.65494" lon="1.40756">
        <ele>136</ele>
        <time>2025-02-02T12:05:23Z</time>
      </trkpt>
      <trkpt lat="43.65497" lon="1.40758">
        <ele>136</ele>
        <time>2025-02-02T12:05:24Z</time>
      </trkpt>
      <trkpt lat="43.65498" lon="1.40759">
        <ele>136</ele>
        <time>2025-02-02T12:05:25Z</time>
      </trkpt>
      <trkpt lat="43.65501" lon="1.40761">
        <ele>136</ele>
        <time>2025-02-02T12:05:26Z</time>
      </trkpt>
      <trkpt lat="43.65504" lon="1.40763">
        <ele>136</ele>
        <time>2025-02-02T12:05:27Z</time>
      </trkpt>
      <trkpt lat="43.65505" lon="1.40763">
        <ele>136</ele>
        <time>2025-02-02T12:05:28Z</time>
      </trkpt>
      <trkpt lat="43.65507" lon="1.40764">
        <ele>136</ele>
        <time>2025-02-02T12:05:29Z</time>
      </trkpt>
      <trkpt lat="43.6551" lon="1.40766">
        <ele>136</ele>
        <time>2025-02-02T12:05:30Z</time>
      </trkpt>
      <trkpt lat="43.65512" lon="1.40767">
        <ele>136</ele>
        <time>2025-02-02T12:05:31Z</time>
      </trkpt>
      <trkpt lat="43.65514" lon="1.40767">
        <ele>136</ele>
        <time>2025-02-02T12:05:32Z</time>
      </trkpt>
      <trkpt lat="43.65516" lon="1.40768">
        <ele>137</ele>
        <time>2025-02-02T12:05:33Z</time>
      </trkpt>
      <trkpt lat="43.65519" lon="1.40768">
        <ele>137</ele>
        <time>2025-02-02T12:05:34Z</time>
      </trkpt>
      <trkpt lat="43.65523" lon="1.40768">
        <ele>137</ele>
        <time>2025-02-02T12:05:35Z</time>
      </trkpt>
      <trkpt lat="43.65524" lon="1.40768">
        <ele>138</ele>
        <time>2025-02-02T12:05:36Z</time>
      </trkpt>
      <trkpt lat="43.65527" lon="1.40768">
        <ele>138</ele>
        <time>2025-02-02T12:05:37Z</time>
      </trkpt>
      <trkpt lat="43.6553" lon="1.40768">
        <ele>138</ele>
        <time>2025-02-02T12:05:38Z</time>
      </trkpt>
      <trkpt lat="43.65532" lon="1.40768">
        <ele>138</ele>
        <time>2025-02-02T12:05:39Z</time>
      </trkpt>
      <trkpt lat="43.65535" lon="1.40767">
        <ele>138</ele>
        <time>2025-02-02T12:05:40Z</time>
      </trkpt>
      <trkpt lat="43.65538" lon="1.40766">
        <ele>138</ele>
        <time>2025-02-02T12:05:41Z</time>
      </trkpt>
      <trkpt lat="43.6554" lon="1.40766">
        <ele>138</ele>
        <time>2025-02-02T12:05:42Z</time>
      </trkpt>
      <trkpt lat="43.65543" lon="1.40765">
        <ele>138</ele>
        <time>2025-02-02T12:05:43Z</time>
      </trkpt>
      <trkpt lat="43.65546" lon="1.40764">
        <ele>138</ele>
        <time>2025-02-02T12:05:44Z</time>
      </trkpt>
      <trkpt lat="43.65549" lon="1.40764">
        <ele>138</ele>
        <time>2025-02-02T12:05:45Z</time>
      </trkpt>
      <trkpt lat="43.65554" lon="1.40762">
        <ele>138</ele>
        <time>2025-02-02T12:05:46Z</time>
      </trkpt>
      <trkpt lat="43.65555" lon="1.40762">
        <ele>139</ele>
        <time>2025-02-02T12:05:47Z</time>
      </trkpt>
      <trkpt lat="43.65558" lon="1.40761">
        <ele>139</ele>
        <time>2025-02-02T12:05:48Z</time>
      </trkpt>
      <trkpt lat="43.65561" lon="1.4076">
        <ele>139</ele>
        <time>2025-02-02T12:05:49Z</time>
      </trkpt>
      <trkpt lat="43.65564" lon="1.40759">
        <ele>139</ele>
        <time>2025-02-02T12:05:50Z</time>
      </trkpt>
      <trkpt lat="43.65567" lon="1.40758">
        <ele>139</ele>
        <time>2025-02-02T12:05:51Z</time>
      </trkpt>
      <trkpt lat="43.65571" lon="1.40757">
        <ele>139</ele>
        <time>2025-02-02T12:05:52Z</time>
      </trkpt>
      <trkpt lat="43.65572" lon="1.40756">
        <ele>138</ele>
        <time>2025-02-02T12:05:53Z</time>
      </trkpt>
      <trkpt lat="43.65575" lon="1.40756">
        <ele>138</ele>
        <time>2025-02-02T12:05:54Z</time>
      </trkpt>
      <trkpt lat="43.65577" lon="1.40755">
        <ele>138</ele>
        <time>2025-02-02T12:05:55Z</time>
      </trkpt>
      <trkpt lat="43.6558" lon="1.40754">
        <ele>138</ele>
        <time>2025-02-02T12:05:56Z</time>
      </trkpt>
      <trkpt lat="43.65583" lon="1.40753">
        <ele>138</ele>
        <time>2025-02-02T12:05:57Z</time>
      </trkpt>
      <trkpt lat="43.65586" lon="1.40752">
        <ele>138</ele>
        <time>2025-02-02T12:05:58Z</time>
      </trkpt>
      <trkpt lat="43.65588" lon="1.40751">
        <ele>138</ele>
        <time>2025-02-02T12:05:59Z</time>
      </trkpt>
      <trkpt lat="43.65591" lon="1.4075">
        <ele>138</ele>
        <time>2025-02-02T12:06:00Z</time>
      </trkpt>
      <trkpt lat="43.65593" lon="1.4075">
        <ele>138</ele>
        <time>2025-02-02T12:06:01Z</time>
      </trkpt>
      <trkpt lat="43.65596" lon="1.4075">
        <ele>138</ele>
        <time>2025-02-02T12:06:02Z</time>
      </trkpt>
      <trkpt lat="43.65599" lon="1.4075">
        <ele>138</ele>
        <time>2025-02-02T12:06:03Z</time>
      </trkpt>
      <trkpt lat="43.65602" lon="1.40749">
        <ele>138</ele>
        <time>2025-02-02T12:06:04Z</time>
      </trkpt>
      <trkpt lat="43.65606" lon="1.40749">
        <ele>138</ele>
        <time>2025-02-02T12:06:05Z</time>
      </trkpt>
      <trkpt lat="43.65607" lon="1.40749">
        <ele>138</ele>
        <time>2025-02-02T12:06:06Z</time>
      </trkpt>
      <trkpt lat="43.6561" lon="1.40749">
        <ele>138</ele>
        <time>2025-02-02T12:06:07Z</time>
      </trkpt>
      <trkpt lat="43.65612" lon="1.40749">
        <ele>138</ele>
        <time>2025-02-02T12:06:08Z</time>
      </trkpt>
      <trkpt lat="43.65615" lon="1.40749">
        <ele>138</ele>
        <time>2025-02-02T12:06:09Z</time>
      </trkpt>
      <trkpt lat="43.65619" lon="1.40748">
        <ele>138</ele>
        <time>2025-02-02T12:06:10Z</time>
      </trkpt>
      <trkpt lat="43.6562" lon="1.40748">
        <ele>139</ele>
        <time>2025-02-02T12:06:11Z</time>
      </trkpt>
      <trkpt lat="43.65623" lon="1.40748">
        <ele>139</ele>
        <time>2025-02-02T12:06:12Z</time>
      </trkpt>
      <trkpt lat="43.65625" lon="1.40748">
        <ele>139</ele>
        <time>2025-02-02T12:06:13Z</time>
      </trkpt>
      <trkpt lat="43.65628" lon="1.40747">
        <ele>139</ele>
        <time>2025-02-02T12:06:14Z</time>
      </trkpt>
      <trkpt lat="43.6563" lon="1.40748">
        <ele>139</ele>
        <time>2025-02-02T12:06:15Z</time>
      </trkpt>
      <trkpt lat="43.65633" lon="1.40748">
        <ele>139</ele>
        <time>2025-02-02T12:06:16Z</time>
      </trkpt>
      <trkpt lat="43.65636" lon="1.40747">
        <ele>139</ele>
        <time>2025-02-02T12:06:17Z</time>
      </trkpt>
      <trkpt lat="43.65639" lon="1.40748">
        <ele>139</ele>
        <time>2025-02-02T12:06:18Z</time>
      </trkpt>
      <trkpt lat="43.65641" lon="1.40748">
        <ele>139</ele>
        <time>2025-02-02T12:06:19Z</time>
      </trkpt>
      <trkpt lat="43.65644" lon="1.40748">
        <ele>139</ele>
        <time>2025-02-02T12:06:20Z</time>
      </trkpt>
      <trkpt lat="43.65647" lon="1.40748">
        <ele>139</ele>
        <time>2025-02-02T12:06:21Z</time>
      </trkpt>
      <trkpt lat="43.65649" lon="1.40748">
        <ele>139</ele>
        <time>2025-02-02T12:06:22Z</time>
      </trkpt>
      <trkpt lat="43.65652" lon="1.40748">
        <ele>139</ele>
        <time>2025-02-02T12:06:23Z</time>
      </trkpt>
      <trkpt lat="43.65656" lon="1.40748">
        <ele>139</ele>
        <time>2025-02-02T12:06:24Z</time>
      </trkpt>
      <trkpt lat="43.65658" lon="1.40748">
        <ele>139</ele>
        <time>2025-02-02T12:06:25Z</time>
      </trkpt>
      <trkpt lat="43.6566" lon="1.40748">
        <ele>139</ele>
        <time>2025-02-02T12:06:26Z</time>
      </trkpt>
      <trkpt lat="43.65663" lon="1.40748">
        <ele>140</ele>
        <time>2025-02-02T12:06:27Z</time>
      </trkpt>
      <trkpt lat="43.65665" lon="1.40748">
        <ele>140</ele>
        <time>2025-02-02T12:06:28Z</time>
      </trkpt>
      <trkpt lat="43.6567" lon="1.40749">
        <ele>140</ele>
        <time>2025-02-02T12:06:29Z</time>
      </trkpt>
      <trkpt lat="43.65671" lon="1.40749">
        <ele>140</ele>
        <time>2025-02-02T12:06:30Z</time>
      </trkpt>
      <trkpt lat="43.65674" lon="1.40749">
        <ele>140</ele>
        <time>2025-02-02T12:06:31Z</time>
      </trkpt>
      <trkpt lat="43.65677" lon="1.40749">
        <ele>140</ele>
        <time>2025-02-02T12:06:32Z</time>
      </trkpt>
      <trkpt lat="43.6568" lon="1.40749">
        <ele>140</ele>
        <time>2025-02-02T12:06:33Z</time>
      </trkpt>
      <trkpt lat="43.65684" lon="1.40749">
        <ele>140</ele>
        <time>2025-02-02T12:06:34Z</time>
      </trkpt>
      <trkpt lat="43.65686" lon="1.40748">
        <ele>140</ele>
        <time>2025-02-02T12:06:35Z</time>
      </trkpt>
      <trkpt lat="43.6569" lon="1.40747">
        <ele>140</ele>
        <time>2025-02-02T12:06:36Z</time>
      </trkpt>
      <trkpt lat="43.65692" lon="1.40746">
        <ele>140</ele>
        <time>2025-02-02T12:06:37Z</time>
      </trkpt>
      <trkpt lat="43.65696" lon="1.40746">
        <ele>141</ele>
        <time>2025-02-02T12:06:38Z</time>
      </trkpt>
      <trkpt lat="43.65699" lon="1.40745">
        <ele>141</ele>
        <time>2025-02-02T12:06:39Z</time>
      </trkpt>
      <trkpt lat="43.65703" lon="1.40744">
        <ele>140</ele>
        <time>2025-02-02T12:06:40Z</time>
      </trkpt>
      <trkpt lat="43.65706" lon="1.40743">
        <ele>140</ele>
        <time>2025-02-02T12:06:41Z</time>
      </trkpt>
      <trkpt lat="43.6571" lon="1.40742">
        <ele>139</ele>
        <time>2025-02-02T12:06:42Z</time>
      </trkpt>
      <trkpt lat="43.65715" lon="1.40741">
        <ele>139</ele>
        <time>2025-02-02T12:06:43Z</time>
      </trkpt>
      <trkpt lat="43.65716" lon="1.40741">
        <ele>139</ele>
        <time>2025-02-02T12:06:44Z</time>
      </trkpt>
      <trkpt lat="43.65721" lon="1.4074">
        <ele>139</ele>
        <time>2025-02-02T12:06:45Z</time>
      </trkpt>
      <trkpt lat="43.65722" lon="1.4074">
        <ele>139</ele>
        <time>2025-02-02T12:06:46Z</time>
      </trkpt>
      <trkpt lat="43.65725" lon="1.4074">
        <ele>139</ele>
        <time>2025-02-02T12:06:47Z</time>
      </trkpt>
      <trkpt lat="43.65728" lon="1.4074">
        <ele>138</ele>
        <time>2025-02-02T12:06:48Z</time>
      </trkpt>
      <trkpt lat="43.65731" lon="1.40739">
        <ele>138</ele>
        <time>2025-02-02T12:06:49Z</time>
      </trkpt>
      <trkpt lat="43.65734" lon="1.40739">
        <ele>138</ele>
        <time>2025-02-02T12:06:50Z</time>
      </trkpt>
      <trkpt lat="43.65736" lon="1.40738">
        <ele>138</ele>
        <time>2025-02-02T12:06:51Z</time>
      </trkpt>
      <trkpt lat="43.65739" lon="1.40738">
        <ele>138</ele>
        <time>2025-02-02T12:06:52Z</time>
      </trkpt>
      <trkpt lat="43.65742" lon="1.40738">
        <ele>138</ele>
        <time>2025-02-02T12:06:53Z</time>
      </trkpt>
      <trkpt lat="43.65745" lon="1.40737">
        <ele>138</ele>
        <time>2025-02-02T12:06:54Z</time>
      </trkpt>
      <trkpt lat="43.65748" lon="1.40738">
        <ele>138</ele>
        <time>2025-02-02T12:06:55Z</time>
      </trkpt>
      <trkpt lat="43.6575" lon="1.40738">
        <ele>138</ele>
        <time>2025-02-02T12:06:56Z</time>
      </trkpt>
      <trkpt lat="43.65753" lon="1.40738">
        <ele>138</ele>
        <time>2025-02-02T12:06:57Z</time>
      </trkpt>
      <trkpt lat="43.65755" lon="1.40738">
        <ele>138</ele>
        <time>2025-02-02T12:06:58Z</time>
      </trkpt>
      <trkpt lat="43.65758" lon="1.40738">
        <ele>138</ele>
        <time>2025-02-02T12:06:59Z</time>
      </trkpt>
      <trkpt lat="43.65761" lon="1.40738">
        <ele>138</ele>
        <time>2025-02-02T12:07:00Z</time>
      </trkpt>
      <trkpt lat="43.65764" lon="1.40738">
        <ele>138</ele>
        <time>2025-02-02T12:07:01Z</time>
      </trkpt>
      <trkpt lat="43.65768" lon="1.40738">
        <ele>138</ele>
        <time>2025-02-02T12:07:02Z</time>
      </trkpt>
      <trkpt lat="43.6577" lon="1.40739">
        <ele>138</ele>
        <time>2025-02-02T12:07:03Z</time>
      </trkpt>
      <trkpt lat="43.65773" lon="1.40739">
        <ele>138</ele>
        <time>2025-02-02T12:07:04Z</time>
      </trkpt>
      <trkpt lat="43.65775" lon="1.40739">
        <ele>138</ele>
        <time>2025-02-02T12:07:05Z</time>
      </trkpt>
      <trkpt lat="43.65778" lon="1.40739">
        <ele>138</ele>
        <time>2025-02-02T12:07:06Z</time>
      </trkpt>
      <trkpt lat="43.65781" lon="1.4074">
        <ele>138</ele>
        <time>2025-02-02T12:07:07Z</time>
      </trkpt>
      <trkpt lat="43.65783" lon="1.4074">
        <ele>138</ele>
        <time>2025-02-02T12:07:08Z</time>
      </trkpt>
      <trkpt lat="43.65785" lon="1.40741">
        <ele>138</ele>
        <time>2025-02-02T12:07:09Z</time>
      </trkpt>
      <trkpt lat="43.65788" lon="1.4074">
        <ele>138</ele>
        <time>2025-02-02T12:07:10Z</time>
      </trkpt>
      <trkpt lat="43.6579" lon="1.4074">
        <ele>138</ele>
        <time>2025-02-02T12:07:11Z</time>
      </trkpt>
      <trkpt lat="43.65792" lon="1.4074">
        <ele>138</ele>
        <time>2025-02-02T12:07:12Z</time>
      </trkpt>
      <trkpt lat="43.65794" lon="1.40741">
        <ele>138</ele>
        <time>2025-02-02T12:07:13Z</time>
      </trkpt>
      <trkpt lat="43.65797" lon="1.4074">
        <ele>138</ele>
        <time>2025-02-02T12:07:14Z</time>
      </trkpt>
      <trkpt lat="43.65799" lon="1.40741">
        <ele>138</ele>
        <time>2025-02-02T12:07:15Z</time>
      </trkpt>
      <trkpt lat="43.65802" lon="1.4074">
        <ele>138</ele>
        <time>2025-02-02T12:07:16Z</time>
      </trkpt>
      <trkpt lat="43.65805" lon="1.4074">
        <ele>138</ele>
        <time>2025-02-02T12:07:17Z</time>
      </trkpt>
      <trkpt lat="43.65807" lon="1.4074">
        <ele>138</ele>
        <time>2025-02-02T12:07:18Z</time>
      </trkpt>
      <trkpt lat="43.6581" lon="1.4074">
        <ele>137</ele>
        <time>2025-02-02T12:07:19Z</time>
      </trkpt>
      <trkpt lat="43.65813" lon="1.4074">
        <ele>137</ele>
        <time>2025-02-02T12:07:20Z</time>
      </trkpt>
      <trkpt lat="43.65815" lon="1.40739">
        <ele>137</ele>
        <time>2025-02-02T12:07:21Z</time>
      </trkpt>
      <trkpt lat="43.65818" lon="1.40739">
        <ele>137</ele>
        <time>2025-02-02T12:07:22Z</time>
      </trkpt>
      <trkpt lat="43.65821" lon="1.40739">
        <ele>137</ele>
        <time>2025-02-02T12:07:23Z</time>
      </trkpt>
      <trkpt lat="43.65823" lon="1.40739">
        <ele>137</ele>
        <time>2025-02-02T12:07:24Z</time>
      </trkpt>
      <trkpt lat="43.65826" lon="1.40739">
        <ele>137</ele>
        <time>2025-02-02T12:07:25Z</time>
      </trkpt>
      <trkpt lat="43.65829" lon="1.40739">
        <ele>137</ele>
        <time>2025-02-02T12:07:26Z</time>
      </trkpt>
      <trkpt lat="43.65831" lon="1.40739">
        <ele>137</ele>
        <time>2025-02-02T12:07:27Z</time>
      </trkpt>
      <trkpt lat="43.65834" lon="1.40739">
        <ele>137</ele>
        <time>2025-02-02T12:07:28Z</time>
      </trkpt>
      <trkpt lat="43.65837" lon="1.40739">
        <ele>137</ele>
        <time>2025-02-02T12:07:29Z</time>
      </trkpt>
      <trkpt lat="43.6584" lon="1.40739">
        <ele>138</ele>
        <time>2025-02-02T12:07:30Z</time>
      </trkpt>
      <trkpt lat="43.65843" lon="1.40738">
        <ele>138</ele>
        <time>2025-02-02T12:07:31Z</time>
      </trkpt>
      <trkpt lat="43.65846" lon="1.40739">
        <ele>138</ele>
        <time>2025-02-02T12:07:32Z</time>
      </trkpt>
      <trkpt lat="43.65848" lon="1.40739">
        <ele>138</ele>
        <time>2025-02-02T12:07:33Z</time>
      </trkpt>
      <trkpt lat="43.6585" lon="1.40739">
        <ele>138</ele>
        <time>2025-02-02T12:07:34Z</time>
      </trkpt>
      <trkpt lat="43.65853" lon="1.40738">
        <ele>138</ele>
        <time>2025-02-02T12:07:35Z</time>
      </trkpt>
      <trkpt lat="43.65856" lon="1.40738">
        <ele>138</ele>
        <time>2025-02-02T12:07:36Z</time>
      </trkpt>
      <trkpt lat="43.65859" lon="1.40738">
        <ele>138</ele>
        <time>2025-02-02T12:07:37Z</time>
      </trkpt>
      <trkpt lat="43.65862" lon="1.40738">
        <ele>138</ele>
        <time>2025-02-02T12:07:38Z</time>
      </trkpt>
      <trkpt lat="43.65865" lon="1.40737">
        <ele>138</ele>
        <time>2025-02-02T12:07:39Z</time>
      </trkpt>
      <trkpt lat="43.65869" lon="1.40737">
        <ele>138</ele>
        <time>2025-02-02T12:07:40Z</time>
      </trkpt>
      <trkpt lat="43.65871" lon="1.40737">
        <ele>138</ele>
        <time>2025-02-02T12:07:41Z</time>
      </trkpt>
      <trkpt lat="43.65874" lon="1.40737">
        <ele>138</ele>
        <time>2025-02-02T12:07:42Z</time>
      </trkpt>
      <trkpt lat="43.65877" lon="1.40737">
        <ele>138</ele>
        <time>2025-02-02T12:07:43Z</time>
      </trkpt>
      <trkpt lat="43.6588" lon="1.40737">
        <ele>138</ele>
        <time>2025-02-02T12:07:44Z</time>
      </trkpt>
      <trkpt lat="43.65883" lon="1.40737">
        <ele>138</ele>
        <time>2025-02-02T12:07:45Z</time>
      </trkpt>
      <trkpt lat="43.65886" lon="1.40737">
        <ele>138</ele>
        <time>2025-02-02T12:07:46Z</time>
      </trkpt>
      <trkpt lat="43.65889" lon="1.40736">
        <ele>138</ele>
        <time>2025-02-02T12:07:47Z</time>
      </trkpt>
      <trkpt lat="43.65892" lon="1.40736">
        <ele>138</ele>
        <time>2025-02-02T12:07:48Z</time>
      </trkpt>
      <trkpt lat="43.65894" lon="1.40736">
        <ele>138</ele>
        <time>2025-02-02T12:07:49Z</time>
      </trkpt>
      <trkpt lat="43.65897" lon="1.40736">
        <ele>138</ele>
        <time>2025-02-02T12:07:50Z</time>
      </trkpt>
      <trkpt lat="43.65899" lon="1.40735">
        <ele>138</ele>
        <time>2025-02-02T12:07:51Z</time>
      </trkpt>
      <trkpt lat="43.65902" lon="1.40735">
        <ele>138</ele>
        <time>2025-02-02T12:07:52Z</time>
      </trkpt>
      <trkpt lat="43.65904" lon="1.40734">
        <ele>138</ele>
        <time>2025-02-02T12:07:53Z</time>
      </trkpt>
      <trkpt lat="43.65907" lon="1.40733">
        <ele>138</ele>
        <time>2025-02-02T12:07:54Z</time>
      </trkpt>
      <trkpt lat="43.65909" lon="1.40733">
        <ele>138</ele>
        <time>2025-02-02T12:07:55Z</time>
      </trkpt>
      <trkpt lat="43.65911" lon="1.40733">
        <ele>138</ele>
        <time>2025-02-02T12:07:56Z</time>
      </trkpt>
      <trkpt lat="43.65914" lon="1.40733">
        <ele>138</ele>
        <time>2025-02-02T12:07:57Z</time>
      </trkpt>
      <trkpt lat="43.65917" lon="1.40732">
        <ele>138</ele>
        <time>2025-02-02T12:07:58Z</time>
      </trkpt>
      <trkpt lat="43.65919" lon="1.40732">
        <ele>138</ele>
        <time>2025-02-02T12:07:59Z</time>
      </trkpt>
      <trkpt lat="43.65922" lon="1.40732">
        <ele>138</ele>
        <time>2025-02-02T12:08:00Z</time>
      </trkpt>
      <trkpt lat="43.65924" lon="1.40731">
        <ele>138</ele>
        <time>2025-02-02T12:08:01Z</time>
      </trkpt>
      <trkpt lat="43.65927" lon="1.40731">
        <ele>138</ele>
        <time>2025-02-02T12:08:02Z</time>
      </trkpt>
      <trkpt lat="43.6593" lon="1.40731">
        <ele>138</ele>
        <time>2025-02-02T12:08:03Z</time>
      </trkpt>
      <trkpt lat="43.65932" lon="1.40731">
        <ele>138</ele>
        <time>2025-02-02T12:08:04Z</time>
      </trkpt>
      <trkpt lat="43.65935" lon="1.40731">
        <ele>138</ele>
        <time>2025-02-02T12:08:05Z</time>
      </trkpt>
      <trkpt lat="43.65937" lon="1.40731">
        <ele>138</ele>
        <time>2025-02-02T12:08:06Z</time>
      </trkpt>
      <trkpt lat="43.65939" lon="1.40731">
        <ele>138</ele>
        <time>2025-02-02T12:08:07Z</time>
      </trkpt>
      <trkpt lat="43.65942" lon="1.4073">
        <ele>138</ele>
        <time>2025-02-02T12:08:08Z</time>
      </trkpt>
      <trkpt lat="43.65944" lon="1.4073">
        <ele>137</ele>
        <time>2025-02-02T12:08:09Z</time>
      </trkpt>
      <trkpt lat="43.65946" lon="1.4073">
        <ele>137</ele>
        <time>2025-02-02T12:08:10Z</time>
      </trkpt>
      <trkpt lat="43.65949" lon="1.40729">
        <ele>137</ele>
        <time>2025-02-02T12:08:11Z</time>
      </trkpt>
      <trkpt lat="43.65951" lon="1.40729">
        <ele>137</ele>
        <time>2025-02-02T12:08:12Z</time>
      </trkpt>
      <trkpt lat="43.65954" lon="1.40728">
        <ele>137</ele>
        <time>2025-02-02T12:08:13Z</time>
      </trkpt>
      <trkpt lat="43.65957" lon="1.40727">
        <ele>137</ele>
        <time>2025-02-02T12:08:14Z</time>
      </trkpt>
      <trkpt lat="43.6596" lon="1.40727">
        <ele>137</ele>
        <time>2025-02-02T12:08:15Z</time>
      </trkpt>
      <trkpt lat="43.65962" lon="1.40726">
        <ele>137</ele>
        <time>2025-02-02T12:08:16Z</time>
      </trkpt>
      <trkpt lat="43.65965" lon="1.40726">
        <ele>137</ele>
        <time>2025-02-02T12:08:17Z</time>
      </trkpt>
      <trkpt lat="43.65969" lon="1.40725">
        <ele>137</ele>
        <time>2025-02-02T12:08:18Z</time>
      </trkpt>
      <trkpt lat="43.6597" lon="1.40725">
        <ele>137</ele>
        <time>2025-02-02T12:08:19Z</time>
      </trkpt>
      <trkpt lat="43.65973" lon="1.40724">
        <ele>137</ele>
        <time>2025-02-02T12:08:20Z</time>
      </trkpt>
      <trkpt lat="43.65975" lon="1.40724">
        <ele>137</ele>
        <time>2025-02-02T12:08:21Z</time>
      </trkpt>
      <trkpt lat="43.65978" lon="1.40723">
        <ele>137</ele>
        <time>2025-02-02T12:08:22Z</time>
      </trkpt>
      <trkpt lat="43.65981" lon="1.40723">
        <ele>137</ele>
        <time>2025-02-02T12:08:23Z</time>
      </trkpt>
      <trkpt lat="43.65983" lon="1.40722">
        <ele>137</ele>
        <time>2025-02-02T12:08:24Z</time>
      </trkpt>
      <trkpt lat="43.65986" lon="1.40722">
        <ele>138</ele>
        <time>2025-02-02T12:08:25Z</time>
      </trkpt>
      <trkpt lat="43.65988" lon="1.40721">
        <ele>138</ele>
        <time>2025-02-02T12:08:26Z</time>
      </trkpt>
      <trkpt lat="43.65991" lon="1.40721">
        <ele>138</ele>
        <time>2025-02-02T12:08:27Z</time>
      </trkpt>
      <trkpt lat="43.65994" lon="1.4072">
        <ele>138</ele>
        <time>2025-02-02T12:08:28Z</time>
      </trkpt>
      <trkpt lat="43.65997" lon="1.40719">
        <ele>138</ele>
        <time>2025-02-02T12:08:29Z</time>
      </trkpt>
      <trkpt lat="43.65999" lon="1.40719">
        <ele>138</ele>
        <time>2025-02-02T12:08:30Z</time>
      </trkpt>
      <trkpt lat="43.66001" lon="1.40719">
        <ele>138</ele>
        <time>2025-02-02T12:08:31Z</time>
      </trkpt>
      <trkpt lat="43.66004" lon="1.40718">
        <ele>138</ele>
        <time>2025-02-02T12:08:32Z</time>
      </trkpt>
      <trkpt lat="43.66006" lon="1.40718">
        <ele>138</ele>
        <time>2025-02-02T12:08:33Z</time>
      </trkpt>
      <trkpt lat="43.66008" lon="1.40717">
        <ele>138</ele>
        <time>2025-02-02T12:08:34Z</time>
      </trkpt>
      <trkpt lat="43.66011" lon="1.40716">
        <ele>138</ele>
        <time>2025-02-02T12:08:35Z</time>
      </trkpt>
      <trkpt lat="43.66013" lon="1.40716">
        <ele>138</ele>
        <time>2025-02-02T12:08:36Z</time>
      </trkpt>
      <trkpt lat="43.66017" lon="1.40715">
        <ele>138</ele>
        <time>2025-02-02T12:08:37Z</time>
      </trkpt>
      <trkpt lat="43.66019" lon="1.40714">
        <ele>138</ele>
        <time>2025-02-02T12:08:38Z</time>
      </trkpt>
      <trkpt lat="43.66021" lon="1.40713">
        <ele>138</ele>
        <time>2025-02-02T12:08:39Z</time>
      </trkpt>
      <trkpt lat="43.66024" lon="1.40713">
        <ele>138</ele>
        <time>2025-02-02T12:08:40Z</time>
      </trkpt>
      <trkpt lat="43.66026" lon="1.40712">
        <ele>138</ele>
        <time>2025-02-02T12:08:41Z</time>
      </trkpt>
      <trkpt lat="43.66029" lon="1.40711">
        <ele>138</ele>
        <time>2025-02-02T12:08:42Z</time>
      </trkpt>
      <trkpt lat="43.66031" lon="1.40711">
        <ele>138</ele>
        <time>2025-02-02T12:08:43Z</time>
      </trkpt>
      <trkpt lat="43.66033" lon="1.4071">
        <ele>138</ele>
        <time>2025-02-02T12:08:44Z</time>
      </trkpt>
      <trkpt lat="43.66036" lon="1.40709">
        <ele>138</ele>
        <time>2025-02-02T12:08:45Z</time>
      </trkpt>
      <trkpt lat="43.66039" lon="1.40708">
        <ele>138</ele>
        <time>2025-02-02T12:08:46Z</time>
      </trkpt>
      <trkpt lat="43.66041" lon="1.40708">
        <ele>138</ele>
        <time>2025-02-02T12:08:47Z</time>
      </trkpt>
      <trkpt lat="43.66044" lon="1.40707">
        <ele>138</ele>
        <time>2025-02-02T12:08:48Z</time>
      </trkpt>
      <trkpt lat="43.66047" lon="1.40706">
        <ele>138</ele>
        <time>2025-02-02T12:08:49Z</time>
      </trkpt>
      <trkpt lat="43.6605" lon="1.40705">
        <ele>138</ele>
        <time>2025-02-02T12:08:50Z</time>
      </trkpt>
      <trkpt lat="43.66053" lon="1.40704">
        <ele>138</ele>
        <time>2025-02-02T12:08:51Z</time>
      </trkpt>
      <trkpt lat="43.66056" lon="1.40703">
        <ele>138</ele>
        <time>2025-02-02T12:08:52Z</time>
      </trkpt>
      <trkpt lat="43.66058" lon="1.40702">
        <ele>138</ele>
        <time>2025-02-02T12:08:53Z</time>
      </trkpt>
      <trkpt lat="43.66061" lon="1.40701">
        <ele>138</ele>
        <time>2025-02-02T12:08:54Z</time>
      </trkpt>
      <trkpt lat="43.66064" lon="1.407">
        <ele>138</ele>
        <time>2025-02-02T12:08:55Z</time>
      </trkpt>
      <trkpt lat="43.66068" lon="1.40698">
        <ele>138</ele>
        <time>2025-02-02T12:08:56Z</time>
      </trkpt>
      <trkpt lat="43.66069" lon="1.40698">
        <ele>138</ele>
        <time>2025-02-02T12:08:57Z</time>
      </trkpt>
      <trkpt lat="43.66072" lon="1.40697">
        <ele>138</ele>
        <time>2025-02-02T12:08:58Z</time>
      </trkpt>
      <trkpt lat="43.66074" lon="1.40696">
        <ele>138</ele>
        <time>2025-02-02T12:08:59Z</time>
      </trkpt>
      <trkpt lat="43.66077" lon="1.40695">
        <ele>138</ele>
        <time>2025-02-02T12:09:00Z</time>
      </trkpt>
      <trkpt lat="43.66079" lon="1.40694">
        <ele>138</ele>
        <time>2025-02-02T12:09:01Z</time>
      </trkpt>
      <trkpt lat="43.66082" lon="1.40694">
        <ele>138</ele>
        <time>2025-02-02T12:09:02Z</time>
      </trkpt>
      <trkpt lat="43.66084" lon="1.40693">
        <ele>138</ele>
        <time>2025-02-02T12:09:03Z</time>
      </trkpt>
      <trkpt lat="43.66087" lon="1.40693">
        <ele>138</ele>
        <time>2025-02-02T12:09:04Z</time>
      </trkpt>
      <trkpt lat="43.66089" lon="1.40692">
        <ele>138</ele>
        <time>2025-02-02T12:09:05Z</time>
      </trkpt>
      <trkpt lat="43.66092" lon="1.40691">
        <ele>138</ele>
        <time>2025-02-02T12:09:06Z</time>
      </trkpt>
      <trkpt lat="43.66094" lon="1.4069">
        <ele>138</ele>
        <time>2025-02-02T12:09:07Z</time>
      </trkpt>
      <trkpt lat="43.66097" lon="1.4069">
        <ele>138</ele>
        <time>2025-02-02T12:09:08Z</time>
      </trkpt>
      <trkpt lat="43.66099" lon="1.40688">
        <ele>138</ele>
        <time>2025-02-02T12:09:09Z</time>
      </trkpt>
      <trkpt lat="43.66102" lon="1.40687">
        <ele>138</ele>
        <time>2025-02-02T12:09:10Z</time>
      </trkpt>
      <trkpt lat="43.66104" lon="1.40686">
        <ele>138</ele>
        <time>2025-02-02T12:09:11Z</time>
      </trkpt>
      <trkpt lat="43.66106" lon="1.40684">
        <ele>138</ele>
        <time>2025-02-02T12:09:12Z</time>
      </trkpt>
      <trkpt lat="43.66109" lon="1.40682">
        <ele>138</ele>
        <time>2025-02-02T12:09:13Z</time>
      </trkpt>
      <trkpt lat="43.66111" lon="1.40681">
        <ele>138</ele>
        <time>2025-02-02T12:09:14Z</time>
      </trkpt>
      <trkpt lat="43.66114" lon="1.4068">
        <ele>138</ele>
        <time>2025-02-02T12:09:15Z</time>
      </trkpt>
      <trkpt lat="43.66116" lon="1.40679">
        <ele>138</ele>
        <time>2025-02-02T12:09:16Z</time>
      </trkpt>
      <trkpt lat="43.66119" lon="1.40678">
        <ele>138</ele>
        <time>2025-02-02T12:09:17Z</time>
      </trkpt>
      <trkpt lat="43.66121" lon="1.40677">
        <ele>138</ele>
        <time>2025-02-02T12:09:18Z</time>
      </trkpt>
      <trkpt lat="43.66123" lon="1.40677">
        <ele>138</ele>
        <time>2025-02-02T12:09:19Z</time>
      </trkpt>
      <trkpt lat="43.66125" lon="1.40676">
        <ele>138</ele>
        <time>2025-02-02T12:09:20Z</time>
      </trkpt>
      <trkpt lat="43.66128" lon="1.40676">
        <ele>138</ele>
        <time>2025-02-02T12:09:21Z</time>
      </trkpt>
      <trkpt lat="43.6613" lon="1.40676">
        <ele>138</ele>
        <time>2025-02-02T12:09:22Z</time>
      </trkpt>
      <trkpt lat="43.66132" lon="1.40675">
        <ele>138</ele>
        <time>2025-02-02T12:09:23Z</time>
      </trkpt>
      <trkpt lat="43.66135" lon="1.40674">
        <ele>138</ele>
        <time>2025-02-02T12:09:24Z</time>
      </trkpt>
      <trkpt lat="43.66137" lon="1.40673">
        <ele>138</ele>
        <time>2025-02-02T12:09:25Z</time>
      </trkpt>
      <trkpt lat="43.6614" lon="1.40672">
        <ele>138</ele>
        <time>2025-02-02T12:09:26Z</time>
      </trkpt>
      <trkpt lat="43.66142" lon="1.40672">
        <ele>138</ele>
        <time>2025-02-02T12:09:27Z</time>
      </trkpt>
      <trkpt lat="43.66144" lon="1.40671">
        <ele>138</ele>
        <time>2025-02-02T12:09:28Z</time>
      </trkpt>
      <trkpt lat="43.66147" lon="1.4067">
        <ele>138</ele>
        <time>2025-02-02T12:09:29Z</time>
      </trkpt>
      <trkpt lat="43.66149" lon="1.40669">
        <ele>138</ele>
        <time>2025-02-02T12:09:30Z</time>
      </trkpt>
      <trkpt lat="43.66152" lon="1.40668">
        <ele>138</ele>
        <time>2025-02-02T12:09:31Z</time>
      </trkpt>
      <trkpt lat="43.66155" lon="1.40667">
        <ele>138</ele>
        <time>2025-02-02T12:09:32Z</time>
      </trkpt>
      <trkpt lat="43.66157" lon="1.40666">
        <ele>138</ele>
        <time>2025-02-02T12:09:33Z</time>
      </trkpt>
      <trkpt lat="43.66159" lon="1.40665">
        <ele>138</ele>
        <time>2025-02-02T12:09:34Z</time>
      </trkpt>
      <trkpt lat="43.66161" lon="1.40664">
        <ele>138</ele>
        <time>2025-02-02T12:09:35Z</time>
      </trkpt>
      <trkpt lat="43.66163" lon="1.40663">
        <ele>138</ele>
        <time>2025-02-02T12:09:36Z</time>
      </trkpt>
      <trkpt lat="43.66165" lon="1.40663">
        <ele>138</ele>
        <time>2025-02-02T12:09:37Z</time>
      </trkpt>
      <trkpt lat="43.66168" lon="1.40662">
        <ele>138</ele>
        <time>2025-02-02T12:09:38Z</time>
      </trkpt>
      <trkpt lat="43.6617" lon="1.40661">
        <ele>138</ele>
        <time>2025-02-02T12:09:39Z</time>
      </trkpt>
      <trkpt lat="43.66172" lon="1.4066">
        <ele>138</ele>
        <time>2025-02-02T12:09:40Z</time>
      </trkpt>
      <trkpt lat="43.66174" lon="1.40659">
        <ele>138</ele>
        <time>2025-02-02T12:09:41Z</time>
      </trkpt>
      <trkpt lat="43.66176" lon="1.40658">
        <ele>138</ele>
        <time>2025-02-02T12:09:42Z</time>
      </trkpt>
      <trkpt lat="43.66178" lon="1.40657">
        <ele>138</ele>
        <time>2025-02-02T12:09:43Z</time>
      </trkpt>
      <trkpt lat="43.6618" lon="1.40656">
        <ele>138</ele>
        <time>2025-02-02T12:09:44Z</time>
      </trkpt>
      <trkpt lat="43.66182" lon="1.40655">
        <ele>137</ele>
        <time>2025-02-02T12:09:45Z</time>
      </trkpt>
      <trkpt lat="43.66184" lon="1.40654">
        <ele>137</ele>
        <time>2025-02-02T12:09:46Z</time>
      </trkpt>
      <trkpt lat="43.66186" lon="1.40653">
        <ele>137</ele>
        <time>2025-02-02T12:09:47Z</time>
      </trkpt>
      <trkpt lat="43.66189" lon="1.40652">
        <ele>137</ele>
        <time>2025-02-02T12:09:48Z</time>
      </trkpt>
      <trkpt lat="43.66191" lon="1.40651">
        <ele>137</ele>
        <time>2025-02-02T12:09:49Z</time>
      </trkpt>
      <trkpt lat="43.66194" lon="1.4065">
        <ele>137</ele>
        <time>2025-02-02T12:09:50Z</time>
      </trkpt>
      <trkpt lat="43.66194" lon="1.4065">
        <ele>137</ele>
        <time>2025-02-02T12:09:51Z</time>
      </trkpt>
      <trkpt lat="43.66197" lon="1.4065">
        <ele>137</ele>
        <time>2025-02-02T12:09:52Z</time>
      </trkpt>
      <trkpt lat="43.66201" lon="1.40648">
        <ele>137</ele>
        <time>2025-02-02T12:09:53Z</time>
      </trkpt>
      <trkpt lat="43.66202" lon="1.40647">
        <ele>137</ele>
        <time>2025-02-02T12:09:54Z</time>
      </trkpt>
      <trkpt lat="43.66205" lon="1.40646">
        <ele>137</ele>
        <time>2025-02-02T12:09:55Z</time>
      </trkpt>
      <trkpt lat="43.66207" lon="1.40645">
        <ele>137</ele>
        <time>2025-02-02T12:09:56Z</time>
      </trkpt>
      <trkpt lat="43.66211" lon="1.40643">
        <ele>137</ele>
        <time>2025-02-02T12:09:57Z</time>
      </trkpt>
      <trkpt lat="43.66212" lon="1.40643">
        <ele>137</ele>
        <time>2025-02-02T12:09:58Z</time>
      </trkpt>
      <trkpt lat="43.66215" lon="1.40642">
        <ele>137</ele>
        <time>2025-02-02T12:09:59Z</time>
      </trkpt>
      <trkpt lat="43.66217" lon="1.40641">
        <ele>137</ele>
        <time>2025-02-02T12:10:00Z</time>
      </trkpt>
      <trkpt lat="43.6622" lon="1.40639">
        <ele>137</ele>
        <time>2025-02-02T12:10:01Z</time>
      </trkpt>
      <trkpt lat="43.66223" lon="1.40638">
        <ele>137</ele>
        <time>2025-02-02T12:10:02Z</time>
      </trkpt>
      <trkpt lat="43.66226" lon="1.40637">
        <ele>137</ele>
        <time>2025-02-02T12:10:03Z</time>
      </trkpt>
      <trkpt lat="43.66228" lon="1.40636">
        <ele>137</ele>
        <time>2025-02-02T12:10:04Z</time>
      </trkpt>
      <trkpt lat="43.6623" lon="1.40635">
        <ele>136</ele>
        <time>2025-02-02T12:10:05Z</time>
      </trkpt>
      <trkpt lat="43.66233" lon="1.40633">
        <ele>136</ele>
        <time>2025-02-02T12:10:06Z</time>
      </trkpt>
      <trkpt lat="43.66235" lon="1.40632">
        <ele>136</ele>
        <time>2025-02-02T12:10:07Z</time>
      </trkpt>
      <trkpt lat="43.66237" lon="1.4063">
        <ele>136</ele>
        <time>2025-02-02T12:10:08Z</time>
      </trkpt>
      <trkpt lat="43.66239" lon="1.40628">
        <ele>136</ele>
        <time>2025-02-02T12:10:09Z</time>
      </trkpt>
      <trkpt lat="43.66242" lon="1.40627">
        <ele>137</ele>
        <time>2025-02-02T12:10:10Z</time>
      </trkpt>
      <trkpt lat="43.66244" lon="1.40626">
        <ele>137</ele>
        <time>2025-02-02T12:10:11Z</time>
      </trkpt>
      <trkpt lat="43.66248" lon="1.40624">
        <ele>137</ele>
        <time>2025-02-02T12:10:12Z</time>
      </trkpt>
      <trkpt lat="43.66249" lon="1.40623">
        <ele>137</ele>
        <time>2025-02-02T12:10:13Z</time>
      </trkpt>
      <trkpt lat="43.66252" lon="1.40621">
        <ele>137</ele>
        <time>2025-02-02T12:10:14Z</time>
      </trkpt>
      <trkpt lat="43.66256" lon="1.40619">
        <ele>137</ele>
        <time>2025-02-02T12:10:15Z</time>
      </trkpt>
      <trkpt lat="43.66257" lon="1.40618">
        <ele>137</ele>
        <time>2025-02-02T12:10:16Z</time>
      </trkpt>
      <trkpt lat="43.66259" lon="1.40616">
        <ele>136</ele>
        <time>2025-02-02T12:10:17Z</time>
      </trkpt>
      <trkpt lat="43.66261" lon="1.40614">
        <ele>136</ele>
        <time>2025-02-02T12:10:18Z</time>
      </trkpt>
      <trkpt lat="43.66264" lon="1.40613">
        <ele>136</ele>
        <time>2025-02-02T12:10:19Z</time>
      </trkpt>
      <trkpt lat="43.66266" lon="1.4061">
        <ele>136</ele>
        <time>2025-02-02T12:10:20Z</time>
      </trkpt>
      <trkpt lat="43.66269" lon="1.40608">
        <ele>136</ele>
        <time>2025-02-02T12:10:21Z</time>
      </trkpt>
      <trkpt lat="43.66272" lon="1.40607">
        <ele>136</ele>
        <time>2025-02-02T12:10:22Z</time>
      </trkpt>
      <trkpt lat="43.66274" lon="1.40605">
        <ele>136</ele>
        <time>2025-02-02T12:10:23Z</time>
      </trkpt>
      <trkpt lat="43.66276" lon="1.40602">
        <ele>136</ele>
        <time>2025-02-02T12:10:24Z</time>
      </trkpt>
      <trkpt lat="43.66279" lon="1.40601">
        <ele>136</ele>
        <time>2025-02-02T12:10:25Z</time>
      </trkpt>
      <trkpt lat="43.66281" lon="1.40599">
        <ele>136</ele>
        <time>2025-02-02T12:10:26Z</time>
      </trkpt>
      <trkpt lat="43.66283" lon="1.40597">
        <ele>136</ele>
        <time>2025-02-02T12:10:27Z</time>
      </trkpt>
      <trkpt lat="43.66286" lon="1.40595">
        <ele>136</ele>
        <time>2025-02-02T12:10:28Z</time>
      </trkpt>
      <trkpt lat="43.66288" lon="1.40593">
        <ele>136</ele>
        <time>2025-02-02T12:10:29Z</time>
      </trkpt>
      <trkpt lat="43.6629" lon="1.40591">
        <ele>136</ele>
        <time>2025-02-02T12:10:30Z</time>
      </trkpt>
      <trkpt lat="43.66293" lon="1.40589">
        <ele>136</ele>
        <time>2025-02-02T12:10:31Z</time>
      </trkpt>
      <trkpt lat="43.66294" lon="1.40588">
        <ele>136</ele>
        <time>2025-02-02T12:10:32Z</time>
      </trkpt>
      <trkpt lat="43.66296" lon="1.40586">
        <ele>136</ele>
        <time>2025-02-02T12:10:33Z</time>
      </trkpt>
      <trkpt lat="43.66299" lon="1.40583">
        <ele>136</ele>
        <time>2025-02-02T12:10:34Z</time>
      </trkpt>
      <trkpt lat="43.66299" lon="1.40582">
        <ele>136</ele>
        <time>2025-02-02T12:10:35Z</time>
      </trkpt>
      <trkpt lat="43.66301" lon="1.4058">
        <ele>136</ele>
        <time>2025-02-02T12:10:36Z</time>
      </trkpt>
      <trkpt lat="43.66303" lon="1.40578">
        <ele>136</ele>
        <time>2025-02-02T12:10:37Z</time>
      </trkpt>
      <trkpt lat="43.66305" lon="1.40576">
        <ele>137</ele>
        <time>2025-02-02T12:10:38Z</time>
      </trkpt>
      <trkpt lat="43.66308" lon="1.40574">
        <ele>137</ele>
        <time>2025-02-02T12:10:39Z</time>
      </trkpt>
      <trkpt lat="43.6631" lon="1.40572">
        <ele>137</ele>
        <time>2025-02-02T12:10:40Z</time>
      </trkpt>
      <trkpt lat="43.66313" lon="1.4057">
        <ele>137</ele>
        <time>2025-02-02T12:10:41Z</time>
      </trkpt>
      <trkpt lat="43.66315" lon="1.40567">
        <ele>137</ele>
        <time>2025-02-02T12:10:42Z</time>
      </trkpt>
      <trkpt lat="43.66317" lon="1.40565">
        <ele>137</ele>
        <time>2025-02-02T12:10:43Z</time>
      </trkpt>
      <trkpt lat="43.66319" lon="1.40563">
        <ele>137</ele>
        <time>2025-02-02T12:10:44Z</time>
      </trkpt>
      <trkpt lat="43.6632" lon="1.4056">
        <ele>137</ele>
        <time>2025-02-02T12:10:45Z</time>
      </trkpt>
      <trkpt lat="43.66323" lon="1.40558">
        <ele>137</ele>
        <time>2025-02-02T12:10:46Z</time>
      </trkpt>
      <trkpt lat="43.66325" lon="1.40556">
        <ele>137</ele>
        <time>2025-02-02T12:10:47Z</time>
      </trkpt>
      <trkpt lat="43.66326" lon="1.40553">
        <ele>137</ele>
        <time>2025-02-02T12:10:48Z</time>
      </trkpt>
      <trkpt lat="43.66329" lon="1.40551">
        <ele>137</ele>
        <time>2025-02-02T12:10:49Z</time>
      </trkpt>
      <trkpt lat="43.66332" lon="1.40548">
        <ele>137</ele>
        <time>2025-02-02T12:10:50Z</time>
      </trkpt>
      <trkpt lat="43.66333" lon="1.40546">
        <ele>137</ele>
        <time>2025-02-02T12:10:51Z</time>
      </trkpt>
      <trkpt lat="43.66334" lon="1.40544">
        <ele>137</ele>
        <time>2025-02-02T12:10:52Z</time>
      </trkpt>
      <trkpt lat="43.66338" lon="1.40541">
        <ele>137</ele>
        <time>2025-02-02T12:10:53Z</time>
      </trkpt>
      <trkpt lat="43.66339" lon="1.4054">
        <ele>137</ele>
        <time>2025-02-02T12:10:54Z</time>
      </trkpt>
      <trkpt lat="43.6634" lon="1.40538">
        <ele>137</ele>
        <time>2025-02-02T12:10:55Z</time>
      </trkpt>
      <trkpt lat="43.66342" lon="1.40536">
        <ele>137</ele>
        <time>2025-02-02T12:10:56Z</time>
      </trkpt>
      <trkpt lat="43.66344" lon="1.40533">
        <ele>136</ele>
        <time>2025-02-02T12:10:57Z</time>
      </trkpt>
      <trkpt lat="43.66346" lon="1.40531">
        <ele>136</ele>
        <time>2025-02-02T12:10:58Z</time>
      </trkpt>
      <trkpt lat="43.66348" lon="1.40529">
        <ele>136</ele>
        <time>2025-02-02T12:10:59Z</time>
      </trkpt>
      <trkpt lat="43.6635" lon="1.40526">
        <ele>136</ele>
        <time>2025-02-02T12:11:00Z</time>
      </trkpt>
      <trkpt lat="43.66352" lon="1.40524">
        <ele>136</ele>
        <time>2025-02-02T12:11:01Z</time>
      </trkpt>
      <trkpt lat="43.66354" lon="1.40523">
        <ele>136</ele>
        <time>2025-02-02T12:11:02Z</time>
      </trkpt>
      <trkpt lat="43.66356" lon="1.40521">
        <ele>136</ele>
        <time>2025-02-02T12:11:03Z</time>
      </trkpt>
      <trkpt lat="43.66358" lon="1.40519">
        <ele>136</ele>
        <time>2025-02-02T12:11:04Z</time>
      </trkpt>
      <trkpt lat="43.66361" lon="1.40518">
        <ele>136</ele>
        <time>2025-02-02T12:11:05Z</time>
      </trkpt>
      <trkpt lat="43.66363" lon="1.40516">
        <ele>137</ele>
        <time>2025-02-02T12:11:06Z</time>
      </trkpt>
      <trkpt lat="43.66365" lon="1.40515">
        <ele>137</ele>
        <time>2025-02-02T12:11:07Z</time>
      </trkpt>
      <trkpt lat="43.66367" lon="1.40514">
        <ele>137</ele>
        <time>2025-02-02T12:11:08Z</time>
      </trkpt>
      <trkpt lat="43.66371" lon="1.40512">
        <ele>137</ele>
        <time>2025-02-02T12:11:09Z</time>
      </trkpt>
      <trkpt lat="43.66372" lon="1.40511">
        <ele>137</ele>
        <time>2025-02-02T12:11:10Z</time>
      </trkpt>
      <trkpt lat="43.66374" lon="1.40509">
        <ele>137</ele>
        <time>2025-02-02T12:11:11Z</time>
      </trkpt>
      <trkpt lat="43.66377" lon="1.40506">
        <ele>137</ele>
        <time>2025-02-02T12:11:12Z</time>
      </trkpt>
      <trkpt lat="43.6638" lon="1.40503">
        <ele>137</ele>
        <time>2025-02-02T12:11:13Z</time>
      </trkpt>
      <trkpt lat="43.66381" lon="1.40502">
        <ele>136</ele>
        <time>2025-02-02T12:11:14Z</time>
      </trkpt>
      <trkpt lat="43.66384" lon="1.405">
        <ele>136</ele>
        <time>2025-02-02T12:11:15Z</time>
      </trkpt>
      <trkpt lat="43.66386" lon="1.40498">
        <ele>136</ele>
        <time>2025-02-02T12:11:16Z</time>
      </trkpt>
      <trkpt lat="43.66388" lon="1.40496">
        <ele>136</ele>
        <time>2025-02-02T12:11:17Z</time>
      </trkpt>
      <trkpt lat="43.66391" lon="1.40494">
        <ele>136</ele>
        <time>2025-02-02T12:11:18Z</time>
      </trkpt>
      <trkpt lat="43.66393" lon="1.40492">
        <ele>136</ele>
        <time>2025-02-02T12:11:19Z</time>
      </trkpt>
      <trkpt lat="43.66396" lon="1.4049">
        <ele>136</ele>
        <time>2025-02-02T12:11:20Z</time>
      </trkpt>
      <trkpt lat="43.66398" lon="1.40487">
        <ele>136</ele>
        <time>2025-02-02T12:11:21Z</time>
      </trkpt>
      <trkpt lat="43.664" lon="1.40485">
        <ele>136</ele>
        <time>2025-02-02T12:11:22Z</time>
      </trkpt>
      <trkpt lat="43.66402" lon="1.40483">
        <ele>136</ele>
        <time>2025-02-02T12:11:23Z</time>
      </trkpt>
      <trkpt lat="43.66404" lon="1.40481">
        <ele>136</ele>
        <time>2025-02-02T12:11:24Z</time>
      </trkpt>
      <trkpt lat="43.66407" lon="1.40479">
        <ele>136</ele>
        <time>2025-02-02T12:11:25Z</time>
      </trkpt>
      <trkpt lat="43.66409" lon="1.40477">
        <ele>136</ele>
        <time>2025-02-02T12:11:26Z</time>
      </trkpt>
      <trkpt lat="43.66411" lon="1.40475">
        <ele>136</ele>
        <time>2025-02-02T12:11:27Z</time>
      </trkpt>
      <trkpt lat="43.66415" lon="1.40472">
        <ele>136</ele>
        <time>2025-02-02T12:11:28Z</time>
      </trkpt>
      <trkpt lat="43.66416" lon="1.40471">
        <ele>136</ele>
        <time>2025-02-02T12:11:29Z</time>
      </trkpt>
      <trkpt lat="43.66418" lon="1.40468">
        <ele>136</ele>
        <time>2025-02-02T12:11:30Z</time>
      </trkpt>
      <trkpt lat="43.66421" lon="1.40465">
        <ele>136</ele>
        <time>2025-02-02T12:11:31Z</time>
      </trkpt>
      <trkpt lat="43.66422" lon="1.40464">
        <ele>136</ele>
        <time>2025-02-02T12:11:32Z</time>
      </trkpt>
      <trkpt lat="43.66424" lon="1.40462">
        <ele>136</ele>
        <time>2025-02-02T12:11:33Z</time>
      </trkpt>
      <trkpt lat="43.66426" lon="1.4046">
        <ele>136</ele>
        <time>2025-02-02T12:11:34Z</time>
      </trkpt>
      <trkpt lat="43.66428" lon="1.40458">
        <ele>136</ele>
        <time>2025-02-02T12:11:35Z</time>
      </trkpt>
      <trkpt lat="43.6643" lon="1.40456">
        <ele>136</ele>
        <time>2025-02-02T12:11:36Z</time>
      </trkpt>
      <trkpt lat="43.66432" lon="1.40454">
        <ele>136</ele>
        <time>2025-02-02T12:11:37Z</time>
      </trkpt>
      <trkpt lat="43.66435" lon="1.40452">
        <ele>136</ele>
        <time>2025-02-02T12:11:38Z</time>
      </trkpt>
      <trkpt lat="43.66437" lon="1.4045">
        <ele>136</ele>
        <time>2025-02-02T12:11:39Z</time>
      </trkpt>
      <trkpt lat="43.66439" lon="1.40448">
        <ele>136</ele>
        <time>2025-02-02T12:11:40Z</time>
      </trkpt>
      <trkpt lat="43.66441" lon="1.40446">
        <ele>136</ele>
        <time>2025-02-02T12:11:41Z</time>
      </trkpt>
      <trkpt lat="43.66443" lon="1.40444">
        <ele>136</ele>
        <time>2025-02-02T12:11:42Z</time>
      </trkpt>
      <trkpt lat="43.66446" lon="1.40443">
        <ele>136</ele>
        <time>2025-02-02T12:11:43Z</time>
      </trkpt>
      <trkpt lat="43.66448" lon="1.40441">
        <ele>136</ele>
        <time>2025-02-02T12:11:44Z</time>
      </trkpt>
      <trkpt lat="43.6645" lon="1.40439">
        <ele>136</ele>
        <time>2025-02-02T12:11:45Z</time>
      </trkpt>
      <trkpt lat="43.66451" lon="1.40438">
        <ele>136</ele>
        <time>2025-02-02T12:11:46Z</time>
      </trkpt>
      <trkpt lat="43.66453" lon="1.40436">
        <ele>136</ele>
        <time>2025-02-02T12:11:47Z</time>
      </trkpt>
      <trkpt lat="43.66454" lon="1.40435">
        <ele>136</ele>
        <time>2025-02-02T12:11:48Z</time>
      </trkpt>
      <trkpt lat="43.66456" lon="1.40433">
        <ele>136</ele>
        <time>2025-02-02T12:11:49Z</time>
      </trkpt>
      <trkpt lat="43.66458" lon="1.40431">
        <ele>136</ele>
        <time>2025-02-02T12:11:50Z</time>
      </trkpt>
      <trkpt lat="43.6646" lon="1.4043">
        <ele>136</ele>
        <time>2025-02-02T12:11:51Z</time>
      </trkpt>
      <trkpt lat="43.66462" lon="1.40428">
        <ele>136</ele>
        <time>2025-02-02T12:11:52Z</time>
      </trkpt>
      <trkpt lat="43.66463" lon="1.40426">
        <ele>137</ele>
        <time>2025-02-02T12:11:53Z</time>
      </trkpt>
      <trkpt lat="43.66465" lon="1.40424">
        <ele>137</ele>
        <time>2025-02-02T12:11:54Z</time>
      </trkpt>
      <trkpt lat="43.66467" lon="1.40422">
        <ele>137</ele>
        <time>2025-02-02T12:11:55Z</time>
      </trkpt>
      <trkpt lat="43.66469" lon="1.4042">
        <ele>136</ele>
        <time>2025-02-02T12:11:56Z</time>
      </trkpt>
      <trkpt lat="43.6647" lon="1.40419">
        <ele>136</ele>
        <time>2025-02-02T12:11:57Z</time>
      </trkpt>
      <trkpt lat="43.66472" lon="1.40417">
        <ele>136</ele>
        <time>2025-02-02T12:11:58Z</time>
      </trkpt>
      <trkpt lat="43.66474" lon="1.40416">
        <ele>136</ele>
        <time>2025-02-02T12:11:59Z</time>
      </trkpt>
      <trkpt lat="43.66476" lon="1.40414">
        <ele>136</ele>
        <time>2025-02-02T12:12:00Z</time>
      </trkpt>
      <trkpt lat="43.66477" lon="1.40412">
        <ele>136</ele>
        <time>2025-02-02T12:12:01Z</time>
      </trkpt>
      <trkpt lat="43.66479" lon="1.4041">
        <ele>136</ele>
        <time>2025-02-02T12:12:02Z</time>
      </trkpt>
      <trkpt lat="43.66481" lon="1.40408">
        <ele>136</ele>
        <time>2025-02-02T12:12:03Z</time>
      </trkpt>
      <trkpt lat="43.66483" lon="1.40406">
        <ele>136</ele>
        <time>2025-02-02T12:12:04Z</time>
      </trkpt>
      <trkpt lat="43.66485" lon="1.40405">
        <ele>136</ele>
        <time>2025-02-02T12:12:05Z</time>
      </trkpt>
      <trkpt lat="43.66488" lon="1.40402">
        <ele>136</ele>
        <time>2025-02-02T12:12:06Z</time>
      </trkpt>
      <trkpt lat="43.66489" lon="1.40401">
        <ele>136</ele>
        <time>2025-02-02T12:12:07Z</time>
      </trkpt>
      <trkpt lat="43.66491" lon="1.40399">
        <ele>136</ele>
        <time>2025-02-02T12:12:08Z</time>
      </trkpt>
      <trkpt lat="43.66493" lon="1.40397">
        <ele>136</ele>
        <time>2025-02-02T12:12:09Z</time>
      </trkpt>
      <trkpt lat="43.66495" lon="1.40395">
        <ele>136</ele>
        <time>2025-02-02T12:12:10Z</time>
      </trkpt>
      <trkpt lat="43.66497" lon="1.40392">
        <ele>136</ele>
        <time>2025-02-02T12:12:11Z</time>
      </trkpt>
      <trkpt lat="43.66499" lon="1.40389">
        <ele>136</ele>
        <time>2025-02-02T12:12:12Z</time>
      </trkpt>
      <trkpt lat="43.665" lon="1.40387">
        <ele>136</ele>
        <time>2025-02-02T12:12:13Z</time>
      </trkpt>
      <trkpt lat="43.66502" lon="1.40385">
        <ele>136</ele>
        <time>2025-02-02T12:12:14Z</time>
      </trkpt>
      <trkpt lat="43.66503" lon="1.40383">
        <ele>136</ele>
        <time>2025-02-02T12:12:15Z</time>
      </trkpt>
      <trkpt lat="43.66505" lon="1.40382">
        <ele>136</ele>
        <time>2025-02-02T12:12:16Z</time>
      </trkpt>
      <trkpt lat="43.66507" lon="1.4038">
        <ele>136</ele>
        <time>2025-02-02T12:12:17Z</time>
      </trkpt>
      <trkpt lat="43.6651" lon="1.40377">
        <ele>136</ele>
        <time>2025-02-02T12:12:18Z</time>
      </trkpt>
      <trkpt lat="43.66512" lon="1.40375">
        <ele>136</ele>
        <time>2025-02-02T12:12:19Z</time>
      </trkpt>
      <trkpt lat="43.66514" lon="1.40373">
        <ele>136</ele>
        <time>2025-02-02T12:12:20Z</time>
      </trkpt>
      <trkpt lat="43.66516" lon="1.40371">
        <ele>136</ele>
        <time>2025-02-02T12:12:21Z</time>
      </trkpt>
      <trkpt lat="43.66518" lon="1.40369">
        <ele>136</ele>
        <time>2025-02-02T12:12:22Z</time>
      </trkpt>
      <trkpt lat="43.66519" lon="1.40367">
        <ele>136</ele>
        <time>2025-02-02T12:12:23Z</time>
      </trkpt>
      <trkpt lat="43.66521" lon="1.40365">
        <ele>136</ele>
        <time>2025-02-02T12:12:24Z</time>
      </trkpt>
      <trkpt lat="43.66523" lon="1.40362">
        <ele>136</ele>
        <time>2025-02-02T12:12:25Z</time>
      </trkpt>
      <trkpt lat="43.66524" lon="1.40361">
        <ele>136</ele>
        <time>2025-02-02T12:12:26Z</time>
      </trkpt>
      <trkpt lat="43.66525" lon="1.40359">
        <ele>136</ele>
        <time>2025-02-02T12:12:27Z</time>
      </trkpt>
      <trkpt lat="43.66526" lon="1.40357">
        <ele>136</ele>
        <time>2025-02-02T12:12:28Z</time>
      </trkpt>
      <trkpt lat="43.66528" lon="1.40356">
        <ele>136</ele>
        <time>2025-02-02T12:12:29Z</time>
      </trkpt>
      <trkpt lat="43.6653" lon="1.40354">
        <ele>136</ele>
        <time>2025-02-02T12:12:30Z</time>
      </trkpt>
      <trkpt lat="43.66532" lon="1.40352">
        <ele>136</ele>
        <time>2025-02-02T12:12:31Z</time>
      </trkpt>
      <trkpt lat="43.66534" lon="1.4035">
        <ele>136</ele>
        <time>2025-02-02T12:12:32Z</time>
      </trkpt>
      <trkpt lat="43.66536" lon="1.40347">
        <ele>136</ele>
        <time>2025-02-02T12:12:33Z</time>
      </trkpt>
      <trkpt lat="43.66538" lon="1.40345">
        <ele>136</ele>
        <time>2025-02-02T12:12:34Z</time>
      </trkpt>
      <trkpt lat="43.66541" lon="1.40341">
        <ele>136</ele>
        <time>2025-02-02T12:12:35Z</time>
      </trkpt>
      <trkpt lat="43.66542" lon="1.4034">
        <ele>136</ele>
        <time>2025-02-02T12:12:36Z</time>
      </trkpt>
      <trkpt lat="43.66544" lon="1.40338">
        <ele>136</ele>
        <time>2025-02-02T12:12:37Z</time>
      </trkpt>
      <trkpt lat="43.66547" lon="1.40335">
        <ele>136</ele>
        <time>2025-02-02T12:12:38Z</time>
      </trkpt>
      <trkpt lat="43.66549" lon="1.40333">
        <ele>136</ele>
        <time>2025-02-02T12:12:39Z</time>
      </trkpt>
      <trkpt lat="43.66551" lon="1.4033">
        <ele>136</ele>
        <time>2025-02-02T12:12:40Z</time>
      </trkpt>
      <trkpt lat="43.66554" lon="1.40328">
        <ele>136</ele>
        <time>2025-02-02T12:12:41Z</time>
      </trkpt>
      <trkpt lat="43.66556" lon="1.40326">
        <ele>136</ele>
        <time>2025-02-02T12:12:42Z</time>
      </trkpt>
      <trkpt lat="43.66558" lon="1.40324">
        <ele>136</ele>
        <time>2025-02-02T12:12:43Z</time>
      </trkpt>
      <trkpt lat="43.66561" lon="1.40321">
        <ele>136</ele>
        <time>2025-02-02T12:12:44Z</time>
      </trkpt>
      <trkpt lat="43.66562" lon="1.40319">
        <ele>136</ele>
        <time>2025-02-02T12:12:45Z</time>
      </trkpt>
      <trkpt lat="43.66564" lon="1.40317">
        <ele>136</ele>
        <time>2025-02-02T12:12:46Z</time>
      </trkpt>
      <trkpt lat="43.66566" lon="1.40314">
        <ele>136</ele>
        <time>2025-02-02T12:12:47Z</time>
      </trkpt>
      <trkpt lat="43.66569" lon="1.40311">
        <ele>136</ele>
        <time>2025-02-02T12:12:48Z</time>
      </trkpt>
      <trkpt lat="43.66572" lon="1.40309">
        <ele>136</ele>
        <time>2025-02-02T12:12:49Z</time>
      </trkpt>
      <trkpt lat="43.66574" lon="1.40307">
        <ele>135</ele>
        <time>2025-02-02T12:12:50Z</time>
      </trkpt>
      <trkpt lat="43.66577" lon="1.40305">
        <ele>135</ele>
        <time>2025-02-02T12:12:51Z</time>
      </trkpt>
      <trkpt lat="43.6658" lon="1.40303">
        <ele>135</ele>
        <time>2025-02-02T12:12:52Z</time>
      </trkpt>
      <trkpt lat="43.66584" lon="1.40299">
        <ele>135</ele>
        <time>2025-02-02T12:12:53Z</time>
      </trkpt>
      <trkpt lat="43.66585" lon="1.40298">
        <ele>135</ele>
        <time>2025-02-02T12:12:54Z</time>
      </trkpt>
      <trkpt lat="43.66587" lon="1.40295">
        <ele>135</ele>
        <time>2025-02-02T12:12:55Z</time>
      </trkpt>
      <trkpt lat="43.6659" lon="1.40292">
        <ele>135</ele>
        <time>2025-02-02T12:12:56Z</time>
      </trkpt>
      <trkpt lat="43.66592" lon="1.40289">
        <ele>134</ele>
        <time>2025-02-02T12:12:57Z</time>
      </trkpt>
      <trkpt lat="43.66594" lon="1.40286">
        <ele>134</ele>
        <time>2025-02-02T12:12:58Z</time>
      </trkpt>
      <trkpt lat="43.66596" lon="1.40283">
        <ele>134</ele>
        <time>2025-02-02T12:12:59Z</time>
      </trkpt>
      <trkpt lat="43.66598" lon="1.4028">
        <ele>134</ele>
        <time>2025-02-02T12:13:00Z</time>
      </trkpt>
      <trkpt lat="43.666" lon="1.40277">
        <ele>135</ele>
        <time>2025-02-02T12:13:01Z</time>
      </trkpt>
      <trkpt lat="43.66602" lon="1.40274">
        <ele>135</ele>
        <time>2025-02-02T12:13:02Z</time>
      </trkpt>
      <trkpt lat="43.66604" lon="1.40272">
        <ele>135</ele>
        <time>2025-02-02T12:13:03Z</time>
      </trkpt>
      <trkpt lat="43.66606" lon="1.40269">
        <ele>135</ele>
        <time>2025-02-02T12:13:04Z</time>
      </trkpt>
      <trkpt lat="43.66608" lon="1.40267">
        <ele>135</ele>
        <time>2025-02-02T12:13:05Z</time>
      </trkpt>
      <trkpt lat="43.66611" lon="1.40263">
        <ele>135</ele>
        <time>2025-02-02T12:13:06Z</time>
      </trkpt>
      <trkpt lat="43.66613" lon="1.40261">
        <ele>135</ele>
        <time>2025-02-02T12:13:07Z</time>
      </trkpt>
      <trkpt lat="43.66615" lon="1.40258">
        <ele>135</ele>
        <time>2025-02-02T12:13:08Z</time>
      </trkpt>
      <trkpt lat="43.66618" lon="1.40253">
        <ele>135</ele>
        <time>2025-02-02T12:13:09Z</time>
      </trkpt>
      <trkpt lat="43.66619" lon="1.40251">
        <ele>135</ele>
        <time>2025-02-02T12:13:10Z</time>
      </trkpt>
      <trkpt lat="43.66622" lon="1.40248">
        <ele>135</ele>
        <time>2025-02-02T12:13:11Z</time>
      </trkpt>
      <trkpt lat="43.66624" lon="1.40245">
        <ele>135</ele>
        <time>2025-02-02T12:13:12Z</time>
      </trkpt>
      <trkpt lat="43.66626" lon="1.40243">
        <ele>135</ele>
        <time>2025-02-02T12:13:13Z</time>
      </trkpt>
      <trkpt lat="43.66627" lon="1.4024">
        <ele>135</ele>
        <time>2025-02-02T12:13:14Z</time>
      </trkpt>
      <trkpt lat="43.6663" lon="1.40237">
        <ele>135</ele>
        <time>2025-02-02T12:13:15Z</time>
      </trkpt>
      <trkpt lat="43.66632" lon="1.40235">
        <ele>135</ele>
        <time>2025-02-02T12:13:16Z</time>
      </trkpt>
      <trkpt lat="43.66634" lon="1.40232">
        <ele>135</ele>
        <time>2025-02-02T12:13:17Z</time>
      </trkpt>
      <trkpt lat="43.66635" lon="1.40229">
        <ele>135</ele>
        <time>2025-02-02T12:13:18Z</time>
      </trkpt>
      <trkpt lat="43.66637" lon="1.40226">
        <ele>135</ele>
        <time>2025-02-02T12:13:19Z</time>
      </trkpt>
      <trkpt lat="43.66638" lon="1.40224">
        <ele>135</ele>
        <time>2025-02-02T12:13:20Z</time>
      </trkpt>
      <trkpt lat="43.66639" lon="1.40221">
        <ele>135</ele>
        <time>2025-02-02T12:13:21Z</time>
      </trkpt>
      <trkpt lat="43.66642" lon="1.40217">
        <ele>135</ele>
        <time>2025-02-02T12:13:22Z</time>
      </trkpt>
      <trkpt lat="43.66642" lon="1.40216">
        <ele>135</ele>
        <time>2025-02-02T12:13:23Z</time>
      </trkpt>
      <trkpt lat="43.66644" lon="1.40214">
        <ele>135</ele>
        <time>2025-02-02T12:13:24Z</time>
      </trkpt>
      <trkpt lat="43.66646" lon="1.40211">
        <ele>135</ele>
        <time>2025-02-02T12:13:25Z</time>
      </trkpt>
      <trkpt lat="43.66648" lon="1.40209">
        <ele>135</ele>
        <time>2025-02-02T12:13:26Z</time>
      </trkpt>
      <trkpt lat="43.6665" lon="1.40206">
        <ele>135</ele>
        <time>2025-02-02T12:13:27Z</time>
      </trkpt>
      <trkpt lat="43.66652" lon="1.40202">
        <ele>135</ele>
        <time>2025-02-02T12:13:28Z</time>
      </trkpt>
      <trkpt lat="43.66653" lon="1.402">
        <ele>135</ele>
        <time>2025-02-02T12:13:29Z</time>
      </trkpt>
      <trkpt lat="43.66655" lon="1.40197">
        <ele>135</ele>
        <time>2025-02-02T12:13:30Z</time>
      </trkpt>
      <trkpt lat="43.66656" lon="1.40195">
        <ele>135</ele>
        <time>2025-02-02T12:13:31Z</time>
      </trkpt>
      <trkpt lat="43.66657" lon="1.40192">
        <ele>135</ele>
        <time>2025-02-02T12:13:32Z</time>
      </trkpt>
      <trkpt lat="43.66659" lon="1.40189">
        <ele>136</ele>
        <time>2025-02-02T12:13:33Z</time>
      </trkpt>
      <trkpt lat="43.66661" lon="1.40186">
        <ele>136</ele>
        <time>2025-02-02T12:13:34Z</time>
      </trkpt>
      <trkpt lat="43.66663" lon="1.40183">
        <ele>136</ele>
        <time>2025-02-02T12:13:35Z</time>
      </trkpt>
      <trkpt lat="43.66665" lon="1.4018">
        <ele>136</ele>
        <time>2025-02-02T12:13:36Z</time>
      </trkpt>
      <trkpt lat="43.66666" lon="1.40177">
        <ele>136</ele>
        <time>2025-02-02T12:13:37Z</time>
      </trkpt>
      <trkpt lat="43.66668" lon="1.40174">
        <ele>136</ele>
        <time>2025-02-02T12:13:38Z</time>
      </trkpt>
      <trkpt lat="43.6667" lon="1.40171">
        <ele>136</ele>
        <time>2025-02-02T12:13:39Z</time>
      </trkpt>
      <trkpt lat="43.66671" lon="1.40168">
        <ele>136</ele>
        <time>2025-02-02T12:13:40Z</time>
      </trkpt>
      <trkpt lat="43.66674" lon="1.40164">
        <ele>136</ele>
        <time>2025-02-02T12:13:41Z</time>
      </trkpt>
      <trkpt lat="43.66674" lon="1.40163">
        <ele>136</ele>
        <time>2025-02-02T12:13:42Z</time>
      </trkpt>
      <trkpt lat="43.66675" lon="1.4016">
        <ele>136</ele>
        <time>2025-02-02T12:13:43Z</time>
      </trkpt>
      <trkpt lat="43.66677" lon="1.40158">
        <ele>136</ele>
        <time>2025-02-02T12:13:44Z</time>
      </trkpt>
      <trkpt lat="43.66678" lon="1.40155">
        <ele>136</ele>
        <time>2025-02-02T12:13:45Z</time>
      </trkpt>
      <trkpt lat="43.66679" lon="1.40152">
        <ele>135</ele>
        <time>2025-02-02T12:13:46Z</time>
      </trkpt>
      <trkpt lat="43.66681" lon="1.40148">
        <ele>135</ele>
        <time>2025-02-02T12:13:47Z</time>
      </trkpt>
      <trkpt lat="43.66682" lon="1.40146">
        <ele>135</ele>
        <time>2025-02-02T12:13:48Z</time>
      </trkpt>
      <trkpt lat="43.66684" lon="1.40143">
        <ele>135</ele>
        <time>2025-02-02T12:13:49Z</time>
      </trkpt>
      <trkpt lat="43.66685" lon="1.4014">
        <ele>135</ele>
        <time>2025-02-02T12:13:50Z</time>
      </trkpt>
      <trkpt lat="43.66687" lon="1.40137">
        <ele>135</ele>
        <time>2025-02-02T12:13:51Z</time>
      </trkpt>
      <trkpt lat="43.66689" lon="1.40135">
        <ele>135</ele>
        <time>2025-02-02T12:13:52Z</time>
      </trkpt>
      <trkpt lat="43.66691" lon="1.40132">
        <ele>135</ele>
        <time>2025-02-02T12:13:53Z</time>
      </trkpt>
      <trkpt lat="43.66694" lon="1.40129">
        <ele>135</ele>
        <time>2025-02-02T12:13:54Z</time>
      </trkpt>
      <trkpt lat="43.66696" lon="1.40126">
        <ele>135</ele>
        <time>2025-02-02T12:13:55Z</time>
      </trkpt>
      <trkpt lat="43.66698" lon="1.40124">
        <ele>136</ele>
        <time>2025-02-02T12:13:56Z</time>
      </trkpt>
      <trkpt lat="43.667" lon="1.40121">
        <ele>136</ele>
        <time>2025-02-02T12:13:57Z</time>
      </trkpt>
      <trkpt lat="43.66702" lon="1.40118">
        <ele>136</ele>
        <time>2025-02-02T12:13:58Z</time>
      </trkpt>
      <trkpt lat="43.66704" lon="1.40115">
        <ele>136</ele>
        <time>2025-02-02T12:13:59Z</time>
      </trkpt>
      <trkpt lat="43.66705" lon="1.40111">
        <ele>136</ele>
        <time>2025-02-02T12:14:00Z</time>
      </trkpt>
      <trkpt lat="43.66706" lon="1.40109">
        <ele>136</ele>
        <time>2025-02-02T12:14:01Z</time>
      </trkpt>
      <trkpt lat="43.66707" lon="1.40107">
        <ele>136</ele>
        <time>2025-02-02T12:14:02Z</time>
      </trkpt>
      <trkpt lat="43.66708" lon="1.40104">
        <ele>136</ele>
        <time>2025-02-02T12:14:03Z</time>
      </trkpt>
      <trkpt lat="43.66709" lon="1.401">
        <ele>136</ele>
        <time>2025-02-02T12:14:04Z</time>
      </trkpt>
      <trkpt lat="43.6671" lon="1.40097">
        <ele>136</ele>
        <time>2025-02-02T12:14:05Z</time>
      </trkpt>
      <trkpt lat="43.66712" lon="1.40092">
        <ele>136</ele>
        <time>2025-02-02T12:14:06Z</time>
      </trkpt>
      <trkpt lat="43.66713" lon="1.40091">
        <ele>136</ele>
        <time>2025-02-02T12:14:07Z</time>
      </trkpt>
      <trkpt lat="43.66714" lon="1.40088">
        <ele>136</ele>
        <time>2025-02-02T12:14:08Z</time>
      </trkpt>
      <trkpt lat="43.66716" lon="1.40086">
        <ele>136</ele>
        <time>2025-02-02T12:14:09Z</time>
      </trkpt>
      <trkpt lat="43.66717" lon="1.40083">
        <ele>136</ele>
        <time>2025-02-02T12:14:10Z</time>
      </trkpt>
      <trkpt lat="43.66718" lon="1.40079">
        <ele>136</ele>
        <time>2025-02-02T12:14:11Z</time>
      </trkpt>
      <trkpt lat="43.6672" lon="1.40077">
        <ele>136</ele>
        <time>2025-02-02T12:14:12Z</time>
      </trkpt>
      <trkpt lat="43.66721" lon="1.40074">
        <ele>136</ele>
        <time>2025-02-02T12:14:13Z</time>
      </trkpt>
      <trkpt lat="43.66722" lon="1.40071">
        <ele>136</ele>
        <time>2025-02-02T12:14:14Z</time>
      </trkpt>
      <trkpt lat="43.66724" lon="1.40068">
        <ele>136</ele>
        <time>2025-02-02T12:14:15Z</time>
      </trkpt>
      <trkpt lat="43.66725" lon="1.40065">
        <ele>136</ele>
        <time>2025-02-02T12:14:16Z</time>
      </trkpt>
      <trkpt lat="43.66726" lon="1.40062">
        <ele>136</ele>
        <time>2025-02-02T12:14:17Z</time>
      </trkpt>
      <trkpt lat="43.66728" lon="1.4006">
        <ele>136</ele>
        <time>2025-02-02T12:14:18Z</time>
      </trkpt>
      <trkpt lat="43.6673" lon="1.40056">
        <ele>136</ele>
        <time>2025-02-02T12:14:19Z</time>
      </trkpt>
      <trkpt lat="43.66731" lon="1.40054">
        <ele>136</ele>
        <time>2025-02-02T12:14:20Z</time>
      </trkpt>
      <trkpt lat="43.66732" lon="1.40052">
        <ele>136</ele>
        <time>2025-02-02T12:14:21Z</time>
      </trkpt>
      <trkpt lat="43.66734" lon="1.40049">
        <ele>136</ele>
        <time>2025-02-02T12:14:22Z</time>
      </trkpt>
      <trkpt lat="43.66735" lon="1.40046">
        <ele>136</ele>
        <time>2025-02-02T12:14:23Z</time>
      </trkpt>
      <trkpt lat="43.66736" lon="1.40044">
        <ele>136</ele>
        <time>2025-02-02T12:14:24Z</time>
      </trkpt>
      <trkpt lat="43.66738" lon="1.40042">
        <ele>136</ele>
        <time>2025-02-02T12:14:25Z</time>
      </trkpt>
      <trkpt lat="43.6674" lon="1.40037">
        <ele>136</ele>
        <time>2025-02-02T12:14:26Z</time>
      </trkpt>
      <trkpt lat="43.66741" lon="1.40036">
        <ele>136</ele>
        <time>2025-02-02T12:14:27Z</time>
      </trkpt>
      <trkpt lat="43.66743" lon="1.40034">
        <ele>136</ele>
        <time>2025-02-02T12:14:28Z</time>
      </trkpt>
      <trkpt lat="43.66744" lon="1.40031">
        <ele>136</ele>
        <time>2025-02-02T12:14:29Z</time>
      </trkpt>
      <trkpt lat="43.66744" lon="1.40028">
        <ele>136</ele>
        <time>2025-02-02T12:14:30Z</time>
      </trkpt>
      <trkpt lat="43.66745" lon="1.40025">
        <ele>136</ele>
        <time>2025-02-02T12:14:31Z</time>
      </trkpt>
      <trkpt lat="43.66745" lon="1.40025">
        <ele>136</ele>
        <time>2025-02-02T12:14:32Z</time>
      </trkpt>
      <trkpt lat="43.66746" lon="1.4002">
        <ele>136</ele>
        <time>2025-02-02T12:14:33Z</time>
      </trkpt>
      <trkpt lat="43.66747" lon="1.40018">
        <ele>136</ele>
        <time>2025-02-02T12:14:34Z</time>
      </trkpt>
      <trkpt lat="43.66748" lon="1.40015">
        <ele>136</ele>
        <time>2025-02-02T12:14:35Z</time>
      </trkpt>
      <trkpt lat="43.66749" lon="1.40011">
        <ele>136</ele>
        <time>2025-02-02T12:14:36Z</time>
      </trkpt>
      <trkpt lat="43.66749" lon="1.40008">
        <ele>136</ele>
        <time>2025-02-02T12:14:37Z</time>
      </trkpt>
      <trkpt lat="43.6675" lon="1.40003">
        <ele>136</ele>
        <time>2025-02-02T12:14:38Z</time>
      </trkpt>
      <trkpt lat="43.66751" lon="1.40001">
        <ele>136</ele>
        <time>2025-02-02T12:14:39Z</time>
      </trkpt>
      <trkpt lat="43.66752" lon="1.39997">
        <ele>136</ele>
        <time>2025-02-02T12:14:40Z</time>
      </trkpt>
      <trkpt lat="43.66752" lon="1.39995">
        <ele>136</ele>
        <time>2025-02-02T12:14:41Z</time>
      </trkpt>
      <trkpt lat="43.66753" lon="1.39992">
        <ele>136</ele>
        <time>2025-02-02T12:14:42Z</time>
      </trkpt>
      <trkpt lat="43.66753" lon="1.3999">
        <ele>136</ele>
        <time>2025-02-02T12:14:43Z</time>
      </trkpt>
      <trkpt lat="43.66755" lon="1.39978">
        <ele>136</ele>
        <time>2025-02-02T12:14:44Z</time>
      </trkpt>
      <trkpt lat="43.66756" lon="1.39974">
        <ele>136</ele>
        <time>2025-02-02T12:14:45Z</time>
      </trkpt>
      <trkpt lat="43.66756" lon="1.3997">
        <ele>136</ele>
        <time>2025-02-02T12:14:46Z</time>
      </trkpt>
      <trkpt lat="43.66757" lon="1.39966">
        <ele>136</ele>
        <time>2025-02-02T12:14:47Z</time>
      </trkpt>
      <trkpt lat="43.66758" lon="1.39962">
        <ele>136</ele>
        <time>2025-02-02T12:14:48Z</time>
      </trkpt>
      <trkpt lat="43.66758" lon="1.39959">
        <ele>136</ele>
        <time>2025-02-02T12:14:49Z</time>
      </trkpt>
      <trkpt lat="43.66759" lon="1.39955">
        <ele>136</ele>
        <time>2025-02-02T12:14:50Z</time>
      </trkpt>
      <trkpt lat="43.6676" lon="1.39952">
        <ele>136</ele>
        <time>2025-02-02T12:14:51Z</time>
      </trkpt>
      <trkpt lat="43.6676" lon="1.39949">
        <ele>136</ele>
        <time>2025-02-02T12:14:52Z</time>
      </trkpt>
      <trkpt lat="43.6676" lon="1.39946">
        <ele>136</ele>
        <time>2025-02-02T12:14:53Z</time>
      </trkpt>
      <trkpt lat="43.6676" lon="1.39942">
        <ele>136</ele>
        <time>2025-02-02T12:14:54Z</time>
      </trkpt>
      <trkpt lat="43.66761" lon="1.3994">
        <ele>136</ele>
        <time>2025-02-02T12:14:55Z</time>
      </trkpt>
      <trkpt lat="43.66762" lon="1.39936">
        <ele>136</ele>
        <time>2025-02-02T12:14:56Z</time>
      </trkpt>
      <trkpt lat="43.66763" lon="1.39931">
        <ele>136</ele>
        <time>2025-02-02T12:14:57Z</time>
      </trkpt>
      <trkpt lat="43.66764" lon="1.3993">
        <ele>136</ele>
        <time>2025-02-02T12:14:58Z</time>
      </trkpt>
      <trkpt lat="43.66765" lon="1.39927">
        <ele>136</ele>
        <time>2025-02-02T12:14:59Z</time>
      </trkpt>
      <trkpt lat="43.66766" lon="1.39924">
        <ele>136</ele>
        <time>2025-02-02T12:15:00Z</time>
      </trkpt>
      <trkpt lat="43.66766" lon="1.39921">
        <ele>136</ele>
        <time>2025-02-02T12:15:01Z</time>
      </trkpt>
      <trkpt lat="43.66766" lon="1.39917">
        <ele>136</ele>
        <time>2025-02-02T12:15:02Z</time>
      </trkpt>
      <trkpt lat="43.66767" lon="1.39914">
        <ele>136</ele>
        <time>2025-02-02T12:15:03Z</time>
      </trkpt>
      <trkpt lat="43.66767" lon="1.3991">
        <ele>136</ele>
        <time>2025-02-02T12:15:04Z</time>
      </trkpt>
      <trkpt lat="43.66767" lon="1.39906">
        <ele>136</ele>
        <time>2025-02-02T12:15:05Z</time>
      </trkpt>
      <trkpt lat="43.66768" lon="1.39903">
        <ele>136</ele>
        <time>2025-02-02T12:15:06Z</time>
      </trkpt>
      <trkpt lat="43.66768" lon="1.39899">
        <ele>136</ele>
        <time>2025-02-02T12:15:07Z</time>
      </trkpt>
      <trkpt lat="43.66769" lon="1.39896">
        <ele>136</ele>
        <time>2025-02-02T12:15:08Z</time>
      </trkpt>
      <trkpt lat="43.66769" lon="1.39892">
        <ele>136</ele>
        <time>2025-02-02T12:15:09Z</time>
      </trkpt>
      <trkpt lat="43.6677" lon="1.39888">
        <ele>136</ele>
        <time>2025-02-02T12:15:10Z</time>
      </trkpt>
      <trkpt lat="43.6677" lon="1.39885">
        <ele>136</ele>
        <time>2025-02-02T12:15:11Z</time>
      </trkpt>
      <trkpt lat="43.6677" lon="1.39881">
        <ele>136</ele>
        <time>2025-02-02T12:15:12Z</time>
      </trkpt>
      <trkpt lat="43.6677" lon="1.39878">
        <ele>136</ele>
        <time>2025-02-02T12:15:13Z</time>
      </trkpt>
      <trkpt lat="43.6677" lon="1.39874">
        <ele>136</ele>
        <time>2025-02-02T12:15:14Z</time>
      </trkpt>
      <trkpt lat="43.6677" lon="1.39871">
        <ele>136</ele>
        <time>2025-02-02T12:15:15Z</time>
      </trkpt>
      <trkpt lat="43.66771" lon="1.39866">
        <ele>136</ele>
        <time>2025-02-02T12:15:16Z</time>
      </trkpt>
      <trkpt lat="43.66771" lon="1.39864">
        <ele>136</ele>
        <time>2025-02-02T12:15:17Z</time>
      </trkpt>
      <trkpt lat="43.66771" lon="1.39861">
        <ele>136</ele>
        <time>2025-02-02T12:15:18Z</time>
      </trkpt>
      <trkpt lat="43.66771" lon="1.39857">
        <ele>136</ele>
        <time>2025-02-02T12:15:19Z</time>
      </trkpt>
      <trkpt lat="43.66771" lon="1.39853">
        <ele>136</ele>
        <time>2025-02-02T12:15:20Z</time>
      </trkpt>
      <trkpt lat="43.66771" lon="1.39849">
        <ele>136</ele>
        <time>2025-02-02T12:15:21Z</time>
      </trkpt>
      <trkpt lat="43.66772" lon="1.39846">
        <ele>136</ele>
        <time>2025-02-02T12:15:22Z</time>
      </trkpt>
      <trkpt lat="43.66772" lon="1.39844">
        <ele>136</ele>
        <time>2025-02-02T12:15:23Z</time>
      </trkpt>
      <trkpt lat="43.66772" lon="1.39844">
        <ele>136</ele>
        <time>2025-02-02T12:15:24Z</time>
      </trkpt>
      <trkpt lat="43.66772" lon="1.39839">
        <ele>136</ele>
        <time>2025-02-02T12:15:25Z</time>
      </trkpt>
      <trkpt lat="43.66772" lon="1.39839">
        <ele>136</ele>
        <time>2025-02-02T12:15:26Z</time>
      </trkpt>
      <trkpt lat="43.66774" lon="1.39835">
        <ele>136</ele>
        <time>2025-02-02T12:15:27Z</time>
      </trkpt>
      <trkpt lat="43.66774" lon="1.39835">
        <ele>136</ele>
        <time>2025-02-02T12:15:28Z</time>
      </trkpt>
      <trkpt lat="43.66774" lon="1.39831">
        <ele>136</ele>
        <time>2025-02-02T12:15:29Z</time>
      </trkpt>
      <trkpt lat="43.66774" lon="1.39831">
        <ele>136</ele>
        <time>2025-02-02T12:15:30Z</time>
      </trkpt>
      <trkpt lat="43.66774" lon="1.39828">
        <ele>136</ele>
        <time>2025-02-02T12:15:31Z</time>
      </trkpt>
      <trkpt lat="43.66774" lon="1.39828">
        <ele>136</ele>
        <time>2025-02-02T12:15:32Z</time>
      </trkpt>
      <trkpt lat="43.66774" lon="1.39825">
        <ele>136</ele>
        <time>2025-02-02T12:15:33Z</time>
      </trkpt>
      <trkpt lat="43.66774" lon="1.39825">
        <ele>136</ele>
        <time>2025-02-02T12:15:34Z</time>
      </trkpt>
      <trkpt lat="43.66774" lon="1.39821">
        <ele>136</ele>
        <time>2025-02-02T12:15:35Z</time>
      </trkpt>
      <trkpt lat="43.66774" lon="1.39821">
        <ele>136</ele>
        <time>2025-02-02T12:15:36Z</time>
      </trkpt>
      <trkpt lat="43.66775" lon="1.39817">
        <ele>136</ele>
        <time>2025-02-02T12:15:37Z</time>
      </trkpt>
      <trkpt lat="43.66775" lon="1.39817">
        <ele>136</ele>
        <time>2025-02-02T12:15:38Z</time>
      </trkpt>
      <trkpt lat="43.66775" lon="1.39813">
        <ele>136</ele>
        <time>2025-02-02T12:15:39Z</time>
      </trkpt>
      <trkpt lat="43.66775" lon="1.39813">
        <ele>136</ele>
        <time>2025-02-02T12:15:40Z</time>
      </trkpt>
      <trkpt lat="43.66775" lon="1.39809">
        <ele>136</ele>
        <time>2025-02-02T12:15:41Z</time>
      </trkpt>
      <trkpt lat="43.66775" lon="1.39809">
        <ele>136</ele>
        <time>2025-02-02T12:15:42Z</time>
      </trkpt>
      <trkpt lat="43.66775" lon="1.39805">
        <ele>136</ele>
        <time>2025-02-02T12:15:43Z</time>
      </trkpt>
      <trkpt lat="43.66775" lon="1.39805">
        <ele>136</ele>
        <time>2025-02-02T12:15:44Z</time>
      </trkpt>
      <trkpt lat="43.66775" lon="1.39801">
        <ele>136</ele>
        <time>2025-02-02T12:15:45Z</time>
      </trkpt>
      <trkpt lat="43.66775" lon="1.39801">
        <ele>136</ele>
        <time>2025-02-02T12:15:46Z</time>
      </trkpt>
      <trkpt lat="43.66775" lon="1.39798">
        <ele>136</ele>
        <time>2025-02-02T12:15:47Z</time>
      </trkpt>
      <trkpt lat="43.66775" lon="1.39798">
        <ele>136</ele>
        <time>2025-02-02T12:15:48Z</time>
      </trkpt>
      <trkpt lat="43.66774" lon="1.39794">
        <ele>136</ele>
        <time>2025-02-02T12:15:49Z</time>
      </trkpt>
      <trkpt lat="43.66774" lon="1.39794">
        <ele>136</ele>
        <time>2025-02-02T12:15:50Z</time>
      </trkpt>
      <trkpt lat="43.66774" lon="1.3979">
        <ele>136</ele>
        <time>2025-02-02T12:15:51Z</time>
      </trkpt>
      <trkpt lat="43.66774" lon="1.3979">
        <ele>136</ele>
        <time>2025-02-02T12:15:52Z</time>
      </trkpt>
      <trkpt lat="43.66775" lon="1.39786">
        <ele>136</ele>
        <time>2025-02-02T12:15:53Z</time>
      </trkpt>
      <trkpt lat="43.66775" lon="1.39783">
        <ele>136</ele>
        <time>2025-02-02T12:15:55Z</time>
      </trkpt>
      <trkpt lat="43.66775" lon="1.39783">
        <ele>136</ele>
        <time>2025-02-02T12:15:56Z</time>
      </trkpt>
      <trkpt lat="43.66775" lon="1.3978">
        <ele>136</ele>
        <time>2025-02-02T12:15:57Z</time>
      </trkpt>
      <trkpt lat="43.66775" lon="1.3978">
        <ele>136</ele>
        <time>2025-02-02T12:15:58Z</time>
      </trkpt>
      <trkpt lat="43.66775" lon="1.39777">
        <ele>136</ele>
        <time>2025-02-02T12:15:59Z</time>
      </trkpt>
      <trkpt lat="43.66775" lon="1.39777">
        <ele>136</ele>
        <time>2025-02-02T12:16:00Z</time>
      </trkpt>
      <trkpt lat="43.66775" lon="1.39773">
        <ele>136</ele>
        <time>2025-02-02T12:16:01Z</time>
      </trkpt>
      <trkpt lat="43.66775" lon="1.39773">
        <ele>136</ele>
        <time>2025-02-02T12:16:02Z</time>
      </trkpt>
      <trkpt lat="43.66776" lon="1.3977">
        <ele>136</ele>
        <time>2025-02-02T12:16:03Z</time>
      </trkpt>
      <trkpt lat="43.66776" lon="1.3977">
        <ele>136</ele>
        <time>2025-02-02T12:16:04Z</time>
      </trkpt>
      <trkpt lat="43.66776" lon="1.39767">
        <ele>136</ele>
        <time>2025-02-02T12:16:05Z</time>
      </trkpt>
      <trkpt lat="43.66776" lon="1.39767">
        <ele>136</ele>
        <time>2025-02-02T12:16:06Z</time>
      </trkpt>
      <trkpt lat="43.66776" lon="1.39764">
        <ele>136</ele>
        <time>2025-02-02T12:16:07Z</time>
      </trkpt>
      <trkpt lat="43.66776" lon="1.39764">
        <ele>136</ele>
        <time>2025-02-02T12:16:08Z</time>
      </trkpt>
      <trkpt lat="43.66776" lon="1.3976">
        <ele>136</ele>
        <time>2025-02-02T12:16:09Z</time>
      </trkpt>
      <trkpt lat="43.66776" lon="1.3976">
        <ele>136</ele>
        <time>2025-02-02T12:16:10Z</time>
      </trkpt>
      <trkpt lat="43.66776" lon="1.39757">
        <ele>136</ele>
        <time>2025-02-02T12:16:11Z</time>
      </trkpt>
      <trkpt lat="43.66776" lon="1.39757">
        <ele>136</ele>
        <time>2025-02-02T12:16:12Z</time>
      </trkpt>
      <trkpt lat="43.66776" lon="1.39754">
        <ele>136</ele>
        <time>2025-02-02T12:16:13Z</time>
      </trkpt>
      <trkpt lat="43.66776" lon="1.39754">
        <ele>136</ele>
        <time>2025-02-02T12:16:14Z</time>
      </trkpt>
      <trkpt lat="43.66777" lon="1.39751">
        <ele>136</ele>
        <time>2025-02-02T12:16:15Z</time>
      </trkpt>
      <trkpt lat="43.66777" lon="1.39751">
        <ele>136</ele>
        <time>2025-02-02T12:16:16Z</time>
      </trkpt>
      <trkpt lat="43.66777" lon="1.39747">
        <ele>136</ele>
        <time>2025-02-02T12:16:17Z</time>
      </trkpt>
      <trkpt lat="43.66777" lon="1.39747">
        <ele>136</ele>
        <time>2025-02-02T12:16:18Z</time>
      </trkpt>
      <trkpt lat="43.66777" lon="1.39744">
        <ele>136</ele>
        <time>2025-02-02T12:16:19Z</time>
      </trkpt>
      <trkpt lat="43.66777" lon="1.39744">
        <ele>136</ele>
        <time>2025-02-02T12:16:20Z</time>
      </trkpt>
      <trkpt lat="43.66778" lon="1.39741">
        <ele>136</ele>
        <time>2025-02-02T12:16:21Z</time>
      </trkpt>
      <trkpt lat="43.66778" lon="1.39741">
        <ele>136</ele>
        <time>2025-02-02T12:16:22Z</time>
      </trkpt>
      <trkpt lat="43.66777" lon="1.39738">
        <ele>136</ele>
        <time>2025-02-02T12:16:23Z</time>
      </trkpt>
      <trkpt lat="43.66777" lon="1.39738">
        <ele>136</ele>
        <time>2025-02-02T12:16:24Z</time>
      </trkpt>
      <trkpt lat="43.66777" lon="1.39735">
        <ele>136</ele>
        <time>2025-02-02T12:16:25Z</time>
      </trkpt>
      <trkpt lat="43.66777" lon="1.39735">
        <ele>136</ele>
        <time>2025-02-02T12:16:26Z</time>
      </trkpt>
      <trkpt lat="43.66778" lon="1.39732">
        <ele>136</ele>
        <time>2025-02-02T12:16:27Z</time>
      </trkpt>
      <trkpt lat="43.66778" lon="1.39732">
        <ele>136</ele>
        <time>2025-02-02T12:16:28Z</time>
      </trkpt>
      <trkpt lat="43.66778" lon="1.39729">
        <ele>136</ele>
        <time>2025-02-02T12:16:29Z</time>
      </trkpt>
      <trkpt lat="43.66778" lon="1.39729">
        <ele>136</ele>
        <time>2025-02-02T12:16:30Z</time>
      </trkpt>
      <trkpt lat="43.66777" lon="1.39725">
        <ele>136</ele>
        <time>2025-02-02T12:16:31Z</time>
      </trkpt>
      <trkpt lat="43.66777" lon="1.39722">
        <ele>136</ele>
        <time>2025-02-02T12:16:33Z</time>
      </trkpt>
      <trkpt lat="43.66777" lon="1.39722">
        <ele>136</ele>
        <time>2025-02-02T12:16:34Z</time>
      </trkpt>
      <trkpt lat="43.66777" lon="1.39722">
        <ele>136</ele>
        <time>2025-02-02T12:16:35Z</time>
      </trkpt>
      <trkpt lat="43.66777" lon="1.39722">
        <ele>135</ele>
        <time>2025-02-02T12:16:36Z</time>
      </trkpt>
      <trkpt lat="43.66778" lon="1.39725">
        <ele>135</ele>
        <time>2025-02-02T12:16:37Z</time>
      </trkpt>
      <trkpt lat="43.66778" lon="1.39725">
        <ele>135</ele>
        <time>2025-02-02T12:16:38Z</time>
      </trkpt>
      <trkpt lat="43.66778" lon="1.3973">
        <ele>135</ele>
        <time>2025-02-02T12:16:39Z</time>
      </trkpt>
      <trkpt lat="43.66778" lon="1.3973">
        <ele>135</ele>
        <time>2025-02-02T12:16:40Z</time>
      </trkpt>
      <trkpt lat="43.66778" lon="1.39734">
        <ele>135</ele>
        <time>2025-02-02T12:16:41Z</time>
      </trkpt>
      <trkpt lat="43.66778" lon="1.39734">
        <ele>135</ele>
        <time>2025-02-02T12:16:42Z</time>
      </trkpt>
      <trkpt lat="43.66779" lon="1.39738">
        <ele>136</ele>
        <time>2025-02-02T12:16:43Z</time>
      </trkpt>
      <trkpt lat="43.66779" lon="1.39738">
        <ele>136</ele>
        <time>2025-02-02T12:16:44Z</time>
      </trkpt>
      <trkpt lat="43.66779" lon="1.39741">
        <ele>136</ele>
        <time>2025-02-02T12:16:45Z</time>
      </trkpt>
      <trkpt lat="43.66779" lon="1.39741">
        <ele>136</ele>
        <time>2025-02-02T12:16:46Z</time>
      </trkpt>
      <trkpt lat="43.66779" lon="1.39744">
        <ele>136</ele>
        <time>2025-02-02T12:16:47Z</time>
      </trkpt>
      <trkpt lat="43.66779" lon="1.39744">
        <ele>136</ele>
        <time>2025-02-02T12:16:48Z</time>
      </trkpt>
      <trkpt lat="43.6678" lon="1.39748">
        <ele>136</ele>
        <time>2025-02-02T12:16:49Z</time>
      </trkpt>
      <trkpt lat="43.6678" lon="1.39748">
        <ele>136</ele>
        <time>2025-02-02T12:16:50Z</time>
      </trkpt>
      <trkpt lat="43.6678" lon="1.3975">
        <ele>136</ele>
        <time>2025-02-02T12:16:51Z</time>
      </trkpt>
      <trkpt lat="43.6678" lon="1.3975">
        <ele>136</ele>
        <time>2025-02-02T12:16:52Z</time>
      </trkpt>
      <trkpt lat="43.66778" lon="1.39751">
        <ele>136</ele>
        <time>2025-02-02T12:16:53Z</time>
      </trkpt>
      <trkpt lat="43.66778" lon="1.39751">
        <ele>136</ele>
        <time>2025-02-02T12:16:54Z</time>
      </trkpt>
      <trkpt lat="43.66778" lon="1.39751">
        <ele>136</ele>
        <time>2025-02-02T12:16:55Z</time>
      </trkpt>
      <trkpt lat="43.66778" lon="1.39751">
        <ele>136</ele>
        <time>2025-02-02T12:16:56Z</time>
      </trkpt>
      <trkpt lat="43.66778" lon="1.39751">
        <ele>136</ele>
        <time>2025-02-02T12:16:57Z</time>
      </trkpt>
      <trkpt lat="43.66778" lon="1.39751">
        <ele>136</ele>
        <time>2025-02-02T12:16:58Z</time>
      </trkpt>
      <trkpt lat="43.66778" lon="1.39751">
        <ele>135</ele>
        <time>2025-02-02T12:16:59Z</time>
      </trkpt>
      <trkpt lat="43.66778" lon="1.39751">
        <ele>135</ele>
        <time>2025-02-02T12:17:00Z</time>
      </trkpt>
      <trkpt lat="43.66778" lon="1.39751">
        <ele>136</ele>
        <time>2025-02-02T12:17:01Z</time>
      </trkpt>
      <trkpt lat="43.66778" lon="1.39751">
        <ele>136</ele>
        <time>2025-02-02T12:17:02Z</time>
      </trkpt>
      <trkpt lat="43.66778" lon="1.39751">
        <ele>136</ele>
        <time>2025-02-02T12:17:03Z</time>
      </trkpt>
      <trkpt lat="43.66778" lon="1.39751">
        <ele>136</ele>
        <time>2025-02-02T12:17:04Z</time>
      </trkpt>
      <trkpt lat="43.66778" lon="1.39751">
        <ele>136</ele>
        <time>2025-02-02T12:17:05Z</time>
      </trkpt>
      <trkpt lat="43.66778" lon="1.39751">
        <ele>136</ele>
        <time>2025-02-02T12:17:06Z</time>
      </trkpt>
      <trkpt lat="43.66778" lon="1.39751">
        <ele>136</ele>
        <time>2025-02-02T12:17:07Z</time>
      </trkpt>
      <trkpt lat="43.66778" lon="1.39751">
        <ele>136</ele>
        <time>2025-02-02T12:17:08Z</time>
      </trkpt>
      <trkpt lat="43.66778" lon="1.39751">
        <ele>136</ele>
        <time>2025-02-02T12:17:09Z</time>
      </trkpt>
      <trkpt lat="43.66778" lon="1.39751">
        <ele>136</ele>
        <time>2025-02-02T12:17:11Z</time>
      </trkpt>
      <trkpt lat="43.66778" lon="1.39751">
        <ele>136</ele>
        <time>2025-02-02T12:17:12Z</time>
      </trkpt>
      <trkpt lat="43.66778" lon="1.39751">
        <ele>136</ele>
        <time>2025-02-02T12:17:13Z</time>
      </trkpt>
      <trkpt lat="43.66778" lon="1.39751">
        <ele>136</ele>
        <time>2025-02-02T12:17:14Z</time>
      </trkpt>
      <trkpt lat="43.66778" lon="1.39754">
        <ele>136</ele>
        <time>2025-02-02T12:17:15Z</time>
      </trkpt>
      <trkpt lat="43.66778" lon="1.39754">
        <ele>136</ele>
        <time>2025-02-02T12:17:16Z</time>
      </trkpt>
      <trkpt lat="43.66779" lon="1.39756">
        <ele>136</ele>
        <time>2025-02-02T12:17:17Z</time>
      </trkpt>
      <trkpt lat="43.66779" lon="1.39756">
        <ele>136</ele>
        <time>2025-02-02T12:17:18Z</time>
      </trkpt>
      <trkpt lat="43.6678" lon="1.39759">
        <ele>136</ele>
        <time>2025-02-02T12:17:19Z</time>
      </trkpt>
      <trkpt lat="43.6678" lon="1.39759">
        <ele>136</ele>
        <time>2025-02-02T12:17:20Z</time>
      </trkpt>
      <trkpt lat="43.6678" lon="1.39763">
        <ele>136</ele>
        <time>2025-02-02T12:17:21Z</time>
      </trkpt>
      <trkpt lat="43.6678" lon="1.39763">
        <ele>136</ele>
        <time>2025-02-02T12:17:22Z</time>
      </trkpt>
      <trkpt lat="43.6678" lon="1.39767">
        <ele>136</ele>
        <time>2025-02-02T12:17:23Z</time>
      </trkpt>
      <trkpt lat="43.6678" lon="1.39767">
        <ele>136</ele>
        <time>2025-02-02T12:17:24Z</time>
      </trkpt>
      <trkpt lat="43.66781" lon="1.3977">
        <ele>136</ele>
        <time>2025-02-02T12:17:25Z</time>
      </trkpt>
      <trkpt lat="43.66781" lon="1.3977">
        <ele>137</ele>
        <time>2025-02-02T12:17:26Z</time>
      </trkpt>
      <trkpt lat="43.66781" lon="1.39773">
        <ele>137</ele>
        <time>2025-02-02T12:17:27Z</time>
      </trkpt>
      <trkpt lat="43.66781" lon="1.39773">
        <ele>136</ele>
        <time>2025-02-02T12:17:28Z</time>
      </trkpt>
      <trkpt lat="43.6678" lon="1.39776">
        <ele>136</ele>
        <time>2025-02-02T12:17:29Z</time>
      </trkpt>
      <trkpt lat="43.6678" lon="1.39776">
        <ele>136</ele>
        <time>2025-02-02T12:17:30Z</time>
      </trkpt>
      <trkpt lat="43.6678" lon="1.3978">
        <ele>136</ele>
        <time>2025-02-02T12:17:31Z</time>
      </trkpt>
      <trkpt lat="43.6678" lon="1.3978">
        <ele>136</ele>
        <time>2025-02-02T12:17:32Z</time>
      </trkpt>
      <trkpt lat="43.6678" lon="1.39784">
        <ele>136</ele>
        <time>2025-02-02T12:17:33Z</time>
      </trkpt>
      <trkpt lat="43.6678" lon="1.39784">
        <ele>136</ele>
        <time>2025-02-02T12:17:34Z</time>
      </trkpt>
      <trkpt lat="43.6678" lon="1.39787">
        <ele>137</ele>
        <time>2025-02-02T12:17:35Z</time>
      </trkpt>
      <trkpt lat="43.6678" lon="1.39787">
        <ele>137</ele>
        <time>2025-02-02T12:17:36Z</time>
      </trkpt>
      <trkpt lat="43.6678" lon="1.3979">
        <ele>137</ele>
        <time>2025-02-02T12:17:37Z</time>
      </trkpt>
      <trkpt lat="43.6678" lon="1.3979">
        <ele>137</ele>
        <time>2025-02-02T12:17:38Z</time>
      </trkpt>
      <trkpt lat="43.6678" lon="1.39794">
        <ele>137</ele>
        <time>2025-02-02T12:17:39Z</time>
      </trkpt>
      <trkpt lat="43.6678" lon="1.39794">
        <ele>137</ele>
        <time>2025-02-02T12:17:40Z</time>
      </trkpt>
      <trkpt lat="43.66779" lon="1.39798">
        <ele>137</ele>
        <time>2025-02-02T12:17:41Z</time>
      </trkpt>
      <trkpt lat="43.66779" lon="1.39798">
        <ele>137</ele>
        <time>2025-02-02T12:17:42Z</time>
      </trkpt>
      <trkpt lat="43.66779" lon="1.39801">
        <ele>137</ele>
        <time>2025-02-02T12:17:43Z</time>
      </trkpt>
      <trkpt lat="43.66779" lon="1.39801">
        <ele>137</ele>
        <time>2025-02-02T12:17:44Z</time>
      </trkpt>
      <trkpt lat="43.66779" lon="1.39805">
        <ele>137</ele>
        <time>2025-02-02T12:17:45Z</time>
      </trkpt>
      <trkpt lat="43.66779" lon="1.39805">
        <ele>136</ele>
        <time>2025-02-02T12:17:46Z</time>
      </trkpt>
      <trkpt lat="43.66778" lon="1.39808">
        <ele>136</ele>
        <time>2025-02-02T12:17:47Z</time>
      </trkpt>
      <trkpt lat="43.66778" lon="1.39808">
        <ele>136</ele>
        <time>2025-02-02T12:17:48Z</time>
      </trkpt>
      <trkpt lat="43.66778" lon="1.39811">
        <ele>136</ele>
        <time>2025-02-02T12:17:49Z</time>
      </trkpt>
      <trkpt lat="43.66778" lon="1.39811">
        <ele>136</ele>
        <time>2025-02-02T12:17:50Z</time>
      </trkpt>
      <trkpt lat="43.66778" lon="1.39815">
        <ele>136</ele>
        <time>2025-02-02T12:17:51Z</time>
      </trkpt>
      <trkpt lat="43.66778" lon="1.39815">
        <ele>136</ele>
        <time>2025-02-02T12:17:52Z</time>
      </trkpt>
      <trkpt lat="43.66778" lon="1.39819">
        <ele>136</ele>
        <time>2025-02-02T12:17:53Z</time>
      </trkpt>
      <trkpt lat="43.66778" lon="1.39819">
        <ele>136</ele>
        <time>2025-02-02T12:17:54Z</time>
      </trkpt>
      <trkpt lat="43.66778" lon="1.39822">
        <ele>136</ele>
        <time>2025-02-02T12:17:55Z</time>
      </trkpt>
      <trkpt lat="43.66778" lon="1.39822">
        <ele>136</ele>
        <time>2025-02-02T12:17:56Z</time>
      </trkpt>
      <trkpt lat="43.66778" lon="1.39826">
        <ele>136</ele>
        <time>2025-02-02T12:17:57Z</time>
      </trkpt>
      <trkpt lat="43.66778" lon="1.39826">
        <ele>136</ele>
        <time>2025-02-02T12:17:58Z</time>
      </trkpt>
      <trkpt lat="43.66778" lon="1.39829">
        <ele>136</ele>
        <time>2025-02-02T12:17:59Z</time>
      </trkpt>
      <trkpt lat="43.66778" lon="1.39829">
        <ele>136</ele>
        <time>2025-02-02T12:18:00Z</time>
      </trkpt>
      <trkpt lat="43.66778" lon="1.39833">
        <ele>136</ele>
        <time>2025-02-02T12:18:01Z</time>
      </trkpt>
      <trkpt lat="43.66778" lon="1.39833">
        <ele>135</ele>
        <time>2025-02-02T12:18:02Z</time>
      </trkpt>
      <trkpt lat="43.66778" lon="1.39837">
        <ele>135</ele>
        <time>2025-02-02T12:18:03Z</time>
      </trkpt>
      <trkpt lat="43.66778" lon="1.39837">
        <ele>135</ele>
        <time>2025-02-02T12:18:04Z</time>
      </trkpt>
      <trkpt lat="43.66778" lon="1.39842">
        <ele>135</ele>
        <time>2025-02-02T12:18:05Z</time>
      </trkpt>
      <trkpt lat="43.66778" lon="1.39845">
        <ele>135</ele>
        <time>2025-02-02T12:18:06Z</time>
      </trkpt>
      <trkpt lat="43.66778" lon="1.39849">
        <ele>135</ele>
        <time>2025-02-02T12:18:07Z</time>
      </trkpt>
      <trkpt lat="43.66778" lon="1.39853">
        <ele>136</ele>
        <time>2025-02-02T12:18:08Z</time>
      </trkpt>
      <trkpt lat="43.66778" lon="1.39856">
        <ele>136</ele>
        <time>2025-02-02T12:18:09Z</time>
      </trkpt>
      <trkpt lat="43.66778" lon="1.39859">
        <ele>136</ele>
        <time>2025-02-02T12:18:10Z</time>
      </trkpt>
      <trkpt lat="43.66777" lon="1.39863">
        <ele>136</ele>
        <time>2025-02-02T12:18:11Z</time>
      </trkpt>
      <trkpt lat="43.66777" lon="1.39866">
        <ele>136</ele>
        <time>2025-02-02T12:18:12Z</time>
      </trkpt>
      <trkpt lat="43.66777" lon="1.39869">
        <ele>136</ele>
        <time>2025-02-02T12:18:13Z</time>
      </trkpt>
      <trkpt lat="43.66777" lon="1.39872">
        <ele>136</ele>
        <time>2025-02-02T12:18:14Z</time>
      </trkpt>
      <trkpt lat="43.66777" lon="1.39875">
        <ele>136</ele>
        <time>2025-02-02T12:18:15Z</time>
      </trkpt>
      <trkpt lat="43.66776" lon="1.3988">
        <ele>136</ele>
        <time>2025-02-02T12:18:16Z</time>
      </trkpt>
      <trkpt lat="43.66776" lon="1.39882">
        <ele>136</ele>
        <time>2025-02-02T12:18:17Z</time>
      </trkpt>
      <trkpt lat="43.66776" lon="1.39886">
        <ele>136</ele>
        <time>2025-02-02T12:18:18Z</time>
      </trkpt>
      <trkpt lat="43.66775" lon="1.39889">
        <ele>136</ele>
        <time>2025-02-02T12:18:19Z</time>
      </trkpt>
      <trkpt lat="43.66775" lon="1.39893">
        <ele>136</ele>
        <time>2025-02-02T12:18:20Z</time>
      </trkpt>
      <trkpt lat="43.66774" lon="1.39896">
        <ele>136</ele>
        <time>2025-02-02T12:18:21Z</time>
      </trkpt>
      <trkpt lat="43.66774" lon="1.399">
        <ele>136</ele>
        <time>2025-02-02T12:18:22Z</time>
      </trkpt>
      <trkpt lat="43.66773" lon="1.39903">
        <ele>135</ele>
        <time>2025-02-02T12:18:23Z</time>
      </trkpt>
      <trkpt lat="43.66772" lon="1.39906">
        <ele>135</ele>
        <time>2025-02-02T12:18:24Z</time>
      </trkpt>
      <trkpt lat="43.66772" lon="1.3991">
        <ele>135</ele>
        <time>2025-02-02T12:18:25Z</time>
      </trkpt>
      <trkpt lat="43.66771" lon="1.39915">
        <ele>135</ele>
        <time>2025-02-02T12:18:26Z</time>
      </trkpt>
      <trkpt lat="43.66771" lon="1.39916">
        <ele>135</ele>
        <time>2025-02-02T12:18:27Z</time>
      </trkpt>
      <trkpt lat="43.6677" lon="1.39919">
        <ele>135</ele>
        <time>2025-02-02T12:18:28Z</time>
      </trkpt>
      <trkpt lat="43.6677" lon="1.39923">
        <ele>135</ele>
        <time>2025-02-02T12:18:29Z</time>
      </trkpt>
      <trkpt lat="43.66769" lon="1.39926">
        <ele>135</ele>
        <time>2025-02-02T12:18:30Z</time>
      </trkpt>
      <trkpt lat="43.66769" lon="1.3993">
        <ele>136</ele>
        <time>2025-02-02T12:18:31Z</time>
      </trkpt>
      <trkpt lat="43.66768" lon="1.39933">
        <ele>136</ele>
        <time>2025-02-02T12:18:32Z</time>
      </trkpt>
      <trkpt lat="43.66768" lon="1.39936">
        <ele>136</ele>
        <time>2025-02-02T12:18:33Z</time>
      </trkpt>
      <trkpt lat="43.66767" lon="1.39939">
        <ele>136</ele>
        <time>2025-02-02T12:18:34Z</time>
      </trkpt>
      <trkpt lat="43.66767" lon="1.39943">
        <ele>136</ele>
        <time>2025-02-02T12:18:35Z</time>
      </trkpt>
      <trkpt lat="43.66766" lon="1.39948">
        <ele>136</ele>
        <time>2025-02-02T12:18:36Z</time>
      </trkpt>
      <trkpt lat="43.66765" lon="1.39949">
        <ele>136</ele>
        <time>2025-02-02T12:18:37Z</time>
      </trkpt>
      <trkpt lat="43.66765" lon="1.39952">
        <ele>136</ele>
        <time>2025-02-02T12:18:38Z</time>
      </trkpt>
      <trkpt lat="43.66765" lon="1.39955">
        <ele>136</ele>
        <time>2025-02-02T12:18:39Z</time>
      </trkpt>
      <trkpt lat="43.66765" lon="1.39955">
        <ele>136</ele>
        <time>2025-02-02T12:18:40Z</time>
      </trkpt>
      <trkpt lat="43.66764" lon="1.39958">
        <ele>136</ele>
        <time>2025-02-02T12:18:41Z</time>
      </trkpt>
      <trkpt lat="43.66764" lon="1.39958">
        <ele>136</ele>
        <time>2025-02-02T12:18:42Z</time>
      </trkpt>
      <trkpt lat="43.66764" lon="1.39958">
        <ele>136</ele>
        <time>2025-02-02T12:18:43Z</time>
      </trkpt>
      <trkpt lat="43.66765" lon="1.39961">
        <ele>136</ele>
        <time>2025-02-02T12:18:44Z</time>
      </trkpt>
      <trkpt lat="43.66765" lon="1.39964">
        <ele>136</ele>
        <time>2025-02-02T12:18:46Z</time>
      </trkpt>
      <trkpt lat="43.66765" lon="1.39964">
        <ele>136</ele>
        <time>2025-02-02T12:18:47Z</time>
      </trkpt>
      <trkpt lat="43.66764" lon="1.39969">
        <ele>136</ele>
        <time>2025-02-02T12:18:48Z</time>
      </trkpt>
      <trkpt lat="43.66763" lon="1.39972">
        <ele>136</ele>
        <time>2025-02-02T12:18:49Z</time>
      </trkpt>
      <trkpt lat="43.66763" lon="1.39975">
        <ele>136</ele>
        <time>2025-02-02T12:18:50Z</time>
      </trkpt>
      <trkpt lat="43.66763" lon="1.39975">
        <ele>136</ele>
        <time>2025-02-02T12:18:51Z</time>
      </trkpt>
      <trkpt lat="43.66762" lon="1.3998">
        <ele>136</ele>
        <time>2025-02-02T12:18:52Z</time>
      </trkpt>
      <trkpt lat="43.66761" lon="1.39983">
        <ele>136</ele>
        <time>2025-02-02T12:18:53Z</time>
      </trkpt>
      <trkpt lat="43.6676" lon="1.39986">
        <ele>136</ele>
        <time>2025-02-02T12:18:54Z</time>
      </trkpt>
      <trkpt lat="43.66759" lon="1.39989">
        <ele>136</ele>
        <time>2025-02-02T12:18:55Z</time>
      </trkpt>
      <trkpt lat="43.66758" lon="1.39991">
        <ele>136</ele>
        <time>2025-02-02T12:18:56Z</time>
      </trkpt>
      <trkpt lat="43.66757" lon="1.39994">
        <ele>136</ele>
        <time>2025-02-02T12:18:57Z</time>
      </trkpt>
      <trkpt lat="43.66756" lon="1.39997">
        <ele>136</ele>
        <time>2025-02-02T12:18:58Z</time>
      </trkpt>
      <trkpt lat="43.66756" lon="1.39999">
        <ele>136</ele>
        <time>2025-02-02T12:18:59Z</time>
      </trkpt>
      <trkpt lat="43.66756" lon="1.40002">
        <ele>136</ele>
        <time>2025-02-02T12:19:00Z</time>
      </trkpt>
      <trkpt lat="43.66755" lon="1.40005">
        <ele>136</ele>
        <time>2025-02-02T12:19:01Z</time>
      </trkpt>
      <trkpt lat="43.66754" lon="1.40008">
        <ele>136</ele>
        <time>2025-02-02T12:19:02Z</time>
      </trkpt>
      <trkpt lat="43.66754" lon="1.40011">
        <ele>136</ele>
        <time>2025-02-02T12:19:03Z</time>
      </trkpt>
      <trkpt lat="43.66753" lon="1.40013">
        <ele>136</ele>
        <time>2025-02-02T12:19:04Z</time>
      </trkpt>
      <trkpt lat="43.66753" lon="1.40016">
        <ele>136</ele>
        <time>2025-02-02T12:19:05Z</time>
      </trkpt>
      <trkpt lat="43.66752" lon="1.40019">
        <ele>136</ele>
        <time>2025-02-02T12:19:06Z</time>
      </trkpt>
      <trkpt lat="43.6675" lon="1.40023">
        <ele>136</ele>
        <time>2025-02-02T12:19:07Z</time>
      </trkpt>
      <trkpt lat="43.66749" lon="1.40025">
        <ele>136</ele>
        <time>2025-02-02T12:19:08Z</time>
      </trkpt>
      <trkpt lat="43.66747" lon="1.40027">
        <ele>136</ele>
        <time>2025-02-02T12:19:09Z</time>
      </trkpt>
      <trkpt lat="43.66745" lon="1.4003">
        <ele>135</ele>
        <time>2025-02-02T12:19:10Z</time>
      </trkpt>
      <trkpt lat="43.66744" lon="1.40033">
        <ele>136</ele>
        <time>2025-02-02T12:19:11Z</time>
      </trkpt>
      <trkpt lat="43.66743" lon="1.40036">
        <ele>136</ele>
        <time>2025-02-02T12:19:12Z</time>
      </trkpt>
      <trkpt lat="43.66742" lon="1.40039">
        <ele>136</ele>
        <time>2025-02-02T12:19:13Z</time>
      </trkpt>
      <trkpt lat="43.66741" lon="1.40043">
        <ele>136</ele>
        <time>2025-02-02T12:19:14Z</time>
      </trkpt>
      <trkpt lat="43.6674" lon="1.40047">
        <ele>136</ele>
        <time>2025-02-02T12:19:15Z</time>
      </trkpt>
      <trkpt lat="43.66739" lon="1.4005">
        <ele>136</ele>
        <time>2025-02-02T12:19:16Z</time>
      </trkpt>
      <trkpt lat="43.66737" lon="1.40053">
        <ele>136</ele>
        <time>2025-02-02T12:19:17Z</time>
      </trkpt>
      <trkpt lat="43.66735" lon="1.40056">
        <ele>136</ele>
        <time>2025-02-02T12:19:18Z</time>
      </trkpt>
      <trkpt lat="43.66734" lon="1.40059">
        <ele>136</ele>
        <time>2025-02-02T12:19:19Z</time>
      </trkpt>
      <trkpt lat="43.66733" lon="1.40062">
        <ele>136</ele>
        <time>2025-02-02T12:19:20Z</time>
      </trkpt>
      <trkpt lat="43.66731" lon="1.40065">
        <ele>136</ele>
        <time>2025-02-02T12:19:21Z</time>
      </trkpt>
      <trkpt lat="43.6673" lon="1.40068">
        <ele>136</ele>
        <time>2025-02-02T12:19:22Z</time>
      </trkpt>
      <trkpt lat="43.66728" lon="1.40073">
        <ele>136</ele>
        <time>2025-02-02T12:19:23Z</time>
      </trkpt>
      <trkpt lat="43.66727" lon="1.40074">
        <ele>136</ele>
        <time>2025-02-02T12:19:24Z</time>
      </trkpt>
      <trkpt lat="43.66726" lon="1.40078">
        <ele>136</ele>
        <time>2025-02-02T12:19:25Z</time>
      </trkpt>
      <trkpt lat="43.66724" lon="1.40081">
        <ele>136</ele>
        <time>2025-02-02T12:19:26Z</time>
      </trkpt>
      <trkpt lat="43.66723" lon="1.40084">
        <ele>136</ele>
        <time>2025-02-02T12:19:27Z</time>
      </trkpt>
      <trkpt lat="43.66721" lon="1.40088">
        <ele>135</ele>
        <time>2025-02-02T12:19:28Z</time>
      </trkpt>
      <trkpt lat="43.66719" lon="1.40091">
        <ele>135</ele>
        <time>2025-02-02T12:19:29Z</time>
      </trkpt>
      <trkpt lat="43.66717" lon="1.40095">
        <ele>135</ele>
        <time>2025-02-02T12:19:30Z</time>
      </trkpt>
      <trkpt lat="43.66716" lon="1.40098">
        <ele>135</ele>
        <time>2025-02-02T12:19:31Z</time>
      </trkpt>
      <trkpt lat="43.66715" lon="1.40102">
        <ele>135</ele>
        <time>2025-02-02T12:19:32Z</time>
      </trkpt>
      <trkpt lat="43.66713" lon="1.40105">
        <ele>135</ele>
        <time>2025-02-02T12:19:33Z</time>
      </trkpt>
      <trkpt lat="43.66713" lon="1.40109">
        <ele>135</ele>
        <time>2025-02-02T12:19:34Z</time>
      </trkpt>
      <trkpt lat="43.66711" lon="1.40112">
        <ele>135</ele>
        <time>2025-02-02T12:19:35Z</time>
      </trkpt>
      <trkpt lat="43.6671" lon="1.40116">
        <ele>135</ele>
        <time>2025-02-02T12:19:36Z</time>
      </trkpt>
      <trkpt lat="43.66708" lon="1.40119">
        <ele>135</ele>
        <time>2025-02-02T12:19:37Z</time>
      </trkpt>
      <trkpt lat="43.66706" lon="1.40122">
        <ele>135</ele>
        <time>2025-02-02T12:19:38Z</time>
      </trkpt>
      <trkpt lat="43.66704" lon="1.40125">
        <ele>135</ele>
        <time>2025-02-02T12:19:39Z</time>
      </trkpt>
      <trkpt lat="43.66701" lon="1.40129">
        <ele>135</ele>
        <time>2025-02-02T12:19:40Z</time>
      </trkpt>
      <trkpt lat="43.667" lon="1.4013">
        <ele>135</ele>
        <time>2025-02-02T12:19:41Z</time>
      </trkpt>
      <trkpt lat="43.66697" lon="1.40134">
        <ele>135</ele>
        <time>2025-02-02T12:19:42Z</time>
      </trkpt>
      <trkpt lat="43.66696" lon="1.40135">
        <ele>135</ele>
        <time>2025-02-02T12:19:43Z</time>
      </trkpt>
      <trkpt lat="43.66694" lon="1.40138">
        <ele>135</ele>
        <time>2025-02-02T12:19:44Z</time>
      </trkpt>
      <trkpt lat="43.66693" lon="1.4014">
        <ele>135</ele>
        <time>2025-02-02T12:19:45Z</time>
      </trkpt>
      <trkpt lat="43.66691" lon="1.40143">
        <ele>135</ele>
        <time>2025-02-02T12:19:46Z</time>
      </trkpt>
      <trkpt lat="43.66689" lon="1.40146">
        <ele>135</ele>
        <time>2025-02-02T12:19:47Z</time>
      </trkpt>
      <trkpt lat="43.66687" lon="1.40149">
        <ele>135</ele>
        <time>2025-02-02T12:19:48Z</time>
      </trkpt>
      <trkpt lat="43.66686" lon="1.40152">
        <ele>134</ele>
        <time>2025-02-02T12:19:49Z</time>
      </trkpt>
      <trkpt lat="43.66684" lon="1.40155">
        <ele>134</ele>
        <time>2025-02-02T12:19:50Z</time>
      </trkpt>
      <trkpt lat="43.66683" lon="1.40158">
        <ele>134</ele>
        <time>2025-02-02T12:19:51Z</time>
      </trkpt>
      <trkpt lat="43.66681" lon="1.40161">
        <ele>135</ele>
        <time>2025-02-02T12:19:52Z</time>
      </trkpt>
      <trkpt lat="43.6668" lon="1.40164">
        <ele>135</ele>
        <time>2025-02-02T12:19:53Z</time>
      </trkpt>
      <trkpt lat="43.66678" lon="1.40168">
        <ele>135</ele>
        <time>2025-02-02T12:19:54Z</time>
      </trkpt>
      <trkpt lat="43.66676" lon="1.40171">
        <ele>135</ele>
        <time>2025-02-02T12:19:55Z</time>
      </trkpt>
      <trkpt lat="43.66675" lon="1.40174">
        <ele>135</ele>
        <time>2025-02-02T12:19:56Z</time>
      </trkpt>
      <trkpt lat="43.66673" lon="1.40177">
        <ele>135</ele>
        <time>2025-02-02T12:19:57Z</time>
      </trkpt>
      <trkpt lat="43.66671" lon="1.40181">
        <ele>135</ele>
        <time>2025-02-02T12:19:58Z</time>
      </trkpt>
      <trkpt lat="43.66671" lon="1.40182">
        <ele>134</ele>
        <time>2025-02-02T12:19:59Z</time>
      </trkpt>
      <trkpt lat="43.66669" lon="1.40185">
        <ele>134</ele>
        <time>2025-02-02T12:20:00Z</time>
      </trkpt>
      <trkpt lat="43.66666" lon="1.40189">
        <ele>134</ele>
        <time>2025-02-02T12:20:01Z</time>
      </trkpt>
      <trkpt lat="43.66666" lon="1.40191">
        <ele>134</ele>
        <time>2025-02-02T12:20:02Z</time>
      </trkpt>
      <trkpt lat="43.66664" lon="1.40193">
        <ele>134</ele>
        <time>2025-02-02T12:20:03Z</time>
      </trkpt>
      <trkpt lat="43.66663" lon="1.40196">
        <ele>134</ele>
        <time>2025-02-02T12:20:04Z</time>
      </trkpt>
      <trkpt lat="43.66661" lon="1.40199">
        <ele>134</ele>
        <time>2025-02-02T12:20:05Z</time>
      </trkpt>
      <trkpt lat="43.6666" lon="1.40201">
        <ele>134</ele>
        <time>2025-02-02T12:20:06Z</time>
      </trkpt>
      <trkpt lat="43.66658" lon="1.40204">
        <ele>134</ele>
        <time>2025-02-02T12:20:07Z</time>
      </trkpt>
      <trkpt lat="43.66657" lon="1.40206">
        <ele>134</ele>
        <time>2025-02-02T12:20:08Z</time>
      </trkpt>
      <trkpt lat="43.66655" lon="1.40209">
        <ele>134</ele>
        <time>2025-02-02T12:20:09Z</time>
      </trkpt>
      <trkpt lat="43.66653" lon="1.40212">
        <ele>134</ele>
        <time>2025-02-02T12:20:10Z</time>
      </trkpt>
      <trkpt lat="43.66651" lon="1.40214">
        <ele>134</ele>
        <time>2025-02-02T12:20:11Z</time>
      </trkpt>
      <trkpt lat="43.6665" lon="1.40216">
        <ele>134</ele>
        <time>2025-02-02T12:20:12Z</time>
      </trkpt>
      <trkpt lat="43.66648" lon="1.40219">
        <ele>134</ele>
        <time>2025-02-02T12:20:13Z</time>
      </trkpt>
      <trkpt lat="43.66648" lon="1.40219">
        <ele>134</ele>
        <time>2025-02-02T12:20:14Z</time>
      </trkpt>
      <trkpt lat="43.66646" lon="1.40223">
        <ele>134</ele>
        <time>2025-02-02T12:20:15Z</time>
      </trkpt>
      <trkpt lat="43.66644" lon="1.40226">
        <ele>134</ele>
        <time>2025-02-02T12:20:16Z</time>
      </trkpt>
      <trkpt lat="43.66643" lon="1.40228">
        <ele>134</ele>
        <time>2025-02-02T12:20:17Z</time>
      </trkpt>
      <trkpt lat="43.66641" lon="1.40231">
        <ele>134</ele>
        <time>2025-02-02T12:20:18Z</time>
      </trkpt>
      <trkpt lat="43.6664" lon="1.40233">
        <ele>134</ele>
        <time>2025-02-02T12:20:19Z</time>
      </trkpt>
      <trkpt lat="43.66638" lon="1.40236">
        <ele>134</ele>
        <time>2025-02-02T12:20:20Z</time>
      </trkpt>
      <trkpt lat="43.66637" lon="1.40239">
        <ele>134</ele>
        <time>2025-02-02T12:20:21Z</time>
      </trkpt>
      <trkpt lat="43.66635" lon="1.40241">
        <ele>134</ele>
        <time>2025-02-02T12:20:22Z</time>
      </trkpt>
      <trkpt lat="43.66634" lon="1.40244">
        <ele>134</ele>
        <time>2025-02-02T12:20:23Z</time>
      </trkpt>
      <trkpt lat="43.66632" lon="1.40247">
        <ele>134</ele>
        <time>2025-02-02T12:20:24Z</time>
      </trkpt>
      <trkpt lat="43.6663" lon="1.4025">
        <ele>134</ele>
        <time>2025-02-02T12:20:25Z</time>
      </trkpt>
      <trkpt lat="43.66629" lon="1.40253">
        <ele>134</ele>
        <time>2025-02-02T12:20:26Z</time>
      </trkpt>
      <trkpt lat="43.66627" lon="1.40255">
        <ele>134</ele>
        <time>2025-02-02T12:20:27Z</time>
      </trkpt>
      <trkpt lat="43.66626" lon="1.40258">
        <ele>134</ele>
        <time>2025-02-02T12:20:28Z</time>
      </trkpt>
      <trkpt lat="43.66624" lon="1.4026">
        <ele>135</ele>
        <time>2025-02-02T12:20:29Z</time>
      </trkpt>
      <trkpt lat="43.66622" lon="1.40263">
        <ele>135</ele>
        <time>2025-02-02T12:20:30Z</time>
      </trkpt>
      <trkpt lat="43.66621" lon="1.40266">
        <ele>134</ele>
        <time>2025-02-02T12:20:31Z</time>
      </trkpt>
      <trkpt lat="43.66618" lon="1.40268">
        <ele>134</ele>
        <time>2025-02-02T12:20:32Z</time>
      </trkpt>
      <trkpt lat="43.66617" lon="1.4027">
        <ele>134</ele>
        <time>2025-02-02T12:20:33Z</time>
      </trkpt>
      <trkpt lat="43.66615" lon="1.40272">
        <ele>134</ele>
        <time>2025-02-02T12:20:34Z</time>
      </trkpt>
      <trkpt lat="43.66613" lon="1.40274">
        <ele>134</ele>
        <time>2025-02-02T12:20:35Z</time>
      </trkpt>
      <trkpt lat="43.66611" lon="1.40276">
        <ele>134</ele>
        <time>2025-02-02T12:20:36Z</time>
      </trkpt>
      <trkpt lat="43.6661" lon="1.40279">
        <ele>134</ele>
        <time>2025-02-02T12:20:37Z</time>
      </trkpt>
      <trkpt lat="43.66608" lon="1.40282">
        <ele>134</ele>
        <time>2025-02-02T12:20:38Z</time>
      </trkpt>
      <trkpt lat="43.66606" lon="1.40286">
        <ele>134</ele>
        <time>2025-02-02T12:20:39Z</time>
      </trkpt>
      <trkpt lat="43.66605" lon="1.40287">
        <ele>134</ele>
        <time>2025-02-02T12:20:40Z</time>
      </trkpt>
      <trkpt lat="43.66603" lon="1.4029">
        <ele>134</ele>
        <time>2025-02-02T12:20:41Z</time>
      </trkpt>
      <trkpt lat="43.66601" lon="1.40293">
        <ele>134</ele>
        <time>2025-02-02T12:20:42Z</time>
      </trkpt>
      <trkpt lat="43.66599" lon="1.40295">
        <ele>134</ele>
        <time>2025-02-02T12:20:43Z</time>
      </trkpt>
      <trkpt lat="43.66597" lon="1.40298">
        <ele>134</ele>
        <time>2025-02-02T12:20:44Z</time>
      </trkpt>
      <trkpt lat="43.66597" lon="1.40298">
        <ele>134</ele>
        <time>2025-02-02T12:20:45Z</time>
      </trkpt>
      <trkpt lat="43.66595" lon="1.403">
        <ele>134</ele>
        <time>2025-02-02T12:20:46Z</time>
      </trkpt>
      <trkpt lat="43.66593" lon="1.40302">
        <ele>134</ele>
        <time>2025-02-02T12:20:47Z</time>
      </trkpt>
      <trkpt lat="43.66591" lon="1.40304">
        <ele>134</ele>
        <time>2025-02-02T12:20:48Z</time>
      </trkpt>
      <trkpt lat="43.66589" lon="1.40306">
        <ele>134</ele>
        <time>2025-02-02T12:20:49Z</time>
      </trkpt>
      <trkpt lat="43.66587" lon="1.40308">
        <ele>134</ele>
        <time>2025-02-02T12:20:50Z</time>
      </trkpt>
      <trkpt lat="43.66585" lon="1.40309">
        <ele>135</ele>
        <time>2025-02-02T12:20:51Z</time>
      </trkpt>
      <trkpt lat="43.66584" lon="1.40311">
        <ele>135</ele>
        <time>2025-02-02T12:20:52Z</time>
      </trkpt>
      <trkpt lat="43.66582" lon="1.40313">
        <ele>135</ele>
        <time>2025-02-02T12:20:53Z</time>
      </trkpt>
      <trkpt lat="43.66581" lon="1.40315">
        <ele>135</ele>
        <time>2025-02-02T12:20:54Z</time>
      </trkpt>
      <trkpt lat="43.66579" lon="1.40317">
        <ele>135</ele>
        <time>2025-02-02T12:20:55Z</time>
      </trkpt>
      <trkpt lat="43.66578" lon="1.40318">
        <ele>135</ele>
        <time>2025-02-02T12:20:56Z</time>
      </trkpt>
      <trkpt lat="43.66576" lon="1.4032">
        <ele>135</ele>
        <time>2025-02-02T12:20:57Z</time>
      </trkpt>
      <trkpt lat="43.66574" lon="1.40323">
        <ele>135</ele>
        <time>2025-02-02T12:20:58Z</time>
      </trkpt>
      <trkpt lat="43.66573" lon="1.40324">
        <ele>135</ele>
        <time>2025-02-02T12:20:59Z</time>
      </trkpt>
      <trkpt lat="43.66571" lon="1.40326">
        <ele>135</ele>
        <time>2025-02-02T12:21:00Z</time>
      </trkpt>
      <trkpt lat="43.66569" lon="1.40328">
        <ele>135</ele>
        <time>2025-02-02T12:21:01Z</time>
      </trkpt>
      <trkpt lat="43.66568" lon="1.40331">
        <ele>135</ele>
        <time>2025-02-02T12:21:02Z</time>
      </trkpt>
      <trkpt lat="43.66566" lon="1.40333">
        <ele>135</ele>
        <time>2025-02-02T12:21:03Z</time>
      </trkpt>
      <trkpt lat="43.66564" lon="1.40336">
        <ele>136</ele>
        <time>2025-02-02T12:21:04Z</time>
      </trkpt>
      <trkpt lat="43.66562" lon="1.40338">
        <ele>136</ele>
        <time>2025-02-02T12:21:05Z</time>
      </trkpt>
      <trkpt lat="43.6656" lon="1.40341">
        <ele>136</ele>
        <time>2025-02-02T12:21:06Z</time>
      </trkpt>
      <trkpt lat="43.66558" lon="1.40344">
        <ele>136</ele>
        <time>2025-02-02T12:21:07Z</time>
      </trkpt>
      <trkpt lat="43.66557" lon="1.40346">
        <ele>136</ele>
        <time>2025-02-02T12:21:08Z</time>
      </trkpt>
      <trkpt lat="43.66555" lon="1.40348">
        <ele>136</ele>
        <time>2025-02-02T12:21:09Z</time>
      </trkpt>
      <trkpt lat="43.66553" lon="1.4035">
        <ele>136</ele>
        <time>2025-02-02T12:21:10Z</time>
      </trkpt>
      <trkpt lat="43.66551" lon="1.40353">
        <ele>136</ele>
        <time>2025-02-02T12:21:11Z</time>
      </trkpt>
      <trkpt lat="43.66549" lon="1.40355">
        <ele>136</ele>
        <time>2025-02-02T12:21:12Z</time>
      </trkpt>
      <trkpt lat="43.66547" lon="1.40356">
        <ele>136</ele>
        <time>2025-02-02T12:21:13Z</time>
      </trkpt>
      <trkpt lat="43.66546" lon="1.40358">
        <ele>135</ele>
        <time>2025-02-02T12:21:14Z</time>
      </trkpt>
      <trkpt lat="43.66544" lon="1.4036">
        <ele>135</ele>
        <time>2025-02-02T12:21:15Z</time>
      </trkpt>
      <trkpt lat="43.66543" lon="1.40362">
        <ele>135</ele>
        <time>2025-02-02T12:21:16Z</time>
      </trkpt>
      <trkpt lat="43.66541" lon="1.40364">
        <ele>135</ele>
        <time>2025-02-02T12:21:17Z</time>
      </trkpt>
      <trkpt lat="43.66541" lon="1.40364">
        <ele>136</ele>
        <time>2025-02-02T12:21:18Z</time>
      </trkpt>
      <trkpt lat="43.6654" lon="1.40365">
        <ele>136</ele>
        <time>2025-02-02T12:21:19Z</time>
      </trkpt>
      <trkpt lat="43.66538" lon="1.40367">
        <ele>136</ele>
        <time>2025-02-02T12:21:20Z</time>
      </trkpt>
      <trkpt lat="43.66537" lon="1.40369">
        <ele>136</ele>
        <time>2025-02-02T12:21:21Z</time>
      </trkpt>
      <trkpt lat="43.66531" lon="1.40376">
        <ele>136</ele>
        <time>2025-02-02T12:21:22Z</time>
      </trkpt>
      <trkpt lat="43.66529" lon="1.40378">
        <ele>135</ele>
        <time>2025-02-02T12:21:23Z</time>
      </trkpt>
      <trkpt lat="43.66527" lon="1.4038">
        <ele>135</ele>
        <time>2025-02-02T12:21:24Z</time>
      </trkpt>
      <trkpt lat="43.66525" lon="1.40382">
        <ele>135</ele>
        <time>2025-02-02T12:21:25Z</time>
      </trkpt>
      <trkpt lat="43.66524" lon="1.40383">
        <ele>135</ele>
        <time>2025-02-02T12:21:26Z</time>
      </trkpt>
      <trkpt lat="43.66523" lon="1.40385">
        <ele>135</ele>
        <time>2025-02-02T12:21:27Z</time>
      </trkpt>
      <trkpt lat="43.66521" lon="1.40386">
        <ele>135</ele>
        <time>2025-02-02T12:21:28Z</time>
      </trkpt>
      <trkpt lat="43.66515" lon="1.40394">
        <ele>136</ele>
        <time>2025-02-02T12:21:29Z</time>
      </trkpt>
      <trkpt lat="43.66513" lon="1.40396">
        <ele>136</ele>
        <time>2025-02-02T12:21:30Z</time>
      </trkpt>
      <trkpt lat="43.6651" lon="1.40399">
        <ele>136</ele>
        <time>2025-02-02T12:21:31Z</time>
      </trkpt>
      <trkpt lat="43.66507" lon="1.40401">
        <ele>136</ele>
        <time>2025-02-02T12:21:32Z</time>
      </trkpt>
      <trkpt lat="43.66504" lon="1.40404">
        <ele>136</ele>
        <time>2025-02-02T12:21:33Z</time>
      </trkpt>
      <trkpt lat="43.66503" lon="1.40405">
        <ele>136</ele>
        <time>2025-02-02T12:21:34Z</time>
      </trkpt>
      <trkpt lat="43.66501" lon="1.40407">
        <ele>136</ele>
        <time>2025-02-02T12:21:35Z</time>
      </trkpt>
      <trkpt lat="43.66497" lon="1.40409">
        <ele>136</ele>
        <time>2025-02-02T12:21:36Z</time>
      </trkpt>
      <trkpt lat="43.66496" lon="1.4041">
        <ele>136</ele>
        <time>2025-02-02T12:21:37Z</time>
      </trkpt>
      <trkpt lat="43.66494" lon="1.40412">
        <ele>136</ele>
        <time>2025-02-02T12:21:38Z</time>
      </trkpt>
      <trkpt lat="43.66492" lon="1.40414">
        <ele>136</ele>
        <time>2025-02-02T12:21:39Z</time>
      </trkpt>
      <trkpt lat="43.66489" lon="1.40417">
        <ele>136</ele>
        <time>2025-02-02T12:21:40Z</time>
      </trkpt>
      <trkpt lat="43.66488" lon="1.40418">
        <ele>136</ele>
        <time>2025-02-02T12:21:41Z</time>
      </trkpt>
      <trkpt lat="43.66486" lon="1.40419">
        <ele>136</ele>
        <time>2025-02-02T12:21:42Z</time>
      </trkpt>
      <trkpt lat="43.66484" lon="1.40421">
        <ele>136</ele>
        <time>2025-02-02T12:21:43Z</time>
      </trkpt>
      <trkpt lat="43.66482" lon="1.40422">
        <ele>136</ele>
        <time>2025-02-02T12:21:44Z</time>
      </trkpt>
      <trkpt lat="43.6648" lon="1.40424">
        <ele>136</ele>
        <time>2025-02-02T12:21:45Z</time>
      </trkpt>
      <trkpt lat="43.66478" lon="1.40426">
        <ele>136</ele>
        <time>2025-02-02T12:21:46Z</time>
      </trkpt>
      <trkpt lat="43.66475" lon="1.40428">
        <ele>136</ele>
        <time>2025-02-02T12:21:47Z</time>
      </trkpt>
      <trkpt lat="43.66473" lon="1.4043">
        <ele>136</ele>
        <time>2025-02-02T12:21:48Z</time>
      </trkpt>
      <trkpt lat="43.66471" lon="1.40432">
        <ele>136</ele>
        <time>2025-02-02T12:21:49Z</time>
      </trkpt>
      <trkpt lat="43.66468" lon="1.40434">
        <ele>136</ele>
        <time>2025-02-02T12:21:50Z</time>
      </trkpt>
      <trkpt lat="43.66466" lon="1.40436">
        <ele>136</ele>
        <time>2025-02-02T12:21:51Z</time>
      </trkpt>
      <trkpt lat="43.66463" lon="1.40437">
        <ele>136</ele>
        <time>2025-02-02T12:21:52Z</time>
      </trkpt>
      <trkpt lat="43.66461" lon="1.40439">
        <ele>137</ele>
        <time>2025-02-02T12:21:53Z</time>
      </trkpt>
      <trkpt lat="43.66459" lon="1.40441">
        <ele>137</ele>
        <time>2025-02-02T12:21:54Z</time>
      </trkpt>
      <trkpt lat="43.66455" lon="1.40444">
        <ele>137</ele>
        <time>2025-02-02T12:21:55Z</time>
      </trkpt>
      <trkpt lat="43.66454" lon="1.40445">
        <ele>137</ele>
        <time>2025-02-02T12:21:56Z</time>
      </trkpt>
      <trkpt lat="43.66452" lon="1.40447">
        <ele>137</ele>
        <time>2025-02-02T12:21:57Z</time>
      </trkpt>
      <trkpt lat="43.6645" lon="1.40449">
        <ele>137</ele>
        <time>2025-02-02T12:21:58Z</time>
      </trkpt>
      <trkpt lat="43.66447" lon="1.40452">
        <ele>137</ele>
        <time>2025-02-02T12:21:59Z</time>
      </trkpt>
      <trkpt lat="43.66446" lon="1.40453">
        <ele>136</ele>
        <time>2025-02-02T12:22:00Z</time>
      </trkpt>
      <trkpt lat="43.66443" lon="1.40455">
        <ele>136</ele>
        <time>2025-02-02T12:22:01Z</time>
      </trkpt>
      <trkpt lat="43.66441" lon="1.40458">
        <ele>136</ele>
        <time>2025-02-02T12:22:02Z</time>
      </trkpt>
      <trkpt lat="43.66438" lon="1.40461">
        <ele>136</ele>
        <time>2025-02-02T12:22:03Z</time>
      </trkpt>
      <trkpt lat="43.66436" lon="1.40463">
        <ele>136</ele>
        <time>2025-02-02T12:22:04Z</time>
      </trkpt>
      <trkpt lat="43.66434" lon="1.40466">
        <ele>136</ele>
        <time>2025-02-02T12:22:05Z</time>
      </trkpt>
      <trkpt lat="43.66431" lon="1.40468">
        <ele>136</ele>
        <time>2025-02-02T12:22:06Z</time>
      </trkpt>
      <trkpt lat="43.66429" lon="1.40471">
        <ele>136</ele>
        <time>2025-02-02T12:22:07Z</time>
      </trkpt>
      <trkpt lat="43.66427" lon="1.40473">
        <ele>136</ele>
        <time>2025-02-02T12:22:08Z</time>
      </trkpt>
      <trkpt lat="43.66424" lon="1.40475">
        <ele>136</ele>
        <time>2025-02-02T12:22:09Z</time>
      </trkpt>
      <trkpt lat="43.66423" lon="1.40477">
        <ele>136</ele>
        <time>2025-02-02T12:22:10Z</time>
      </trkpt>
      <trkpt lat="43.6642" lon="1.40479">
        <ele>136</ele>
        <time>2025-02-02T12:22:11Z</time>
      </trkpt>
      <trkpt lat="43.66418" lon="1.40481">
        <ele>136</ele>
        <time>2025-02-02T12:22:12Z</time>
      </trkpt>
      <trkpt lat="43.66416" lon="1.40483">
        <ele>137</ele>
        <time>2025-02-02T12:22:13Z</time>
      </trkpt>
      <trkpt lat="43.66413" lon="1.40485">
        <ele>137</ele>
        <time>2025-02-02T12:22:14Z</time>
      </trkpt>
      <trkpt lat="43.66412" lon="1.40486">
        <ele>137</ele>
        <time>2025-02-02T12:22:15Z</time>
      </trkpt>
      <trkpt lat="43.6641" lon="1.40487">
        <ele>137</ele>
        <time>2025-02-02T12:22:16Z</time>
      </trkpt>
      <trkpt lat="43.66408" lon="1.40489">
        <ele>137</ele>
        <time>2025-02-02T12:22:17Z</time>
      </trkpt>
      <trkpt lat="43.66407" lon="1.4049">
        <ele>137</ele>
        <time>2025-02-02T12:22:18Z</time>
      </trkpt>
      <trkpt lat="43.66405" lon="1.40492">
        <ele>136</ele>
        <time>2025-02-02T12:22:19Z</time>
      </trkpt>
      <trkpt lat="43.66403" lon="1.40494">
        <ele>136</ele>
        <time>2025-02-02T12:22:20Z</time>
      </trkpt>
      <trkpt lat="43.66402" lon="1.40496">
        <ele>136</ele>
        <time>2025-02-02T12:22:21Z</time>
      </trkpt>
      <trkpt lat="43.664" lon="1.40498">
        <ele>136</ele>
        <time>2025-02-02T12:22:22Z</time>
      </trkpt>
      <trkpt lat="43.66398" lon="1.405">
        <ele>136</ele>
        <time>2025-02-02T12:22:23Z</time>
      </trkpt>
      <trkpt lat="43.66397" lon="1.40502">
        <ele>137</ele>
        <time>2025-02-02T12:22:24Z</time>
      </trkpt>
      <trkpt lat="43.66395" lon="1.40505">
        <ele>137</ele>
        <time>2025-02-02T12:22:25Z</time>
      </trkpt>
      <trkpt lat="43.66393" lon="1.40507">
        <ele>137</ele>
        <time>2025-02-02T12:22:26Z</time>
      </trkpt>
      <trkpt lat="43.6639" lon="1.40509">
        <ele>137</ele>
        <time>2025-02-02T12:22:27Z</time>
      </trkpt>
      <trkpt lat="43.66388" lon="1.40511">
        <ele>137</ele>
        <time>2025-02-02T12:22:28Z</time>
      </trkpt>
      <trkpt lat="43.66385" lon="1.40513">
        <ele>137</ele>
        <time>2025-02-02T12:22:29Z</time>
      </trkpt>
      <trkpt lat="43.66383" lon="1.40514">
        <ele>137</ele>
        <time>2025-02-02T12:22:30Z</time>
      </trkpt>
      <trkpt lat="43.66381" lon="1.40515">
        <ele>137</ele>
        <time>2025-02-02T12:22:31Z</time>
      </trkpt>
      <trkpt lat="43.66379" lon="1.40517">
        <ele>137</ele>
        <time>2025-02-02T12:22:32Z</time>
      </trkpt>
      <trkpt lat="43.66377" lon="1.40518">
        <ele>137</ele>
        <time>2025-02-02T12:22:33Z</time>
      </trkpt>
      <trkpt lat="43.66377" lon="1.40518">
        <ele>136</ele>
        <time>2025-02-02T12:22:34Z</time>
      </trkpt>
      <trkpt lat="43.66374" lon="1.40519">
        <ele>136</ele>
        <time>2025-02-02T12:22:35Z</time>
      </trkpt>
      <trkpt lat="43.66374" lon="1.40519">
        <ele>137</ele>
        <time>2025-02-02T12:22:36Z</time>
      </trkpt>
      <trkpt lat="43.66371" lon="1.40521">
        <ele>137</ele>
        <time>2025-02-02T12:22:37Z</time>
      </trkpt>
      <trkpt lat="43.66368" lon="1.40522">
        <ele>137</ele>
        <time>2025-02-02T12:22:38Z</time>
      </trkpt>
      <trkpt lat="43.66366" lon="1.40523">
        <ele>137</ele>
        <time>2025-02-02T12:22:39Z</time>
      </trkpt>
      <trkpt lat="43.66362" lon="1.40526">
        <ele>137</ele>
        <time>2025-02-02T12:22:40Z</time>
      </trkpt>
      <trkpt lat="43.66361" lon="1.40528">
        <ele>137</ele>
        <time>2025-02-02T12:22:41Z</time>
      </trkpt>
      <trkpt lat="43.66358" lon="1.4053">
        <ele>137</ele>
        <time>2025-02-02T12:22:42Z</time>
      </trkpt>
      <trkpt lat="43.66356" lon="1.40531">
        <ele>137</ele>
        <time>2025-02-02T12:22:43Z</time>
      </trkpt>
      <trkpt lat="43.66354" lon="1.40534">
        <ele>137</ele>
        <time>2025-02-02T12:22:44Z</time>
      </trkpt>
      <trkpt lat="43.66352" lon="1.40536">
        <ele>137</ele>
        <time>2025-02-02T12:22:45Z</time>
      </trkpt>
      <trkpt lat="43.6635" lon="1.40539">
        <ele>137</ele>
        <time>2025-02-02T12:22:46Z</time>
      </trkpt>
      <trkpt lat="43.66349" lon="1.40542">
        <ele>137</ele>
        <time>2025-02-02T12:22:47Z</time>
      </trkpt>
      <trkpt lat="43.66346" lon="1.40544">
        <ele>137</ele>
        <time>2025-02-02T12:22:48Z</time>
      </trkpt>
      <trkpt lat="43.66344" lon="1.40546">
        <ele>137</ele>
        <time>2025-02-02T12:22:49Z</time>
      </trkpt>
      <trkpt lat="43.66341" lon="1.40549">
        <ele>137</ele>
        <time>2025-02-02T12:22:50Z</time>
      </trkpt>
      <trkpt lat="43.66339" lon="1.40552">
        <ele>137</ele>
        <time>2025-02-02T12:22:51Z</time>
      </trkpt>
      <trkpt lat="43.66336" lon="1.40555">
        <ele>137</ele>
        <time>2025-02-02T12:22:52Z</time>
      </trkpt>
      <trkpt lat="43.66335" lon="1.40556">
        <ele>137</ele>
        <time>2025-02-02T12:22:53Z</time>
      </trkpt>
      <trkpt lat="43.66332" lon="1.40559">
        <ele>137</ele>
        <time>2025-02-02T12:22:54Z</time>
      </trkpt>
      <trkpt lat="43.6633" lon="1.40562">
        <ele>138</ele>
        <time>2025-02-02T12:22:55Z</time>
      </trkpt>
      <trkpt lat="43.66328" lon="1.40565">
        <ele>138</ele>
        <time>2025-02-02T12:22:56Z</time>
      </trkpt>
      <trkpt lat="43.66325" lon="1.40568">
        <ele>138</ele>
        <time>2025-02-02T12:22:57Z</time>
      </trkpt>
      <trkpt lat="43.66324" lon="1.4057">
        <ele>138</ele>
        <time>2025-02-02T12:22:58Z</time>
      </trkpt>
      <trkpt lat="43.66322" lon="1.40572">
        <ele>138</ele>
        <time>2025-02-02T12:22:59Z</time>
      </trkpt>
      <trkpt lat="43.6632" lon="1.40574">
        <ele>138</ele>
        <time>2025-02-02T12:23:00Z</time>
      </trkpt>
      <trkpt lat="43.66319" lon="1.40575">
        <ele>138</ele>
        <time>2025-02-02T12:23:01Z</time>
      </trkpt>
      <trkpt lat="43.66317" lon="1.40577">
        <ele>138</ele>
        <time>2025-02-02T12:23:02Z</time>
      </trkpt>
      <trkpt lat="43.66315" lon="1.40578">
        <ele>138</ele>
        <time>2025-02-02T12:23:03Z</time>
      </trkpt>
      <trkpt lat="43.66315" lon="1.40578">
        <ele>138</ele>
        <time>2025-02-02T12:23:04Z</time>
      </trkpt>
      <trkpt lat="43.66312" lon="1.4058">
        <ele>138</ele>
        <time>2025-02-02T12:23:05Z</time>
      </trkpt>
      <trkpt lat="43.6631" lon="1.40582">
        <ele>138</ele>
        <time>2025-02-02T12:23:06Z</time>
      </trkpt>
      <trkpt lat="43.66308" lon="1.40583">
        <ele>138</ele>
        <time>2025-02-02T12:23:07Z</time>
      </trkpt>
      <trkpt lat="43.66306" lon="1.40584">
        <ele>138</ele>
        <time>2025-02-02T12:23:08Z</time>
      </trkpt>
      <trkpt lat="43.66304" lon="1.40586">
        <ele>138</ele>
        <time>2025-02-02T12:23:09Z</time>
      </trkpt>
      <trkpt lat="43.66302" lon="1.40587">
        <ele>138</ele>
        <time>2025-02-02T12:23:10Z</time>
      </trkpt>
      <trkpt lat="43.66299" lon="1.4059">
        <ele>138</ele>
        <time>2025-02-02T12:23:11Z</time>
      </trkpt>
      <trkpt lat="43.66298" lon="1.40591">
        <ele>138</ele>
        <time>2025-02-02T12:23:12Z</time>
      </trkpt>
      <trkpt lat="43.66296" lon="1.40593">
        <ele>138</ele>
        <time>2025-02-02T12:23:13Z</time>
      </trkpt>
      <trkpt lat="43.66294" lon="1.40594">
        <ele>138</ele>
        <time>2025-02-02T12:23:14Z</time>
      </trkpt>
      <trkpt lat="43.66294" lon="1.40594">
        <ele>138</ele>
        <time>2025-02-02T12:23:15Z</time>
      </trkpt>
      <trkpt lat="43.6629" lon="1.40598">
        <ele>138</ele>
        <time>2025-02-02T12:23:16Z</time>
      </trkpt>
      <trkpt lat="43.66288" lon="1.406">
        <ele>138</ele>
        <time>2025-02-02T12:23:17Z</time>
      </trkpt>
      <trkpt lat="43.66285" lon="1.40602">
        <ele>138</ele>
        <time>2025-02-02T12:23:18Z</time>
      </trkpt>
      <trkpt lat="43.66282" lon="1.40606">
        <ele>138</ele>
        <time>2025-02-02T12:23:19Z</time>
      </trkpt>
      <trkpt lat="43.6628" lon="1.40607">
        <ele>137</ele>
        <time>2025-02-02T12:23:20Z</time>
      </trkpt>
      <trkpt lat="43.66278" lon="1.40609">
        <ele>137</ele>
        <time>2025-02-02T12:23:21Z</time>
      </trkpt>
      <trkpt lat="43.66277" lon="1.40611">
        <ele>137</ele>
        <time>2025-02-02T12:23:22Z</time>
      </trkpt>
      <trkpt lat="43.66275" lon="1.40613">
        <ele>137</ele>
        <time>2025-02-02T12:23:23Z</time>
      </trkpt>
      <trkpt lat="43.66273" lon="1.40614">
        <ele>138</ele>
        <time>2025-02-02T12:23:24Z</time>
      </trkpt>
      <trkpt lat="43.66271" lon="1.40616">
        <ele>138</ele>
        <time>2025-02-02T12:23:25Z</time>
      </trkpt>
      <trkpt lat="43.66269" lon="1.40618">
        <ele>138</ele>
        <time>2025-02-02T12:23:26Z</time>
      </trkpt>
      <trkpt lat="43.66267" lon="1.4062">
        <ele>138</ele>
        <time>2025-02-02T12:23:27Z</time>
      </trkpt>
      <trkpt lat="43.66262" lon="1.40623">
        <ele>138</ele>
        <time>2025-02-02T12:23:28Z</time>
      </trkpt>
      <trkpt lat="43.66262" lon="1.40623">
        <ele>138</ele>
        <time>2025-02-02T12:23:29Z</time>
      </trkpt>
      <trkpt lat="43.66258" lon="1.40626">
        <ele>138</ele>
        <time>2025-02-02T12:23:30Z</time>
      </trkpt>
      <trkpt lat="43.66257" lon="1.40627">
        <ele>138</ele>
        <time>2025-02-02T12:23:31Z</time>
      </trkpt>
      <trkpt lat="43.66254" lon="1.40629">
        <ele>138</ele>
        <time>2025-02-02T12:23:32Z</time>
      </trkpt>
      <trkpt lat="43.66251" lon="1.4063">
        <ele>138</ele>
        <time>2025-02-02T12:23:33Z</time>
      </trkpt>
      <trkpt lat="43.66248" lon="1.40632">
        <ele>138</ele>
        <time>2025-02-02T12:23:34Z</time>
      </trkpt>
      <trkpt lat="43.66245" lon="1.40633">
        <ele>138</ele>
        <time>2025-02-02T12:23:35Z</time>
      </trkpt>
      <trkpt lat="43.66242" lon="1.40635">
        <ele>138</ele>
        <time>2025-02-02T12:23:36Z</time>
      </trkpt>
      <trkpt lat="43.66239" lon="1.40637">
        <ele>138</ele>
        <time>2025-02-02T12:23:37Z</time>
      </trkpt>
      <trkpt lat="43.66237" lon="1.40638">
        <ele>138</ele>
        <time>2025-02-02T12:23:38Z</time>
      </trkpt>
      <trkpt lat="43.66235" lon="1.40639">
        <ele>138</ele>
        <time>2025-02-02T12:23:39Z</time>
      </trkpt>
      <trkpt lat="43.66233" lon="1.40641">
        <ele>138</ele>
        <time>2025-02-02T12:23:40Z</time>
      </trkpt>
      <trkpt lat="43.6623" lon="1.40642">
        <ele>137</ele>
        <time>2025-02-02T12:23:41Z</time>
      </trkpt>
      <trkpt lat="43.66228" lon="1.40643">
        <ele>137</ele>
        <time>2025-02-02T12:23:42Z</time>
      </trkpt>
      <trkpt lat="43.66225" lon="1.40644">
        <ele>137</ele>
        <time>2025-02-02T12:23:43Z</time>
      </trkpt>
      <trkpt lat="43.66225" lon="1.40644">
        <ele>137</ele>
        <time>2025-02-02T12:23:44Z</time>
      </trkpt>
      <trkpt lat="43.66222" lon="1.40646">
        <ele>137</ele>
        <time>2025-02-02T12:23:45Z</time>
      </trkpt>
      <trkpt lat="43.6622" lon="1.40647">
        <ele>137</ele>
        <time>2025-02-02T12:23:46Z</time>
      </trkpt>
      <trkpt lat="43.66218" lon="1.40648">
        <ele>137</ele>
        <time>2025-02-02T12:23:47Z</time>
      </trkpt>
      <trkpt lat="43.66216" lon="1.40648">
        <ele>137</ele>
        <time>2025-02-02T12:23:48Z</time>
      </trkpt>
      <trkpt lat="43.66212" lon="1.4065">
        <ele>137</ele>
        <time>2025-02-02T12:23:49Z</time>
      </trkpt>
      <trkpt lat="43.66211" lon="1.4065">
        <ele>137</ele>
        <time>2025-02-02T12:23:50Z</time>
      </trkpt>
      <trkpt lat="43.66208" lon="1.40651">
        <ele>137</ele>
        <time>2025-02-02T12:23:51Z</time>
      </trkpt>
      <trkpt lat="43.66205" lon="1.40653">
        <ele>137</ele>
        <time>2025-02-02T12:23:52Z</time>
      </trkpt>
      <trkpt lat="43.66203" lon="1.40654">
        <ele>137</ele>
        <time>2025-02-02T12:23:53Z</time>
      </trkpt>
      <trkpt lat="43.662" lon="1.40656">
        <ele>137</ele>
        <time>2025-02-02T12:23:54Z</time>
      </trkpt>
      <trkpt lat="43.66198" lon="1.40658">
        <ele>137</ele>
        <time>2025-02-02T12:23:55Z</time>
      </trkpt>
      <trkpt lat="43.66195" lon="1.40659">
        <ele>137</ele>
        <time>2025-02-02T12:23:56Z</time>
      </trkpt>
      <trkpt lat="43.66192" lon="1.40661">
        <ele>137</ele>
        <time>2025-02-02T12:23:57Z</time>
      </trkpt>
      <trkpt lat="43.66191" lon="1.40661">
        <ele>137</ele>
        <time>2025-02-02T12:23:58Z</time>
      </trkpt>
      <trkpt lat="43.66188" lon="1.40662">
        <ele>137</ele>
        <time>2025-02-02T12:23:59Z</time>
      </trkpt>
      <trkpt lat="43.66186" lon="1.40663">
        <ele>137</ele>
        <time>2025-02-02T12:24:00Z</time>
      </trkpt>
      <trkpt lat="43.66184" lon="1.40664">
        <ele>137</ele>
        <time>2025-02-02T12:24:01Z</time>
      </trkpt>
      <trkpt lat="43.66181" lon="1.40665">
        <ele>137</ele>
        <time>2025-02-02T12:24:02Z</time>
      </trkpt>
      <trkpt lat="43.6618" lon="1.40666">
        <ele>137</ele>
        <time>2025-02-02T12:24:03Z</time>
      </trkpt>
      <trkpt lat="43.66178" lon="1.40666">
        <ele>137</ele>
        <time>2025-02-02T12:24:04Z</time>
      </trkpt>
      <trkpt lat="43.66175" lon="1.40667">
        <ele>137</ele>
        <time>2025-02-02T12:24:05Z</time>
      </trkpt>
      <trkpt lat="43.66172" lon="1.40669">
        <ele>137</ele>
        <time>2025-02-02T12:24:06Z</time>
      </trkpt>
      <trkpt lat="43.66169" lon="1.4067">
        <ele>137</ele>
        <time>2025-02-02T12:24:07Z</time>
      </trkpt>
      <trkpt lat="43.66164" lon="1.40673">
        <ele>137</ele>
        <time>2025-02-02T12:24:08Z</time>
      </trkpt>
      <trkpt lat="43.66162" lon="1.40673">
        <ele>137</ele>
        <time>2025-02-02T12:24:09Z</time>
      </trkpt>
      <trkpt lat="43.66159" lon="1.40675">
        <ele>137</ele>
        <time>2025-02-02T12:24:10Z</time>
      </trkpt>
      <trkpt lat="43.66157" lon="1.40676">
        <ele>137</ele>
        <time>2025-02-02T12:24:11Z</time>
      </trkpt>
      <trkpt lat="43.66154" lon="1.40677">
        <ele>137</ele>
        <time>2025-02-02T12:24:12Z</time>
      </trkpt>
      <trkpt lat="43.66151" lon="1.40678">
        <ele>137</ele>
        <time>2025-02-02T12:24:13Z</time>
      </trkpt>
      <trkpt lat="43.66148" lon="1.4068">
        <ele>137</ele>
        <time>2025-02-02T12:24:14Z</time>
      </trkpt>
      <trkpt lat="43.66144" lon="1.40682">
        <ele>137</ele>
        <time>2025-02-02T12:24:15Z</time>
      </trkpt>
      <trkpt lat="43.66143" lon="1.40682">
        <ele>137</ele>
        <time>2025-02-02T12:24:16Z</time>
      </trkpt>
      <trkpt lat="43.6614" lon="1.40683">
        <ele>137</ele>
        <time>2025-02-02T12:24:17Z</time>
      </trkpt>
      <trkpt lat="43.66137" lon="1.40684">
        <ele>137</ele>
        <time>2025-02-02T12:24:18Z</time>
      </trkpt>
      <trkpt lat="43.66134" lon="1.40685">
        <ele>136</ele>
        <time>2025-02-02T12:24:19Z</time>
      </trkpt>
      <trkpt lat="43.66131" lon="1.40686">
        <ele>137</ele>
        <time>2025-02-02T12:24:20Z</time>
      </trkpt>
      <trkpt lat="43.66128" lon="1.40686">
        <ele>137</ele>
        <time>2025-02-02T12:24:21Z</time>
      </trkpt>
      <trkpt lat="43.66125" lon="1.40686">
        <ele>138</ele>
        <time>2025-02-02T12:24:22Z</time>
      </trkpt>
      <trkpt lat="43.66123" lon="1.40686">
        <ele>138</ele>
        <time>2025-02-02T12:24:23Z</time>
      </trkpt>
      <trkpt lat="43.66119" lon="1.40687">
        <ele>138</ele>
        <time>2025-02-02T12:24:24Z</time>
      </trkpt>
      <trkpt lat="43.66116" lon="1.40688">
        <ele>138</ele>
        <time>2025-02-02T12:24:25Z</time>
      </trkpt>
      <trkpt lat="43.66114" lon="1.40689">
        <ele>138</ele>
        <time>2025-02-02T12:24:26Z</time>
      </trkpt>
      <trkpt lat="43.66109" lon="1.40692">
        <ele>138</ele>
        <time>2025-02-02T12:24:27Z</time>
      </trkpt>
      <trkpt lat="43.66107" lon="1.40693">
        <ele>139</ele>
        <time>2025-02-02T12:24:28Z</time>
      </trkpt>
      <trkpt lat="43.66105" lon="1.40694">
        <ele>139</ele>
        <time>2025-02-02T12:24:29Z</time>
      </trkpt>
      <trkpt lat="43.66102" lon="1.40695">
        <ele>139</ele>
        <time>2025-02-02T12:24:30Z</time>
      </trkpt>
      <trkpt lat="43.661" lon="1.40696">
        <ele>138</ele>
        <time>2025-02-02T12:24:31Z</time>
      </trkpt>
      <trkpt lat="43.66097" lon="1.40697">
        <ele>138</ele>
        <time>2025-02-02T12:24:32Z</time>
      </trkpt>
      <trkpt lat="43.66095" lon="1.40697">
        <ele>138</ele>
        <time>2025-02-02T12:24:33Z</time>
      </trkpt>
      <trkpt lat="43.66093" lon="1.40698">
        <ele>138</ele>
        <time>2025-02-02T12:24:34Z</time>
      </trkpt>
      <trkpt lat="43.66091" lon="1.40698">
        <ele>138</ele>
        <time>2025-02-02T12:24:35Z</time>
      </trkpt>
      <trkpt lat="43.66088" lon="1.40698">
        <ele>137</ele>
        <time>2025-02-02T12:24:36Z</time>
      </trkpt>
      <trkpt lat="43.66086" lon="1.40699">
        <ele>137</ele>
        <time>2025-02-02T12:24:37Z</time>
      </trkpt>
      <trkpt lat="43.66084" lon="1.40699">
        <ele>137</ele>
        <time>2025-02-02T12:24:38Z</time>
      </trkpt>
      <trkpt lat="43.66082" lon="1.407">
        <ele>137</ele>
        <time>2025-02-02T12:24:39Z</time>
      </trkpt>
      <trkpt lat="43.66079" lon="1.40701">
        <ele>137</ele>
        <time>2025-02-02T12:24:40Z</time>
      </trkpt>
      <trkpt lat="43.66077" lon="1.40702">
        <ele>137</ele>
        <time>2025-02-02T12:24:41Z</time>
      </trkpt>
      <trkpt lat="43.66074" lon="1.40702">
        <ele>137</ele>
        <time>2025-02-02T12:24:42Z</time>
      </trkpt>
      <trkpt lat="43.66072" lon="1.40703">
        <ele>137</ele>
        <time>2025-02-02T12:24:43Z</time>
      </trkpt>
      <trkpt lat="43.66069" lon="1.40704">
        <ele>137</ele>
        <time>2025-02-02T12:24:44Z</time>
      </trkpt>
      <trkpt lat="43.66067" lon="1.40705">
        <ele>137</ele>
        <time>2025-02-02T12:24:45Z</time>
      </trkpt>
      <trkpt lat="43.66063" lon="1.40706">
        <ele>137</ele>
        <time>2025-02-02T12:24:46Z</time>
      </trkpt>
      <trkpt lat="43.66061" lon="1.40706">
        <ele>137</ele>
        <time>2025-02-02T12:24:47Z</time>
      </trkpt>
      <trkpt lat="43.66059" lon="1.40707">
        <ele>137</ele>
        <time>2025-02-02T12:24:48Z</time>
      </trkpt>
      <trkpt lat="43.66057" lon="1.40708">
        <ele>137</ele>
        <time>2025-02-02T12:24:49Z</time>
      </trkpt>
      <trkpt lat="43.66054" lon="1.40709">
        <ele>137</ele>
        <time>2025-02-02T12:24:50Z</time>
      </trkpt>
      <trkpt lat="43.66052" lon="1.40709">
        <ele>137</ele>
        <time>2025-02-02T12:24:51Z</time>
      </trkpt>
      <trkpt lat="43.66048" lon="1.40711">
        <ele>137</ele>
        <time>2025-02-02T12:24:52Z</time>
      </trkpt>
      <trkpt lat="43.66047" lon="1.40711">
        <ele>137</ele>
        <time>2025-02-02T12:24:53Z</time>
      </trkpt>
      <trkpt lat="43.66045" lon="1.40711">
        <ele>137</ele>
        <time>2025-02-02T12:24:54Z</time>
      </trkpt>
      <trkpt lat="43.66042" lon="1.40712">
        <ele>137</ele>
        <time>2025-02-02T12:24:55Z</time>
      </trkpt>
      <trkpt lat="43.6604" lon="1.40713">
        <ele>137</ele>
        <time>2025-02-02T12:24:56Z</time>
      </trkpt>
      <trkpt lat="43.66037" lon="1.40713">
        <ele>137</ele>
        <time>2025-02-02T12:24:57Z</time>
      </trkpt>
      <trkpt lat="43.66035" lon="1.40713">
        <ele>137</ele>
        <time>2025-02-02T12:24:58Z</time>
      </trkpt>
      <trkpt lat="43.66033" lon="1.40714">
        <ele>137</ele>
        <time>2025-02-02T12:24:59Z</time>
      </trkpt>
      <trkpt lat="43.6603" lon="1.40714">
        <ele>137</ele>
        <time>2025-02-02T12:25:00Z</time>
      </trkpt>
      <trkpt lat="43.66028" lon="1.40715">
        <ele>137</ele>
        <time>2025-02-02T12:25:01Z</time>
      </trkpt>
      <trkpt lat="43.66026" lon="1.40716">
        <ele>137</ele>
        <time>2025-02-02T12:25:02Z</time>
      </trkpt>
      <trkpt lat="43.66023" lon="1.40717">
        <ele>137</ele>
        <time>2025-02-02T12:25:03Z</time>
      </trkpt>
      <trkpt lat="43.66021" lon="1.40718">
        <ele>137</ele>
        <time>2025-02-02T12:25:04Z</time>
      </trkpt>
      <trkpt lat="43.66017" lon="1.40718">
        <ele>137</ele>
        <time>2025-02-02T12:25:05Z</time>
      </trkpt>
      <trkpt lat="43.66016" lon="1.40719">
        <ele>137</ele>
        <time>2025-02-02T12:25:06Z</time>
      </trkpt>
      <trkpt lat="43.66013" lon="1.40719">
        <ele>137</ele>
        <time>2025-02-02T12:25:07Z</time>
      </trkpt>
      <trkpt lat="43.66011" lon="1.4072">
        <ele>137</ele>
        <time>2025-02-02T12:25:08Z</time>
      </trkpt>
      <trkpt lat="43.66008" lon="1.40721">
        <ele>137</ele>
        <time>2025-02-02T12:25:09Z</time>
      </trkpt>
      <trkpt lat="43.66006" lon="1.40722">
        <ele>137</ele>
        <time>2025-02-02T12:25:10Z</time>
      </trkpt>
      <trkpt lat="43.66004" lon="1.40722">
        <ele>137</ele>
        <time>2025-02-02T12:25:11Z</time>
      </trkpt>
      <trkpt lat="43.66001" lon="1.40723">
        <ele>137</ele>
        <time>2025-02-02T12:25:12Z</time>
      </trkpt>
      <trkpt lat="43.65997" lon="1.40725">
        <ele>137</ele>
        <time>2025-02-02T12:25:13Z</time>
      </trkpt>
      <trkpt lat="43.65996" lon="1.40725">
        <ele>137</ele>
        <time>2025-02-02T12:25:14Z</time>
      </trkpt>
      <trkpt lat="43.65993" lon="1.40725">
        <ele>137</ele>
        <time>2025-02-02T12:25:15Z</time>
      </trkpt>
      <trkpt lat="43.65991" lon="1.40726">
        <ele>137</ele>
        <time>2025-02-02T12:25:16Z</time>
      </trkpt>
      <trkpt lat="43.65988" lon="1.40726">
        <ele>137</ele>
        <time>2025-02-02T12:25:17Z</time>
      </trkpt>
      <trkpt lat="43.65985" lon="1.40727">
        <ele>137</ele>
        <time>2025-02-02T12:25:18Z</time>
      </trkpt>
      <trkpt lat="43.65982" lon="1.40727">
        <ele>137</ele>
        <time>2025-02-02T12:25:19Z</time>
      </trkpt>
      <trkpt lat="43.65979" lon="1.40727">
        <ele>137</ele>
        <time>2025-02-02T12:25:20Z</time>
      </trkpt>
      <trkpt lat="43.65977" lon="1.40727">
        <ele>137</ele>
        <time>2025-02-02T12:25:21Z</time>
      </trkpt>
      <trkpt lat="43.65974" lon="1.40728">
        <ele>137</ele>
        <time>2025-02-02T12:25:22Z</time>
      </trkpt>
      <trkpt lat="43.65971" lon="1.40728">
        <ele>137</ele>
        <time>2025-02-02T12:25:23Z</time>
      </trkpt>
      <trkpt lat="43.65968" lon="1.4073">
        <ele>137</ele>
        <time>2025-02-02T12:25:24Z</time>
      </trkpt>
      <trkpt lat="43.65967" lon="1.4073">
        <ele>137</ele>
        <time>2025-02-02T12:25:25Z</time>
      </trkpt>
      <trkpt lat="43.65964" lon="1.4073">
        <ele>137</ele>
        <time>2025-02-02T12:25:26Z</time>
      </trkpt>
      <trkpt lat="43.65961" lon="1.40731">
        <ele>137</ele>
        <time>2025-02-02T12:25:27Z</time>
      </trkpt>
      <trkpt lat="43.65959" lon="1.40732">
        <ele>137</ele>
        <time>2025-02-02T12:25:28Z</time>
      </trkpt>
      <trkpt lat="43.65956" lon="1.40733">
        <ele>137</ele>
        <time>2025-02-02T12:25:29Z</time>
      </trkpt>
      <trkpt lat="43.65954" lon="1.40733">
        <ele>137</ele>
        <time>2025-02-02T12:25:30Z</time>
      </trkpt>
      <trkpt lat="43.6595" lon="1.40733">
        <ele>137</ele>
        <time>2025-02-02T12:25:31Z</time>
      </trkpt>
      <trkpt lat="43.65948" lon="1.40733">
        <ele>137</ele>
        <time>2025-02-02T12:25:32Z</time>
      </trkpt>
      <trkpt lat="43.65946" lon="1.40733">
        <ele>137</ele>
        <time>2025-02-02T12:25:33Z</time>
      </trkpt>
      <trkpt lat="43.65943" lon="1.40733">
        <ele>137</ele>
        <time>2025-02-02T12:25:34Z</time>
      </trkpt>
      <trkpt lat="43.65941" lon="1.40734">
        <ele>137</ele>
        <time>2025-02-02T12:25:35Z</time>
      </trkpt>
      <trkpt lat="43.65938" lon="1.40734">
        <ele>137</ele>
        <time>2025-02-02T12:25:36Z</time>
      </trkpt>
      <trkpt lat="43.65936" lon="1.40734">
        <ele>137</ele>
        <time>2025-02-02T12:25:37Z</time>
      </trkpt>
      <trkpt lat="43.65933" lon="1.40734">
        <ele>137</ele>
        <time>2025-02-02T12:25:38Z</time>
      </trkpt>
      <trkpt lat="43.6593" lon="1.40734">
        <ele>136</ele>
        <time>2025-02-02T12:25:39Z</time>
      </trkpt>
      <trkpt lat="43.65928" lon="1.40734">
        <ele>136</ele>
        <time>2025-02-02T12:25:40Z</time>
      </trkpt>
      <trkpt lat="43.65925" lon="1.40735">
        <ele>137</ele>
        <time>2025-02-02T12:25:41Z</time>
      </trkpt>
      <trkpt lat="43.65923" lon="1.40735">
        <ele>137</ele>
        <time>2025-02-02T12:25:42Z</time>
      </trkpt>
      <trkpt lat="43.65919" lon="1.40736">
        <ele>137</ele>
        <time>2025-02-02T12:25:43Z</time>
      </trkpt>
      <trkpt lat="43.65917" lon="1.40736">
        <ele>137</ele>
        <time>2025-02-02T12:25:44Z</time>
      </trkpt>
      <trkpt lat="43.65915" lon="1.40736">
        <ele>137</ele>
        <time>2025-02-02T12:25:45Z</time>
      </trkpt>
      <trkpt lat="43.65912" lon="1.40737">
        <ele>137</ele>
        <time>2025-02-02T12:25:46Z</time>
      </trkpt>
      <trkpt lat="43.6591" lon="1.40737">
        <ele>137</ele>
        <time>2025-02-02T12:25:47Z</time>
      </trkpt>
      <trkpt lat="43.65907" lon="1.40738">
        <ele>137</ele>
        <time>2025-02-02T12:25:48Z</time>
      </trkpt>
      <trkpt lat="43.65905" lon="1.40738">
        <ele>137</ele>
        <time>2025-02-02T12:25:49Z</time>
      </trkpt>
      <trkpt lat="43.65902" lon="1.40739">
        <ele>137</ele>
        <time>2025-02-02T12:25:50Z</time>
      </trkpt>
      <trkpt lat="43.65898" lon="1.4074">
        <ele>137</ele>
        <time>2025-02-02T12:25:51Z</time>
      </trkpt>
      <trkpt lat="43.65897" lon="1.4074">
        <ele>137</ele>
        <time>2025-02-02T12:25:52Z</time>
      </trkpt>
      <trkpt lat="43.65894" lon="1.40741">
        <ele>136</ele>
        <time>2025-02-02T12:25:53Z</time>
      </trkpt>
      <trkpt lat="43.65892" lon="1.40741">
        <ele>136</ele>
        <time>2025-02-02T12:25:54Z</time>
      </trkpt>
      <trkpt lat="43.65889" lon="1.40742">
        <ele>136</ele>
        <time>2025-02-02T12:25:55Z</time>
      </trkpt>
      <trkpt lat="43.65886" lon="1.40742">
        <ele>136</ele>
        <time>2025-02-02T12:25:56Z</time>
      </trkpt>
      <trkpt lat="43.65884" lon="1.40742">
        <ele>136</ele>
        <time>2025-02-02T12:25:57Z</time>
      </trkpt>
      <trkpt lat="43.65881" lon="1.40743">
        <ele>137</ele>
        <time>2025-02-02T12:25:58Z</time>
      </trkpt>
      <trkpt lat="43.65878" lon="1.40743">
        <ele>137</ele>
        <time>2025-02-02T12:25:59Z</time>
      </trkpt>
      <trkpt lat="43.65876" lon="1.40743">
        <ele>137</ele>
        <time>2025-02-02T12:26:00Z</time>
      </trkpt>
      <trkpt lat="43.65873" lon="1.40743">
        <ele>137</ele>
        <time>2025-02-02T12:26:01Z</time>
      </trkpt>
      <trkpt lat="43.65869" lon="1.40743">
        <ele>137</ele>
        <time>2025-02-02T12:26:02Z</time>
      </trkpt>
      <trkpt lat="43.65868" lon="1.40743">
        <ele>137</ele>
        <time>2025-02-02T12:26:03Z</time>
      </trkpt>
      <trkpt lat="43.65865" lon="1.40743">
        <ele>137</ele>
        <time>2025-02-02T12:26:04Z</time>
      </trkpt>
      <trkpt lat="43.65863" lon="1.40743">
        <ele>137</ele>
        <time>2025-02-02T12:26:05Z</time>
      </trkpt>
      <trkpt lat="43.6586" lon="1.40743">
        <ele>137</ele>
        <time>2025-02-02T12:26:06Z</time>
      </trkpt>
      <trkpt lat="43.65857" lon="1.40743">
        <ele>137</ele>
        <time>2025-02-02T12:26:07Z</time>
      </trkpt>
      <trkpt lat="43.65855" lon="1.40743">
        <ele>137</ele>
        <time>2025-02-02T12:26:08Z</time>
      </trkpt>
      <trkpt lat="43.65852" lon="1.40743">
        <ele>137</ele>
        <time>2025-02-02T12:26:09Z</time>
      </trkpt>
      <trkpt lat="43.65848" lon="1.40742">
        <ele>137</ele>
        <time>2025-02-02T12:26:10Z</time>
      </trkpt>
      <trkpt lat="43.65847" lon="1.40742">
        <ele>137</ele>
        <time>2025-02-02T12:26:11Z</time>
      </trkpt>
      <trkpt lat="43.65845" lon="1.40742">
        <ele>137</ele>
        <time>2025-02-02T12:26:12Z</time>
      </trkpt>
      <trkpt lat="43.65842" lon="1.40742">
        <ele>137</ele>
        <time>2025-02-02T12:26:13Z</time>
      </trkpt>
      <trkpt lat="43.6584" lon="1.40742">
        <ele>137</ele>
        <time>2025-02-02T12:26:14Z</time>
      </trkpt>
      <trkpt lat="43.65838" lon="1.40743">
        <ele>137</ele>
        <time>2025-02-02T12:26:15Z</time>
      </trkpt>
      <trkpt lat="43.65835" lon="1.40743">
        <ele>137</ele>
        <time>2025-02-02T12:26:16Z</time>
      </trkpt>
      <trkpt lat="43.65833" lon="1.40743">
        <ele>137</ele>
        <time>2025-02-02T12:26:17Z</time>
      </trkpt>
      <trkpt lat="43.65831" lon="1.40744">
        <ele>137</ele>
        <time>2025-02-02T12:26:18Z</time>
      </trkpt>
      <trkpt lat="43.65828" lon="1.40744">
        <ele>137</ele>
        <time>2025-02-02T12:26:19Z</time>
      </trkpt>
      <trkpt lat="43.65825" lon="1.40744">
        <ele>137</ele>
        <time>2025-02-02T12:26:20Z</time>
      </trkpt>
      <trkpt lat="43.65821" lon="1.40744">
        <ele>137</ele>
        <time>2025-02-02T12:26:21Z</time>
      </trkpt>
      <trkpt lat="43.6582" lon="1.40745">
        <ele>137</ele>
        <time>2025-02-02T12:26:22Z</time>
      </trkpt>
      <trkpt lat="43.65818" lon="1.40745">
        <ele>137</ele>
        <time>2025-02-02T12:26:23Z</time>
      </trkpt>
      <trkpt lat="43.65815" lon="1.40746">
        <ele>137</ele>
        <time>2025-02-02T12:26:24Z</time>
      </trkpt>
      <trkpt lat="43.65813" lon="1.40746">
        <ele>137</ele>
        <time>2025-02-02T12:26:25Z</time>
      </trkpt>
      <trkpt lat="43.6581" lon="1.40747">
        <ele>137</ele>
        <time>2025-02-02T12:26:26Z</time>
      </trkpt>
      <trkpt lat="43.65807" lon="1.40747">
        <ele>137</ele>
        <time>2025-02-02T12:26:27Z</time>
      </trkpt>
      <trkpt lat="43.65805" lon="1.40747">
        <ele>137</ele>
        <time>2025-02-02T12:26:28Z</time>
      </trkpt>
      <trkpt lat="43.65802" lon="1.40747">
        <ele>137</ele>
        <time>2025-02-02T12:26:29Z</time>
      </trkpt>
      <trkpt lat="43.65799" lon="1.40747">
        <ele>137</ele>
        <time>2025-02-02T12:26:30Z</time>
      </trkpt>
      <trkpt lat="43.65797" lon="1.40747">
        <ele>137</ele>
        <time>2025-02-02T12:26:31Z</time>
      </trkpt>
      <trkpt lat="43.65795" lon="1.40746">
        <ele>137</ele>
        <time>2025-02-02T12:26:32Z</time>
      </trkpt>
      <trkpt lat="43.65792" lon="1.40746">
        <ele>137</ele>
        <time>2025-02-02T12:26:33Z</time>
      </trkpt>
      <trkpt lat="43.65789" lon="1.40745">
        <ele>137</ele>
        <time>2025-02-02T12:26:34Z</time>
      </trkpt>
      <trkpt lat="43.65786" lon="1.40745">
        <ele>137</ele>
        <time>2025-02-02T12:26:35Z</time>
      </trkpt>
      <trkpt lat="43.65784" lon="1.40745">
        <ele>137</ele>
        <time>2025-02-02T12:26:36Z</time>
      </trkpt>
      <trkpt lat="43.65781" lon="1.40744">
        <ele>137</ele>
        <time>2025-02-02T12:26:37Z</time>
      </trkpt>
      <trkpt lat="43.65779" lon="1.40744">
        <ele>137</ele>
        <time>2025-02-02T12:26:38Z</time>
      </trkpt>
      <trkpt lat="43.65776" lon="1.40743">
        <ele>137</ele>
        <time>2025-02-02T12:26:39Z</time>
      </trkpt>
      <trkpt lat="43.65773" lon="1.40742">
        <ele>137</ele>
        <time>2025-02-02T12:26:40Z</time>
      </trkpt>
      <trkpt lat="43.65771" lon="1.40742">
        <ele>137</ele>
        <time>2025-02-02T12:26:41Z</time>
      </trkpt>
      <trkpt lat="43.65769" lon="1.40742">
        <ele>137</ele>
        <time>2025-02-02T12:26:42Z</time>
      </trkpt>
      <trkpt lat="43.65767" lon="1.40742">
        <ele>137</ele>
        <time>2025-02-02T12:26:43Z</time>
      </trkpt>
      <trkpt lat="43.65764" lon="1.40743">
        <ele>137</ele>
        <time>2025-02-02T12:26:44Z</time>
      </trkpt>
      <trkpt lat="43.65761" lon="1.40743">
        <ele>137</ele>
        <time>2025-02-02T12:26:45Z</time>
      </trkpt>
      <trkpt lat="43.65759" lon="1.40744">
        <ele>137</ele>
        <time>2025-02-02T12:26:46Z</time>
      </trkpt>
      <trkpt lat="43.65757" lon="1.40744">
        <ele>137</ele>
        <time>2025-02-02T12:26:47Z</time>
      </trkpt>
      <trkpt lat="43.65754" lon="1.40744">
        <ele>137</ele>
        <time>2025-02-02T12:26:48Z</time>
      </trkpt>
      <trkpt lat="43.65752" lon="1.40744">
        <ele>137</ele>
        <time>2025-02-02T12:26:49Z</time>
      </trkpt>
      <trkpt lat="43.65748" lon="1.40744">
        <ele>137</ele>
        <time>2025-02-02T12:26:50Z</time>
      </trkpt>
      <trkpt lat="43.65747" lon="1.40744">
        <ele>137</ele>
        <time>2025-02-02T12:26:51Z</time>
      </trkpt>
      <trkpt lat="43.65745" lon="1.40744">
        <ele>137</ele>
        <time>2025-02-02T12:26:52Z</time>
      </trkpt>
      <trkpt lat="43.65742" lon="1.40745">
        <ele>137</ele>
        <time>2025-02-02T12:26:53Z</time>
      </trkpt>
      <trkpt lat="43.6574" lon="1.40745">
        <ele>137</ele>
        <time>2025-02-02T12:26:54Z</time>
      </trkpt>
      <trkpt lat="43.65737" lon="1.40746">
        <ele>137</ele>
        <time>2025-02-02T12:26:55Z</time>
      </trkpt>
      <trkpt lat="43.65735" lon="1.40746">
        <ele>137</ele>
        <time>2025-02-02T12:26:56Z</time>
      </trkpt>
      <trkpt lat="43.65732" lon="1.40746">
        <ele>137</ele>
        <time>2025-02-02T12:26:57Z</time>
      </trkpt>
      <trkpt lat="43.6573" lon="1.40746">
        <ele>137</ele>
        <time>2025-02-02T12:26:58Z</time>
      </trkpt>
      <trkpt lat="43.65726" lon="1.40746">
        <ele>137</ele>
        <time>2025-02-02T12:26:59Z</time>
      </trkpt>
      <trkpt lat="43.65724" lon="1.40746">
        <ele>137</ele>
        <time>2025-02-02T12:27:00Z</time>
      </trkpt>
      <trkpt lat="43.65721" lon="1.40747">
        <ele>137</ele>
        <time>2025-02-02T12:27:01Z</time>
      </trkpt>
      <trkpt lat="43.65718" lon="1.40747">
        <ele>137</ele>
        <time>2025-02-02T12:27:02Z</time>
      </trkpt>
      <trkpt lat="43.65716" lon="1.40748">
        <ele>137</ele>
        <time>2025-02-02T12:27:03Z</time>
      </trkpt>
      <trkpt lat="43.65714" lon="1.40748">
        <ele>137</ele>
        <time>2025-02-02T12:27:04Z</time>
      </trkpt>
      <trkpt lat="43.65712" lon="1.40748">
        <ele>137</ele>
        <time>2025-02-02T12:27:05Z</time>
      </trkpt>
      <trkpt lat="43.6571" lon="1.40749">
        <ele>137</ele>
        <time>2025-02-02T12:27:06Z</time>
      </trkpt>
      <trkpt lat="43.65708" lon="1.4075">
        <ele>137</ele>
        <time>2025-02-02T12:27:07Z</time>
      </trkpt>
      <trkpt lat="43.65705" lon="1.4075">
        <ele>137</ele>
        <time>2025-02-02T12:27:08Z</time>
      </trkpt>
      <trkpt lat="43.65701" lon="1.40752">
        <ele>137</ele>
        <time>2025-02-02T12:27:09Z</time>
      </trkpt>
      <trkpt lat="43.657" lon="1.40752">
        <ele>137</ele>
        <time>2025-02-02T12:27:10Z</time>
      </trkpt>
      <trkpt lat="43.65697" lon="1.40753">
        <ele>137</ele>
        <time>2025-02-02T12:27:11Z</time>
      </trkpt>
      <trkpt lat="43.65694" lon="1.40753">
        <ele>137</ele>
        <time>2025-02-02T12:27:12Z</time>
      </trkpt>
      <trkpt lat="43.65692" lon="1.40753">
        <ele>138</ele>
        <time>2025-02-02T12:27:13Z</time>
      </trkpt>
      <trkpt lat="43.65689" lon="1.40754">
        <ele>138</ele>
        <time>2025-02-02T12:27:14Z</time>
      </trkpt>
      <trkpt lat="43.65686" lon="1.40754">
        <ele>138</ele>
        <time>2025-02-02T12:27:15Z</time>
      </trkpt>
      <trkpt lat="43.65683" lon="1.40754">
        <ele>138</ele>
        <time>2025-02-02T12:27:16Z</time>
      </trkpt>
      <trkpt lat="43.65681" lon="1.40755">
        <ele>138</ele>
        <time>2025-02-02T12:27:17Z</time>
      </trkpt>
      <trkpt lat="43.65676" lon="1.40754">
        <ele>138</ele>
        <time>2025-02-02T12:27:18Z</time>
      </trkpt>
      <trkpt lat="43.65675" lon="1.40754">
        <ele>138</ele>
        <time>2025-02-02T12:27:19Z</time>
      </trkpt>
      <trkpt lat="43.65673" lon="1.40754">
        <ele>138</ele>
        <time>2025-02-02T12:27:20Z</time>
      </trkpt>
      <trkpt lat="43.65671" lon="1.40754">
        <ele>138</ele>
        <time>2025-02-02T12:27:21Z</time>
      </trkpt>
      <trkpt lat="43.65669" lon="1.40754">
        <ele>138</ele>
        <time>2025-02-02T12:27:22Z</time>
      </trkpt>
      <trkpt lat="43.65666" lon="1.40754">
        <ele>138</ele>
        <time>2025-02-02T12:27:23Z</time>
      </trkpt>
      <trkpt lat="43.65664" lon="1.40754">
        <ele>138</ele>
        <time>2025-02-02T12:27:24Z</time>
      </trkpt>
      <trkpt lat="43.65661" lon="1.40755">
        <ele>138</ele>
        <time>2025-02-02T12:27:25Z</time>
      </trkpt>
      <trkpt lat="43.65658" lon="1.40755">
        <ele>138</ele>
        <time>2025-02-02T12:27:26Z</time>
      </trkpt>
      <trkpt lat="43.65656" lon="1.40755">
        <ele>138</ele>
        <time>2025-02-02T12:27:27Z</time>
      </trkpt>
      <trkpt lat="43.65651" lon="1.40756">
        <ele>138</ele>
        <time>2025-02-02T12:27:28Z</time>
      </trkpt>
      <trkpt lat="43.6565" lon="1.40756">
        <ele>138</ele>
        <time>2025-02-02T12:27:29Z</time>
      </trkpt>
      <trkpt lat="43.65647" lon="1.40757">
        <ele>138</ele>
        <time>2025-02-02T12:27:30Z</time>
      </trkpt>
      <trkpt lat="43.65644" lon="1.40758">
        <ele>138</ele>
        <time>2025-02-02T12:27:31Z</time>
      </trkpt>
      <trkpt lat="43.65641" lon="1.40758">
        <ele>138</ele>
        <time>2025-02-02T12:27:32Z</time>
      </trkpt>
      <trkpt lat="43.65639" lon="1.40759">
        <ele>138</ele>
        <time>2025-02-02T12:27:33Z</time>
      </trkpt>
      <trkpt lat="43.65635" lon="1.4076">
        <ele>138</ele>
        <time>2025-02-02T12:27:34Z</time>
      </trkpt>
      <trkpt lat="43.65632" lon="1.40761">
        <ele>139</ele>
        <time>2025-02-02T12:27:35Z</time>
      </trkpt>
      <trkpt lat="43.65628" lon="1.40761">
        <ele>139</ele>
        <time>2025-02-02T12:27:36Z</time>
      </trkpt>
      <trkpt lat="43.65624" lon="1.40762">
        <ele>139</ele>
        <time>2025-02-02T12:27:37Z</time>
      </trkpt>
      <trkpt lat="43.65623" lon="1.40762">
        <ele>139</ele>
        <time>2025-02-02T12:27:38Z</time>
      </trkpt>
      <trkpt lat="43.65621" lon="1.40762">
        <ele>139</ele>
        <time>2025-02-02T12:27:39Z</time>
      </trkpt>
      <trkpt lat="43.65621" lon="1.40762">
        <ele>139</ele>
        <time>2025-02-02T12:27:40Z</time>
      </trkpt>
      <trkpt lat="43.65617" lon="1.40761">
        <ele>139</ele>
        <time>2025-02-02T12:27:41Z</time>
      </trkpt>
      <trkpt lat="43.65614" lon="1.40761">
        <ele>139</ele>
        <time>2025-02-02T12:27:42Z</time>
      </trkpt>
      <trkpt lat="43.65612" lon="1.40761">
        <ele>139</ele>
        <time>2025-02-02T12:27:43Z</time>
      </trkpt>
      <trkpt lat="43.65609" lon="1.4076">
        <ele>139</ele>
        <time>2025-02-02T12:27:44Z</time>
      </trkpt>
      <trkpt lat="43.65606" lon="1.4076">
        <ele>138</ele>
        <time>2025-02-02T12:27:45Z</time>
      </trkpt>
      <trkpt lat="43.65602" lon="1.4076">
        <ele>138</ele>
        <time>2025-02-02T12:27:46Z</time>
      </trkpt>
      <trkpt lat="43.65601" lon="1.4076">
        <ele>138</ele>
        <time>2025-02-02T12:27:47Z</time>
      </trkpt>
      <trkpt lat="43.65599" lon="1.4076">
        <ele>138</ele>
        <time>2025-02-02T12:27:48Z</time>
      </trkpt>
      <trkpt lat="43.65596" lon="1.4076">
        <ele>138</ele>
        <time>2025-02-02T12:27:49Z</time>
      </trkpt>
      <trkpt lat="43.65594" lon="1.4076">
        <ele>138</ele>
        <time>2025-02-02T12:27:50Z</time>
      </trkpt>
      <trkpt lat="43.65594" lon="1.4076">
        <ele>138</ele>
        <time>2025-02-02T12:27:51Z</time>
      </trkpt>
      <trkpt lat="43.65591" lon="1.4076">
        <ele>138</ele>
        <time>2025-02-02T12:27:52Z</time>
      </trkpt>
      <trkpt lat="43.65588" lon="1.40761">
        <ele>138</ele>
        <time>2025-02-02T12:27:53Z</time>
      </trkpt>
      <trkpt lat="43.65586" lon="1.40761">
        <ele>138</ele>
        <time>2025-02-02T12:27:54Z</time>
      </trkpt>
      <trkpt lat="43.65583" lon="1.40762">
        <ele>138</ele>
        <time>2025-02-02T12:27:55Z</time>
      </trkpt>
      <trkpt lat="43.65579" lon="1.40763">
        <ele>138</ele>
        <time>2025-02-02T12:27:56Z</time>
      </trkpt>
      <trkpt lat="43.65577" lon="1.40764">
        <ele>138</ele>
        <time>2025-02-02T12:27:57Z</time>
      </trkpt>
      <trkpt lat="43.65575" lon="1.40766">
        <ele>138</ele>
        <time>2025-02-02T12:27:58Z</time>
      </trkpt>
      <trkpt lat="43.65573" lon="1.40767">
        <ele>137</ele>
        <time>2025-02-02T12:27:59Z</time>
      </trkpt>
      <trkpt lat="43.6557" lon="1.40768">
        <ele>137</ele>
        <time>2025-02-02T12:28:00Z</time>
      </trkpt>
      <trkpt lat="43.65566" lon="1.4077">
        <ele>137</ele>
        <time>2025-02-02T12:28:01Z</time>
      </trkpt>
      <trkpt lat="43.65563" lon="1.40771">
        <ele>137</ele>
        <time>2025-02-02T12:28:02Z</time>
      </trkpt>
      <trkpt lat="43.6556" lon="1.40772">
        <ele>138</ele>
        <time>2025-02-02T12:28:03Z</time>
      </trkpt>
      <trkpt lat="43.65557" lon="1.40773">
        <ele>138</ele>
        <time>2025-02-02T12:28:04Z</time>
      </trkpt>
      <trkpt lat="43.65555" lon="1.40773">
        <ele>138</ele>
        <time>2025-02-02T12:28:05Z</time>
      </trkpt>
      <trkpt lat="43.65551" lon="1.40775">
        <ele>138</ele>
        <time>2025-02-02T12:28:06Z</time>
      </trkpt>
      <trkpt lat="43.6555" lon="1.40775">
        <ele>138</ele>
        <time>2025-02-02T12:28:07Z</time>
      </trkpt>
      <trkpt lat="43.65548" lon="1.40775">
        <ele>138</ele>
        <time>2025-02-02T12:28:08Z</time>
      </trkpt>
      <trkpt lat="43.65545" lon="1.40776">
        <ele>138</ele>
        <time>2025-02-02T12:28:09Z</time>
      </trkpt>
      <trkpt lat="43.65542" lon="1.40777">
        <ele>138</ele>
        <time>2025-02-02T12:28:10Z</time>
      </trkpt>
      <trkpt lat="43.65539" lon="1.40778">
        <ele>138</ele>
        <time>2025-02-02T12:28:11Z</time>
      </trkpt>
      <trkpt lat="43.65536" lon="1.40778">
        <ele>138</ele>
        <time>2025-02-02T12:28:12Z</time>
      </trkpt>
      <trkpt lat="43.65533" lon="1.40779">
        <ele>138</ele>
        <time>2025-02-02T12:28:13Z</time>
      </trkpt>
      <trkpt lat="43.65529" lon="1.40779">
        <ele>138</ele>
        <time>2025-02-02T12:28:14Z</time>
      </trkpt>
      <trkpt lat="43.65524" lon="1.40779">
        <ele>138</ele>
        <time>2025-02-02T12:28:15Z</time>
      </trkpt>
      <trkpt lat="43.65522" lon="1.40779">
        <ele>138</ele>
        <time>2025-02-02T12:28:16Z</time>
      </trkpt>
      <trkpt lat="43.65519" lon="1.40779">
        <ele>138</ele>
        <time>2025-02-02T12:28:17Z</time>
      </trkpt>
      <trkpt lat="43.65516" lon="1.40778">
        <ele>137</ele>
        <time>2025-02-02T12:28:18Z</time>
      </trkpt>
      <trkpt lat="43.65513" lon="1.40777">
        <ele>136</ele>
        <time>2025-02-02T12:28:19Z</time>
      </trkpt>
      <trkpt lat="43.65511" lon="1.40777">
        <ele>136</ele>
        <time>2025-02-02T12:28:20Z</time>
      </trkpt>
      <trkpt lat="43.65507" lon="1.40775">
        <ele>136</ele>
        <time>2025-02-02T12:28:21Z</time>
      </trkpt>
      <trkpt lat="43.65504" lon="1.40774">
        <ele>136</ele>
        <time>2025-02-02T12:28:22Z</time>
      </trkpt>
      <trkpt lat="43.65504" lon="1.40774">
        <ele>135</ele>
        <time>2025-02-02T12:28:23Z</time>
      </trkpt>
      <trkpt lat="43.65499" lon="1.40771">
        <ele>135</ele>
        <time>2025-02-02T12:28:24Z</time>
      </trkpt>
      <trkpt lat="43.65496" lon="1.4077">
        <ele>135</ele>
        <time>2025-02-02T12:28:25Z</time>
      </trkpt>
      <trkpt lat="43.65493" lon="1.40769">
        <ele>135</ele>
        <time>2025-02-02T12:28:26Z</time>
      </trkpt>
      <trkpt lat="43.65491" lon="1.40767">
        <ele>135</ele>
        <time>2025-02-02T12:28:27Z</time>
      </trkpt>
      <trkpt lat="43.65488" lon="1.40765">
        <ele>135</ele>
        <time>2025-02-02T12:28:28Z</time>
      </trkpt>
      <trkpt lat="43.65485" lon="1.40764">
        <ele>135</ele>
        <time>2025-02-02T12:28:29Z</time>
      </trkpt>
      <trkpt lat="43.65482" lon="1.40763">
        <ele>135</ele>
        <time>2025-02-02T12:28:30Z</time>
      </trkpt>
      <trkpt lat="43.6548" lon="1.4076">
        <ele>135</ele>
        <time>2025-02-02T12:28:31Z</time>
      </trkpt>
      <trkpt lat="43.65477" lon="1.40758">
        <ele>135</ele>
        <time>2025-02-02T12:28:32Z</time>
      </trkpt>
      <trkpt lat="43.65475" lon="1.40756">
        <ele>135</ele>
        <time>2025-02-02T12:28:33Z</time>
      </trkpt>
      <trkpt lat="43.65471" lon="1.40752">
        <ele>135</ele>
        <time>2025-02-02T12:28:34Z</time>
      </trkpt>
      <trkpt lat="43.65469" lon="1.40751">
        <ele>135</ele>
        <time>2025-02-02T12:28:35Z</time>
      </trkpt>
      <trkpt lat="43.65467" lon="1.40749">
        <ele>135</ele>
        <time>2025-02-02T12:28:36Z</time>
      </trkpt>
      <trkpt lat="43.65465" lon="1.40748">
        <ele>135</ele>
        <time>2025-02-02T12:28:37Z</time>
      </trkpt>
      <trkpt lat="43.65462" lon="1.40746">
        <ele>135</ele>
        <time>2025-02-02T12:28:38Z</time>
      </trkpt>
      <trkpt lat="43.65459" lon="1.40744">
        <ele>135</ele>
        <time>2025-02-02T12:28:39Z</time>
      </trkpt>
      <trkpt lat="43.65458" lon="1.40744">
        <ele>135</ele>
        <time>2025-02-02T12:28:40Z</time>
      </trkpt>
      <trkpt lat="43.65455" lon="1.40743">
        <ele>135</ele>
        <time>2025-02-02T12:28:41Z</time>
      </trkpt>
      <trkpt lat="43.65453" lon="1.40741">
        <ele>135</ele>
        <time>2025-02-02T12:28:42Z</time>
      </trkpt>
      <trkpt lat="43.65451" lon="1.40739">
        <ele>135</ele>
        <time>2025-02-02T12:28:43Z</time>
      </trkpt>
      <trkpt lat="43.6545" lon="1.40738">
        <ele>135</ele>
        <time>2025-02-02T12:28:44Z</time>
      </trkpt>
      <trkpt lat="43.65447" lon="1.40736">
        <ele>135</ele>
        <time>2025-02-02T12:28:45Z</time>
      </trkpt>
      <trkpt lat="43.65445" lon="1.40734">
        <ele>135</ele>
        <time>2025-02-02T12:28:46Z</time>
      </trkpt>
      <trkpt lat="43.65443" lon="1.40732">
        <ele>135</ele>
        <time>2025-02-02T12:28:47Z</time>
      </trkpt>
      <trkpt lat="43.65441" lon="1.40731">
        <ele>135</ele>
        <time>2025-02-02T12:28:48Z</time>
      </trkpt>
      <trkpt lat="43.65438" lon="1.40729">
        <ele>135</ele>
        <time>2025-02-02T12:28:49Z</time>
      </trkpt>
      <trkpt lat="43.65436" lon="1.40728">
        <ele>135</ele>
        <time>2025-02-02T12:28:50Z</time>
      </trkpt>
      <trkpt lat="43.65433" lon="1.40726">
        <ele>135</ele>
        <time>2025-02-02T12:28:51Z</time>
      </trkpt>
      <trkpt lat="43.65431" lon="1.40725">
        <ele>135</ele>
        <time>2025-02-02T12:28:52Z</time>
      </trkpt>
      <trkpt lat="43.65427" lon="1.40722">
        <ele>135</ele>
        <time>2025-02-02T12:28:53Z</time>
      </trkpt>
      <trkpt lat="43.65426" lon="1.40721">
        <ele>135</ele>
        <time>2025-02-02T12:28:54Z</time>
      </trkpt>
      <trkpt lat="43.65424" lon="1.40719">
        <ele>135</ele>
        <time>2025-02-02T12:28:55Z</time>
      </trkpt>
      <trkpt lat="43.65421" lon="1.40717">
        <ele>135</ele>
        <time>2025-02-02T12:28:56Z</time>
      </trkpt>
      <trkpt lat="43.65419" lon="1.40715">
        <ele>135</ele>
        <time>2025-02-02T12:28:57Z</time>
      </trkpt>
      <trkpt lat="43.65416" lon="1.40713">
        <ele>135</ele>
        <time>2025-02-02T12:28:58Z</time>
      </trkpt>
      <trkpt lat="43.65413" lon="1.40711">
        <ele>135</ele>
        <time>2025-02-02T12:28:59Z</time>
      </trkpt>
      <trkpt lat="43.65412" lon="1.4071">
        <ele>135</ele>
        <time>2025-02-02T12:29:00Z</time>
      </trkpt>
      <trkpt lat="43.6541" lon="1.40709">
        <ele>135</ele>
        <time>2025-02-02T12:29:01Z</time>
      </trkpt>
      <trkpt lat="43.65407" lon="1.40707">
        <ele>135</ele>
        <time>2025-02-02T12:29:02Z</time>
      </trkpt>
      <trkpt lat="43.65405" lon="1.40705">
        <ele>135</ele>
        <time>2025-02-02T12:29:03Z</time>
      </trkpt>
      <trkpt lat="43.65403" lon="1.40703">
        <ele>135</ele>
        <time>2025-02-02T12:29:04Z</time>
      </trkpt>
      <trkpt lat="43.65401" lon="1.40701">
        <ele>135</ele>
        <time>2025-02-02T12:29:05Z</time>
      </trkpt>
      <trkpt lat="43.65398" lon="1.407">
        <ele>135</ele>
        <time>2025-02-02T12:29:06Z</time>
      </trkpt>
      <trkpt lat="43.65397" lon="1.40699">
        <ele>135</ele>
        <time>2025-02-02T12:29:07Z</time>
      </trkpt>
      <trkpt lat="43.65395" lon="1.40698">
        <ele>135</ele>
        <time>2025-02-02T12:29:08Z</time>
      </trkpt>
      <trkpt lat="43.65392" lon="1.40697">
        <ele>135</ele>
        <time>2025-02-02T12:29:09Z</time>
      </trkpt>
      <trkpt lat="43.6539" lon="1.40695">
        <ele>135</ele>
        <time>2025-02-02T12:29:10Z</time>
      </trkpt>
      <trkpt lat="43.65387" lon="1.40694">
        <ele>135</ele>
        <time>2025-02-02T12:29:11Z</time>
      </trkpt>
      <trkpt lat="43.65383" lon="1.40691">
        <ele>135</ele>
        <time>2025-02-02T12:29:12Z</time>
      </trkpt>
      <trkpt lat="43.65382" lon="1.4069">
        <ele>135</ele>
        <time>2025-02-02T12:29:13Z</time>
      </trkpt>
      <trkpt lat="43.6538" lon="1.40688">
        <ele>135</ele>
        <time>2025-02-02T12:29:14Z</time>
      </trkpt>
      <trkpt lat="43.65378" lon="1.40686">
        <ele>135</ele>
        <time>2025-02-02T12:29:15Z</time>
      </trkpt>
      <trkpt lat="43.65376" lon="1.40684">
        <ele>135</ele>
        <time>2025-02-02T12:29:16Z</time>
      </trkpt>
      <trkpt lat="43.65374" lon="1.40683">
        <ele>135</ele>
        <time>2025-02-02T12:29:17Z</time>
      </trkpt>
      <trkpt lat="43.65371" lon="1.4068">
        <ele>135</ele>
        <time>2025-02-02T12:29:18Z</time>
      </trkpt>
      <trkpt lat="43.6537" lon="1.40679">
        <ele>134</ele>
        <time>2025-02-02T12:29:19Z</time>
      </trkpt>
      <trkpt lat="43.65367" lon="1.40678">
        <ele>134</ele>
        <time>2025-02-02T12:29:20Z</time>
      </trkpt>
      <trkpt lat="43.65365" lon="1.40676">
        <ele>134</ele>
        <time>2025-02-02T12:29:21Z</time>
      </trkpt>
      <trkpt lat="43.65363" lon="1.40675">
        <ele>134</ele>
        <time>2025-02-02T12:29:22Z</time>
      </trkpt>
      <trkpt lat="43.6536" lon="1.40673">
        <ele>135</ele>
        <time>2025-02-02T12:29:23Z</time>
      </trkpt>
      <trkpt lat="43.65358" lon="1.40672">
        <ele>135</ele>
        <time>2025-02-02T12:29:24Z</time>
      </trkpt>
      <trkpt lat="43.65355" lon="1.4067">
        <ele>135</ele>
        <time>2025-02-02T12:29:25Z</time>
      </trkpt>
      <trkpt lat="43.65353" lon="1.40668">
        <ele>135</ele>
        <time>2025-02-02T12:29:26Z</time>
      </trkpt>
      <trkpt lat="43.6535" lon="1.40667">
        <ele>135</ele>
        <time>2025-02-02T12:29:27Z</time>
      </trkpt>
      <trkpt lat="43.65348" lon="1.40665">
        <ele>135</ele>
        <time>2025-02-02T12:29:28Z</time>
      </trkpt>
      <trkpt lat="43.65346" lon="1.40663">
        <ele>135</ele>
        <time>2025-02-02T12:29:29Z</time>
      </trkpt>
      <trkpt lat="43.65344" lon="1.40661">
        <ele>135</ele>
        <time>2025-02-02T12:29:30Z</time>
      </trkpt>
      <trkpt lat="43.6534" lon="1.40658">
        <ele>135</ele>
        <time>2025-02-02T12:29:31Z</time>
      </trkpt>
      <trkpt lat="43.65339" lon="1.40657">
        <ele>135</ele>
        <time>2025-02-02T12:29:32Z</time>
      </trkpt>
      <trkpt lat="43.65337" lon="1.40655">
        <ele>135</ele>
        <time>2025-02-02T12:29:33Z</time>
      </trkpt>
      <trkpt lat="43.65334" lon="1.40654">
        <ele>135</ele>
        <time>2025-02-02T12:29:34Z</time>
      </trkpt>
      <trkpt lat="43.65332" lon="1.40653">
        <ele>135</ele>
        <time>2025-02-02T12:29:35Z</time>
      </trkpt>
      <trkpt lat="43.6533" lon="1.40651">
        <ele>135</ele>
        <time>2025-02-02T12:29:36Z</time>
      </trkpt>
      <trkpt lat="43.65326" lon="1.40649">
        <ele>135</ele>
        <time>2025-02-02T12:29:37Z</time>
      </trkpt>
      <trkpt lat="43.65325" lon="1.40648">
        <ele>134</ele>
        <time>2025-02-02T12:29:38Z</time>
      </trkpt>
      <trkpt lat="43.65323" lon="1.40647">
        <ele>135</ele>
        <time>2025-02-02T12:29:39Z</time>
      </trkpt>
      <trkpt lat="43.65321" lon="1.40646">
        <ele>135</ele>
        <time>2025-02-02T12:29:40Z</time>
      </trkpt>
      <trkpt lat="43.65318" lon="1.40644">
        <ele>135</ele>
        <time>2025-02-02T12:29:41Z</time>
      </trkpt>
      <trkpt lat="43.65316" lon="1.40643">
        <ele>135</ele>
        <time>2025-02-02T12:29:42Z</time>
      </trkpt>
      <trkpt lat="43.65314" lon="1.40641">
        <ele>135</ele>
        <time>2025-02-02T12:29:43Z</time>
      </trkpt>
      <trkpt lat="43.65312" lon="1.40639">
        <ele>135</ele>
        <time>2025-02-02T12:29:44Z</time>
      </trkpt>
      <trkpt lat="43.6531" lon="1.40637">
        <ele>135</ele>
        <time>2025-02-02T12:29:45Z</time>
      </trkpt>
      <trkpt lat="43.65308" lon="1.40636">
        <ele>135</ele>
        <time>2025-02-02T12:29:46Z</time>
      </trkpt>
      <trkpt lat="43.65306" lon="1.40634">
        <ele>135</ele>
        <time>2025-02-02T12:29:47Z</time>
      </trkpt>
      <trkpt lat="43.65304" lon="1.40632">
        <ele>135</ele>
        <time>2025-02-02T12:29:48Z</time>
      </trkpt>
      <trkpt lat="43.65301" lon="1.4063">
        <ele>135</ele>
        <time>2025-02-02T12:29:49Z</time>
      </trkpt>
      <trkpt lat="43.65298" lon="1.40628">
        <ele>135</ele>
        <time>2025-02-02T12:29:50Z</time>
      </trkpt>
      <trkpt lat="43.65296" lon="1.40627">
        <ele>135</ele>
        <time>2025-02-02T12:29:51Z</time>
      </trkpt>
      <trkpt lat="43.65294" lon="1.40625">
        <ele>135</ele>
        <time>2025-02-02T12:29:52Z</time>
      </trkpt>
      <trkpt lat="43.65291" lon="1.40623">
        <ele>135</ele>
        <time>2025-02-02T12:29:53Z</time>
      </trkpt>
      <trkpt lat="43.65289" lon="1.40621">
        <ele>135</ele>
        <time>2025-02-02T12:29:54Z</time>
      </trkpt>
      <trkpt lat="43.65287" lon="1.40619">
        <ele>135</ele>
        <time>2025-02-02T12:29:55Z</time>
      </trkpt>
      <trkpt lat="43.65283" lon="1.40616">
        <ele>135</ele>
        <time>2025-02-02T12:29:56Z</time>
      </trkpt>
      <trkpt lat="43.65282" lon="1.40616">
        <ele>135</ele>
        <time>2025-02-02T12:29:57Z</time>
      </trkpt>
      <trkpt lat="43.6528" lon="1.40614">
        <ele>135</ele>
        <time>2025-02-02T12:29:58Z</time>
      </trkpt>
      <trkpt lat="43.65277" lon="1.40612">
        <ele>135</ele>
        <time>2025-02-02T12:29:59Z</time>
      </trkpt>
      <trkpt lat="43.65275" lon="1.4061">
        <ele>135</ele>
        <time>2025-02-02T12:30:00Z</time>
      </trkpt>
      <trkpt lat="43.65273" lon="1.40608">
        <ele>135</ele>
        <time>2025-02-02T12:30:01Z</time>
      </trkpt>
      <trkpt lat="43.6527" lon="1.40606">
        <ele>135</ele>
        <time>2025-02-02T12:30:02Z</time>
      </trkpt>
      <trkpt lat="43.65268" lon="1.40604">
        <ele>134</ele>
        <time>2025-02-02T12:30:03Z</time>
      </trkpt>
      <trkpt lat="43.65266" lon="1.40602">
        <ele>134</ele>
        <time>2025-02-02T12:30:04Z</time>
      </trkpt>
      <trkpt lat="43.65264" lon="1.406">
        <ele>134</ele>
        <time>2025-02-02T12:30:05Z</time>
      </trkpt>
      <trkpt lat="43.65262" lon="1.40598">
        <ele>134</ele>
        <time>2025-02-02T12:30:06Z</time>
      </trkpt>
      <trkpt lat="43.65259" lon="1.40596">
        <ele>134</ele>
        <time>2025-02-02T12:30:07Z</time>
      </trkpt>
      <trkpt lat="43.65257" lon="1.40594">
        <ele>134</ele>
        <time>2025-02-02T12:30:08Z</time>
      </trkpt>
      <trkpt lat="43.65254" lon="1.40591">
        <ele>134</ele>
        <time>2025-02-02T12:30:09Z</time>
      </trkpt>
      <trkpt lat="43.65253" lon="1.40589">
        <ele>134</ele>
        <time>2025-02-02T12:30:10Z</time>
      </trkpt>
      <trkpt lat="43.6525" lon="1.40587">
        <ele>134</ele>
        <time>2025-02-02T12:30:11Z</time>
      </trkpt>
      <trkpt lat="43.65248" lon="1.40586">
        <ele>134</ele>
        <time>2025-02-02T12:30:12Z</time>
      </trkpt>
      <trkpt lat="43.65246" lon="1.40584">
        <ele>134</ele>
        <time>2025-02-02T12:30:13Z</time>
      </trkpt>
      <trkpt lat="43.65244" lon="1.40582">
        <ele>134</ele>
        <time>2025-02-02T12:30:14Z</time>
      </trkpt>
      <trkpt lat="43.65242" lon="1.40581">
        <ele>134</ele>
        <time>2025-02-02T12:30:15Z</time>
      </trkpt>
      <trkpt lat="43.65239" lon="1.40578">
        <ele>134</ele>
        <time>2025-02-02T12:30:16Z</time>
      </trkpt>
      <trkpt lat="43.65238" lon="1.40578">
        <ele>134</ele>
        <time>2025-02-02T12:30:17Z</time>
      </trkpt>
      <trkpt lat="43.65236" lon="1.40576">
        <ele>134</ele>
        <time>2025-02-02T12:30:18Z</time>
      </trkpt>
      <trkpt lat="43.65233" lon="1.40574">
        <ele>134</ele>
        <time>2025-02-02T12:30:19Z</time>
      </trkpt>
      <trkpt lat="43.65231" lon="1.40572">
        <ele>134</ele>
        <time>2025-02-02T12:30:20Z</time>
      </trkpt>
      <trkpt lat="43.65229" lon="1.40571">
        <ele>134</ele>
        <time>2025-02-02T12:30:21Z</time>
      </trkpt>
      <trkpt lat="43.65227" lon="1.40569">
        <ele>134</ele>
        <time>2025-02-02T12:30:22Z</time>
      </trkpt>
      <trkpt lat="43.65224" lon="1.40568">
        <ele>134</ele>
        <time>2025-02-02T12:30:23Z</time>
      </trkpt>
      <trkpt lat="43.65222" lon="1.40566">
        <ele>134</ele>
        <time>2025-02-02T12:30:24Z</time>
      </trkpt>
      <trkpt lat="43.6522" lon="1.40565">
        <ele>134</ele>
        <time>2025-02-02T12:30:25Z</time>
      </trkpt>
      <trkpt lat="43.65218" lon="1.40563">
        <ele>134</ele>
        <time>2025-02-02T12:30:26Z</time>
      </trkpt>
      <trkpt lat="43.65216" lon="1.40561">
        <ele>134</ele>
        <time>2025-02-02T12:30:27Z</time>
      </trkpt>
      <trkpt lat="43.65213" lon="1.40558">
        <ele>134</ele>
        <time>2025-02-02T12:30:28Z</time>
      </trkpt>
      <trkpt lat="43.65212" lon="1.40557">
        <ele>134</ele>
        <time>2025-02-02T12:30:29Z</time>
      </trkpt>
      <trkpt lat="43.65211" lon="1.40555">
        <ele>134</ele>
        <time>2025-02-02T12:30:30Z</time>
      </trkpt>
      <trkpt lat="43.65209" lon="1.40553">
        <ele>134</ele>
        <time>2025-02-02T12:30:31Z</time>
      </trkpt>
      <trkpt lat="43.65206" lon="1.40551">
        <ele>134</ele>
        <time>2025-02-02T12:30:32Z</time>
      </trkpt>
      <trkpt lat="43.65204" lon="1.40549">
        <ele>134</ele>
        <time>2025-02-02T12:30:33Z</time>
      </trkpt>
      <trkpt lat="43.65201" lon="1.40546">
        <ele>134</ele>
        <time>2025-02-02T12:30:34Z</time>
      </trkpt>
      <trkpt lat="43.65198" lon="1.40543">
        <ele>134</ele>
        <time>2025-02-02T12:30:35Z</time>
      </trkpt>
      <trkpt lat="43.65197" lon="1.40542">
        <ele>135</ele>
        <time>2025-02-02T12:30:36Z</time>
      </trkpt>
      <trkpt lat="43.65195" lon="1.4054">
        <ele>135</ele>
        <time>2025-02-02T12:30:37Z</time>
      </trkpt>
      <trkpt lat="43.65193" lon="1.40537">
        <ele>135</ele>
        <time>2025-02-02T12:30:38Z</time>
      </trkpt>
      <trkpt lat="43.6519" lon="1.40535">
        <ele>135</ele>
        <time>2025-02-02T12:30:39Z</time>
      </trkpt>
      <trkpt lat="43.65188" lon="1.40532">
        <ele>134</ele>
        <time>2025-02-02T12:30:40Z</time>
      </trkpt>
      <trkpt lat="43.65187" lon="1.4053">
        <ele>134</ele>
        <time>2025-02-02T12:30:41Z</time>
      </trkpt>
      <trkpt lat="43.65185" lon="1.40528">
        <ele>134</ele>
        <time>2025-02-02T12:30:42Z</time>
      </trkpt>
      <trkpt lat="43.65182" lon="1.40526">
        <ele>134</ele>
        <time>2025-02-02T12:30:43Z</time>
      </trkpt>
      <trkpt lat="43.6518" lon="1.40525">
        <ele>134</ele>
        <time>2025-02-02T12:30:44Z</time>
      </trkpt>
      <trkpt lat="43.65178" lon="1.40523">
        <ele>134</ele>
        <time>2025-02-02T12:30:45Z</time>
      </trkpt>
      <trkpt lat="43.65175" lon="1.40522">
        <ele>134</ele>
        <time>2025-02-02T12:30:46Z</time>
      </trkpt>
      <trkpt lat="43.65172" lon="1.40519">
        <ele>134</ele>
        <time>2025-02-02T12:30:47Z</time>
      </trkpt>
      <trkpt lat="43.6517" lon="1.40519">
        <ele>134</ele>
        <time>2025-02-02T12:30:48Z</time>
      </trkpt>
      <trkpt lat="43.65168" lon="1.40517">
        <ele>134</ele>
        <time>2025-02-02T12:30:49Z</time>
      </trkpt>
      <trkpt lat="43.65166" lon="1.40515">
        <ele>135</ele>
        <time>2025-02-02T12:30:50Z</time>
      </trkpt>
      <trkpt lat="43.65164" lon="1.40514">
        <ele>135</ele>
        <time>2025-02-02T12:30:51Z</time>
      </trkpt>
      <trkpt lat="43.65162" lon="1.40513">
        <ele>135</ele>
        <time>2025-02-02T12:30:52Z</time>
      </trkpt>
      <trkpt lat="43.65159" lon="1.40511">
        <ele>135</ele>
        <time>2025-02-02T12:30:53Z</time>
      </trkpt>
      <trkpt lat="43.65157" lon="1.4051">
        <ele>134</ele>
        <time>2025-02-02T12:30:54Z</time>
      </trkpt>
      <trkpt lat="43.65154" lon="1.40507">
        <ele>134</ele>
        <time>2025-02-02T12:30:55Z</time>
      </trkpt>
      <trkpt lat="43.65152" lon="1.40505">
        <ele>134</ele>
        <time>2025-02-02T12:30:56Z</time>
      </trkpt>
      <trkpt lat="43.6515" lon="1.40503">
        <ele>134</ele>
        <time>2025-02-02T12:30:57Z</time>
      </trkpt>
      <trkpt lat="43.65148" lon="1.405">
        <ele>134</ele>
        <time>2025-02-02T12:30:58Z</time>
      </trkpt>
      <trkpt lat="43.65146" lon="1.40497">
        <ele>134</ele>
        <time>2025-02-02T12:30:59Z</time>
      </trkpt>
      <trkpt lat="43.65144" lon="1.40495">
        <ele>134</ele>
        <time>2025-02-02T12:31:00Z</time>
      </trkpt>
      <trkpt lat="43.65142" lon="1.40493">
        <ele>134</ele>
        <time>2025-02-02T12:31:01Z</time>
      </trkpt>
      <trkpt lat="43.6514" lon="1.40491">
        <ele>134</ele>
        <time>2025-02-02T12:31:02Z</time>
      </trkpt>
      <trkpt lat="43.65138" lon="1.40488">
        <ele>134</ele>
        <time>2025-02-02T12:31:03Z</time>
      </trkpt>
      <trkpt lat="43.65136" lon="1.40486">
        <ele>134</ele>
        <time>2025-02-02T12:31:04Z</time>
      </trkpt>
      <trkpt lat="43.65134" lon="1.40484">
        <ele>134</ele>
        <time>2025-02-02T12:31:05Z</time>
      </trkpt>
      <trkpt lat="43.65131" lon="1.4048">
        <ele>134</ele>
        <time>2025-02-02T12:31:06Z</time>
      </trkpt>
      <trkpt lat="43.6513" lon="1.4048">
        <ele>134</ele>
        <time>2025-02-02T12:31:07Z</time>
      </trkpt>
      <trkpt lat="43.65128" lon="1.40477">
        <ele>134</ele>
        <time>2025-02-02T12:31:08Z</time>
      </trkpt>
      <trkpt lat="43.65126" lon="1.40475">
        <ele>134</ele>
        <time>2025-02-02T12:31:09Z</time>
      </trkpt>
      <trkpt lat="43.65124" lon="1.40473">
        <ele>134</ele>
        <time>2025-02-02T12:31:10Z</time>
      </trkpt>
      <trkpt lat="43.65121" lon="1.40471">
        <ele>134</ele>
        <time>2025-02-02T12:31:11Z</time>
      </trkpt>
      <trkpt lat="43.65119" lon="1.40469">
        <ele>134</ele>
        <time>2025-02-02T12:31:12Z</time>
      </trkpt>
      <trkpt lat="43.65116" lon="1.40466">
        <ele>134</ele>
        <time>2025-02-02T12:31:13Z</time>
      </trkpt>
      <trkpt lat="43.65115" lon="1.40465">
        <ele>135</ele>
        <time>2025-02-02T12:31:14Z</time>
      </trkpt>
      <trkpt lat="43.65113" lon="1.40463">
        <ele>135</ele>
        <time>2025-02-02T12:31:15Z</time>
      </trkpt>
      <trkpt lat="43.6511" lon="1.40461">
        <ele>135</ele>
        <time>2025-02-02T12:31:16Z</time>
      </trkpt>
      <trkpt lat="43.65108" lon="1.40459">
        <ele>135</ele>
        <time>2025-02-02T12:31:17Z</time>
      </trkpt>
      <trkpt lat="43.65106" lon="1.40457">
        <ele>135</ele>
        <time>2025-02-02T12:31:18Z</time>
      </trkpt>
      <trkpt lat="43.65104" lon="1.40455">
        <ele>135</ele>
        <time>2025-02-02T12:31:19Z</time>
      </trkpt>
      <trkpt lat="43.65102" lon="1.40453">
        <ele>135</ele>
        <time>2025-02-02T12:31:20Z</time>
      </trkpt>
      <trkpt lat="43.651" lon="1.40451">
        <ele>135</ele>
        <time>2025-02-02T12:31:21Z</time>
      </trkpt>
      <trkpt lat="43.65098" lon="1.40449">
        <ele>135</ele>
        <time>2025-02-02T12:31:22Z</time>
      </trkpt>
      <trkpt lat="43.65096" lon="1.40447">
        <ele>134</ele>
        <time>2025-02-02T12:31:23Z</time>
      </trkpt>
      <trkpt lat="43.65095" lon="1.40445">
        <ele>134</ele>
        <time>2025-02-02T12:31:24Z</time>
      </trkpt>
      <trkpt lat="43.65092" lon="1.40442">
        <ele>134</ele>
        <time>2025-02-02T12:31:25Z</time>
      </trkpt>
      <trkpt lat="43.65091" lon="1.40441">
        <ele>134</ele>
        <time>2025-02-02T12:31:26Z</time>
      </trkpt>
      <trkpt lat="43.6509" lon="1.40439">
        <ele>135</ele>
        <time>2025-02-02T12:31:27Z</time>
      </trkpt>
      <trkpt lat="43.65088" lon="1.40437">
        <ele>135</ele>
        <time>2025-02-02T12:31:28Z</time>
      </trkpt>
      <trkpt lat="43.65086" lon="1.40436">
        <ele>135</ele>
        <time>2025-02-02T12:31:29Z</time>
      </trkpt>
      <trkpt lat="43.65084" lon="1.40434">
        <ele>135</ele>
        <time>2025-02-02T12:31:30Z</time>
      </trkpt>
      <trkpt lat="43.65082" lon="1.40432">
        <ele>135</ele>
        <time>2025-02-02T12:31:31Z</time>
      </trkpt>
      <trkpt lat="43.6508" lon="1.40431">
        <ele>135</ele>
        <time>2025-02-02T12:31:32Z</time>
      </trkpt>
      <trkpt lat="43.65078" lon="1.40429">
        <ele>136</ele>
        <time>2025-02-02T12:31:33Z</time>
      </trkpt>
      <trkpt lat="43.65075" lon="1.40427">
        <ele>136</ele>
        <time>2025-02-02T12:31:34Z</time>
      </trkpt>
      <trkpt lat="43.65074" lon="1.40427">
        <ele>136</ele>
        <time>2025-02-02T12:31:35Z</time>
      </trkpt>
      <trkpt lat="43.65071" lon="1.40425">
        <ele>135</ele>
        <time>2025-02-02T12:31:36Z</time>
      </trkpt>
      <trkpt lat="43.65069" lon="1.40424">
        <ele>135</ele>
        <time>2025-02-02T12:31:37Z</time>
      </trkpt>
      <trkpt lat="43.65067" lon="1.40422">
        <ele>135</ele>
        <time>2025-02-02T12:31:38Z</time>
      </trkpt>
      <trkpt lat="43.65065" lon="1.4042">
        <ele>135</ele>
        <time>2025-02-02T12:31:39Z</time>
      </trkpt>
      <trkpt lat="43.65063" lon="1.40418">
        <ele>135</ele>
        <time>2025-02-02T12:31:40Z</time>
      </trkpt>
      <trkpt lat="43.65061" lon="1.40416">
        <ele>136</ele>
        <time>2025-02-02T12:31:41Z</time>
      </trkpt>
      <trkpt lat="43.65059" lon="1.40413">
        <ele>136</ele>
        <time>2025-02-02T12:31:42Z</time>
      </trkpt>
      <trkpt lat="43.65057" lon="1.40411">
        <ele>136</ele>
        <time>2025-02-02T12:31:43Z</time>
      </trkpt>
      <trkpt lat="43.65055" lon="1.40408">
        <ele>136</ele>
        <time>2025-02-02T12:31:44Z</time>
      </trkpt>
      <trkpt lat="43.65053" lon="1.40405">
        <ele>136</ele>
        <time>2025-02-02T12:31:45Z</time>
      </trkpt>
      <trkpt lat="43.65051" lon="1.40403">
        <ele>136</ele>
        <time>2025-02-02T12:31:46Z</time>
      </trkpt>
      <trkpt lat="43.65048" lon="1.40401">
        <ele>136</ele>
        <time>2025-02-02T12:31:47Z</time>
      </trkpt>
      <trkpt lat="43.65046" lon="1.404">
        <ele>136</ele>
        <time>2025-02-02T12:31:48Z</time>
      </trkpt>
      <trkpt lat="43.65045" lon="1.40398">
        <ele>136</ele>
        <time>2025-02-02T12:31:49Z</time>
      </trkpt>
      <trkpt lat="43.65043" lon="1.40396">
        <ele>136</ele>
        <time>2025-02-02T12:31:50Z</time>
      </trkpt>
      <trkpt lat="43.65043" lon="1.40396">
        <ele>136</ele>
        <time>2025-02-02T12:31:51Z</time>
      </trkpt>
      <trkpt lat="43.6504" lon="1.40394">
        <ele>136</ele>
        <time>2025-02-02T12:31:52Z</time>
      </trkpt>
      <trkpt lat="43.65038" lon="1.40392">
        <ele>136</ele>
        <time>2025-02-02T12:31:53Z</time>
      </trkpt>
      <trkpt lat="43.65036" lon="1.4039">
        <ele>136</ele>
        <time>2025-02-02T12:31:54Z</time>
      </trkpt>
      <trkpt lat="43.65033" lon="1.40387">
        <ele>136</ele>
        <time>2025-02-02T12:31:55Z</time>
      </trkpt>
      <trkpt lat="43.65032" lon="1.40386">
        <ele>136</ele>
        <time>2025-02-02T12:31:56Z</time>
      </trkpt>
      <trkpt lat="43.6503" lon="1.40383">
        <ele>136</ele>
        <time>2025-02-02T12:31:57Z</time>
      </trkpt>
      <trkpt lat="43.65028" lon="1.40381">
        <ele>136</ele>
        <time>2025-02-02T12:31:58Z</time>
      </trkpt>
      <trkpt lat="43.65027" lon="1.40379">
        <ele>136</ele>
        <time>2025-02-02T12:31:59Z</time>
      </trkpt>
      <trkpt lat="43.65025" lon="1.40376">
        <ele>136</ele>
        <time>2025-02-02T12:32:00Z</time>
      </trkpt>
      <trkpt lat="43.65023" lon="1.40374">
        <ele>136</ele>
        <time>2025-02-02T12:32:01Z</time>
      </trkpt>
      <trkpt lat="43.65021" lon="1.40371">
        <ele>136</ele>
        <time>2025-02-02T12:32:02Z</time>
      </trkpt>
      <trkpt lat="43.65018" lon="1.40368">
        <ele>136</ele>
        <time>2025-02-02T12:32:03Z</time>
      </trkpt>
      <trkpt lat="43.65017" lon="1.40366">
        <ele>136</ele>
        <time>2025-02-02T12:32:04Z</time>
      </trkpt>
      <trkpt lat="43.65016" lon="1.40364">
        <ele>136</ele>
        <time>2025-02-02T12:32:05Z</time>
      </trkpt>
      <trkpt lat="43.65014" lon="1.40362">
        <ele>136</ele>
        <time>2025-02-02T12:32:06Z</time>
      </trkpt>
      <trkpt lat="43.65012" lon="1.4036">
        <ele>136</ele>
        <time>2025-02-02T12:32:07Z</time>
      </trkpt>
      <trkpt lat="43.6501" lon="1.40358">
        <ele>136</ele>
        <time>2025-02-02T12:32:08Z</time>
      </trkpt>
      <trkpt lat="43.65008" lon="1.40356">
        <ele>136</ele>
        <time>2025-02-02T12:32:09Z</time>
      </trkpt>
      <trkpt lat="43.65006" lon="1.40354">
        <ele>136</ele>
        <time>2025-02-02T12:32:10Z</time>
      </trkpt>
      <trkpt lat="43.65005" lon="1.40352">
        <ele>136</ele>
        <time>2025-02-02T12:32:11Z</time>
      </trkpt>
      <trkpt lat="43.65002" lon="1.4035">
        <ele>136</ele>
        <time>2025-02-02T12:32:12Z</time>
      </trkpt>
      <trkpt lat="43.65" lon="1.40348">
        <ele>136</ele>
        <time>2025-02-02T12:32:13Z</time>
      </trkpt>
      <trkpt lat="43.64998" lon="1.40346">
        <ele>136</ele>
        <time>2025-02-02T12:32:14Z</time>
      </trkpt>
      <trkpt lat="43.64995" lon="1.40342">
        <ele>136</ele>
        <time>2025-02-02T12:32:15Z</time>
      </trkpt>
      <trkpt lat="43.64994" lon="1.40341">
        <ele>136</ele>
        <time>2025-02-02T12:32:16Z</time>
      </trkpt>
      <trkpt lat="43.64992" lon="1.40339">
        <ele>136</ele>
        <time>2025-02-02T12:32:17Z</time>
      </trkpt>
      <trkpt lat="43.64989" lon="1.40336">
        <ele>136</ele>
        <time>2025-02-02T12:32:18Z</time>
      </trkpt>
      <trkpt lat="43.64987" lon="1.40334">
        <ele>136</ele>
        <time>2025-02-02T12:32:19Z</time>
      </trkpt>
      <trkpt lat="43.64985" lon="1.40331">
        <ele>136</ele>
        <time>2025-02-02T12:32:20Z</time>
      </trkpt>
      <trkpt lat="43.64983" lon="1.40329">
        <ele>136</ele>
        <time>2025-02-02T12:32:21Z</time>
      </trkpt>
      <trkpt lat="43.64979" lon="1.40326">
        <ele>136</ele>
        <time>2025-02-02T12:32:22Z</time>
      </trkpt>
      <trkpt lat="43.64978" lon="1.40325">
        <ele>136</ele>
        <time>2025-02-02T12:32:23Z</time>
      </trkpt>
      <trkpt lat="43.64976" lon="1.40322">
        <ele>136</ele>
        <time>2025-02-02T12:32:24Z</time>
      </trkpt>
      <trkpt lat="43.64974" lon="1.4032">
        <ele>136</ele>
        <time>2025-02-02T12:32:25Z</time>
      </trkpt>
      <trkpt lat="43.64972" lon="1.40318">
        <ele>136</ele>
        <time>2025-02-02T12:32:26Z</time>
      </trkpt>
      <trkpt lat="43.64969" lon="1.40315">
        <ele>136</ele>
        <time>2025-02-02T12:32:27Z</time>
      </trkpt>
      <trkpt lat="43.64967" lon="1.40313">
        <ele>137</ele>
        <time>2025-02-02T12:32:28Z</time>
      </trkpt>
      <trkpt lat="43.64965" lon="1.40311">
        <ele>137</ele>
        <time>2025-02-02T12:32:29Z</time>
      </trkpt>
      <trkpt lat="43.64963" lon="1.4031">
        <ele>137</ele>
        <time>2025-02-02T12:32:30Z</time>
      </trkpt>
      <trkpt lat="43.64961" lon="1.40307">
        <ele>137</ele>
        <time>2025-02-02T12:32:31Z</time>
      </trkpt>
      <trkpt lat="43.64959" lon="1.40305">
        <ele>137</ele>
        <time>2025-02-02T12:32:32Z</time>
      </trkpt>
      <trkpt lat="43.64955" lon="1.40302">
        <ele>137</ele>
        <time>2025-02-02T12:32:33Z</time>
      </trkpt>
      <trkpt lat="43.64954" lon="1.40301">
        <ele>137</ele>
        <time>2025-02-02T12:32:34Z</time>
      </trkpt>
      <trkpt lat="43.64952" lon="1.40299">
        <ele>137</ele>
        <time>2025-02-02T12:32:35Z</time>
      </trkpt>
      <trkpt lat="43.6495" lon="1.40297">
        <ele>137</ele>
        <time>2025-02-02T12:32:36Z</time>
      </trkpt>
      <trkpt lat="43.64948" lon="1.40295">
        <ele>137</ele>
        <time>2025-02-02T12:32:37Z</time>
      </trkpt>
      <trkpt lat="43.64946" lon="1.40293">
        <ele>137</ele>
        <time>2025-02-02T12:32:38Z</time>
      </trkpt>
      <trkpt lat="43.64943" lon="1.40292">
        <ele>137</ele>
        <time>2025-02-02T12:32:39Z</time>
      </trkpt>
      <trkpt lat="43.64941" lon="1.4029">
        <ele>137</ele>
        <time>2025-02-02T12:32:40Z</time>
      </trkpt>
      <trkpt lat="43.64938" lon="1.40287">
        <ele>137</ele>
        <time>2025-02-02T12:32:41Z</time>
      </trkpt>
      <trkpt lat="43.64937" lon="1.40286">
        <ele>137</ele>
        <time>2025-02-02T12:32:42Z</time>
      </trkpt>
      <trkpt lat="43.64935" lon="1.40285">
        <ele>137</ele>
        <time>2025-02-02T12:32:43Z</time>
      </trkpt>
      <trkpt lat="43.64933" lon="1.40283">
        <ele>137</ele>
        <time>2025-02-02T12:32:44Z</time>
      </trkpt>
      <trkpt lat="43.6493" lon="1.40282">
        <ele>137</ele>
        <time>2025-02-02T12:32:45Z</time>
      </trkpt>
      <trkpt lat="43.64928" lon="1.4028">
        <ele>137</ele>
        <time>2025-02-02T12:32:46Z</time>
      </trkpt>
      <trkpt lat="43.64925" lon="1.40278">
        <ele>137</ele>
        <time>2025-02-02T12:32:47Z</time>
      </trkpt>
      <trkpt lat="43.64923" lon="1.40276">
        <ele>137</ele>
        <time>2025-02-02T12:32:48Z</time>
      </trkpt>
      <trkpt lat="43.64921" lon="1.40273">
        <ele>137</ele>
        <time>2025-02-02T12:32:49Z</time>
      </trkpt>
      <trkpt lat="43.64918" lon="1.40271">
        <ele>137</ele>
        <time>2025-02-02T12:32:50Z</time>
      </trkpt>
      <trkpt lat="43.64916" lon="1.40269">
        <ele>137</ele>
        <time>2025-02-02T12:32:51Z</time>
      </trkpt>
      <trkpt lat="43.64912" lon="1.40266">
        <ele>137</ele>
        <time>2025-02-02T12:32:52Z</time>
      </trkpt>
      <trkpt lat="43.64911" lon="1.40265">
        <ele>137</ele>
        <time>2025-02-02T12:32:53Z</time>
      </trkpt>
      <trkpt lat="43.64909" lon="1.40264">
        <ele>137</ele>
        <time>2025-02-02T12:32:54Z</time>
      </trkpt>
      <trkpt lat="43.64906" lon="1.40262">
        <ele>137</ele>
        <time>2025-02-02T12:32:55Z</time>
      </trkpt>
      <trkpt lat="43.64904" lon="1.4026">
        <ele>137</ele>
        <time>2025-02-02T12:32:56Z</time>
      </trkpt>
      <trkpt lat="43.64902" lon="1.40258">
        <ele>137</ele>
        <time>2025-02-02T12:32:57Z</time>
      </trkpt>
      <trkpt lat="43.649" lon="1.40256">
        <ele>137</ele>
        <time>2025-02-02T12:32:58Z</time>
      </trkpt>
      <trkpt lat="43.64897" lon="1.40254">
        <ele>137</ele>
        <time>2025-02-02T12:32:59Z</time>
      </trkpt>
      <trkpt lat="43.64894" lon="1.40252">
        <ele>137</ele>
        <time>2025-02-02T12:33:00Z</time>
      </trkpt>
      <trkpt lat="43.64893" lon="1.40251">
        <ele>137</ele>
        <time>2025-02-02T12:33:01Z</time>
      </trkpt>
      <trkpt lat="43.64891" lon="1.40249">
        <ele>137</ele>
        <time>2025-02-02T12:33:02Z</time>
      </trkpt>
      <trkpt lat="43.64889" lon="1.40247">
        <ele>137</ele>
        <time>2025-02-02T12:33:03Z</time>
      </trkpt>
      <trkpt lat="43.64887" lon="1.40246">
        <ele>137</ele>
        <time>2025-02-02T12:33:04Z</time>
      </trkpt>
      <trkpt lat="43.64885" lon="1.40244">
        <ele>138</ele>
        <time>2025-02-02T12:33:05Z</time>
      </trkpt>
      <trkpt lat="43.64883" lon="1.40242">
        <ele>138</ele>
        <time>2025-02-02T12:33:06Z</time>
      </trkpt>
      <trkpt lat="43.64881" lon="1.40241">
        <ele>138</ele>
        <time>2025-02-02T12:33:07Z</time>
      </trkpt>
      <trkpt lat="43.64879" lon="1.40239">
        <ele>138</ele>
        <time>2025-02-02T12:33:08Z</time>
      </trkpt>
      <trkpt lat="43.64876" lon="1.40238">
        <ele>138</ele>
        <time>2025-02-02T12:33:09Z</time>
      </trkpt>
      <trkpt lat="43.64874" lon="1.40238">
        <ele>138</ele>
        <time>2025-02-02T12:33:10Z</time>
      </trkpt>
      <trkpt lat="43.64871" lon="1.40237">
        <ele>138</ele>
        <time>2025-02-02T12:33:11Z</time>
      </trkpt>
      <trkpt lat="43.64867" lon="1.40236">
        <ele>138</ele>
        <time>2025-02-02T12:33:12Z</time>
      </trkpt>
      <trkpt lat="43.64866" lon="1.40236">
        <ele>138</ele>
        <time>2025-02-02T12:33:13Z</time>
      </trkpt>
      <trkpt lat="43.64863" lon="1.40235">
        <ele>138</ele>
        <time>2025-02-02T12:33:14Z</time>
      </trkpt>
      <trkpt lat="43.6486" lon="1.40235">
        <ele>138</ele>
        <time>2025-02-02T12:33:15Z</time>
      </trkpt>
      <trkpt lat="43.64857" lon="1.40235">
        <ele>138</ele>
        <time>2025-02-02T12:33:16Z</time>
      </trkpt>
      <trkpt lat="43.64855" lon="1.40234">
        <ele>138</ele>
        <time>2025-02-02T12:33:17Z</time>
      </trkpt>
      <trkpt lat="43.64852" lon="1.40234">
        <ele>138</ele>
        <time>2025-02-02T12:33:18Z</time>
      </trkpt>
      <trkpt lat="43.64848" lon="1.40234">
        <ele>138</ele>
        <time>2025-02-02T12:33:19Z</time>
      </trkpt>
      <trkpt lat="43.64847" lon="1.40234">
        <ele>138</ele>
        <time>2025-02-02T12:33:20Z</time>
      </trkpt>
      <trkpt lat="43.64845" lon="1.40234">
        <ele>138</ele>
        <time>2025-02-02T12:33:21Z</time>
      </trkpt>
      <trkpt lat="43.64842" lon="1.40234">
        <ele>138</ele>
        <time>2025-02-02T12:33:22Z</time>
      </trkpt>
      <trkpt lat="43.6484" lon="1.40234">
        <ele>138</ele>
        <time>2025-02-02T12:33:23Z</time>
      </trkpt>
      <trkpt lat="43.64837" lon="1.40235">
        <ele>138</ele>
        <time>2025-02-02T12:33:24Z</time>
      </trkpt>
      <trkpt lat="43.64835" lon="1.40235">
        <ele>138</ele>
        <time>2025-02-02T12:33:25Z</time>
      </trkpt>
      <trkpt lat="43.64832" lon="1.40235">
        <ele>138</ele>
        <time>2025-02-02T12:33:26Z</time>
      </trkpt>
      <trkpt lat="43.64829" lon="1.40235">
        <ele>138</ele>
        <time>2025-02-02T12:33:27Z</time>
      </trkpt>
      <trkpt lat="43.64827" lon="1.40236">
        <ele>138</ele>
        <time>2025-02-02T12:33:28Z</time>
      </trkpt>
      <trkpt lat="43.64825" lon="1.40236">
        <ele>138</ele>
        <time>2025-02-02T12:33:29Z</time>
      </trkpt>
      <trkpt lat="43.64822" lon="1.40237">
        <ele>138</ele>
        <time>2025-02-02T12:33:30Z</time>
      </trkpt>
      <trkpt lat="43.64819" lon="1.40237">
        <ele>138</ele>
        <time>2025-02-02T12:33:31Z</time>
      </trkpt>
      <trkpt lat="43.64817" lon="1.40238">
        <ele>138</ele>
        <time>2025-02-02T12:33:32Z</time>
      </trkpt>
      <trkpt lat="43.64815" lon="1.40237">
        <ele>138</ele>
        <time>2025-02-02T12:33:33Z</time>
      </trkpt>
      <trkpt lat="43.64813" lon="1.40237">
        <ele>138</ele>
        <time>2025-02-02T12:33:34Z</time>
      </trkpt>
      <trkpt lat="43.64811" lon="1.40237">
        <ele>138</ele>
        <time>2025-02-02T12:33:35Z</time>
      </trkpt>
      <trkpt lat="43.64809" lon="1.40237">
        <ele>138</ele>
        <time>2025-02-02T12:33:36Z</time>
      </trkpt>
      <trkpt lat="43.64807" lon="1.40237">
        <ele>138</ele>
        <time>2025-02-02T12:33:37Z</time>
      </trkpt>
      <trkpt lat="43.64803" lon="1.40236">
        <ele>138</ele>
        <time>2025-02-02T12:33:38Z</time>
      </trkpt>
      <trkpt lat="43.64802" lon="1.40236">
        <ele>138</ele>
        <time>2025-02-02T12:33:39Z</time>
      </trkpt>
      <trkpt lat="43.64799" lon="1.40236">
        <ele>138</ele>
        <time>2025-02-02T12:33:40Z</time>
      </trkpt>
      <trkpt lat="43.64796" lon="1.40236">
        <ele>138</ele>
        <time>2025-02-02T12:33:41Z</time>
      </trkpt>
      <trkpt lat="43.64794" lon="1.40236">
        <ele>138</ele>
        <time>2025-02-02T12:33:42Z</time>
      </trkpt>
      <trkpt lat="43.64791" lon="1.40236">
        <ele>138</ele>
        <time>2025-02-02T12:33:43Z</time>
      </trkpt>
      <trkpt lat="43.64789" lon="1.40235">
        <ele>138</ele>
        <time>2025-02-02T12:33:44Z</time>
      </trkpt>
      <trkpt lat="43.64786" lon="1.40235">
        <ele>138</ele>
        <time>2025-02-02T12:33:45Z</time>
      </trkpt>
      <trkpt lat="43.64783" lon="1.40235">
        <ele>138</ele>
        <time>2025-02-02T12:33:46Z</time>
      </trkpt>
      <trkpt lat="43.64781" lon="1.40235">
        <ele>138</ele>
        <time>2025-02-02T12:33:47Z</time>
      </trkpt>
      <trkpt lat="43.64779" lon="1.40235">
        <ele>138</ele>
        <time>2025-02-02T12:33:48Z</time>
      </trkpt>
      <trkpt lat="43.64776" lon="1.40236">
        <ele>138</ele>
        <time>2025-02-02T12:33:49Z</time>
      </trkpt>
      <trkpt lat="43.64774" lon="1.40236">
        <ele>138</ele>
        <time>2025-02-02T12:33:50Z</time>
      </trkpt>
      <trkpt lat="43.6477" lon="1.40237">
        <ele>138</ele>
        <time>2025-02-02T12:33:51Z</time>
      </trkpt>
      <trkpt lat="43.64769" lon="1.40236">
        <ele>138</ele>
        <time>2025-02-02T12:33:52Z</time>
      </trkpt>
      <trkpt lat="43.64766" lon="1.40236">
        <ele>138</ele>
        <time>2025-02-02T12:33:53Z</time>
      </trkpt>
      <trkpt lat="43.64764" lon="1.40236">
        <ele>138</ele>
        <time>2025-02-02T12:33:54Z</time>
      </trkpt>
      <trkpt lat="43.64761" lon="1.40235">
        <ele>138</ele>
        <time>2025-02-02T12:33:55Z</time>
      </trkpt>
      <trkpt lat="43.64759" lon="1.40236">
        <ele>138</ele>
        <time>2025-02-02T12:33:56Z</time>
      </trkpt>
      <trkpt lat="43.64756" lon="1.40236">
        <ele>138</ele>
        <time>2025-02-02T12:33:57Z</time>
      </trkpt>
      <trkpt lat="43.64756" lon="1.40236">
        <ele>138</ele>
        <time>2025-02-02T12:33:58Z</time>
      </trkpt>
      <trkpt lat="43.64753" lon="1.40237">
        <ele>138</ele>
        <time>2025-02-02T12:33:59Z</time>
      </trkpt>
      <trkpt lat="43.64751" lon="1.40237">
        <ele>138</ele>
        <time>2025-02-02T12:34:00Z</time>
      </trkpt>
      <trkpt lat="43.64748" lon="1.40237">
        <ele>138</ele>
        <time>2025-02-02T12:34:01Z</time>
      </trkpt>
      <trkpt lat="43.64745" lon="1.40237">
        <ele>138</ele>
        <time>2025-02-02T12:34:02Z</time>
      </trkpt>
      <trkpt lat="43.64743" lon="1.40238">
        <ele>138</ele>
        <time>2025-02-02T12:34:03Z</time>
      </trkpt>
      <trkpt lat="43.6474" lon="1.40238">
        <ele>138</ele>
        <time>2025-02-02T12:34:04Z</time>
      </trkpt>
      <trkpt lat="43.64737" lon="1.40239">
        <ele>138</ele>
        <time>2025-02-02T12:34:05Z</time>
      </trkpt>
      <trkpt lat="43.64734" lon="1.40239">
        <ele>138</ele>
        <time>2025-02-02T12:34:06Z</time>
      </trkpt>
      <trkpt lat="43.64732" lon="1.4024">
        <ele>138</ele>
        <time>2025-02-02T12:34:07Z</time>
      </trkpt>
      <trkpt lat="43.64729" lon="1.40241">
        <ele>138</ele>
        <time>2025-02-02T12:34:08Z</time>
      </trkpt>
      <trkpt lat="43.64727" lon="1.40241">
        <ele>138</ele>
        <time>2025-02-02T12:34:09Z</time>
      </trkpt>
      <trkpt lat="43.64725" lon="1.4024">
        <ele>138</ele>
        <time>2025-02-02T12:34:10Z</time>
      </trkpt>
      <trkpt lat="43.64722" lon="1.4024">
        <ele>138</ele>
        <time>2025-02-02T12:34:11Z</time>
      </trkpt>
      <trkpt lat="43.64718" lon="1.40241">
        <ele>138</ele>
        <time>2025-02-02T12:34:12Z</time>
      </trkpt>
      <trkpt lat="43.64717" lon="1.40241">
        <ele>139</ele>
        <time>2025-02-02T12:34:13Z</time>
      </trkpt>
      <trkpt lat="43.64714" lon="1.40242">
        <ele>139</ele>
        <time>2025-02-02T12:34:14Z</time>
      </trkpt>
      <trkpt lat="43.64712" lon="1.40242">
        <ele>139</ele>
        <time>2025-02-02T12:34:15Z</time>
      </trkpt>
      <trkpt lat="43.64709" lon="1.40243">
        <ele>139</ele>
        <time>2025-02-02T12:34:16Z</time>
      </trkpt>
      <trkpt lat="43.64707" lon="1.40244">
        <ele>138</ele>
        <time>2025-02-02T12:34:17Z</time>
      </trkpt>
      <trkpt lat="43.64705" lon="1.40245">
        <ele>138</ele>
        <time>2025-02-02T12:34:18Z</time>
      </trkpt>
      <trkpt lat="43.64702" lon="1.40245">
        <ele>138</ele>
        <time>2025-02-02T12:34:19Z</time>
      </trkpt>
      <trkpt lat="43.647" lon="1.40246">
        <ele>138</ele>
        <time>2025-02-02T12:34:20Z</time>
      </trkpt>
      <trkpt lat="43.64698" lon="1.40247">
        <ele>138</ele>
        <time>2025-02-02T12:34:21Z</time>
      </trkpt>
      <trkpt lat="43.64695" lon="1.40249">
        <ele>138</ele>
        <time>2025-02-02T12:34:22Z</time>
      </trkpt>
      <trkpt lat="43.64693" lon="1.4025">
        <ele>138</ele>
        <time>2025-02-02T12:34:23Z</time>
      </trkpt>
      <trkpt lat="43.64691" lon="1.40252">
        <ele>138</ele>
        <time>2025-02-02T12:34:24Z</time>
      </trkpt>
      <trkpt lat="43.64689" lon="1.40253">
        <ele>138</ele>
        <time>2025-02-02T12:34:25Z</time>
      </trkpt>
      <trkpt lat="43.64687" lon="1.40254">
        <ele>139</ele>
        <time>2025-02-02T12:34:26Z</time>
      </trkpt>
      <trkpt lat="43.64685" lon="1.40255">
        <ele>139</ele>
        <time>2025-02-02T12:34:27Z</time>
      </trkpt>
      <trkpt lat="43.64683" lon="1.40256">
        <ele>138</ele>
        <time>2025-02-02T12:34:28Z</time>
      </trkpt>
      <trkpt lat="43.6468" lon="1.40256">
        <ele>138</ele>
        <time>2025-02-02T12:34:29Z</time>
      </trkpt>
      <trkpt lat="43.64678" lon="1.40257">
        <ele>139</ele>
        <time>2025-02-02T12:34:30Z</time>
      </trkpt>
      <trkpt lat="43.64676" lon="1.40258">
        <ele>139</ele>
        <time>2025-02-02T12:34:31Z</time>
      </trkpt>
      <trkpt lat="43.64671" lon="1.40259">
        <ele>139</ele>
        <time>2025-02-02T12:34:32Z</time>
      </trkpt>
      <trkpt lat="43.6467" lon="1.40259">
        <ele>139</ele>
        <time>2025-02-02T12:34:33Z</time>
      </trkpt>
      <trkpt lat="43.64667" lon="1.40259">
        <ele>139</ele>
        <time>2025-02-02T12:34:34Z</time>
      </trkpt>
      <trkpt lat="43.64663" lon="1.4026">
        <ele>139</ele>
        <time>2025-02-02T12:34:35Z</time>
      </trkpt>
      <trkpt lat="43.64662" lon="1.40261">
        <ele>139</ele>
        <time>2025-02-02T12:34:36Z</time>
      </trkpt>
      <trkpt lat="43.64659" lon="1.40261">
        <ele>139</ele>
        <time>2025-02-02T12:34:37Z</time>
      </trkpt>
      <trkpt lat="43.64657" lon="1.40262">
        <ele>139</ele>
        <time>2025-02-02T12:34:38Z</time>
      </trkpt>
      <trkpt lat="43.64654" lon="1.40262">
        <ele>139</ele>
        <time>2025-02-02T12:34:39Z</time>
      </trkpt>
      <trkpt lat="43.64651" lon="1.40262">
        <ele>139</ele>
        <time>2025-02-02T12:34:40Z</time>
      </trkpt>
      <trkpt lat="43.64649" lon="1.40263">
        <ele>139</ele>
        <time>2025-02-02T12:34:41Z</time>
      </trkpt>
      <trkpt lat="43.64647" lon="1.40264">
        <ele>139</ele>
        <time>2025-02-02T12:34:42Z</time>
      </trkpt>
      <trkpt lat="43.64644" lon="1.40265">
        <ele>139</ele>
        <time>2025-02-02T12:34:43Z</time>
      </trkpt>
      <trkpt lat="43.64641" lon="1.40266">
        <ele>139</ele>
        <time>2025-02-02T12:34:44Z</time>
      </trkpt>
      <trkpt lat="43.64639" lon="1.40267">
        <ele>139</ele>
        <time>2025-02-02T12:34:45Z</time>
      </trkpt>
      <trkpt lat="43.64636" lon="1.40268">
        <ele>139</ele>
        <time>2025-02-02T12:34:46Z</time>
      </trkpt>
      <trkpt lat="43.64634" lon="1.4027">
        <ele>139</ele>
        <time>2025-02-02T12:34:47Z</time>
      </trkpt>
      <trkpt lat="43.64632" lon="1.40271">
        <ele>139</ele>
        <time>2025-02-02T12:34:48Z</time>
      </trkpt>
      <trkpt lat="43.64629" lon="1.40271">
        <ele>139</ele>
        <time>2025-02-02T12:34:49Z</time>
      </trkpt>
      <trkpt lat="43.64627" lon="1.40272">
        <ele>139</ele>
        <time>2025-02-02T12:34:50Z</time>
      </trkpt>
      <trkpt lat="43.64623" lon="1.40274">
        <ele>139</ele>
        <time>2025-02-02T12:34:51Z</time>
      </trkpt>
      <trkpt lat="43.64622" lon="1.40275">
        <ele>139</ele>
        <time>2025-02-02T12:34:52Z</time>
      </trkpt>
      <trkpt lat="43.64618" lon="1.40276">
        <ele>139</ele>
        <time>2025-02-02T12:34:53Z</time>
      </trkpt>
      <trkpt lat="43.64614" lon="1.40277">
        <ele>139</ele>
        <time>2025-02-02T12:34:54Z</time>
      </trkpt>
      <trkpt lat="43.64613" lon="1.40277">
        <ele>139</ele>
        <time>2025-02-02T12:34:55Z</time>
      </trkpt>
      <trkpt lat="43.64611" lon="1.40278">
        <ele>139</ele>
        <time>2025-02-02T12:34:56Z</time>
      </trkpt>
      <trkpt lat="43.64608" lon="1.40278">
        <ele>139</ele>
        <time>2025-02-02T12:34:57Z</time>
      </trkpt>
      <trkpt lat="43.64606" lon="1.40279">
        <ele>139</ele>
        <time>2025-02-02T12:34:58Z</time>
      </trkpt>
      <trkpt lat="43.64604" lon="1.4028">
        <ele>139</ele>
        <time>2025-02-02T12:34:59Z</time>
      </trkpt>
      <trkpt lat="43.64602" lon="1.4028">
        <ele>140</ele>
        <time>2025-02-02T12:35:00Z</time>
      </trkpt>
      <trkpt lat="43.64599" lon="1.40281">
        <ele>140</ele>
        <time>2025-02-02T12:35:01Z</time>
      </trkpt>
      <trkpt lat="43.64596" lon="1.40282">
        <ele>140</ele>
        <time>2025-02-02T12:35:02Z</time>
      </trkpt>
      <trkpt lat="43.64594" lon="1.40282">
        <ele>140</ele>
        <time>2025-02-02T12:35:03Z</time>
      </trkpt>
      <trkpt lat="43.64593" lon="1.40283">
        <ele>140</ele>
        <time>2025-02-02T12:35:04Z</time>
      </trkpt>
      <trkpt lat="43.64591" lon="1.40283">
        <ele>140</ele>
        <time>2025-02-02T12:35:05Z</time>
      </trkpt>
      <trkpt lat="43.64589" lon="1.40283">
        <ele>140</ele>
        <time>2025-02-02T12:35:06Z</time>
      </trkpt>
      <trkpt lat="43.64582" lon="1.40285">
        <ele>140</ele>
        <time>2025-02-02T12:35:07Z</time>
      </trkpt>
      <trkpt lat="43.64579" lon="1.40285">
        <ele>140</ele>
        <time>2025-02-02T12:35:08Z</time>
      </trkpt>
      <trkpt lat="43.64575" lon="1.40285">
        <ele>140</ele>
        <time>2025-02-02T12:35:09Z</time>
      </trkpt>
      <trkpt lat="43.64573" lon="1.40286">
        <ele>140</ele>
        <time>2025-02-02T12:35:10Z</time>
      </trkpt>
      <trkpt lat="43.64571" lon="1.40287">
        <ele>139</ele>
        <time>2025-02-02T12:35:11Z</time>
      </trkpt>
      <trkpt lat="43.64568" lon="1.40288">
        <ele>139</ele>
        <time>2025-02-02T12:35:12Z</time>
      </trkpt>
      <trkpt lat="43.64564" lon="1.40289">
        <ele>139</ele>
        <time>2025-02-02T12:35:13Z</time>
      </trkpt>
      <trkpt lat="43.64563" lon="1.40289">
        <ele>139</ele>
        <time>2025-02-02T12:35:14Z</time>
      </trkpt>
      <trkpt lat="43.64561" lon="1.4029">
        <ele>139</ele>
        <time>2025-02-02T12:35:15Z</time>
      </trkpt>
      <trkpt lat="43.64558" lon="1.40291">
        <ele>139</ele>
        <time>2025-02-02T12:35:16Z</time>
      </trkpt>
      <trkpt lat="43.64556" lon="1.40292">
        <ele>139</ele>
        <time>2025-02-02T12:35:17Z</time>
      </trkpt>
      <trkpt lat="43.64553" lon="1.40293">
        <ele>139</ele>
        <time>2025-02-02T12:35:18Z</time>
      </trkpt>
      <trkpt lat="43.64551" lon="1.40293">
        <ele>139</ele>
        <time>2025-02-02T12:35:19Z</time>
      </trkpt>
      <trkpt lat="43.64549" lon="1.40294">
        <ele>139</ele>
        <time>2025-02-02T12:35:20Z</time>
      </trkpt>
      <trkpt lat="43.64546" lon="1.40295">
        <ele>139</ele>
        <time>2025-02-02T12:35:21Z</time>
      </trkpt>
      <trkpt lat="43.64543" lon="1.40296">
        <ele>139</ele>
        <time>2025-02-02T12:35:22Z</time>
      </trkpt>
      <trkpt lat="43.6454" lon="1.40297">
        <ele>139</ele>
        <time>2025-02-02T12:35:23Z</time>
      </trkpt>
      <trkpt lat="43.64538" lon="1.40299">
        <ele>139</ele>
        <time>2025-02-02T12:35:24Z</time>
      </trkpt>
      <trkpt lat="43.64536" lon="1.403">
        <ele>139</ele>
        <time>2025-02-02T12:35:25Z</time>
      </trkpt>
      <trkpt lat="43.64533" lon="1.40301">
        <ele>139</ele>
        <time>2025-02-02T12:35:26Z</time>
      </trkpt>
      <trkpt lat="43.6453" lon="1.40302">
        <ele>139</ele>
        <time>2025-02-02T12:35:27Z</time>
      </trkpt>
      <trkpt lat="43.64528" lon="1.40302">
        <ele>139</ele>
        <time>2025-02-02T12:35:28Z</time>
      </trkpt>
      <trkpt lat="43.64524" lon="1.40304">
        <ele>139</ele>
        <time>2025-02-02T12:35:29Z</time>
      </trkpt>
      <trkpt lat="43.64522" lon="1.40305">
        <ele>139</ele>
        <time>2025-02-02T12:35:30Z</time>
      </trkpt>
      <trkpt lat="43.6452" lon="1.40305">
        <ele>139</ele>
        <time>2025-02-02T12:35:31Z</time>
      </trkpt>
      <trkpt lat="43.64516" lon="1.40306">
        <ele>139</ele>
        <time>2025-02-02T12:35:32Z</time>
      </trkpt>
      <trkpt lat="43.64515" lon="1.40307">
        <ele>139</ele>
        <time>2025-02-02T12:35:33Z</time>
      </trkpt>
      <trkpt lat="43.64512" lon="1.40307">
        <ele>139</ele>
        <time>2025-02-02T12:35:34Z</time>
      </trkpt>
      <trkpt lat="43.64509" lon="1.40308">
        <ele>139</ele>
        <time>2025-02-02T12:35:35Z</time>
      </trkpt>
      <trkpt lat="43.64507" lon="1.40309">
        <ele>139</ele>
        <time>2025-02-02T12:35:36Z</time>
      </trkpt>
      <trkpt lat="43.64504" lon="1.4031">
        <ele>139</ele>
        <time>2025-02-02T12:35:37Z</time>
      </trkpt>
      <trkpt lat="43.64502" lon="1.4031">
        <ele>139</ele>
        <time>2025-02-02T12:35:38Z</time>
      </trkpt>
      <trkpt lat="43.64499" lon="1.40311">
        <ele>139</ele>
        <time>2025-02-02T12:35:39Z</time>
      </trkpt>
      <trkpt lat="43.64497" lon="1.40311">
        <ele>139</ele>
        <time>2025-02-02T12:35:40Z</time>
      </trkpt>
      <trkpt lat="43.64494" lon="1.40312">
        <ele>139</ele>
        <time>2025-02-02T12:35:41Z</time>
      </trkpt>
      <trkpt lat="43.64492" lon="1.40314">
        <ele>139</ele>
        <time>2025-02-02T12:35:42Z</time>
      </trkpt>
      <trkpt lat="43.6449" lon="1.40315">
        <ele>139</ele>
        <time>2025-02-02T12:35:43Z</time>
      </trkpt>
      <trkpt lat="43.64488" lon="1.40315">
        <ele>139</ele>
        <time>2025-02-02T12:35:44Z</time>
      </trkpt>
      <trkpt lat="43.64486" lon="1.40316">
        <ele>139</ele>
        <time>2025-02-02T12:35:45Z</time>
      </trkpt>
      <trkpt lat="43.64484" lon="1.40317">
        <ele>139</ele>
        <time>2025-02-02T12:35:46Z</time>
      </trkpt>
      <trkpt lat="43.64481" lon="1.40317">
        <ele>139</ele>
        <time>2025-02-02T12:35:47Z</time>
      </trkpt>
      <trkpt lat="43.64477" lon="1.40319">
        <ele>139</ele>
        <time>2025-02-02T12:35:48Z</time>
      </trkpt>
      <trkpt lat="43.64475" lon="1.40319">
        <ele>139</ele>
        <time>2025-02-02T12:35:49Z</time>
      </trkpt>
      <trkpt lat="43.64472" lon="1.4032">
        <ele>139</ele>
        <time>2025-02-02T12:35:50Z</time>
      </trkpt>
      <trkpt lat="43.64468" lon="1.40322">
        <ele>139</ele>
        <time>2025-02-02T12:35:51Z</time>
      </trkpt>
      <trkpt lat="43.64466" lon="1.40322">
        <ele>139</ele>
        <time>2025-02-02T12:35:52Z</time>
      </trkpt>
      <trkpt lat="43.64463" lon="1.40323">
        <ele>139</ele>
        <time>2025-02-02T12:35:53Z</time>
      </trkpt>
      <trkpt lat="43.6446" lon="1.40324">
        <ele>139</ele>
        <time>2025-02-02T12:35:54Z</time>
      </trkpt>
      <trkpt lat="43.64457" lon="1.40325">
        <ele>139</ele>
        <time>2025-02-02T12:35:55Z</time>
      </trkpt>
      <trkpt lat="43.64454" lon="1.40325">
        <ele>139</ele>
        <time>2025-02-02T12:35:56Z</time>
      </trkpt>
      <trkpt lat="43.64452" lon="1.40326">
        <ele>139</ele>
        <time>2025-02-02T12:35:57Z</time>
      </trkpt>
      <trkpt lat="43.6445" lon="1.40326">
        <ele>139</ele>
        <time>2025-02-02T12:35:58Z</time>
      </trkpt>
      <trkpt lat="43.64447" lon="1.40327">
        <ele>139</ele>
        <time>2025-02-02T12:35:59Z</time>
      </trkpt>
      <trkpt lat="43.64444" lon="1.40327">
        <ele>139</ele>
        <time>2025-02-02T12:36:00Z</time>
      </trkpt>
      <trkpt lat="43.64441" lon="1.40328">
        <ele>139</ele>
        <time>2025-02-02T12:36:01Z</time>
      </trkpt>
      <trkpt lat="43.64439" lon="1.40329">
        <ele>139</ele>
        <time>2025-02-02T12:36:02Z</time>
      </trkpt>
      <trkpt lat="43.64436" lon="1.4033">
        <ele>139</ele>
        <time>2025-02-02T12:36:03Z</time>
      </trkpt>
      <trkpt lat="43.64433" lon="1.4033">
        <ele>140</ele>
        <time>2025-02-02T12:36:04Z</time>
      </trkpt>
      <trkpt lat="43.6443" lon="1.40331">
        <ele>140</ele>
        <time>2025-02-02T12:36:05Z</time>
      </trkpt>
      <trkpt lat="43.64426" lon="1.40333">
        <ele>140</ele>
        <time>2025-02-02T12:36:06Z</time>
      </trkpt>
      <trkpt lat="43.64425" lon="1.40333">
        <ele>139</ele>
        <time>2025-02-02T12:36:07Z</time>
      </trkpt>
      <trkpt lat="43.64422" lon="1.40334">
        <ele>139</ele>
        <time>2025-02-02T12:36:08Z</time>
      </trkpt>
      <trkpt lat="43.6442" lon="1.40335">
        <ele>139</ele>
        <time>2025-02-02T12:36:09Z</time>
      </trkpt>
      <trkpt lat="43.64416" lon="1.40335">
        <ele>139</ele>
        <time>2025-02-02T12:36:10Z</time>
      </trkpt>
      <trkpt lat="43.64415" lon="1.40335">
        <ele>139</ele>
        <time>2025-02-02T12:36:11Z</time>
      </trkpt>
      <trkpt lat="43.64412" lon="1.40336">
        <ele>139</ele>
        <time>2025-02-02T12:36:12Z</time>
      </trkpt>
      <trkpt lat="43.64409" lon="1.40336">
        <ele>139</ele>
        <time>2025-02-02T12:36:13Z</time>
      </trkpt>
      <trkpt lat="43.64407" lon="1.40337">
        <ele>139</ele>
        <time>2025-02-02T12:36:14Z</time>
      </trkpt>
      <trkpt lat="43.64404" lon="1.40337">
        <ele>139</ele>
        <time>2025-02-02T12:36:15Z</time>
      </trkpt>
      <trkpt lat="43.64401" lon="1.40337">
        <ele>139</ele>
        <time>2025-02-02T12:36:16Z</time>
      </trkpt>
      <trkpt lat="43.64398" lon="1.40337">
        <ele>139</ele>
        <time>2025-02-02T12:36:17Z</time>
      </trkpt>
      <trkpt lat="43.64396" lon="1.40337">
        <ele>139</ele>
        <time>2025-02-02T12:36:18Z</time>
      </trkpt>
      <trkpt lat="43.64393" lon="1.40338">
        <ele>139</ele>
        <time>2025-02-02T12:36:19Z</time>
      </trkpt>
      <trkpt lat="43.64389" lon="1.40337">
        <ele>139</ele>
        <time>2025-02-02T12:36:20Z</time>
      </trkpt>
      <trkpt lat="43.64386" lon="1.40337">
        <ele>139</ele>
        <time>2025-02-02T12:36:21Z</time>
      </trkpt>
      <trkpt lat="43.64382" lon="1.40336">
        <ele>139</ele>
        <time>2025-02-02T12:36:22Z</time>
      </trkpt>
      <trkpt lat="43.64378" lon="1.40337">
        <ele>139</ele>
        <time>2025-02-02T12:36:23Z</time>
      </trkpt>
      <trkpt lat="43.64376" lon="1.40337">
        <ele>139</ele>
        <time>2025-02-02T12:36:24Z</time>
      </trkpt>
      <trkpt lat="43.64373" lon="1.40337">
        <ele>139</ele>
        <time>2025-02-02T12:36:25Z</time>
      </trkpt>
      <trkpt lat="43.6437" lon="1.40338">
        <ele>139</ele>
        <time>2025-02-02T12:36:26Z</time>
      </trkpt>
      <trkpt lat="43.64367" lon="1.40339">
        <ele>139</ele>
        <time>2025-02-02T12:36:27Z</time>
      </trkpt>
      <trkpt lat="43.64364" lon="1.40339">
        <ele>138</ele>
        <time>2025-02-02T12:36:28Z</time>
      </trkpt>
      <trkpt lat="43.64359" lon="1.40341">
        <ele>138</ele>
        <time>2025-02-02T12:36:29Z</time>
      </trkpt>
      <trkpt lat="43.64358" lon="1.40341">
        <ele>138</ele>
        <time>2025-02-02T12:36:30Z</time>
      </trkpt>
      <trkpt lat="43.64355" lon="1.40343">
        <ele>138</ele>
        <time>2025-02-02T12:36:31Z</time>
      </trkpt>
      <trkpt lat="43.64353" lon="1.40344">
        <ele>138</ele>
        <time>2025-02-02T12:36:32Z</time>
      </trkpt>
      <trkpt lat="43.6435" lon="1.40345">
        <ele>138</ele>
        <time>2025-02-02T12:36:33Z</time>
      </trkpt>
      <trkpt lat="43.64347" lon="1.40345">
        <ele>138</ele>
        <time>2025-02-02T12:36:34Z</time>
      </trkpt>
      <trkpt lat="43.64345" lon="1.40346">
        <ele>138</ele>
        <time>2025-02-02T12:36:35Z</time>
      </trkpt>
      <trkpt lat="43.64342" lon="1.40348">
        <ele>138</ele>
        <time>2025-02-02T12:36:36Z</time>
      </trkpt>
      <trkpt lat="43.64339" lon="1.40349">
        <ele>138</ele>
        <time>2025-02-02T12:36:37Z</time>
      </trkpt>
      <trkpt lat="43.64336" lon="1.4035">
        <ele>139</ele>
        <time>2025-02-02T12:36:38Z</time>
      </trkpt>
      <trkpt lat="43.64333" lon="1.40351">
        <ele>139</ele>
        <time>2025-02-02T12:36:39Z</time>
      </trkpt>
      <trkpt lat="43.64329" lon="1.40352">
        <ele>139</ele>
        <time>2025-02-02T12:36:40Z</time>
      </trkpt>
      <trkpt lat="43.64328" lon="1.40352">
        <ele>139</ele>
        <time>2025-02-02T12:36:41Z</time>
      </trkpt>
      <trkpt lat="43.64325" lon="1.40353">
        <ele>139</ele>
        <time>2025-02-02T12:36:42Z</time>
      </trkpt>
      <trkpt lat="43.64323" lon="1.40354">
        <ele>139</ele>
        <time>2025-02-02T12:36:43Z</time>
      </trkpt>
      <trkpt lat="43.6432" lon="1.40355">
        <ele>139</ele>
        <time>2025-02-02T12:36:44Z</time>
      </trkpt>
      <trkpt lat="43.64318" lon="1.40356">
        <ele>139</ele>
        <time>2025-02-02T12:36:45Z</time>
      </trkpt>
      <trkpt lat="43.64316" lon="1.40357">
        <ele>139</ele>
        <time>2025-02-02T12:36:46Z</time>
      </trkpt>
      <trkpt lat="43.64313" lon="1.40358">
        <ele>139</ele>
        <time>2025-02-02T12:36:47Z</time>
      </trkpt>
      <trkpt lat="43.64309" lon="1.4036">
        <ele>139</ele>
        <time>2025-02-02T12:36:48Z</time>
      </trkpt>
      <trkpt lat="43.64308" lon="1.40361">
        <ele>138</ele>
        <time>2025-02-02T12:36:49Z</time>
      </trkpt>
      <trkpt lat="43.64306" lon="1.40362">
        <ele>138</ele>
        <time>2025-02-02T12:36:50Z</time>
      </trkpt>
      <trkpt lat="43.64303" lon="1.40363">
        <ele>138</ele>
        <time>2025-02-02T12:36:51Z</time>
      </trkpt>
      <trkpt lat="43.64301" lon="1.40364">
        <ele>138</ele>
        <time>2025-02-02T12:36:52Z</time>
      </trkpt>
      <trkpt lat="43.64298" lon="1.40366">
        <ele>138</ele>
        <time>2025-02-02T12:36:53Z</time>
      </trkpt>
      <trkpt lat="43.64295" lon="1.40367">
        <ele>138</ele>
        <time>2025-02-02T12:36:54Z</time>
      </trkpt>
      <trkpt lat="43.64292" lon="1.40368">
        <ele>138</ele>
        <time>2025-02-02T12:36:55Z</time>
      </trkpt>
      <trkpt lat="43.64289" lon="1.40369">
        <ele>138</ele>
        <time>2025-02-02T12:36:56Z</time>
      </trkpt>
      <trkpt lat="43.64287" lon="1.40369">
        <ele>138</ele>
        <time>2025-02-02T12:36:57Z</time>
      </trkpt>
      <trkpt lat="43.64283" lon="1.40371">
        <ele>138</ele>
        <time>2025-02-02T12:36:58Z</time>
      </trkpt>
      <trkpt lat="43.64282" lon="1.40371">
        <ele>138</ele>
        <time>2025-02-02T12:36:59Z</time>
      </trkpt>
      <trkpt lat="43.64279" lon="1.40371">
        <ele>138</ele>
        <time>2025-02-02T12:37:00Z</time>
      </trkpt>
      <trkpt lat="43.64276" lon="1.40372">
        <ele>138</ele>
        <time>2025-02-02T12:37:01Z</time>
      </trkpt>
      <trkpt lat="43.64274" lon="1.40372">
        <ele>139</ele>
        <time>2025-02-02T12:37:02Z</time>
      </trkpt>
      <trkpt lat="43.64271" lon="1.40372">
        <ele>139</ele>
        <time>2025-02-02T12:37:03Z</time>
      </trkpt>
      <trkpt lat="43.64269" lon="1.40372">
        <ele>138</ele>
        <time>2025-02-02T12:37:04Z</time>
      </trkpt>
      <trkpt lat="43.64267" lon="1.40372">
        <ele>138</ele>
        <time>2025-02-02T12:37:05Z</time>
      </trkpt>
      <trkpt lat="43.64265" lon="1.40372">
        <ele>138</ele>
        <time>2025-02-02T12:37:06Z</time>
      </trkpt>
      <trkpt lat="43.64262" lon="1.40373">
        <ele>138</ele>
        <time>2025-02-02T12:37:07Z</time>
      </trkpt>
      <trkpt lat="43.6426" lon="1.40373">
        <ele>138</ele>
        <time>2025-02-02T12:37:08Z</time>
      </trkpt>
      <trkpt lat="43.64257" lon="1.40374">
        <ele>138</ele>
        <time>2025-02-02T12:37:09Z</time>
      </trkpt>
      <trkpt lat="43.64255" lon="1.40375">
        <ele>138</ele>
        <time>2025-02-02T12:37:10Z</time>
      </trkpt>
      <trkpt lat="43.64252" lon="1.40375">
        <ele>138</ele>
        <time>2025-02-02T12:37:11Z</time>
      </trkpt>
      <trkpt lat="43.64249" lon="1.40376">
        <ele>138</ele>
        <time>2025-02-02T12:37:12Z</time>
      </trkpt>
      <trkpt lat="43.64246" lon="1.40377">
        <ele>139</ele>
        <time>2025-02-02T12:37:13Z</time>
      </trkpt>
      <trkpt lat="43.64244" lon="1.40378">
        <ele>139</ele>
        <time>2025-02-02T12:37:14Z</time>
      </trkpt>
      <trkpt lat="43.64241" lon="1.40378">
        <ele>139</ele>
        <time>2025-02-02T12:37:15Z</time>
      </trkpt>
      <trkpt lat="43.64238" lon="1.40379">
        <ele>139</ele>
        <time>2025-02-02T12:37:16Z</time>
      </trkpt>
      <trkpt lat="43.64236" lon="1.4038">
        <ele>139</ele>
        <time>2025-02-02T12:37:17Z</time>
      </trkpt>
      <trkpt lat="43.64232" lon="1.40381">
        <ele>139</ele>
        <time>2025-02-02T12:37:18Z</time>
      </trkpt>
      <trkpt lat="43.64231" lon="1.40381">
        <ele>139</ele>
        <time>2025-02-02T12:37:19Z</time>
      </trkpt>
      <trkpt lat="43.64228" lon="1.40382">
        <ele>138</ele>
        <time>2025-02-02T12:37:20Z</time>
      </trkpt>
      <trkpt lat="43.64225" lon="1.40383">
        <ele>139</ele>
        <time>2025-02-02T12:37:21Z</time>
      </trkpt>
      <trkpt lat="43.64222" lon="1.40384">
        <ele>139</ele>
        <time>2025-02-02T12:37:22Z</time>
      </trkpt>
      <trkpt lat="43.64219" lon="1.40385">
        <ele>140</ele>
        <time>2025-02-02T12:37:23Z</time>
      </trkpt>
      <trkpt lat="43.64216" lon="1.40386">
        <ele>140</ele>
        <time>2025-02-02T12:37:24Z</time>
      </trkpt>
      <trkpt lat="43.64214" lon="1.40387">
        <ele>140</ele>
        <time>2025-02-02T12:37:25Z</time>
      </trkpt>
      <trkpt lat="43.64209" lon="1.40388">
        <ele>140</ele>
        <time>2025-02-02T12:37:26Z</time>
      </trkpt>
      <trkpt lat="43.64208" lon="1.40388">
        <ele>140</ele>
        <time>2025-02-02T12:37:27Z</time>
      </trkpt>
      <trkpt lat="43.64206" lon="1.40389">
        <ele>140</ele>
        <time>2025-02-02T12:37:28Z</time>
      </trkpt>
      <trkpt lat="43.64203" lon="1.4039">
        <ele>139</ele>
        <time>2025-02-02T12:37:29Z</time>
      </trkpt>
      <trkpt lat="43.642" lon="1.40391">
        <ele>139</ele>
        <time>2025-02-02T12:37:30Z</time>
      </trkpt>
      <trkpt lat="43.64198" lon="1.40392">
        <ele>139</ele>
        <time>2025-02-02T12:37:31Z</time>
      </trkpt>
      <trkpt lat="43.64195" lon="1.40393">
        <ele>139</ele>
        <time>2025-02-02T12:37:32Z</time>
      </trkpt>
      <trkpt lat="43.64192" lon="1.40393">
        <ele>139</ele>
        <time>2025-02-02T12:37:33Z</time>
      </trkpt>
      <trkpt lat="43.6419" lon="1.40394">
        <ele>139</ele>
        <time>2025-02-02T12:37:34Z</time>
      </trkpt>
      <trkpt lat="43.64187" lon="1.40395">
        <ele>139</ele>
        <time>2025-02-02T12:37:35Z</time>
      </trkpt>
      <trkpt lat="43.64184" lon="1.40396">
        <ele>139</ele>
        <time>2025-02-02T12:37:36Z</time>
      </trkpt>
      <trkpt lat="43.64182" lon="1.40397">
        <ele>139</ele>
        <time>2025-02-02T12:37:37Z</time>
      </trkpt>
      <trkpt lat="43.6418" lon="1.40398">
        <ele>139</ele>
        <time>2025-02-02T12:37:38Z</time>
      </trkpt>
      <trkpt lat="43.64177" lon="1.40399">
        <ele>139</ele>
        <time>2025-02-02T12:37:39Z</time>
      </trkpt>
      <trkpt lat="43.64175" lon="1.404">
        <ele>139</ele>
        <time>2025-02-02T12:37:40Z</time>
      </trkpt>
      <trkpt lat="43.64173" lon="1.40401">
        <ele>138</ele>
        <time>2025-02-02T12:37:41Z</time>
      </trkpt>
      <trkpt lat="43.6417" lon="1.40401">
        <ele>138</ele>
        <time>2025-02-02T12:37:42Z</time>
      </trkpt>
      <trkpt lat="43.64168" lon="1.40402">
        <ele>138</ele>
        <time>2025-02-02T12:37:43Z</time>
      </trkpt>
      <trkpt lat="43.64165" lon="1.40402">
        <ele>138</ele>
        <time>2025-02-02T12:37:44Z</time>
      </trkpt>
      <trkpt lat="43.64161" lon="1.40403">
        <ele>138</ele>
        <time>2025-02-02T12:37:45Z</time>
      </trkpt>
      <trkpt lat="43.6416" lon="1.40403">
        <ele>139</ele>
        <time>2025-02-02T12:37:46Z</time>
      </trkpt>
      <trkpt lat="43.64157" lon="1.40403">
        <ele>139</ele>
        <time>2025-02-02T12:37:47Z</time>
      </trkpt>
      <trkpt lat="43.64155" lon="1.40403">
        <ele>139</ele>
        <time>2025-02-02T12:37:48Z</time>
      </trkpt>
      <trkpt lat="43.64152" lon="1.40403">
        <ele>139</ele>
        <time>2025-02-02T12:37:49Z</time>
      </trkpt>
      <trkpt lat="43.64149" lon="1.40404">
        <ele>139</ele>
        <time>2025-02-02T12:37:50Z</time>
      </trkpt>
      <trkpt lat="43.64146" lon="1.40404">
        <ele>139</ele>
        <time>2025-02-02T12:37:51Z</time>
      </trkpt>
      <trkpt lat="43.64144" lon="1.40404">
        <ele>139</ele>
        <time>2025-02-02T12:37:52Z</time>
      </trkpt>
      <trkpt lat="43.64141" lon="1.40403">
        <ele>139</ele>
        <time>2025-02-02T12:37:53Z</time>
      </trkpt>
      <trkpt lat="43.64139" lon="1.40403">
        <ele>138</ele>
        <time>2025-02-02T12:37:54Z</time>
      </trkpt>
      <trkpt lat="43.64135" lon="1.40404">
        <ele>138</ele>
        <time>2025-02-02T12:37:55Z</time>
      </trkpt>
      <trkpt lat="43.64134" lon="1.40404">
        <ele>139</ele>
        <time>2025-02-02T12:37:56Z</time>
      </trkpt>
      <trkpt lat="43.64131" lon="1.40405">
        <ele>139</ele>
        <time>2025-02-02T12:37:57Z</time>
      </trkpt>
      <trkpt lat="43.64129" lon="1.40405">
        <ele>139</ele>
        <time>2025-02-02T12:37:58Z</time>
      </trkpt>
      <trkpt lat="43.64126" lon="1.40405">
        <ele>139</ele>
        <time>2025-02-02T12:37:59Z</time>
      </trkpt>
      <trkpt lat="43.64124" lon="1.40406">
        <ele>139</ele>
        <time>2025-02-02T12:38:00Z</time>
      </trkpt>
      <trkpt lat="43.64121" lon="1.40407">
        <ele>139</ele>
        <time>2025-02-02T12:38:01Z</time>
      </trkpt>
      <trkpt lat="43.64119" lon="1.40407">
        <ele>139</ele>
        <time>2025-02-02T12:38:02Z</time>
      </trkpt>
      <trkpt lat="43.64116" lon="1.40407">
        <ele>138</ele>
        <time>2025-02-02T12:38:03Z</time>
      </trkpt>
      <trkpt lat="43.64112" lon="1.40408">
        <ele>138</ele>
        <time>2025-02-02T12:38:04Z</time>
      </trkpt>
      <trkpt lat="43.64111" lon="1.40408">
        <ele>138</ele>
        <time>2025-02-02T12:38:05Z</time>
      </trkpt>
      <trkpt lat="43.64109" lon="1.40409">
        <ele>138</ele>
        <time>2025-02-02T12:38:06Z</time>
      </trkpt>
      <trkpt lat="43.64106" lon="1.4041">
        <ele>139</ele>
        <time>2025-02-02T12:38:07Z</time>
      </trkpt>
      <trkpt lat="43.64103" lon="1.40411">
        <ele>139</ele>
        <time>2025-02-02T12:38:08Z</time>
      </trkpt>
      <trkpt lat="43.64101" lon="1.40411">
        <ele>139</ele>
        <time>2025-02-02T12:38:09Z</time>
      </trkpt>
      <trkpt lat="43.64098" lon="1.40412">
        <ele>139</ele>
        <time>2025-02-02T12:38:10Z</time>
      </trkpt>
      <trkpt lat="43.64095" lon="1.40413">
        <ele>139</ele>
        <time>2025-02-02T12:38:11Z</time>
      </trkpt>
      <trkpt lat="43.64093" lon="1.40413">
        <ele>139</ele>
        <time>2025-02-02T12:38:12Z</time>
      </trkpt>
      <trkpt lat="43.6409" lon="1.40414">
        <ele>139</ele>
        <time>2025-02-02T12:38:13Z</time>
      </trkpt>
      <trkpt lat="43.64088" lon="1.40414">
        <ele>139</ele>
        <time>2025-02-02T12:38:14Z</time>
      </trkpt>
      <trkpt lat="43.64084" lon="1.40415">
        <ele>139</ele>
        <time>2025-02-02T12:38:15Z</time>
      </trkpt>
      <trkpt lat="43.64082" lon="1.40415">
        <ele>139</ele>
        <time>2025-02-02T12:38:16Z</time>
      </trkpt>
      <trkpt lat="43.6408" lon="1.40416">
        <ele>139</ele>
        <time>2025-02-02T12:38:17Z</time>
      </trkpt>
      <trkpt lat="43.64077" lon="1.40417">
        <ele>138</ele>
        <time>2025-02-02T12:38:18Z</time>
      </trkpt>
      <trkpt lat="43.64074" lon="1.40418">
        <ele>138</ele>
        <time>2025-02-02T12:38:19Z</time>
      </trkpt>
      <trkpt lat="43.64072" lon="1.40419">
        <ele>138</ele>
        <time>2025-02-02T12:38:20Z</time>
      </trkpt>
      <trkpt lat="43.64069" lon="1.4042">
        <ele>138</ele>
        <time>2025-02-02T12:38:21Z</time>
      </trkpt>
      <trkpt lat="43.64066" lon="1.40421">
        <ele>138</ele>
        <time>2025-02-02T12:38:22Z</time>
      </trkpt>
      <trkpt lat="43.64062" lon="1.40422">
        <ele>138</ele>
        <time>2025-02-02T12:38:23Z</time>
      </trkpt>
      <trkpt lat="43.64061" lon="1.40423">
        <ele>138</ele>
        <time>2025-02-02T12:38:24Z</time>
      </trkpt>
      <trkpt lat="43.64058" lon="1.40423">
        <ele>138</ele>
        <time>2025-02-02T12:38:25Z</time>
      </trkpt>
      <trkpt lat="43.64055" lon="1.40424">
        <ele>138</ele>
        <time>2025-02-02T12:38:26Z</time>
      </trkpt>
      <trkpt lat="43.64053" lon="1.40425">
        <ele>138</ele>
        <time>2025-02-02T12:38:27Z</time>
      </trkpt>
      <trkpt lat="43.64051" lon="1.40425">
        <ele>138</ele>
        <time>2025-02-02T12:38:28Z</time>
      </trkpt>
      <trkpt lat="43.64049" lon="1.40426">
        <ele>138</ele>
        <time>2025-02-02T12:38:29Z</time>
      </trkpt>
      <trkpt lat="43.64047" lon="1.40427">
        <ele>138</ele>
        <time>2025-02-02T12:38:30Z</time>
      </trkpt>
      <trkpt lat="43.64044" lon="1.40428">
        <ele>138</ele>
        <time>2025-02-02T12:38:31Z</time>
      </trkpt>
      <trkpt lat="43.64041" lon="1.40429">
        <ele>138</ele>
        <time>2025-02-02T12:38:32Z</time>
      </trkpt>
      <trkpt lat="43.64037" lon="1.4043">
        <ele>138</ele>
        <time>2025-02-02T12:38:33Z</time>
      </trkpt>
      <trkpt lat="43.64036" lon="1.4043">
        <ele>139</ele>
        <time>2025-02-02T12:38:34Z</time>
      </trkpt>
      <trkpt lat="43.64033" lon="1.40431">
        <ele>138</ele>
        <time>2025-02-02T12:38:35Z</time>
      </trkpt>
      <trkpt lat="43.64031" lon="1.40431">
        <ele>138</ele>
        <time>2025-02-02T12:38:36Z</time>
      </trkpt>
      <trkpt lat="43.64028" lon="1.4043">
        <ele>139</ele>
        <time>2025-02-02T12:38:37Z</time>
      </trkpt>
      <trkpt lat="43.64025" lon="1.4043">
        <ele>139</ele>
        <time>2025-02-02T12:38:38Z</time>
      </trkpt>
      <trkpt lat="43.64022" lon="1.4043">
        <ele>139</ele>
        <time>2025-02-02T12:38:39Z</time>
      </trkpt>
      <trkpt lat="43.6402" lon="1.4043">
        <ele>139</ele>
        <time>2025-02-02T12:38:40Z</time>
      </trkpt>
      <trkpt lat="43.64017" lon="1.40431">
        <ele>139</ele>
        <time>2025-02-02T12:38:41Z</time>
      </trkpt>
      <trkpt lat="43.64014" lon="1.40433">
        <ele>139</ele>
        <time>2025-02-02T12:38:42Z</time>
      </trkpt>
      <trkpt lat="43.64013" lon="1.40433">
        <ele>139</ele>
        <time>2025-02-02T12:38:43Z</time>
      </trkpt>
      <trkpt lat="43.6401" lon="1.40434">
        <ele>139</ele>
        <time>2025-02-02T12:38:44Z</time>
      </trkpt>
      <trkpt lat="43.64007" lon="1.40435">
        <ele>139</ele>
        <time>2025-02-02T12:38:45Z</time>
      </trkpt>
      <trkpt lat="43.64004" lon="1.40435">
        <ele>139</ele>
        <time>2025-02-02T12:38:46Z</time>
      </trkpt>
      <trkpt lat="43.64001" lon="1.40436">
        <ele>138</ele>
        <time>2025-02-02T12:38:47Z</time>
      </trkpt>
      <trkpt lat="43.63998" lon="1.40438">
        <ele>138</ele>
        <time>2025-02-02T12:38:48Z</time>
      </trkpt>
      <trkpt lat="43.63996" lon="1.40438">
        <ele>138</ele>
        <time>2025-02-02T12:38:49Z</time>
      </trkpt>
      <trkpt lat="43.63994" lon="1.40439">
        <ele>138</ele>
        <time>2025-02-02T12:38:50Z</time>
      </trkpt>
      <trkpt lat="43.63993" lon="1.4044">
        <ele>138</ele>
        <time>2025-02-02T12:38:51Z</time>
      </trkpt>
      <trkpt lat="43.63991" lon="1.4044">
        <ele>138</ele>
        <time>2025-02-02T12:38:52Z</time>
      </trkpt>
      <trkpt lat="43.63987" lon="1.40441">
        <ele>138</ele>
        <time>2025-02-02T12:38:53Z</time>
      </trkpt>
      <trkpt lat="43.63986" lon="1.40441">
        <ele>138</ele>
        <time>2025-02-02T12:38:54Z</time>
      </trkpt>
      <trkpt lat="43.63983" lon="1.40442">
        <ele>138</ele>
        <time>2025-02-02T12:38:55Z</time>
      </trkpt>
      <trkpt lat="43.63981" lon="1.40442">
        <ele>138</ele>
        <time>2025-02-02T12:38:56Z</time>
      </trkpt>
      <trkpt lat="43.63979" lon="1.40443">
        <ele>138</ele>
        <time>2025-02-02T12:38:57Z</time>
      </trkpt>
      <trkpt lat="43.63977" lon="1.40443">
        <ele>138</ele>
        <time>2025-02-02T12:38:58Z</time>
      </trkpt>
      <trkpt lat="43.63974" lon="1.40443">
        <ele>138</ele>
        <time>2025-02-02T12:38:59Z</time>
      </trkpt>
      <trkpt lat="43.63971" lon="1.40444">
        <ele>138</ele>
        <time>2025-02-02T12:39:00Z</time>
      </trkpt>
      <trkpt lat="43.63968" lon="1.40444">
        <ele>138</ele>
        <time>2025-02-02T12:39:01Z</time>
      </trkpt>
      <trkpt lat="43.63968" lon="1.40444">
        <ele>138</ele>
        <time>2025-02-02T12:39:02Z</time>
      </trkpt>
      <trkpt lat="43.63964" lon="1.40445">
        <ele>138</ele>
        <time>2025-02-02T12:39:03Z</time>
      </trkpt>
      <trkpt lat="43.63962" lon="1.40445">
        <ele>138</ele>
        <time>2025-02-02T12:39:04Z</time>
      </trkpt>
      <trkpt lat="43.6396" lon="1.40446">
        <ele>138</ele>
        <time>2025-02-02T12:39:05Z</time>
      </trkpt>
      <trkpt lat="43.63958" lon="1.40446">
        <ele>138</ele>
        <time>2025-02-02T12:39:06Z</time>
      </trkpt>
      <trkpt lat="43.63955" lon="1.40447">
        <ele>138</ele>
        <time>2025-02-02T12:39:07Z</time>
      </trkpt>
      <trkpt lat="43.63953" lon="1.40448">
        <ele>138</ele>
        <time>2025-02-02T12:39:08Z</time>
      </trkpt>
      <trkpt lat="43.63951" lon="1.40448">
        <ele>139</ele>
        <time>2025-02-02T12:39:09Z</time>
      </trkpt>
      <trkpt lat="43.63949" lon="1.40449">
        <ele>139</ele>
        <time>2025-02-02T12:39:10Z</time>
      </trkpt>
      <trkpt lat="43.63947" lon="1.4045">
        <ele>139</ele>
        <time>2025-02-02T12:39:11Z</time>
      </trkpt>
      <trkpt lat="43.63943" lon="1.40451">
        <ele>139</ele>
        <time>2025-02-02T12:39:12Z</time>
      </trkpt>
      <trkpt lat="43.63938" lon="1.40451">
        <ele>139</ele>
        <time>2025-02-02T12:39:13Z</time>
      </trkpt>
      <trkpt lat="43.63936" lon="1.40451">
        <ele>139</ele>
        <time>2025-02-02T12:39:14Z</time>
      </trkpt>
      <trkpt lat="43.63932" lon="1.40452">
        <ele>139</ele>
        <time>2025-02-02T12:39:15Z</time>
      </trkpt>
      <trkpt lat="43.63931" lon="1.40452">
        <ele>138</ele>
        <time>2025-02-02T12:39:16Z</time>
      </trkpt>
      <trkpt lat="43.63928" lon="1.40452">
        <ele>138</ele>
        <time>2025-02-02T12:39:17Z</time>
      </trkpt>
      <trkpt lat="43.63925" lon="1.40453">
        <ele>138</ele>
        <time>2025-02-02T12:39:18Z</time>
      </trkpt>
      <trkpt lat="43.63922" lon="1.40453">
        <ele>138</ele>
        <time>2025-02-02T12:39:19Z</time>
      </trkpt>
      <trkpt lat="43.63918" lon="1.40454">
        <ele>138</ele>
        <time>2025-02-02T12:39:20Z</time>
      </trkpt>
      <trkpt lat="43.63916" lon="1.40454">
        <ele>138</ele>
        <time>2025-02-02T12:39:21Z</time>
      </trkpt>
      <trkpt lat="43.63913" lon="1.40455">
        <ele>138</ele>
        <time>2025-02-02T12:39:22Z</time>
      </trkpt>
      <trkpt lat="43.63911" lon="1.40455">
        <ele>138</ele>
        <time>2025-02-02T12:39:23Z</time>
      </trkpt>
      <trkpt lat="43.63908" lon="1.40456">
        <ele>138</ele>
        <time>2025-02-02T12:39:24Z</time>
      </trkpt>
      <trkpt lat="43.63906" lon="1.40456">
        <ele>138</ele>
        <time>2025-02-02T12:39:25Z</time>
      </trkpt>
      <trkpt lat="43.63903" lon="1.40457">
        <ele>138</ele>
        <time>2025-02-02T12:39:26Z</time>
      </trkpt>
      <trkpt lat="43.639" lon="1.40458">
        <ele>138</ele>
        <time>2025-02-02T12:39:27Z</time>
      </trkpt>
      <trkpt lat="43.63897" lon="1.40458">
        <ele>138</ele>
        <time>2025-02-02T12:39:28Z</time>
      </trkpt>
      <trkpt lat="43.63895" lon="1.40458">
        <ele>138</ele>
        <time>2025-02-02T12:39:29Z</time>
      </trkpt>
      <trkpt lat="43.63893" lon="1.40459">
        <ele>138</ele>
        <time>2025-02-02T12:39:30Z</time>
      </trkpt>
      <trkpt lat="43.63889" lon="1.4046">
        <ele>138</ele>
        <time>2025-02-02T12:39:31Z</time>
      </trkpt>
      <trkpt lat="43.63888" lon="1.4046">
        <ele>138</ele>
        <time>2025-02-02T12:39:32Z</time>
      </trkpt>
      <trkpt lat="43.63885" lon="1.40461">
        <ele>138</ele>
        <time>2025-02-02T12:39:33Z</time>
      </trkpt>
      <trkpt lat="43.63883" lon="1.40461">
        <ele>138</ele>
        <time>2025-02-02T12:39:34Z</time>
      </trkpt>
      <trkpt lat="43.6388" lon="1.40462">
        <ele>138</ele>
        <time>2025-02-02T12:39:35Z</time>
      </trkpt>
      <trkpt lat="43.63878" lon="1.40462">
        <ele>138</ele>
        <time>2025-02-02T12:39:36Z</time>
      </trkpt>
      <trkpt lat="43.63876" lon="1.40463">
        <ele>138</ele>
        <time>2025-02-02T12:39:37Z</time>
      </trkpt>
      <trkpt lat="43.63873" lon="1.40463">
        <ele>138</ele>
        <time>2025-02-02T12:39:38Z</time>
      </trkpt>
      <trkpt lat="43.63869" lon="1.40464">
        <ele>138</ele>
        <time>2025-02-02T12:39:39Z</time>
      </trkpt>
      <trkpt lat="43.63868" lon="1.40464">
        <ele>138</ele>
        <time>2025-02-02T12:39:40Z</time>
      </trkpt>
      <trkpt lat="43.63866" lon="1.40465">
        <ele>138</ele>
        <time>2025-02-02T12:39:41Z</time>
      </trkpt>
      <trkpt lat="43.63863" lon="1.40465">
        <ele>138</ele>
        <time>2025-02-02T12:39:42Z</time>
      </trkpt>
      <trkpt lat="43.63861" lon="1.40465">
        <ele>138</ele>
        <time>2025-02-02T12:39:43Z</time>
      </trkpt>
      <trkpt lat="43.63858" lon="1.40466">
        <ele>138</ele>
        <time>2025-02-02T12:39:44Z</time>
      </trkpt>
      <trkpt lat="43.63856" lon="1.40466">
        <ele>138</ele>
        <time>2025-02-02T12:39:45Z</time>
      </trkpt>
      <trkpt lat="43.63854" lon="1.40467">
        <ele>138</ele>
        <time>2025-02-02T12:39:46Z</time>
      </trkpt>
      <trkpt lat="43.63851" lon="1.40467">
        <ele>139</ele>
        <time>2025-02-02T12:39:47Z</time>
      </trkpt>
      <trkpt lat="43.63849" lon="1.40468">
        <ele>139</ele>
        <time>2025-02-02T12:39:48Z</time>
      </trkpt>
      <trkpt lat="43.63846" lon="1.40468">
        <ele>139</ele>
        <time>2025-02-02T12:39:49Z</time>
      </trkpt>
      <trkpt lat="43.63843" lon="1.40469">
        <ele>139</ele>
        <time>2025-02-02T12:39:50Z</time>
      </trkpt>
      <trkpt lat="43.63838" lon="1.40469">
        <ele>139</ele>
        <time>2025-02-02T12:39:51Z</time>
      </trkpt>
      <trkpt lat="43.63836" lon="1.40469">
        <ele>139</ele>
        <time>2025-02-02T12:39:52Z</time>
      </trkpt>
      <trkpt lat="43.63834" lon="1.40469">
        <ele>139</ele>
        <time>2025-02-02T12:39:53Z</time>
      </trkpt>
      <trkpt lat="43.63831" lon="1.4047">
        <ele>139</ele>
        <time>2025-02-02T12:39:54Z</time>
      </trkpt>
      <trkpt lat="43.63827" lon="1.4047">
        <ele>139</ele>
        <time>2025-02-02T12:39:55Z</time>
      </trkpt>
      <trkpt lat="43.63824" lon="1.4047">
        <ele>139</ele>
        <time>2025-02-02T12:39:56Z</time>
      </trkpt>
      <trkpt lat="43.6382" lon="1.4047">
        <ele>139</ele>
        <time>2025-02-02T12:39:57Z</time>
      </trkpt>
      <trkpt lat="43.63817" lon="1.40471">
        <ele>139</ele>
        <time>2025-02-02T12:39:58Z</time>
      </trkpt>
      <trkpt lat="43.63814" lon="1.40471">
        <ele>138</ele>
        <time>2025-02-02T12:39:59Z</time>
      </trkpt>
      <trkpt lat="43.63811" lon="1.40471">
        <ele>138</ele>
        <time>2025-02-02T12:40:00Z</time>
      </trkpt>
      <trkpt lat="43.63808" lon="1.40472">
        <ele>138</ele>
        <time>2025-02-02T12:40:01Z</time>
      </trkpt>
      <trkpt lat="43.63805" lon="1.40473">
        <ele>137</ele>
        <time>2025-02-02T12:40:02Z</time>
      </trkpt>
      <trkpt lat="43.63802" lon="1.40474">
        <ele>138</ele>
        <time>2025-02-02T12:40:03Z</time>
      </trkpt>
      <trkpt lat="43.63799" lon="1.40474">
        <ele>138</ele>
        <time>2025-02-02T12:40:04Z</time>
      </trkpt>
      <trkpt lat="43.63797" lon="1.40475">
        <ele>138</ele>
        <time>2025-02-02T12:40:05Z</time>
      </trkpt>
      <trkpt lat="43.63795" lon="1.40476">
        <ele>138</ele>
        <time>2025-02-02T12:40:06Z</time>
      </trkpt>
      <trkpt lat="43.63793" lon="1.40476">
        <ele>138</ele>
        <time>2025-02-02T12:40:07Z</time>
      </trkpt>
      <trkpt lat="43.63789" lon="1.40476">
        <ele>138</ele>
        <time>2025-02-02T12:40:08Z</time>
      </trkpt>
      <trkpt lat="43.63788" lon="1.40476">
        <ele>138</ele>
        <time>2025-02-02T12:40:09Z</time>
      </trkpt>
      <trkpt lat="43.63785" lon="1.40476">
        <ele>137</ele>
        <time>2025-02-02T12:40:10Z</time>
      </trkpt>
      <trkpt lat="43.63782" lon="1.40477">
        <ele>137</ele>
        <time>2025-02-02T12:40:11Z</time>
      </trkpt>
      <trkpt lat="43.6378" lon="1.40477">
        <ele>137</ele>
        <time>2025-02-02T12:40:12Z</time>
      </trkpt>
      <trkpt lat="43.63778" lon="1.40477">
        <ele>137</ele>
        <time>2025-02-02T12:40:13Z</time>
      </trkpt>
      <trkpt lat="43.63776" lon="1.40477">
        <ele>137</ele>
        <time>2025-02-02T12:40:14Z</time>
      </trkpt>
      <trkpt lat="43.63774" lon="1.40478">
        <ele>137</ele>
        <time>2025-02-02T12:40:15Z</time>
      </trkpt>
      <trkpt lat="43.63771" lon="1.40479">
        <ele>137</ele>
        <time>2025-02-02T12:40:16Z</time>
      </trkpt>
      <trkpt lat="43.63767" lon="1.40479">
        <ele>137</ele>
        <time>2025-02-02T12:40:17Z</time>
      </trkpt>
      <trkpt lat="43.63766" lon="1.40479">
        <ele>137</ele>
        <time>2025-02-02T12:40:18Z</time>
      </trkpt>
      <trkpt lat="43.63764" lon="1.4048">
        <ele>137</ele>
        <time>2025-02-02T12:40:19Z</time>
      </trkpt>
      <trkpt lat="43.63762" lon="1.4048">
        <ele>137</ele>
        <time>2025-02-02T12:40:20Z</time>
      </trkpt>
      <trkpt lat="43.63759" lon="1.4048">
        <ele>137</ele>
        <time>2025-02-02T12:40:21Z</time>
      </trkpt>
      <trkpt lat="43.63756" lon="1.40481">
        <ele>137</ele>
        <time>2025-02-02T12:40:22Z</time>
      </trkpt>
      <trkpt lat="43.63754" lon="1.40481">
        <ele>137</ele>
        <time>2025-02-02T12:40:23Z</time>
      </trkpt>
      <trkpt lat="43.63751" lon="1.40482">
        <ele>137</ele>
        <time>2025-02-02T12:40:24Z</time>
      </trkpt>
      <trkpt lat="43.63748" lon="1.40482">
        <ele>137</ele>
        <time>2025-02-02T12:40:25Z</time>
      </trkpt>
      <trkpt lat="43.63745" lon="1.40482">
        <ele>137</ele>
        <time>2025-02-02T12:40:26Z</time>
      </trkpt>
      <trkpt lat="43.63742" lon="1.40482">
        <ele>137</ele>
        <time>2025-02-02T12:40:27Z</time>
      </trkpt>
      <trkpt lat="43.63739" lon="1.40483">
        <ele>137</ele>
        <time>2025-02-02T12:40:28Z</time>
      </trkpt>
      <trkpt lat="43.63737" lon="1.40483">
        <ele>137</ele>
        <time>2025-02-02T12:40:29Z</time>
      </trkpt>
      <trkpt lat="43.63734" lon="1.40484">
        <ele>137</ele>
        <time>2025-02-02T12:40:30Z</time>
      </trkpt>
      <trkpt lat="43.63731" lon="1.40484">
        <ele>137</ele>
        <time>2025-02-02T12:40:31Z</time>
      </trkpt>
      <trkpt lat="43.63729" lon="1.40484">
        <ele>137</ele>
        <time>2025-02-02T12:40:32Z</time>
      </trkpt>
      <trkpt lat="43.63727" lon="1.40484">
        <ele>137</ele>
        <time>2025-02-02T12:40:33Z</time>
      </trkpt>
      <trkpt lat="43.63724" lon="1.40484">
        <ele>137</ele>
        <time>2025-02-02T12:40:34Z</time>
      </trkpt>
      <trkpt lat="43.63722" lon="1.40484">
        <ele>138</ele>
        <time>2025-02-02T12:40:35Z</time>
      </trkpt>
      <trkpt lat="43.63717" lon="1.40484">
        <ele>138</ele>
        <time>2025-02-02T12:40:36Z</time>
      </trkpt>
      <trkpt lat="43.63716" lon="1.40484">
        <ele>138</ele>
        <time>2025-02-02T12:40:37Z</time>
      </trkpt>
      <trkpt lat="43.63713" lon="1.40485">
        <ele>138</ele>
        <time>2025-02-02T12:40:38Z</time>
      </trkpt>
      <trkpt lat="43.6371" lon="1.40485">
        <ele>138</ele>
        <time>2025-02-02T12:40:39Z</time>
      </trkpt>
      <trkpt lat="43.63707" lon="1.40485">
        <ele>137</ele>
        <time>2025-02-02T12:40:40Z</time>
      </trkpt>
      <trkpt lat="43.63704" lon="1.40486">
        <ele>137</ele>
        <time>2025-02-02T12:40:41Z</time>
      </trkpt>
      <trkpt lat="43.63702" lon="1.40486">
        <ele>137</ele>
        <time>2025-02-02T12:40:42Z</time>
      </trkpt>
      <trkpt lat="43.637" lon="1.40486">
        <ele>137</ele>
        <time>2025-02-02T12:40:43Z</time>
      </trkpt>
      <trkpt lat="43.63697" lon="1.40487">
        <ele>137</ele>
        <time>2025-02-02T12:40:44Z</time>
      </trkpt>
      <trkpt lat="43.63695" lon="1.40487">
        <ele>137</ele>
        <time>2025-02-02T12:40:45Z</time>
      </trkpt>
      <trkpt lat="43.63691" lon="1.40486">
        <ele>137</ele>
        <time>2025-02-02T12:40:46Z</time>
      </trkpt>
      <trkpt lat="43.63689" lon="1.40486">
        <ele>137</ele>
        <time>2025-02-02T12:40:47Z</time>
      </trkpt>
      <trkpt lat="43.63687" lon="1.40486">
        <ele>137</ele>
        <time>2025-02-02T12:40:48Z</time>
      </trkpt>
      <trkpt lat="43.63685" lon="1.40486">
        <ele>137</ele>
        <time>2025-02-02T12:40:49Z</time>
      </trkpt>
      <trkpt lat="43.63682" lon="1.40486">
        <ele>137</ele>
        <time>2025-02-02T12:40:50Z</time>
      </trkpt>
      <trkpt lat="43.63679" lon="1.40486">
        <ele>137</ele>
        <time>2025-02-02T12:40:51Z</time>
      </trkpt>
      <trkpt lat="43.63676" lon="1.40487">
        <ele>137</ele>
        <time>2025-02-02T12:40:52Z</time>
      </trkpt>
      <trkpt lat="43.63673" lon="1.40487">
        <ele>137</ele>
        <time>2025-02-02T12:40:53Z</time>
      </trkpt>
      <trkpt lat="43.6367" lon="1.40487">
        <ele>137</ele>
        <time>2025-02-02T12:40:54Z</time>
      </trkpt>
      <trkpt lat="43.63665" lon="1.40487">
        <ele>137</ele>
        <time>2025-02-02T12:40:55Z</time>
      </trkpt>
      <trkpt lat="43.63664" lon="1.40487">
        <ele>136</ele>
        <time>2025-02-02T12:40:56Z</time>
      </trkpt>
      <trkpt lat="43.63661" lon="1.40487">
        <ele>136</ele>
        <time>2025-02-02T12:40:57Z</time>
      </trkpt>
      <trkpt lat="43.63658" lon="1.40487">
        <ele>137</ele>
        <time>2025-02-02T12:40:58Z</time>
      </trkpt>
      <trkpt lat="43.63655" lon="1.40488">
        <ele>137</ele>
        <time>2025-02-02T12:40:59Z</time>
      </trkpt>
      <trkpt lat="43.63652" lon="1.40489">
        <ele>137</ele>
        <time>2025-02-02T12:41:00Z</time>
      </trkpt>
      <trkpt lat="43.63649" lon="1.4049">
        <ele>137</ele>
        <time>2025-02-02T12:41:01Z</time>
      </trkpt>
      <trkpt lat="43.63646" lon="1.40491">
        <ele>137</ele>
        <time>2025-02-02T12:41:02Z</time>
      </trkpt>
      <trkpt lat="43.63644" lon="1.40491">
        <ele>136</ele>
        <time>2025-02-02T12:41:03Z</time>
      </trkpt>
      <trkpt lat="43.6364" lon="1.40491">
        <ele>136</ele>
        <time>2025-02-02T12:41:04Z</time>
      </trkpt>
      <trkpt lat="43.63639" lon="1.40491">
        <ele>136</ele>
        <time>2025-02-02T12:41:05Z</time>
      </trkpt>
      <trkpt lat="43.63637" lon="1.40491">
        <ele>136</ele>
        <time>2025-02-02T12:41:06Z</time>
      </trkpt>
      <trkpt lat="43.63635" lon="1.40491">
        <ele>136</ele>
        <time>2025-02-02T12:41:07Z</time>
      </trkpt>
      <trkpt lat="43.63632" lon="1.40491">
        <ele>136</ele>
        <time>2025-02-02T12:41:08Z</time>
      </trkpt>
      <trkpt lat="43.6363" lon="1.40491">
        <ele>136</ele>
        <time>2025-02-02T12:41:09Z</time>
      </trkpt>
      <trkpt lat="43.63627" lon="1.40491">
        <ele>136</ele>
        <time>2025-02-02T12:41:10Z</time>
      </trkpt>
      <trkpt lat="43.63624" lon="1.40492">
        <ele>136</ele>
        <time>2025-02-02T12:41:11Z</time>
      </trkpt>
      <trkpt lat="43.63621" lon="1.40491">
        <ele>137</ele>
        <time>2025-02-02T12:41:12Z</time>
      </trkpt>
      <trkpt lat="43.63618" lon="1.4049">
        <ele>137</ele>
        <time>2025-02-02T12:41:13Z</time>
      </trkpt>
      <trkpt lat="43.63615" lon="1.40489">
        <ele>137</ele>
        <time>2025-02-02T12:41:14Z</time>
      </trkpt>
      <trkpt lat="43.63614" lon="1.40489">
        <ele>137</ele>
        <time>2025-02-02T12:41:15Z</time>
      </trkpt>
      <trkpt lat="43.63611" lon="1.40489">
        <ele>137</ele>
        <time>2025-02-02T12:41:16Z</time>
      </trkpt>
      <trkpt lat="43.63608" lon="1.40489">
        <ele>137</ele>
        <time>2025-02-02T12:41:17Z</time>
      </trkpt>
      <trkpt lat="43.63605" lon="1.40489">
        <ele>137</ele>
        <time>2025-02-02T12:41:18Z</time>
      </trkpt>
      <trkpt lat="43.63602" lon="1.40489">
        <ele>137</ele>
        <time>2025-02-02T12:41:19Z</time>
      </trkpt>
      <trkpt lat="43.63599" lon="1.40488">
        <ele>137</ele>
        <time>2025-02-02T12:41:20Z</time>
      </trkpt>
      <trkpt lat="43.63597" lon="1.40488">
        <ele>137</ele>
        <time>2025-02-02T12:41:21Z</time>
      </trkpt>
      <trkpt lat="43.63594" lon="1.40488">
        <ele>137</ele>
        <time>2025-02-02T12:41:22Z</time>
      </trkpt>
      <trkpt lat="43.6359" lon="1.40488">
        <ele>137</ele>
        <time>2025-02-02T12:41:23Z</time>
      </trkpt>
      <trkpt lat="43.63589" lon="1.40487">
        <ele>137</ele>
        <time>2025-02-02T12:41:24Z</time>
      </trkpt>
      <trkpt lat="43.63587" lon="1.40487">
        <ele>137</ele>
        <time>2025-02-02T12:41:25Z</time>
      </trkpt>
      <trkpt lat="43.63584" lon="1.40487">
        <ele>137</ele>
        <time>2025-02-02T12:41:26Z</time>
      </trkpt>
      <trkpt lat="43.63581" lon="1.40486">
        <ele>137</ele>
        <time>2025-02-02T12:41:27Z</time>
      </trkpt>
      <trkpt lat="43.63579" lon="1.40486">
        <ele>137</ele>
        <time>2025-02-02T12:41:28Z</time>
      </trkpt>
      <trkpt lat="43.63576" lon="1.40486">
        <ele>137</ele>
        <time>2025-02-02T12:41:29Z</time>
      </trkpt>
      <trkpt lat="43.63573" lon="1.40486">
        <ele>137</ele>
        <time>2025-02-02T12:41:30Z</time>
      </trkpt>
      <trkpt lat="43.6357" lon="1.40486">
        <ele>137</ele>
        <time>2025-02-02T12:41:31Z</time>
      </trkpt>
      <trkpt lat="43.63567" lon="1.40486">
        <ele>136</ele>
        <time>2025-02-02T12:41:32Z</time>
      </trkpt>
      <trkpt lat="43.63562" lon="1.40486">
        <ele>136</ele>
        <time>2025-02-02T12:41:33Z</time>
      </trkpt>
      <trkpt lat="43.63561" lon="1.40486">
        <ele>136</ele>
        <time>2025-02-02T12:41:34Z</time>
      </trkpt>
      <trkpt lat="43.63558" lon="1.40486">
        <ele>136</ele>
        <time>2025-02-02T12:41:35Z</time>
      </trkpt>
      <trkpt lat="43.63556" lon="1.40486">
        <ele>136</ele>
        <time>2025-02-02T12:41:36Z</time>
      </trkpt>
      <trkpt lat="43.63554" lon="1.40485">
        <ele>137</ele>
        <time>2025-02-02T12:41:37Z</time>
      </trkpt>
      <trkpt lat="43.63551" lon="1.40486">
        <ele>137</ele>
        <time>2025-02-02T12:41:38Z</time>
      </trkpt>
      <trkpt lat="43.63548" lon="1.40486">
        <ele>137</ele>
        <time>2025-02-02T12:41:39Z</time>
      </trkpt>
      <trkpt lat="43.63545" lon="1.40486">
        <ele>137</ele>
        <time>2025-02-02T12:41:40Z</time>
      </trkpt>
      <trkpt lat="43.63541" lon="1.40485">
        <ele>137</ele>
        <time>2025-02-02T12:41:41Z</time>
      </trkpt>
      <trkpt lat="43.63539" lon="1.40485">
        <ele>137</ele>
        <time>2025-02-02T12:41:42Z</time>
      </trkpt>
      <trkpt lat="43.63536" lon="1.40485">
        <ele>137</ele>
        <time>2025-02-02T12:41:43Z</time>
      </trkpt>
      <trkpt lat="43.63533" lon="1.40485">
        <ele>137</ele>
        <time>2025-02-02T12:41:44Z</time>
      </trkpt>
      <trkpt lat="43.6353" lon="1.40485">
        <ele>137</ele>
        <time>2025-02-02T12:41:45Z</time>
      </trkpt>
      <trkpt lat="43.63527" lon="1.40486">
        <ele>137</ele>
        <time>2025-02-02T12:41:46Z</time>
      </trkpt>
      <trkpt lat="43.63524" lon="1.40486">
        <ele>137</ele>
        <time>2025-02-02T12:41:47Z</time>
      </trkpt>
      <trkpt lat="43.63521" lon="1.40487">
        <ele>138</ele>
        <time>2025-02-02T12:41:48Z</time>
      </trkpt>
      <trkpt lat="43.63518" lon="1.40487">
        <ele>138</ele>
        <time>2025-02-02T12:41:49Z</time>
      </trkpt>
      <trkpt lat="43.63516" lon="1.40487">
        <ele>138</ele>
        <time>2025-02-02T12:41:50Z</time>
      </trkpt>
      <trkpt lat="43.63513" lon="1.40488">
        <ele>138</ele>
        <time>2025-02-02T12:41:51Z</time>
      </trkpt>
      <trkpt lat="43.63509" lon="1.4049">
        <ele>138</ele>
        <time>2025-02-02T12:41:52Z</time>
      </trkpt>
      <trkpt lat="43.63508" lon="1.4049">
        <ele>138</ele>
        <time>2025-02-02T12:41:53Z</time>
      </trkpt>
      <trkpt lat="43.63506" lon="1.4049">
        <ele>138</ele>
        <time>2025-02-02T12:41:54Z</time>
      </trkpt>
      <trkpt lat="43.63503" lon="1.4049">
        <ele>138</ele>
        <time>2025-02-02T12:41:55Z</time>
      </trkpt>
      <trkpt lat="43.63501" lon="1.40491">
        <ele>138</ele>
        <time>2025-02-02T12:41:56Z</time>
      </trkpt>
      <trkpt lat="43.63499" lon="1.40491">
        <ele>138</ele>
        <time>2025-02-02T12:41:57Z</time>
      </trkpt>
      <trkpt lat="43.63496" lon="1.40491">
        <ele>138</ele>
        <time>2025-02-02T12:41:58Z</time>
      </trkpt>
      <trkpt lat="43.63491" lon="1.40491">
        <ele>138</ele>
        <time>2025-02-02T12:41:59Z</time>
      </trkpt>
      <trkpt lat="43.63489" lon="1.40491">
        <ele>138</ele>
        <time>2025-02-02T12:42:00Z</time>
      </trkpt>
      <trkpt lat="43.63487" lon="1.40491">
        <ele>138</ele>
        <time>2025-02-02T12:42:01Z</time>
      </trkpt>
      <trkpt lat="43.63484" lon="1.40491">
        <ele>138</ele>
        <time>2025-02-02T12:42:02Z</time>
      </trkpt>
      <trkpt lat="43.63481" lon="1.40491">
        <ele>138</ele>
        <time>2025-02-02T12:42:03Z</time>
      </trkpt>
      <trkpt lat="43.63478" lon="1.40491">
        <ele>138</ele>
        <time>2025-02-02T12:42:04Z</time>
      </trkpt>
      <trkpt lat="43.63476" lon="1.40491">
        <ele>138</ele>
        <time>2025-02-02T12:42:05Z</time>
      </trkpt>
      <trkpt lat="43.63473" lon="1.40492">
        <ele>139</ele>
        <time>2025-02-02T12:42:06Z</time>
      </trkpt>
      <trkpt lat="43.63471" lon="1.40492">
        <ele>139</ele>
        <time>2025-02-02T12:42:07Z</time>
      </trkpt>
      <trkpt lat="43.63469" lon="1.40492">
        <ele>139</ele>
        <time>2025-02-02T12:42:08Z</time>
      </trkpt>
      <trkpt lat="43.63466" lon="1.40492">
        <ele>139</ele>
        <time>2025-02-02T12:42:09Z</time>
      </trkpt>
      <trkpt lat="43.63463" lon="1.40492">
        <ele>139</ele>
        <time>2025-02-02T12:42:10Z</time>
      </trkpt>
      <trkpt lat="43.63461" lon="1.40491">
        <ele>139</ele>
        <time>2025-02-02T12:42:11Z</time>
      </trkpt>
      <trkpt lat="43.63459" lon="1.40491">
        <ele>139</ele>
        <time>2025-02-02T12:42:12Z</time>
      </trkpt>
      <trkpt lat="43.63457" lon="1.40492">
        <ele>139</ele>
        <time>2025-02-02T12:42:13Z</time>
      </trkpt>
      <trkpt lat="43.63454" lon="1.40492">
        <ele>139</ele>
        <time>2025-02-02T12:42:14Z</time>
      </trkpt>
      <trkpt lat="43.63452" lon="1.40492">
        <ele>139</ele>
        <time>2025-02-02T12:42:15Z</time>
      </trkpt>
      <trkpt lat="43.63449" lon="1.40492">
        <ele>139</ele>
        <time>2025-02-02T12:42:16Z</time>
      </trkpt>
      <trkpt lat="43.63446" lon="1.40493">
        <ele>139</ele>
        <time>2025-02-02T12:42:17Z</time>
      </trkpt>
      <trkpt lat="43.63442" lon="1.40494">
        <ele>139</ele>
        <time>2025-02-02T12:42:18Z</time>
      </trkpt>
      <trkpt lat="43.63441" lon="1.40495">
        <ele>139</ele>
        <time>2025-02-02T12:42:19Z</time>
      </trkpt>
      <trkpt lat="43.63438" lon="1.40495">
        <ele>139</ele>
        <time>2025-02-02T12:42:20Z</time>
      </trkpt>
      <trkpt lat="43.63436" lon="1.40495">
        <ele>139</ele>
        <time>2025-02-02T12:42:21Z</time>
      </trkpt>
      <trkpt lat="43.63433" lon="1.40495">
        <ele>139</ele>
        <time>2025-02-02T12:42:22Z</time>
      </trkpt>
      <trkpt lat="43.63429" lon="1.40495">
        <ele>138</ele>
        <time>2025-02-02T12:42:23Z</time>
      </trkpt>
      <trkpt lat="43.63427" lon="1.40496">
        <ele>138</ele>
        <time>2025-02-02T12:42:24Z</time>
      </trkpt>
      <trkpt lat="43.63423" lon="1.40497">
        <ele>138</ele>
        <time>2025-02-02T12:42:25Z</time>
      </trkpt>
      <trkpt lat="43.63421" lon="1.40497">
        <ele>138</ele>
        <time>2025-02-02T12:42:26Z</time>
      </trkpt>
      <trkpt lat="43.63418" lon="1.40497">
        <ele>138</ele>
        <time>2025-02-02T12:42:27Z</time>
      </trkpt>
      <trkpt lat="43.63415" lon="1.40498">
        <ele>138</ele>
        <time>2025-02-02T12:42:28Z</time>
      </trkpt>
      <trkpt lat="43.63412" lon="1.40498">
        <ele>138</ele>
        <time>2025-02-02T12:42:29Z</time>
      </trkpt>
      <trkpt lat="43.63407" lon="1.40498">
        <ele>138</ele>
        <time>2025-02-02T12:42:30Z</time>
      </trkpt>
      <trkpt lat="43.63406" lon="1.40498">
        <ele>138</ele>
        <time>2025-02-02T12:42:31Z</time>
      </trkpt>
      <trkpt lat="43.63403" lon="1.40498">
        <ele>138</ele>
        <time>2025-02-02T12:42:32Z</time>
      </trkpt>
      <trkpt lat="43.63401" lon="1.40498">
        <ele>138</ele>
        <time>2025-02-02T12:42:33Z</time>
      </trkpt>
      <trkpt lat="43.63398" lon="1.40498">
        <ele>138</ele>
        <time>2025-02-02T12:42:34Z</time>
      </trkpt>
      <trkpt lat="43.63395" lon="1.40497">
        <ele>138</ele>
        <time>2025-02-02T12:42:35Z</time>
      </trkpt>
      <trkpt lat="43.6339" lon="1.40497">
        <ele>138</ele>
        <time>2025-02-02T12:42:36Z</time>
      </trkpt>
      <trkpt lat="43.63389" lon="1.40496">
        <ele>138</ele>
        <time>2025-02-02T12:42:37Z</time>
      </trkpt>
      <trkpt lat="43.63386" lon="1.40495">
        <ele>137</ele>
        <time>2025-02-02T12:42:38Z</time>
      </trkpt>
      <trkpt lat="43.63383" lon="1.40493">
        <ele>137</ele>
        <time>2025-02-02T12:42:39Z</time>
      </trkpt>
      <trkpt lat="43.63381" lon="1.40492">
        <ele>137</ele>
        <time>2025-02-02T12:42:40Z</time>
      </trkpt>
      <trkpt lat="43.63378" lon="1.4049">
        <ele>137</ele>
        <time>2025-02-02T12:42:41Z</time>
      </trkpt>
      <trkpt lat="43.63375" lon="1.40488">
        <ele>137</ele>
        <time>2025-02-02T12:42:42Z</time>
      </trkpt>
      <trkpt lat="43.63373" lon="1.40487">
        <ele>137</ele>
        <time>2025-02-02T12:42:43Z</time>
      </trkpt>
      <trkpt lat="43.63371" lon="1.40485">
        <ele>137</ele>
        <time>2025-02-02T12:42:44Z</time>
      </trkpt>
      <trkpt lat="43.63368" lon="1.40484">
        <ele>137</ele>
        <time>2025-02-02T12:42:45Z</time>
      </trkpt>
      <trkpt lat="43.63365" lon="1.40484">
        <ele>137</ele>
        <time>2025-02-02T12:42:46Z</time>
      </trkpt>
      <trkpt lat="43.63362" lon="1.40483">
        <ele>137</ele>
        <time>2025-02-02T12:42:47Z</time>
      </trkpt>
      <trkpt lat="43.6336" lon="1.40483">
        <ele>137</ele>
        <time>2025-02-02T12:42:48Z</time>
      </trkpt>
      <trkpt lat="43.63355" lon="1.40481">
        <ele>137</ele>
        <time>2025-02-02T12:42:49Z</time>
      </trkpt>
      <trkpt lat="43.63354" lon="1.40481">
        <ele>137</ele>
        <time>2025-02-02T12:42:50Z</time>
      </trkpt>
      <trkpt lat="43.63351" lon="1.40481">
        <ele>137</ele>
        <time>2025-02-02T12:42:51Z</time>
      </trkpt>
      <trkpt lat="43.63349" lon="1.40481">
        <ele>137</ele>
        <time>2025-02-02T12:42:52Z</time>
      </trkpt>
      <trkpt lat="43.63344" lon="1.4048">
        <ele>137</ele>
        <time>2025-02-02T12:42:53Z</time>
      </trkpt>
      <trkpt lat="43.63343" lon="1.4048">
        <ele>137</ele>
        <time>2025-02-02T12:42:54Z</time>
      </trkpt>
      <trkpt lat="43.6334" lon="1.4048">
        <ele>137</ele>
        <time>2025-02-02T12:42:55Z</time>
      </trkpt>
      <trkpt lat="43.63338" lon="1.40479">
        <ele>137</ele>
        <time>2025-02-02T12:42:56Z</time>
      </trkpt>
      <trkpt lat="43.63335" lon="1.40479">
        <ele>137</ele>
        <time>2025-02-02T12:42:57Z</time>
      </trkpt>
      <trkpt lat="43.63333" lon="1.40479">
        <ele>137</ele>
        <time>2025-02-02T12:42:58Z</time>
      </trkpt>
      <trkpt lat="43.6333" lon="1.40479">
        <ele>137</ele>
        <time>2025-02-02T12:42:59Z</time>
      </trkpt>
      <trkpt lat="43.63328" lon="1.40479">
        <ele>137</ele>
        <time>2025-02-02T12:43:00Z</time>
      </trkpt>
      <trkpt lat="43.63325" lon="1.40479">
        <ele>137</ele>
        <time>2025-02-02T12:43:01Z</time>
      </trkpt>
      <trkpt lat="43.63322" lon="1.40478">
        <ele>137</ele>
        <time>2025-02-02T12:43:02Z</time>
      </trkpt>
      <trkpt lat="43.6332" lon="1.40477">
        <ele>137</ele>
        <time>2025-02-02T12:43:03Z</time>
      </trkpt>
      <trkpt lat="43.63318" lon="1.40475">
        <ele>137</ele>
        <time>2025-02-02T12:43:04Z</time>
      </trkpt>
      <trkpt lat="43.63316" lon="1.40474">
        <ele>137</ele>
        <time>2025-02-02T12:43:05Z</time>
      </trkpt>
      <trkpt lat="43.63313" lon="1.40473">
        <ele>137</ele>
        <time>2025-02-02T12:43:06Z</time>
      </trkpt>
      <trkpt lat="43.63311" lon="1.40471">
        <ele>137</ele>
        <time>2025-02-02T12:43:07Z</time>
      </trkpt>
      <trkpt lat="43.63307" lon="1.40469">
        <ele>137</ele>
        <time>2025-02-02T12:43:08Z</time>
      </trkpt>
      <trkpt lat="43.63306" lon="1.40468">
        <ele>138</ele>
        <time>2025-02-02T12:43:09Z</time>
      </trkpt>
      <trkpt lat="43.63304" lon="1.40467">
        <ele>138</ele>
        <time>2025-02-02T12:43:10Z</time>
      </trkpt>
      <trkpt lat="43.63301" lon="1.40466">
        <ele>138</ele>
        <time>2025-02-02T12:43:11Z</time>
      </trkpt>
      <trkpt lat="43.63298" lon="1.40464">
        <ele>139</ele>
        <time>2025-02-02T12:43:12Z</time>
      </trkpt>
      <trkpt lat="43.63295" lon="1.40461">
        <ele>139</ele>
        <time>2025-02-02T12:43:13Z</time>
      </trkpt>
      <trkpt lat="43.63294" lon="1.40461">
        <ele>139</ele>
        <time>2025-02-02T12:43:14Z</time>
      </trkpt>
      <trkpt lat="43.63291" lon="1.40459">
        <ele>139</ele>
        <time>2025-02-02T12:43:15Z</time>
      </trkpt>
      <trkpt lat="43.6329" lon="1.40458">
        <ele>139</ele>
        <time>2025-02-02T12:43:16Z</time>
      </trkpt>
      <trkpt lat="43.63288" lon="1.40458">
        <ele>139</ele>
        <time>2025-02-02T12:43:17Z</time>
      </trkpt>
      <trkpt lat="43.63285" lon="1.40457">
        <ele>139</ele>
        <time>2025-02-02T12:43:18Z</time>
      </trkpt>
      <trkpt lat="43.63283" lon="1.40456">
        <ele>139</ele>
        <time>2025-02-02T12:43:19Z</time>
      </trkpt>
      <trkpt lat="43.63281" lon="1.40455">
        <ele>139</ele>
        <time>2025-02-02T12:43:20Z</time>
      </trkpt>
      <trkpt lat="43.63279" lon="1.40455">
        <ele>139</ele>
        <time>2025-02-02T12:43:21Z</time>
      </trkpt>
      <trkpt lat="43.63276" lon="1.40454">
        <ele>139</ele>
        <time>2025-02-02T12:43:22Z</time>
      </trkpt>
      <trkpt lat="43.63273" lon="1.40454">
        <ele>139</ele>
        <time>2025-02-02T12:43:23Z</time>
      </trkpt>
      <trkpt lat="43.63271" lon="1.40453">
        <ele>139</ele>
        <time>2025-02-02T12:43:24Z</time>
      </trkpt>
      <trkpt lat="43.63267" lon="1.40452">
        <ele>139</ele>
        <time>2025-02-02T12:43:25Z</time>
      </trkpt>
      <trkpt lat="43.63264" lon="1.40452">
        <ele>139</ele>
        <time>2025-02-02T12:43:26Z</time>
      </trkpt>
      <trkpt lat="43.6326" lon="1.40452">
        <ele>139</ele>
        <time>2025-02-02T12:43:27Z</time>
      </trkpt>
      <trkpt lat="43.63259" lon="1.40452">
        <ele>139</ele>
        <time>2025-02-02T12:43:28Z</time>
      </trkpt>
      <trkpt lat="43.63255" lon="1.40451">
        <ele>139</ele>
        <time>2025-02-02T12:43:29Z</time>
      </trkpt>
      <trkpt lat="43.63252" lon="1.4045">
        <ele>138</ele>
        <time>2025-02-02T12:43:30Z</time>
      </trkpt>
      <trkpt lat="43.63247" lon="1.4045">
        <ele>138</ele>
        <time>2025-02-02T12:43:31Z</time>
      </trkpt>
      <trkpt lat="43.63246" lon="1.4045">
        <ele>138</ele>
        <time>2025-02-02T12:43:32Z</time>
      </trkpt>
      <trkpt lat="43.63243" lon="1.40449">
        <ele>138</ele>
        <time>2025-02-02T12:43:33Z</time>
      </trkpt>
      <trkpt lat="43.6324" lon="1.40448">
        <ele>138</ele>
        <time>2025-02-02T12:43:34Z</time>
      </trkpt>
      <trkpt lat="43.63238" lon="1.40447">
        <ele>138</ele>
        <time>2025-02-02T12:43:35Z</time>
      </trkpt>
      <trkpt lat="43.63235" lon="1.40445">
        <ele>138</ele>
        <time>2025-02-02T12:43:36Z</time>
      </trkpt>
      <trkpt lat="43.63233" lon="1.40444">
        <ele>138</ele>
        <time>2025-02-02T12:43:37Z</time>
      </trkpt>
      <trkpt lat="43.63231" lon="1.40443">
        <ele>138</ele>
        <time>2025-02-02T12:43:38Z</time>
      </trkpt>
      <trkpt lat="43.63228" lon="1.40442">
        <ele>138</ele>
        <time>2025-02-02T12:43:39Z</time>
      </trkpt>
      <trkpt lat="43.63226" lon="1.4044">
        <ele>138</ele>
        <time>2025-02-02T12:43:40Z</time>
      </trkpt>
      <trkpt lat="43.63223" lon="1.40439">
        <ele>138</ele>
        <time>2025-02-02T12:43:41Z</time>
      </trkpt>
      <trkpt lat="43.63221" lon="1.40437">
        <ele>138</ele>
        <time>2025-02-02T12:43:42Z</time>
      </trkpt>
      <trkpt lat="43.63219" lon="1.40436">
        <ele>138</ele>
        <time>2025-02-02T12:43:43Z</time>
      </trkpt>
      <trkpt lat="43.63216" lon="1.40435">
        <ele>138</ele>
        <time>2025-02-02T12:43:44Z</time>
      </trkpt>
      <trkpt lat="43.63214" lon="1.40434">
        <ele>138</ele>
        <time>2025-02-02T12:43:45Z</time>
      </trkpt>
      <trkpt lat="43.6321" lon="1.40432">
        <ele>138</ele>
        <time>2025-02-02T12:43:46Z</time>
      </trkpt>
      <trkpt lat="43.63209" lon="1.40432">
        <ele>139</ele>
        <time>2025-02-02T12:43:47Z</time>
      </trkpt>
      <trkpt lat="43.63207" lon="1.4043">
        <ele>139</ele>
        <time>2025-02-02T12:43:48Z</time>
      </trkpt>
      <trkpt lat="43.63204" lon="1.40429">
        <ele>139</ele>
        <time>2025-02-02T12:43:49Z</time>
      </trkpt>
      <trkpt lat="43.63199" lon="1.40428">
        <ele>139</ele>
        <time>2025-02-02T12:43:50Z</time>
      </trkpt>
      <trkpt lat="43.63197" lon="1.40427">
        <ele>139</ele>
        <time>2025-02-02T12:43:51Z</time>
      </trkpt>
      <trkpt lat="43.63194" lon="1.40426">
        <ele>139</ele>
        <time>2025-02-02T12:43:52Z</time>
      </trkpt>
      <trkpt lat="43.63191" lon="1.40425">
        <ele>139</ele>
        <time>2025-02-02T12:43:53Z</time>
      </trkpt>
      <trkpt lat="43.63188" lon="1.40424">
        <ele>139</ele>
        <time>2025-02-02T12:43:54Z</time>
      </trkpt>
      <trkpt lat="43.63186" lon="1.40423">
        <ele>139</ele>
        <time>2025-02-02T12:43:55Z</time>
      </trkpt>
      <trkpt lat="43.63183" lon="1.40422">
        <ele>139</ele>
        <time>2025-02-02T12:43:56Z</time>
      </trkpt>
      <trkpt lat="43.6318" lon="1.40421">
        <ele>139</ele>
        <time>2025-02-02T12:43:57Z</time>
      </trkpt>
      <trkpt lat="43.63178" lon="1.4042">
        <ele>139</ele>
        <time>2025-02-02T12:43:58Z</time>
      </trkpt>
      <trkpt lat="43.63175" lon="1.40419">
        <ele>139</ele>
        <time>2025-02-02T12:43:59Z</time>
      </trkpt>
      <trkpt lat="43.63173" lon="1.40417">
        <ele>139</ele>
        <time>2025-02-02T12:44:00Z</time>
      </trkpt>
      <trkpt lat="43.6317" lon="1.40416">
        <ele>139</ele>
        <time>2025-02-02T12:44:01Z</time>
      </trkpt>
      <trkpt lat="43.63168" lon="1.40415">
        <ele>139</ele>
        <time>2025-02-02T12:44:02Z</time>
      </trkpt>
      <trkpt lat="43.63165" lon="1.40414">
        <ele>139</ele>
        <time>2025-02-02T12:44:03Z</time>
      </trkpt>
      <trkpt lat="43.63163" lon="1.40413">
        <ele>139</ele>
        <time>2025-02-02T12:44:04Z</time>
      </trkpt>
      <trkpt lat="43.6316" lon="1.40411">
        <ele>139</ele>
        <time>2025-02-02T12:44:05Z</time>
      </trkpt>
      <trkpt lat="43.63159" lon="1.4041">
        <ele>139</ele>
        <time>2025-02-02T12:44:06Z</time>
      </trkpt>
      <trkpt lat="43.63157" lon="1.40408">
        <ele>139</ele>
        <time>2025-02-02T12:44:07Z</time>
      </trkpt>
      <trkpt lat="43.63153" lon="1.40406">
        <ele>139</ele>
        <time>2025-02-02T12:44:08Z</time>
      </trkpt>
      <trkpt lat="43.63152" lon="1.40406">
        <ele>139</ele>
        <time>2025-02-02T12:44:09Z</time>
      </trkpt>
      <trkpt lat="43.6315" lon="1.40405">
        <ele>139</ele>
        <time>2025-02-02T12:44:10Z</time>
      </trkpt>
      <trkpt lat="43.63147" lon="1.40404">
        <ele>139</ele>
        <time>2025-02-02T12:44:11Z</time>
      </trkpt>
      <trkpt lat="43.63145" lon="1.40402">
        <ele>139</ele>
        <time>2025-02-02T12:44:12Z</time>
      </trkpt>
      <trkpt lat="43.63142" lon="1.40401">
        <ele>139</ele>
        <time>2025-02-02T12:44:13Z</time>
      </trkpt>
      <trkpt lat="43.63139" lon="1.404">
        <ele>139</ele>
        <time>2025-02-02T12:44:14Z</time>
      </trkpt>
      <trkpt lat="43.63136" lon="1.40399">
        <ele>139</ele>
        <time>2025-02-02T12:44:15Z</time>
      </trkpt>
      <trkpt lat="43.63134" lon="1.40398">
        <ele>139</ele>
        <time>2025-02-02T12:44:16Z</time>
      </trkpt>
      <trkpt lat="43.63131" lon="1.40397">
        <ele>139</ele>
        <time>2025-02-02T12:44:17Z</time>
      </trkpt>
      <trkpt lat="43.63129" lon="1.40396">
        <ele>139</ele>
        <time>2025-02-02T12:44:18Z</time>
      </trkpt>
      <trkpt lat="43.63126" lon="1.40395">
        <ele>139</ele>
        <time>2025-02-02T12:44:19Z</time>
      </trkpt>
      <trkpt lat="43.63123" lon="1.40394">
        <ele>139</ele>
        <time>2025-02-02T12:44:20Z</time>
      </trkpt>
      <trkpt lat="43.63121" lon="1.40393">
        <ele>139</ele>
        <time>2025-02-02T12:44:21Z</time>
      </trkpt>
      <trkpt lat="43.63118" lon="1.40392">
        <ele>139</ele>
        <time>2025-02-02T12:44:22Z</time>
      </trkpt>
      <trkpt lat="43.63115" lon="1.40391">
        <ele>139</ele>
        <time>2025-02-02T12:44:23Z</time>
      </trkpt>
      <trkpt lat="43.63111" lon="1.4039">
        <ele>139</ele>
        <time>2025-02-02T12:44:24Z</time>
      </trkpt>
      <trkpt lat="43.6311" lon="1.4039">
        <ele>138</ele>
        <time>2025-02-02T12:44:25Z</time>
      </trkpt>
      <trkpt lat="43.63108" lon="1.40388">
        <ele>138</ele>
        <time>2025-02-02T12:44:26Z</time>
      </trkpt>
      <trkpt lat="43.63104" lon="1.40386">
        <ele>138</ele>
        <time>2025-02-02T12:44:27Z</time>
      </trkpt>
      <trkpt lat="43.63102" lon="1.40385">
        <ele>138</ele>
        <time>2025-02-02T12:44:28Z</time>
      </trkpt>
      <trkpt lat="43.631" lon="1.40384">
        <ele>138</ele>
        <time>2025-02-02T12:44:29Z</time>
      </trkpt>
      <trkpt lat="43.63098" lon="1.40383">
        <ele>138</ele>
        <time>2025-02-02T12:44:30Z</time>
      </trkpt>
      <trkpt lat="43.63095" lon="1.40382">
        <ele>138</ele>
        <time>2025-02-02T12:44:31Z</time>
      </trkpt>
      <trkpt lat="43.63093" lon="1.40381">
        <ele>138</ele>
        <time>2025-02-02T12:44:32Z</time>
      </trkpt>
      <trkpt lat="43.6309" lon="1.4038">
        <ele>138</ele>
        <time>2025-02-02T12:44:33Z</time>
      </trkpt>
      <trkpt lat="43.63088" lon="1.40379">
        <ele>138</ele>
        <time>2025-02-02T12:44:34Z</time>
      </trkpt>
      <trkpt lat="43.63086" lon="1.40378">
        <ele>138</ele>
        <time>2025-02-02T12:44:35Z</time>
      </trkpt>
      <trkpt lat="43.63083" lon="1.40377">
        <ele>138</ele>
        <time>2025-02-02T12:44:36Z</time>
      </trkpt>
      <trkpt lat="43.6308" lon="1.40376">
        <ele>137</ele>
        <time>2025-02-02T12:44:37Z</time>
      </trkpt>
      <trkpt lat="43.63077" lon="1.40375">
        <ele>137</ele>
        <time>2025-02-02T12:44:38Z</time>
      </trkpt>
      <trkpt lat="43.63075" lon="1.40374">
        <ele>137</ele>
        <time>2025-02-02T12:44:39Z</time>
      </trkpt>
      <trkpt lat="43.63072" lon="1.40373">
        <ele>137</ele>
        <time>2025-02-02T12:44:40Z</time>
      </trkpt>
      <trkpt lat="43.6307" lon="1.40371">
        <ele>138</ele>
        <time>2025-02-02T12:44:41Z</time>
      </trkpt>
      <trkpt lat="43.63067" lon="1.4037">
        <ele>138</ele>
        <time>2025-02-02T12:44:42Z</time>
      </trkpt>
      <trkpt lat="43.63063" lon="1.40368">
        <ele>138</ele>
        <time>2025-02-02T12:44:43Z</time>
      </trkpt>
      <trkpt lat="43.63062" lon="1.40367">
        <ele>138</ele>
        <time>2025-02-02T12:44:44Z</time>
      </trkpt>
      <trkpt lat="43.63058" lon="1.40366">
        <ele>138</ele>
        <time>2025-02-02T12:44:45Z</time>
      </trkpt>
      <trkpt lat="43.63057" lon="1.40365">
        <ele>138</ele>
        <time>2025-02-02T12:44:46Z</time>
      </trkpt>
      <trkpt lat="43.63054" lon="1.40364">
        <ele>138</ele>
        <time>2025-02-02T12:44:47Z</time>
      </trkpt>
      <trkpt lat="43.63052" lon="1.40362">
        <ele>138</ele>
        <time>2025-02-02T12:44:48Z</time>
      </trkpt>
      <trkpt lat="43.63049" lon="1.40361">
        <ele>138</ele>
        <time>2025-02-02T12:44:49Z</time>
      </trkpt>
      <trkpt lat="43.63047" lon="1.40359">
        <ele>138</ele>
        <time>2025-02-02T12:44:50Z</time>
      </trkpt>
      <trkpt lat="43.63045" lon="1.40358">
        <ele>138</ele>
        <time>2025-02-02T12:44:51Z</time>
      </trkpt>
      <trkpt lat="43.63042" lon="1.40358">
        <ele>138</ele>
        <time>2025-02-02T12:44:52Z</time>
      </trkpt>
      <trkpt lat="43.6304" lon="1.40357">
        <ele>138</ele>
        <time>2025-02-02T12:44:53Z</time>
      </trkpt>
      <trkpt lat="43.63038" lon="1.40355">
        <ele>138</ele>
        <time>2025-02-02T12:44:54Z</time>
      </trkpt>
      <trkpt lat="43.63035" lon="1.40354">
        <ele>138</ele>
        <time>2025-02-02T12:44:55Z</time>
      </trkpt>
      <trkpt lat="43.63033" lon="1.40352">
        <ele>138</ele>
        <time>2025-02-02T12:44:56Z</time>
      </trkpt>
      <trkpt lat="43.63031" lon="1.40351">
        <ele>138</ele>
        <time>2025-02-02T12:44:57Z</time>
      </trkpt>
      <trkpt lat="43.63029" lon="1.40351">
        <ele>138</ele>
        <time>2025-02-02T12:44:58Z</time>
      </trkpt>
      <trkpt lat="43.63026" lon="1.4035">
        <ele>138</ele>
        <time>2025-02-02T12:44:59Z</time>
      </trkpt>
      <trkpt lat="43.63024" lon="1.40349">
        <ele>138</ele>
        <time>2025-02-02T12:45:00Z</time>
      </trkpt>
      <trkpt lat="43.63021" lon="1.40348">
        <ele>138</ele>
        <time>2025-02-02T12:45:01Z</time>
      </trkpt>
      <trkpt lat="43.63018" lon="1.40347">
        <ele>138</ele>
        <time>2025-02-02T12:45:02Z</time>
      </trkpt>
      <trkpt lat="43.63017" lon="1.40346">
        <ele>138</ele>
        <time>2025-02-02T12:45:03Z</time>
      </trkpt>
      <trkpt lat="43.63014" lon="1.40345">
        <ele>138</ele>
        <time>2025-02-02T12:45:04Z</time>
      </trkpt>
      <trkpt lat="43.63009" lon="1.40344">
        <ele>138</ele>
        <time>2025-02-02T12:45:05Z</time>
      </trkpt>
      <trkpt lat="43.63008" lon="1.40343">
        <ele>138</ele>
        <time>2025-02-02T12:45:06Z</time>
      </trkpt>
      <trkpt lat="43.63005" lon="1.40342">
        <ele>138</ele>
        <time>2025-02-02T12:45:07Z</time>
      </trkpt>
      <trkpt lat="43.63003" lon="1.40341">
        <ele>138</ele>
        <time>2025-02-02T12:45:08Z</time>
      </trkpt>
      <trkpt lat="43.63001" lon="1.4034">
        <ele>138</ele>
        <time>2025-02-02T12:45:09Z</time>
      </trkpt>
      <trkpt lat="43.62998" lon="1.4034">
        <ele>138</ele>
        <time>2025-02-02T12:45:10Z</time>
      </trkpt>
      <trkpt lat="43.62996" lon="1.40339">
        <ele>138</ele>
        <time>2025-02-02T12:45:11Z</time>
      </trkpt>
      <trkpt lat="43.62993" lon="1.40338">
        <ele>138</ele>
        <time>2025-02-02T12:45:12Z</time>
      </trkpt>
      <trkpt lat="43.62991" lon="1.40337">
        <ele>138</ele>
        <time>2025-02-02T12:45:13Z</time>
      </trkpt>
      <trkpt lat="43.62988" lon="1.40335">
        <ele>138</ele>
        <time>2025-02-02T12:45:14Z</time>
      </trkpt>
      <trkpt lat="43.62986" lon="1.40334">
        <ele>138</ele>
        <time>2025-02-02T12:45:15Z</time>
      </trkpt>
      <trkpt lat="43.62983" lon="1.40333">
        <ele>138</ele>
        <time>2025-02-02T12:45:16Z</time>
      </trkpt>
      <trkpt lat="43.6298" lon="1.40332">
        <ele>138</ele>
        <time>2025-02-02T12:45:17Z</time>
      </trkpt>
      <trkpt lat="43.62977" lon="1.40331">
        <ele>138</ele>
        <time>2025-02-02T12:45:18Z</time>
      </trkpt>
      <trkpt lat="43.62974" lon="1.40329">
        <ele>138</ele>
        <time>2025-02-02T12:45:19Z</time>
      </trkpt>
      <trkpt lat="43.62972" lon="1.40327">
        <ele>138</ele>
        <time>2025-02-02T12:45:20Z</time>
      </trkpt>
      <trkpt lat="43.62968" lon="1.40325">
        <ele>138</ele>
        <time>2025-02-02T12:45:21Z</time>
      </trkpt>
      <trkpt lat="43.62967" lon="1.40324">
        <ele>139</ele>
        <time>2025-02-02T12:45:22Z</time>
      </trkpt>
      <trkpt lat="43.62963" lon="1.40322">
        <ele>139</ele>
        <time>2025-02-02T12:45:23Z</time>
      </trkpt>
      <trkpt lat="43.62962" lon="1.40321">
        <ele>139</ele>
        <time>2025-02-02T12:45:24Z</time>
      </trkpt>
      <trkpt lat="43.62959" lon="1.4032">
        <ele>139</ele>
        <time>2025-02-02T12:45:25Z</time>
      </trkpt>
      <trkpt lat="43.62956" lon="1.40318">
        <ele>139</ele>
        <time>2025-02-02T12:45:26Z</time>
      </trkpt>
      <trkpt lat="43.62953" lon="1.40317">
        <ele>139</ele>
        <time>2025-02-02T12:45:27Z</time>
      </trkpt>
      <trkpt lat="43.62951" lon="1.40316">
        <ele>139</ele>
        <time>2025-02-02T12:45:28Z</time>
      </trkpt>
      <trkpt lat="43.62948" lon="1.40314">
        <ele>139</ele>
        <time>2025-02-02T12:45:29Z</time>
      </trkpt>
      <trkpt lat="43.62945" lon="1.40313">
        <ele>139</ele>
        <time>2025-02-02T12:45:30Z</time>
      </trkpt>
      <trkpt lat="43.62943" lon="1.40312">
        <ele>139</ele>
        <time>2025-02-02T12:45:31Z</time>
      </trkpt>
      <trkpt lat="43.6294" lon="1.40311">
        <ele>139</ele>
        <time>2025-02-02T12:45:32Z</time>
      </trkpt>
      <trkpt lat="43.62937" lon="1.4031">
        <ele>139</ele>
        <time>2025-02-02T12:45:33Z</time>
      </trkpt>
      <trkpt lat="43.62934" lon="1.40309">
        <ele>139</ele>
        <time>2025-02-02T12:45:34Z</time>
      </trkpt>
      <trkpt lat="43.62932" lon="1.40308">
        <ele>139</ele>
        <time>2025-02-02T12:45:35Z</time>
      </trkpt>
      <trkpt lat="43.62929" lon="1.40308">
        <ele>139</ele>
        <time>2025-02-02T12:45:36Z</time>
      </trkpt>
      <trkpt lat="43.62926" lon="1.40307">
        <ele>139</ele>
        <time>2025-02-02T12:45:37Z</time>
      </trkpt>
      <trkpt lat="43.62924" lon="1.40307">
        <ele>139</ele>
        <time>2025-02-02T12:45:38Z</time>
      </trkpt>
      <trkpt lat="43.62921" lon="1.40306">
        <ele>139</ele>
        <time>2025-02-02T12:45:39Z</time>
      </trkpt>
      <trkpt lat="43.62919" lon="1.40305">
        <ele>139</ele>
        <time>2025-02-02T12:45:40Z</time>
      </trkpt>
      <trkpt lat="43.62916" lon="1.40304">
        <ele>139</ele>
        <time>2025-02-02T12:45:41Z</time>
      </trkpt>
      <trkpt lat="43.62914" lon="1.40304">
        <ele>139</ele>
        <time>2025-02-02T12:45:42Z</time>
      </trkpt>
      <trkpt lat="43.62911" lon="1.40303">
        <ele>139</ele>
        <time>2025-02-02T12:45:43Z</time>
      </trkpt>
      <trkpt lat="43.62908" lon="1.40302">
        <ele>139</ele>
        <time>2025-02-02T12:45:44Z</time>
      </trkpt>
      <trkpt lat="43.62906" lon="1.40301">
        <ele>139</ele>
        <time>2025-02-02T12:45:45Z</time>
      </trkpt>
      <trkpt lat="43.62903" lon="1.40301">
        <ele>139</ele>
        <time>2025-02-02T12:45:46Z</time>
      </trkpt>
      <trkpt lat="43.629" lon="1.403">
        <ele>139</ele>
        <time>2025-02-02T12:45:47Z</time>
      </trkpt>
      <trkpt lat="43.62898" lon="1.40299">
        <ele>139</ele>
        <time>2025-02-02T12:45:48Z</time>
      </trkpt>
      <trkpt lat="43.62895" lon="1.40299">
        <ele>139</ele>
        <time>2025-02-02T12:45:49Z</time>
      </trkpt>
      <trkpt lat="43.62893" lon="1.40298">
        <ele>139</ele>
        <time>2025-02-02T12:45:50Z</time>
      </trkpt>
      <trkpt lat="43.6289" lon="1.40297">
        <ele>139</ele>
        <time>2025-02-02T12:45:51Z</time>
      </trkpt>
      <trkpt lat="43.62887" lon="1.40296">
        <ele>139</ele>
        <time>2025-02-02T12:45:52Z</time>
      </trkpt>
      <trkpt lat="43.62885" lon="1.40295">
        <ele>139</ele>
        <time>2025-02-02T12:45:53Z</time>
      </trkpt>
      <trkpt lat="43.62882" lon="1.40295">
        <ele>139</ele>
        <time>2025-02-02T12:45:54Z</time>
      </trkpt>
      <trkpt lat="43.6288" lon="1.40295">
        <ele>139</ele>
        <time>2025-02-02T12:45:55Z</time>
      </trkpt>
      <trkpt lat="43.62877" lon="1.40294">
        <ele>139</ele>
        <time>2025-02-02T12:45:56Z</time>
      </trkpt>
      <trkpt lat="43.62874" lon="1.40294">
        <ele>139</ele>
        <time>2025-02-02T12:45:57Z</time>
      </trkpt>
      <trkpt lat="43.62871" lon="1.40293">
        <ele>139</ele>
        <time>2025-02-02T12:45:58Z</time>
      </trkpt>
      <trkpt lat="43.62867" lon="1.40291">
        <ele>139</ele>
        <time>2025-02-02T12:45:59Z</time>
      </trkpt>
      <trkpt lat="43.62866" lon="1.4029">
        <ele>139</ele>
        <time>2025-02-02T12:46:00Z</time>
      </trkpt>
      <trkpt lat="43.62863" lon="1.40288">
        <ele>139</ele>
        <time>2025-02-02T12:46:01Z</time>
      </trkpt>
      <trkpt lat="43.6286" lon="1.40286">
        <ele>139</ele>
        <time>2025-02-02T12:46:02Z</time>
      </trkpt>
      <trkpt lat="43.62858" lon="1.40285">
        <ele>138</ele>
        <time>2025-02-02T12:46:03Z</time>
      </trkpt>
      <trkpt lat="43.62855" lon="1.40284">
        <ele>138</ele>
        <time>2025-02-02T12:46:04Z</time>
      </trkpt>
      <trkpt lat="43.62853" lon="1.40283">
        <ele>138</ele>
        <time>2025-02-02T12:46:05Z</time>
      </trkpt>
      <trkpt lat="43.6285" lon="1.40281">
        <ele>138</ele>
        <time>2025-02-02T12:46:06Z</time>
      </trkpt>
      <trkpt lat="43.62848" lon="1.4028">
        <ele>139</ele>
        <time>2025-02-02T12:46:07Z</time>
      </trkpt>
      <trkpt lat="43.62845" lon="1.40279">
        <ele>139</ele>
        <time>2025-02-02T12:46:08Z</time>
      </trkpt>
      <trkpt lat="43.62843" lon="1.40278">
        <ele>139</ele>
        <time>2025-02-02T12:46:09Z</time>
      </trkpt>
      <trkpt lat="43.6284" lon="1.40278">
        <ele>139</ele>
        <time>2025-02-02T12:46:10Z</time>
      </trkpt>
      <trkpt lat="43.62838" lon="1.40277">
        <ele>139</ele>
        <time>2025-02-02T12:46:11Z</time>
      </trkpt>
      <trkpt lat="43.62836" lon="1.40276">
        <ele>139</ele>
        <time>2025-02-02T12:46:12Z</time>
      </trkpt>
      <trkpt lat="43.62833" lon="1.40275">
        <ele>139</ele>
        <time>2025-02-02T12:46:13Z</time>
      </trkpt>
      <trkpt lat="43.6283" lon="1.40275">
        <ele>139</ele>
        <time>2025-02-02T12:46:14Z</time>
      </trkpt>
      <trkpt lat="43.62828" lon="1.40274">
        <ele>139</ele>
        <time>2025-02-02T12:46:15Z</time>
      </trkpt>
      <trkpt lat="43.62826" lon="1.40274">
        <ele>139</ele>
        <time>2025-02-02T12:46:16Z</time>
      </trkpt>
      <trkpt lat="43.62823" lon="1.40273">
        <ele>139</ele>
        <time>2025-02-02T12:46:17Z</time>
      </trkpt>
      <trkpt lat="43.62819" lon="1.40272">
        <ele>139</ele>
        <time>2025-02-02T12:46:18Z</time>
      </trkpt>
      <trkpt lat="43.62818" lon="1.40271">
        <ele>139</ele>
        <time>2025-02-02T12:46:19Z</time>
      </trkpt>
      <trkpt lat="43.62815" lon="1.4027">
        <ele>139</ele>
        <time>2025-02-02T12:46:20Z</time>
      </trkpt>
      <trkpt lat="43.62813" lon="1.40269">
        <ele>139</ele>
        <time>2025-02-02T12:46:21Z</time>
      </trkpt>
      <trkpt lat="43.6281" lon="1.40269">
        <ele>139</ele>
        <time>2025-02-02T12:46:22Z</time>
      </trkpt>
      <trkpt lat="43.62807" lon="1.40268">
        <ele>139</ele>
        <time>2025-02-02T12:46:23Z</time>
      </trkpt>
      <trkpt lat="43.62805" lon="1.40267">
        <ele>139</ele>
        <time>2025-02-02T12:46:24Z</time>
      </trkpt>
      <trkpt lat="43.62802" lon="1.40266">
        <ele>139</ele>
        <time>2025-02-02T12:46:25Z</time>
      </trkpt>
      <trkpt lat="43.62799" lon="1.40266">
        <ele>139</ele>
        <time>2025-02-02T12:46:26Z</time>
      </trkpt>
      <trkpt lat="43.62797" lon="1.40265">
        <ele>139</ele>
        <time>2025-02-02T12:46:27Z</time>
      </trkpt>
      <trkpt lat="43.62794" lon="1.40264">
        <ele>139</ele>
        <time>2025-02-02T12:46:28Z</time>
      </trkpt>
      <trkpt lat="43.62792" lon="1.40264">
        <ele>138</ele>
        <time>2025-02-02T12:46:29Z</time>
      </trkpt>
      <trkpt lat="43.62789" lon="1.40264">
        <ele>138</ele>
        <time>2025-02-02T12:46:30Z</time>
      </trkpt>
      <trkpt lat="43.62786" lon="1.40263">
        <ele>138</ele>
        <time>2025-02-02T12:46:31Z</time>
      </trkpt>
      <trkpt lat="43.62784" lon="1.40262">
        <ele>138</ele>
        <time>2025-02-02T12:46:32Z</time>
      </trkpt>
      <trkpt lat="43.62781" lon="1.40261">
        <ele>138</ele>
        <time>2025-02-02T12:46:33Z</time>
      </trkpt>
      <trkpt lat="43.62779" lon="1.40261">
        <ele>138</ele>
        <time>2025-02-02T12:46:34Z</time>
      </trkpt>
      <trkpt lat="43.62776" lon="1.4026">
        <ele>138</ele>
        <time>2025-02-02T12:46:35Z</time>
      </trkpt>
      <trkpt lat="43.62773" lon="1.4026">
        <ele>138</ele>
        <time>2025-02-02T12:46:36Z</time>
      </trkpt>
      <trkpt lat="43.62769" lon="1.4026">
        <ele>138</ele>
        <time>2025-02-02T12:46:37Z</time>
      </trkpt>
      <trkpt lat="43.62768" lon="1.4026">
        <ele>138</ele>
        <time>2025-02-02T12:46:38Z</time>
      </trkpt>
      <trkpt lat="43.62765" lon="1.4026">
        <ele>138</ele>
        <time>2025-02-02T12:46:39Z</time>
      </trkpt>
      <trkpt lat="43.62763" lon="1.4026">
        <ele>138</ele>
        <time>2025-02-02T12:46:40Z</time>
      </trkpt>
      <trkpt lat="43.62761" lon="1.40259">
        <ele>138</ele>
        <time>2025-02-02T12:46:41Z</time>
      </trkpt>
      <trkpt lat="43.62759" lon="1.40258">
        <ele>138</ele>
        <time>2025-02-02T12:46:42Z</time>
      </trkpt>
      <trkpt lat="43.62757" lon="1.40258">
        <ele>138</ele>
        <time>2025-02-02T12:46:43Z</time>
      </trkpt>
      <trkpt lat="43.62755" lon="1.40257">
        <ele>138</ele>
        <time>2025-02-02T12:46:44Z</time>
      </trkpt>
      <trkpt lat="43.62752" lon="1.40256">
        <ele>138</ele>
        <time>2025-02-02T12:46:45Z</time>
      </trkpt>
      <trkpt lat="43.62751" lon="1.40256">
        <ele>138</ele>
        <time>2025-02-02T12:46:46Z</time>
      </trkpt>
      <trkpt lat="43.62748" lon="1.40255">
        <ele>138</ele>
        <time>2025-02-02T12:46:47Z</time>
      </trkpt>
      <trkpt lat="43.62746" lon="1.40254">
        <ele>138</ele>
        <time>2025-02-02T12:46:48Z</time>
      </trkpt>
      <trkpt lat="43.62744" lon="1.40253">
        <ele>138</ele>
        <time>2025-02-02T12:46:49Z</time>
      </trkpt>
      <trkpt lat="43.62742" lon="1.40253">
        <ele>138</ele>
        <time>2025-02-02T12:46:50Z</time>
      </trkpt>
      <trkpt lat="43.62739" lon="1.40252">
        <ele>138</ele>
        <time>2025-02-02T12:46:51Z</time>
      </trkpt>
      <trkpt lat="43.62737" lon="1.40252">
        <ele>138</ele>
        <time>2025-02-02T12:46:52Z</time>
      </trkpt>
      <trkpt lat="43.62735" lon="1.40252">
        <ele>138</ele>
        <time>2025-02-02T12:46:53Z</time>
      </trkpt>
      <trkpt lat="43.62733" lon="1.40252">
        <ele>138</ele>
        <time>2025-02-02T12:46:54Z</time>
      </trkpt>
      <trkpt lat="43.62731" lon="1.40252">
        <ele>138</ele>
        <time>2025-02-02T12:46:55Z</time>
      </trkpt>
      <trkpt lat="43.62727" lon="1.40251">
        <ele>138</ele>
        <time>2025-02-02T12:46:56Z</time>
      </trkpt>
      <trkpt lat="43.62725" lon="1.4025">
        <ele>138</ele>
        <time>2025-02-02T12:46:57Z</time>
      </trkpt>
      <trkpt lat="43.62721" lon="1.4025">
        <ele>138</ele>
        <time>2025-02-02T12:46:58Z</time>
      </trkpt>
      <trkpt lat="43.62719" lon="1.40249">
        <ele>138</ele>
        <time>2025-02-02T12:46:59Z</time>
      </trkpt>
      <trkpt lat="43.62717" lon="1.40249">
        <ele>138</ele>
        <time>2025-02-02T12:47:00Z</time>
      </trkpt>
      <trkpt lat="43.62715" lon="1.40248">
        <ele>138</ele>
        <time>2025-02-02T12:47:01Z</time>
      </trkpt>
      <trkpt lat="43.62712" lon="1.40247">
        <ele>138</ele>
        <time>2025-02-02T12:47:02Z</time>
      </trkpt>
      <trkpt lat="43.62709" lon="1.40247">
        <ele>138</ele>
        <time>2025-02-02T12:47:03Z</time>
      </trkpt>
      <trkpt lat="43.62707" lon="1.40246">
        <ele>138</ele>
        <time>2025-02-02T12:47:04Z</time>
      </trkpt>
      <trkpt lat="43.62704" lon="1.40245">
        <ele>138</ele>
        <time>2025-02-02T12:47:05Z</time>
      </trkpt>
      <trkpt lat="43.62701" lon="1.40245">
        <ele>138</ele>
        <time>2025-02-02T12:47:06Z</time>
      </trkpt>
      <trkpt lat="43.62699" lon="1.40245">
        <ele>139</ele>
        <time>2025-02-02T12:47:07Z</time>
      </trkpt>
      <trkpt lat="43.62696" lon="1.40244">
        <ele>139</ele>
        <time>2025-02-02T12:47:08Z</time>
      </trkpt>
      <trkpt lat="43.62693" lon="1.40244">
        <ele>138</ele>
        <time>2025-02-02T12:47:09Z</time>
      </trkpt>
      <trkpt lat="43.62691" lon="1.40243">
        <ele>138</ele>
        <time>2025-02-02T12:47:10Z</time>
      </trkpt>
      <trkpt lat="43.62689" lon="1.40242">
        <ele>138</ele>
        <time>2025-02-02T12:47:11Z</time>
      </trkpt>
      <trkpt lat="43.62686" lon="1.40242">
        <ele>138</ele>
        <time>2025-02-02T12:47:12Z</time>
      </trkpt>
      <trkpt lat="43.62684" lon="1.40241">
        <ele>138</ele>
        <time>2025-02-02T12:47:13Z</time>
      </trkpt>
      <trkpt lat="43.62681" lon="1.4024">
        <ele>138</ele>
        <time>2025-02-02T12:47:14Z</time>
      </trkpt>
      <trkpt lat="43.62677" lon="1.4024">
        <ele>138</ele>
        <time>2025-02-02T12:47:15Z</time>
      </trkpt>
      <trkpt lat="43.62676" lon="1.40239">
        <ele>138</ele>
        <time>2025-02-02T12:47:16Z</time>
      </trkpt>
      <trkpt lat="43.62672" lon="1.40239">
        <ele>138</ele>
        <time>2025-02-02T12:47:17Z</time>
      </trkpt>
      <trkpt lat="43.6267" lon="1.40238">
        <ele>138</ele>
        <time>2025-02-02T12:47:18Z</time>
      </trkpt>
      <trkpt lat="43.62668" lon="1.40238">
        <ele>138</ele>
        <time>2025-02-02T12:47:19Z</time>
      </trkpt>
      <trkpt lat="43.62665" lon="1.40237">
        <ele>138</ele>
        <time>2025-02-02T12:47:20Z</time>
      </trkpt>
      <trkpt lat="43.62663" lon="1.40236">
        <ele>138</ele>
        <time>2025-02-02T12:47:21Z</time>
      </trkpt>
      <trkpt lat="43.6266" lon="1.40236">
        <ele>138</ele>
        <time>2025-02-02T12:47:22Z</time>
      </trkpt>
      <trkpt lat="43.62657" lon="1.40235">
        <ele>138</ele>
        <time>2025-02-02T12:47:23Z</time>
      </trkpt>
      <trkpt lat="43.62654" lon="1.40235">
        <ele>138</ele>
        <time>2025-02-02T12:47:24Z</time>
      </trkpt>
      <trkpt lat="43.62651" lon="1.40234">
        <ele>138</ele>
        <time>2025-02-02T12:47:25Z</time>
      </trkpt>
      <trkpt lat="43.62648" lon="1.40234">
        <ele>138</ele>
        <time>2025-02-02T12:47:26Z</time>
      </trkpt>
      <trkpt lat="43.62645" lon="1.40233">
        <ele>138</ele>
        <time>2025-02-02T12:47:27Z</time>
      </trkpt>
      <trkpt lat="43.62642" lon="1.40233">
        <ele>138</ele>
        <time>2025-02-02T12:47:28Z</time>
      </trkpt>
      <trkpt lat="43.6264" lon="1.40233">
        <ele>138</ele>
        <time>2025-02-02T12:47:29Z</time>
      </trkpt>
      <trkpt lat="43.62637" lon="1.40233">
        <ele>138</ele>
        <time>2025-02-02T12:47:30Z</time>
      </trkpt>
      <trkpt lat="43.62634" lon="1.40233">
        <ele>138</ele>
        <time>2025-02-02T12:47:31Z</time>
      </trkpt>
      <trkpt lat="43.62631" lon="1.40233">
        <ele>138</ele>
        <time>2025-02-02T12:47:32Z</time>
      </trkpt>
      <trkpt lat="43.62628" lon="1.40233">
        <ele>138</ele>
        <time>2025-02-02T12:47:33Z</time>
      </trkpt>
      <trkpt lat="43.62626" lon="1.40232">
        <ele>138</ele>
        <time>2025-02-02T12:47:34Z</time>
      </trkpt>
      <trkpt lat="43.62623" lon="1.40232">
        <ele>138</ele>
        <time>2025-02-02T12:47:35Z</time>
      </trkpt>
      <trkpt lat="43.6262" lon="1.40231">
        <ele>138</ele>
        <time>2025-02-02T12:47:36Z</time>
      </trkpt>
      <trkpt lat="43.62617" lon="1.40231">
        <ele>138</ele>
        <time>2025-02-02T12:47:37Z</time>
      </trkpt>
      <trkpt lat="43.62615" lon="1.4023">
        <ele>138</ele>
        <time>2025-02-02T12:47:38Z</time>
      </trkpt>
      <trkpt lat="43.62613" lon="1.40229">
        <ele>138</ele>
        <time>2025-02-02T12:47:39Z</time>
      </trkpt>
      <trkpt lat="43.62611" lon="1.40229">
        <ele>138</ele>
        <time>2025-02-02T12:47:40Z</time>
      </trkpt>
      <trkpt lat="43.62609" lon="1.40229">
        <ele>138</ele>
        <time>2025-02-02T12:47:41Z</time>
      </trkpt>
      <trkpt lat="43.62606" lon="1.40228">
        <ele>138</ele>
        <time>2025-02-02T12:47:42Z</time>
      </trkpt>
      <trkpt lat="43.62603" lon="1.40228">
        <ele>138</ele>
        <time>2025-02-02T12:47:43Z</time>
      </trkpt>
      <trkpt lat="43.626" lon="1.40228">
        <ele>138</ele>
        <time>2025-02-02T12:47:44Z</time>
      </trkpt>
      <trkpt lat="43.62597" lon="1.40227">
        <ele>138</ele>
        <time>2025-02-02T12:47:45Z</time>
      </trkpt>
      <trkpt lat="43.62594" lon="1.40227">
        <ele>138</ele>
        <time>2025-02-02T12:47:46Z</time>
      </trkpt>
      <trkpt lat="43.62591" lon="1.40227">
        <ele>139</ele>
        <time>2025-02-02T12:47:47Z</time>
      </trkpt>
      <trkpt lat="43.62588" lon="1.40226">
        <ele>139</ele>
        <time>2025-02-02T12:47:48Z</time>
      </trkpt>
      <trkpt lat="43.62586" lon="1.40226">
        <ele>139</ele>
        <time>2025-02-02T12:47:49Z</time>
      </trkpt>
      <trkpt lat="43.62583" lon="1.40226">
        <ele>139</ele>
        <time>2025-02-02T12:47:50Z</time>
      </trkpt>
      <trkpt lat="43.62581" lon="1.40226">
        <ele>139</ele>
        <time>2025-02-02T12:47:51Z</time>
      </trkpt>
      <trkpt lat="43.62579" lon="1.40225">
        <ele>139</ele>
        <time>2025-02-02T12:47:52Z</time>
      </trkpt>
      <trkpt lat="43.62576" lon="1.40225">
        <ele>139</ele>
        <time>2025-02-02T12:47:53Z</time>
      </trkpt>
      <trkpt lat="43.62574" lon="1.40225">
        <ele>139</ele>
        <time>2025-02-02T12:47:54Z</time>
      </trkpt>
      <trkpt lat="43.62572" lon="1.40224">
        <ele>139</ele>
        <time>2025-02-02T12:47:55Z</time>
      </trkpt>
      <trkpt lat="43.62569" lon="1.40223">
        <ele>139</ele>
        <time>2025-02-02T12:47:56Z</time>
      </trkpt>
      <trkpt lat="43.62567" lon="1.40222">
        <ele>138</ele>
        <time>2025-02-02T12:47:57Z</time>
      </trkpt>
      <trkpt lat="43.62565" lon="1.40222">
        <ele>138</ele>
        <time>2025-02-02T12:47:58Z</time>
      </trkpt>
      <trkpt lat="43.62562" lon="1.40221">
        <ele>138</ele>
        <time>2025-02-02T12:47:59Z</time>
      </trkpt>
      <trkpt lat="43.6256" lon="1.40221">
        <ele>138</ele>
        <time>2025-02-02T12:48:00Z</time>
      </trkpt>
      <trkpt lat="43.62557" lon="1.40221">
        <ele>138</ele>
        <time>2025-02-02T12:48:01Z</time>
      </trkpt>
      <trkpt lat="43.62554" lon="1.40221">
        <ele>138</ele>
        <time>2025-02-02T12:48:02Z</time>
      </trkpt>
      <trkpt lat="43.62552" lon="1.40221">
        <ele>139</ele>
        <time>2025-02-02T12:48:03Z</time>
      </trkpt>
      <trkpt lat="43.62549" lon="1.40223">
        <ele>139</ele>
        <time>2025-02-02T12:48:04Z</time>
      </trkpt>
      <trkpt lat="43.62549" lon="1.40223">
        <ele>139</ele>
        <time>2025-02-02T12:48:05Z</time>
      </trkpt>
      <trkpt lat="43.62545" lon="1.40226">
        <ele>139</ele>
        <time>2025-02-02T12:48:06Z</time>
      </trkpt>
      <trkpt lat="43.62544" lon="1.40228">
        <ele>139</ele>
        <time>2025-02-02T12:48:07Z</time>
      </trkpt>
      <trkpt lat="43.62542" lon="1.4023">
        <ele>139</ele>
        <time>2025-02-02T12:48:08Z</time>
      </trkpt>
      <trkpt lat="43.62539" lon="1.40232">
        <ele>139</ele>
        <time>2025-02-02T12:48:09Z</time>
      </trkpt>
      <trkpt lat="43.62536" lon="1.40235">
        <ele>139</ele>
        <time>2025-02-02T12:48:10Z</time>
      </trkpt>
      <trkpt lat="43.62533" lon="1.40237">
        <ele>139</ele>
        <time>2025-02-02T12:48:11Z</time>
      </trkpt>
      <trkpt lat="43.62531" lon="1.40238">
        <ele>139</ele>
        <time>2025-02-02T12:48:12Z</time>
      </trkpt>
      <trkpt lat="43.62528" lon="1.4024">
        <ele>139</ele>
        <time>2025-02-02T12:48:13Z</time>
      </trkpt>
      <trkpt lat="43.62525" lon="1.40241">
        <ele>139</ele>
        <time>2025-02-02T12:48:14Z</time>
      </trkpt>
      <trkpt lat="43.62522" lon="1.40242">
        <ele>139</ele>
        <time>2025-02-02T12:48:15Z</time>
      </trkpt>
      <trkpt lat="43.62519" lon="1.40243">
        <ele>139</ele>
        <time>2025-02-02T12:48:16Z</time>
      </trkpt>
      <trkpt lat="43.62516" lon="1.40243">
        <ele>139</ele>
        <time>2025-02-02T12:48:17Z</time>
      </trkpt>
      <trkpt lat="43.62513" lon="1.40242">
        <ele>140</ele>
        <time>2025-02-02T12:48:18Z</time>
      </trkpt>
      <trkpt lat="43.6251" lon="1.40242">
        <ele>140</ele>
        <time>2025-02-02T12:48:19Z</time>
      </trkpt>
      <trkpt lat="43.62507" lon="1.40242">
        <ele>140</ele>
        <time>2025-02-02T12:48:20Z</time>
      </trkpt>
      <trkpt lat="43.62504" lon="1.40242">
        <ele>140</ele>
        <time>2025-02-02T12:48:21Z</time>
      </trkpt>
      <trkpt lat="43.62501" lon="1.40243">
        <ele>141</ele>
        <time>2025-02-02T12:48:22Z</time>
      </trkpt>
      <trkpt lat="43.62499" lon="1.40244">
        <ele>141</ele>
        <time>2025-02-02T12:48:23Z</time>
      </trkpt>
      <trkpt lat="43.62497" lon="1.40245">
        <ele>142</ele>
        <time>2025-02-02T12:48:24Z</time>
      </trkpt>
      <trkpt lat="43.62494" lon="1.40246">
        <ele>142</ele>
        <time>2025-02-02T12:48:25Z</time>
      </trkpt>
      <trkpt lat="43.62492" lon="1.40248">
        <ele>142</ele>
        <time>2025-02-02T12:48:26Z</time>
      </trkpt>
      <trkpt lat="43.62489" lon="1.40249">
        <ele>142</ele>
        <time>2025-02-02T12:48:27Z</time>
      </trkpt>
      <trkpt lat="43.62486" lon="1.40248">
        <ele>142</ele>
        <time>2025-02-02T12:48:28Z</time>
      </trkpt>
      <trkpt lat="43.62483" lon="1.40247">
        <ele>142</ele>
        <time>2025-02-02T12:48:29Z</time>
      </trkpt>
      <trkpt lat="43.6248" lon="1.40247">
        <ele>142</ele>
        <time>2025-02-02T12:48:30Z</time>
      </trkpt>
      <trkpt lat="43.62476" lon="1.40249">
        <ele>142</ele>
        <time>2025-02-02T12:48:31Z</time>
      </trkpt>
      <trkpt lat="43.62475" lon="1.4025">
        <ele>143</ele>
        <time>2025-02-02T12:48:32Z</time>
      </trkpt>
      <trkpt lat="43.62473" lon="1.40252">
        <ele>143</ele>
        <time>2025-02-02T12:48:33Z</time>
      </trkpt>
      <trkpt lat="43.62472" lon="1.40255">
        <ele>144</ele>
        <time>2025-02-02T12:48:34Z</time>
      </trkpt>
      <trkpt lat="43.62471" lon="1.40257">
        <ele>143</ele>
        <time>2025-02-02T12:48:35Z</time>
      </trkpt>
      <trkpt lat="43.62469" lon="1.40258">
        <ele>144</ele>
        <time>2025-02-02T12:48:36Z</time>
      </trkpt>
      <trkpt lat="43.62469" lon="1.40256">
        <ele>144</ele>
        <time>2025-02-02T12:48:37Z</time>
      </trkpt>
      <trkpt lat="43.62468" lon="1.40253">
        <ele>144</ele>
        <time>2025-02-02T12:48:38Z</time>
      </trkpt>
      <trkpt lat="43.62468" lon="1.40249">
        <ele>144</ele>
        <time>2025-02-02T12:48:39Z</time>
      </trkpt>
      <trkpt lat="43.62468" lon="1.40245">
        <ele>144</ele>
        <time>2025-02-02T12:48:40Z</time>
      </trkpt>
      <trkpt lat="43.62468" lon="1.40242">
        <ele>144</ele>
        <time>2025-02-02T12:48:41Z</time>
      </trkpt>
      <trkpt lat="43.62469" lon="1.40238">
        <ele>144</ele>
        <time>2025-02-02T12:48:42Z</time>
      </trkpt>
      <trkpt lat="43.62469" lon="1.40235">
        <ele>144</ele>
        <time>2025-02-02T12:48:43Z</time>
      </trkpt>
      <trkpt lat="43.62469" lon="1.40232">
        <ele>144</ele>
        <time>2025-02-02T12:48:44Z</time>
      </trkpt>
      <trkpt lat="43.62469" lon="1.40228">
        <ele>145</ele>
        <time>2025-02-02T12:48:45Z</time>
      </trkpt>
      <trkpt lat="43.62469" lon="1.40225">
        <ele>145</ele>
        <time>2025-02-02T12:48:46Z</time>
      </trkpt>
      <trkpt lat="43.62469" lon="1.40221">
        <ele>145</ele>
        <time>2025-02-02T12:48:47Z</time>
      </trkpt>
      <trkpt lat="43.62469" lon="1.40217">
        <ele>146</ele>
        <time>2025-02-02T12:48:48Z</time>
      </trkpt>
      <trkpt lat="43.62469" lon="1.40214">
        <ele>146</ele>
        <time>2025-02-02T12:48:49Z</time>
      </trkpt>
      <trkpt lat="43.6247" lon="1.4021">
        <ele>146</ele>
        <time>2025-02-02T12:48:50Z</time>
      </trkpt>
      <trkpt lat="43.6247" lon="1.40206">
        <ele>146</ele>
        <time>2025-02-02T12:48:51Z</time>
      </trkpt>
      <trkpt lat="43.6247" lon="1.40202">
        <ele>147</ele>
        <time>2025-02-02T12:48:52Z</time>
      </trkpt>
      <trkpt lat="43.6247" lon="1.40199">
        <ele>148</ele>
        <time>2025-02-02T12:48:53Z</time>
      </trkpt>
      <trkpt lat="43.6247" lon="1.40195">
        <ele>148</ele>
        <time>2025-02-02T12:48:54Z</time>
      </trkpt>
      <trkpt lat="43.62471" lon="1.40192">
        <ele>148</ele>
        <time>2025-02-02T12:48:55Z</time>
      </trkpt>
      <trkpt lat="43.6247" lon="1.40189">
        <ele>148</ele>
        <time>2025-02-02T12:48:56Z</time>
      </trkpt>
      <trkpt lat="43.6247" lon="1.40185">
        <ele>148</ele>
        <time>2025-02-02T12:48:57Z</time>
      </trkpt>
      <trkpt lat="43.62471" lon="1.40182">
        <ele>148</ele>
        <time>2025-02-02T12:48:58Z</time>
      </trkpt>
      <trkpt lat="43.62471" lon="1.40179">
        <ele>148</ele>
        <time>2025-02-02T12:48:59Z</time>
      </trkpt>
      <trkpt lat="43.62471" lon="1.40175">
        <ele>147</ele>
        <time>2025-02-02T12:49:00Z</time>
      </trkpt>
      <trkpt lat="43.62471" lon="1.40172">
        <ele>147</ele>
        <time>2025-02-02T12:49:01Z</time>
      </trkpt>
      <trkpt lat="43.62471" lon="1.40168">
        <ele>147</ele>
        <time>2025-02-02T12:49:02Z</time>
      </trkpt>
      <trkpt lat="43.62471" lon="1.40164">
        <ele>147</ele>
        <time>2025-02-02T12:49:03Z</time>
      </trkpt>
      <trkpt lat="43.62471" lon="1.40161">
        <ele>147</ele>
        <time>2025-02-02T12:49:04Z</time>
      </trkpt>
      <trkpt lat="43.62471" lon="1.40157">
        <ele>147</ele>
        <time>2025-02-02T12:49:05Z</time>
      </trkpt>
      <trkpt lat="43.62471" lon="1.40154">
        <ele>147</ele>
        <time>2025-02-02T12:49:06Z</time>
      </trkpt>
      <trkpt lat="43.62471" lon="1.40151">
        <ele>148</ele>
        <time>2025-02-02T12:49:07Z</time>
      </trkpt>
      <trkpt lat="43.62472" lon="1.40147">
        <ele>148</ele>
        <time>2025-02-02T12:49:08Z</time>
      </trkpt>
      <trkpt lat="43.62472" lon="1.40142">
        <ele>148</ele>
        <time>2025-02-02T12:49:09Z</time>
      </trkpt>
      <trkpt lat="43.62472" lon="1.4014">
        <ele>148</ele>
        <time>2025-02-02T12:49:10Z</time>
      </trkpt>
      <trkpt lat="43.62472" lon="1.40135">
        <ele>148</ele>
        <time>2025-02-02T12:49:11Z</time>
      </trkpt>
      <trkpt lat="43.62472" lon="1.40134">
        <ele>148</ele>
        <time>2025-02-02T12:49:12Z</time>
      </trkpt>
      <trkpt lat="43.62472" lon="1.4013">
        <ele>148</ele>
        <time>2025-02-02T12:49:13Z</time>
      </trkpt>
      <trkpt lat="43.62473" lon="1.40127">
        <ele>148</ele>
        <time>2025-02-02T12:49:14Z</time>
      </trkpt>
      <trkpt lat="43.62473" lon="1.40124">
        <ele>148</ele>
        <time>2025-02-02T12:49:15Z</time>
      </trkpt>
      <trkpt lat="43.62473" lon="1.4012">
        <ele>148</ele>
        <time>2025-02-02T12:49:16Z</time>
      </trkpt>
      <trkpt lat="43.62473" lon="1.40117">
        <ele>148</ele>
        <time>2025-02-02T12:49:17Z</time>
      </trkpt>
      <trkpt lat="43.62473" lon="1.40113">
        <ele>148</ele>
        <time>2025-02-02T12:49:18Z</time>
      </trkpt>
      <trkpt lat="43.62474" lon="1.4011">
        <ele>148</ele>
        <time>2025-02-02T12:49:19Z</time>
      </trkpt>
      <trkpt lat="43.62474" lon="1.40106">
        <ele>148</ele>
        <time>2025-02-02T12:49:20Z</time>
      </trkpt>
      <trkpt lat="43.62474" lon="1.40103">
        <ele>148</ele>
        <time>2025-02-02T12:49:21Z</time>
      </trkpt>
      <trkpt lat="43.62474" lon="1.40099">
        <ele>148</ele>
        <time>2025-02-02T12:49:22Z</time>
      </trkpt>
      <trkpt lat="43.62474" lon="1.40096">
        <ele>148</ele>
        <time>2025-02-02T12:49:23Z</time>
      </trkpt>
      <trkpt lat="43.62475" lon="1.40093">
        <ele>148</ele>
        <time>2025-02-02T12:49:24Z</time>
      </trkpt>
      <trkpt lat="43.62475" lon="1.40089">
        <ele>148</ele>
        <time>2025-02-02T12:49:25Z</time>
      </trkpt>
      <trkpt lat="43.62475" lon="1.40086">
        <ele>148</ele>
        <time>2025-02-02T12:49:26Z</time>
      </trkpt>
      <trkpt lat="43.62475" lon="1.40082">
        <ele>148</ele>
        <time>2025-02-02T12:49:27Z</time>
      </trkpt>
      <trkpt lat="43.62475" lon="1.40077">
        <ele>148</ele>
        <time>2025-02-02T12:49:28Z</time>
      </trkpt>
      <trkpt lat="43.62475" lon="1.40075">
        <ele>147</ele>
        <time>2025-02-02T12:49:29Z</time>
      </trkpt>
      <trkpt lat="43.62475" lon="1.40072">
        <ele>147</ele>
        <time>2025-02-02T12:49:30Z</time>
      </trkpt>
      <trkpt lat="43.62475" lon="1.40067">
        <ele>147</ele>
        <time>2025-02-02T12:49:31Z</time>
      </trkpt>
      <trkpt lat="43.62475" lon="1.40065">
        <ele>147</ele>
        <time>2025-02-02T12:49:32Z</time>
      </trkpt>
      <trkpt lat="43.62476" lon="1.40061">
        <ele>147</ele>
        <time>2025-02-02T12:49:33Z</time>
      </trkpt>
      <trkpt lat="43.62476" lon="1.40058">
        <ele>147</ele>
        <time>2025-02-02T12:49:34Z</time>
      </trkpt>
      <trkpt lat="43.62476" lon="1.40054">
        <ele>147</ele>
        <time>2025-02-02T12:49:35Z</time>
      </trkpt>
      <trkpt lat="43.62476" lon="1.40051">
        <ele>147</ele>
        <time>2025-02-02T12:49:36Z</time>
      </trkpt>
      <trkpt lat="43.62476" lon="1.40048">
        <ele>147</ele>
        <time>2025-02-02T12:49:37Z</time>
      </trkpt>
      <trkpt lat="43.62477" lon="1.40044">
        <ele>146</ele>
        <time>2025-02-02T12:49:38Z</time>
      </trkpt>
      <trkpt lat="43.62477" lon="1.40041">
        <ele>146</ele>
        <time>2025-02-02T12:49:39Z</time>
      </trkpt>
      <trkpt lat="43.62477" lon="1.40038">
        <ele>147</ele>
        <time>2025-02-02T12:49:40Z</time>
      </trkpt>
      <trkpt lat="43.62477" lon="1.40034">
        <ele>147</ele>
        <time>2025-02-02T12:49:41Z</time>
      </trkpt>
      <trkpt lat="43.62477" lon="1.4003">
        <ele>147</ele>
        <time>2025-02-02T12:49:42Z</time>
      </trkpt>
      <trkpt lat="43.62477" lon="1.40027">
        <ele>147</ele>
        <time>2025-02-02T12:49:43Z</time>
      </trkpt>
      <trkpt lat="43.62477" lon="1.40023">
        <ele>146</ele>
        <time>2025-02-02T12:49:44Z</time>
      </trkpt>
      <trkpt lat="43.62477" lon="1.4002">
        <ele>146</ele>
        <time>2025-02-02T12:49:45Z</time>
      </trkpt>
      <trkpt lat="43.62478" lon="1.40016">
        <ele>146</ele>
        <time>2025-02-02T12:49:46Z</time>
      </trkpt>
      <trkpt lat="43.62478" lon="1.40011">
        <ele>146</ele>
        <time>2025-02-02T12:49:47Z</time>
      </trkpt>
      <trkpt lat="43.62478" lon="1.40009">
        <ele>146</ele>
        <time>2025-02-02T12:49:48Z</time>
      </trkpt>
      <trkpt lat="43.62478" lon="1.40005">
        <ele>146</ele>
        <time>2025-02-02T12:49:49Z</time>
      </trkpt>
      <trkpt lat="43.62478" lon="1.4">
        <ele>146</ele>
        <time>2025-02-02T12:49:50Z</time>
      </trkpt>
      <trkpt lat="43.62478" lon="1.39998">
        <ele>146</ele>
        <time>2025-02-02T12:49:51Z</time>
      </trkpt>
      <trkpt lat="43.62478" lon="1.39994">
        <ele>146</ele>
        <time>2025-02-02T12:49:52Z</time>
      </trkpt>
      <trkpt lat="43.62479" lon="1.3999">
        <ele>145</ele>
        <time>2025-02-02T12:49:53Z</time>
      </trkpt>
      <trkpt lat="43.62479" lon="1.39986">
        <ele>145</ele>
        <time>2025-02-02T12:49:54Z</time>
      </trkpt>
      <trkpt lat="43.62479" lon="1.39982">
        <ele>145</ele>
        <time>2025-02-02T12:49:55Z</time>
      </trkpt>
      <trkpt lat="43.62479" lon="1.39978">
        <ele>145</ele>
        <time>2025-02-02T12:49:56Z</time>
      </trkpt>
      <trkpt lat="43.6248" lon="1.39974">
        <ele>145</ele>
        <time>2025-02-02T12:49:57Z</time>
      </trkpt>
      <trkpt lat="43.6248" lon="1.3997">
        <ele>144</ele>
        <time>2025-02-02T12:49:58Z</time>
      </trkpt>
      <trkpt lat="43.62481" lon="1.39966">
        <ele>144</ele>
        <time>2025-02-02T12:49:59Z</time>
      </trkpt>
      <trkpt lat="43.62482" lon="1.39963">
        <ele>144</ele>
        <time>2025-02-02T12:50:00Z</time>
      </trkpt>
      <trkpt lat="43.62483" lon="1.3996">
        <ele>144</ele>
        <time>2025-02-02T12:50:01Z</time>
      </trkpt>
      <trkpt lat="43.62483" lon="1.3996">
        <ele>144</ele>
        <time>2025-02-02T12:50:02Z</time>
      </trkpt>
      <trkpt lat="43.62485" lon="1.39963">
        <ele>143</ele>
        <time>2025-02-02T12:50:03Z</time>
      </trkpt>
      <trkpt lat="43.62484" lon="1.39967">
        <ele>143</ele>
        <time>2025-02-02T12:50:04Z</time>
      </trkpt>
      <trkpt lat="43.62484" lon="1.39971">
        <ele>143</ele>
        <time>2025-02-02T12:50:05Z</time>
      </trkpt>
      <trkpt lat="43.62484" lon="1.39977">
        <ele>143</ele>
        <time>2025-02-02T12:50:06Z</time>
      </trkpt>
      <trkpt lat="43.62484" lon="1.39979">
        <ele>144</ele>
        <time>2025-02-02T12:50:07Z</time>
      </trkpt>
      <trkpt lat="43.62484" lon="1.39983">
        <ele>144</ele>
        <time>2025-02-02T12:50:08Z</time>
      </trkpt>
      <trkpt lat="43.62483" lon="1.39989">
        <ele>144</ele>
        <time>2025-02-02T12:50:09Z</time>
      </trkpt>
      <trkpt lat="43.62483" lon="1.39991">
        <ele>143</ele>
        <time>2025-02-02T12:50:10Z</time>
      </trkpt>
      <trkpt lat="43.62483" lon="1.39995">
        <ele>143</ele>
        <time>2025-02-02T12:50:11Z</time>
      </trkpt>
      <trkpt lat="43.62483" lon="1.39999">
        <ele>142</ele>
        <time>2025-02-02T12:50:12Z</time>
      </trkpt>
      <trkpt lat="43.62482" lon="1.40003">
        <ele>141</ele>
        <time>2025-02-02T12:50:13Z</time>
      </trkpt>
      <trkpt lat="43.62482" lon="1.40007">
        <ele>141</ele>
        <time>2025-02-02T12:50:14Z</time>
      </trkpt>
      <trkpt lat="43.62483" lon="1.4001">
        <ele>140</ele>
        <time>2025-02-02T12:50:15Z</time>
      </trkpt>
      <trkpt lat="43.62485" lon="1.40012">
        <ele>140</ele>
        <time>2025-02-02T12:50:16Z</time>
      </trkpt>
      <trkpt lat="43.62487" lon="1.40013">
        <ele>140</ele>
        <time>2025-02-02T12:50:17Z</time>
      </trkpt>
      <trkpt lat="43.6249" lon="1.40013">
        <ele>140</ele>
        <time>2025-02-02T12:50:18Z</time>
      </trkpt>
      <trkpt lat="43.62492" lon="1.40013">
        <ele>139</ele>
        <time>2025-02-02T12:50:19Z</time>
      </trkpt>
      <trkpt lat="43.62495" lon="1.40013">
        <ele>139</ele>
        <time>2025-02-02T12:50:20Z</time>
      </trkpt>
      <trkpt lat="43.62498" lon="1.40013">
        <ele>139</ele>
        <time>2025-02-02T12:50:21Z</time>
      </trkpt>
      <trkpt lat="43.62501" lon="1.40013">
        <ele>139</ele>
        <time>2025-02-02T12:50:22Z</time>
      </trkpt>
      <trkpt lat="43.62504" lon="1.40012">
        <ele>139</ele>
        <time>2025-02-02T12:50:23Z</time>
      </trkpt>
      <trkpt lat="43.62506" lon="1.40013">
        <ele>139</ele>
        <time>2025-02-02T12:50:24Z</time>
      </trkpt>
      <trkpt lat="43.6251" lon="1.40013">
        <ele>139</ele>
        <time>2025-02-02T12:50:25Z</time>
      </trkpt>
      <trkpt lat="43.62512" lon="1.40013">
        <ele>140</ele>
        <time>2025-02-02T12:50:26Z</time>
      </trkpt>
      <trkpt lat="43.62516" lon="1.40014">
        <ele>140</ele>
        <time>2025-02-02T12:50:27Z</time>
      </trkpt>
      <trkpt lat="43.62517" lon="1.40014">
        <ele>139</ele>
        <time>2025-02-02T12:50:28Z</time>
      </trkpt>
      <trkpt lat="43.6252" lon="1.40014">
        <ele>139</ele>
        <time>2025-02-02T12:50:29Z</time>
      </trkpt>
      <trkpt lat="43.62523" lon="1.40014">
        <ele>139</ele>
        <time>2025-02-02T12:50:30Z</time>
      </trkpt>
      <trkpt lat="43.62526" lon="1.40015">
        <ele>139</ele>
        <time>2025-02-02T12:50:31Z</time>
      </trkpt>
      <trkpt lat="43.62528" lon="1.40015">
        <ele>139</ele>
        <time>2025-02-02T12:50:32Z</time>
      </trkpt>
      <trkpt lat="43.62531" lon="1.40016">
        <ele>139</ele>
        <time>2025-02-02T12:50:33Z</time>
      </trkpt>
      <trkpt lat="43.62533" lon="1.40016">
        <ele>139</ele>
        <time>2025-02-02T12:50:34Z</time>
      </trkpt>
      <trkpt lat="43.62535" lon="1.40017">
        <ele>139</ele>
        <time>2025-02-02T12:50:35Z</time>
      </trkpt>
      <trkpt lat="43.62538" lon="1.40017">
        <ele>139</ele>
        <time>2025-02-02T12:50:36Z</time>
      </trkpt>
      <trkpt lat="43.6254" lon="1.40017">
        <ele>139</ele>
        <time>2025-02-02T12:50:37Z</time>
      </trkpt>
      <trkpt lat="43.62542" lon="1.40017">
        <ele>139</ele>
        <time>2025-02-02T12:50:38Z</time>
      </trkpt>
      <trkpt lat="43.62542" lon="1.40017">
        <ele>139</ele>
        <time>2025-02-02T12:50:39Z</time>
      </trkpt>
      <trkpt lat="43.62546" lon="1.40017">
        <ele>139</ele>
        <time>2025-02-02T12:50:40Z</time>
      </trkpt>
      <trkpt lat="43.62548" lon="1.40018">
        <ele>139</ele>
        <time>2025-02-02T12:50:41Z</time>
      </trkpt>
      <trkpt lat="43.6255" lon="1.40018">
        <ele>139</ele>
        <time>2025-02-02T12:50:42Z</time>
      </trkpt>
      <trkpt lat="43.62552" lon="1.40019">
        <ele>139</ele>
        <time>2025-02-02T12:50:43Z</time>
      </trkpt>
      <trkpt lat="43.62554" lon="1.40019">
        <ele>139</ele>
        <time>2025-02-02T12:50:44Z</time>
      </trkpt>
      <trkpt lat="43.62556" lon="1.40019">
        <ele>139</ele>
        <time>2025-02-02T12:50:45Z</time>
      </trkpt>
      <trkpt lat="43.62558" lon="1.40019">
        <ele>139</ele>
        <time>2025-02-02T12:50:46Z</time>
      </trkpt>
      <trkpt lat="43.6256" lon="1.40019">
        <ele>139</ele>
        <time>2025-02-02T12:50:47Z</time>
      </trkpt>
      <trkpt lat="43.62562" lon="1.40018">
        <ele>139</ele>
        <time>2025-02-02T12:50:48Z</time>
      </trkpt>
      <trkpt lat="43.62565" lon="1.40018">
        <ele>139</ele>
        <time>2025-02-02T12:50:49Z</time>
      </trkpt>
      <trkpt lat="43.62566" lon="1.40019">
        <ele>139</ele>
        <time>2025-02-02T12:50:50Z</time>
      </trkpt>
      <trkpt lat="43.6257" lon="1.40019">
        <ele>139</ele>
        <time>2025-02-02T12:50:51Z</time>
      </trkpt>
      <trkpt lat="43.62573" lon="1.40021">
        <ele>139</ele>
        <time>2025-02-02T12:50:52Z</time>
      </trkpt>
      <trkpt lat="43.62576" lon="1.40022">
        <ele>139</ele>
        <time>2025-02-02T12:50:53Z</time>
      </trkpt>
      <trkpt lat="43.62578" lon="1.40023">
        <ele>138</ele>
        <time>2025-02-02T12:50:54Z</time>
      </trkpt>
      <trkpt lat="43.6258" lon="1.40024">
        <ele>138</ele>
        <time>2025-02-02T12:50:55Z</time>
      </trkpt>
      <trkpt lat="43.62583" lon="1.40024">
        <ele>138</ele>
        <time>2025-02-02T12:50:56Z</time>
      </trkpt>
      <trkpt lat="43.62586" lon="1.40024">
        <ele>138</ele>
        <time>2025-02-02T12:50:57Z</time>
      </trkpt>
      <trkpt lat="43.62589" lon="1.40025">
        <ele>138</ele>
        <time>2025-02-02T12:50:58Z</time>
      </trkpt>
      <trkpt lat="43.62592" lon="1.40025">
        <ele>138</ele>
        <time>2025-02-02T12:50:59Z</time>
      </trkpt>
      <trkpt lat="43.62594" lon="1.40026">
        <ele>138</ele>
        <time>2025-02-02T12:51:00Z</time>
      </trkpt>
      <trkpt lat="43.62597" lon="1.40026">
        <ele>138</ele>
        <time>2025-02-02T12:51:01Z</time>
      </trkpt>
      <trkpt lat="43.62599" lon="1.40026">
        <ele>138</ele>
        <time>2025-02-02T12:51:02Z</time>
      </trkpt>
      <trkpt lat="43.62603" lon="1.40027">
        <ele>138</ele>
        <time>2025-02-02T12:51:03Z</time>
      </trkpt>
      <trkpt lat="43.62605" lon="1.40027">
        <ele>139</ele>
        <time>2025-02-02T12:51:04Z</time>
      </trkpt>
      <trkpt lat="43.62607" lon="1.40027">
        <ele>139</ele>
        <time>2025-02-02T12:51:05Z</time>
      </trkpt>
      <trkpt lat="43.6261" lon="1.40027">
        <ele>139</ele>
        <time>2025-02-02T12:51:06Z</time>
      </trkpt>
      <trkpt lat="43.62612" lon="1.40027">
        <ele>139</ele>
        <time>2025-02-02T12:51:07Z</time>
      </trkpt>
      <trkpt lat="43.62616" lon="1.40028">
        <ele>139</ele>
        <time>2025-02-02T12:51:08Z</time>
      </trkpt>
      <trkpt lat="43.62617" lon="1.40028">
        <ele>138</ele>
        <time>2025-02-02T12:51:09Z</time>
      </trkpt>
      <trkpt lat="43.62619" lon="1.40028">
        <ele>138</ele>
        <time>2025-02-02T12:51:10Z</time>
      </trkpt>
      <trkpt lat="43.62622" lon="1.40027">
        <ele>138</ele>
        <time>2025-02-02T12:51:11Z</time>
      </trkpt>
      <trkpt lat="43.62624" lon="1.40028">
        <ele>138</ele>
        <time>2025-02-02T12:51:12Z</time>
      </trkpt>
      <trkpt lat="43.62627" lon="1.40028">
        <ele>138</ele>
        <time>2025-02-02T12:51:13Z</time>
      </trkpt>
      <trkpt lat="43.62629" lon="1.40028">
        <ele>138</ele>
        <time>2025-02-02T12:51:14Z</time>
      </trkpt>
      <trkpt lat="43.62632" lon="1.40029">
        <ele>138</ele>
        <time>2025-02-02T12:51:15Z</time>
      </trkpt>
      <trkpt lat="43.62634" lon="1.40028">
        <ele>138</ele>
        <time>2025-02-02T12:51:16Z</time>
      </trkpt>
      <trkpt lat="43.62636" lon="1.40028">
        <ele>138</ele>
        <time>2025-02-02T12:51:17Z</time>
      </trkpt>
      <trkpt lat="43.62639" lon="1.40028">
        <ele>138</ele>
        <time>2025-02-02T12:51:18Z</time>
      </trkpt>
      <trkpt lat="43.62642" lon="1.40029">
        <ele>138</ele>
        <time>2025-02-02T12:51:19Z</time>
      </trkpt>
      <trkpt lat="43.62645" lon="1.40029">
        <ele>138</ele>
        <time>2025-02-02T12:51:20Z</time>
      </trkpt>
      <trkpt lat="43.62647" lon="1.4003">
        <ele>138</ele>
        <time>2025-02-02T12:51:21Z</time>
      </trkpt>
      <trkpt lat="43.6265" lon="1.4003">
        <ele>138</ele>
        <time>2025-02-02T12:51:22Z</time>
      </trkpt>
      <trkpt lat="43.62652" lon="1.40031">
        <ele>138</ele>
        <time>2025-02-02T12:51:23Z</time>
      </trkpt>
      <trkpt lat="43.62654" lon="1.40031">
        <ele>138</ele>
        <time>2025-02-02T12:51:24Z</time>
      </trkpt>
      <trkpt lat="43.62656" lon="1.40031">
        <ele>138</ele>
        <time>2025-02-02T12:51:25Z</time>
      </trkpt>
      <trkpt lat="43.62659" lon="1.40031">
        <ele>138</ele>
        <time>2025-02-02T12:51:26Z</time>
      </trkpt>
      <trkpt lat="43.62661" lon="1.40031">
        <ele>138</ele>
        <time>2025-02-02T12:51:27Z</time>
      </trkpt>
      <trkpt lat="43.62666" lon="1.40032">
        <ele>138</ele>
        <time>2025-02-02T12:51:28Z</time>
      </trkpt>
      <trkpt lat="43.62667" lon="1.40032">
        <ele>138</ele>
        <time>2025-02-02T12:51:29Z</time>
      </trkpt>
      <trkpt lat="43.6267" lon="1.40032">
        <ele>138</ele>
        <time>2025-02-02T12:51:30Z</time>
      </trkpt>
      <trkpt lat="43.62673" lon="1.40033">
        <ele>138</ele>
        <time>2025-02-02T12:51:31Z</time>
      </trkpt>
      <trkpt lat="43.62676" lon="1.40032">
        <ele>138</ele>
        <time>2025-02-02T12:51:32Z</time>
      </trkpt>
      <trkpt lat="43.62678" lon="1.40032">
        <ele>138</ele>
        <time>2025-02-02T12:51:33Z</time>
      </trkpt>
      <trkpt lat="43.62681" lon="1.40031">
        <ele>138</ele>
        <time>2025-02-02T12:51:34Z</time>
      </trkpt>
      <trkpt lat="43.62684" lon="1.40031">
        <ele>138</ele>
        <time>2025-02-02T12:51:35Z</time>
      </trkpt>
      <trkpt lat="43.62687" lon="1.40032">
        <ele>138</ele>
        <time>2025-02-02T12:51:36Z</time>
      </trkpt>
      <trkpt lat="43.62689" lon="1.40032">
        <ele>138</ele>
        <time>2025-02-02T12:51:37Z</time>
      </trkpt>
      <trkpt lat="43.62692" lon="1.40033">
        <ele>138</ele>
        <time>2025-02-02T12:51:38Z</time>
      </trkpt>
      <trkpt lat="43.62695" lon="1.40033">
        <ele>138</ele>
        <time>2025-02-02T12:51:39Z</time>
      </trkpt>
      <trkpt lat="43.62698" lon="1.40034">
        <ele>138</ele>
        <time>2025-02-02T12:51:40Z</time>
      </trkpt>
      <trkpt lat="43.62702" lon="1.40035">
        <ele>138</ele>
        <time>2025-02-02T12:51:41Z</time>
      </trkpt>
      <trkpt lat="43.62704" lon="1.40035">
        <ele>138</ele>
        <time>2025-02-02T12:51:42Z</time>
      </trkpt>
      <trkpt lat="43.62706" lon="1.40035">
        <ele>138</ele>
        <time>2025-02-02T12:51:43Z</time>
      </trkpt>
      <trkpt lat="43.62709" lon="1.40035">
        <ele>138</ele>
        <time>2025-02-02T12:51:44Z</time>
      </trkpt>
      <trkpt lat="43.62712" lon="1.40035">
        <ele>138</ele>
        <time>2025-02-02T12:51:45Z</time>
      </trkpt>
      <trkpt lat="43.62717" lon="1.40035">
        <ele>138</ele>
        <time>2025-02-02T12:51:46Z</time>
      </trkpt>
      <trkpt lat="43.62718" lon="1.40036">
        <ele>138</ele>
        <time>2025-02-02T12:51:47Z</time>
      </trkpt>
      <trkpt lat="43.62721" lon="1.40037">
        <ele>138</ele>
        <time>2025-02-02T12:51:48Z</time>
      </trkpt>
      <trkpt lat="43.62723" lon="1.40037">
        <ele>138</ele>
        <time>2025-02-02T12:51:49Z</time>
      </trkpt>
      <trkpt lat="43.62725" lon="1.40037">
        <ele>138</ele>
        <time>2025-02-02T12:51:50Z</time>
      </trkpt>
      <trkpt lat="43.62728" lon="1.40038">
        <ele>138</ele>
        <time>2025-02-02T12:51:51Z</time>
      </trkpt>
      <trkpt lat="43.62731" lon="1.40038">
        <ele>138</ele>
        <time>2025-02-02T12:51:52Z</time>
      </trkpt>
      <trkpt lat="43.62734" lon="1.40038">
        <ele>138</ele>
        <time>2025-02-02T12:51:53Z</time>
      </trkpt>
      <trkpt lat="43.62737" lon="1.40038">
        <ele>138</ele>
        <time>2025-02-02T12:51:54Z</time>
      </trkpt>
      <trkpt lat="43.62739" lon="1.40039">
        <ele>138</ele>
        <time>2025-02-02T12:51:55Z</time>
      </trkpt>
      <trkpt lat="43.62741" lon="1.40039">
        <ele>138</ele>
        <time>2025-02-02T12:51:56Z</time>
      </trkpt>
      <trkpt lat="43.62743" lon="1.4004">
        <ele>138</ele>
        <time>2025-02-02T12:51:57Z</time>
      </trkpt>
      <trkpt lat="43.62746" lon="1.4004">
        <ele>138</ele>
        <time>2025-02-02T12:51:58Z</time>
      </trkpt>
      <trkpt lat="43.62749" lon="1.4004">
        <ele>138</ele>
        <time>2025-02-02T12:51:59Z</time>
      </trkpt>
      <trkpt lat="43.62753" lon="1.40041">
        <ele>138</ele>
        <time>2025-02-02T12:52:00Z</time>
      </trkpt>
      <trkpt lat="43.62754" lon="1.40041">
        <ele>138</ele>
        <time>2025-02-02T12:52:01Z</time>
      </trkpt>
      <trkpt lat="43.62757" lon="1.40041">
        <ele>138</ele>
        <time>2025-02-02T12:52:02Z</time>
      </trkpt>
      <trkpt lat="43.6276" lon="1.40041">
        <ele>138</ele>
        <time>2025-02-02T12:52:03Z</time>
      </trkpt>
      <trkpt lat="43.62762" lon="1.40042">
        <ele>138</ele>
        <time>2025-02-02T12:52:04Z</time>
      </trkpt>
      <trkpt lat="43.62766" lon="1.40042">
        <ele>138</ele>
        <time>2025-02-02T12:52:05Z</time>
      </trkpt>
      <trkpt lat="43.62767" lon="1.40042">
        <ele>138</ele>
        <time>2025-02-02T12:52:06Z</time>
      </trkpt>
      <trkpt lat="43.6277" lon="1.40042">
        <ele>138</ele>
        <time>2025-02-02T12:52:07Z</time>
      </trkpt>
      <trkpt lat="43.62773" lon="1.40042">
        <ele>138</ele>
        <time>2025-02-02T12:52:08Z</time>
      </trkpt>
      <trkpt lat="43.62776" lon="1.40043">
        <ele>138</ele>
        <time>2025-02-02T12:52:09Z</time>
      </trkpt>
      <trkpt lat="43.62778" lon="1.40043">
        <ele>138</ele>
        <time>2025-02-02T12:52:10Z</time>
      </trkpt>
      <trkpt lat="43.62781" lon="1.40043">
        <ele>138</ele>
        <time>2025-02-02T12:52:11Z</time>
      </trkpt>
      <trkpt lat="43.62783" lon="1.40043">
        <ele>138</ele>
        <time>2025-02-02T12:52:12Z</time>
      </trkpt>
      <trkpt lat="43.62786" lon="1.40042">
        <ele>138</ele>
        <time>2025-02-02T12:52:13Z</time>
      </trkpt>
      <trkpt lat="43.62788" lon="1.40042">
        <ele>138</ele>
        <time>2025-02-02T12:52:14Z</time>
      </trkpt>
      <trkpt lat="43.6279" lon="1.40043">
        <ele>138</ele>
        <time>2025-02-02T12:52:15Z</time>
      </trkpt>
      <trkpt lat="43.62793" lon="1.40044">
        <ele>138</ele>
        <time>2025-02-02T12:52:16Z</time>
      </trkpt>
      <trkpt lat="43.62796" lon="1.40044">
        <ele>138</ele>
        <time>2025-02-02T12:52:17Z</time>
      </trkpt>
      <trkpt lat="43.62799" lon="1.40043">
        <ele>138</ele>
        <time>2025-02-02T12:52:18Z</time>
      </trkpt>
      <trkpt lat="43.62802" lon="1.40043">
        <ele>138</ele>
        <time>2025-02-02T12:52:19Z</time>
      </trkpt>
      <trkpt lat="43.62804" lon="1.40043">
        <ele>138</ele>
        <time>2025-02-02T12:52:20Z</time>
      </trkpt>
      <trkpt lat="43.62806" lon="1.40044">
        <ele>138</ele>
        <time>2025-02-02T12:52:21Z</time>
      </trkpt>
      <trkpt lat="43.62809" lon="1.40044">
        <ele>138</ele>
        <time>2025-02-02T12:52:22Z</time>
      </trkpt>
      <trkpt lat="43.62811" lon="1.40044">
        <ele>138</ele>
        <time>2025-02-02T12:52:23Z</time>
      </trkpt>
      <trkpt lat="43.62815" lon="1.40044">
        <ele>138</ele>
        <time>2025-02-02T12:52:24Z</time>
      </trkpt>
      <trkpt lat="43.62816" lon="1.40044">
        <ele>138</ele>
        <time>2025-02-02T12:52:25Z</time>
      </trkpt>
      <trkpt lat="43.62818" lon="1.40044">
        <ele>138</ele>
        <time>2025-02-02T12:52:26Z</time>
      </trkpt>
      <trkpt lat="43.6282" lon="1.40044">
        <ele>138</ele>
        <time>2025-02-02T12:52:27Z</time>
      </trkpt>
      <trkpt lat="43.62822" lon="1.40045">
        <ele>138</ele>
        <time>2025-02-02T12:52:28Z</time>
      </trkpt>
      <trkpt lat="43.62825" lon="1.40045">
        <ele>137</ele>
        <time>2025-02-02T12:52:29Z</time>
      </trkpt>
      <trkpt lat="43.62827" lon="1.40045">
        <ele>137</ele>
        <time>2025-02-02T12:52:30Z</time>
      </trkpt>
      <trkpt lat="43.6283" lon="1.40045">
        <ele>137</ele>
        <time>2025-02-02T12:52:31Z</time>
      </trkpt>
      <trkpt lat="43.62833" lon="1.40045">
        <ele>137</ele>
        <time>2025-02-02T12:52:32Z</time>
      </trkpt>
      <trkpt lat="43.62835" lon="1.40046">
        <ele>137</ele>
        <time>2025-02-02T12:52:33Z</time>
      </trkpt>
      <trkpt lat="43.62839" lon="1.40046">
        <ele>137</ele>
        <time>2025-02-02T12:52:34Z</time>
      </trkpt>
      <trkpt lat="43.62842" lon="1.40046">
        <ele>137</ele>
        <time>2025-02-02T12:52:35Z</time>
      </trkpt>
      <trkpt lat="43.62845" lon="1.40047">
        <ele>137</ele>
        <time>2025-02-02T12:52:36Z</time>
      </trkpt>
      <trkpt lat="43.62848" lon="1.40047">
        <ele>138</ele>
        <time>2025-02-02T12:52:37Z</time>
      </trkpt>
      <trkpt lat="43.62852" lon="1.40047">
        <ele>138</ele>
        <time>2025-02-02T12:52:38Z</time>
      </trkpt>
      <trkpt lat="43.62853" lon="1.40048">
        <ele>138</ele>
        <time>2025-02-02T12:52:39Z</time>
      </trkpt>
      <trkpt lat="43.62856" lon="1.40048">
        <ele>138</ele>
        <time>2025-02-02T12:52:40Z</time>
      </trkpt>
      <trkpt lat="43.62859" lon="1.40049">
        <ele>138</ele>
        <time>2025-02-02T12:52:41Z</time>
      </trkpt>
      <trkpt lat="43.62864" lon="1.40049">
        <ele>138</ele>
        <time>2025-02-02T12:52:42Z</time>
      </trkpt>
      <trkpt lat="43.62865" lon="1.4005">
        <ele>138</ele>
        <time>2025-02-02T12:52:43Z</time>
      </trkpt>
      <trkpt lat="43.62868" lon="1.4005">
        <ele>138</ele>
        <time>2025-02-02T12:52:44Z</time>
      </trkpt>
      <trkpt lat="43.62871" lon="1.40051">
        <ele>138</ele>
        <time>2025-02-02T12:52:45Z</time>
      </trkpt>
      <trkpt lat="43.62874" lon="1.40051">
        <ele>138</ele>
        <time>2025-02-02T12:52:46Z</time>
      </trkpt>
      <trkpt lat="43.62876" lon="1.40052">
        <ele>138</ele>
        <time>2025-02-02T12:52:47Z</time>
      </trkpt>
      <trkpt lat="43.62879" lon="1.40052">
        <ele>138</ele>
        <time>2025-02-02T12:52:48Z</time>
      </trkpt>
      <trkpt lat="43.62882" lon="1.40052">
        <ele>138</ele>
        <time>2025-02-02T12:52:49Z</time>
      </trkpt>
      <trkpt lat="43.62884" lon="1.40053">
        <ele>138</ele>
        <time>2025-02-02T12:52:50Z</time>
      </trkpt>
      <trkpt lat="43.62887" lon="1.40054">
        <ele>138</ele>
        <time>2025-02-02T12:52:51Z</time>
      </trkpt>
      <trkpt lat="43.62889" lon="1.40054">
        <ele>138</ele>
        <time>2025-02-02T12:52:52Z</time>
      </trkpt>
      <trkpt lat="43.62892" lon="1.40054">
        <ele>137</ele>
        <time>2025-02-02T12:52:53Z</time>
      </trkpt>
      <trkpt lat="43.62895" lon="1.40055">
        <ele>137</ele>
        <time>2025-02-02T12:52:54Z</time>
      </trkpt>
      <trkpt lat="43.62897" lon="1.40056">
        <ele>137</ele>
        <time>2025-02-02T12:52:55Z</time>
      </trkpt>
      <trkpt lat="43.62899" lon="1.40057">
        <ele>137</ele>
        <time>2025-02-02T12:52:56Z</time>
      </trkpt>
      <trkpt lat="43.62903" lon="1.40058">
        <ele>137</ele>
        <time>2025-02-02T12:52:57Z</time>
      </trkpt>
      <trkpt lat="43.62904" lon="1.40058">
        <ele>137</ele>
        <time>2025-02-02T12:52:58Z</time>
      </trkpt>
      <trkpt lat="43.62906" lon="1.40059">
        <ele>137</ele>
        <time>2025-02-02T12:52:59Z</time>
      </trkpt>
      <trkpt lat="43.62908" lon="1.40059">
        <ele>137</ele>
        <time>2025-02-02T12:53:00Z</time>
      </trkpt>
      <trkpt lat="43.6291" lon="1.4006">
        <ele>137</ele>
        <time>2025-02-02T12:53:01Z</time>
      </trkpt>
      <trkpt lat="43.62914" lon="1.40062">
        <ele>137</ele>
        <time>2025-02-02T12:53:02Z</time>
      </trkpt>
      <trkpt lat="43.62915" lon="1.40062">
        <ele>137</ele>
        <time>2025-02-02T12:53:03Z</time>
      </trkpt>
      <trkpt lat="43.62919" lon="1.40064">
        <ele>137</ele>
        <time>2025-02-02T12:53:04Z</time>
      </trkpt>
      <trkpt lat="43.62921" lon="1.40064">
        <ele>137</ele>
        <time>2025-02-02T12:53:05Z</time>
      </trkpt>
      <trkpt lat="43.62924" lon="1.40066">
        <ele>137</ele>
        <time>2025-02-02T12:53:06Z</time>
      </trkpt>
      <trkpt lat="43.62926" lon="1.40067">
        <ele>137</ele>
        <time>2025-02-02T12:53:07Z</time>
      </trkpt>
      <trkpt lat="43.62929" lon="1.40068">
        <ele>137</ele>
        <time>2025-02-02T12:53:08Z</time>
      </trkpt>
      <trkpt lat="43.62932" lon="1.40069">
        <ele>137</ele>
        <time>2025-02-02T12:53:09Z</time>
      </trkpt>
      <trkpt lat="43.62935" lon="1.4007">
        <ele>137</ele>
        <time>2025-02-02T12:53:10Z</time>
      </trkpt>
      <trkpt lat="43.62938" lon="1.40072">
        <ele>137</ele>
        <time>2025-02-02T12:53:11Z</time>
      </trkpt>
      <trkpt lat="43.6294" lon="1.40075">
        <ele>137</ele>
        <time>2025-02-02T12:53:12Z</time>
      </trkpt>
      <trkpt lat="43.62942" lon="1.40078">
        <ele>137</ele>
        <time>2025-02-02T12:53:13Z</time>
      </trkpt>
      <trkpt lat="43.62945" lon="1.4008">
        <ele>137</ele>
        <time>2025-02-02T12:53:14Z</time>
      </trkpt>
      <trkpt lat="43.62947" lon="1.40081">
        <ele>137</ele>
        <time>2025-02-02T12:53:15Z</time>
      </trkpt>
      <trkpt lat="43.62951" lon="1.40082">
        <ele>137</ele>
        <time>2025-02-02T12:53:16Z</time>
      </trkpt>
      <trkpt lat="43.62952" lon="1.40082">
        <ele>137</ele>
        <time>2025-02-02T12:53:17Z</time>
      </trkpt>
      <trkpt lat="43.62955" lon="1.40082">
        <ele>137</ele>
        <time>2025-02-02T12:53:18Z</time>
      </trkpt>
      <trkpt lat="43.62959" lon="1.40083">
        <ele>137</ele>
        <time>2025-02-02T12:53:19Z</time>
      </trkpt>
      <trkpt lat="43.6296" lon="1.40084">
        <ele>137</ele>
        <time>2025-02-02T12:53:20Z</time>
      </trkpt>
      <trkpt lat="43.62964" lon="1.40086">
        <ele>137</ele>
        <time>2025-02-02T12:53:21Z</time>
      </trkpt>
      <trkpt lat="43.62967" lon="1.40088">
        <ele>137</ele>
        <time>2025-02-02T12:53:22Z</time>
      </trkpt>
      <trkpt lat="43.6297" lon="1.40089">
        <ele>137</ele>
        <time>2025-02-02T12:53:23Z</time>
      </trkpt>
      <trkpt lat="43.62973" lon="1.4009">
        <ele>137</ele>
        <time>2025-02-02T12:53:24Z</time>
      </trkpt>
      <trkpt lat="43.62975" lon="1.4009">
        <ele>136</ele>
        <time>2025-02-02T12:53:25Z</time>
      </trkpt>
      <trkpt lat="43.62978" lon="1.4009">
        <ele>136</ele>
        <time>2025-02-02T12:53:26Z</time>
      </trkpt>
      <trkpt lat="43.6298" lon="1.4009">
        <ele>136</ele>
        <time>2025-02-02T12:53:27Z</time>
      </trkpt>
      <trkpt lat="43.62982" lon="1.4009">
        <ele>136</ele>
        <time>2025-02-02T12:53:28Z</time>
      </trkpt>
      <trkpt lat="43.62984" lon="1.40089">
        <ele>136</ele>
        <time>2025-02-02T12:53:29Z</time>
      </trkpt>
      <trkpt lat="43.62986" lon="1.40088">
        <ele>136</ele>
        <time>2025-02-02T12:53:30Z</time>
      </trkpt>
      <trkpt lat="43.6299" lon="1.40088">
        <ele>136</ele>
        <time>2025-02-02T12:53:31Z</time>
      </trkpt>
      <trkpt lat="43.62992" lon="1.40089">
        <ele>136</ele>
        <time>2025-02-02T12:53:32Z</time>
      </trkpt>
      <trkpt lat="43.62994" lon="1.40088">
        <ele>136</ele>
        <time>2025-02-02T12:53:33Z</time>
      </trkpt>
      <trkpt lat="43.62997" lon="1.40088">
        <ele>136</ele>
        <time>2025-02-02T12:53:34Z</time>
      </trkpt>
      <trkpt lat="43.63001" lon="1.40088">
        <ele>136</ele>
        <time>2025-02-02T12:53:35Z</time>
      </trkpt>
      <trkpt lat="43.63002" lon="1.40088">
        <ele>136</ele>
        <time>2025-02-02T12:53:36Z</time>
      </trkpt>
      <trkpt lat="43.63005" lon="1.40088">
        <ele>136</ele>
        <time>2025-02-02T12:53:37Z</time>
      </trkpt>
      <trkpt lat="43.63009" lon="1.40089">
        <ele>136</ele>
        <time>2025-02-02T12:53:38Z</time>
      </trkpt>
      <trkpt lat="43.63011" lon="1.40089">
        <ele>137</ele>
        <time>2025-02-02T12:53:39Z</time>
      </trkpt>
      <trkpt lat="43.63014" lon="1.4009">
        <ele>137</ele>
        <time>2025-02-02T12:53:40Z</time>
      </trkpt>
      <trkpt lat="43.63016" lon="1.4009">
        <ele>137</ele>
        <time>2025-02-02T12:53:41Z</time>
      </trkpt>
      <trkpt lat="43.63019" lon="1.40091">
        <ele>137</ele>
        <time>2025-02-02T12:53:42Z</time>
      </trkpt>
      <trkpt lat="43.63022" lon="1.40091">
        <ele>137</ele>
        <time>2025-02-02T12:53:43Z</time>
      </trkpt>
      <trkpt lat="43.63024" lon="1.40092">
        <ele>138</ele>
        <time>2025-02-02T12:53:44Z</time>
      </trkpt>
      <trkpt lat="43.63026" lon="1.40094">
        <ele>138</ele>
        <time>2025-02-02T12:53:45Z</time>
      </trkpt>
      <trkpt lat="43.63029" lon="1.40095">
        <ele>138</ele>
        <time>2025-02-02T12:53:46Z</time>
      </trkpt>
      <trkpt lat="43.63031" lon="1.40096">
        <ele>138</ele>
        <time>2025-02-02T12:53:47Z</time>
      </trkpt>
      <trkpt lat="43.63034" lon="1.40098">
        <ele>138</ele>
        <time>2025-02-02T12:53:48Z</time>
      </trkpt>
      <trkpt lat="43.63037" lon="1.401">
        <ele>138</ele>
        <time>2025-02-02T12:53:49Z</time>
      </trkpt>
      <trkpt lat="43.6304" lon="1.401">
        <ele>138</ele>
        <time>2025-02-02T12:53:50Z</time>
      </trkpt>
      <trkpt lat="43.63042" lon="1.401">
        <ele>138</ele>
        <time>2025-02-02T12:53:51Z</time>
      </trkpt>
      <trkpt lat="43.63045" lon="1.40101">
        <ele>138</ele>
        <time>2025-02-02T12:53:52Z</time>
      </trkpt>
      <trkpt lat="43.63048" lon="1.40102">
        <ele>138</ele>
        <time>2025-02-02T12:53:53Z</time>
      </trkpt>
      <trkpt lat="43.63053" lon="1.40103">
        <ele>138</ele>
        <time>2025-02-02T12:53:54Z</time>
      </trkpt>
      <trkpt lat="43.63054" lon="1.40104">
        <ele>138</ele>
        <time>2025-02-02T12:53:55Z</time>
      </trkpt>
      <trkpt lat="43.63058" lon="1.40104">
        <ele>138</ele>
        <time>2025-02-02T12:53:56Z</time>
      </trkpt>
      <trkpt lat="43.63059" lon="1.40104">
        <ele>138</ele>
        <time>2025-02-02T12:53:57Z</time>
      </trkpt>
      <trkpt lat="43.63062" lon="1.40104">
        <ele>138</ele>
        <time>2025-02-02T12:53:58Z</time>
      </trkpt>
      <trkpt lat="43.63065" lon="1.40105">
        <ele>138</ele>
        <time>2025-02-02T12:53:59Z</time>
      </trkpt>
      <trkpt lat="43.63069" lon="1.40106">
        <ele>138</ele>
        <time>2025-02-02T12:54:00Z</time>
      </trkpt>
      <trkpt lat="43.63071" lon="1.40108">
        <ele>138</ele>
        <time>2025-02-02T12:54:01Z</time>
      </trkpt>
      <trkpt lat="43.63074" lon="1.40109">
        <ele>138</ele>
        <time>2025-02-02T12:54:02Z</time>
      </trkpt>
      <trkpt lat="43.63077" lon="1.40111">
        <ele>138</ele>
        <time>2025-02-02T12:54:03Z</time>
      </trkpt>
      <trkpt lat="43.63079" lon="1.40112">
        <ele>138</ele>
        <time>2025-02-02T12:54:04Z</time>
      </trkpt>
      <trkpt lat="43.63082" lon="1.40114">
        <ele>138</ele>
        <time>2025-02-02T12:54:05Z</time>
      </trkpt>
      <trkpt lat="43.63085" lon="1.40116">
        <ele>137</ele>
        <time>2025-02-02T12:54:06Z</time>
      </trkpt>
      <trkpt lat="43.63087" lon="1.40118">
        <ele>137</ele>
        <time>2025-02-02T12:54:07Z</time>
      </trkpt>
      <trkpt lat="43.6309" lon="1.40118">
        <ele>137</ele>
        <time>2025-02-02T12:54:08Z</time>
      </trkpt>
      <trkpt lat="43.63093" lon="1.40118">
        <ele>137</ele>
        <time>2025-02-02T12:54:09Z</time>
      </trkpt>
      <trkpt lat="43.63096" lon="1.40117">
        <ele>137</ele>
        <time>2025-02-02T12:54:10Z</time>
      </trkpt>
      <trkpt lat="43.63099" lon="1.40118">
        <ele>137</ele>
        <time>2025-02-02T12:54:11Z</time>
      </trkpt>
      <trkpt lat="43.63102" lon="1.40118">
        <ele>137</ele>
        <time>2025-02-02T12:54:12Z</time>
      </trkpt>
      <trkpt lat="43.63106" lon="1.40119">
        <ele>137</ele>
        <time>2025-02-02T12:54:13Z</time>
      </trkpt>
      <trkpt lat="43.63108" lon="1.4012">
        <ele>137</ele>
        <time>2025-02-02T12:54:14Z</time>
      </trkpt>
      <trkpt lat="43.63112" lon="1.40121">
        <ele>137</ele>
        <time>2025-02-02T12:54:15Z</time>
      </trkpt>
      <trkpt lat="43.63113" lon="1.40121">
        <ele>136</ele>
        <time>2025-02-02T12:54:16Z</time>
      </trkpt>
      <trkpt lat="43.63115" lon="1.40122">
        <ele>136</ele>
        <time>2025-02-02T12:54:17Z</time>
      </trkpt>
      <trkpt lat="43.63117" lon="1.40122">
        <ele>136</ele>
        <time>2025-02-02T12:54:18Z</time>
      </trkpt>
      <trkpt lat="43.63119" lon="1.40123">
        <ele>136</ele>
        <time>2025-02-02T12:54:19Z</time>
      </trkpt>
      <trkpt lat="43.63122" lon="1.40124">
        <ele>136</ele>
        <time>2025-02-02T12:54:20Z</time>
      </trkpt>
      <trkpt lat="43.63124" lon="1.40124">
        <ele>136</ele>
        <time>2025-02-02T12:54:21Z</time>
      </trkpt>
      <trkpt lat="43.63127" lon="1.40124">
        <ele>136</ele>
        <time>2025-02-02T12:54:22Z</time>
      </trkpt>
      <trkpt lat="43.6313" lon="1.40124">
        <ele>136</ele>
        <time>2025-02-02T12:54:23Z</time>
      </trkpt>
      <trkpt lat="43.63133" lon="1.40125">
        <ele>136</ele>
        <time>2025-02-02T12:54:24Z</time>
      </trkpt>
      <trkpt lat="43.63135" lon="1.40126">
        <ele>136</ele>
        <time>2025-02-02T12:54:25Z</time>
      </trkpt>
      <trkpt lat="43.63138" lon="1.40127">
        <ele>136</ele>
        <time>2025-02-02T12:54:26Z</time>
      </trkpt>
      <trkpt lat="43.63141" lon="1.40129">
        <ele>136</ele>
        <time>2025-02-02T12:54:27Z</time>
      </trkpt>
      <trkpt lat="43.63144" lon="1.40131">
        <ele>136</ele>
        <time>2025-02-02T12:54:28Z</time>
      </trkpt>
      <trkpt lat="43.63147" lon="1.40133">
        <ele>136</ele>
        <time>2025-02-02T12:54:29Z</time>
      </trkpt>
      <trkpt lat="43.63149" lon="1.40134">
        <ele>136</ele>
        <time>2025-02-02T12:54:30Z</time>
      </trkpt>
      <trkpt lat="43.63152" lon="1.40137">
        <ele>136</ele>
        <time>2025-02-02T12:54:31Z</time>
      </trkpt>
      <trkpt lat="43.63155" lon="1.40138">
        <ele>136</ele>
        <time>2025-02-02T12:54:32Z</time>
      </trkpt>
      <trkpt lat="43.63157" lon="1.4014">
        <ele>136</ele>
        <time>2025-02-02T12:54:33Z</time>
      </trkpt>
      <trkpt lat="43.63159" lon="1.40142">
        <ele>136</ele>
        <time>2025-02-02T12:54:34Z</time>
      </trkpt>
      <trkpt lat="43.63161" lon="1.40143">
        <ele>136</ele>
        <time>2025-02-02T12:54:35Z</time>
      </trkpt>
      <trkpt lat="43.63164" lon="1.40145">
        <ele>136</ele>
        <time>2025-02-02T12:54:36Z</time>
      </trkpt>
      <trkpt lat="43.63167" lon="1.40147">
        <ele>136</ele>
        <time>2025-02-02T12:54:37Z</time>
      </trkpt>
      <trkpt lat="43.6317" lon="1.40149">
        <ele>136</ele>
        <time>2025-02-02T12:54:38Z</time>
      </trkpt>
      <trkpt lat="43.63172" lon="1.40151">
        <ele>136</ele>
        <time>2025-02-02T12:54:39Z</time>
      </trkpt>
      <trkpt lat="43.63175" lon="1.40152">
        <ele>136</ele>
        <time>2025-02-02T12:54:40Z</time>
      </trkpt>
      <trkpt lat="43.63177" lon="1.40154">
        <ele>136</ele>
        <time>2025-02-02T12:54:41Z</time>
      </trkpt>
      <trkpt lat="43.63179" lon="1.40156">
        <ele>136</ele>
        <time>2025-02-02T12:54:42Z</time>
      </trkpt>
      <trkpt lat="43.63181" lon="1.40156">
        <ele>136</ele>
        <time>2025-02-02T12:54:43Z</time>
      </trkpt>
      <trkpt lat="43.63183" lon="1.40157">
        <ele>136</ele>
        <time>2025-02-02T12:54:44Z</time>
      </trkpt>
      <trkpt lat="43.63186" lon="1.40158">
        <ele>136</ele>
        <time>2025-02-02T12:54:45Z</time>
      </trkpt>
      <trkpt lat="43.63188" lon="1.40157">
        <ele>136</ele>
        <time>2025-02-02T12:54:46Z</time>
      </trkpt>
      <trkpt lat="43.6319" lon="1.40156">
        <ele>136</ele>
        <time>2025-02-02T12:54:47Z</time>
      </trkpt>
      <trkpt lat="43.63192" lon="1.40155">
        <ele>137</ele>
        <time>2025-02-02T12:54:48Z</time>
      </trkpt>
      <trkpt lat="43.63196" lon="1.40156">
        <ele>137</ele>
        <time>2025-02-02T12:54:49Z</time>
      </trkpt>
      <trkpt lat="43.63199" lon="1.40158">
        <ele>137</ele>
        <time>2025-02-02T12:54:50Z</time>
      </trkpt>
      <trkpt lat="43.63202" lon="1.40161">
        <ele>137</ele>
        <time>2025-02-02T12:54:51Z</time>
      </trkpt>
      <trkpt lat="43.63205" lon="1.40164">
        <ele>137</ele>
        <time>2025-02-02T12:54:52Z</time>
      </trkpt>
      <trkpt lat="43.63207" lon="1.40165">
        <ele>137</ele>
        <time>2025-02-02T12:54:53Z</time>
      </trkpt>
      <trkpt lat="43.6321" lon="1.40165">
        <ele>137</ele>
        <time>2025-02-02T12:54:54Z</time>
      </trkpt>
      <trkpt lat="43.63212" lon="1.40164">
        <ele>137</ele>
        <time>2025-02-02T12:54:55Z</time>
      </trkpt>
      <trkpt lat="43.63215" lon="1.40165">
        <ele>136</ele>
        <time>2025-02-02T12:54:56Z</time>
      </trkpt>
      <trkpt lat="43.63218" lon="1.40166">
        <ele>136</ele>
        <time>2025-02-02T12:54:57Z</time>
      </trkpt>
      <trkpt lat="43.63221" lon="1.40167">
        <ele>136</ele>
        <time>2025-02-02T12:54:58Z</time>
      </trkpt>
      <trkpt lat="43.63224" lon="1.40168">
        <ele>136</ele>
        <time>2025-02-02T12:54:59Z</time>
      </trkpt>
      <trkpt lat="43.63226" lon="1.40169">
        <ele>136</ele>
        <time>2025-02-02T12:55:00Z</time>
      </trkpt>
      <trkpt lat="43.63229" lon="1.4017">
        <ele>136</ele>
        <time>2025-02-02T12:55:01Z</time>
      </trkpt>
      <trkpt lat="43.63232" lon="1.40171">
        <ele>136</ele>
        <time>2025-02-02T12:55:02Z</time>
      </trkpt>
      <trkpt lat="43.63235" lon="1.40172">
        <ele>136</ele>
        <time>2025-02-02T12:55:03Z</time>
      </trkpt>
      <trkpt lat="43.63237" lon="1.40173">
        <ele>136</ele>
        <time>2025-02-02T12:55:04Z</time>
      </trkpt>
      <trkpt lat="43.6324" lon="1.40173">
        <ele>136</ele>
        <time>2025-02-02T12:55:05Z</time>
      </trkpt>
      <trkpt lat="43.63242" lon="1.40174">
        <ele>136</ele>
        <time>2025-02-02T12:55:06Z</time>
      </trkpt>
      <trkpt lat="43.63246" lon="1.40175">
        <ele>136</ele>
        <time>2025-02-02T12:55:07Z</time>
      </trkpt>
      <trkpt lat="43.63247" lon="1.40176">
        <ele>136</ele>
        <time>2025-02-02T12:55:08Z</time>
      </trkpt>
      <trkpt lat="43.63249" lon="1.40177">
        <ele>136</ele>
        <time>2025-02-02T12:55:09Z</time>
      </trkpt>
      <trkpt lat="43.63252" lon="1.40179">
        <ele>136</ele>
        <time>2025-02-02T12:55:10Z</time>
      </trkpt>
      <trkpt lat="43.63254" lon="1.40179">
        <ele>136</ele>
        <time>2025-02-02T12:55:11Z</time>
      </trkpt>
      <trkpt lat="43.63256" lon="1.4018">
        <ele>136</ele>
        <time>2025-02-02T12:55:12Z</time>
      </trkpt>
      <trkpt lat="43.63259" lon="1.40181">
        <ele>136</ele>
        <time>2025-02-02T12:55:13Z</time>
      </trkpt>
      <trkpt lat="43.63262" lon="1.40182">
        <ele>136</ele>
        <time>2025-02-02T12:55:14Z</time>
      </trkpt>
      <trkpt lat="43.63265" lon="1.40184">
        <ele>136</ele>
        <time>2025-02-02T12:55:15Z</time>
      </trkpt>
      <trkpt lat="43.63267" lon="1.40187">
        <ele>136</ele>
        <time>2025-02-02T12:55:16Z</time>
      </trkpt>
      <trkpt lat="43.63269" lon="1.40189">
        <ele>136</ele>
        <time>2025-02-02T12:55:17Z</time>
      </trkpt>
      <trkpt lat="43.63271" lon="1.4019">
        <ele>136</ele>
        <time>2025-02-02T12:55:18Z</time>
      </trkpt>
      <trkpt lat="43.63274" lon="1.4019">
        <ele>136</ele>
        <time>2025-02-02T12:55:19Z</time>
      </trkpt>
      <trkpt lat="43.63276" lon="1.4019">
        <ele>136</ele>
        <time>2025-02-02T12:55:20Z</time>
      </trkpt>
      <trkpt lat="43.63279" lon="1.4019">
        <ele>136</ele>
        <time>2025-02-02T12:55:21Z</time>
      </trkpt>
      <trkpt lat="43.63282" lon="1.4019">
        <ele>136</ele>
        <time>2025-02-02T12:55:22Z</time>
      </trkpt>
      <trkpt lat="43.63286" lon="1.40191">
        <ele>136</ele>
        <time>2025-02-02T12:55:23Z</time>
      </trkpt>
      <trkpt lat="43.63289" lon="1.40191">
        <ele>136</ele>
        <time>2025-02-02T12:55:24Z</time>
      </trkpt>
      <trkpt lat="43.63293" lon="1.40193">
        <ele>136</ele>
        <time>2025-02-02T12:55:25Z</time>
      </trkpt>
      <trkpt lat="43.63295" lon="1.40194">
        <ele>136</ele>
        <time>2025-02-02T12:55:26Z</time>
      </trkpt>
      <trkpt lat="43.63297" lon="1.40196">
        <ele>136</ele>
        <time>2025-02-02T12:55:27Z</time>
      </trkpt>
      <trkpt lat="43.63299" lon="1.40198">
        <ele>136</ele>
        <time>2025-02-02T12:55:28Z</time>
      </trkpt>
      <trkpt lat="43.63302" lon="1.402">
        <ele>136</ele>
        <time>2025-02-02T12:55:29Z</time>
      </trkpt>
      <trkpt lat="43.63303" lon="1.40201">
        <ele>136</ele>
        <time>2025-02-02T12:55:30Z</time>
      </trkpt>
      <trkpt lat="43.63306" lon="1.40203">
        <ele>136</ele>
        <time>2025-02-02T12:55:31Z</time>
      </trkpt>
      <trkpt lat="43.63309" lon="1.40204">
        <ele>136</ele>
        <time>2025-02-02T12:55:32Z</time>
      </trkpt>
      <trkpt lat="43.63311" lon="1.40205">
        <ele>136</ele>
        <time>2025-02-02T12:55:33Z</time>
      </trkpt>
      <trkpt lat="43.63314" lon="1.40205">
        <ele>136</ele>
        <time>2025-02-02T12:55:34Z</time>
      </trkpt>
      <trkpt lat="43.63316" lon="1.40206">
        <ele>135</ele>
        <time>2025-02-02T12:55:35Z</time>
      </trkpt>
      <trkpt lat="43.63317" lon="1.40207">
        <ele>135</ele>
        <time>2025-02-02T12:55:36Z</time>
      </trkpt>
      <trkpt lat="43.63319" lon="1.40209">
        <ele>135</ele>
        <time>2025-02-02T12:55:37Z</time>
      </trkpt>
      <trkpt lat="43.63321" lon="1.4021">
        <ele>135</ele>
        <time>2025-02-02T12:55:38Z</time>
      </trkpt>
      <trkpt lat="43.63324" lon="1.40211">
        <ele>135</ele>
        <time>2025-02-02T12:55:39Z</time>
      </trkpt>
      <trkpt lat="43.63326" lon="1.40212">
        <ele>135</ele>
        <time>2025-02-02T12:55:40Z</time>
      </trkpt>
      <trkpt lat="43.63328" lon="1.40213">
        <ele>135</ele>
        <time>2025-02-02T12:55:41Z</time>
      </trkpt>
      <trkpt lat="43.63331" lon="1.40215">
        <ele>135</ele>
        <time>2025-02-02T12:55:42Z</time>
      </trkpt>
      <trkpt lat="43.63333" lon="1.40216">
        <ele>135</ele>
        <time>2025-02-02T12:55:43Z</time>
      </trkpt>
      <trkpt lat="43.63335" lon="1.40217">
        <ele>135</ele>
        <time>2025-02-02T12:55:44Z</time>
      </trkpt>
      <trkpt lat="43.63337" lon="1.40217">
        <ele>135</ele>
        <time>2025-02-02T12:55:45Z</time>
      </trkpt>
      <trkpt lat="43.6334" lon="1.40217">
        <ele>135</ele>
        <time>2025-02-02T12:55:46Z</time>
      </trkpt>
      <trkpt lat="43.63341" lon="1.40218">
        <ele>135</ele>
        <time>2025-02-02T12:55:47Z</time>
      </trkpt>
      <trkpt lat="43.63344" lon="1.40218">
        <ele>135</ele>
        <time>2025-02-02T12:55:48Z</time>
      </trkpt>
      <trkpt lat="43.63346" lon="1.40218">
        <ele>135</ele>
        <time>2025-02-02T12:55:49Z</time>
      </trkpt>
      <trkpt lat="43.63348" lon="1.40218">
        <ele>135</ele>
        <time>2025-02-02T12:55:50Z</time>
      </trkpt>
      <trkpt lat="43.63351" lon="1.40218">
        <ele>135</ele>
        <time>2025-02-02T12:55:51Z</time>
      </trkpt>
      <trkpt lat="43.63354" lon="1.40218">
        <ele>135</ele>
        <time>2025-02-02T12:55:52Z</time>
      </trkpt>
      <trkpt lat="43.63357" lon="1.40219">
        <ele>135</ele>
        <time>2025-02-02T12:55:53Z</time>
      </trkpt>
      <trkpt lat="43.6336" lon="1.4022">
        <ele>135</ele>
        <time>2025-02-02T12:55:54Z</time>
      </trkpt>
      <trkpt lat="43.63364" lon="1.40223">
        <ele>135</ele>
        <time>2025-02-02T12:55:55Z</time>
      </trkpt>
      <trkpt lat="43.63367" lon="1.40224">
        <ele>135</ele>
        <time>2025-02-02T12:55:56Z</time>
      </trkpt>
      <trkpt lat="43.63371" lon="1.40225">
        <ele>135</ele>
        <time>2025-02-02T12:55:57Z</time>
      </trkpt>
      <trkpt lat="43.63374" lon="1.40225">
        <ele>136</ele>
        <time>2025-02-02T12:55:58Z</time>
      </trkpt>
      <trkpt lat="43.63377" lon="1.40225">
        <ele>136</ele>
        <time>2025-02-02T12:55:59Z</time>
      </trkpt>
      <trkpt lat="43.6338" lon="1.40225">
        <ele>137</ele>
        <time>2025-02-02T12:56:00Z</time>
      </trkpt>
      <trkpt lat="43.63383" lon="1.40224">
        <ele>138</ele>
        <time>2025-02-02T12:56:01Z</time>
      </trkpt>
      <trkpt lat="43.63388" lon="1.40225">
        <ele>138</ele>
        <time>2025-02-02T12:56:02Z</time>
      </trkpt>
      <trkpt lat="43.63389" lon="1.40226">
        <ele>138</ele>
        <time>2025-02-02T12:56:03Z</time>
      </trkpt>
      <trkpt lat="43.63392" lon="1.40227">
        <ele>138</ele>
        <time>2025-02-02T12:56:04Z</time>
      </trkpt>
      <trkpt lat="43.63395" lon="1.40227">
        <ele>138</ele>
        <time>2025-02-02T12:56:05Z</time>
      </trkpt>
      <trkpt lat="43.63398" lon="1.40228">
        <ele>138</ele>
        <time>2025-02-02T12:56:06Z</time>
      </trkpt>
      <trkpt lat="43.63402" lon="1.40231">
        <ele>138</ele>
        <time>2025-02-02T12:56:07Z</time>
      </trkpt>
      <trkpt lat="43.63403" lon="1.40232">
        <ele>138</ele>
        <time>2025-02-02T12:56:08Z</time>
      </trkpt>
      <trkpt lat="43.63406" lon="1.40234">
        <ele>138</ele>
        <time>2025-02-02T12:56:09Z</time>
      </trkpt>
      <trkpt lat="43.63409" lon="1.40235">
        <ele>138</ele>
        <time>2025-02-02T12:56:10Z</time>
      </trkpt>
      <trkpt lat="43.63411" lon="1.40236">
        <ele>138</ele>
        <time>2025-02-02T12:56:11Z</time>
      </trkpt>
      <trkpt lat="43.63414" lon="1.40237">
        <ele>138</ele>
        <time>2025-02-02T12:56:12Z</time>
      </trkpt>
      <trkpt lat="43.63416" lon="1.40238">
        <ele>138</ele>
        <time>2025-02-02T12:56:13Z</time>
      </trkpt>
      <trkpt lat="43.63419" lon="1.40239">
        <ele>138</ele>
        <time>2025-02-02T12:56:14Z</time>
      </trkpt>
      <trkpt lat="43.63421" lon="1.40239">
        <ele>138</ele>
        <time>2025-02-02T12:56:15Z</time>
      </trkpt>
      <trkpt lat="43.63424" lon="1.4024">
        <ele>138</ele>
        <time>2025-02-02T12:56:16Z</time>
      </trkpt>
      <trkpt lat="43.63427" lon="1.40241">
        <ele>138</ele>
        <time>2025-02-02T12:56:17Z</time>
      </trkpt>
      <trkpt lat="43.6343" lon="1.40242">
        <ele>138</ele>
        <time>2025-02-02T12:56:18Z</time>
      </trkpt>
      <trkpt lat="43.63432" lon="1.40243">
        <ele>138</ele>
        <time>2025-02-02T12:56:19Z</time>
      </trkpt>
      <trkpt lat="43.63436" lon="1.40244">
        <ele>138</ele>
        <time>2025-02-02T12:56:20Z</time>
      </trkpt>
      <trkpt lat="43.63437" lon="1.40244">
        <ele>138</ele>
        <time>2025-02-02T12:56:21Z</time>
      </trkpt>
      <trkpt lat="43.6344" lon="1.40245">
        <ele>138</ele>
        <time>2025-02-02T12:56:22Z</time>
      </trkpt>
      <trkpt lat="43.63442" lon="1.40245">
        <ele>138</ele>
        <time>2025-02-02T12:56:23Z</time>
      </trkpt>
      <trkpt lat="43.63445" lon="1.40246">
        <ele>138</ele>
        <time>2025-02-02T12:56:24Z</time>
      </trkpt>
      <trkpt lat="43.63447" lon="1.40246">
        <ele>138</ele>
        <time>2025-02-02T12:56:25Z</time>
      </trkpt>
      <trkpt lat="43.63451" lon="1.40247">
        <ele>138</ele>
        <time>2025-02-02T12:56:26Z</time>
      </trkpt>
      <trkpt lat="43.63453" lon="1.40248">
        <ele>138</ele>
        <time>2025-02-02T12:56:27Z</time>
      </trkpt>
      <trkpt lat="43.63455" lon="1.40248">
        <ele>138</ele>
        <time>2025-02-02T12:56:28Z</time>
      </trkpt>
      <trkpt lat="43.63458" lon="1.40249">
        <ele>138</ele>
        <time>2025-02-02T12:56:29Z</time>
      </trkpt>
      <trkpt lat="43.6346" lon="1.40249">
        <ele>138</ele>
        <time>2025-02-02T12:56:30Z</time>
      </trkpt>
      <trkpt lat="43.63462" lon="1.40249">
        <ele>138</ele>
        <time>2025-02-02T12:56:31Z</time>
      </trkpt>
      <trkpt lat="43.63465" lon="1.4025">
        <ele>138</ele>
        <time>2025-02-02T12:56:32Z</time>
      </trkpt>
      <trkpt lat="43.63467" lon="1.4025">
        <ele>138</ele>
        <time>2025-02-02T12:56:33Z</time>
      </trkpt>
      <trkpt lat="43.6347" lon="1.40251">
        <ele>138</ele>
        <time>2025-02-02T12:56:34Z</time>
      </trkpt>
      <trkpt lat="43.63472" lon="1.40252">
        <ele>138</ele>
        <time>2025-02-02T12:56:35Z</time>
      </trkpt>
      <trkpt lat="43.63474" lon="1.40252">
        <ele>139</ele>
        <time>2025-02-02T12:56:36Z</time>
      </trkpt>
      <trkpt lat="43.63476" lon="1.40252">
        <ele>139</ele>
        <time>2025-02-02T12:56:37Z</time>
      </trkpt>
      <trkpt lat="43.63478" lon="1.40253">
        <ele>139</ele>
        <time>2025-02-02T12:56:38Z</time>
      </trkpt>
      <trkpt lat="43.63481" lon="1.40253">
        <ele>139</ele>
        <time>2025-02-02T12:56:39Z</time>
      </trkpt>
      <trkpt lat="43.63483" lon="1.40253">
        <ele>139</ele>
        <time>2025-02-02T12:56:40Z</time>
      </trkpt>
      <trkpt lat="43.63485" lon="1.40253">
        <ele>139</ele>
        <time>2025-02-02T12:56:41Z</time>
      </trkpt>
      <trkpt lat="43.63487" lon="1.40253">
        <ele>139</ele>
        <time>2025-02-02T12:56:42Z</time>
      </trkpt>
      <trkpt lat="43.6349" lon="1.40254">
        <ele>139</ele>
        <time>2025-02-02T12:56:43Z</time>
      </trkpt>
      <trkpt lat="43.63492" lon="1.40255">
        <ele>139</ele>
        <time>2025-02-02T12:56:44Z</time>
      </trkpt>
      <trkpt lat="43.63497" lon="1.40256">
        <ele>139</ele>
        <time>2025-02-02T12:56:45Z</time>
      </trkpt>
      <trkpt lat="43.63498" lon="1.40257">
        <ele>139</ele>
        <time>2025-02-02T12:56:46Z</time>
      </trkpt>
      <trkpt lat="43.635" lon="1.40257">
        <ele>139</ele>
        <time>2025-02-02T12:56:47Z</time>
      </trkpt>
      <trkpt lat="43.63502" lon="1.40257">
        <ele>139</ele>
        <time>2025-02-02T12:56:48Z</time>
      </trkpt>
      <trkpt lat="43.63505" lon="1.40258">
        <ele>138</ele>
        <time>2025-02-02T12:56:49Z</time>
      </trkpt>
      <trkpt lat="43.63507" lon="1.40259">
        <ele>138</ele>
        <time>2025-02-02T12:56:50Z</time>
      </trkpt>
      <trkpt lat="43.6351" lon="1.40259">
        <ele>138</ele>
        <time>2025-02-02T12:56:51Z</time>
      </trkpt>
      <trkpt lat="43.63512" lon="1.4026">
        <ele>138</ele>
        <time>2025-02-02T12:56:52Z</time>
      </trkpt>
      <trkpt lat="43.63514" lon="1.40262">
        <ele>138</ele>
        <time>2025-02-02T12:56:53Z</time>
      </trkpt>
      <trkpt lat="43.63517" lon="1.40263">
        <ele>138</ele>
        <time>2025-02-02T12:56:54Z</time>
      </trkpt>
      <trkpt lat="43.63519" lon="1.40263">
        <ele>138</ele>
        <time>2025-02-02T12:56:55Z</time>
      </trkpt>
      <trkpt lat="43.63521" lon="1.40264">
        <ele>138</ele>
        <time>2025-02-02T12:56:56Z</time>
      </trkpt>
      <trkpt lat="43.63523" lon="1.40264">
        <ele>139</ele>
        <time>2025-02-02T12:56:57Z</time>
      </trkpt>
      <trkpt lat="43.63525" lon="1.40265">
        <ele>139</ele>
        <time>2025-02-02T12:56:58Z</time>
      </trkpt>
      <trkpt lat="43.63528" lon="1.40265">
        <ele>139</ele>
        <time>2025-02-02T12:56:59Z</time>
      </trkpt>
      <trkpt lat="43.6353" lon="1.40266">
        <ele>139</ele>
        <time>2025-02-02T12:57:00Z</time>
      </trkpt>
      <trkpt lat="43.63534" lon="1.40267">
        <ele>139</ele>
        <time>2025-02-02T12:57:01Z</time>
      </trkpt>
      <trkpt lat="43.63535" lon="1.40267">
        <ele>139</ele>
        <time>2025-02-02T12:57:02Z</time>
      </trkpt>
      <trkpt lat="43.63538" lon="1.40267">
        <ele>138</ele>
        <time>2025-02-02T12:57:03Z</time>
      </trkpt>
      <trkpt lat="43.63542" lon="1.40268">
        <ele>138</ele>
        <time>2025-02-02T12:57:04Z</time>
      </trkpt>
      <trkpt lat="43.63543" lon="1.40268">
        <ele>139</ele>
        <time>2025-02-02T12:57:05Z</time>
      </trkpt>
      <trkpt lat="43.63546" lon="1.40268">
        <ele>139</ele>
        <time>2025-02-02T12:57:06Z</time>
      </trkpt>
      <trkpt lat="43.63549" lon="1.40268">
        <ele>139</ele>
        <time>2025-02-02T12:57:07Z</time>
      </trkpt>
      <trkpt lat="43.63551" lon="1.40268">
        <ele>139</ele>
        <time>2025-02-02T12:57:08Z</time>
      </trkpt>
      <trkpt lat="43.63554" lon="1.40267">
        <ele>139</ele>
        <time>2025-02-02T12:57:09Z</time>
      </trkpt>
      <trkpt lat="43.63557" lon="1.40267">
        <ele>139</ele>
        <time>2025-02-02T12:57:10Z</time>
      </trkpt>
      <trkpt lat="43.6356" lon="1.40267">
        <ele>139</ele>
        <time>2025-02-02T12:57:11Z</time>
      </trkpt>
      <trkpt lat="43.63562" lon="1.40267">
        <ele>139</ele>
        <time>2025-02-02T12:57:12Z</time>
      </trkpt>
      <trkpt lat="43.63565" lon="1.40267">
        <ele>139</ele>
        <time>2025-02-02T12:57:13Z</time>
      </trkpt>
      <trkpt lat="43.63568" lon="1.40267">
        <ele>139</ele>
        <time>2025-02-02T12:57:14Z</time>
      </trkpt>
      <trkpt lat="43.63571" lon="1.40267">
        <ele>139</ele>
        <time>2025-02-02T12:57:15Z</time>
      </trkpt>
      <trkpt lat="43.63574" lon="1.40267">
        <ele>139</ele>
        <time>2025-02-02T12:57:16Z</time>
      </trkpt>
      <trkpt lat="43.63577" lon="1.40267">
        <ele>139</ele>
        <time>2025-02-02T12:57:17Z</time>
      </trkpt>
      <trkpt lat="43.63579" lon="1.40267">
        <ele>139</ele>
        <time>2025-02-02T12:57:18Z</time>
      </trkpt>
      <trkpt lat="43.63582" lon="1.40268">
        <ele>139</ele>
        <time>2025-02-02T12:57:19Z</time>
      </trkpt>
      <trkpt lat="43.63586" lon="1.40267">
        <ele>139</ele>
        <time>2025-02-02T12:57:20Z</time>
      </trkpt>
      <trkpt lat="43.63587" lon="1.40267">
        <ele>139</ele>
        <time>2025-02-02T12:57:21Z</time>
      </trkpt>
      <trkpt lat="43.6359" lon="1.40267">
        <ele>139</ele>
        <time>2025-02-02T12:57:22Z</time>
      </trkpt>
      <trkpt lat="43.63594" lon="1.40268">
        <ele>139</ele>
        <time>2025-02-02T12:57:23Z</time>
      </trkpt>
      <trkpt lat="43.63595" lon="1.40268">
        <ele>139</ele>
        <time>2025-02-02T12:57:24Z</time>
      </trkpt>
      <trkpt lat="43.63598" lon="1.40269">
        <ele>139</ele>
        <time>2025-02-02T12:57:25Z</time>
      </trkpt>
      <trkpt lat="43.63601" lon="1.4027">
        <ele>139</ele>
        <time>2025-02-02T12:57:26Z</time>
      </trkpt>
      <trkpt lat="43.63604" lon="1.40271">
        <ele>139</ele>
        <time>2025-02-02T12:57:27Z</time>
      </trkpt>
      <trkpt lat="43.63607" lon="1.40272">
        <ele>139</ele>
        <time>2025-02-02T12:57:28Z</time>
      </trkpt>
      <trkpt lat="43.6361" lon="1.40273">
        <ele>139</ele>
        <time>2025-02-02T12:57:29Z</time>
      </trkpt>
      <trkpt lat="43.63612" lon="1.40273">
        <ele>139</ele>
        <time>2025-02-02T12:57:30Z</time>
      </trkpt>
      <trkpt lat="43.63614" lon="1.40273">
        <ele>139</ele>
        <time>2025-02-02T12:57:31Z</time>
      </trkpt>
      <trkpt lat="43.63617" lon="1.40273">
        <ele>139</ele>
        <time>2025-02-02T12:57:32Z</time>
      </trkpt>
      <trkpt lat="43.6362" lon="1.40274">
        <ele>139</ele>
        <time>2025-02-02T12:57:33Z</time>
      </trkpt>
      <trkpt lat="43.63623" lon="1.40274">
        <ele>139</ele>
        <time>2025-02-02T12:57:34Z</time>
      </trkpt>
      <trkpt lat="43.63626" lon="1.40274">
        <ele>139</ele>
        <time>2025-02-02T12:57:35Z</time>
      </trkpt>
      <trkpt lat="43.63628" lon="1.40274">
        <ele>139</ele>
        <time>2025-02-02T12:57:36Z</time>
      </trkpt>
      <trkpt lat="43.63633" lon="1.40274">
        <ele>139</ele>
        <time>2025-02-02T12:57:37Z</time>
      </trkpt>
      <trkpt lat="43.63634" lon="1.40274">
        <ele>139</ele>
        <time>2025-02-02T12:57:38Z</time>
      </trkpt>
      <trkpt lat="43.63637" lon="1.40274">
        <ele>139</ele>
        <time>2025-02-02T12:57:39Z</time>
      </trkpt>
      <trkpt lat="43.6364" lon="1.40274">
        <ele>140</ele>
        <time>2025-02-02T12:57:40Z</time>
      </trkpt>
      <trkpt lat="43.63643" lon="1.40275">
        <ele>140</ele>
        <time>2025-02-02T12:57:41Z</time>
      </trkpt>
      <trkpt lat="43.63647" lon="1.40276">
        <ele>140</ele>
        <time>2025-02-02T12:57:42Z</time>
      </trkpt>
      <trkpt lat="43.63648" lon="1.40276">
        <ele>140</ele>
        <time>2025-02-02T12:57:43Z</time>
      </trkpt>
      <trkpt lat="43.63651" lon="1.40277">
        <ele>140</ele>
        <time>2025-02-02T12:57:44Z</time>
      </trkpt>
      <trkpt lat="43.63655" lon="1.40277">
        <ele>139</ele>
        <time>2025-02-02T12:57:45Z</time>
      </trkpt>
      <trkpt lat="43.63657" lon="1.40278">
        <ele>139</ele>
        <time>2025-02-02T12:57:46Z</time>
      </trkpt>
      <trkpt lat="43.63661" lon="1.40279">
        <ele>139</ele>
        <time>2025-02-02T12:57:47Z</time>
      </trkpt>
      <trkpt lat="43.63664" lon="1.4028">
        <ele>139</ele>
        <time>2025-02-02T12:57:48Z</time>
      </trkpt>
      <trkpt lat="43.63667" lon="1.40281">
        <ele>139</ele>
        <time>2025-02-02T12:57:49Z</time>
      </trkpt>
      <trkpt lat="43.6367" lon="1.40282">
        <ele>139</ele>
        <time>2025-02-02T12:57:50Z</time>
      </trkpt>
      <trkpt lat="43.63674" lon="1.40284">
        <ele>138</ele>
        <time>2025-02-02T12:57:51Z</time>
      </trkpt>
      <trkpt lat="43.63677" lon="1.40285">
        <ele>137</ele>
        <time>2025-02-02T12:57:52Z</time>
      </trkpt>
      <trkpt lat="43.63682" lon="1.40289">
        <ele>137</ele>
        <time>2025-02-02T12:57:53Z</time>
      </trkpt>
      <trkpt lat="43.63683" lon="1.40289">
        <ele>136</ele>
        <time>2025-02-02T12:57:54Z</time>
      </trkpt>
      <trkpt lat="43.63687" lon="1.4029">
        <ele>136</ele>
        <time>2025-02-02T12:57:55Z</time>
      </trkpt>
      <trkpt lat="43.63689" lon="1.4029">
        <ele>135</ele>
        <time>2025-02-02T12:57:56Z</time>
      </trkpt>
      <trkpt lat="43.63692" lon="1.40289">
        <ele>135</ele>
        <time>2025-02-02T12:57:57Z</time>
      </trkpt>
      <trkpt lat="43.63694" lon="1.40288">
        <ele>135</ele>
        <time>2025-02-02T12:57:58Z</time>
      </trkpt>
      <trkpt lat="43.63697" lon="1.40287">
        <ele>135</ele>
        <time>2025-02-02T12:57:59Z</time>
      </trkpt>
      <trkpt lat="43.63699" lon="1.40287">
        <ele>134</ele>
        <time>2025-02-02T12:58:00Z</time>
      </trkpt>
      <trkpt lat="43.63703" lon="1.40284">
        <ele>134</ele>
        <time>2025-02-02T12:58:01Z</time>
      </trkpt>
      <trkpt lat="43.63704" lon="1.40284">
        <ele>135</ele>
        <time>2025-02-02T12:58:02Z</time>
      </trkpt>
      <trkpt lat="43.63707" lon="1.40282">
        <ele>135</ele>
        <time>2025-02-02T12:58:03Z</time>
      </trkpt>
      <trkpt lat="43.63709" lon="1.40281">
        <ele>136</ele>
        <time>2025-02-02T12:58:04Z</time>
      </trkpt>
      <trkpt lat="43.63712" lon="1.40281">
        <ele>136</ele>
        <time>2025-02-02T12:58:05Z</time>
      </trkpt>
      <trkpt lat="43.63714" lon="1.40281">
        <ele>136</ele>
        <time>2025-02-02T12:58:06Z</time>
      </trkpt>
      <trkpt lat="43.63717" lon="1.4028">
        <ele>136</ele>
        <time>2025-02-02T12:58:07Z</time>
      </trkpt>
      <trkpt lat="43.63719" lon="1.40281">
        <ele>136</ele>
        <time>2025-02-02T12:58:08Z</time>
      </trkpt>
      <trkpt lat="43.63721" lon="1.40281">
        <ele>136</ele>
        <time>2025-02-02T12:58:09Z</time>
      </trkpt>
      <trkpt lat="43.63723" lon="1.40282">
        <ele>136</ele>
        <time>2025-02-02T12:58:10Z</time>
      </trkpt>
      <trkpt lat="43.63725" lon="1.40282">
        <ele>136</ele>
        <time>2025-02-02T12:58:11Z</time>
      </trkpt>
      <trkpt lat="43.63728" lon="1.40282">
        <ele>136</ele>
        <time>2025-02-02T12:58:12Z</time>
      </trkpt>
      <trkpt lat="43.63732" lon="1.40282">
        <ele>136</ele>
        <time>2025-02-02T12:58:13Z</time>
      </trkpt>
      <trkpt lat="43.63733" lon="1.40282">
        <ele>136</ele>
        <time>2025-02-02T12:58:14Z</time>
      </trkpt>
      <trkpt lat="43.63736" lon="1.40281">
        <ele>136</ele>
        <time>2025-02-02T12:58:15Z</time>
      </trkpt>
      <trkpt lat="43.63739" lon="1.4028">
        <ele>136</ele>
        <time>2025-02-02T12:58:16Z</time>
      </trkpt>
      <trkpt lat="43.63742" lon="1.40279">
        <ele>136</ele>
        <time>2025-02-02T12:58:17Z</time>
      </trkpt>
      <trkpt lat="43.63744" lon="1.40279">
        <ele>136</ele>
        <time>2025-02-02T12:58:18Z</time>
      </trkpt>
      <trkpt lat="43.63747" lon="1.40278">
        <ele>136</ele>
        <time>2025-02-02T12:58:19Z</time>
      </trkpt>
      <trkpt lat="43.63751" lon="1.40278">
        <ele>136</ele>
        <time>2025-02-02T12:58:20Z</time>
      </trkpt>
      <trkpt lat="43.63752" lon="1.40278">
        <ele>136</ele>
        <time>2025-02-02T12:58:21Z</time>
      </trkpt>
      <trkpt lat="43.63755" lon="1.40278">
        <ele>136</ele>
        <time>2025-02-02T12:58:22Z</time>
      </trkpt>
      <trkpt lat="43.63758" lon="1.40277">
        <ele>136</ele>
        <time>2025-02-02T12:58:23Z</time>
      </trkpt>
      <trkpt lat="43.63761" lon="1.40276">
        <ele>135</ele>
        <time>2025-02-02T12:58:24Z</time>
      </trkpt>
      <trkpt lat="43.63763" lon="1.40275">
        <ele>135</ele>
        <time>2025-02-02T12:58:25Z</time>
      </trkpt>
      <trkpt lat="43.63766" lon="1.40275">
        <ele>136</ele>
        <time>2025-02-02T12:58:26Z</time>
      </trkpt>
      <trkpt lat="43.63769" lon="1.40275">
        <ele>136</ele>
        <time>2025-02-02T12:58:27Z</time>
      </trkpt>
      <trkpt lat="43.63773" lon="1.40275">
        <ele>136</ele>
        <time>2025-02-02T12:58:28Z</time>
      </trkpt>
      <trkpt lat="43.63776" lon="1.40275">
        <ele>136</ele>
        <time>2025-02-02T12:58:29Z</time>
      </trkpt>
      <trkpt lat="43.6378" lon="1.40276">
        <ele>136</ele>
        <time>2025-02-02T12:58:30Z</time>
      </trkpt>
      <trkpt lat="43.63782" lon="1.40276">
        <ele>136</ele>
        <time>2025-02-02T12:58:31Z</time>
      </trkpt>
      <trkpt lat="43.63785" lon="1.40276">
        <ele>136</ele>
        <time>2025-02-02T12:58:32Z</time>
      </trkpt>
      <trkpt lat="43.63787" lon="1.40275">
        <ele>136</ele>
        <time>2025-02-02T12:58:33Z</time>
      </trkpt>
      <trkpt lat="43.6379" lon="1.40275">
        <ele>136</ele>
        <time>2025-02-02T12:58:34Z</time>
      </trkpt>
      <trkpt lat="43.63793" lon="1.40274">
        <ele>136</ele>
        <time>2025-02-02T12:58:35Z</time>
      </trkpt>
      <trkpt lat="43.63796" lon="1.40274">
        <ele>136</ele>
        <time>2025-02-02T12:58:36Z</time>
      </trkpt>
      <trkpt lat="43.63798" lon="1.40274">
        <ele>136</ele>
        <time>2025-02-02T12:58:37Z</time>
      </trkpt>
      <trkpt lat="43.63801" lon="1.40274">
        <ele>136</ele>
        <time>2025-02-02T12:58:38Z</time>
      </trkpt>
      <trkpt lat="43.63805" lon="1.40275">
        <ele>136</ele>
        <time>2025-02-02T12:58:39Z</time>
      </trkpt>
      <trkpt lat="43.63807" lon="1.40275">
        <ele>136</ele>
        <time>2025-02-02T12:58:40Z</time>
      </trkpt>
      <trkpt lat="43.63809" lon="1.40275">
        <ele>136</ele>
        <time>2025-02-02T12:58:41Z</time>
      </trkpt>
      <trkpt lat="43.63812" lon="1.40275">
        <ele>136</ele>
        <time>2025-02-02T12:58:42Z</time>
      </trkpt>
      <trkpt lat="43.63815" lon="1.40275">
        <ele>136</ele>
        <time>2025-02-02T12:58:43Z</time>
      </trkpt>
      <trkpt lat="43.63817" lon="1.40275">
        <ele>136</ele>
        <time>2025-02-02T12:58:44Z</time>
      </trkpt>
      <trkpt lat="43.6382" lon="1.40275">
        <ele>136</ele>
        <time>2025-02-02T12:58:45Z</time>
      </trkpt>
      <trkpt lat="43.63822" lon="1.40275">
        <ele>136</ele>
        <time>2025-02-02T12:58:46Z</time>
      </trkpt>
      <trkpt lat="43.63825" lon="1.40274">
        <ele>136</ele>
        <time>2025-02-02T12:58:47Z</time>
      </trkpt>
      <trkpt lat="43.63829" lon="1.40273">
        <ele>136</ele>
        <time>2025-02-02T12:58:48Z</time>
      </trkpt>
      <trkpt lat="43.6383" lon="1.40272">
        <ele>136</ele>
        <time>2025-02-02T12:58:49Z</time>
      </trkpt>
      <trkpt lat="43.63833" lon="1.40272">
        <ele>136</ele>
        <time>2025-02-02T12:58:50Z</time>
      </trkpt>
      <trkpt lat="43.63836" lon="1.4027">
        <ele>135</ele>
        <time>2025-02-02T12:58:51Z</time>
      </trkpt>
      <trkpt lat="43.63839" lon="1.40269">
        <ele>135</ele>
        <time>2025-02-02T12:58:52Z</time>
      </trkpt>
      <trkpt lat="43.63841" lon="1.40268">
        <ele>135</ele>
        <time>2025-02-02T12:58:53Z</time>
      </trkpt>
      <trkpt lat="43.63844" lon="1.40267">
        <ele>135</ele>
        <time>2025-02-02T12:58:54Z</time>
      </trkpt>
      <trkpt lat="43.63846" lon="1.40266">
        <ele>135</ele>
        <time>2025-02-02T12:58:55Z</time>
      </trkpt>
      <trkpt lat="43.63848" lon="1.40265">
        <ele>135</ele>
        <time>2025-02-02T12:58:56Z</time>
      </trkpt>
      <trkpt lat="43.63851" lon="1.40263">
        <ele>135</ele>
        <time>2025-02-02T12:58:57Z</time>
      </trkpt>
      <trkpt lat="43.63855" lon="1.40262">
        <ele>135</ele>
        <time>2025-02-02T12:58:58Z</time>
      </trkpt>
      <trkpt lat="43.63856" lon="1.40262">
        <ele>135</ele>
        <time>2025-02-02T12:58:59Z</time>
      </trkpt>
      <trkpt lat="43.63859" lon="1.40261">
        <ele>135</ele>
        <time>2025-02-02T12:59:00Z</time>
      </trkpt>
      <trkpt lat="43.63861" lon="1.4026">
        <ele>135</ele>
        <time>2025-02-02T12:59:01Z</time>
      </trkpt>
      <trkpt lat="43.63863" lon="1.40259">
        <ele>135</ele>
        <time>2025-02-02T12:59:02Z</time>
      </trkpt>
      <trkpt lat="43.63866" lon="1.40258">
        <ele>135</ele>
        <time>2025-02-02T12:59:03Z</time>
      </trkpt>
      <trkpt lat="43.63867" lon="1.40258">
        <ele>135</ele>
        <time>2025-02-02T12:59:04Z</time>
      </trkpt>
      <trkpt lat="43.6387" lon="1.40257">
        <ele>135</ele>
        <time>2025-02-02T12:59:05Z</time>
      </trkpt>
      <trkpt lat="43.63872" lon="1.40257">
        <ele>135</ele>
        <time>2025-02-02T12:59:06Z</time>
      </trkpt>
      <trkpt lat="43.63875" lon="1.40256">
        <ele>135</ele>
        <time>2025-02-02T12:59:07Z</time>
      </trkpt>
      <trkpt lat="43.63879" lon="1.40255">
        <ele>135</ele>
        <time>2025-02-02T12:59:08Z</time>
      </trkpt>
      <trkpt lat="43.63881" lon="1.40255">
        <ele>134</ele>
        <time>2025-02-02T12:59:09Z</time>
      </trkpt>
      <trkpt lat="43.63883" lon="1.40254">
        <ele>134</ele>
        <time>2025-02-02T12:59:10Z</time>
      </trkpt>
      <trkpt lat="43.63886" lon="1.40253">
        <ele>134</ele>
        <time>2025-02-02T12:59:11Z</time>
      </trkpt>
      <trkpt lat="43.63889" lon="1.40252">
        <ele>134</ele>
        <time>2025-02-02T12:59:12Z</time>
      </trkpt>
      <trkpt lat="43.63892" lon="1.40251">
        <ele>134</ele>
        <time>2025-02-02T12:59:13Z</time>
      </trkpt>
      <trkpt lat="43.63895" lon="1.4025">
        <ele>134</ele>
        <time>2025-02-02T12:59:14Z</time>
      </trkpt>
      <trkpt lat="43.63897" lon="1.40249">
        <ele>134</ele>
        <time>2025-02-02T12:59:15Z</time>
      </trkpt>
      <trkpt lat="43.639" lon="1.40247">
        <ele>134</ele>
        <time>2025-02-02T12:59:16Z</time>
      </trkpt>
      <trkpt lat="43.63904" lon="1.40244">
        <ele>134</ele>
        <time>2025-02-02T12:59:17Z</time>
      </trkpt>
      <trkpt lat="43.63905" lon="1.40243">
        <ele>134</ele>
        <time>2025-02-02T12:59:18Z</time>
      </trkpt>
      <trkpt lat="43.63907" lon="1.40241">
        <ele>134</ele>
        <time>2025-02-02T12:59:19Z</time>
      </trkpt>
      <trkpt lat="43.6391" lon="1.40239">
        <ele>134</ele>
        <time>2025-02-02T12:59:20Z</time>
      </trkpt>
      <trkpt lat="43.63913" lon="1.40238">
        <ele>134</ele>
        <time>2025-02-02T12:59:21Z</time>
      </trkpt>
      <trkpt lat="43.63916" lon="1.40237">
        <ele>135</ele>
        <time>2025-02-02T12:59:22Z</time>
      </trkpt>
      <trkpt lat="43.63919" lon="1.40236">
        <ele>135</ele>
        <time>2025-02-02T12:59:23Z</time>
      </trkpt>
      <trkpt lat="43.63922" lon="1.40235">
        <ele>135</ele>
        <time>2025-02-02T12:59:24Z</time>
      </trkpt>
      <trkpt lat="43.63926" lon="1.40234">
        <ele>135</ele>
        <time>2025-02-02T12:59:25Z</time>
      </trkpt>
      <trkpt lat="43.63928" lon="1.40234">
        <ele>136</ele>
        <time>2025-02-02T12:59:26Z</time>
      </trkpt>
      <trkpt lat="43.6393" lon="1.40234">
        <ele>136</ele>
        <time>2025-02-02T12:59:27Z</time>
      </trkpt>
      <trkpt lat="43.63933" lon="1.40233">
        <ele>136</ele>
        <time>2025-02-02T12:59:28Z</time>
      </trkpt>
      <trkpt lat="43.63935" lon="1.40232">
        <ele>136</ele>
        <time>2025-02-02T12:59:29Z</time>
      </trkpt>
      <trkpt lat="43.63938" lon="1.40231">
        <ele>136</ele>
        <time>2025-02-02T12:59:30Z</time>
      </trkpt>
      <trkpt lat="43.63941" lon="1.40231">
        <ele>136</ele>
        <time>2025-02-02T12:59:31Z</time>
      </trkpt>
      <trkpt lat="43.63943" lon="1.4023">
        <ele>136</ele>
        <time>2025-02-02T12:59:32Z</time>
      </trkpt>
      <trkpt lat="43.63946" lon="1.4023">
        <ele>136</ele>
        <time>2025-02-02T12:59:33Z</time>
      </trkpt>
      <trkpt lat="43.63949" lon="1.4023">
        <ele>136</ele>
        <time>2025-02-02T12:59:34Z</time>
      </trkpt>
      <trkpt lat="43.63951" lon="1.40229">
        <ele>136</ele>
        <time>2025-02-02T12:59:35Z</time>
      </trkpt>
      <trkpt lat="43.63956" lon="1.40227">
        <ele>136</ele>
        <time>2025-02-02T12:59:36Z</time>
      </trkpt>
      <trkpt lat="43.63957" lon="1.40226">
        <ele>136</ele>
        <time>2025-02-02T12:59:37Z</time>
      </trkpt>
      <trkpt lat="43.6396" lon="1.40225">
        <ele>136</ele>
        <time>2025-02-02T12:59:38Z</time>
      </trkpt>
      <trkpt lat="43.63962" lon="1.40224">
        <ele>136</ele>
        <time>2025-02-02T12:59:39Z</time>
      </trkpt>
      <trkpt lat="43.63965" lon="1.40222">
        <ele>136</ele>
        <time>2025-02-02T12:59:40Z</time>
      </trkpt>
      <trkpt lat="43.63968" lon="1.40221">
        <ele>136</ele>
        <time>2025-02-02T12:59:41Z</time>
      </trkpt>
      <trkpt lat="43.6397" lon="1.40219">
        <ele>136</ele>
        <time>2025-02-02T12:59:42Z</time>
      </trkpt>
      <trkpt lat="43.63974" lon="1.40216">
        <ele>136</ele>
        <time>2025-02-02T12:59:43Z</time>
      </trkpt>
      <trkpt lat="43.63975" lon="1.40215">
        <ele>136</ele>
        <time>2025-02-02T12:59:44Z</time>
      </trkpt>
      <trkpt lat="43.63978" lon="1.40214">
        <ele>136</ele>
        <time>2025-02-02T12:59:45Z</time>
      </trkpt>
      <trkpt lat="43.6398" lon="1.40212">
        <ele>136</ele>
        <time>2025-02-02T12:59:46Z</time>
      </trkpt>
      <trkpt lat="43.63982" lon="1.4021">
        <ele>136</ele>
        <time>2025-02-02T12:59:47Z</time>
      </trkpt>
      <trkpt lat="43.63985" lon="1.40207">
        <ele>136</ele>
        <time>2025-02-02T12:59:48Z</time>
      </trkpt>
      <trkpt lat="43.63987" lon="1.40205">
        <ele>136</ele>
        <time>2025-02-02T12:59:49Z</time>
      </trkpt>
      <trkpt lat="43.63989" lon="1.40203">
        <ele>135</ele>
        <time>2025-02-02T12:59:50Z</time>
      </trkpt>
      <trkpt lat="43.63991" lon="1.40201">
        <ele>136</ele>
        <time>2025-02-02T12:59:51Z</time>
      </trkpt>
      <trkpt lat="43.63993" lon="1.402">
        <ele>136</ele>
        <time>2025-02-02T12:59:52Z</time>
      </trkpt>
      <trkpt lat="43.63996" lon="1.40198">
        <ele>136</ele>
        <time>2025-02-02T12:59:53Z</time>
      </trkpt>
      <trkpt lat="43.63998" lon="1.40196">
        <ele>136</ele>
        <time>2025-02-02T12:59:54Z</time>
      </trkpt>
      <trkpt lat="43.64002" lon="1.40194">
        <ele>136</ele>
        <time>2025-02-02T12:59:55Z</time>
      </trkpt>
      <trkpt lat="43.64003" lon="1.40193">
        <ele>136</ele>
        <time>2025-02-02T12:59:56Z</time>
      </trkpt>
      <trkpt lat="43.64005" lon="1.40191">
        <ele>136</ele>
        <time>2025-02-02T12:59:57Z</time>
      </trkpt>
      <trkpt lat="43.64007" lon="1.40189">
        <ele>136</ele>
        <time>2025-02-02T12:59:58Z</time>
      </trkpt>
      <trkpt lat="43.64009" lon="1.40186">
        <ele>136</ele>
        <time>2025-02-02T12:59:59Z</time>
      </trkpt>
      <trkpt lat="43.64011" lon="1.40184">
        <ele>136</ele>
        <time>2025-02-02T13:00:00Z</time>
      </trkpt>
      <trkpt lat="43.64012" lon="1.40181">
        <ele>136</ele>
        <time>2025-02-02T13:00:01Z</time>
      </trkpt>
      <trkpt lat="43.64015" lon="1.40177">
        <ele>136</ele>
        <time>2025-02-02T13:00:02Z</time>
      </trkpt>
      <trkpt lat="43.64016" lon="1.40175">
        <ele>136</ele>
        <time>2025-02-02T13:00:03Z</time>
      </trkpt>
      <trkpt lat="43.64018" lon="1.40173">
        <ele>136</ele>
        <time>2025-02-02T13:00:04Z</time>
      </trkpt>
      <trkpt lat="43.64021" lon="1.40172">
        <ele>136</ele>
        <time>2025-02-02T13:00:05Z</time>
      </trkpt>
      <trkpt lat="43.64024" lon="1.40172">
        <ele>136</ele>
        <time>2025-02-02T13:00:06Z</time>
      </trkpt>
      <trkpt lat="43.64027" lon="1.40173">
        <ele>136</ele>
        <time>2025-02-02T13:00:07Z</time>
      </trkpt>
      <trkpt lat="43.6403" lon="1.40173">
        <ele>136</ele>
        <time>2025-02-02T13:00:08Z</time>
      </trkpt>
      <trkpt lat="43.64033" lon="1.40174">
        <ele>136</ele>
        <time>2025-02-02T13:00:09Z</time>
      </trkpt>
      <trkpt lat="43.64036" lon="1.40175">
        <ele>137</ele>
        <time>2025-02-02T13:00:10Z</time>
      </trkpt>
      <trkpt lat="43.64038" lon="1.40176">
        <ele>137</ele>
        <time>2025-02-02T13:00:11Z</time>
      </trkpt>
      <trkpt lat="43.6404" lon="1.40176">
        <ele>137</ele>
        <time>2025-02-02T13:00:12Z</time>
      </trkpt>
      <trkpt lat="43.64042" lon="1.40177">
        <ele>137</ele>
        <time>2025-02-02T13:00:13Z</time>
      </trkpt>
      <trkpt lat="43.64045" lon="1.40178">
        <ele>137</ele>
        <time>2025-02-02T13:00:14Z</time>
      </trkpt>
      <trkpt lat="43.64046" lon="1.40178">
        <ele>137</ele>
        <time>2025-02-02T13:00:15Z</time>
      </trkpt>
      <trkpt lat="43.64049" lon="1.40178">
        <ele>137</ele>
        <time>2025-02-02T13:00:16Z</time>
      </trkpt>
      <trkpt lat="43.64051" lon="1.40178">
        <ele>137</ele>
        <time>2025-02-02T13:00:17Z</time>
      </trkpt>
      <trkpt lat="43.64054" lon="1.40177">
        <ele>137</ele>
        <time>2025-02-02T13:00:18Z</time>
      </trkpt>
      <trkpt lat="43.64057" lon="1.40177">
        <ele>136</ele>
        <time>2025-02-02T13:00:19Z</time>
      </trkpt>
      <trkpt lat="43.64061" lon="1.40175">
        <ele>136</ele>
        <time>2025-02-02T13:00:20Z</time>
      </trkpt>
      <trkpt lat="43.64062" lon="1.40175">
        <ele>136</ele>
        <time>2025-02-02T13:00:21Z</time>
      </trkpt>
      <trkpt lat="43.64066" lon="1.40174">
        <ele>136</ele>
        <time>2025-02-02T13:00:22Z</time>
      </trkpt>
      <trkpt lat="43.64069" lon="1.40173">
        <ele>136</ele>
        <time>2025-02-02T13:00:23Z</time>
      </trkpt>
      <trkpt lat="43.64071" lon="1.40172">
        <ele>136</ele>
        <time>2025-02-02T13:00:24Z</time>
      </trkpt>
      <trkpt lat="43.64074" lon="1.40171">
        <ele>136</ele>
        <time>2025-02-02T13:00:25Z</time>
      </trkpt>
      <trkpt lat="43.64077" lon="1.40169">
        <ele>136</ele>
        <time>2025-02-02T13:00:26Z</time>
      </trkpt>
      <trkpt lat="43.64079" lon="1.40167">
        <ele>136</ele>
        <time>2025-02-02T13:00:27Z</time>
      </trkpt>
      <trkpt lat="43.64081" lon="1.40165">
        <ele>136</ele>
        <time>2025-02-02T13:00:28Z</time>
      </trkpt>
      <trkpt lat="43.64084" lon="1.40163">
        <ele>136</ele>
        <time>2025-02-02T13:00:29Z</time>
      </trkpt>
      <trkpt lat="43.64086" lon="1.40161">
        <ele>136</ele>
        <time>2025-02-02T13:00:30Z</time>
      </trkpt>
      <trkpt lat="43.64089" lon="1.40159">
        <ele>136</ele>
        <time>2025-02-02T13:00:31Z</time>
      </trkpt>
      <trkpt lat="43.64092" lon="1.40157">
        <ele>136</ele>
        <time>2025-02-02T13:00:32Z</time>
      </trkpt>
      <trkpt lat="43.64095" lon="1.40154">
        <ele>136</ele>
        <time>2025-02-02T13:00:33Z</time>
      </trkpt>
      <trkpt lat="43.64097" lon="1.40154">
        <ele>136</ele>
        <time>2025-02-02T13:00:34Z</time>
      </trkpt>
      <trkpt lat="43.64099" lon="1.40152">
        <ele>136</ele>
        <time>2025-02-02T13:00:35Z</time>
      </trkpt>
      <trkpt lat="43.64102" lon="1.40151">
        <ele>136</ele>
        <time>2025-02-02T13:00:36Z</time>
      </trkpt>
      <trkpt lat="43.64105" lon="1.4015">
        <ele>136</ele>
        <time>2025-02-02T13:00:37Z</time>
      </trkpt>
      <trkpt lat="43.64109" lon="1.40148">
        <ele>136</ele>
        <time>2025-02-02T13:00:38Z</time>
      </trkpt>
      <trkpt lat="43.64111" lon="1.40147">
        <ele>136</ele>
        <time>2025-02-02T13:00:39Z</time>
      </trkpt>
      <trkpt lat="43.64114" lon="1.40146">
        <ele>136</ele>
        <time>2025-02-02T13:00:40Z</time>
      </trkpt>
      <trkpt lat="43.64116" lon="1.40144">
        <ele>136</ele>
        <time>2025-02-02T13:00:41Z</time>
      </trkpt>
      <trkpt lat="43.64119" lon="1.40142">
        <ele>136</ele>
        <time>2025-02-02T13:00:42Z</time>
      </trkpt>
      <trkpt lat="43.64121" lon="1.4014">
        <ele>136</ele>
        <time>2025-02-02T13:00:43Z</time>
      </trkpt>
      <trkpt lat="43.64124" lon="1.40138">
        <ele>136</ele>
        <time>2025-02-02T13:00:44Z</time>
      </trkpt>
      <trkpt lat="43.64126" lon="1.40137">
        <ele>136</ele>
        <time>2025-02-02T13:00:45Z</time>
      </trkpt>
      <trkpt lat="43.64129" lon="1.40135">
        <ele>136</ele>
        <time>2025-02-02T13:00:46Z</time>
      </trkpt>
      <trkpt lat="43.64131" lon="1.40133">
        <ele>136</ele>
        <time>2025-02-02T13:00:47Z</time>
      </trkpt>
      <trkpt lat="43.64133" lon="1.4013">
        <ele>136</ele>
        <time>2025-02-02T13:00:48Z</time>
      </trkpt>
      <trkpt lat="43.64135" lon="1.40128">
        <ele>136</ele>
        <time>2025-02-02T13:00:49Z</time>
      </trkpt>
      <trkpt lat="43.64137" lon="1.40125">
        <ele>136</ele>
        <time>2025-02-02T13:00:50Z</time>
      </trkpt>
      <trkpt lat="43.64139" lon="1.40122">
        <ele>136</ele>
        <time>2025-02-02T13:00:51Z</time>
      </trkpt>
      <trkpt lat="43.64141" lon="1.40117">
        <ele>136</ele>
        <time>2025-02-02T13:00:52Z</time>
      </trkpt>
      <trkpt lat="43.64141" lon="1.40115">
        <ele>136</ele>
        <time>2025-02-02T13:00:53Z</time>
      </trkpt>
      <trkpt lat="43.64142" lon="1.40112">
        <ele>136</ele>
        <time>2025-02-02T13:00:54Z</time>
      </trkpt>
      <trkpt lat="43.64142" lon="1.40109">
        <ele>136</ele>
        <time>2025-02-02T13:00:55Z</time>
      </trkpt>
      <trkpt lat="43.64143" lon="1.40105">
        <ele>136</ele>
        <time>2025-02-02T13:00:56Z</time>
      </trkpt>
      <trkpt lat="43.64143" lon="1.40103">
        <ele>137</ele>
        <time>2025-02-02T13:00:57Z</time>
      </trkpt>
      <trkpt lat="43.64143" lon="1.401">
        <ele>137</ele>
        <time>2025-02-02T13:00:58Z</time>
      </trkpt>
      <trkpt lat="43.64142" lon="1.40097">
        <ele>137</ele>
        <time>2025-02-02T13:00:59Z</time>
      </trkpt>
      <trkpt lat="43.64142" lon="1.40094">
        <ele>137</ele>
        <time>2025-02-02T13:01:00Z</time>
      </trkpt>
      <trkpt lat="43.64142" lon="1.4009">
        <ele>137</ele>
        <time>2025-02-02T13:01:01Z</time>
      </trkpt>
      <trkpt lat="43.64142" lon="1.40087">
        <ele>138</ele>
        <time>2025-02-02T13:01:02Z</time>
      </trkpt>
      <trkpt lat="43.64142" lon="1.40083">
        <ele>138</ele>
        <time>2025-02-02T13:01:03Z</time>
      </trkpt>
      <trkpt lat="43.64141" lon="1.40079">
        <ele>137</ele>
        <time>2025-02-02T13:01:04Z</time>
      </trkpt>
      <trkpt lat="43.64141" lon="1.40075">
        <ele>137</ele>
        <time>2025-02-02T13:01:05Z</time>
      </trkpt>
      <trkpt lat="43.64141" lon="1.40071">
        <ele>137</ele>
        <time>2025-02-02T13:01:06Z</time>
      </trkpt>
      <trkpt lat="43.64141" lon="1.40067">
        <ele>137</ele>
        <time>2025-02-02T13:01:07Z</time>
      </trkpt>
      <trkpt lat="43.64142" lon="1.40063">
        <ele>137</ele>
        <time>2025-02-02T13:01:08Z</time>
      </trkpt>
      <trkpt lat="43.64142" lon="1.40059">
        <ele>137</ele>
        <time>2025-02-02T13:01:09Z</time>
      </trkpt>
      <trkpt lat="43.64143" lon="1.40056">
        <ele>137</ele>
        <time>2025-02-02T13:01:10Z</time>
      </trkpt>
      <trkpt lat="43.64144" lon="1.4005">
        <ele>137</ele>
        <time>2025-02-02T13:01:11Z</time>
      </trkpt>
      <trkpt lat="43.64144" lon="1.40048">
        <ele>137</ele>
        <time>2025-02-02T13:01:12Z</time>
      </trkpt>
      <trkpt lat="43.64145" lon="1.40045">
        <ele>137</ele>
        <time>2025-02-02T13:01:13Z</time>
      </trkpt>
      <trkpt lat="43.64146" lon="1.40041">
        <ele>136</ele>
        <time>2025-02-02T13:01:14Z</time>
      </trkpt>
      <trkpt lat="43.64147" lon="1.40036">
        <ele>136</ele>
        <time>2025-02-02T13:01:15Z</time>
      </trkpt>
      <trkpt lat="43.64147" lon="1.40034">
        <ele>136</ele>
        <time>2025-02-02T13:01:16Z</time>
      </trkpt>
      <trkpt lat="43.64148" lon="1.40031">
        <ele>136</ele>
        <time>2025-02-02T13:01:17Z</time>
      </trkpt>
      <trkpt lat="43.64148" lon="1.40027">
        <ele>137</ele>
        <time>2025-02-02T13:01:18Z</time>
      </trkpt>
      <trkpt lat="43.64149" lon="1.40024">
        <ele>137</ele>
        <time>2025-02-02T13:01:19Z</time>
      </trkpt>
      <trkpt lat="43.6415" lon="1.4002">
        <ele>137</ele>
        <time>2025-02-02T13:01:20Z</time>
      </trkpt>
      <trkpt lat="43.6415" lon="1.40016">
        <ele>137</ele>
        <time>2025-02-02T13:01:21Z</time>
      </trkpt>
      <trkpt lat="43.64151" lon="1.40013">
        <ele>137</ele>
        <time>2025-02-02T13:01:22Z</time>
      </trkpt>
      <trkpt lat="43.64151" lon="1.40009">
        <ele>137</ele>
        <time>2025-02-02T13:01:23Z</time>
      </trkpt>
      <trkpt lat="43.64151" lon="1.40005">
        <ele>137</ele>
        <time>2025-02-02T13:01:24Z</time>
      </trkpt>
      <trkpt lat="43.64151" lon="1.40002">
        <ele>137</ele>
        <time>2025-02-02T13:01:25Z</time>
      </trkpt>
      <trkpt lat="43.64152" lon="1.39998">
        <ele>137</ele>
        <time>2025-02-02T13:01:26Z</time>
      </trkpt>
      <trkpt lat="43.64152" lon="1.39994">
        <ele>138</ele>
        <time>2025-02-02T13:01:27Z</time>
      </trkpt>
      <trkpt lat="43.64152" lon="1.39991">
        <ele>138</ele>
        <time>2025-02-02T13:01:28Z</time>
      </trkpt>
      <trkpt lat="43.64153" lon="1.39988">
        <ele>138</ele>
        <time>2025-02-02T13:01:29Z</time>
      </trkpt>
      <trkpt lat="43.64155" lon="1.39984">
        <ele>138</ele>
        <time>2025-02-02T13:01:30Z</time>
      </trkpt>
      <trkpt lat="43.64156" lon="1.39983">
        <ele>139</ele>
        <time>2025-02-02T13:01:31Z</time>
      </trkpt>
      <trkpt lat="43.64158" lon="1.39981">
        <ele>139</ele>
        <time>2025-02-02T13:01:32Z</time>
      </trkpt>
      <trkpt lat="43.6416" lon="1.39979">
        <ele>139</ele>
        <time>2025-02-02T13:01:33Z</time>
      </trkpt>
      <trkpt lat="43.64165" lon="1.39977">
        <ele>139</ele>
        <time>2025-02-02T13:01:34Z</time>
      </trkpt>
      <trkpt lat="43.64166" lon="1.39976">
        <ele>139</ele>
        <time>2025-02-02T13:01:35Z</time>
      </trkpt>
      <trkpt lat="43.64169" lon="1.39975">
        <ele>139</ele>
        <time>2025-02-02T13:01:36Z</time>
      </trkpt>
      <trkpt lat="43.64171" lon="1.39974">
        <ele>139</ele>
        <time>2025-02-02T13:01:37Z</time>
      </trkpt>
      <trkpt lat="43.64174" lon="1.39973">
        <ele>138</ele>
        <time>2025-02-02T13:01:38Z</time>
      </trkpt>
      <trkpt lat="43.64177" lon="1.39972">
        <ele>138</ele>
        <time>2025-02-02T13:01:39Z</time>
      </trkpt>
      <trkpt lat="43.64179" lon="1.39971">
        <ele>138</ele>
        <time>2025-02-02T13:01:40Z</time>
      </trkpt>
      <trkpt lat="43.64181" lon="1.3997">
        <ele>138</ele>
        <time>2025-02-02T13:01:41Z</time>
      </trkpt>
      <trkpt lat="43.64184" lon="1.39969">
        <ele>138</ele>
        <time>2025-02-02T13:01:42Z</time>
      </trkpt>
      <trkpt lat="43.64187" lon="1.39968">
        <ele>139</ele>
        <time>2025-02-02T13:01:43Z</time>
      </trkpt>
      <trkpt lat="43.64189" lon="1.39966">
        <ele>139</ele>
        <time>2025-02-02T13:01:44Z</time>
      </trkpt>
      <trkpt lat="43.64193" lon="1.39964">
        <ele>139</ele>
        <time>2025-02-02T13:01:45Z</time>
      </trkpt>
      <trkpt lat="43.64194" lon="1.39963">
        <ele>139</ele>
        <time>2025-02-02T13:01:46Z</time>
      </trkpt>
      <trkpt lat="43.64196" lon="1.39961">
        <ele>139</ele>
        <time>2025-02-02T13:01:47Z</time>
      </trkpt>
      <trkpt lat="43.64199" lon="1.39959">
        <ele>139</ele>
        <time>2025-02-02T13:01:48Z</time>
      </trkpt>
      <trkpt lat="43.64202" lon="1.39956">
        <ele>139</ele>
        <time>2025-02-02T13:01:49Z</time>
      </trkpt>
      <trkpt lat="43.64203" lon="1.39955">
        <ele>139</ele>
        <time>2025-02-02T13:01:50Z</time>
      </trkpt>
      <trkpt lat="43.64205" lon="1.39952">
        <ele>139</ele>
        <time>2025-02-02T13:01:51Z</time>
      </trkpt>
      <trkpt lat="43.64209" lon="1.39949">
        <ele>139</ele>
        <time>2025-02-02T13:01:52Z</time>
      </trkpt>
      <trkpt lat="43.6421" lon="1.39948">
        <ele>139</ele>
        <time>2025-02-02T13:01:53Z</time>
      </trkpt>
      <trkpt lat="43.64212" lon="1.39945">
        <ele>139</ele>
        <time>2025-02-02T13:01:54Z</time>
      </trkpt>
      <trkpt lat="43.64214" lon="1.39943">
        <ele>139</ele>
        <time>2025-02-02T13:01:55Z</time>
      </trkpt>
      <trkpt lat="43.64216" lon="1.39941">
        <ele>139</ele>
        <time>2025-02-02T13:01:56Z</time>
      </trkpt>
      <trkpt lat="43.64218" lon="1.39939">
        <ele>139</ele>
        <time>2025-02-02T13:01:57Z</time>
      </trkpt>
      <trkpt lat="43.6422" lon="1.39937">
        <ele>139</ele>
        <time>2025-02-02T13:01:58Z</time>
      </trkpt>
      <trkpt lat="43.64222" lon="1.39935">
        <ele>139</ele>
        <time>2025-02-02T13:01:59Z</time>
      </trkpt>
      <trkpt lat="43.64225" lon="1.39933">
        <ele>139</ele>
        <time>2025-02-02T13:02:00Z</time>
      </trkpt>
      <trkpt lat="43.64227" lon="1.39931">
        <ele>139</ele>
        <time>2025-02-02T13:02:01Z</time>
      </trkpt>
      <trkpt lat="43.6423" lon="1.3993">
        <ele>138</ele>
        <time>2025-02-02T13:02:02Z</time>
      </trkpt>
      <trkpt lat="43.64231" lon="1.39928">
        <ele>138</ele>
        <time>2025-02-02T13:02:03Z</time>
      </trkpt>
      <trkpt lat="43.64234" lon="1.39927">
        <ele>138</ele>
        <time>2025-02-02T13:02:04Z</time>
      </trkpt>
      <trkpt lat="43.64237" lon="1.39925">
        <ele>138</ele>
        <time>2025-02-02T13:02:05Z</time>
      </trkpt>
      <trkpt lat="43.64239" lon="1.39924">
        <ele>138</ele>
        <time>2025-02-02T13:02:06Z</time>
      </trkpt>
      <trkpt lat="43.64242" lon="1.39923">
        <ele>139</ele>
        <time>2025-02-02T13:02:07Z</time>
      </trkpt>
      <trkpt lat="43.64245" lon="1.39922">
        <ele>139</ele>
        <time>2025-02-02T13:02:08Z</time>
      </trkpt>
      <trkpt lat="43.64245" lon="1.39922">
        <ele>139</ele>
        <time>2025-02-02T13:02:09Z</time>
      </trkpt>
      <trkpt lat="43.64252" lon="1.39921">
        <ele>139</ele>
        <time>2025-02-02T13:02:10Z</time>
      </trkpt>
      <trkpt lat="43.64253" lon="1.39921">
        <ele>140</ele>
        <time>2025-02-02T13:02:11Z</time>
      </trkpt>
      <trkpt lat="43.64256" lon="1.39921">
        <ele>140</ele>
        <time>2025-02-02T13:02:12Z</time>
      </trkpt>
      <trkpt lat="43.64258" lon="1.3992">
        <ele>140</ele>
        <time>2025-02-02T13:02:13Z</time>
      </trkpt>
      <trkpt lat="43.64261" lon="1.3992">
        <ele>139</ele>
        <time>2025-02-02T13:02:14Z</time>
      </trkpt>
      <trkpt lat="43.64264" lon="1.3992">
        <ele>139</ele>
        <time>2025-02-02T13:02:15Z</time>
      </trkpt>
      <trkpt lat="43.64266" lon="1.3992">
        <ele>139</ele>
        <time>2025-02-02T13:02:16Z</time>
      </trkpt>
      <trkpt lat="43.64268" lon="1.3992">
        <ele>139</ele>
        <time>2025-02-02T13:02:17Z</time>
      </trkpt>
      <trkpt lat="43.64271" lon="1.3992">
        <ele>139</ele>
        <time>2025-02-02T13:02:18Z</time>
      </trkpt>
      <trkpt lat="43.64273" lon="1.3992">
        <ele>139</ele>
        <time>2025-02-02T13:02:19Z</time>
      </trkpt>
      <trkpt lat="43.64276" lon="1.39921">
        <ele>140</ele>
        <time>2025-02-02T13:02:20Z</time>
      </trkpt>
      <trkpt lat="43.64278" lon="1.39921">
        <ele>140</ele>
        <time>2025-02-02T13:02:21Z</time>
      </trkpt>
      <trkpt lat="43.64281" lon="1.39922">
        <ele>140</ele>
        <time>2025-02-02T13:02:22Z</time>
      </trkpt>
      <trkpt lat="43.64283" lon="1.39924">
        <ele>140</ele>
        <time>2025-02-02T13:02:23Z</time>
      </trkpt>
      <trkpt lat="43.64286" lon="1.39925">
        <ele>140</ele>
        <time>2025-02-02T13:02:24Z</time>
      </trkpt>
      <trkpt lat="43.64289" lon="1.39926">
        <ele>140</ele>
        <time>2025-02-02T13:02:25Z</time>
      </trkpt>
      <trkpt lat="43.64292" lon="1.39927">
        <ele>139</ele>
        <time>2025-02-02T13:02:26Z</time>
      </trkpt>
      <trkpt lat="43.64296" lon="1.39928">
        <ele>139</ele>
        <time>2025-02-02T13:02:27Z</time>
      </trkpt>
      <trkpt lat="43.64298" lon="1.39929">
        <ele>139</ele>
        <time>2025-02-02T13:02:28Z</time>
      </trkpt>
      <trkpt lat="43.64302" lon="1.39932">
        <ele>139</ele>
        <time>2025-02-02T13:02:29Z</time>
      </trkpt>
      <trkpt lat="43.64303" lon="1.39932">
        <ele>139</ele>
        <time>2025-02-02T13:02:30Z</time>
      </trkpt>
      <trkpt lat="43.64306" lon="1.39933">
        <ele>139</ele>
        <time>2025-02-02T13:02:31Z</time>
      </trkpt>
      <trkpt lat="43.64309" lon="1.39933">
        <ele>139</ele>
        <time>2025-02-02T13:02:32Z</time>
      </trkpt>
      <trkpt lat="43.64311" lon="1.39934">
        <ele>139</ele>
        <time>2025-02-02T13:02:33Z</time>
      </trkpt>
      <trkpt lat="43.64314" lon="1.39935">
        <ele>139</ele>
        <time>2025-02-02T13:02:34Z</time>
      </trkpt>
      <trkpt lat="43.64316" lon="1.39936">
        <ele>139</ele>
        <time>2025-02-02T13:02:35Z</time>
      </trkpt>
      <trkpt lat="43.64319" lon="1.39937">
        <ele>139</ele>
        <time>2025-02-02T13:02:36Z</time>
      </trkpt>
      <trkpt lat="43.64322" lon="1.39938">
        <ele>139</ele>
        <time>2025-02-02T13:02:37Z</time>
      </trkpt>
      <trkpt lat="43.64325" lon="1.39939">
        <ele>139</ele>
        <time>2025-02-02T13:02:38Z</time>
      </trkpt>
      <trkpt lat="43.64328" lon="1.3994">
        <ele>139</ele>
        <time>2025-02-02T13:02:39Z</time>
      </trkpt>
      <trkpt lat="43.64331" lon="1.3994">
        <ele>139</ele>
        <time>2025-02-02T13:02:40Z</time>
      </trkpt>
      <trkpt lat="43.64333" lon="1.39941">
        <ele>139</ele>
        <time>2025-02-02T13:02:41Z</time>
      </trkpt>
      <trkpt lat="43.64336" lon="1.39943">
        <ele>139</ele>
        <time>2025-02-02T13:02:42Z</time>
      </trkpt>
      <trkpt lat="43.64338" lon="1.39943">
        <ele>139</ele>
        <time>2025-02-02T13:02:43Z</time>
      </trkpt>
      <trkpt lat="43.64341" lon="1.39944">
        <ele>138</ele>
        <time>2025-02-02T13:02:44Z</time>
      </trkpt>
      <trkpt lat="43.64343" lon="1.39945">
        <ele>138</ele>
        <time>2025-02-02T13:02:45Z</time>
      </trkpt>
      <trkpt lat="43.64346" lon="1.39946">
        <ele>138</ele>
        <time>2025-02-02T13:02:46Z</time>
      </trkpt>
      <trkpt lat="43.64349" lon="1.39946">
        <ele>138</ele>
        <time>2025-02-02T13:02:47Z</time>
      </trkpt>
      <trkpt lat="43.64352" lon="1.39947">
        <ele>138</ele>
        <time>2025-02-02T13:02:48Z</time>
      </trkpt>
      <trkpt lat="43.64354" lon="1.39948">
        <ele>139</ele>
        <time>2025-02-02T13:02:49Z</time>
      </trkpt>
      <trkpt lat="43.64356" lon="1.39949">
        <ele>139</ele>
        <time>2025-02-02T13:02:50Z</time>
      </trkpt>
      <trkpt lat="43.64358" lon="1.39949">
        <ele>139</ele>
        <time>2025-02-02T13:02:51Z</time>
      </trkpt>
      <trkpt lat="43.6436" lon="1.39949">
        <ele>139</ele>
        <time>2025-02-02T13:02:52Z</time>
      </trkpt>
      <trkpt lat="43.64363" lon="1.39949">
        <ele>139</ele>
        <time>2025-02-02T13:02:53Z</time>
      </trkpt>
      <trkpt lat="43.64365" lon="1.39948">
        <ele>139</ele>
        <time>2025-02-02T13:02:54Z</time>
      </trkpt>
      <trkpt lat="43.64368" lon="1.39949">
        <ele>138</ele>
        <time>2025-02-02T13:02:55Z</time>
      </trkpt>
      <trkpt lat="43.64371" lon="1.39949">
        <ele>138</ele>
        <time>2025-02-02T13:02:56Z</time>
      </trkpt>
      <trkpt lat="43.64374" lon="1.3995">
        <ele>139</ele>
        <time>2025-02-02T13:02:57Z</time>
      </trkpt>
      <trkpt lat="43.64377" lon="1.39951">
        <ele>139</ele>
        <time>2025-02-02T13:02:58Z</time>
      </trkpt>
      <trkpt lat="43.6438" lon="1.39951">
        <ele>138</ele>
        <time>2025-02-02T13:02:59Z</time>
      </trkpt>
      <trkpt lat="43.64383" lon="1.39952">
        <ele>138</ele>
        <time>2025-02-02T13:03:00Z</time>
      </trkpt>
      <trkpt lat="43.64385" lon="1.39952">
        <ele>138</ele>
        <time>2025-02-02T13:03:01Z</time>
      </trkpt>
      <trkpt lat="43.64388" lon="1.39953">
        <ele>138</ele>
        <time>2025-02-02T13:03:02Z</time>
      </trkpt>
      <trkpt lat="43.64391" lon="1.39953">
        <ele>138</ele>
        <time>2025-02-02T13:03:03Z</time>
      </trkpt>
      <trkpt lat="43.64394" lon="1.39953">
        <ele>138</ele>
        <time>2025-02-02T13:03:04Z</time>
      </trkpt>
      <trkpt lat="43.64397" lon="1.39953">
        <ele>138</ele>
        <time>2025-02-02T13:03:05Z</time>
      </trkpt>
      <trkpt lat="43.64399" lon="1.39953">
        <ele>138</ele>
        <time>2025-02-02T13:03:06Z</time>
      </trkpt>
      <trkpt lat="43.64402" lon="1.39954">
        <ele>138</ele>
        <time>2025-02-02T13:03:07Z</time>
      </trkpt>
      <trkpt lat="43.64405" lon="1.39954">
        <ele>138</ele>
        <time>2025-02-02T13:03:08Z</time>
      </trkpt>
      <trkpt lat="43.64408" lon="1.39954">
        <ele>138</ele>
        <time>2025-02-02T13:03:09Z</time>
      </trkpt>
      <trkpt lat="43.6441" lon="1.39954">
        <ele>138</ele>
        <time>2025-02-02T13:03:10Z</time>
      </trkpt>
      <trkpt lat="43.64413" lon="1.39954">
        <ele>138</ele>
        <time>2025-02-02T13:03:11Z</time>
      </trkpt>
      <trkpt lat="43.64416" lon="1.39954">
        <ele>138</ele>
        <time>2025-02-02T13:03:12Z</time>
      </trkpt>
      <trkpt lat="43.64419" lon="1.39954">
        <ele>138</ele>
        <time>2025-02-02T13:03:13Z</time>
      </trkpt>
      <trkpt lat="43.64422" lon="1.39955">
        <ele>138</ele>
        <time>2025-02-02T13:03:14Z</time>
      </trkpt>
      <trkpt lat="43.64425" lon="1.39955">
        <ele>138</ele>
        <time>2025-02-02T13:03:15Z</time>
      </trkpt>
      <trkpt lat="43.64427" lon="1.39956">
        <ele>138</ele>
        <time>2025-02-02T13:03:16Z</time>
      </trkpt>
      <trkpt lat="43.6443" lon="1.39956">
        <ele>138</ele>
        <time>2025-02-02T13:03:17Z</time>
      </trkpt>
      <trkpt lat="43.64433" lon="1.39956">
        <ele>138</ele>
        <time>2025-02-02T13:03:18Z</time>
      </trkpt>
      <trkpt lat="43.64436" lon="1.39957">
        <ele>138</ele>
        <time>2025-02-02T13:03:19Z</time>
      </trkpt>
      <trkpt lat="43.64439" lon="1.39957">
        <ele>138</ele>
        <time>2025-02-02T13:03:20Z</time>
      </trkpt>
      <trkpt lat="43.64441" lon="1.39957">
        <ele>138</ele>
        <time>2025-02-02T13:03:21Z</time>
      </trkpt>
      <trkpt lat="43.64444" lon="1.39957">
        <ele>138</ele>
        <time>2025-02-02T13:03:22Z</time>
      </trkpt>
      <trkpt lat="43.64447" lon="1.39958">
        <ele>138</ele>
        <time>2025-02-02T13:03:23Z</time>
      </trkpt>
      <trkpt lat="43.64451" lon="1.39958">
        <ele>138</ele>
        <time>2025-02-02T13:03:24Z</time>
      </trkpt>
      <trkpt lat="43.64452" lon="1.39958">
        <ele>138</ele>
        <time>2025-02-02T13:03:25Z</time>
      </trkpt>
      <trkpt lat="43.64455" lon="1.39958">
        <ele>138</ele>
        <time>2025-02-02T13:03:26Z</time>
      </trkpt>
      <trkpt lat="43.64458" lon="1.39958">
        <ele>138</ele>
        <time>2025-02-02T13:03:27Z</time>
      </trkpt>
      <trkpt lat="43.64461" lon="1.39958">
        <ele>138</ele>
        <time>2025-02-02T13:03:28Z</time>
      </trkpt>
      <trkpt lat="43.64463" lon="1.39958">
        <ele>138</ele>
        <time>2025-02-02T13:03:29Z</time>
      </trkpt>
      <trkpt lat="43.64466" lon="1.39957">
        <ele>138</ele>
        <time>2025-02-02T13:03:30Z</time>
      </trkpt>
      <trkpt lat="43.64469" lon="1.39957">
        <ele>139</ele>
        <time>2025-02-02T13:03:31Z</time>
      </trkpt>
      <trkpt lat="43.64471" lon="1.39956">
        <ele>139</ele>
        <time>2025-02-02T13:03:32Z</time>
      </trkpt>
      <trkpt lat="43.64474" lon="1.39955">
        <ele>139</ele>
        <time>2025-02-02T13:03:33Z</time>
      </trkpt>
      <trkpt lat="43.64477" lon="1.39954">
        <ele>139</ele>
        <time>2025-02-02T13:03:34Z</time>
      </trkpt>
      <trkpt lat="43.6448" lon="1.39953">
        <ele>140</ele>
        <time>2025-02-02T13:03:35Z</time>
      </trkpt>
      <trkpt lat="43.64482" lon="1.39953">
        <ele>140</ele>
        <time>2025-02-02T13:03:36Z</time>
      </trkpt>
      <trkpt lat="43.64485" lon="1.39952">
        <ele>140</ele>
        <time>2025-02-02T13:03:37Z</time>
      </trkpt>
      <trkpt lat="43.64487" lon="1.39951">
        <ele>140</ele>
        <time>2025-02-02T13:03:38Z</time>
      </trkpt>
      <trkpt lat="43.6449" lon="1.3995">
        <ele>140</ele>
        <time>2025-02-02T13:03:39Z</time>
      </trkpt>
      <trkpt lat="43.64493" lon="1.3995">
        <ele>140</ele>
        <time>2025-02-02T13:03:40Z</time>
      </trkpt>
      <trkpt lat="43.64496" lon="1.39949">
        <ele>140</ele>
        <time>2025-02-02T13:03:41Z</time>
      </trkpt>
      <trkpt lat="43.64498" lon="1.39947">
        <ele>140</ele>
        <time>2025-02-02T13:03:42Z</time>
      </trkpt>
      <trkpt lat="43.64501" lon="1.39946">
        <ele>140</ele>
        <time>2025-02-02T13:03:43Z</time>
      </trkpt>
      <trkpt lat="43.64503" lon="1.39943">
        <ele>140</ele>
        <time>2025-02-02T13:03:44Z</time>
      </trkpt>
      <trkpt lat="43.64505" lon="1.39941">
        <ele>140</ele>
        <time>2025-02-02T13:03:45Z</time>
      </trkpt>
      <trkpt lat="43.64506" lon="1.39938">
        <ele>140</ele>
        <time>2025-02-02T13:03:46Z</time>
      </trkpt>
      <trkpt lat="43.64506" lon="1.39934">
        <ele>140</ele>
        <time>2025-02-02T13:03:47Z</time>
      </trkpt>
      <trkpt lat="43.64506" lon="1.39931">
        <ele>140</ele>
        <time>2025-02-02T13:03:48Z</time>
      </trkpt>
      <trkpt lat="43.64505" lon="1.39928">
        <ele>140</ele>
        <time>2025-02-02T13:03:49Z</time>
      </trkpt>
      <trkpt lat="43.64504" lon="1.39926">
        <ele>140</ele>
        <time>2025-02-02T13:03:50Z</time>
      </trkpt>
      <trkpt lat="43.64502" lon="1.39924">
        <ele>140</ele>
        <time>2025-02-02T13:03:51Z</time>
      </trkpt>
      <trkpt lat="43.645" lon="1.39921">
        <ele>140</ele>
        <time>2025-02-02T13:03:52Z</time>
      </trkpt>
      <trkpt lat="43.64498" lon="1.39918">
        <ele>140</ele>
        <time>2025-02-02T13:03:53Z</time>
      </trkpt>
      <trkpt lat="43.64497" lon="1.39914">
        <ele>140</ele>
        <time>2025-02-02T13:03:54Z</time>
      </trkpt>
      <trkpt lat="43.64497" lon="1.3991">
        <ele>140</ele>
        <time>2025-02-02T13:03:55Z</time>
      </trkpt>
      <trkpt lat="43.64497" lon="1.39906">
        <ele>140</ele>
        <time>2025-02-02T13:03:56Z</time>
      </trkpt>
      <trkpt lat="43.64497" lon="1.39903">
        <ele>140</ele>
        <time>2025-02-02T13:03:57Z</time>
      </trkpt>
      <trkpt lat="43.64497" lon="1.39899">
        <ele>141</ele>
        <time>2025-02-02T13:03:58Z</time>
      </trkpt>
      <trkpt lat="43.64497" lon="1.39895">
        <ele>141</ele>
        <time>2025-02-02T13:03:59Z</time>
      </trkpt>
      <trkpt lat="43.64497" lon="1.39891">
        <ele>141</ele>
        <time>2025-02-02T13:04:00Z</time>
      </trkpt>
      <trkpt lat="43.64498" lon="1.39888">
        <ele>141</ele>
        <time>2025-02-02T13:04:01Z</time>
      </trkpt>
      <trkpt lat="43.64498" lon="1.39884">
        <ele>142</ele>
        <time>2025-02-02T13:04:02Z</time>
      </trkpt>
      <trkpt lat="43.64498" lon="1.3988">
        <ele>142</ele>
        <time>2025-02-02T13:04:03Z</time>
      </trkpt>
      <trkpt lat="43.64498" lon="1.39877">
        <ele>142</ele>
        <time>2025-02-02T13:04:04Z</time>
      </trkpt>
      <trkpt lat="43.64498" lon="1.39873">
        <ele>141</ele>
        <time>2025-02-02T13:04:05Z</time>
      </trkpt>
      <trkpt lat="43.64498" lon="1.3987">
        <ele>141</ele>
        <time>2025-02-02T13:04:06Z</time>
      </trkpt>
      <trkpt lat="43.64498" lon="1.39866">
        <ele>141</ele>
        <time>2025-02-02T13:04:07Z</time>
      </trkpt>
      <trkpt lat="43.64498" lon="1.39862">
        <ele>141</ele>
        <time>2025-02-02T13:04:08Z</time>
      </trkpt>
      <trkpt lat="43.64498" lon="1.39858">
        <ele>141</ele>
        <time>2025-02-02T13:04:09Z</time>
      </trkpt>
      <trkpt lat="43.64498" lon="1.39855">
        <ele>141</ele>
        <time>2025-02-02T13:04:10Z</time>
      </trkpt>
      <trkpt lat="43.64498" lon="1.39851">
        <ele>141</ele>
        <time>2025-02-02T13:04:11Z</time>
      </trkpt>
      <trkpt lat="43.64498" lon="1.39847">
        <ele>141</ele>
        <time>2025-02-02T13:04:12Z</time>
      </trkpt>
      <trkpt lat="43.64498" lon="1.39844">
        <ele>141</ele>
        <time>2025-02-02T13:04:13Z</time>
      </trkpt>
      <trkpt lat="43.64498" lon="1.3984">
        <ele>141</ele>
        <time>2025-02-02T13:04:14Z</time>
      </trkpt>
      <trkpt lat="43.64498" lon="1.39836">
        <ele>141</ele>
        <time>2025-02-02T13:04:15Z</time>
      </trkpt>
      <trkpt lat="43.64498" lon="1.39833">
        <ele>140</ele>
        <time>2025-02-02T13:04:16Z</time>
      </trkpt>
      <trkpt lat="43.64498" lon="1.39829">
        <ele>140</ele>
        <time>2025-02-02T13:04:17Z</time>
      </trkpt>
      <trkpt lat="43.64498" lon="1.39825">
        <ele>140</ele>
        <time>2025-02-02T13:04:18Z</time>
      </trkpt>
      <trkpt lat="43.64498" lon="1.3982">
        <ele>140</ele>
        <time>2025-02-02T13:04:19Z</time>
      </trkpt>
      <trkpt lat="43.64498" lon="1.39818">
        <ele>140</ele>
        <time>2025-02-02T13:04:20Z</time>
      </trkpt>
      <trkpt lat="43.64498" lon="1.39812">
        <ele>140</ele>
        <time>2025-02-02T13:04:21Z</time>
      </trkpt>
      <trkpt lat="43.64498" lon="1.39811">
        <ele>140</ele>
        <time>2025-02-02T13:04:22Z</time>
      </trkpt>
      <trkpt lat="43.64498" lon="1.39807">
        <ele>140</ele>
        <time>2025-02-02T13:04:23Z</time>
      </trkpt>
      <trkpt lat="43.64498" lon="1.39803">
        <ele>140</ele>
        <time>2025-02-02T13:04:24Z</time>
      </trkpt>
      <trkpt lat="43.64498" lon="1.398">
        <ele>140</ele>
        <time>2025-02-02T13:04:25Z</time>
      </trkpt>
      <trkpt lat="43.64498" lon="1.39796">
        <ele>140</ele>
        <time>2025-02-02T13:04:26Z</time>
      </trkpt>
      <trkpt lat="43.64498" lon="1.39792">
        <ele>140</ele>
        <time>2025-02-02T13:04:27Z</time>
      </trkpt>
      <trkpt lat="43.64498" lon="1.39788">
        <ele>141</ele>
        <time>2025-02-02T13:04:28Z</time>
      </trkpt>
      <trkpt lat="43.64498" lon="1.39785">
        <ele>141</ele>
        <time>2025-02-02T13:04:29Z</time>
      </trkpt>
      <trkpt lat="43.64499" lon="1.39781">
        <ele>141</ele>
        <time>2025-02-02T13:04:30Z</time>
      </trkpt>
      <trkpt lat="43.64499" lon="1.39777">
        <ele>141</ele>
        <time>2025-02-02T13:04:31Z</time>
      </trkpt>
      <trkpt lat="43.64499" lon="1.39773">
        <ele>141</ele>
        <time>2025-02-02T13:04:32Z</time>
      </trkpt>
      <trkpt lat="43.64499" lon="1.39769">
        <ele>141</ele>
        <time>2025-02-02T13:04:33Z</time>
      </trkpt>
      <trkpt lat="43.64499" lon="1.39765">
        <ele>141</ele>
        <time>2025-02-02T13:04:34Z</time>
      </trkpt>
      <trkpt lat="43.64499" lon="1.39762">
        <ele>141</ele>
        <time>2025-02-02T13:04:35Z</time>
      </trkpt>
      <trkpt lat="43.64499" lon="1.39758">
        <ele>140</ele>
        <time>2025-02-02T13:04:36Z</time>
      </trkpt>
      <trkpt lat="43.64499" lon="1.39754">
        <ele>140</ele>
        <time>2025-02-02T13:04:37Z</time>
      </trkpt>
      <trkpt lat="43.645" lon="1.39748">
        <ele>140</ele>
        <time>2025-02-02T13:04:38Z</time>
      </trkpt>
      <trkpt lat="43.645" lon="1.39747">
        <ele>140</ele>
        <time>2025-02-02T13:04:39Z</time>
      </trkpt>
      <trkpt lat="43.645" lon="1.39741">
        <ele>140</ele>
        <time>2025-02-02T13:04:40Z</time>
      </trkpt>
      <trkpt lat="43.645" lon="1.39739">
        <ele>140</ele>
        <time>2025-02-02T13:04:41Z</time>
      </trkpt>
      <trkpt lat="43.645" lon="1.39736">
        <ele>140</ele>
        <time>2025-02-02T13:04:42Z</time>
      </trkpt>
      <trkpt lat="43.645" lon="1.39732">
        <ele>140</ele>
        <time>2025-02-02T13:04:43Z</time>
      </trkpt>
      <trkpt lat="43.645" lon="1.39728">
        <ele>140</ele>
        <time>2025-02-02T13:04:44Z</time>
      </trkpt>
      <trkpt lat="43.645" lon="1.39724">
        <ele>140</ele>
        <time>2025-02-02T13:04:45Z</time>
      </trkpt>
      <trkpt lat="43.645" lon="1.39721">
        <ele>140</ele>
        <time>2025-02-02T13:04:46Z</time>
      </trkpt>
      <trkpt lat="43.645" lon="1.39718">
        <ele>140</ele>
        <time>2025-02-02T13:04:47Z</time>
      </trkpt>
      <trkpt lat="43.64501" lon="1.39714">
        <ele>140</ele>
        <time>2025-02-02T13:04:48Z</time>
      </trkpt>
      <trkpt lat="43.64501" lon="1.3971">
        <ele>140</ele>
        <time>2025-02-02T13:04:49Z</time>
      </trkpt>
      <trkpt lat="43.64501" lon="1.39706">
        <ele>140</ele>
        <time>2025-02-02T13:04:50Z</time>
      </trkpt>
      <trkpt lat="43.64501" lon="1.39703">
        <ele>140</ele>
        <time>2025-02-02T13:04:51Z</time>
      </trkpt>
      <trkpt lat="43.64501" lon="1.39699">
        <ele>140</ele>
        <time>2025-02-02T13:04:52Z</time>
      </trkpt>
      <trkpt lat="43.64501" lon="1.39696">
        <ele>140</ele>
        <time>2025-02-02T13:04:53Z</time>
      </trkpt>
      <trkpt lat="43.64501" lon="1.39692">
        <ele>140</ele>
        <time>2025-02-02T13:04:54Z</time>
      </trkpt>
      <trkpt lat="43.64501" lon="1.39689">
        <ele>140</ele>
        <time>2025-02-02T13:04:55Z</time>
      </trkpt>
      <trkpt lat="43.64501" lon="1.39685">
        <ele>140</ele>
        <time>2025-02-02T13:04:56Z</time>
      </trkpt>
      <trkpt lat="43.64501" lon="1.3968">
        <ele>140</ele>
        <time>2025-02-02T13:04:57Z</time>
      </trkpt>
      <trkpt lat="43.64501" lon="1.39678">
        <ele>141</ele>
        <time>2025-02-02T13:04:58Z</time>
      </trkpt>
      <trkpt lat="43.64501" lon="1.39672">
        <ele>141</ele>
        <time>2025-02-02T13:04:59Z</time>
      </trkpt>
      <trkpt lat="43.64501" lon="1.39671">
        <ele>140</ele>
        <time>2025-02-02T13:05:00Z</time>
      </trkpt>
      <trkpt lat="43.64502" lon="1.39667">
        <ele>140</ele>
        <time>2025-02-02T13:05:01Z</time>
      </trkpt>
      <trkpt lat="43.64502" lon="1.39664">
        <ele>140</ele>
        <time>2025-02-02T13:05:02Z</time>
      </trkpt>
      <trkpt lat="43.64502" lon="1.3966">
        <ele>141</ele>
        <time>2025-02-02T13:05:03Z</time>
      </trkpt>
      <trkpt lat="43.64502" lon="1.39656">
        <ele>141</ele>
        <time>2025-02-02T13:05:04Z</time>
      </trkpt>
      <trkpt lat="43.64503" lon="1.39653">
        <ele>141</ele>
        <time>2025-02-02T13:05:05Z</time>
      </trkpt>
      <trkpt lat="43.64503" lon="1.39649">
        <ele>141</ele>
        <time>2025-02-02T13:05:06Z</time>
      </trkpt>
      <trkpt lat="43.64503" lon="1.39646">
        <ele>141</ele>
        <time>2025-02-02T13:05:07Z</time>
      </trkpt>
      <trkpt lat="43.64503" lon="1.39642">
        <ele>141</ele>
        <time>2025-02-02T13:05:08Z</time>
      </trkpt>
      <trkpt lat="43.64503" lon="1.39638">
        <ele>141</ele>
        <time>2025-02-02T13:05:09Z</time>
      </trkpt>
      <trkpt lat="43.64503" lon="1.39635">
        <ele>141</ele>
        <time>2025-02-02T13:05:10Z</time>
      </trkpt>
      <trkpt lat="43.64503" lon="1.39631">
        <ele>141</ele>
        <time>2025-02-02T13:05:11Z</time>
      </trkpt>
      <trkpt lat="43.64502" lon="1.39627">
        <ele>141</ele>
        <time>2025-02-02T13:05:12Z</time>
      </trkpt>
      <trkpt lat="43.64502" lon="1.39623">
        <ele>140</ele>
        <time>2025-02-02T13:05:13Z</time>
      </trkpt>
      <trkpt lat="43.64502" lon="1.39619">
        <ele>140</ele>
        <time>2025-02-02T13:05:14Z</time>
      </trkpt>
      <trkpt lat="43.64502" lon="1.39615">
        <ele>140</ele>
        <time>2025-02-02T13:05:15Z</time>
      </trkpt>
      <trkpt lat="43.64502" lon="1.3961">
        <ele>140</ele>
        <time>2025-02-02T13:05:16Z</time>
      </trkpt>
      <trkpt lat="43.64502" lon="1.39608">
        <ele>140</ele>
        <time>2025-02-02T13:05:17Z</time>
      </trkpt>
      <trkpt lat="43.64502" lon="1.39603">
        <ele>140</ele>
        <time>2025-02-02T13:05:18Z</time>
      </trkpt>
      <trkpt lat="43.64502" lon="1.39602">
        <ele>140</ele>
        <time>2025-02-02T13:05:19Z</time>
      </trkpt>
      <trkpt lat="43.64502" lon="1.39598">
        <ele>140</ele>
        <time>2025-02-02T13:05:20Z</time>
      </trkpt>
      <trkpt lat="43.64501" lon="1.39591">
        <ele>140</ele>
        <time>2025-02-02T13:05:21Z</time>
      </trkpt>
      <trkpt lat="43.64501" lon="1.39591">
        <ele>140</ele>
        <time>2025-02-02T13:05:22Z</time>
      </trkpt>
      <trkpt lat="43.64501" lon="1.39587">
        <ele>140</ele>
        <time>2025-02-02T13:05:23Z</time>
      </trkpt>
      <trkpt lat="43.64501" lon="1.39583">
        <ele>140</ele>
        <time>2025-02-02T13:05:24Z</time>
      </trkpt>
      <trkpt lat="43.64501" lon="1.3958">
        <ele>140</ele>
        <time>2025-02-02T13:05:25Z</time>
      </trkpt>
      <trkpt lat="43.64501" lon="1.39576">
        <ele>141</ele>
        <time>2025-02-02T13:05:26Z</time>
      </trkpt>
      <trkpt lat="43.645" lon="1.39572">
        <ele>141</ele>
        <time>2025-02-02T13:05:27Z</time>
      </trkpt>
      <trkpt lat="43.645" lon="1.39568">
        <ele>140</ele>
        <time>2025-02-02T13:05:28Z</time>
      </trkpt>
      <trkpt lat="43.645" lon="1.39565">
        <ele>140</ele>
        <time>2025-02-02T13:05:29Z</time>
      </trkpt>
      <trkpt lat="43.64499" lon="1.39561">
        <ele>140</ele>
        <time>2025-02-02T13:05:30Z</time>
      </trkpt>
      <trkpt lat="43.64499" lon="1.39558">
        <ele>140</ele>
        <time>2025-02-02T13:05:31Z</time>
      </trkpt>
      <trkpt lat="43.64498" lon="1.39554">
        <ele>140</ele>
        <time>2025-02-02T13:05:32Z</time>
      </trkpt>
      <trkpt lat="43.64498" lon="1.3955">
        <ele>140</ele>
        <time>2025-02-02T13:05:33Z</time>
      </trkpt>
      <trkpt lat="43.64497" lon="1.39547">
        <ele>140</ele>
        <time>2025-02-02T13:05:34Z</time>
      </trkpt>
      <trkpt lat="43.64496" lon="1.39541">
        <ele>140</ele>
        <time>2025-02-02T13:05:35Z</time>
      </trkpt>
      <trkpt lat="43.64496" lon="1.39539">
        <ele>140</ele>
        <time>2025-02-02T13:05:36Z</time>
      </trkpt>
      <trkpt lat="43.64495" lon="1.39533">
        <ele>140</ele>
        <time>2025-02-02T13:05:37Z</time>
      </trkpt>
      <trkpt lat="43.64494" lon="1.39531">
        <ele>139</ele>
        <time>2025-02-02T13:05:38Z</time>
      </trkpt>
      <trkpt lat="43.64494" lon="1.39527">
        <ele>139</ele>
        <time>2025-02-02T13:05:39Z</time>
      </trkpt>
      <trkpt lat="43.64493" lon="1.39523">
        <ele>139</ele>
        <time>2025-02-02T13:05:40Z</time>
      </trkpt>
      <trkpt lat="43.64493" lon="1.3952">
        <ele>139</ele>
        <time>2025-02-02T13:05:41Z</time>
      </trkpt>
      <trkpt lat="43.64492" lon="1.39516">
        <ele>140</ele>
        <time>2025-02-02T13:05:42Z</time>
      </trkpt>
      <trkpt lat="43.64492" lon="1.39512">
        <ele>140</ele>
        <time>2025-02-02T13:05:43Z</time>
      </trkpt>
      <trkpt lat="43.64492" lon="1.39508">
        <ele>140</ele>
        <time>2025-02-02T13:05:44Z</time>
      </trkpt>
      <trkpt lat="43.64492" lon="1.39504">
        <ele>140</ele>
        <time>2025-02-02T13:05:45Z</time>
      </trkpt>
      <trkpt lat="43.64492" lon="1.395">
        <ele>140</ele>
        <time>2025-02-02T13:05:46Z</time>
      </trkpt>
      <trkpt lat="43.64491" lon="1.39496">
        <ele>140</ele>
        <time>2025-02-02T13:05:47Z</time>
      </trkpt>
      <trkpt lat="43.64491" lon="1.39493">
        <ele>140</ele>
        <time>2025-02-02T13:05:48Z</time>
      </trkpt>
      <trkpt lat="43.6449" lon="1.39489">
        <ele>140</ele>
        <time>2025-02-02T13:05:49Z</time>
      </trkpt>
      <trkpt lat="43.6449" lon="1.39485">
        <ele>140</ele>
        <time>2025-02-02T13:05:50Z</time>
      </trkpt>
      <trkpt lat="43.64489" lon="1.39482">
        <ele>140</ele>
        <time>2025-02-02T13:05:51Z</time>
      </trkpt>
      <trkpt lat="43.64489" lon="1.39479">
        <ele>140</ele>
        <time>2025-02-02T13:05:52Z</time>
      </trkpt>
      <trkpt lat="43.64488" lon="1.39473">
        <ele>140</ele>
        <time>2025-02-02T13:05:53Z</time>
      </trkpt>
      <trkpt lat="43.64487" lon="1.39471">
        <ele>140</ele>
        <time>2025-02-02T13:05:54Z</time>
      </trkpt>
      <trkpt lat="43.64487" lon="1.39468">
        <ele>140</ele>
        <time>2025-02-02T13:05:55Z</time>
      </trkpt>
      <trkpt lat="43.64486" lon="1.39462">
        <ele>140</ele>
        <time>2025-02-02T13:05:56Z</time>
      </trkpt>
      <trkpt lat="43.64486" lon="1.3946">
        <ele>140</ele>
        <time>2025-02-02T13:05:57Z</time>
      </trkpt>
      <trkpt lat="43.64485" lon="1.39457">
        <ele>140</ele>
        <time>2025-02-02T13:05:58Z</time>
      </trkpt>
      <trkpt lat="43.64485" lon="1.39453">
        <ele>140</ele>
        <time>2025-02-02T13:05:59Z</time>
      </trkpt>
      <trkpt lat="43.64484" lon="1.3945">
        <ele>140</ele>
        <time>2025-02-02T13:06:00Z</time>
      </trkpt>
      <trkpt lat="43.64484" lon="1.39446">
        <ele>140</ele>
        <time>2025-02-02T13:06:01Z</time>
      </trkpt>
      <trkpt lat="43.64483" lon="1.39443">
        <ele>140</ele>
        <time>2025-02-02T13:06:02Z</time>
      </trkpt>
      <trkpt lat="43.64483" lon="1.39439">
        <ele>140</ele>
        <time>2025-02-02T13:06:03Z</time>
      </trkpt>
      <trkpt lat="43.64482" lon="1.39436">
        <ele>140</ele>
        <time>2025-02-02T13:06:04Z</time>
      </trkpt>
      <trkpt lat="43.64481" lon="1.39432">
        <ele>140</ele>
        <time>2025-02-02T13:06:05Z</time>
      </trkpt>
      <trkpt lat="43.64481" lon="1.39429">
        <ele>140</ele>
        <time>2025-02-02T13:06:06Z</time>
      </trkpt>
      <trkpt lat="43.6448" lon="1.39425">
        <ele>140</ele>
        <time>2025-02-02T13:06:07Z</time>
      </trkpt>
      <trkpt lat="43.6448" lon="1.39422">
        <ele>140</ele>
        <time>2025-02-02T13:06:08Z</time>
      </trkpt>
      <trkpt lat="43.64479" lon="1.39419">
        <ele>140</ele>
        <time>2025-02-02T13:06:09Z</time>
      </trkpt>
      <trkpt lat="43.64478" lon="1.39415">
        <ele>140</ele>
        <time>2025-02-02T13:06:10Z</time>
      </trkpt>
      <trkpt lat="43.64478" lon="1.39412">
        <ele>140</ele>
        <time>2025-02-02T13:06:11Z</time>
      </trkpt>
      <trkpt lat="43.64477" lon="1.39407">
        <ele>140</ele>
        <time>2025-02-02T13:06:12Z</time>
      </trkpt>
      <trkpt lat="43.64476" lon="1.39405">
        <ele>140</ele>
        <time>2025-02-02T13:06:13Z</time>
      </trkpt>
      <trkpt lat="43.64476" lon="1.39401">
        <ele>140</ele>
        <time>2025-02-02T13:06:14Z</time>
      </trkpt>
      <trkpt lat="43.64475" lon="1.39396">
        <ele>140</ele>
        <time>2025-02-02T13:06:15Z</time>
      </trkpt>
      <trkpt lat="43.64474" lon="1.39394">
        <ele>140</ele>
        <time>2025-02-02T13:06:16Z</time>
      </trkpt>
      <trkpt lat="43.64474" lon="1.3939">
        <ele>140</ele>
        <time>2025-02-02T13:06:17Z</time>
      </trkpt>
      <trkpt lat="43.64473" lon="1.39387">
        <ele>140</ele>
        <time>2025-02-02T13:06:18Z</time>
      </trkpt>
      <trkpt lat="43.64472" lon="1.39383">
        <ele>140</ele>
        <time>2025-02-02T13:06:19Z</time>
      </trkpt>
      <trkpt lat="43.64472" lon="1.39379">
        <ele>140</ele>
        <time>2025-02-02T13:06:20Z</time>
      </trkpt>
      <trkpt lat="43.64471" lon="1.39376">
        <ele>140</ele>
        <time>2025-02-02T13:06:21Z</time>
      </trkpt>
      <trkpt lat="43.64471" lon="1.39372">
        <ele>140</ele>
        <time>2025-02-02T13:06:22Z</time>
      </trkpt>
      <trkpt lat="43.6447" lon="1.39368">
        <ele>140</ele>
        <time>2025-02-02T13:06:23Z</time>
      </trkpt>
      <trkpt lat="43.6447" lon="1.39364">
        <ele>140</ele>
        <time>2025-02-02T13:06:24Z</time>
      </trkpt>
      <trkpt lat="43.64469" lon="1.39361">
        <ele>140</ele>
        <time>2025-02-02T13:06:25Z</time>
      </trkpt>
      <trkpt lat="43.64468" lon="1.39357">
        <ele>140</ele>
        <time>2025-02-02T13:06:26Z</time>
      </trkpt>
      <trkpt lat="43.64468" lon="1.39353">
        <ele>140</ele>
        <time>2025-02-02T13:06:27Z</time>
      </trkpt>
      <trkpt lat="43.64467" lon="1.3935">
        <ele>140</ele>
        <time>2025-02-02T13:06:28Z</time>
      </trkpt>
      <trkpt lat="43.64466" lon="1.39346">
        <ele>141</ele>
        <time>2025-02-02T13:06:29Z</time>
      </trkpt>
      <trkpt lat="43.64465" lon="1.39341">
        <ele>141</ele>
        <time>2025-02-02T13:06:30Z</time>
      </trkpt>
      <trkpt lat="43.64465" lon="1.39339">
        <ele>141</ele>
        <time>2025-02-02T13:06:31Z</time>
      </trkpt>
      <trkpt lat="43.64464" lon="1.39335">
        <ele>141</ele>
        <time>2025-02-02T13:06:32Z</time>
      </trkpt>
      <trkpt lat="43.64463" lon="1.39332">
        <ele>141</ele>
        <time>2025-02-02T13:06:33Z</time>
      </trkpt>
      <trkpt lat="43.64462" lon="1.39327">
        <ele>141</ele>
        <time>2025-02-02T13:06:34Z</time>
      </trkpt>
      <trkpt lat="43.64462" lon="1.39325">
        <ele>141</ele>
        <time>2025-02-02T13:06:35Z</time>
      </trkpt>
      <trkpt lat="43.64462" lon="1.39321">
        <ele>141</ele>
        <time>2025-02-02T13:06:36Z</time>
      </trkpt>
      <trkpt lat="43.64462" lon="1.39317">
        <ele>141</ele>
        <time>2025-02-02T13:06:37Z</time>
      </trkpt>
      <trkpt lat="43.64462" lon="1.39314">
        <ele>140</ele>
        <time>2025-02-02T13:06:38Z</time>
      </trkpt>
      <trkpt lat="43.6446" lon="1.39311">
        <ele>140</ele>
        <time>2025-02-02T13:06:39Z</time>
      </trkpt>
      <trkpt lat="43.64458" lon="1.39308">
        <ele>140</ele>
        <time>2025-02-02T13:06:40Z</time>
      </trkpt>
      <trkpt lat="43.64457" lon="1.39305">
        <ele>140</ele>
        <time>2025-02-02T13:06:41Z</time>
      </trkpt>
      <trkpt lat="43.64456" lon="1.39302">
        <ele>140</ele>
        <time>2025-02-02T13:06:42Z</time>
      </trkpt>
      <trkpt lat="43.64455" lon="1.39298">
        <ele>140</ele>
        <time>2025-02-02T13:06:43Z</time>
      </trkpt>
      <trkpt lat="43.64455" lon="1.39294">
        <ele>140</ele>
        <time>2025-02-02T13:06:44Z</time>
      </trkpt>
      <trkpt lat="43.64455" lon="1.3929">
        <ele>140</ele>
        <time>2025-02-02T13:06:45Z</time>
      </trkpt>
      <trkpt lat="43.64454" lon="1.39286">
        <ele>140</ele>
        <time>2025-02-02T13:06:46Z</time>
      </trkpt>
      <trkpt lat="43.64453" lon="1.39282">
        <ele>140</ele>
        <time>2025-02-02T13:06:47Z</time>
      </trkpt>
      <trkpt lat="43.64452" lon="1.39278">
        <ele>140</ele>
        <time>2025-02-02T13:06:48Z</time>
      </trkpt>
      <trkpt lat="43.64451" lon="1.39274">
        <ele>140</ele>
        <time>2025-02-02T13:06:49Z</time>
      </trkpt>
      <trkpt lat="43.6445" lon="1.39272">
        <ele>140</ele>
        <time>2025-02-02T13:06:50Z</time>
      </trkpt>
      <trkpt lat="43.6445" lon="1.39269">
        <ele>141</ele>
        <time>2025-02-02T13:06:51Z</time>
      </trkpt>
      <trkpt lat="43.64449" lon="1.39266">
        <ele>141</ele>
        <time>2025-02-02T13:06:52Z</time>
      </trkpt>
      <trkpt lat="43.64447" lon="1.39261">
        <ele>141</ele>
        <time>2025-02-02T13:06:53Z</time>
      </trkpt>
      <trkpt lat="43.64446" lon="1.39259">
        <ele>140</ele>
        <time>2025-02-02T13:06:54Z</time>
      </trkpt>
      <trkpt lat="43.64445" lon="1.39256">
        <ele>140</ele>
        <time>2025-02-02T13:06:55Z</time>
      </trkpt>
      <trkpt lat="43.64443" lon="1.39252">
        <ele>139</ele>
        <time>2025-02-02T13:06:56Z</time>
      </trkpt>
      <trkpt lat="43.64442" lon="1.39249">
        <ele>139</ele>
        <time>2025-02-02T13:06:57Z</time>
      </trkpt>
      <trkpt lat="43.6444" lon="1.39246">
        <ele>139</ele>
        <time>2025-02-02T13:06:58Z</time>
      </trkpt>
      <trkpt lat="43.64438" lon="1.39242">
        <ele>139</ele>
        <time>2025-02-02T13:06:59Z</time>
      </trkpt>
      <trkpt lat="43.64436" lon="1.39239">
        <ele>139</ele>
        <time>2025-02-02T13:07:00Z</time>
      </trkpt>
      <trkpt lat="43.64434" lon="1.39237">
        <ele>139</ele>
        <time>2025-02-02T13:07:01Z</time>
      </trkpt>
      <trkpt lat="43.64433" lon="1.39234">
        <ele>139</ele>
        <time>2025-02-02T13:07:02Z</time>
      </trkpt>
      <trkpt lat="43.64431" lon="1.39231">
        <ele>139</ele>
        <time>2025-02-02T13:07:03Z</time>
      </trkpt>
      <trkpt lat="43.64429" lon="1.39228">
        <ele>139</ele>
        <time>2025-02-02T13:07:04Z</time>
      </trkpt>
      <trkpt lat="43.64428" lon="1.39225">
        <ele>139</ele>
        <time>2025-02-02T13:07:05Z</time>
      </trkpt>
      <trkpt lat="43.64427" lon="1.39221">
        <ele>139</ele>
        <time>2025-02-02T13:07:06Z</time>
      </trkpt>
      <trkpt lat="43.64425" lon="1.39217">
        <ele>139</ele>
        <time>2025-02-02T13:07:07Z</time>
      </trkpt>
      <trkpt lat="43.64424" lon="1.39215">
        <ele>140</ele>
        <time>2025-02-02T13:07:08Z</time>
      </trkpt>
      <trkpt lat="43.64423" lon="1.39212">
        <ele>140</ele>
        <time>2025-02-02T13:07:09Z</time>
      </trkpt>
      <trkpt lat="43.64422" lon="1.39209">
        <ele>140</ele>
        <time>2025-02-02T13:07:10Z</time>
      </trkpt>
      <trkpt lat="43.6442" lon="1.39206">
        <ele>140</ele>
        <time>2025-02-02T13:07:11Z</time>
      </trkpt>
      <trkpt lat="43.64418" lon="1.39201">
        <ele>140</ele>
        <time>2025-02-02T13:07:12Z</time>
      </trkpt>
      <trkpt lat="43.64417" lon="1.392">
        <ele>141</ele>
        <time>2025-02-02T13:07:13Z</time>
      </trkpt>
      <trkpt lat="43.64416" lon="1.39197">
        <ele>141</ele>
        <time>2025-02-02T13:07:14Z</time>
      </trkpt>
      <trkpt lat="43.64414" lon="1.39194">
        <ele>142</ele>
        <time>2025-02-02T13:07:15Z</time>
      </trkpt>
      <trkpt lat="43.64413" lon="1.39191">
        <ele>142</ele>
        <time>2025-02-02T13:07:16Z</time>
      </trkpt>
      <trkpt lat="43.64413" lon="1.39187">
        <ele>143</ele>
        <time>2025-02-02T13:07:17Z</time>
      </trkpt>
      <trkpt lat="43.64412" lon="1.39183">
        <ele>143</ele>
        <time>2025-02-02T13:07:18Z</time>
      </trkpt>
      <trkpt lat="43.64411" lon="1.39179">
        <ele>144</ele>
        <time>2025-02-02T13:07:19Z</time>
      </trkpt>
      <trkpt lat="43.64411" lon="1.39175">
        <ele>144</ele>
        <time>2025-02-02T13:07:20Z</time>
      </trkpt>
      <trkpt lat="43.6441" lon="1.39172">
        <ele>144</ele>
        <time>2025-02-02T13:07:21Z</time>
      </trkpt>
      <trkpt lat="43.6441" lon="1.39168">
        <ele>144</ele>
        <time>2025-02-02T13:07:22Z</time>
      </trkpt>
      <trkpt lat="43.6441" lon="1.39165">
        <ele>143</ele>
        <time>2025-02-02T13:07:23Z</time>
      </trkpt>
      <trkpt lat="43.6441" lon="1.39161">
        <ele>143</ele>
        <time>2025-02-02T13:07:24Z</time>
      </trkpt>
      <trkpt lat="43.6441" lon="1.39158">
        <ele>144</ele>
        <time>2025-02-02T13:07:25Z</time>
      </trkpt>
      <trkpt lat="43.64412" lon="1.39153">
        <ele>144</ele>
        <time>2025-02-02T13:07:26Z</time>
      </trkpt>
      <trkpt lat="43.64412" lon="1.39151">
        <ele>144</ele>
        <time>2025-02-02T13:07:27Z</time>
      </trkpt>
      <trkpt lat="43.64413" lon="1.39148">
        <ele>145</ele>
        <time>2025-02-02T13:07:28Z</time>
      </trkpt>
      <trkpt lat="43.64413" lon="1.39145">
        <ele>146</ele>
        <time>2025-02-02T13:07:29Z</time>
      </trkpt>
      <trkpt lat="43.64414" lon="1.39142">
        <ele>146</ele>
        <time>2025-02-02T13:07:30Z</time>
      </trkpt>
      <trkpt lat="43.64415" lon="1.39139">
        <ele>146</ele>
        <time>2025-02-02T13:07:31Z</time>
      </trkpt>
      <trkpt lat="43.64415" lon="1.39139">
        <ele>147</ele>
        <time>2025-02-02T13:07:32Z</time>
      </trkpt>
      <trkpt lat="43.64416" lon="1.39135">
        <ele>147</ele>
        <time>2025-02-02T13:07:33Z</time>
      </trkpt>
      <trkpt lat="43.64417" lon="1.39133">
        <ele>147</ele>
        <time>2025-02-02T13:07:34Z</time>
      </trkpt>
      <trkpt lat="43.64418" lon="1.3913">
        <ele>147</ele>
        <time>2025-02-02T13:07:35Z</time>
      </trkpt>
      <trkpt lat="43.64419" lon="1.39127">
        <ele>148</ele>
        <time>2025-02-02T13:07:36Z</time>
      </trkpt>
      <trkpt lat="43.6442" lon="1.39124">
        <ele>148</ele>
        <time>2025-02-02T13:07:37Z</time>
      </trkpt>
      <trkpt lat="43.64421" lon="1.39121">
        <ele>148</ele>
        <time>2025-02-02T13:07:38Z</time>
      </trkpt>
      <trkpt lat="43.64422" lon="1.39118">
        <ele>148</ele>
        <time>2025-02-02T13:07:39Z</time>
      </trkpt>
      <trkpt lat="43.64423" lon="1.39115">
        <ele>149</ele>
        <time>2025-02-02T13:07:40Z</time>
      </trkpt>
      <trkpt lat="43.64425" lon="1.39112">
        <ele>149</ele>
        <time>2025-02-02T13:07:41Z</time>
      </trkpt>
      <trkpt lat="43.64426" lon="1.39109">
        <ele>150</ele>
        <time>2025-02-02T13:07:42Z</time>
      </trkpt>
      <trkpt lat="43.64428" lon="1.39107">
        <ele>150</ele>
        <time>2025-02-02T13:07:43Z</time>
      </trkpt>
      <trkpt lat="43.64429" lon="1.39104">
        <ele>150</ele>
        <time>2025-02-02T13:07:44Z</time>
      </trkpt>
      <trkpt lat="43.64431" lon="1.39101">
        <ele>150</ele>
        <time>2025-02-02T13:07:45Z</time>
      </trkpt>
      <trkpt lat="43.64433" lon="1.39098">
        <ele>150</ele>
        <time>2025-02-02T13:07:46Z</time>
      </trkpt>
      <trkpt lat="43.64435" lon="1.39093">
        <ele>150</ele>
        <time>2025-02-02T13:07:47Z</time>
      </trkpt>
      <trkpt lat="43.64436" lon="1.39091">
        <ele>151</ele>
        <time>2025-02-02T13:07:48Z</time>
      </trkpt>
      <trkpt lat="43.64438" lon="1.39087">
        <ele>151</ele>
        <time>2025-02-02T13:07:49Z</time>
      </trkpt>
      <trkpt lat="43.6444" lon="1.39083">
        <ele>151</ele>
        <time>2025-02-02T13:07:50Z</time>
      </trkpt>
      <trkpt lat="43.64441" lon="1.39081">
        <ele>152</ele>
        <time>2025-02-02T13:07:51Z</time>
      </trkpt>
      <trkpt lat="43.64442" lon="1.39078">
        <ele>152</ele>
        <time>2025-02-02T13:07:52Z</time>
      </trkpt>
      <trkpt lat="43.64444" lon="1.39074">
        <ele>152</ele>
        <time>2025-02-02T13:07:53Z</time>
      </trkpt>
      <trkpt lat="43.64445" lon="1.39071">
        <ele>152</ele>
        <time>2025-02-02T13:07:54Z</time>
      </trkpt>
      <trkpt lat="43.64447" lon="1.39068">
        <ele>152</ele>
        <time>2025-02-02T13:07:55Z</time>
      </trkpt>
      <trkpt lat="43.64448" lon="1.39065">
        <ele>152</ele>
        <time>2025-02-02T13:07:56Z</time>
      </trkpt>
      <trkpt lat="43.6445" lon="1.39062">
        <ele>152</ele>
        <time>2025-02-02T13:07:57Z</time>
      </trkpt>
      <trkpt lat="43.64451" lon="1.39059">
        <ele>152</ele>
        <time>2025-02-02T13:07:58Z</time>
      </trkpt>
      <trkpt lat="43.64453" lon="1.39056">
        <ele>152</ele>
        <time>2025-02-02T13:07:59Z</time>
      </trkpt>
      <trkpt lat="43.64455" lon="1.39053">
        <ele>153</ele>
        <time>2025-02-02T13:08:00Z</time>
      </trkpt>
      <trkpt lat="43.64457" lon="1.3905">
        <ele>153</ele>
        <time>2025-02-02T13:08:01Z</time>
      </trkpt>
      <trkpt lat="43.64459" lon="1.39048">
        <ele>153</ele>
        <time>2025-02-02T13:08:02Z</time>
      </trkpt>
      <trkpt lat="43.64462" lon="1.39047">
        <ele>153</ele>
        <time>2025-02-02T13:08:03Z</time>
      </trkpt>
      <trkpt lat="43.64464" lon="1.39046">
        <ele>153</ele>
        <time>2025-02-02T13:08:04Z</time>
      </trkpt>
      <trkpt lat="43.64468" lon="1.39045">
        <ele>153</ele>
        <time>2025-02-02T13:08:05Z</time>
      </trkpt>
      <trkpt lat="43.64469" lon="1.39044">
        <ele>153</ele>
        <time>2025-02-02T13:08:06Z</time>
      </trkpt>
      <trkpt lat="43.64471" lon="1.39042">
        <ele>153</ele>
        <time>2025-02-02T13:08:07Z</time>
      </trkpt>
      <trkpt lat="43.64474" lon="1.3904">
        <ele>153</ele>
        <time>2025-02-02T13:08:08Z</time>
      </trkpt>
      <trkpt lat="43.64476" lon="1.39036">
        <ele>153</ele>
        <time>2025-02-02T13:08:09Z</time>
      </trkpt>
      <trkpt lat="43.64477" lon="1.39034">
        <ele>153</ele>
        <time>2025-02-02T13:08:10Z</time>
      </trkpt>
      <trkpt lat="43.64479" lon="1.39031">
        <ele>153</ele>
        <time>2025-02-02T13:08:11Z</time>
      </trkpt>
      <trkpt lat="43.6448" lon="1.39028">
        <ele>153</ele>
        <time>2025-02-02T13:08:12Z</time>
      </trkpt>
      <trkpt lat="43.64481" lon="1.39025">
        <ele>153</ele>
        <time>2025-02-02T13:08:13Z</time>
      </trkpt>
      <trkpt lat="43.64482" lon="1.39022">
        <ele>153</ele>
        <time>2025-02-02T13:08:14Z</time>
      </trkpt>
      <trkpt lat="43.64483" lon="1.39018">
        <ele>152</ele>
        <time>2025-02-02T13:08:15Z</time>
      </trkpt>
      <trkpt lat="43.64483" lon="1.39015">
        <ele>153</ele>
        <time>2025-02-02T13:08:16Z</time>
      </trkpt>
      <trkpt lat="43.64484" lon="1.39012">
        <ele>153</ele>
        <time>2025-02-02T13:08:17Z</time>
      </trkpt>
      <trkpt lat="43.64485" lon="1.39009">
        <ele>153</ele>
        <time>2025-02-02T13:08:18Z</time>
      </trkpt>
      <trkpt lat="43.64486" lon="1.39005">
        <ele>153</ele>
        <time>2025-02-02T13:08:19Z</time>
      </trkpt>
      <trkpt lat="43.64488" lon="1.39002">
        <ele>154</ele>
        <time>2025-02-02T13:08:20Z</time>
      </trkpt>
      <trkpt lat="43.64489" lon="1.38999">
        <ele>154</ele>
        <time>2025-02-02T13:08:21Z</time>
      </trkpt>
      <trkpt lat="43.6449" lon="1.38996">
        <ele>153</ele>
        <time>2025-02-02T13:08:22Z</time>
      </trkpt>
      <trkpt lat="43.64491" lon="1.38993">
        <ele>153</ele>
        <time>2025-02-02T13:08:23Z</time>
      </trkpt>
      <trkpt lat="43.64493" lon="1.38988">
        <ele>153</ele>
        <time>2025-02-02T13:08:24Z</time>
      </trkpt>
      <trkpt lat="43.64494" lon="1.38986">
        <ele>153</ele>
        <time>2025-02-02T13:08:25Z</time>
      </trkpt>
      <trkpt lat="43.64495" lon="1.38983">
        <ele>153</ele>
        <time>2025-02-02T13:08:26Z</time>
      </trkpt>
      <trkpt lat="43.64496" lon="1.38979">
        <ele>153</ele>
        <time>2025-02-02T13:08:27Z</time>
      </trkpt>
      <trkpt lat="43.64498" lon="1.38973">
        <ele>153</ele>
        <time>2025-02-02T13:08:28Z</time>
      </trkpt>
      <trkpt lat="43.64499" lon="1.38971">
        <ele>152</ele>
        <time>2025-02-02T13:08:29Z</time>
      </trkpt>
      <trkpt lat="43.645" lon="1.38968">
        <ele>152</ele>
        <time>2025-02-02T13:08:30Z</time>
      </trkpt>
      <trkpt lat="43.64501" lon="1.38964">
        <ele>152</ele>
        <time>2025-02-02T13:08:31Z</time>
      </trkpt>
      <trkpt lat="43.64502" lon="1.3896">
        <ele>152</ele>
        <time>2025-02-02T13:08:32Z</time>
      </trkpt>
      <trkpt lat="43.64503" lon="1.38957">
        <ele>152</ele>
        <time>2025-02-02T13:08:33Z</time>
      </trkpt>
      <trkpt lat="43.64504" lon="1.38954">
        <ele>152</ele>
        <time>2025-02-02T13:08:34Z</time>
      </trkpt>
      <trkpt lat="43.64505" lon="1.3895">
        <ele>152</ele>
        <time>2025-02-02T13:08:35Z</time>
      </trkpt>
      <trkpt lat="43.64506" lon="1.38947">
        <ele>152</ele>
        <time>2025-02-02T13:08:36Z</time>
      </trkpt>
      <trkpt lat="43.64507" lon="1.38944">
        <ele>153</ele>
        <time>2025-02-02T13:08:37Z</time>
      </trkpt>
      <trkpt lat="43.64509" lon="1.3894">
        <ele>153</ele>
        <time>2025-02-02T13:08:38Z</time>
      </trkpt>
      <trkpt lat="43.6451" lon="1.38937">
        <ele>153</ele>
        <time>2025-02-02T13:08:39Z</time>
      </trkpt>
      <trkpt lat="43.64511" lon="1.38934">
        <ele>152</ele>
        <time>2025-02-02T13:08:40Z</time>
      </trkpt>
      <trkpt lat="43.64512" lon="1.38931">
        <ele>152</ele>
        <time>2025-02-02T13:08:41Z</time>
      </trkpt>
      <trkpt lat="43.64513" lon="1.38925">
        <ele>152</ele>
        <time>2025-02-02T13:08:42Z</time>
      </trkpt>
      <trkpt lat="43.64514" lon="1.38923">
        <ele>152</ele>
        <time>2025-02-02T13:08:43Z</time>
      </trkpt>
      <trkpt lat="43.64514" lon="1.38919">
        <ele>152</ele>
        <time>2025-02-02T13:08:44Z</time>
      </trkpt>
      <trkpt lat="43.64514" lon="1.38915">
        <ele>152</ele>
        <time>2025-02-02T13:08:45Z</time>
      </trkpt>
      <trkpt lat="43.64513" lon="1.38912">
        <ele>152</ele>
        <time>2025-02-02T13:08:46Z</time>
      </trkpt>
      <trkpt lat="43.64512" lon="1.38906">
        <ele>152</ele>
        <time>2025-02-02T13:08:47Z</time>
      </trkpt>
      <trkpt lat="43.64512" lon="1.38905">
        <ele>152</ele>
        <time>2025-02-02T13:08:48Z</time>
      </trkpt>
      <trkpt lat="43.64511" lon="1.38901">
        <ele>152</ele>
        <time>2025-02-02T13:08:49Z</time>
      </trkpt>
      <trkpt lat="43.64511" lon="1.38897">
        <ele>152</ele>
        <time>2025-02-02T13:08:50Z</time>
      </trkpt>
      <trkpt lat="43.6451" lon="1.38894">
        <ele>152</ele>
        <time>2025-02-02T13:08:51Z</time>
      </trkpt>
      <trkpt lat="43.64509" lon="1.3889">
        <ele>152</ele>
        <time>2025-02-02T13:08:52Z</time>
      </trkpt>
      <trkpt lat="43.64509" lon="1.38886">
        <ele>152</ele>
        <time>2025-02-02T13:08:53Z</time>
      </trkpt>
      <trkpt lat="43.64508" lon="1.38883">
        <ele>152</ele>
        <time>2025-02-02T13:08:54Z</time>
      </trkpt>
      <trkpt lat="43.64508" lon="1.3888">
        <ele>152</ele>
        <time>2025-02-02T13:08:55Z</time>
      </trkpt>
      <trkpt lat="43.64507" lon="1.38877">
        <ele>152</ele>
        <time>2025-02-02T13:08:56Z</time>
      </trkpt>
      <trkpt lat="43.64507" lon="1.38873">
        <ele>152</ele>
        <time>2025-02-02T13:08:57Z</time>
      </trkpt>
      <trkpt lat="43.64507" lon="1.38869">
        <ele>152</ele>
        <time>2025-02-02T13:08:58Z</time>
      </trkpt>
      <trkpt lat="43.64508" lon="1.38866">
        <ele>152</ele>
        <time>2025-02-02T13:08:59Z</time>
      </trkpt>
      <trkpt lat="43.6451" lon="1.38862">
        <ele>152</ele>
        <time>2025-02-02T13:09:00Z</time>
      </trkpt>
      <trkpt lat="43.64513" lon="1.38858">
        <ele>152</ele>
        <time>2025-02-02T13:09:01Z</time>
      </trkpt>
      <trkpt lat="43.64514" lon="1.38857">
        <ele>153</ele>
        <time>2025-02-02T13:09:02Z</time>
      </trkpt>
      <trkpt lat="43.64517" lon="1.38856">
        <ele>153</ele>
        <time>2025-02-02T13:09:03Z</time>
      </trkpt>
      <trkpt lat="43.6452" lon="1.38854">
        <ele>153</ele>
        <time>2025-02-02T13:09:04Z</time>
      </trkpt>
      <trkpt lat="43.64522" lon="1.38852">
        <ele>153</ele>
        <time>2025-02-02T13:09:05Z</time>
      </trkpt>
      <trkpt lat="43.64526" lon="1.38849">
        <ele>153</ele>
        <time>2025-02-02T13:09:06Z</time>
      </trkpt>
      <trkpt lat="43.64527" lon="1.38848">
        <ele>152</ele>
        <time>2025-02-02T13:09:07Z</time>
      </trkpt>
      <trkpt lat="43.6453" lon="1.38847">
        <ele>152</ele>
        <time>2025-02-02T13:09:08Z</time>
      </trkpt>
      <trkpt lat="43.64532" lon="1.38845">
        <ele>152</ele>
        <time>2025-02-02T13:09:09Z</time>
      </trkpt>
      <trkpt lat="43.64535" lon="1.38844">
        <ele>152</ele>
        <time>2025-02-02T13:09:10Z</time>
      </trkpt>
      <trkpt lat="43.64537" lon="1.38843">
        <ele>152</ele>
        <time>2025-02-02T13:09:11Z</time>
      </trkpt>
      <trkpt lat="43.6454" lon="1.38842">
        <ele>152</ele>
        <time>2025-02-02T13:09:12Z</time>
      </trkpt>
      <trkpt lat="43.64544" lon="1.38842">
        <ele>152</ele>
        <time>2025-02-02T13:09:13Z</time>
      </trkpt>
      <trkpt lat="43.64546" lon="1.38842">
        <ele>153</ele>
        <time>2025-02-02T13:09:14Z</time>
      </trkpt>
      <trkpt lat="43.6455" lon="1.38841">
        <ele>153</ele>
        <time>2025-02-02T13:09:15Z</time>
      </trkpt>
      <trkpt lat="43.64552" lon="1.38841">
        <ele>153</ele>
        <time>2025-02-02T13:09:16Z</time>
      </trkpt>
      <trkpt lat="43.64554" lon="1.3884">
        <ele>153</ele>
        <time>2025-02-02T13:09:17Z</time>
      </trkpt>
      <trkpt lat="43.64559" lon="1.3884">
        <ele>153</ele>
        <time>2025-02-02T13:09:18Z</time>
      </trkpt>
      <trkpt lat="43.6456" lon="1.3884">
        <ele>153</ele>
        <time>2025-02-02T13:09:19Z</time>
      </trkpt>
      <trkpt lat="43.64563" lon="1.38839">
        <ele>153</ele>
        <time>2025-02-02T13:09:20Z</time>
      </trkpt>
      <trkpt lat="43.64566" lon="1.38839">
        <ele>153</ele>
        <time>2025-02-02T13:09:21Z</time>
      </trkpt>
      <trkpt lat="43.64568" lon="1.38838">
        <ele>153</ele>
        <time>2025-02-02T13:09:22Z</time>
      </trkpt>
      <trkpt lat="43.64571" lon="1.38837">
        <ele>153</ele>
        <time>2025-02-02T13:09:23Z</time>
      </trkpt>
      <trkpt lat="43.64573" lon="1.38837">
        <ele>153</ele>
        <time>2025-02-02T13:09:24Z</time>
      </trkpt>
      <trkpt lat="43.64577" lon="1.38837">
        <ele>153</ele>
        <time>2025-02-02T13:09:25Z</time>
      </trkpt>
      <trkpt lat="43.64578" lon="1.38837">
        <ele>153</ele>
        <time>2025-02-02T13:09:26Z</time>
      </trkpt>
      <trkpt lat="43.64581" lon="1.38837">
        <ele>153</ele>
        <time>2025-02-02T13:09:27Z</time>
      </trkpt>
      <trkpt lat="43.64584" lon="1.38836">
        <ele>153</ele>
        <time>2025-02-02T13:09:28Z</time>
      </trkpt>
      <trkpt lat="43.64586" lon="1.38836">
        <ele>153</ele>
        <time>2025-02-02T13:09:29Z</time>
      </trkpt>
      <trkpt lat="43.64589" lon="1.38836">
        <ele>153</ele>
        <time>2025-02-02T13:09:30Z</time>
      </trkpt>
      <trkpt lat="43.64592" lon="1.38835">
        <ele>153</ele>
        <time>2025-02-02T13:09:31Z</time>
      </trkpt>
      <trkpt lat="43.64594" lon="1.38835">
        <ele>153</ele>
        <time>2025-02-02T13:09:32Z</time>
      </trkpt>
      <trkpt lat="43.64596" lon="1.38834">
        <ele>153</ele>
        <time>2025-02-02T13:09:33Z</time>
      </trkpt>
      <trkpt lat="43.64599" lon="1.38834">
        <ele>153</ele>
        <time>2025-02-02T13:09:34Z</time>
      </trkpt>
      <trkpt lat="43.64601" lon="1.38833">
        <ele>153</ele>
        <time>2025-02-02T13:09:35Z</time>
      </trkpt>
      <trkpt lat="43.64604" lon="1.38833">
        <ele>153</ele>
        <time>2025-02-02T13:09:36Z</time>
      </trkpt>
      <trkpt lat="43.64606" lon="1.38832">
        <ele>153</ele>
        <time>2025-02-02T13:09:37Z</time>
      </trkpt>
      <trkpt lat="43.6461" lon="1.38831">
        <ele>153</ele>
        <time>2025-02-02T13:09:38Z</time>
      </trkpt>
      <trkpt lat="43.64611" lon="1.3883">
        <ele>153</ele>
        <time>2025-02-02T13:09:39Z</time>
      </trkpt>
      <trkpt lat="43.64614" lon="1.38829">
        <ele>153</ele>
        <time>2025-02-02T13:09:40Z</time>
      </trkpt>
      <trkpt lat="43.64616" lon="1.38828">
        <ele>153</ele>
        <time>2025-02-02T13:09:41Z</time>
      </trkpt>
      <trkpt lat="43.64619" lon="1.38827">
        <ele>153</ele>
        <time>2025-02-02T13:09:42Z</time>
      </trkpt>
      <trkpt lat="43.64621" lon="1.38826">
        <ele>153</ele>
        <time>2025-02-02T13:09:43Z</time>
      </trkpt>
      <trkpt lat="43.64625" lon="1.38825">
        <ele>153</ele>
        <time>2025-02-02T13:09:44Z</time>
      </trkpt>
      <trkpt lat="43.64626" lon="1.38824">
        <ele>153</ele>
        <time>2025-02-02T13:09:45Z</time>
      </trkpt>
      <trkpt lat="43.64629" lon="1.38823">
        <ele>153</ele>
        <time>2025-02-02T13:09:46Z</time>
      </trkpt>
      <trkpt lat="43.64631" lon="1.38822">
        <ele>153</ele>
        <time>2025-02-02T13:09:47Z</time>
      </trkpt>
      <trkpt lat="43.64633" lon="1.38821">
        <ele>153</ele>
        <time>2025-02-02T13:09:48Z</time>
      </trkpt>
      <trkpt lat="43.64635" lon="1.3882">
        <ele>153</ele>
        <time>2025-02-02T13:09:49Z</time>
      </trkpt>
      <trkpt lat="43.64638" lon="1.38819">
        <ele>153</ele>
        <time>2025-02-02T13:09:50Z</time>
      </trkpt>
      <trkpt lat="43.6464" lon="1.38817">
        <ele>153</ele>
        <time>2025-02-02T13:09:51Z</time>
      </trkpt>
      <trkpt lat="43.64642" lon="1.38815">
        <ele>153</ele>
        <time>2025-02-02T13:09:52Z</time>
      </trkpt>
      <trkpt lat="43.64645" lon="1.38813">
        <ele>153</ele>
        <time>2025-02-02T13:09:53Z</time>
      </trkpt>
      <trkpt lat="43.64648" lon="1.38812">
        <ele>153</ele>
        <time>2025-02-02T13:09:54Z</time>
      </trkpt>
      <trkpt lat="43.64651" lon="1.38811">
        <ele>153</ele>
        <time>2025-02-02T13:09:55Z</time>
      </trkpt>
      <trkpt lat="43.64654" lon="1.38811">
        <ele>153</ele>
        <time>2025-02-02T13:09:56Z</time>
      </trkpt>
      <trkpt lat="43.64658" lon="1.38811">
        <ele>153</ele>
        <time>2025-02-02T13:09:57Z</time>
      </trkpt>
      <trkpt lat="43.64659" lon="1.38811">
        <ele>153</ele>
        <time>2025-02-02T13:09:58Z</time>
      </trkpt>
      <trkpt lat="43.64661" lon="1.3881">
        <ele>153</ele>
        <time>2025-02-02T13:09:59Z</time>
      </trkpt>
      <trkpt lat="43.64663" lon="1.38808">
        <ele>153</ele>
        <time>2025-02-02T13:10:00Z</time>
      </trkpt>
      <trkpt lat="43.64665" lon="1.38807">
        <ele>153</ele>
        <time>2025-02-02T13:10:01Z</time>
      </trkpt>
      <trkpt lat="43.64668" lon="1.38806">
        <ele>153</ele>
        <time>2025-02-02T13:10:02Z</time>
      </trkpt>
      <trkpt lat="43.64672" lon="1.38804">
        <ele>153</ele>
        <time>2025-02-02T13:10:03Z</time>
      </trkpt>
      <trkpt lat="43.64674" lon="1.38804">
        <ele>153</ele>
        <time>2025-02-02T13:10:04Z</time>
      </trkpt>
      <trkpt lat="43.64677" lon="1.38802">
        <ele>153</ele>
        <time>2025-02-02T13:10:05Z</time>
      </trkpt>
      <trkpt lat="43.64679" lon="1.38802">
        <ele>153</ele>
        <time>2025-02-02T13:10:06Z</time>
      </trkpt>
      <trkpt lat="43.64682" lon="1.388">
        <ele>153</ele>
        <time>2025-02-02T13:10:07Z</time>
      </trkpt>
      <trkpt lat="43.64684" lon="1.38799">
        <ele>153</ele>
        <time>2025-02-02T13:10:08Z</time>
      </trkpt>
      <trkpt lat="43.64687" lon="1.38798">
        <ele>153</ele>
        <time>2025-02-02T13:10:09Z</time>
      </trkpt>
      <trkpt lat="43.64689" lon="1.38797">
        <ele>153</ele>
        <time>2025-02-02T13:10:10Z</time>
      </trkpt>
      <trkpt lat="43.64691" lon="1.38795">
        <ele>153</ele>
        <time>2025-02-02T13:10:11Z</time>
      </trkpt>
      <trkpt lat="43.64693" lon="1.38793">
        <ele>153</ele>
        <time>2025-02-02T13:10:12Z</time>
      </trkpt>
      <trkpt lat="43.64696" lon="1.38792">
        <ele>153</ele>
        <time>2025-02-02T13:10:13Z</time>
      </trkpt>
      <trkpt lat="43.64699" lon="1.38791">
        <ele>153</ele>
        <time>2025-02-02T13:10:14Z</time>
      </trkpt>
      <trkpt lat="43.64703" lon="1.38789">
        <ele>153</ele>
        <time>2025-02-02T13:10:15Z</time>
      </trkpt>
      <trkpt lat="43.64705" lon="1.38789">
        <ele>152</ele>
        <time>2025-02-02T13:10:16Z</time>
      </trkpt>
      <trkpt lat="43.64707" lon="1.38788">
        <ele>153</ele>
        <time>2025-02-02T13:10:17Z</time>
      </trkpt>
      <trkpt lat="43.6471" lon="1.38786">
        <ele>153</ele>
        <time>2025-02-02T13:10:18Z</time>
      </trkpt>
      <trkpt lat="43.64713" lon="1.38784">
        <ele>153</ele>
        <time>2025-02-02T13:10:19Z</time>
      </trkpt>
      <trkpt lat="43.64716" lon="1.38783">
        <ele>153</ele>
        <time>2025-02-02T13:10:20Z</time>
      </trkpt>
      <trkpt lat="43.64719" lon="1.38781">
        <ele>153</ele>
        <time>2025-02-02T13:10:21Z</time>
      </trkpt>
      <trkpt lat="43.64722" lon="1.38779">
        <ele>153</ele>
        <time>2025-02-02T13:10:22Z</time>
      </trkpt>
      <trkpt lat="43.64724" lon="1.38778">
        <ele>152</ele>
        <time>2025-02-02T13:10:23Z</time>
      </trkpt>
      <trkpt lat="43.64726" lon="1.38776">
        <ele>152</ele>
        <time>2025-02-02T13:10:24Z</time>
      </trkpt>
      <trkpt lat="43.64728" lon="1.38774">
        <ele>153</ele>
        <time>2025-02-02T13:10:25Z</time>
      </trkpt>
      <trkpt lat="43.64731" lon="1.38772">
        <ele>153</ele>
        <time>2025-02-02T13:10:26Z</time>
      </trkpt>
      <trkpt lat="43.64733" lon="1.3877">
        <ele>153</ele>
        <time>2025-02-02T13:10:27Z</time>
      </trkpt>
      <trkpt lat="43.64736" lon="1.38769">
        <ele>153</ele>
        <time>2025-02-02T13:10:28Z</time>
      </trkpt>
      <trkpt lat="43.64738" lon="1.38767">
        <ele>153</ele>
        <time>2025-02-02T13:10:29Z</time>
      </trkpt>
      <trkpt lat="43.6474" lon="1.38765">
        <ele>153</ele>
        <time>2025-02-02T13:10:30Z</time>
      </trkpt>
      <trkpt lat="43.64743" lon="1.38764">
        <ele>153</ele>
        <time>2025-02-02T13:10:31Z</time>
      </trkpt>
      <trkpt lat="43.64745" lon="1.38762">
        <ele>153</ele>
        <time>2025-02-02T13:10:32Z</time>
      </trkpt>
      <trkpt lat="43.64749" lon="1.38759">
        <ele>153</ele>
        <time>2025-02-02T13:10:33Z</time>
      </trkpt>
      <trkpt lat="43.6475" lon="1.38758">
        <ele>153</ele>
        <time>2025-02-02T13:10:34Z</time>
      </trkpt>
      <trkpt lat="43.64753" lon="1.38756">
        <ele>153</ele>
        <time>2025-02-02T13:10:35Z</time>
      </trkpt>
      <trkpt lat="43.64755" lon="1.38755">
        <ele>153</ele>
        <time>2025-02-02T13:10:36Z</time>
      </trkpt>
      <trkpt lat="43.64758" lon="1.38753">
        <ele>153</ele>
        <time>2025-02-02T13:10:37Z</time>
      </trkpt>
      <trkpt lat="43.6476" lon="1.38752">
        <ele>153</ele>
        <time>2025-02-02T13:10:38Z</time>
      </trkpt>
      <trkpt lat="43.64763" lon="1.3875">
        <ele>153</ele>
        <time>2025-02-02T13:10:39Z</time>
      </trkpt>
      <trkpt lat="43.64765" lon="1.38749">
        <ele>153</ele>
        <time>2025-02-02T13:10:40Z</time>
      </trkpt>
      <trkpt lat="43.64769" lon="1.38747">
        <ele>153</ele>
        <time>2025-02-02T13:10:41Z</time>
      </trkpt>
      <trkpt lat="43.6477" lon="1.38746">
        <ele>153</ele>
        <time>2025-02-02T13:10:42Z</time>
      </trkpt>
      <trkpt lat="43.64773" lon="1.38744">
        <ele>153</ele>
        <time>2025-02-02T13:10:43Z</time>
      </trkpt>
      <trkpt lat="43.64775" lon="1.38743">
        <ele>153</ele>
        <time>2025-02-02T13:10:44Z</time>
      </trkpt>
      <trkpt lat="43.64778" lon="1.38741">
        <ele>153</ele>
        <time>2025-02-02T13:10:45Z</time>
      </trkpt>
      <trkpt lat="43.64781" lon="1.38739">
        <ele>153</ele>
        <time>2025-02-02T13:10:46Z</time>
      </trkpt>
      <trkpt lat="43.64783" lon="1.38738">
        <ele>153</ele>
        <time>2025-02-02T13:10:47Z</time>
      </trkpt>
      <trkpt lat="43.64786" lon="1.38736">
        <ele>153</ele>
        <time>2025-02-02T13:10:48Z</time>
      </trkpt>
      <trkpt lat="43.64788" lon="1.38735">
        <ele>153</ele>
        <time>2025-02-02T13:10:49Z</time>
      </trkpt>
      <trkpt lat="43.6479" lon="1.38733">
        <ele>153</ele>
        <time>2025-02-02T13:10:50Z</time>
      </trkpt>
      <trkpt lat="43.64793" lon="1.3873">
        <ele>153</ele>
        <time>2025-02-02T13:10:51Z</time>
      </trkpt>
      <trkpt lat="43.64795" lon="1.38729">
        <ele>153</ele>
        <time>2025-02-02T13:10:52Z</time>
      </trkpt>
      <trkpt lat="43.64797" lon="1.38727">
        <ele>153</ele>
        <time>2025-02-02T13:10:53Z</time>
      </trkpt>
      <trkpt lat="43.648" lon="1.38725">
        <ele>153</ele>
        <time>2025-02-02T13:10:54Z</time>
      </trkpt>
      <trkpt lat="43.64802" lon="1.38724">
        <ele>153</ele>
        <time>2025-02-02T13:10:55Z</time>
      </trkpt>
      <trkpt lat="43.64804" lon="1.38722">
        <ele>153</ele>
        <time>2025-02-02T13:10:56Z</time>
      </trkpt>
      <trkpt lat="43.64806" lon="1.3872">
        <ele>153</ele>
        <time>2025-02-02T13:10:57Z</time>
      </trkpt>
      <trkpt lat="43.64809" lon="1.38718">
        <ele>153</ele>
        <time>2025-02-02T13:10:58Z</time>
      </trkpt>
      <trkpt lat="43.64811" lon="1.38717">
        <ele>153</ele>
        <time>2025-02-02T13:10:59Z</time>
      </trkpt>
      <trkpt lat="43.64815" lon="1.38714">
        <ele>153</ele>
        <time>2025-02-02T13:11:00Z</time>
      </trkpt>
      <trkpt lat="43.64816" lon="1.38713">
        <ele>153</ele>
        <time>2025-02-02T13:11:01Z</time>
      </trkpt>
      <trkpt lat="43.64819" lon="1.38711">
        <ele>153</ele>
        <time>2025-02-02T13:11:02Z</time>
      </trkpt>
      <trkpt lat="43.64822" lon="1.3871">
        <ele>153</ele>
        <time>2025-02-02T13:11:03Z</time>
      </trkpt>
      <trkpt lat="43.64824" lon="1.38708">
        <ele>153</ele>
        <time>2025-02-02T13:11:04Z</time>
      </trkpt>
      <trkpt lat="43.64826" lon="1.38705">
        <ele>153</ele>
        <time>2025-02-02T13:11:05Z</time>
      </trkpt>
      <trkpt lat="43.64828" lon="1.38703">
        <ele>153</ele>
        <time>2025-02-02T13:11:06Z</time>
      </trkpt>
      <trkpt lat="43.64831" lon="1.38701">
        <ele>153</ele>
        <time>2025-02-02T13:11:07Z</time>
      </trkpt>
      <trkpt lat="43.64833" lon="1.387">
        <ele>153</ele>
        <time>2025-02-02T13:11:08Z</time>
      </trkpt>
      <trkpt lat="43.64837" lon="1.38698">
        <ele>153</ele>
        <time>2025-02-02T13:11:09Z</time>
      </trkpt>
      <trkpt lat="43.64838" lon="1.38697">
        <ele>153</ele>
        <time>2025-02-02T13:11:10Z</time>
      </trkpt>
      <trkpt lat="43.64841" lon="1.38696">
        <ele>153</ele>
        <time>2025-02-02T13:11:11Z</time>
      </trkpt>
      <trkpt lat="43.64844" lon="1.38694">
        <ele>153</ele>
        <time>2025-02-02T13:11:12Z</time>
      </trkpt>
      <trkpt lat="43.64846" lon="1.38693">
        <ele>153</ele>
        <time>2025-02-02T13:11:13Z</time>
      </trkpt>
      <trkpt lat="43.64848" lon="1.38691">
        <ele>153</ele>
        <time>2025-02-02T13:11:14Z</time>
      </trkpt>
      <trkpt lat="43.6485" lon="1.38689">
        <ele>153</ele>
        <time>2025-02-02T13:11:15Z</time>
      </trkpt>
      <trkpt lat="43.64852" lon="1.38687">
        <ele>152</ele>
        <time>2025-02-02T13:11:16Z</time>
      </trkpt>
      <trkpt lat="43.64855" lon="1.38686">
        <ele>152</ele>
        <time>2025-02-02T13:11:17Z</time>
      </trkpt>
      <trkpt lat="43.64857" lon="1.38685">
        <ele>152</ele>
        <time>2025-02-02T13:11:18Z</time>
      </trkpt>
      <trkpt lat="43.64861" lon="1.38683">
        <ele>152</ele>
        <time>2025-02-02T13:11:19Z</time>
      </trkpt>
      <trkpt lat="43.64862" lon="1.38682">
        <ele>152</ele>
        <time>2025-02-02T13:11:20Z</time>
      </trkpt>
      <trkpt lat="43.64864" lon="1.3868">
        <ele>152</ele>
        <time>2025-02-02T13:11:21Z</time>
      </trkpt>
      <trkpt lat="43.64866" lon="1.38678">
        <ele>153</ele>
        <time>2025-02-02T13:11:22Z</time>
      </trkpt>
      <trkpt lat="43.64869" lon="1.38676">
        <ele>153</ele>
        <time>2025-02-02T13:11:23Z</time>
      </trkpt>
      <trkpt lat="43.64872" lon="1.38675">
        <ele>153</ele>
        <time>2025-02-02T13:11:24Z</time>
      </trkpt>
      <trkpt lat="43.64874" lon="1.38673">
        <ele>153</ele>
        <time>2025-02-02T13:11:25Z</time>
      </trkpt>
      <trkpt lat="43.64877" lon="1.38672">
        <ele>153</ele>
        <time>2025-02-02T13:11:26Z</time>
      </trkpt>
      <trkpt lat="43.64879" lon="1.3867">
        <ele>153</ele>
        <time>2025-02-02T13:11:27Z</time>
      </trkpt>
      <trkpt lat="43.64882" lon="1.38668">
        <ele>153</ele>
        <time>2025-02-02T13:11:28Z</time>
      </trkpt>
      <trkpt lat="43.64883" lon="1.38668">
        <ele>153</ele>
        <time>2025-02-02T13:11:29Z</time>
      </trkpt>
      <trkpt lat="43.64885" lon="1.38666">
        <ele>153</ele>
        <time>2025-02-02T13:11:30Z</time>
      </trkpt>
      <trkpt lat="43.64888" lon="1.38665">
        <ele>153</ele>
        <time>2025-02-02T13:11:31Z</time>
      </trkpt>
      <trkpt lat="43.64891" lon="1.38663">
        <ele>153</ele>
        <time>2025-02-02T13:11:32Z</time>
      </trkpt>
      <trkpt lat="43.64893" lon="1.38661">
        <ele>152</ele>
        <time>2025-02-02T13:11:33Z</time>
      </trkpt>
      <trkpt lat="43.64895" lon="1.38658">
        <ele>152</ele>
        <time>2025-02-02T13:11:34Z</time>
      </trkpt>
      <trkpt lat="43.64897" lon="1.38657">
        <ele>153</ele>
        <time>2025-02-02T13:11:35Z</time>
      </trkpt>
      <trkpt lat="43.64899" lon="1.38656">
        <ele>153</ele>
        <time>2025-02-02T13:11:36Z</time>
      </trkpt>
      <trkpt lat="43.64901" lon="1.38654">
        <ele>153</ele>
        <time>2025-02-02T13:11:37Z</time>
      </trkpt>
      <trkpt lat="43.64904" lon="1.38652">
        <ele>153</ele>
        <time>2025-02-02T13:11:38Z</time>
      </trkpt>
      <trkpt lat="43.64905" lon="1.38651">
        <ele>153</ele>
        <time>2025-02-02T13:11:39Z</time>
      </trkpt>
      <trkpt lat="43.64908" lon="1.3865">
        <ele>153</ele>
        <time>2025-02-02T13:11:40Z</time>
      </trkpt>
      <trkpt lat="43.64911" lon="1.38648">
        <ele>153</ele>
        <time>2025-02-02T13:11:41Z</time>
      </trkpt>
      <trkpt lat="43.64914" lon="1.38646">
        <ele>153</ele>
        <time>2025-02-02T13:11:42Z</time>
      </trkpt>
      <trkpt lat="43.64917" lon="1.38644">
        <ele>153</ele>
        <time>2025-02-02T13:11:43Z</time>
      </trkpt>
      <trkpt lat="43.6492" lon="1.38643">
        <ele>153</ele>
        <time>2025-02-02T13:11:44Z</time>
      </trkpt>
      <trkpt lat="43.64922" lon="1.38641">
        <ele>153</ele>
        <time>2025-02-02T13:11:45Z</time>
      </trkpt>
      <trkpt lat="43.64924" lon="1.3864">
        <ele>153</ele>
        <time>2025-02-02T13:11:46Z</time>
      </trkpt>
      <trkpt lat="43.64928" lon="1.38637">
        <ele>153</ele>
        <time>2025-02-02T13:11:47Z</time>
      </trkpt>
      <trkpt lat="43.6493" lon="1.38636">
        <ele>153</ele>
        <time>2025-02-02T13:11:48Z</time>
      </trkpt>
      <trkpt lat="43.64932" lon="1.38634">
        <ele>153</ele>
        <time>2025-02-02T13:11:49Z</time>
      </trkpt>
      <trkpt lat="43.64935" lon="1.38633">
        <ele>153</ele>
        <time>2025-02-02T13:11:50Z</time>
      </trkpt>
      <trkpt lat="43.64937" lon="1.38631">
        <ele>153</ele>
        <time>2025-02-02T13:11:51Z</time>
      </trkpt>
      <trkpt lat="43.6494" lon="1.3863">
        <ele>153</ele>
        <time>2025-02-02T13:11:52Z</time>
      </trkpt>
      <trkpt lat="43.64943" lon="1.38629">
        <ele>153</ele>
        <time>2025-02-02T13:11:53Z</time>
      </trkpt>
      <trkpt lat="43.64945" lon="1.38627">
        <ele>153</ele>
        <time>2025-02-02T13:11:54Z</time>
      </trkpt>
      <trkpt lat="43.64948" lon="1.38625">
        <ele>153</ele>
        <time>2025-02-02T13:11:55Z</time>
      </trkpt>
      <trkpt lat="43.6495" lon="1.38623">
        <ele>153</ele>
        <time>2025-02-02T13:11:56Z</time>
      </trkpt>
      <trkpt lat="43.64954" lon="1.3862">
        <ele>153</ele>
        <time>2025-02-02T13:11:57Z</time>
      </trkpt>
      <trkpt lat="43.64955" lon="1.38619">
        <ele>153</ele>
        <time>2025-02-02T13:11:58Z</time>
      </trkpt>
      <trkpt lat="43.64957" lon="1.38618">
        <ele>153</ele>
        <time>2025-02-02T13:11:59Z</time>
      </trkpt>
      <trkpt lat="43.64959" lon="1.38617">
        <ele>153</ele>
        <time>2025-02-02T13:12:00Z</time>
      </trkpt>
      <trkpt lat="43.64961" lon="1.38616">
        <ele>153</ele>
        <time>2025-02-02T13:12:01Z</time>
      </trkpt>
      <trkpt lat="43.64963" lon="1.38614">
        <ele>153</ele>
        <time>2025-02-02T13:12:02Z</time>
      </trkpt>
      <trkpt lat="43.64966" lon="1.38613">
        <ele>153</ele>
        <time>2025-02-02T13:12:03Z</time>
      </trkpt>
      <trkpt lat="43.64968" lon="1.38612">
        <ele>153</ele>
        <time>2025-02-02T13:12:04Z</time>
      </trkpt>
      <trkpt lat="43.64972" lon="1.3861">
        <ele>153</ele>
        <time>2025-02-02T13:12:05Z</time>
      </trkpt>
      <trkpt lat="43.64974" lon="1.38609">
        <ele>153</ele>
        <time>2025-02-02T13:12:06Z</time>
      </trkpt>
      <trkpt lat="43.64976" lon="1.38608">
        <ele>153</ele>
        <time>2025-02-02T13:12:07Z</time>
      </trkpt>
      <trkpt lat="43.64979" lon="1.38607">
        <ele>153</ele>
        <time>2025-02-02T13:12:08Z</time>
      </trkpt>
      <trkpt lat="43.64982" lon="1.38605">
        <ele>153</ele>
        <time>2025-02-02T13:12:09Z</time>
      </trkpt>
      <trkpt lat="43.64985" lon="1.38604">
        <ele>153</ele>
        <time>2025-02-02T13:12:10Z</time>
      </trkpt>
      <trkpt lat="43.64988" lon="1.38602">
        <ele>152</ele>
        <time>2025-02-02T13:12:11Z</time>
      </trkpt>
      <trkpt lat="43.6499" lon="1.38601">
        <ele>152</ele>
        <time>2025-02-02T13:12:12Z</time>
      </trkpt>
      <trkpt lat="43.64993" lon="1.38599">
        <ele>152</ele>
        <time>2025-02-02T13:12:13Z</time>
      </trkpt>
      <trkpt lat="43.64996" lon="1.38596">
        <ele>152</ele>
        <time>2025-02-02T13:12:14Z</time>
      </trkpt>
      <trkpt lat="43.64998" lon="1.38594">
        <ele>152</ele>
        <time>2025-02-02T13:12:15Z</time>
      </trkpt>
      <trkpt lat="43.65002" lon="1.38591">
        <ele>152</ele>
        <time>2025-02-02T13:12:16Z</time>
      </trkpt>
      <trkpt lat="43.65003" lon="1.3859">
        <ele>152</ele>
        <time>2025-02-02T13:12:17Z</time>
      </trkpt>
      <trkpt lat="43.65005" lon="1.38589">
        <ele>152</ele>
        <time>2025-02-02T13:12:18Z</time>
      </trkpt>
      <trkpt lat="43.65008" lon="1.38586">
        <ele>152</ele>
        <time>2025-02-02T13:12:19Z</time>
      </trkpt>
      <trkpt lat="43.6501" lon="1.38585">
        <ele>152</ele>
        <time>2025-02-02T13:12:20Z</time>
      </trkpt>
      <trkpt lat="43.65013" lon="1.38583">
        <ele>152</ele>
        <time>2025-02-02T13:12:21Z</time>
      </trkpt>
      <trkpt lat="43.65017" lon="1.38581">
        <ele>152</ele>
        <time>2025-02-02T13:12:22Z</time>
      </trkpt>
      <trkpt lat="43.65018" lon="1.3858">
        <ele>152</ele>
        <time>2025-02-02T13:12:23Z</time>
      </trkpt>
      <trkpt lat="43.65021" lon="1.38579">
        <ele>152</ele>
        <time>2025-02-02T13:12:24Z</time>
      </trkpt>
      <trkpt lat="43.65023" lon="1.38577">
        <ele>152</ele>
        <time>2025-02-02T13:12:25Z</time>
      </trkpt>
      <trkpt lat="43.65026" lon="1.38575">
        <ele>152</ele>
        <time>2025-02-02T13:12:26Z</time>
      </trkpt>
      <trkpt lat="43.65028" lon="1.38574">
        <ele>152</ele>
        <time>2025-02-02T13:12:27Z</time>
      </trkpt>
      <trkpt lat="43.65031" lon="1.38572">
        <ele>152</ele>
        <time>2025-02-02T13:12:28Z</time>
      </trkpt>
      <trkpt lat="43.65033" lon="1.3857">
        <ele>152</ele>
        <time>2025-02-02T13:12:29Z</time>
      </trkpt>
      <trkpt lat="43.65036" lon="1.38569">
        <ele>152</ele>
        <time>2025-02-02T13:12:30Z</time>
      </trkpt>
      <trkpt lat="43.65038" lon="1.38567">
        <ele>152</ele>
        <time>2025-02-02T13:12:31Z</time>
      </trkpt>
      <trkpt lat="43.6504" lon="1.38566">
        <ele>152</ele>
        <time>2025-02-02T13:12:32Z</time>
      </trkpt>
      <trkpt lat="43.65043" lon="1.38564">
        <ele>152</ele>
        <time>2025-02-02T13:12:33Z</time>
      </trkpt>
      <trkpt lat="43.65045" lon="1.38562">
        <ele>152</ele>
        <time>2025-02-02T13:12:34Z</time>
      </trkpt>
      <trkpt lat="43.6505" lon="1.3856">
        <ele>152</ele>
        <time>2025-02-02T13:12:35Z</time>
      </trkpt>
      <trkpt lat="43.65052" lon="1.38559">
        <ele>153</ele>
        <time>2025-02-02T13:12:36Z</time>
      </trkpt>
      <trkpt lat="43.65054" lon="1.38558">
        <ele>153</ele>
        <time>2025-02-02T13:12:37Z</time>
      </trkpt>
      <trkpt lat="43.65056" lon="1.38558">
        <ele>153</ele>
        <time>2025-02-02T13:12:38Z</time>
      </trkpt>
      <trkpt lat="43.65059" lon="1.38557">
        <ele>153</ele>
        <time>2025-02-02T13:12:39Z</time>
      </trkpt>
      <trkpt lat="43.65063" lon="1.38554">
        <ele>153</ele>
        <time>2025-02-02T13:12:40Z</time>
      </trkpt>
      <trkpt lat="43.65064" lon="1.38554">
        <ele>153</ele>
        <time>2025-02-02T13:12:41Z</time>
      </trkpt>
      <trkpt lat="43.65067" lon="1.38553">
        <ele>153</ele>
        <time>2025-02-02T13:12:42Z</time>
      </trkpt>
      <trkpt lat="43.65069" lon="1.38551">
        <ele>153</ele>
        <time>2025-02-02T13:12:43Z</time>
      </trkpt>
      <trkpt lat="43.65072" lon="1.3855">
        <ele>153</ele>
        <time>2025-02-02T13:12:44Z</time>
      </trkpt>
      <trkpt lat="43.65074" lon="1.38548">
        <ele>153</ele>
        <time>2025-02-02T13:12:45Z</time>
      </trkpt>
      <trkpt lat="43.65076" lon="1.38548">
        <ele>153</ele>
        <time>2025-02-02T13:12:46Z</time>
      </trkpt>
      <trkpt lat="43.65079" lon="1.38547">
        <ele>153</ele>
        <time>2025-02-02T13:12:47Z</time>
      </trkpt>
      <trkpt lat="43.65082" lon="1.38546">
        <ele>153</ele>
        <time>2025-02-02T13:12:48Z</time>
      </trkpt>
      <trkpt lat="43.65085" lon="1.38544">
        <ele>153</ele>
        <time>2025-02-02T13:12:49Z</time>
      </trkpt>
      <trkpt lat="43.65088" lon="1.38543">
        <ele>152</ele>
        <time>2025-02-02T13:12:50Z</time>
      </trkpt>
      <trkpt lat="43.65091" lon="1.38541">
        <ele>152</ele>
        <time>2025-02-02T13:12:51Z</time>
      </trkpt>
      <trkpt lat="43.65093" lon="1.38539">
        <ele>152</ele>
        <time>2025-02-02T13:12:52Z</time>
      </trkpt>
      <trkpt lat="43.65095" lon="1.38536">
        <ele>152</ele>
        <time>2025-02-02T13:12:53Z</time>
      </trkpt>
      <trkpt lat="43.65097" lon="1.38531">
        <ele>152</ele>
        <time>2025-02-02T13:12:54Z</time>
      </trkpt>
      <trkpt lat="43.65098" lon="1.38529">
        <ele>152</ele>
        <time>2025-02-02T13:12:55Z</time>
      </trkpt>
      <trkpt lat="43.65098" lon="1.38525">
        <ele>152</ele>
        <time>2025-02-02T13:12:56Z</time>
      </trkpt>
      <trkpt lat="43.65099" lon="1.38521">
        <ele>153</ele>
        <time>2025-02-02T13:12:57Z</time>
      </trkpt>
      <trkpt lat="43.65101" lon="1.38515">
        <ele>153</ele>
        <time>2025-02-02T13:12:58Z</time>
      </trkpt>
      <trkpt lat="43.65102" lon="1.38513">
        <ele>152</ele>
        <time>2025-02-02T13:12:59Z</time>
      </trkpt>
      <trkpt lat="43.65103" lon="1.3851">
        <ele>152</ele>
        <time>2025-02-02T13:13:00Z</time>
      </trkpt>
      <trkpt lat="43.65104" lon="1.38506">
        <ele>152</ele>
        <time>2025-02-02T13:13:01Z</time>
      </trkpt>
      <trkpt lat="43.65104" lon="1.38503">
        <ele>152</ele>
        <time>2025-02-02T13:13:02Z</time>
      </trkpt>
      <trkpt lat="43.65103" lon="1.385">
        <ele>152</ele>
        <time>2025-02-02T13:13:03Z</time>
      </trkpt>
      <trkpt lat="43.65101" lon="1.38496">
        <ele>152</ele>
        <time>2025-02-02T13:13:04Z</time>
      </trkpt>
      <trkpt lat="43.65099" lon="1.38493">
        <ele>152</ele>
        <time>2025-02-02T13:13:05Z</time>
      </trkpt>
      <trkpt lat="43.65098" lon="1.3849">
        <ele>152</ele>
        <time>2025-02-02T13:13:06Z</time>
      </trkpt>
      <trkpt lat="43.65097" lon="1.38487">
        <ele>152</ele>
        <time>2025-02-02T13:13:07Z</time>
      </trkpt>
      <trkpt lat="43.65096" lon="1.38484">
        <ele>153</ele>
        <time>2025-02-02T13:13:08Z</time>
      </trkpt>
      <trkpt lat="43.65095" lon="1.38481">
        <ele>153</ele>
        <time>2025-02-02T13:13:09Z</time>
      </trkpt>
      <trkpt lat="43.65095" lon="1.38478">
        <ele>153</ele>
        <time>2025-02-02T13:13:10Z</time>
      </trkpt>
      <trkpt lat="43.65094" lon="1.38475">
        <ele>153</ele>
        <time>2025-02-02T13:13:11Z</time>
      </trkpt>
      <trkpt lat="43.65092" lon="1.38472">
        <ele>153</ele>
        <time>2025-02-02T13:13:12Z</time>
      </trkpt>
      <trkpt lat="43.65091" lon="1.38467">
        <ele>153</ele>
        <time>2025-02-02T13:13:13Z</time>
      </trkpt>
      <trkpt lat="43.65091" lon="1.38465">
        <ele>153</ele>
        <time>2025-02-02T13:13:14Z</time>
      </trkpt>
      <trkpt lat="43.6509" lon="1.38462">
        <ele>153</ele>
        <time>2025-02-02T13:13:15Z</time>
      </trkpt>
      <trkpt lat="43.65088" lon="1.38459">
        <ele>153</ele>
        <time>2025-02-02T13:13:16Z</time>
      </trkpt>
      <trkpt lat="43.65086" lon="1.38453">
        <ele>153</ele>
        <time>2025-02-02T13:13:17Z</time>
      </trkpt>
      <trkpt lat="43.65086" lon="1.38451">
        <ele>153</ele>
        <time>2025-02-02T13:13:18Z</time>
      </trkpt>
      <trkpt lat="43.65084" lon="1.38448">
        <ele>153</ele>
        <time>2025-02-02T13:13:19Z</time>
      </trkpt>
      <trkpt lat="43.65082" lon="1.38444">
        <ele>153</ele>
        <time>2025-02-02T13:13:20Z</time>
      </trkpt>
      <trkpt lat="43.65081" lon="1.3844">
        <ele>153</ele>
        <time>2025-02-02T13:13:21Z</time>
      </trkpt>
      <trkpt lat="43.65079" lon="1.38436">
        <ele>153</ele>
        <time>2025-02-02T13:13:22Z</time>
      </trkpt>
      <trkpt lat="43.65078" lon="1.38432">
        <ele>153</ele>
        <time>2025-02-02T13:13:23Z</time>
      </trkpt>
      <trkpt lat="43.65076" lon="1.38428">
        <ele>153</ele>
        <time>2025-02-02T13:13:24Z</time>
      </trkpt>
      <trkpt lat="43.65076" lon="1.38424">
        <ele>152</ele>
        <time>2025-02-02T13:13:25Z</time>
      </trkpt>
      <trkpt lat="43.65075" lon="1.3842">
        <ele>152</ele>
        <time>2025-02-02T13:13:26Z</time>
      </trkpt>
      <trkpt lat="43.65074" lon="1.38417">
        <ele>152</ele>
        <time>2025-02-02T13:13:27Z</time>
      </trkpt>
    </trkseg>
  </trk>
</gpx>